<?xml version='1.0' encoding='UTF-8'?><gpx version="1.1" creator="JPX - https://github.com/jenetics/jpx" xmlns="http://www.topografix.com/GPX/1/1"><trk><trkseg><trkpt lat="42.049804727963526" lon="12.397241117173332"><ele>130.0</ele><time>2026-04-18T08:05:10.998Z</time></trkpt><trkpt lat="42.049927320054664" lon="12.397222761116755"><ele>130.0</ele><time>2026-04-18T08:05:12.998Z</time></trkpt><trkpt lat="42.05001491433282" lon="12.397223566765879"><ele>130.0</ele><time>2026-04-18T08:05:13.998Z</time></trkpt><trkpt lat="42.05010618412438" lon="12.397303594473042"><ele>130.0</ele><time>2026-04-18T08:05:14.998Z</time></trkpt><trkpt lat="42.05018567158138" lon="12.397325249696339"><ele>130.0</ele><time>2026-04-18T08:05:15.998Z</time></trkpt><trkpt lat="42.05027087096055" lon="12.397202725339945"><ele>130.8</ele><time>2026-04-18T08:05:16.998Z</time></trkpt><trkpt lat="42.05034228251032" lon="12.397166237481809"><ele>131.6</ele><time>2026-04-18T08:05:17.999Z</time></trkpt><trkpt lat="42.05043008231961" lon="12.397136752315504"><ele>132.4</ele><time>2026-04-18T08:05:18.999Z</time></trkpt><trkpt lat="42.05052820541094" lon="12.397094821008057"><ele>133.2</ele><time>2026-04-18T08:05:19.999Z</time></trkpt><trkpt lat="42.05064503714395" lon="12.397049507186333"><ele>134.0</ele><time>2026-04-18T08:05:20.999Z</time></trkpt><trkpt lat="42.050707050428876" lon="12.396998908402901"><ele>134.0</ele><time>2026-04-18T08:05:21.999Z</time></trkpt><trkpt lat="42.05078161116957" lon="12.396957156397582"><ele>134.0</ele><time>2026-04-18T08:05:23.999Z</time></trkpt><trkpt lat="42.05071324951655" lon="12.396587057955246"><ele>134.0</ele><time>2026-04-18T08:05:25.999Z</time></trkpt><trkpt lat="42.05056393012043" lon="12.396667996927217"><ele>134.0</ele><time>2026-04-18T08:05:26.999Z</time></trkpt><trkpt lat="42.05046715286241" lon="12.396662742819151"><ele>134.0</ele><time>2026-04-18T08:05:27.999Z</time></trkpt><trkpt lat="42.05036535554671" lon="12.396644834811003"><ele>134.0</ele><time>2026-04-18T08:05:28.999Z</time></trkpt><trkpt lat="42.05026972845973" lon="12.396676922705803"><ele>134.0</ele><time>2026-04-18T08:05:29.999Z</time></trkpt><trkpt lat="42.050173298068756" lon="12.396696649169252"><ele>134.0</ele><time>2026-04-18T08:05:30.999Z</time></trkpt><trkpt lat="42.0500898496386" lon="12.396713264448783"><ele>134.0</ele><time>2026-04-18T08:05:31.999Z</time></trkpt><trkpt lat="42.05001766572266" lon="12.396727107190507"><ele>134.0</ele><time>2026-04-18T08:05:32.999Z</time></trkpt><trkpt lat="42.04994201306088" lon="12.396729110849254"><ele>134.0</ele><time>2026-04-18T08:05:33.999Z</time></trkpt><trkpt lat="42.049858454550105" lon="12.396720118464248"><ele>134.0</ele><time>2026-04-18T08:05:34.999Z</time></trkpt><trkpt lat="42.04978519775147" lon="12.396713485601417"><ele>134.0</ele><time>2026-04-18T08:05:35.999Z</time></trkpt><trkpt lat="42.04971869736156" lon="12.39670805776556"><ele>134.0</ele><time>2026-04-18T08:05:36.999Z</time></trkpt><trkpt lat="42.049644168153655" lon="12.396700520828777"><ele>134.0</ele><time>2026-04-18T08:05:37.999Z</time></trkpt><trkpt lat="42.049563178229555" lon="12.396706702809286"><ele>134.0</ele><time>2026-04-18T08:05:38.999Z</time></trkpt><trkpt lat="42.04946395599455" lon="12.396689627088369"><ele>134.0</ele><time>2026-04-18T08:05:40.999Z</time></trkpt><trkpt lat="42.04942767814416" lon="12.396547056738772"><ele>134.0</ele><time>2026-04-18T08:05:44.999Z</time></trkpt><trkpt lat="42.04942401105036" lon="12.396427784301116"><ele>134.0</ele><time>2026-04-18T08:05:49.999Z</time></trkpt><trkpt lat="42.04929058901362" lon="12.39640467506733"><ele>134.0</ele><time>2026-04-18T08:05:50.999Z</time></trkpt><trkpt lat="42.049182697069085" lon="12.396378307011787"><ele>133.33333333333331</ele><time>2026-04-18T08:05:51.999Z</time></trkpt><trkpt lat="42.04904207189761" lon="12.396334473020552"><ele>132.66666666666666</ele><time>2026-04-18T08:05:52.999Z</time></trkpt><trkpt lat="42.048884222249775" lon="12.396267089708227"><ele>132.0</ele><time>2026-04-18T08:05:53.999Z</time></trkpt><trkpt lat="42.04868957146804" lon="12.396201542527294"><ele>132.0</ele><time>2026-04-18T08:05:54.999Z</time></trkpt><trkpt lat="42.0484801901367" lon="12.39612858808226"><ele>132.0</ele><time>2026-04-18T08:05:55.999Z</time></trkpt><trkpt lat="42.04829177956253" lon="12.396060929489439"><ele>132.0</ele><time>2026-04-18T08:05:56.999Z</time></trkpt><trkpt lat="42.048128013977504" lon="12.396005146852875"><ele>131.33333333333334</ele><time>2026-04-18T08:05:57.999Z</time></trkpt><trkpt lat="42.047974131676725" lon="12.395949885253168"><ele>130.66666666666669</ele><time>2026-04-18T08:05:58.999Z</time></trkpt><trkpt lat="42.04782449642937" lon="12.395893035831511"><ele>130.0</ele><time>2026-04-18T08:05:59.999Z</time></trkpt><trkpt lat="42.04768511079473" lon="12.395841474894903"><ele>130.0</ele><time>2026-04-18T08:06:00.999Z</time></trkpt><trkpt lat="42.047560584627874" lon="12.395792641325807"><ele>130.0</ele><time>2026-04-18T08:06:01.999Z</time></trkpt><trkpt lat="42.04746016577163" lon="12.395752219685235"><ele>130.0</ele><time>2026-04-18T08:06:02.999Z</time></trkpt><trkpt lat="42.047380530182316" lon="12.39572039546577"><ele>130.0</ele><time>2026-04-18T08:06:03.999Z</time></trkpt><trkpt lat="42.047308506004725" lon="12.3956934014957"><ele>130.0</ele><time>2026-04-18T08:06:04.999Z</time></trkpt><trkpt lat="42.04721311706733" lon="12.395661407010811"><ele>130.0</ele><time>2026-04-18T08:06:06.999Z</time></trkpt><trkpt lat="42.04714094665269" lon="12.395627013173772"><ele>130.0</ele><time>2026-04-18T08:06:07.999Z</time></trkpt><trkpt lat="42.04702224157135" lon="12.395570120233462"><ele>130.0</ele><time>2026-04-18T08:06:08.999Z</time></trkpt><trkpt lat="42.04687779008318" lon="12.395514973577338"><ele>130.0</ele><time>2026-04-18T08:06:09.999Z</time></trkpt><trkpt lat="42.04671258409933" lon="12.395450797926397"><ele>128.66666666666669</ele><time>2026-04-18T08:06:10.999Z</time></trkpt><trkpt lat="42.04653860230957" lon="12.395381241551293"><ele>127.33333333333334</ele><time>2026-04-18T08:06:11.999Z</time></trkpt><trkpt lat="42.0463687166513" lon="12.395308218859794"><ele>126.0</ele><time>2026-04-18T08:06:12.999Z</time></trkpt><trkpt lat="42.04622094329152" lon="12.395241212843517"><ele>126.0</ele><time>2026-04-18T08:06:13.999Z</time></trkpt><trkpt lat="42.046091987198885" lon="12.395181685174856"><ele>126.0</ele><time>2026-04-18T08:06:14.999Z</time></trkpt><trkpt lat="42.045973604214026" lon="12.395119790611766"><ele>126.0</ele><time>2026-04-18T08:06:15.999Z</time></trkpt><trkpt lat="42.045852245375016" lon="12.395052904846814"><ele>126.0</ele><time>2026-04-18T08:06:16.999Z</time></trkpt><trkpt lat="42.04572846795313" lon="12.394992703937348"><ele>125.75</ele><time>2026-04-18T08:06:17.999Z</time></trkpt><trkpt lat="42.04558609966364" lon="12.394931913335547"><ele>125.5</ele><time>2026-04-18T08:06:18.999Z</time></trkpt><trkpt lat="42.045456851076935" lon="12.394874312906515"><ele>125.25</ele><time>2026-04-18T08:06:19.999Z</time></trkpt><trkpt lat="42.04533854405233" lon="12.39481134111749"><ele>125.0</ele><time>2026-04-18T08:06:20.999Z</time></trkpt><trkpt lat="42.04522430750516" lon="12.394757610665431"><ele>125.0</ele><time>2026-04-18T08:06:21.999Z</time></trkpt><trkpt lat="42.04512384957044" lon="12.394736986635767"><ele>125.0</ele><time>2026-04-18T08:06:22.999Z</time></trkpt><trkpt lat="42.04503948124022" lon="12.39471884602502"><ele>125.0</ele><time>2026-04-18T08:06:23.999Z</time></trkpt><trkpt lat="42.04492069114783" lon="12.394678601656247"><ele>125.0</ele><time>2026-04-18T08:06:25.999Z</time></trkpt><trkpt lat="42.0448164479011" lon="12.394837562483238"><ele>124.5</ele><time>2026-04-18T08:06:27.999Z</time></trkpt><trkpt lat="42.04477907410048" lon="12.394973737334466"><ele>124.0</ele><time>2026-04-18T08:06:28.999Z</time></trkpt><trkpt lat="42.04475763581209" lon="12.395144450766319"><ele>123.5</ele><time>2026-04-18T08:06:29.999Z</time></trkpt><trkpt lat="42.044724208804304" lon="12.395329396292572"><ele>123.0</ele><time>2026-04-18T08:06:30.999Z</time></trkpt><trkpt lat="42.04468204875239" lon="12.395515572785655"><ele>123.0</ele><time>2026-04-18T08:06:31.999Z</time></trkpt><trkpt lat="42.044669674633546" lon="12.39571099617012"><ele>123.0</ele><time>2026-04-18T08:06:32.999Z</time></trkpt><trkpt lat="42.04471705410507" lon="12.395901685440354"><ele>123.0</ele><time>2026-04-18T08:06:33.999Z</time></trkpt><trkpt lat="42.044802009359636" lon="12.396075499050278"><ele>123.0</ele><time>2026-04-18T08:06:34.999Z</time></trkpt><trkpt lat="42.04490262360482" lon="12.396247200671551"><ele>123.0</ele><time>2026-04-18T08:06:35.999Z</time></trkpt><trkpt lat="42.04498217178788" lon="12.396393624518588"><ele>123.00000000000001</ele><time>2026-04-18T08:06:36.999Z</time></trkpt><trkpt lat="42.045028517433664" lon="12.396521389934577"><ele>123.00000000000001</ele><time>2026-04-18T08:06:37.999Z</time></trkpt><trkpt lat="42.045042205600296" lon="12.39661790031415"><ele>123.0</ele><time>2026-04-18T08:06:38.999Z</time></trkpt><trkpt lat="42.045035403205574" lon="12.396704810907158"><ele>123.0</ele><time>2026-04-18T08:06:41.999Z</time></trkpt><trkpt lat="42.04502737329398" lon="12.396851685672504"><ele>123.0</ele><time>2026-04-18T08:06:44.999Z</time></trkpt><trkpt lat="42.045005645118394" lon="12.39696144469774"><ele>123.00000000000001</ele><time>2026-04-18T08:06:45.999Z</time></trkpt><trkpt lat="42.04498718748746" lon="12.397067714845889"><ele>123.00000000000001</ele><time>2026-04-18T08:06:46.999Z</time></trkpt><trkpt lat="42.04497131384212" lon="12.397184604550967"><ele>123.0</ele><time>2026-04-18T08:06:47.999Z</time></trkpt><trkpt lat="42.0449465266058" lon="12.397380062085075"><ele>123.0</ele><time>2026-04-18T08:06:48.999Z</time></trkpt><trkpt lat="42.04490528209071" lon="12.397646105046906"><ele>122.5</ele><time>2026-04-18T08:06:49.999Z</time></trkpt><trkpt lat="42.044851863165626" lon="12.397977552112854"><ele>122.0</ele><time>2026-04-18T08:06:50.999Z</time></trkpt><trkpt lat="42.04480398915227" lon="12.398266298530858"><ele>122.0</ele><time>2026-04-18T08:06:51.999Z</time></trkpt><trkpt lat="42.04477642753898" lon="12.398521333854442"><ele>122.0</ele><time>2026-04-18T08:06:52.999Z</time></trkpt><trkpt lat="42.04475607507968" lon="12.398777078271563"><ele>122.0</ele><time>2026-04-18T08:06:53.999Z</time></trkpt><trkpt lat="42.0447376179989" lon="12.399030614155153"><ele>122.0</ele><time>2026-04-18T08:06:54.999Z</time></trkpt><trkpt lat="42.044718794328915" lon="12.39928330993769"><ele>122.0</ele><time>2026-04-18T08:06:55.999Z</time></trkpt><trkpt lat="42.04470682933563" lon="12.399533643797307"><ele>122.0</ele><time>2026-04-18T08:06:56.999Z</time></trkpt><trkpt lat="42.04470000249213" lon="12.399786985927758"><ele>122.33333333333333</ele><time>2026-04-18T08:06:57.999Z</time></trkpt><trkpt lat="42.044697209766476" lon="12.400051438026937"><ele>122.66666666666666</ele><time>2026-04-18T08:06:58.999Z</time></trkpt><trkpt lat="42.044698490826136" lon="12.400317315590824"><ele>123.0</ele><time>2026-04-18T08:06:59.999Z</time></trkpt><trkpt lat="42.04469618572044" lon="12.400585576246641"><ele>123.0</ele><time>2026-04-18T08:07:00.999Z</time></trkpt><trkpt lat="42.04469179088595" lon="12.400853783423964"><ele>123.0</ele><time>2026-04-18T08:07:01.999Z</time></trkpt><trkpt lat="42.044694759686124" lon="12.401126758571674"><ele>123.0</ele><time>2026-04-18T08:07:02.999Z</time></trkpt><trkpt lat="42.044699310372735" lon="12.401398979653079"><ele>121.0</ele><time>2026-04-18T08:07:03.999Z</time></trkpt><trkpt lat="42.04470092310092" lon="12.401666365659203"><ele>119.0</ele><time>2026-04-18T08:07:04.999Z</time></trkpt><trkpt lat="42.04470447587119" lon="12.401936948908252"><ele>117.0</ele><time>2026-04-18T08:07:05.999Z</time></trkpt><trkpt lat="42.044707856688255" lon="12.402208371123395"><ele>115.0</ele><time>2026-04-18T08:07:06.999Z</time></trkpt><trkpt lat="42.044708469209944" lon="12.40247557887542"><ele>113.0</ele><time>2026-04-18T08:07:07.999Z</time></trkpt><trkpt lat="42.044707739310475" lon="12.402745007292717"><ele>111.0</ele><time>2026-04-18T08:07:08.999Z</time></trkpt><trkpt lat="42.044704052503484" lon="12.403017551031557"><ele>110.66666666666666</ele><time>2026-04-18T08:07:09.999Z</time></trkpt><trkpt lat="42.044693967568655" lon="12.403286747342948"><ele>110.33333333333333</ele><time>2026-04-18T08:07:10.999Z</time></trkpt><trkpt lat="42.04468101618919" lon="12.403555267621856"><ele>110.0</ele><time>2026-04-18T08:07:11.999Z</time></trkpt><trkpt lat="42.04466412618648" lon="12.403820854373343"><ele>112.33333333333333</ele><time>2026-04-18T08:07:12.999Z</time></trkpt><trkpt lat="42.044650987623534" lon="12.404085454361413"><ele>114.66666666666666</ele><time>2026-04-18T08:07:13.999Z</time></trkpt><trkpt lat="42.04463674301882" lon="12.404354253636342"><ele>117.0</ele><time>2026-04-18T08:07:14.999Z</time></trkpt><trkpt lat="42.04461828873945" lon="12.404624062323105"><ele>117.66666666666666</ele><time>2026-04-18T08:07:15.999Z</time></trkpt><trkpt lat="42.0445872811857" lon="12.404895521076822"><ele>118.33333333333333</ele><time>2026-04-18T08:07:16.998Z</time></trkpt><trkpt lat="42.04456493116924" lon="12.405169485985313"><ele>119.0</ele><time>2026-04-18T08:07:17.998Z</time></trkpt><trkpt lat="42.04454489987601" lon="12.405440955266851"><ele>117.33333333333333</ele><time>2026-04-18T08:07:18.998Z</time></trkpt><trkpt lat="42.04452026402661" lon="12.405699798860201"><ele>115.66666666666666</ele><time>2026-04-18T08:07:19.998Z</time></trkpt><trkpt lat="42.04449104148671" lon="12.405961145158265"><ele>114.0</ele><time>2026-04-18T08:07:20.998Z</time></trkpt><trkpt lat="42.044458485777845" lon="12.406225211064756"><ele>111.0</ele><time>2026-04-18T08:07:21.998Z</time></trkpt><trkpt lat="42.04442583667494" lon="12.406487464848245"><ele>108.0</ele><time>2026-04-18T08:07:22.998Z</time></trkpt><trkpt lat="42.04439354410459" lon="12.406744757257503"><ele>105.0</ele><time>2026-04-18T08:07:23.998Z</time></trkpt><trkpt lat="42.044355145879244" lon="12.407005385845409"><ele>104.33333333333334</ele><time>2026-04-18T08:07:24.998Z</time></trkpt><trkpt lat="42.04431457361267" lon="12.407261207776887"><ele>103.66666666666667</ele><time>2026-04-18T08:07:25.998Z</time></trkpt><trkpt lat="42.044274072014474" lon="12.407524300905413"><ele>103.0</ele><time>2026-04-18T08:07:26.998Z</time></trkpt><trkpt lat="42.04423430504715" lon="12.407795101358168"><ele>103.66666666666667</ele><time>2026-04-18T08:07:27.998Z</time></trkpt><trkpt lat="42.044195871214676" lon="12.408071495061698"><ele>104.33333333333334</ele><time>2026-04-18T08:07:28.998Z</time></trkpt><trkpt lat="42.04415499031404" lon="12.408345873320664"><ele>105.0</ele><time>2026-04-18T08:07:29.998Z</time></trkpt><trkpt lat="42.04411422510224" lon="12.408623924264262"><ele>103.0</ele><time>2026-04-18T08:07:30.998Z</time></trkpt><trkpt lat="42.04407117656765" lon="12.408901899195625"><ele>101.0</ele><time>2026-04-18T08:07:31.998Z</time></trkpt><trkpt lat="42.044030369780494" lon="12.409178386857766"><ele>99.0</ele><time>2026-04-18T08:07:32.998Z</time></trkpt><trkpt lat="42.04399169942763" lon="12.40944982224342"><ele>101.0</ele><time>2026-04-18T08:07:33.998Z</time></trkpt><trkpt lat="42.04395175277167" lon="12.409726693010086"><ele>103.0</ele><time>2026-04-18T08:07:34.998Z</time></trkpt><trkpt lat="42.043912777666534" lon="12.409999250022665"><ele>105.0</ele><time>2026-04-18T08:07:35.998Z</time></trkpt><trkpt lat="42.043873913673" lon="12.410268376965513"><ele>106.66666666666666</ele><time>2026-04-18T08:07:36.998Z</time></trkpt><trkpt lat="42.04383460616528" lon="12.410545414566867"><ele>108.33333333333333</ele><time>2026-04-18T08:07:37.998Z</time></trkpt><trkpt lat="42.04379261442151" lon="12.410812566401015"><ele>110.0</ele><time>2026-04-18T08:07:38.998Z</time></trkpt><trkpt lat="42.04375494911499" lon="12.411088394562565"><ele>109.33333333333333</ele><time>2026-04-18T08:07:39.998Z</time></trkpt><trkpt lat="42.04371456501485" lon="12.411362993774741"><ele>108.66666666666666</ele><time>2026-04-18T08:07:40.998Z</time></trkpt><trkpt lat="42.04367472363053" lon="12.411638617604373"><ele>108.0</ele><time>2026-04-18T08:07:41.999Z</time></trkpt><trkpt lat="42.04363385643644" lon="12.411911575875909"><ele>107.66666666666666</ele><time>2026-04-18T08:07:42.999Z</time></trkpt><trkpt lat="42.04359385898637" lon="12.412184143436146"><ele>107.33333333333333</ele><time>2026-04-18T08:07:43.999Z</time></trkpt><trkpt lat="42.043555014484724" lon="12.412457577400392"><ele>107.0</ele><time>2026-04-18T08:07:44.999Z</time></trkpt><trkpt lat="42.04351631049593" lon="12.412730336729446"><ele>108.0</ele><time>2026-04-18T08:07:45.999Z</time></trkpt><trkpt lat="42.04347751554441" lon="12.413004903897361"><ele>109.0</ele><time>2026-04-18T08:07:46.999Z</time></trkpt><trkpt lat="42.04343362883429" lon="12.413275463342032"><ele>110.0</ele><time>2026-04-18T08:07:47.999Z</time></trkpt><trkpt lat="42.043397991549256" lon="12.413547216431837"><ele>110.0</ele><time>2026-04-18T08:07:48.999Z</time></trkpt><trkpt lat="42.04336010277961" lon="12.413811644288984"><ele>110.0</ele><time>2026-04-18T08:07:49.999Z</time></trkpt><trkpt lat="42.043323370004416" lon="12.41407462822656"><ele>110.0</ele><time>2026-04-18T08:07:50.999Z</time></trkpt><trkpt lat="42.04328646891586" lon="12.414338577951142"><ele>110.33333333333333</ele><time>2026-04-18T08:07:51.999Z</time></trkpt><trkpt lat="42.04324881469809" lon="12.414600182572352"><ele>110.66666666666666</ele><time>2026-04-18T08:07:52.999Z</time></trkpt><trkpt lat="42.043214936701055" lon="12.414859415832941"><ele>111.0</ele><time>2026-04-18T08:07:53.999Z</time></trkpt><trkpt lat="42.04317137943889" lon="12.415111329401691"><ele>109.66666666666666</ele><time>2026-04-18T08:07:54.999Z</time></trkpt><trkpt lat="42.04313119931491" lon="12.415365143797999"><ele>108.33333333333333</ele><time>2026-04-18T08:07:55.999Z</time></trkpt><trkpt lat="42.04309027348425" lon="12.415617134493695"><ele>107.0</ele><time>2026-04-18T08:07:56.999Z</time></trkpt><trkpt lat="42.0430412159786" lon="12.415868727911624"><ele>105.66666666666666</ele><time>2026-04-18T08:07:57.999Z</time></trkpt><trkpt lat="42.042987543750264" lon="12.416123750996896"><ele>104.33333333333334</ele><time>2026-04-18T08:07:58.999Z</time></trkpt><trkpt lat="42.04292988336463" lon="12.416379968741806"><ele>103.0</ele><time>2026-04-18T08:07:59.999Z</time></trkpt><trkpt lat="42.042870921995465" lon="12.416627927698869"><ele>103.0</ele><time>2026-04-18T08:08:00.999Z</time></trkpt><trkpt lat="42.04280875101079" lon="12.416879236329452"><ele>103.0</ele><time>2026-04-18T08:08:01.999Z</time></trkpt><trkpt lat="42.042740630299186" lon="12.417122463479043"><ele>103.0</ele><time>2026-04-18T08:08:02.999Z</time></trkpt><trkpt lat="42.04266743064775" lon="12.417367204310947"><ele>101.66666666666667</ele><time>2026-04-18T08:08:03.999Z</time></trkpt><trkpt lat="42.042590476205376" lon="12.417604046414565"><ele>100.33333333333334</ele><time>2026-04-18T08:08:04.999Z</time></trkpt><trkpt lat="42.042508137512584" lon="12.417837829591656"><ele>99.0</ele><time>2026-04-18T08:08:05.999Z</time></trkpt><trkpt lat="42.04242368787827" lon="12.418070481573189"><ele>97.66666666666667</ele><time>2026-04-18T08:08:06.999Z</time></trkpt><trkpt lat="42.04233304141866" lon="12.418299078970245"><ele>96.33333333333334</ele><time>2026-04-18T08:08:07.999Z</time></trkpt><trkpt lat="42.04224186469857" lon="12.418531897856557"><ele>95.0</ele><time>2026-04-18T08:08:08.999Z</time></trkpt><trkpt lat="42.04214800848641" lon="12.418761119333297"><ele>94.33333333333334</ele><time>2026-04-18T08:08:09.999Z</time></trkpt><trkpt lat="42.042046734093546" lon="12.418979361797298"><ele>93.66666666666667</ele><time>2026-04-18T08:08:10.999Z</time></trkpt><trkpt lat="42.04194141108494" lon="12.419198671519931"><ele>93.0</ele><time>2026-04-18T08:08:11.999Z</time></trkpt><trkpt lat="42.04183898462605" lon="12.419415764200883"><ele>93.0</ele><time>2026-04-18T08:08:12.999Z</time></trkpt><trkpt lat="42.0417333818674" lon="12.41962585866741"><ele>93.0</ele><time>2026-04-18T08:08:13.999Z</time></trkpt><trkpt lat="42.04162284895283" lon="12.419831133961459"><ele>93.0</ele><time>2026-04-18T08:08:14.999Z</time></trkpt><trkpt lat="42.041508763346" lon="12.420029837705162"><ele>92.66666666666667</ele><time>2026-04-18T08:08:15.999Z</time></trkpt><trkpt lat="42.041394639139654" lon="12.420229490316121"><ele>92.33333333333334</ele><time>2026-04-18T08:08:16.999Z</time></trkpt><trkpt lat="42.04127246814214" lon="12.42043018497565"><ele>92.0</ele><time>2026-04-18T08:08:17.999Z</time></trkpt><trkpt lat="42.04115205828948" lon="12.420616267570884"><ele>92.0</ele><time>2026-04-18T08:08:18.999Z</time></trkpt><trkpt lat="42.041024896483705" lon="12.420808828265608"><ele>92.0</ele><time>2026-04-18T08:08:19.999Z</time></trkpt><trkpt lat="42.0408960288817" lon="12.421000392479666"><ele>92.0</ele><time>2026-04-18T08:08:20.999Z</time></trkpt><trkpt lat="42.04076367240881" lon="12.421187968583103"><ele>92.0</ele><time>2026-04-18T08:08:21.999Z</time></trkpt><trkpt lat="42.0406272321091" lon="12.42136926982308"><ele>92.0</ele><time>2026-04-18T08:08:22.999Z</time></trkpt><trkpt lat="42.04048331727456" lon="12.421544050801959"><ele>92.0</ele><time>2026-04-18T08:08:23.999Z</time></trkpt><trkpt lat="42.04033370772214" lon="12.421717960752192"><ele>92.0</ele><time>2026-04-18T08:08:24.999Z</time></trkpt><trkpt lat="42.04018695189362" lon="12.421893004850185"><ele>92.0</ele><time>2026-04-18T08:08:25.999Z</time></trkpt><trkpt lat="42.04004045837802" lon="12.422063793030896"><ele>92.0</ele><time>2026-04-18T08:08:26.999Z</time></trkpt><trkpt lat="42.039888302947205" lon="12.422234688132146"><ele>90.66666666666667</ele><time>2026-04-18T08:08:27.999Z</time></trkpt><trkpt lat="42.039728275675635" lon="12.42239706736052"><ele>89.33333333333333</ele><time>2026-04-18T08:08:28.999Z</time></trkpt><trkpt lat="42.03956453707048" lon="12.422552831441905"><ele>88.0</ele><time>2026-04-18T08:08:29.999Z</time></trkpt><trkpt lat="42.03939850614201" lon="12.422703995097438"><ele>88.0</ele><time>2026-04-18T08:08:30.999Z</time></trkpt><trkpt lat="42.03923227700983" lon="12.422854232239107"><ele>88.0</ele><time>2026-04-18T08:08:31.999Z</time></trkpt><trkpt lat="42.03906483237264" lon="12.423002166742336"><ele>88.0</ele><time>2026-04-18T08:08:32.999Z</time></trkpt><trkpt lat="42.03889910872267" lon="12.423144426659745"><ele>86.66666666666666</ele><time>2026-04-18T08:08:33.999Z</time></trkpt><trkpt lat="42.0387372281199" lon="12.423294773335043"><ele>85.33333333333333</ele><time>2026-04-18T08:08:34.999Z</time></trkpt><trkpt lat="42.03857808131722" lon="12.42344571677366"><ele>84.0</ele><time>2026-04-18T08:08:35.999Z</time></trkpt><trkpt lat="42.03841697268972" lon="12.423591269300386"><ele>84.0</ele><time>2026-04-18T08:08:36.999Z</time></trkpt><trkpt lat="42.03825587174003" lon="12.423737589879135"><ele>84.0</ele><time>2026-04-18T08:08:37.999Z</time></trkpt><trkpt lat="42.038098137084084" lon="12.423880025592345"><ele>84.0</ele><time>2026-04-18T08:08:38.999Z</time></trkpt><trkpt lat="42.037941949915194" lon="12.424020660342968"><ele>84.0</ele><time>2026-04-18T08:08:39.999Z</time></trkpt><trkpt lat="42.03778801153532" lon="12.424157920048167"><ele>84.0</ele><time>2026-04-18T08:08:40.999Z</time></trkpt><trkpt lat="42.03763362528497" lon="12.424296324709822"><ele>84.0</ele><time>2026-04-18T08:08:41.999Z</time></trkpt><trkpt lat="42.03748194825997" lon="12.42443608907964"><ele>85.0</ele><time>2026-04-18T08:08:42.999Z</time></trkpt><trkpt lat="42.0373314525552" lon="12.424576198018315"><ele>86.0</ele><time>2026-04-18T08:08:43.999Z</time></trkpt><trkpt lat="42.03717722257505" lon="12.424712145371288"><ele>87.0</ele><time>2026-04-18T08:08:44.999Z</time></trkpt><trkpt lat="42.037023698941375" lon="12.424843029082723"><ele>87.0</ele><time>2026-04-18T08:08:45.999Z</time></trkpt><trkpt lat="42.03687266504889" lon="12.424978227677398"><ele>87.0</ele><time>2026-04-18T08:08:46.999Z</time></trkpt><trkpt lat="42.036723163596264" lon="12.425113787054586"><ele>87.0</ele><time>2026-04-18T08:08:47.999Z</time></trkpt><trkpt lat="42.03657813214237" lon="12.425248272816903"><ele>87.0</ele><time>2026-04-18T08:08:48.999Z</time></trkpt><trkpt lat="42.03642990669952" lon="12.42538548769994"><ele>87.0</ele><time>2026-04-18T08:08:49.999Z</time></trkpt><trkpt lat="42.03628002706619" lon="12.425524279373015"><ele>87.0</ele><time>2026-04-18T08:08:50.999Z</time></trkpt><trkpt lat="42.0361312910881" lon="12.425659005753033"><ele>88.0</ele><time>2026-04-18T08:08:51.999Z</time></trkpt><trkpt lat="42.035982482437284" lon="12.425790666109618"><ele>89.0</ele><time>2026-04-18T08:08:52.999Z</time></trkpt><trkpt lat="42.035830612120414" lon="12.425925065273693"><ele>90.0</ele><time>2026-04-18T08:08:53.999Z</time></trkpt><trkpt lat="42.035678906626785" lon="12.426062210243812"><ele>90.0</ele><time>2026-04-18T08:08:54.999Z</time></trkpt><trkpt lat="42.03552813567163" lon="12.426196132924117"><ele>90.0</ele><time>2026-04-18T08:08:55.999Z</time></trkpt><trkpt lat="42.03537932994965" lon="12.426326700491652"><ele>90.0</ele><time>2026-04-18T08:08:56.999Z</time></trkpt><trkpt lat="42.03522756801" lon="12.426458577844832"><ele>89.66666666666667</ele><time>2026-04-18T08:08:57.999Z</time></trkpt><trkpt lat="42.03508126025692" lon="12.426591799896668"><ele>89.33333333333334</ele><time>2026-04-18T08:08:58.999Z</time></trkpt><trkpt lat="42.0349307909478" lon="12.426731913638244"><ele>89.0</ele><time>2026-04-18T08:08:59.999Z</time></trkpt><trkpt lat="42.03477948991113" lon="12.42687129786722"><ele>89.0</ele><time>2026-04-18T08:09:00.999Z</time></trkpt><trkpt lat="42.034630098607074" lon="12.4270057226357"><ele>89.0</ele><time>2026-04-18T08:09:01.999Z</time></trkpt><trkpt lat="42.034482711114585" lon="12.427140229503342"><ele>89.0</ele><time>2026-04-18T08:09:02.999Z</time></trkpt><trkpt lat="42.034332175984495" lon="12.427276441937984"><ele>89.66666666666667</ele><time>2026-04-18T08:09:03.999Z</time></trkpt><trkpt lat="42.03418430439221" lon="12.427408959164595"><ele>90.33333333333333</ele><time>2026-04-18T08:09:04.999Z</time></trkpt><trkpt lat="42.034039332334494" lon="12.427537711011261"><ele>91.0</ele><time>2026-04-18T08:09:05.999Z</time></trkpt><trkpt lat="42.03389439890861" lon="12.42766583965408"><ele>91.0</ele><time>2026-04-18T08:09:06.999Z</time></trkpt><trkpt lat="42.033744972281156" lon="12.427797933893807"><ele>91.0</ele><time>2026-04-18T08:09:07.999Z</time></trkpt><trkpt lat="42.033595888390536" lon="12.427936806024682"><ele>91.0</ele><time>2026-04-18T08:09:08.999Z</time></trkpt><trkpt lat="42.03344346786266" lon="12.428075504917015"><ele>91.66666666666666</ele><time>2026-04-18T08:09:09.999Z</time></trkpt><trkpt lat="42.03328813023062" lon="12.428214315014216"><ele>92.33333333333333</ele><time>2026-04-18T08:09:10.999Z</time></trkpt><trkpt lat="42.03312709431022" lon="12.428356269342027"><ele>93.0</ele><time>2026-04-18T08:09:11.999Z</time></trkpt><trkpt lat="42.03296638079374" lon="12.4285018569306"><ele>93.0</ele><time>2026-04-18T08:09:12.999Z</time></trkpt><trkpt lat="42.0328079325805" lon="12.428646431166577"><ele>93.0</ele><time>2026-04-18T08:09:13.999Z</time></trkpt><trkpt lat="42.03264540143679" lon="12.428788907798726"><ele>93.0</ele><time>2026-04-18T08:09:14.999Z</time></trkpt><trkpt lat="42.032480431566405" lon="12.428928130222172"><ele>94.33333333333334</ele><time>2026-04-18T08:09:15.999Z</time></trkpt><trkpt lat="42.032310378957426" lon="12.429065957135938"><ele>95.66666666666667</ele><time>2026-04-18T08:09:16.999Z</time></trkpt><trkpt lat="42.03213762576057" lon="12.429202470733154"><ele>97.0</ele><time>2026-04-18T08:09:17.999Z</time></trkpt><trkpt lat="42.0319648640739" lon="12.429334529883686"><ele>97.0</ele><time>2026-04-18T08:09:18.999Z</time></trkpt><trkpt lat="42.03179303215846" lon="12.429465621880109"><ele>97.0</ele><time>2026-04-18T08:09:19.999Z</time></trkpt><trkpt lat="42.03161878045974" lon="12.429601619214907"><ele>97.0</ele><time>2026-04-18T08:09:20.999Z</time></trkpt><trkpt lat="42.031451025131865" lon="12.429723063035365"><ele>95.66666666666667</ele><time>2026-04-18T08:09:21.999Z</time></trkpt><trkpt lat="42.03128367510003" lon="12.429839759149777"><ele>94.33333333333334</ele><time>2026-04-18T08:09:22.999Z</time></trkpt><trkpt lat="42.03111523870894" lon="12.429949810760201"><ele>93.0</ele><time>2026-04-18T08:09:23.999Z</time></trkpt><trkpt lat="42.03094515161406" lon="12.430055966086684"><ele>89.66666666666667</ele><time>2026-04-18T08:09:24.999Z</time></trkpt><trkpt lat="42.03078046910162" lon="12.430158556744292"><ele>86.33333333333334</ele><time>2026-04-18T08:09:25.999Z</time></trkpt><trkpt lat="42.03061508236464" lon="12.43025966082921"><ele>83.0</ele><time>2026-04-18T08:09:26.999Z</time></trkpt><trkpt lat="42.030451725508556" lon="12.430356354495967"><ele>83.0</ele><time>2026-04-18T08:09:27.999Z</time></trkpt><trkpt lat="42.03028377150948" lon="12.43044997494512"><ele>83.0</ele><time>2026-04-18T08:09:28.999Z</time></trkpt><trkpt lat="42.030120532267176" lon="12.430540560514789"><ele>83.0</ele><time>2026-04-18T08:09:29.999Z</time></trkpt><trkpt lat="42.029957720015005" lon="12.430631563435421"><ele>85.33333333333334</ele><time>2026-04-18T08:09:30.999Z</time></trkpt><trkpt lat="42.02979360415471" lon="12.430719956417025"><ele>87.66666666666667</ele><time>2026-04-18T08:09:31.999Z</time></trkpt><trkpt lat="42.02963103127333" lon="12.430802354614322"><ele>90.0</ele><time>2026-04-18T08:09:32.999Z</time></trkpt><trkpt lat="42.02946823885248" lon="12.430877715056942"><ele>90.0</ele><time>2026-04-18T08:09:33.999Z</time></trkpt><trkpt lat="42.029302621121694" lon="12.430952791029803"><ele>90.0</ele><time>2026-04-18T08:09:34.999Z</time></trkpt><trkpt lat="42.02913641850126" lon="12.431031403420926"><ele>90.0</ele><time>2026-04-18T08:09:35.999Z</time></trkpt><trkpt lat="42.02896853427471" lon="12.431107064671249"><ele>89.33333333333333</ele><time>2026-04-18T08:09:36.999Z</time></trkpt><trkpt lat="42.028801173200705" lon="12.431178751366414"><ele>88.66666666666666</ele><time>2026-04-18T08:09:37.999Z</time></trkpt><trkpt lat="42.02862851094895" lon="12.431249629482489"><ele>88.0</ele><time>2026-04-18T08:09:38.999Z</time></trkpt><trkpt lat="42.02845402571018" lon="12.431316089341054"><ele>90.33333333333333</ele><time>2026-04-18T08:09:39.999Z</time></trkpt><trkpt lat="42.02828441796564" lon="12.43138101109885"><ele>92.66666666666667</ele><time>2026-04-18T08:09:40.999Z</time></trkpt><trkpt lat="42.02811232338652" lon="12.431447077370722"><ele>95.0</ele><time>2026-04-18T08:09:41.999Z</time></trkpt><trkpt lat="42.02793986694079" lon="12.431512027648571"><ele>95.0</ele><time>2026-04-18T08:09:42.999Z</time></trkpt><trkpt lat="42.027764209384756" lon="12.431573196704974"><ele>95.0</ele><time>2026-04-18T08:09:43.999Z</time></trkpt><trkpt lat="42.027585929751744" lon="12.431631031028907"><ele>95.0</ele><time>2026-04-18T08:09:44.999Z</time></trkpt><trkpt lat="42.02740694250827" lon="12.431690034681944"><ele>95.66666666666667</ele><time>2026-04-18T08:09:45.999Z</time></trkpt><trkpt lat="42.02722870130527" lon="12.431748696608267"><ele>96.33333333333334</ele><time>2026-04-18T08:09:46.999Z</time></trkpt><trkpt lat="42.02705331498886" lon="12.43181094431899"><ele>97.0</ele><time>2026-04-18T08:09:47.999Z</time></trkpt><trkpt lat="42.02687513374773" lon="12.431873610658903"><ele>97.0</ele><time>2026-04-18T08:09:48.999Z</time></trkpt><trkpt lat="42.02669990173426" lon="12.431938231000018"><ele>97.0</ele><time>2026-04-18T08:09:49.999Z</time></trkpt><trkpt lat="42.02652343608526" lon="12.431999358640718"><ele>97.0</ele><time>2026-04-18T08:09:50.999Z</time></trkpt><trkpt lat="42.026347113266205" lon="12.432059891678332"><ele>96.33333333333334</ele><time>2026-04-18T08:09:51.999Z</time></trkpt><trkpt lat="42.026172663845266" lon="12.432125322239926"><ele>95.66666666666667</ele><time>2026-04-18T08:09:52.999Z</time></trkpt><trkpt lat="42.02599901438117" lon="12.432188520823372"><ele>95.0</ele><time>2026-04-18T08:09:53.999Z</time></trkpt><trkpt lat="42.0258231768679" lon="12.43224897751962"><ele>94.33333333333334</ele><time>2026-04-18T08:09:54.999Z</time></trkpt><trkpt lat="42.025651076845264" lon="12.432306689065603"><ele>93.66666666666667</ele><time>2026-04-18T08:09:55.999Z</time></trkpt><trkpt lat="42.02548300661344" lon="12.432365685304065"><ele>93.0</ele><time>2026-04-18T08:09:56.999Z</time></trkpt><trkpt lat="42.02531515253809" lon="12.432424697803688"><ele>93.0</ele><time>2026-04-18T08:09:57.999Z</time></trkpt><trkpt lat="42.02514758623553" lon="12.432484119922908"><ele>93.0</ele><time>2026-04-18T08:09:58.999Z</time></trkpt><trkpt lat="42.02498254705025" lon="12.432543550763633"><ele>93.0</ele><time>2026-04-18T08:09:59.999Z</time></trkpt><trkpt lat="42.02481588226069" lon="12.432600087871434"><ele>91.66666666666667</ele><time>2026-04-18T08:10:00.999Z</time></trkpt><trkpt lat="42.024648190698116" lon="12.432656012311643"><ele>90.33333333333334</ele><time>2026-04-18T08:10:01.999Z</time></trkpt><trkpt lat="42.02448166526223" lon="12.432710227227156"><ele>89.0</ele><time>2026-04-18T08:10:02.999Z</time></trkpt><trkpt lat="42.02431136892698" lon="12.432765306853621"><ele>88.33333333333334</ele><time>2026-04-18T08:10:03.999Z</time></trkpt><trkpt lat="42.02413342641863" lon="12.4328201426257"><ele>87.66666666666667</ele><time>2026-04-18T08:10:04.999Z</time></trkpt><trkpt lat="42.023953565969514" lon="12.432879923949216"><ele>87.0</ele><time>2026-04-18T08:10:05.999Z</time></trkpt><trkpt lat="42.02377691741978" lon="12.43294330008321"><ele>89.33333333333333</ele><time>2026-04-18T08:10:06.999Z</time></trkpt><trkpt lat="42.02359719679117" lon="12.433007144376203"><ele>91.66666666666666</ele><time>2026-04-18T08:10:07.999Z</time></trkpt><trkpt lat="42.0234197591307" lon="12.433064049639455"><ele>94.0</ele><time>2026-04-18T08:10:08.999Z</time></trkpt><trkpt lat="42.02323956287465" lon="12.433122687345747"><ele>94.66666666666666</ele><time>2026-04-18T08:10:09.999Z</time></trkpt><trkpt lat="42.02306368423635" lon="12.433181226197624"><ele>95.33333333333333</ele><time>2026-04-18T08:10:10.999Z</time></trkpt><trkpt lat="42.022888360234376" lon="12.433244265995432"><ele>96.0</ele><time>2026-04-18T08:10:11.999Z</time></trkpt><trkpt lat="42.02271300647565" lon="12.433307250425264"><ele>96.0</ele><time>2026-04-18T08:10:12.999Z</time></trkpt><trkpt lat="42.02253173001971" lon="12.433365714205996"><ele>96.0</ele><time>2026-04-18T08:10:13.999Z</time></trkpt><trkpt lat="42.02235037111293" lon="12.433424181095464"><ele>96.0</ele><time>2026-04-18T08:10:14.999Z</time></trkpt><trkpt lat="42.02217069097516" lon="12.433484125046528"><ele>95.66666666666667</ele><time>2026-04-18T08:10:15.999Z</time></trkpt><trkpt lat="42.02199307261271" lon="12.433535953537614"><ele>95.33333333333334</ele><time>2026-04-18T08:10:16.999Z</time></trkpt><trkpt lat="42.0218089547192" lon="12.433608378607433"><ele>95.0</ele><time>2026-04-18T08:10:17.999Z</time></trkpt><trkpt lat="42.02162109839487" lon="12.43367326772633"><ele>96.0</ele><time>2026-04-18T08:10:18.999Z</time></trkpt><trkpt lat="42.02143622614893" lon="12.433736868621303"><ele>97.0</ele><time>2026-04-18T08:10:19.999Z</time></trkpt><trkpt lat="42.021248451843476" lon="12.433802751445612"><ele>98.0</ele><time>2026-04-18T08:10:20.999Z</time></trkpt><trkpt lat="42.021060612980975" lon="12.433868389847717"><ele>98.0</ele><time>2026-04-18T08:10:21.999Z</time></trkpt><trkpt lat="42.02087458981974" lon="12.433933937910767"><ele>98.0</ele><time>2026-04-18T08:10:22.999Z</time></trkpt><trkpt lat="42.02068885943137" lon="12.434000504375541"><ele>98.0</ele><time>2026-04-18T08:10:23.999Z</time></trkpt><trkpt lat="42.02049938909251" lon="12.434070089398572"><ele>96.33333333333333</ele><time>2026-04-18T08:10:24.999Z</time></trkpt><trkpt lat="42.020312093504366" lon="12.43414467418911"><ele>94.66666666666666</ele><time>2026-04-18T08:10:25.999Z</time></trkpt><trkpt lat="42.0201256849428" lon="12.434216238031336"><ele>93.0</ele><time>2026-04-18T08:10:26.999Z</time></trkpt><trkpt lat="42.01993636410884" lon="12.434297029428448"><ele>91.66666666666667</ele><time>2026-04-18T08:10:27.999Z</time></trkpt><trkpt lat="42.019748590484014" lon="12.434369876171147"><ele>90.33333333333334</ele><time>2026-04-18T08:10:28.999Z</time></trkpt><trkpt lat="42.019559698434904" lon="12.434451006704924"><ele>89.0</ele><time>2026-04-18T08:10:29.999Z</time></trkpt><trkpt lat="42.019373663227356" lon="12.434519229336495"><ele>89.0</ele><time>2026-04-18T08:10:30.999Z</time></trkpt><trkpt lat="42.01918621715471" lon="12.434592797342491"><ele>89.0</ele><time>2026-04-18T08:10:31.999Z</time></trkpt><trkpt lat="42.01900409200228" lon="12.434664927043903"><ele>89.0</ele><time>2026-04-18T08:10:32.999Z</time></trkpt><trkpt lat="42.018816275636524" lon="12.434735329467841"><ele>85.33333333333334</ele><time>2026-04-18T08:10:33.999Z</time></trkpt><trkpt lat="42.01863622115293" lon="12.434806607996109"><ele>81.66666666666667</ele><time>2026-04-18T08:10:34.999Z</time></trkpt><trkpt lat="42.01845747838063" lon="12.434878344549096"><ele>78.0</ele><time>2026-04-18T08:10:35.999Z</time></trkpt><trkpt lat="42.01828094780643" lon="12.434946510515847"><ele>75.0</ele><time>2026-04-18T08:10:36.999Z</time></trkpt><trkpt lat="42.01810260665378" lon="12.435014493675451"><ele>72.0</ele><time>2026-04-18T08:10:37.999Z</time></trkpt><trkpt lat="42.01792483608304" lon="12.43508127166226"><ele>69.0</ele><time>2026-04-18T08:10:38.999Z</time></trkpt><trkpt lat="42.01774629025968" lon="12.435150434582052"><ele>69.0</ele><time>2026-04-18T08:10:39.999Z</time></trkpt><trkpt lat="42.01756666767203" lon="12.435216245347483"><ele>69.0</ele><time>2026-04-18T08:10:40.999Z</time></trkpt><trkpt lat="42.01738480739894" lon="12.435281802810614"><ele>69.0</ele><time>2026-04-18T08:10:41.999Z</time></trkpt><trkpt lat="42.01720070244523" lon="12.435355421673448"><ele>69.66666666666667</ele><time>2026-04-18T08:10:42.999Z</time></trkpt><trkpt lat="42.01700961081669" lon="12.435429667286622"><ele>70.33333333333334</ele><time>2026-04-18T08:10:43.999Z</time></trkpt><trkpt lat="42.01681759007098" lon="12.43550482442663"><ele>71.0</ele><time>2026-04-18T08:10:44.999Z</time></trkpt><trkpt lat="42.016625644538266" lon="12.435584925396405"><ele>68.33333333333334</ele><time>2026-04-18T08:10:45.999Z</time></trkpt><trkpt lat="42.016431187743414" lon="12.43566039673566"><ele>65.66666666666667</ele><time>2026-04-18T08:10:46.999Z</time></trkpt><trkpt lat="42.01623777306516" lon="12.435738920947577"><ele>63.0</ele><time>2026-04-18T08:10:47.999Z</time></trkpt><trkpt lat="42.01605024050479" lon="12.435802275996132"><ele>63.0</ele><time>2026-04-18T08:10:48.999Z</time></trkpt><trkpt lat="42.01585895979683" lon="12.435870259481824"><ele>63.0</ele><time>2026-04-18T08:10:50Z</time></trkpt><trkpt lat="42.01566862150021" lon="12.435934748090613"><ele>63.0</ele><time>2026-04-18T08:10:51Z</time></trkpt><trkpt lat="42.01547861503174" lon="12.436005181121027"><ele>60.66666666666667</ele><time>2026-04-18T08:10:52Z</time></trkpt><trkpt lat="42.01529135614135" lon="12.436075214889742"><ele>58.333333333333336</ele><time>2026-04-18T08:10:53Z</time></trkpt><trkpt lat="42.01510309315269" lon="12.43614562620481"><ele>56.0</ele><time>2026-04-18T08:10:54Z</time></trkpt><trkpt lat="42.014915291956854" lon="12.436209561026711"><ele>56.0</ele><time>2026-04-18T08:10:55Z</time></trkpt><trkpt lat="42.014724946377775" lon="12.436278623090654"><ele>56.0</ele><time>2026-04-18T08:10:56Z</time></trkpt><trkpt lat="42.014535347870996" lon="12.436344341897241"><ele>56.0</ele><time>2026-04-18T08:10:57Z</time></trkpt><trkpt lat="42.01434661734144" lon="12.436413557438465"><ele>54.0</ele><time>2026-04-18T08:10:58Z</time></trkpt><trkpt lat="42.01416044348753" lon="12.436481499250696"><ele>52.0</ele><time>2026-04-18T08:10:59Z</time></trkpt><trkpt lat="42.01397358493319" lon="12.43654975225284"><ele>50.0</ele><time>2026-04-18T08:11:00Z</time></trkpt><trkpt lat="42.01378518780646" lon="12.436616530480139"><ele>59.66666666666667</ele><time>2026-04-18T08:11:01Z</time></trkpt><trkpt lat="42.01359739148384" lon="12.436685978019256"><ele>69.33333333333333</ele><time>2026-04-18T08:11:02Z</time></trkpt><trkpt lat="42.01340423846608" lon="12.436760284601021"><ele>79.0</ele><time>2026-04-18T08:11:03Z</time></trkpt><trkpt lat="42.01322107661028" lon="12.436840093303026"><ele>79.66666666666666</ele><time>2026-04-18T08:11:04Z</time></trkpt><trkpt lat="42.013036487532595" lon="12.436924083355729"><ele>80.33333333333333</ele><time>2026-04-18T08:11:05Z</time></trkpt><trkpt lat="42.012849820848714" lon="12.43699821765466"><ele>81.0</ele><time>2026-04-18T08:11:06.013Z</time></trkpt><trkpt lat="42.01266455438293" lon="12.437076119252463"><ele>75.0</ele><time>2026-04-18T08:11:07.014Z</time></trkpt><trkpt lat="42.01247899706966" lon="12.437153412411515"><ele>69.0</ele><time>2026-04-18T08:11:08.013Z</time></trkpt><trkpt lat="42.0122939882072" lon="12.437231092591444"><ele>63.0</ele><time>2026-04-18T08:11:09.014Z</time></trkpt><trkpt lat="42.01132299848088" lon="12.43753764779534"><ele>57.0</ele><time>2026-04-18T08:11:14Z</time></trkpt><trkpt lat="42.01113263014821" lon="12.437608288009677"><ele>51.0</ele><time>2026-04-18T08:11:15Z</time></trkpt><trkpt lat="42.010933742912464" lon="12.437697915419703"><ele>45.0</ele><time>2026-04-18T08:11:16Z</time></trkpt><trkpt lat="42.01075917280082" lon="12.437774207705733"><ele>45.0</ele><time>2026-04-18T08:11:17Z</time></trkpt><trkpt lat="42.01057206490851" lon="12.437837972376833"><ele>45.0</ele><time>2026-04-18T08:11:18Z</time></trkpt><trkpt lat="42.010393656224274" lon="12.437923861316076"><ele>45.0</ele><time>2026-04-18T08:11:19Z</time></trkpt><trkpt lat="42.01020425262299" lon="12.438011558840817"><ele>43.666666666666664</ele><time>2026-04-18T08:11:20Z</time></trkpt><trkpt lat="42.01002132231098" lon="12.438077294450801"><ele>42.33333333333333</ele><time>2026-04-18T08:11:21Z</time></trkpt><trkpt lat="42.00983827431212" lon="12.438151007846251"><ele>41.0</ele><time>2026-04-18T08:11:22Z</time></trkpt><trkpt lat="42.009658007409534" lon="12.438222397890087"><ele>40.0</ele><time>2026-04-18T08:11:23Z</time></trkpt><trkpt lat="42.00947749251362" lon="12.438293710794902"><ele>39.0</ele><time>2026-04-18T08:11:24Z</time></trkpt><trkpt lat="42.009296975880005" lon="12.438362290588369"><ele>38.0</ele><time>2026-04-18T08:11:25Z</time></trkpt><trkpt lat="42.00911700337678" lon="12.43843282393427"><ele>36.33333333333333</ele><time>2026-04-18T08:11:26Z</time></trkpt><trkpt lat="42.008939795580496" lon="12.438510025059308"><ele>34.666666666666664</ele><time>2026-04-18T08:11:27Z</time></trkpt><trkpt lat="42.00876774813399" lon="12.438586050927473"><ele>33.0</ele><time>2026-04-18T08:11:28Z</time></trkpt><trkpt lat="42.008596527888955" lon="12.438669046610356"><ele>33.0</ele><time>2026-04-18T08:11:29Z</time></trkpt><trkpt lat="42.008425255186346" lon="12.438753598314287"><ele>33.0</ele><time>2026-04-18T08:11:30Z</time></trkpt><trkpt lat="42.008259163697154" lon="12.438849506346969"><ele>33.0</ele><time>2026-04-18T08:11:31Z</time></trkpt><trkpt lat="42.00809065543182" lon="12.43895657221355"><ele>33.333333333333336</ele><time>2026-04-18T08:11:32Z</time></trkpt><trkpt lat="42.00791144809728" lon="12.43905834016406"><ele>33.66666666666667</ele><time>2026-04-18T08:11:33Z</time></trkpt><trkpt lat="42.00773058729567" lon="12.439168723530964"><ele>34.0</ele><time>2026-04-18T08:11:34Z</time></trkpt><trkpt lat="42.007544041058765" lon="12.439294460742099"><ele>33.66666666666667</ele><time>2026-04-18T08:11:35Z</time></trkpt><trkpt lat="42.00735953076734" lon="12.439426648179655"><ele>33.333333333333336</ele><time>2026-04-18T08:11:35.999Z</time></trkpt><trkpt lat="42.007189273753376" lon="12.439557911133715"><ele>33.0</ele><time>2026-04-18T08:11:36.999Z</time></trkpt><trkpt lat="42.007034679321414" lon="12.439685346952249"><ele>33.666666666666664</ele><time>2026-04-18T08:11:37.999Z</time></trkpt><trkpt lat="42.00688877924178" lon="12.439813861809391"><ele>34.33333333333333</ele><time>2026-04-18T08:11:38.999Z</time></trkpt><trkpt lat="42.00673379698542" lon="12.43994239186568"><ele>35.0</ele><time>2026-04-18T08:11:39.999Z</time></trkpt><trkpt lat="42.006570672883896" lon="12.44008379807081"><ele>35.0</ele><time>2026-04-18T08:11:41Z</time></trkpt><trkpt lat="42.00641136763347" lon="12.44023155331231"><ele>35.0</ele><time>2026-04-18T08:11:42Z</time></trkpt><trkpt lat="42.00626153593796" lon="12.440387438681082"><ele>35.0</ele><time>2026-04-18T08:11:43Z</time></trkpt><trkpt lat="42.00611758179064" lon="12.440542124049296"><ele>35.33333333333333</ele><time>2026-04-18T08:11:44Z</time></trkpt><trkpt lat="42.00597458673076" lon="12.440697508511692"><ele>35.666666666666664</ele><time>2026-04-18T08:11:45Z</time></trkpt><trkpt lat="42.00583639718321" lon="12.44085295022429"><ele>36.0</ele><time>2026-04-18T08:11:46Z</time></trkpt><trkpt lat="42.00569826912774" lon="12.441007758051589"><ele>35.333333333333336</ele><time>2026-04-18T08:11:47Z</time></trkpt><trkpt lat="42.00556171743585" lon="12.44116992256638"><ele>34.66666666666667</ele><time>2026-04-18T08:11:48Z</time></trkpt><trkpt lat="42.00542470266124" lon="12.441345096258601"><ele>34.0</ele><time>2026-04-18T08:11:49Z</time></trkpt><trkpt lat="42.00528551267003" lon="12.441528371071225"><ele>34.0</ele><time>2026-04-18T08:11:50Z</time></trkpt><trkpt lat="42.00515138752983" lon="12.441713166378742"><ele>34.0</ele><time>2026-04-18T08:11:51Z</time></trkpt><trkpt lat="42.005021548974746" lon="12.441900879998224"><ele>34.0</ele><time>2026-04-18T08:11:52Z</time></trkpt><trkpt lat="42.00489187269238" lon="12.442101879086465"><ele>33.66666666666667</ele><time>2026-04-18T08:11:53Z</time></trkpt><trkpt lat="42.00476874423217" lon="12.442303350720382"><ele>33.333333333333336</ele><time>2026-04-18T08:11:54Z</time></trkpt><trkpt lat="42.00464746190807" lon="12.442506928333817"><ele>33.0</ele><time>2026-04-18T08:11:55Z</time></trkpt><trkpt lat="42.00451967625631" lon="12.44271246710637"><ele>33.0</ele><time>2026-04-18T08:11:56Z</time></trkpt><trkpt lat="42.00440452701688" lon="12.44291353660665"><ele>33.0</ele><time>2026-04-18T08:11:57Z</time></trkpt><trkpt lat="42.004297792338974" lon="12.443114047588796"><ele>33.0</ele><time>2026-04-18T08:11:58Z</time></trkpt><trkpt lat="42.004194490632045" lon="12.443319118416774"><ele>35.333333333333336</ele><time>2026-04-18T08:11:59Z</time></trkpt><trkpt lat="42.00409331468327" lon="12.443519517249566"><ele>37.66666666666667</ele><time>2026-04-18T08:12:00Z</time></trkpt><trkpt lat="42.00398651833056" lon="12.443724046805759"><ele>40.0</ele><time>2026-04-18T08:12:01Z</time></trkpt><trkpt lat="42.003883929997" lon="12.443930533159707"><ele>40.0</ele><time>2026-04-18T08:12:02Z</time></trkpt><trkpt lat="42.003782324822026" lon="12.444137870280581"><ele>40.0</ele><time>2026-04-18T08:12:03Z</time></trkpt><trkpt lat="42.00367711025895" lon="12.444343876539227"><ele>40.0</ele><time>2026-04-18T08:12:04Z</time></trkpt><trkpt lat="42.00357439969052" lon="12.44454291130951"><ele>37.66666666666667</ele><time>2026-04-18T08:12:05Z</time></trkpt><trkpt lat="42.003471397666786" lon="12.444743319076249"><ele>35.333333333333336</ele><time>2026-04-18T08:12:06Z</time></trkpt><trkpt lat="42.003369811962834" lon="12.444941232455738"><ele>33.0</ele><time>2026-04-18T08:12:07Z</time></trkpt><trkpt lat="42.003269927965555" lon="12.445140443841948"><ele>33.0</ele><time>2026-04-18T08:12:08Z</time></trkpt><trkpt lat="42.00316696251427" lon="12.445340294255807"><ele>33.0</ele><time>2026-04-18T08:12:09Z</time></trkpt><trkpt lat="42.00306663837327" lon="12.445537658331112"><ele>33.0</ele><time>2026-04-18T08:12:10Z</time></trkpt><trkpt lat="42.00296588697221" lon="12.445734874511231"><ele>32.666666666666664</ele><time>2026-04-18T08:12:11Z</time></trkpt><trkpt lat="42.00286407638657" lon="12.445933693102377"><ele>32.33333333333333</ele><time>2026-04-18T08:12:12Z</time></trkpt><trkpt lat="42.00275975611769" lon="12.446137855560831"><ele>32.0</ele><time>2026-04-18T08:12:13Z</time></trkpt><trkpt lat="42.00265150537813" lon="12.446350270864396"><ele>32.33333333333333</ele><time>2026-04-18T08:12:14Z</time></trkpt><trkpt lat="42.00253930210736" lon="12.44656998020174"><ele>32.666666666666664</ele><time>2026-04-18T08:12:15Z</time></trkpt><trkpt lat="42.00242642656848" lon="12.446789209751552"><ele>33.0</ele><time>2026-04-18T08:12:16Z</time></trkpt><trkpt lat="42.00231454082458" lon="12.447004989186462"><ele>32.666666666666664</ele><time>2026-04-18T08:12:17Z</time></trkpt><trkpt lat="42.00220824759162" lon="12.44721798400863"><ele>32.33333333333333</ele><time>2026-04-18T08:12:18Z</time></trkpt><trkpt lat="42.00210182592048" lon="12.44742568313765"><ele>32.0</ele><time>2026-04-18T08:12:19Z</time></trkpt><trkpt lat="42.0019967211936" lon="12.447622919394917"><ele>32.0</ele><time>2026-04-18T08:12:20Z</time></trkpt><trkpt lat="42.0018992463974" lon="12.447817387149165"><ele>32.0</ele><time>2026-04-18T08:12:21Z</time></trkpt><trkpt lat="42.00180139888737" lon="12.448018500375555"><ele>32.0</ele><time>2026-04-18T08:12:22Z</time></trkpt><trkpt lat="42.00169861880957" lon="12.448215637478054"><ele>32.0</ele><time>2026-04-18T08:12:23Z</time></trkpt><trkpt lat="42.00159389610826" lon="12.448420268234424"><ele>32.0</ele><time>2026-04-18T08:12:24Z</time></trkpt><trkpt lat="42.00148311615711" lon="12.448633593384592"><ele>32.0</ele><time>2026-04-18T08:12:25Z</time></trkpt><trkpt lat="42.001370008013225" lon="12.448851892745154"><ele>32.0</ele><time>2026-04-18T08:12:26Z</time></trkpt><trkpt lat="42.00125986927363" lon="12.449067022649338"><ele>32.0</ele><time>2026-04-18T08:12:27Z</time></trkpt><trkpt lat="42.00114558342792" lon="12.449290492013048"><ele>32.0</ele><time>2026-04-18T08:12:28Z</time></trkpt><trkpt lat="42.00103408260049" lon="12.449509089662799"><ele>32.33333333333333</ele><time>2026-04-18T08:12:29Z</time></trkpt><trkpt lat="42.00092715787918" lon="12.449723830966951"><ele>32.666666666666664</ele><time>2026-04-18T08:12:30Z</time></trkpt><trkpt lat="42.0008214988274" lon="12.449937310096969"><ele>33.0</ele><time>2026-04-18T08:12:31Z</time></trkpt><trkpt lat="42.000715403191904" lon="12.450149331261393"><ele>33.333333333333336</ele><time>2026-04-18T08:12:32Z</time></trkpt><trkpt lat="42.00060817763056" lon="12.45035153363759"><ele>33.66666666666667</ele><time>2026-04-18T08:12:33Z</time></trkpt><trkpt lat="42.000502013804336" lon="12.450558214640846"><ele>34.0</ele><time>2026-04-18T08:12:34Z</time></trkpt><trkpt lat="42.00039736200667" lon="12.450770190642158"><ele>34.0</ele><time>2026-04-18T08:12:35Z</time></trkpt><trkpt lat="42.000290127509366" lon="12.450979496957705"><ele>34.0</ele><time>2026-04-18T08:12:36Z</time></trkpt><trkpt lat="42.000181475384565" lon="12.451190276437437"><ele>34.0</ele><time>2026-04-18T08:12:37Z</time></trkpt><trkpt lat="42.000071308754876" lon="12.451402632171108"><ele>34.333333333333336</ele><time>2026-04-18T08:12:38Z</time></trkpt><trkpt lat="41.99995954245054" lon="12.451618684054571"><ele>34.666666666666664</ele><time>2026-04-18T08:12:39Z</time></trkpt><trkpt lat="41.999849414953154" lon="12.451832820306064"><ele>35.0</ele><time>2026-04-18T08:12:40Z</time></trkpt><trkpt lat="41.999738554154234" lon="12.45204099099378"><ele>34.0</ele><time>2026-04-18T08:12:41Z</time></trkpt><trkpt lat="41.99963129296041" lon="12.452245966038383"><ele>33.0</ele><time>2026-04-18T08:12:42Z</time></trkpt><trkpt lat="41.99953050679843" lon="12.452448832095211"><ele>32.0</ele><time>2026-04-18T08:12:43Z</time></trkpt><trkpt lat="41.999421826564195" lon="12.452653203573446"><ele>32.0</ele><time>2026-04-18T08:12:44Z</time></trkpt><trkpt lat="41.999313590067594" lon="12.452865519246584"><ele>32.0</ele><time>2026-04-18T08:12:45Z</time></trkpt><trkpt lat="41.999206650562435" lon="12.453076424163601"><ele>32.0</ele><time>2026-04-18T08:12:46Z</time></trkpt><trkpt lat="41.99910046485535" lon="12.45329992481187"><ele>32.0</ele><time>2026-04-18T08:12:47Z</time></trkpt><trkpt lat="41.999002313001036" lon="12.453521974045653"><ele>32.0</ele><time>2026-04-18T08:12:48Z</time></trkpt><trkpt lat="41.99890800153841" lon="12.453749507703709"><ele>32.0</ele><time>2026-04-18T08:12:49Z</time></trkpt><trkpt lat="41.99881676884835" lon="12.453974174402273"><ele>32.0</ele><time>2026-04-18T08:12:50Z</time></trkpt><trkpt lat="41.998730343601004" lon="12.454199431605753"><ele>32.0</ele><time>2026-04-18T08:12:51Z</time></trkpt><trkpt lat="41.998647420637425" lon="12.454427775077024"><ele>32.0</ele><time>2026-04-18T08:12:52Z</time></trkpt><trkpt lat="41.998565751677944" lon="12.454651740602118"><ele>32.0</ele><time>2026-04-18T08:12:53Z</time></trkpt><trkpt lat="41.99848117700342" lon="12.45487712368819"><ele>32.0</ele><time>2026-04-18T08:12:54Z</time></trkpt><trkpt lat="41.998395134030346" lon="12.455102044464102"><ele>32.0</ele><time>2026-04-18T08:12:55Z</time></trkpt><trkpt lat="41.99831037913609" lon="12.455326910061789"><ele>31.666666666666664</ele><time>2026-04-18T08:12:56Z</time></trkpt><trkpt lat="41.998225648432154" lon="12.455553889471068"><ele>31.333333333333336</ele><time>2026-04-18T08:12:57Z</time></trkpt><trkpt lat="41.99814189239631" lon="12.45577517954643"><ele>31.0</ele><time>2026-04-18T08:12:58Z</time></trkpt><trkpt lat="41.998056682345116" lon="12.455997733400594"><ele>31.0</ele><time>2026-04-18T08:12:59Z</time></trkpt><trkpt lat="41.9979706584719" lon="12.456220958891459"><ele>31.0</ele><time>2026-04-18T08:13:00Z</time></trkpt><trkpt lat="41.99788745005151" lon="12.45643975518978"><ele>31.0</ele><time>2026-04-18T08:13:01Z</time></trkpt><trkpt lat="41.997803778263325" lon="12.456665485192813"><ele>30.333333333333336</ele><time>2026-04-18T08:13:02Z</time></trkpt><trkpt lat="41.99771941292984" lon="12.45689131354176"><ele>29.666666666666664</ele><time>2026-04-18T08:13:03Z</time></trkpt><trkpt lat="41.997635679670374" lon="12.45711186272824"><ele>29.0</ele><time>2026-04-18T08:13:04Z</time></trkpt><trkpt lat="41.99755114457843" lon="12.45733240636767"><ele>29.333333333333332</ele><time>2026-04-18T08:13:05Z</time></trkpt><trkpt lat="41.99746754114878" lon="12.457554810453935"><ele>29.666666666666664</ele><time>2026-04-18T08:13:06Z</time></trkpt><trkpt lat="41.99739054285459" lon="12.457788309570757"><ele>30.0</ele><time>2026-04-18T08:13:07Z</time></trkpt><trkpt lat="41.99730012278087" lon="12.458009150905395"><ele>30.333333333333336</ele><time>2026-04-18T08:13:08Z</time></trkpt><trkpt lat="41.997211990979665" lon="12.458241450485307"><ele>30.666666666666668</ele><time>2026-04-18T08:13:09Z</time></trkpt><trkpt lat="41.997124382907494" lon="12.458478017801726"><ele>31.0</ele><time>2026-04-18T08:13:10Z</time></trkpt><trkpt lat="41.99704064329392" lon="12.458699939588374"><ele>31.0</ele><time>2026-04-18T08:13:11Z</time></trkpt><trkpt lat="41.99695612739644" lon="12.45891984449562"><ele>31.0</ele><time>2026-04-18T08:13:12Z</time></trkpt><trkpt lat="41.99687182911804" lon="12.45913789703127"><ele>31.0</ele><time>2026-04-18T08:13:13Z</time></trkpt><trkpt lat="41.99678968746335" lon="12.459354507265518"><ele>31.0</ele><time>2026-04-18T08:13:14Z</time></trkpt><trkpt lat="41.99670711067616" lon="12.459574950953007"><ele>31.0</ele><time>2026-04-18T08:13:15Z</time></trkpt><trkpt lat="41.996623992570896" lon="12.459799708453378"><ele>31.0</ele><time>2026-04-18T08:13:16Z</time></trkpt><trkpt lat="41.99653725339321" lon="12.460033121754536"><ele>30.666666666666668</ele><time>2026-04-18T08:13:17Z</time></trkpt><trkpt lat="41.996452425156086" lon="12.460265205856862"><ele>30.333333333333336</ele><time>2026-04-18T08:13:18Z</time></trkpt><trkpt lat="41.996368814687415" lon="12.460496732847515"><ele>30.0</ele><time>2026-04-18T08:13:19Z</time></trkpt><trkpt lat="41.99629091691185" lon="12.460722664404454"><ele>30.666666666666664</ele><time>2026-04-18T08:13:20Z</time></trkpt><trkpt lat="41.99622036951584" lon="12.460956939444438"><ele>31.333333333333332</ele><time>2026-04-18T08:13:21Z</time></trkpt><trkpt lat="41.99615500072381" lon="12.461194700661052"><ele>32.0</ele><time>2026-04-18T08:13:22Z</time></trkpt><trkpt lat="41.99608969654765" lon="12.461435416513423"><ele>32.0</ele><time>2026-04-18T08:13:23Z</time></trkpt><trkpt lat="41.996025634983525" lon="12.4616714426462"><ele>32.0</ele><time>2026-04-18T08:13:24Z</time></trkpt><trkpt lat="41.995960949279215" lon="12.461908852477478"><ele>32.0</ele><time>2026-04-18T08:13:25Z</time></trkpt><trkpt lat="41.995897547459805" lon="12.462145563037016"><ele>30.666666666666664</ele><time>2026-04-18T08:13:26Z</time></trkpt><trkpt lat="41.9958321839989" lon="12.462385493918573"><ele>29.333333333333336</ele><time>2026-04-18T08:13:27Z</time></trkpt><trkpt lat="41.99576526625771" lon="12.462620744350218"><ele>28.0</ele><time>2026-04-18T08:13:28Z</time></trkpt><trkpt lat="41.995699741017404" lon="12.462855681215224"><ele>28.0</ele><time>2026-04-18T08:13:29Z</time></trkpt><trkpt lat="41.995636826398226" lon="12.463087196177048"><ele>28.0</ele><time>2026-04-18T08:13:30Z</time></trkpt><trkpt lat="41.99557387172938" lon="12.463318352348322"><ele>28.0</ele><time>2026-04-18T08:13:31Z</time></trkpt><trkpt lat="41.99551528485078" lon="12.463541115404166"><ele>28.0</ele><time>2026-04-18T08:13:32Z</time></trkpt><trkpt lat="41.99545516227505" lon="12.463762891033458"><ele>28.0</ele><time>2026-04-18T08:13:33Z</time></trkpt><trkpt lat="41.9953877913427" lon="12.463988279515956"><ele>28.0</ele><time>2026-04-18T08:13:34Z</time></trkpt><trkpt lat="41.99532261472151" lon="12.464222044256159"><ele>28.0</ele><time>2026-04-18T08:13:35Z</time></trkpt><trkpt lat="41.99525201722837" lon="12.464453666078606"><ele>28.0</ele><time>2026-04-18T08:13:36Z</time></trkpt><trkpt lat="41.995173572437345" lon="12.464688770417945"><ele>28.0</ele><time>2026-04-18T08:13:37Z</time></trkpt><trkpt lat="41.99509151121858" lon="12.464915403455048"><ele>28.333333333333336</ele><time>2026-04-18T08:13:38Z</time></trkpt><trkpt lat="41.99498989940581" lon="12.465130069538922"><ele>28.666666666666664</ele><time>2026-04-18T08:13:39Z</time></trkpt><trkpt lat="41.99488142294218" lon="12.46534045182787"><ele>29.0</ele><time>2026-04-18T08:13:40Z</time></trkpt><trkpt lat="41.99477191362336" lon="12.46554439331224"><ele>29.0</ele><time>2026-04-18T08:13:41Z</time></trkpt><trkpt lat="41.99465567188681" lon="12.46573921446378"><ele>29.0</ele><time>2026-04-18T08:13:42Z</time></trkpt><trkpt lat="41.994535401978176" lon="12.465929938237165"><ele>29.0</ele><time>2026-04-18T08:13:43Z</time></trkpt><trkpt lat="41.99440606677892" lon="12.46611208925284"><ele>28.333333333333332</ele><time>2026-04-18T08:13:44Z</time></trkpt><trkpt lat="41.99427768106147" lon="12.466289331156581"><ele>27.666666666666664</ele><time>2026-04-18T08:13:45Z</time></trkpt><trkpt lat="41.99413740238372" lon="12.466462400656903"><ele>27.0</ele><time>2026-04-18T08:13:46Z</time></trkpt><trkpt lat="41.993987525288524" lon="12.466624463291446"><ele>27.0</ele><time>2026-04-18T08:13:47Z</time></trkpt><trkpt lat="41.99383490780271" lon="12.466780130679727"><ele>27.0</ele><time>2026-04-18T08:13:48Z</time></trkpt><trkpt lat="41.99367959119674" lon="12.466925076112217"><ele>27.0</ele><time>2026-04-18T08:13:49Z</time></trkpt><trkpt lat="41.99351807876848" lon="12.467063719978524"><ele>26.666666666666664</ele><time>2026-04-18T08:13:50Z</time></trkpt><trkpt lat="41.99335609051416" lon="12.467190586010922"><ele>26.333333333333332</ele><time>2026-04-18T08:13:51Z</time></trkpt><trkpt lat="41.99319296292386" lon="12.4673091452598"><ele>26.0</ele><time>2026-04-18T08:13:52Z</time></trkpt><trkpt lat="41.99302268634956" lon="12.467415038978425"><ele>26.0</ele><time>2026-04-18T08:13:53Z</time></trkpt><trkpt lat="41.992855888604645" lon="12.467521093031406"><ele>26.0</ele><time>2026-04-18T08:13:54Z</time></trkpt><trkpt lat="41.99268533751013" lon="12.46762769038976"><ele>26.0</ele><time>2026-04-18T08:13:55Z</time></trkpt><trkpt lat="41.99251954273914" lon="12.467735880687313"><ele>26.333333333333332</ele><time>2026-04-18T08:13:56Z</time></trkpt><trkpt lat="41.99235247741901" lon="12.46784743662784"><ele>26.666666666666664</ele><time>2026-04-18T08:13:57Z</time></trkpt><trkpt lat="41.99217958326755" lon="12.467955494446684"><ele>27.0</ele><time>2026-04-18T08:13:58Z</time></trkpt><trkpt lat="41.99200616190234" lon="12.468063154181946"><ele>27.0</ele><time>2026-04-18T08:13:59Z</time></trkpt><trkpt lat="41.991829330343734" lon="12.468173069528405"><ele>27.0</ele><time>2026-04-18T08:14:00Z</time></trkpt><trkpt lat="41.99165203902232" lon="12.468281339508852"><ele>27.0</ele><time>2026-04-18T08:14:01Z</time></trkpt><trkpt lat="41.9914695547317" lon="12.468393145006203"><ele>27.666666666666664</ele><time>2026-04-18T08:14:02Z</time></trkpt><trkpt lat="41.991291565237404" lon="12.468502131343797"><ele>28.333333333333332</ele><time>2026-04-18T08:14:03Z</time></trkpt><trkpt lat="41.99111441093494" lon="12.468615884182388"><ele>29.0</ele><time>2026-04-18T08:14:04Z</time></trkpt><trkpt lat="41.9909370171775" lon="12.46873105649082"><ele>27.333333333333332</ele><time>2026-04-18T08:14:05Z</time></trkpt><trkpt lat="41.99076259126889" lon="12.46884559132463"><ele>25.666666666666664</ele><time>2026-04-18T08:14:06Z</time></trkpt><trkpt lat="41.99058131235252" lon="12.46896393770036"><ele>24.0</ele><time>2026-04-18T08:14:07Z</time></trkpt><trkpt lat="41.99040083188293" lon="12.469081919384578"><ele>24.0</ele><time>2026-04-18T08:14:08Z</time></trkpt><trkpt lat="41.99022289039537" lon="12.469196574169835"><ele>24.0</ele><time>2026-04-18T08:14:09Z</time></trkpt><trkpt lat="41.990045707356344" lon="12.469311742275128"><ele>24.0</ele><time>2026-04-18T08:14:10Z</time></trkpt><trkpt lat="41.98986802213926" lon="12.469428355651175"><ele>24.333333333333336</ele><time>2026-04-18T08:14:11Z</time></trkpt><trkpt lat="41.989688848584535" lon="12.46954546199604"><ele>24.666666666666668</ele><time>2026-04-18T08:14:12Z</time></trkpt><trkpt lat="41.98951277180733" lon="12.469663040006559"><ele>25.0</ele><time>2026-04-18T08:14:13Z</time></trkpt><trkpt lat="41.98933591374278" lon="12.469780627973792"><ele>26.666666666666668</ele><time>2026-04-18T08:14:14Z</time></trkpt><trkpt lat="41.98916040121829" lon="12.469900714746272"><ele>28.333333333333336</ele><time>2026-04-18T08:14:15Z</time></trkpt><trkpt lat="41.98899038489019" lon="12.47002730987467"><ele>30.0</ele><time>2026-04-18T08:14:16Z</time></trkpt><trkpt lat="41.98882800319479" lon="12.470167551118895"><ele>30.0</ele><time>2026-04-18T08:14:17Z</time></trkpt><trkpt lat="41.98866872447734" lon="12.470310978786515"><ele>30.0</ele><time>2026-04-18T08:14:18Z</time></trkpt><trkpt lat="41.98851075003974" lon="12.470464202116736"><ele>30.0</ele><time>2026-04-18T08:14:19Z</time></trkpt><trkpt lat="41.98835025361067" lon="12.470633080557874"><ele>30.0</ele><time>2026-04-18T08:14:20Z</time></trkpt><trkpt lat="41.988190791178745" lon="12.470806205926449"><ele>30.0</ele><time>2026-04-18T08:14:21Z</time></trkpt><trkpt lat="41.98804119479003" lon="12.470983121021225"><ele>30.0</ele><time>2026-04-18T08:14:22Z</time></trkpt><trkpt lat="41.98790310445338" lon="12.471178616778268"><ele>28.666666666666664</ele><time>2026-04-18T08:14:23Z</time></trkpt><trkpt lat="41.98776627627665" lon="12.471373912795839"><ele>27.333333333333332</ele><time>2026-04-18T08:14:24Z</time></trkpt><trkpt lat="41.98763198207272" lon="12.47157181790206"><ele>26.0</ele><time>2026-04-18T08:14:25Z</time></trkpt><trkpt lat="41.98750677609942" lon="12.471770753284092"><ele>26.333333333333332</ele><time>2026-04-18T08:14:26Z</time></trkpt><trkpt lat="41.98739151209995" lon="12.471973059560622"><ele>26.666666666666664</ele><time>2026-04-18T08:14:27Z</time></trkpt><trkpt lat="41.98728267037392" lon="12.472178693396467"><ele>27.0</ele><time>2026-04-18T08:14:28Z</time></trkpt><trkpt lat="41.98717633739903" lon="12.472388932850341"><ele>27.0</ele><time>2026-04-18T08:14:29Z</time></trkpt><trkpt lat="41.98708246665415" lon="12.472622865143935"><ele>27.0</ele><time>2026-04-18T08:14:30Z</time></trkpt><trkpt lat="41.98698942876478" lon="12.472863146790731"><ele>27.0</ele><time>2026-04-18T08:14:31Z</time></trkpt><trkpt lat="41.98689386906852" lon="12.473098379030343"><ele>27.0</ele><time>2026-04-18T08:14:32Z</time></trkpt><trkpt lat="41.98680578568569" lon="12.473349853702603"><ele>27.0</ele><time>2026-04-18T08:14:33Z</time></trkpt><trkpt lat="41.98672172492275" lon="12.473609510506675"><ele>27.0</ele><time>2026-04-18T08:14:34Z</time></trkpt><trkpt lat="41.98663498048551" lon="12.473882190966698"><ele>30.666666666666664</ele><time>2026-04-18T08:14:35Z</time></trkpt><trkpt lat="41.98653725479471" lon="12.474146047265757"><ele>34.33333333333333</ele><time>2026-04-18T08:14:36Z</time></trkpt><trkpt lat="41.986439610289715" lon="12.474404455599304"><ele>38.0</ele><time>2026-04-18T08:14:37Z</time></trkpt><trkpt lat="41.986349726537554" lon="12.474649580484474"><ele>38.0</ele><time>2026-04-18T08:14:38Z</time></trkpt><trkpt lat="41.98627681730843" lon="12.47489047406937"><ele>38.0</ele><time>2026-04-18T08:14:39Z</time></trkpt><trkpt lat="41.98620719689348" lon="12.475129408566044"><ele>38.0</ele><time>2026-04-18T08:14:40Z</time></trkpt><trkpt lat="41.986122623786876" lon="12.47536270582721"><ele>36.666666666666664</ele><time>2026-04-18T08:14:41Z</time></trkpt><trkpt lat="41.98603706262724" lon="12.475589863967357"><ele>35.333333333333336</ele><time>2026-04-18T08:14:42Z</time></trkpt><trkpt lat="41.98594796444726" lon="12.475809839853879"><ele>34.0</ele><time>2026-04-18T08:14:43Z</time></trkpt><trkpt lat="41.98589777783643" lon="12.47604656957402"><ele>33.333333333333336</ele><time>2026-04-18T08:14:44Z</time></trkpt><trkpt lat="41.98587017455842" lon="12.47633805588536"><ele>32.666666666666664</ele><time>2026-04-18T08:14:45Z</time></trkpt><trkpt lat="41.985894255868594" lon="12.476573224593647"><ele>32.0</ele><time>2026-04-18T08:14:46Z</time></trkpt><trkpt lat="41.98588604519397" lon="12.476821123964399"><ele>32.0</ele><time>2026-04-18T08:14:47Z</time></trkpt><trkpt lat="41.98589127196018" lon="12.477069720559758"><ele>32.0</ele><time>2026-04-18T08:14:48Z</time></trkpt><trkpt lat="41.985870826545344" lon="12.477315488054051"><ele>32.0</ele><time>2026-04-18T08:14:49Z</time></trkpt><trkpt lat="41.98595692632587" lon="12.477565665189038"><ele>31.0</ele><time>2026-04-18T08:14:50Z</time></trkpt><trkpt lat="41.98600303388888" lon="12.477809445580125"><ele>30.0</ele><time>2026-04-18T08:14:51Z</time></trkpt><trkpt lat="41.98606242415996" lon="12.478040257965835"><ele>29.0</ele><time>2026-04-18T08:14:52Z</time></trkpt><trkpt lat="41.986123668060145" lon="12.478273215915317"><ele>29.0</ele><time>2026-04-18T08:14:53Z</time></trkpt><trkpt lat="41.98617079597906" lon="12.478511837220655"><ele>29.0</ele><time>2026-04-18T08:14:54Z</time></trkpt><trkpt lat="41.98620747152138" lon="12.478743156882526"><ele>29.0</ele><time>2026-04-18T08:14:55Z</time></trkpt><trkpt lat="41.986236406987274" lon="12.478964736581165"><ele>29.0</ele><time>2026-04-18T08:14:56Z</time></trkpt><trkpt lat="41.986254248265034" lon="12.479188078424238"><ele>29.0</ele><time>2026-04-18T08:14:57Z</time></trkpt><trkpt lat="41.98626933671225" lon="12.479414206909997"><ele>29.0</ele><time>2026-04-18T08:14:58Z</time></trkpt><trkpt lat="41.986284353896465" lon="12.479657052064221"><ele>27.666666666666664</ele><time>2026-04-18T08:14:59Z</time></trkpt><trkpt lat="41.98629255198523" lon="12.479901073062418"><ele>26.333333333333336</ele><time>2026-04-18T08:15:00Z</time></trkpt><trkpt lat="41.98629316857587" lon="12.480149833023118"><ele>25.0</ele><time>2026-04-18T08:15:01Z</time></trkpt><trkpt lat="41.98629519262646" lon="12.480407849545402"><ele>24.666666666666668</ele><time>2026-04-18T08:15:02Z</time></trkpt><trkpt lat="41.98630724473862" lon="12.480705436006957"><ele>24.333333333333336</ele><time>2026-04-18T08:15:03Z</time></trkpt><trkpt lat="41.98631186003668" lon="12.481001728453474"><ele>24.0</ele><time>2026-04-18T08:15:04Z</time></trkpt><trkpt lat="41.986308372215056" lon="12.481266613714551"><ele>24.0</ele><time>2026-04-18T08:15:05Z</time></trkpt><trkpt lat="41.98630091924772" lon="12.481540423559077"><ele>24.0</ele><time>2026-04-18T08:15:06Z</time></trkpt><trkpt lat="41.986293193895115" lon="12.481828870450677"><ele>24.0</ele><time>2026-04-18T08:15:07Z</time></trkpt><trkpt lat="41.986286007278025" lon="12.482152620214379"><ele>24.0</ele><time>2026-04-18T08:15:08Z</time></trkpt><trkpt lat="41.98626315058636" lon="12.482459099103316"><ele>24.0</ele><time>2026-04-18T08:15:09Z</time></trkpt><trkpt lat="41.98623670437535" lon="12.482747818746006"><ele>24.0</ele><time>2026-04-18T08:15:10Z</time></trkpt><trkpt lat="41.98621222335848" lon="12.483020473281798"><ele>24.0</ele><time>2026-04-18T08:15:11Z</time></trkpt><trkpt lat="41.98618505510389" lon="12.483294918068754"><ele>24.0</ele><time>2026-04-18T08:15:12Z</time></trkpt><trkpt lat="41.98615810317376" lon="12.483563912992516"><ele>24.0</ele><time>2026-04-18T08:15:13Z</time></trkpt><trkpt lat="41.98613305942929" lon="12.483836875796044"><ele>23.333333333333332</ele><time>2026-04-18T08:15:14Z</time></trkpt><trkpt lat="41.98610139375202" lon="12.4841118721871"><ele>22.666666666666664</ele><time>2026-04-18T08:15:15Z</time></trkpt><trkpt lat="41.98607130144783" lon="12.4843916075365"><ele>22.0</ele><time>2026-04-18T08:15:16Z</time></trkpt><trkpt lat="41.98604227991647" lon="12.484673434442454"><ele>21.333333333333332</ele><time>2026-04-18T08:15:17Z</time></trkpt><trkpt lat="41.98601262542794" lon="12.484951926060212"><ele>20.666666666666668</ele><time>2026-04-18T08:15:18Z</time></trkpt><trkpt lat="41.9859780470901" lon="12.485231254912053"><ele>20.0</ele><time>2026-04-18T08:15:19Z</time></trkpt><trkpt lat="41.985940181789466" lon="12.485506571687582"><ele>20.0</ele><time>2026-04-18T08:15:20Z</time></trkpt><trkpt lat="41.985902629102966" lon="12.48577586973726"><ele>20.0</ele><time>2026-04-18T08:15:21Z</time></trkpt><trkpt lat="41.98586903633882" lon="12.486037569870104"><ele>20.0</ele><time>2026-04-18T08:15:22Z</time></trkpt><trkpt lat="41.985834187196794" lon="12.486297498519207"><ele>21.333333333333336</ele><time>2026-04-18T08:15:23Z</time></trkpt><trkpt lat="41.98579946507121" lon="12.486556786409698"><ele>22.666666666666668</ele><time>2026-04-18T08:15:24Z</time></trkpt><trkpt lat="41.98576847056592" lon="12.48680800097238"><ele>24.0</ele><time>2026-04-18T08:15:25Z</time></trkpt><trkpt lat="41.98573658884138" lon="12.487056992600063"><ele>23.0</ele><time>2026-04-18T08:15:26Z</time></trkpt><trkpt lat="41.98570438793967" lon="12.487302247411336"><ele>22.0</ele><time>2026-04-18T08:15:27Z</time></trkpt><trkpt lat="41.985672226640325" lon="12.487555768347582"><ele>21.0</ele><time>2026-04-18T08:15:28Z</time></trkpt><trkpt lat="41.98564289479084" lon="12.487822545817593"><ele>21.0</ele><time>2026-04-18T08:15:29Z</time></trkpt><trkpt lat="41.98562081763441" lon="12.488090604240416"><ele>21.0</ele><time>2026-04-18T08:15:30Z</time></trkpt><trkpt lat="41.98560554738416" lon="12.488351142290623"><ele>21.0</ele><time>2026-04-18T08:15:31Z</time></trkpt><trkpt lat="41.98559503086933" lon="12.488606241019593"><ele>20.333333333333332</ele><time>2026-04-18T08:15:32Z</time></trkpt><trkpt lat="41.98559053318803" lon="12.48886430310823"><ele>19.666666666666664</ele><time>2026-04-18T08:15:33Z</time></trkpt><trkpt lat="41.985591409172656" lon="12.489124282577446"><ele>19.0</ele><time>2026-04-18T08:15:34Z</time></trkpt><trkpt lat="41.98559918790337" lon="12.48938974863521"><ele>18.666666666666664</ele><time>2026-04-18T08:15:35Z</time></trkpt><trkpt lat="41.98561229733245" lon="12.489660149934194"><ele>18.333333333333332</ele><time>2026-04-18T08:15:36Z</time></trkpt><trkpt lat="41.98562747254022" lon="12.489924441095756"><ele>18.0</ele><time>2026-04-18T08:15:37Z</time></trkpt><trkpt lat="41.985641029047436" lon="12.490181299063847"><ele>19.0</ele><time>2026-04-18T08:15:38Z</time></trkpt><trkpt lat="41.98565107729582" lon="12.490441587313502"><ele>20.0</ele><time>2026-04-18T08:15:39Z</time></trkpt><trkpt lat="41.98566254694372" lon="12.490693334253624"><ele>21.0</ele><time>2026-04-18T08:15:40Z</time></trkpt><trkpt lat="41.985675677447006" lon="12.490942260561775"><ele>21.0</ele><time>2026-04-18T08:15:41Z</time></trkpt><trkpt lat="41.98569025582273" lon="12.491194866620098"><ele>21.0</ele><time>2026-04-18T08:15:42Z</time></trkpt><trkpt lat="41.985702249719694" lon="12.491456104911205"><ele>21.0</ele><time>2026-04-18T08:15:43Z</time></trkpt><trkpt lat="41.98571721765246" lon="12.491715044929618"><ele>22.0</ele><time>2026-04-18T08:15:44Z</time></trkpt><trkpt lat="41.985732760365195" lon="12.491971563395264"><ele>23.0</ele><time>2026-04-18T08:15:45Z</time></trkpt><trkpt lat="41.985747697937626" lon="12.492229264424708"><ele>24.0</ele><time>2026-04-18T08:15:46Z</time></trkpt><trkpt lat="41.98576315415259" lon="12.49248647763218"><ele>24.666666666666664</ele><time>2026-04-18T08:15:47Z</time></trkpt><trkpt lat="41.98577749452887" lon="12.492744613409489"><ele>25.333333333333332</ele><time>2026-04-18T08:15:48Z</time></trkpt><trkpt lat="41.985792386687784" lon="12.492996199381317"><ele>26.0</ele><time>2026-04-18T08:15:49Z</time></trkpt><trkpt lat="41.985813969475196" lon="12.493248869818505"><ele>26.0</ele><time>2026-04-18T08:15:50Z</time></trkpt><trkpt lat="41.98584304067085" lon="12.493499985023293"><ele>26.0</ele><time>2026-04-18T08:15:51Z</time></trkpt><trkpt lat="41.98587971482015" lon="12.493746216031667"><ele>26.0</ele><time>2026-04-18T08:15:52Z</time></trkpt><trkpt lat="41.98592412890708" lon="12.493991538914997"><ele>26.0</ele><time>2026-04-18T08:15:53Z</time></trkpt><trkpt lat="41.98597622857335" lon="12.494231575813552"><ele>26.0</ele><time>2026-04-18T08:15:54Z</time></trkpt><trkpt lat="41.98603721658693" lon="12.494474327750018"><ele>26.0</ele><time>2026-04-18T08:15:55Z</time></trkpt><trkpt lat="41.9861058173113" lon="12.49471383903046"><ele>25.333333333333332</ele><time>2026-04-18T08:15:56Z</time></trkpt><trkpt lat="41.98618252620667" lon="12.494949440365557"><ele>24.666666666666664</ele><time>2026-04-18T08:15:57Z</time></trkpt><trkpt lat="41.986264717032434" lon="12.495174611574154"><ele>24.0</ele><time>2026-04-18T08:15:58Z</time></trkpt><trkpt lat="41.986352206298356" lon="12.495386500172591"><ele>23.333333333333332</ele><time>2026-04-18T08:15:59Z</time></trkpt><trkpt lat="41.98643998929537" lon="12.495588863973081"><ele>22.666666666666664</ele><time>2026-04-18T08:16:00Z</time></trkpt><trkpt lat="41.98653325266365" lon="12.495786460133804"><ele>22.0</ele><time>2026-04-18T08:16:01Z</time></trkpt><trkpt lat="41.986632788376646" lon="12.495975231208476"><ele>22.333333333333332</ele><time>2026-04-18T08:16:02Z</time></trkpt><trkpt lat="41.98673869508434" lon="12.496157484038608"><ele>22.666666666666668</ele><time>2026-04-18T08:16:03Z</time></trkpt><trkpt lat="41.98685378865658" lon="12.496344212622342"><ele>23.0</ele><time>2026-04-18T08:16:04Z</time></trkpt><trkpt lat="41.98697316590257" lon="12.496530461607637"><ele>23.0</ele><time>2026-04-18T08:16:05Z</time></trkpt><trkpt lat="41.98708921225852" lon="12.496715632550975"><ele>23.0</ele><time>2026-04-18T08:16:06Z</time></trkpt><trkpt lat="41.98720682112632" lon="12.496905753858387"><ele>23.0</ele><time>2026-04-18T08:16:07Z</time></trkpt><trkpt lat="41.98733073517781" lon="12.49710226767209"><ele>21.666666666666668</ele><time>2026-04-18T08:16:08Z</time></trkpt><trkpt lat="41.98744843366941" lon="12.497292530536733"><ele>20.333333333333332</ele><time>2026-04-18T08:16:09Z</time></trkpt><trkpt lat="41.9875574734843" lon="12.497472345367264"><ele>19.0</ele><time>2026-04-18T08:16:10Z</time></trkpt><trkpt lat="41.98767017730386" lon="12.497652193970723"><ele>18.666666666666664</ele><time>2026-04-18T08:16:11Z</time></trkpt><trkpt lat="41.98778215731035" lon="12.497828611172713"><ele>18.333333333333332</ele><time>2026-04-18T08:16:12Z</time></trkpt><trkpt lat="41.987900828477386" lon="12.498015624739564"><ele>18.0</ele><time>2026-04-18T08:16:13Z</time></trkpt><trkpt lat="41.988028352107534" lon="12.49821138510105"><ele>17.0</ele><time>2026-04-18T08:16:14Z</time></trkpt><trkpt lat="41.988167504116475" lon="12.498423926656745"><ele>16.0</ele><time>2026-04-18T08:16:15Z</time></trkpt><trkpt lat="41.98829721667853" lon="12.498639560994244"><ele>15.0</ele><time>2026-04-18T08:16:16Z</time></trkpt><trkpt lat="41.98842917731194" lon="12.498847088322583"><ele>17.333333333333332</ele><time>2026-04-18T08:16:17Z</time></trkpt><trkpt lat="41.98856416175389" lon="12.499044667921824"><ele>19.666666666666664</ele><time>2026-04-18T08:16:18Z</time></trkpt><trkpt lat="41.98869410311995" lon="12.499222319176956"><ele>22.0</ele><time>2026-04-18T08:16:19Z</time></trkpt><trkpt lat="41.9888192012771" lon="12.49938835884279"><ele>22.0</ele><time>2026-04-18T08:16:20Z</time></trkpt><trkpt lat="41.988944145592654" lon="12.49955116043576"><ele>22.0</ele><time>2026-04-18T08:16:21Z</time></trkpt><trkpt lat="41.989063789277935" lon="12.499701883679917"><ele>22.0</ele><time>2026-04-18T08:16:22Z</time></trkpt><trkpt lat="41.98917894957802" lon="12.49984579143431"><ele>21.0</ele><time>2026-04-18T08:16:23Z</time></trkpt><trkpt lat="41.989292967759845" lon="12.499984322759133"><ele>20.0</ele><time>2026-04-18T08:16:24Z</time></trkpt><trkpt lat="41.98940885307249" lon="12.500125859463264"><ele>19.0</ele><time>2026-04-18T08:16:25Z</time></trkpt><trkpt lat="41.989529378237975" lon="12.500274221545824"><ele>20.333333333333332</ele><time>2026-04-18T08:16:26Z</time></trkpt><trkpt lat="41.9896492947975" lon="12.500428025002975"><ele>21.666666666666668</ele><time>2026-04-18T08:16:27Z</time></trkpt><trkpt lat="41.989764064995796" lon="12.50057923151843"><ele>23.0</ele><time>2026-04-18T08:16:28Z</time></trkpt><trkpt lat="41.989878000272014" lon="12.50073854036648"><ele>23.0</ele><time>2026-04-18T08:16:29Z</time></trkpt><trkpt lat="41.98998850087809" lon="12.50090331757424"><ele>23.0</ele><time>2026-04-18T08:16:30Z</time></trkpt><trkpt lat="41.99009694480583" lon="12.501079865232414"><ele>23.0</ele><time>2026-04-18T08:16:31Z</time></trkpt><trkpt lat="41.99018965792989" lon="12.501258526363495"><ele>22.75</ele><time>2026-04-18T08:16:32Z</time></trkpt><trkpt lat="41.9902697780024" lon="12.501423249649063"><ele>22.5</ele><time>2026-04-18T08:16:33Z</time></trkpt><trkpt lat="41.9903380669184" lon="12.501584242394914"><ele>22.25</ele><time>2026-04-18T08:16:34Z</time></trkpt><trkpt lat="41.9904016325997" lon="12.50175197540708"><ele>22.0</ele><time>2026-04-18T08:16:35Z</time></trkpt><trkpt lat="41.9904546551868" lon="12.501911398996786"><ele>22.25</ele><time>2026-04-18T08:16:36Z</time></trkpt><trkpt lat="41.990505926273975" lon="12.502084652038308"><ele>22.5</ele><time>2026-04-18T08:16:37Z</time></trkpt><trkpt lat="41.99055312222914" lon="12.502277667468146"><ele>22.75</ele><time>2026-04-18T08:16:38Z</time></trkpt><trkpt lat="41.990595385967985" lon="12.502479965612615"><ele>23.0</ele><time>2026-04-18T08:16:39Z</time></trkpt><trkpt lat="41.990628884434805" lon="12.502659994985349"><ele>23.0</ele><time>2026-04-18T08:16:40Z</time></trkpt><trkpt lat="41.990658467193406" lon="12.50282050567816"><ele>23.0</ele><time>2026-04-18T08:16:41Z</time></trkpt><trkpt lat="41.99067741722663" lon="12.502963180008587"><ele>23.0</ele><time>2026-04-18T08:16:42Z</time></trkpt><trkpt lat="41.99069234421425" lon="12.503091930158424"><ele>23.0</ele><time>2026-04-18T08:16:43Z</time></trkpt><trkpt lat="41.990705675518306" lon="12.503197661096042"><ele>23.0</ele><time>2026-04-18T08:16:44Z</time></trkpt><trkpt lat="41.99071726810454" lon="12.503287074259788"><ele>23.4</ele><time>2026-04-18T08:16:45Z</time></trkpt><trkpt lat="41.99072460042146" lon="12.50337459398318"><ele>23.799999999999997</ele><time>2026-04-18T08:16:46Z</time></trkpt><trkpt lat="41.99072402303407" lon="12.503503968314233"><ele>24.2</ele><time>2026-04-18T08:16:47Z</time></trkpt><trkpt lat="41.990726295170724" lon="12.503679566157636"><ele>24.6</ele><time>2026-04-18T08:16:48Z</time></trkpt><trkpt lat="41.99073169815876" lon="12.503871806738628"><ele>25.0</ele><time>2026-04-18T08:16:49Z</time></trkpt><trkpt lat="41.99073924232007" lon="12.504062581203813"><ele>25.0</ele><time>2026-04-18T08:16:50Z</time></trkpt><trkpt lat="41.990740954447716" lon="12.50426155149782"><ele>25.0</ele><time>2026-04-18T08:16:51Z</time></trkpt><trkpt lat="41.990743400841026" lon="12.504480557443861"><ele>25.0</ele><time>2026-04-18T08:16:52Z</time></trkpt><trkpt lat="41.99074733354503" lon="12.504686989122101"><ele>24.5</ele><time>2026-04-18T08:16:53Z</time></trkpt><trkpt lat="41.99075370171245" lon="12.504882153604624"><ele>24.0</ele><time>2026-04-18T08:16:54Z</time></trkpt><trkpt lat="41.99075957382522" lon="12.50507783566829"><ele>23.5</ele><time>2026-04-18T08:16:55Z</time></trkpt><trkpt lat="41.99076561986195" lon="12.50526913565063"><ele>23.0</ele><time>2026-04-18T08:16:56Z</time></trkpt><trkpt lat="41.990769402419616" lon="12.50547204800023"><ele>23.0</ele><time>2026-04-18T08:16:57Z</time></trkpt><trkpt lat="41.99077439079213" lon="12.505678259891841"><ele>23.0</ele><time>2026-04-18T08:16:58Z</time></trkpt><trkpt lat="41.990779728838255" lon="12.505893977644627"><ele>23.0</ele><time>2026-04-18T08:16:59Z</time></trkpt><trkpt lat="41.99078557542414" lon="12.506100546263339"><ele>22.333333333333336</ele><time>2026-04-18T08:17:00Z</time></trkpt><trkpt lat="41.990788885973885" lon="12.506305195621621"><ele>21.666666666666668</ele><time>2026-04-18T08:17:01Z</time></trkpt><trkpt lat="41.99078253740988" lon="12.506510365841462"><ele>21.0</ele><time>2026-04-18T08:17:02Z</time></trkpt><trkpt lat="41.9907782943848" lon="12.506719438479795"><ele>21.0</ele><time>2026-04-18T08:17:03Z</time></trkpt><trkpt lat="41.99077623996685" lon="12.506924730827338"><ele>21.0</ele><time>2026-04-18T08:17:04Z</time></trkpt><trkpt lat="41.99077084196157" lon="12.507137174322217"><ele>21.0</ele><time>2026-04-18T08:17:05Z</time></trkpt><trkpt lat="41.99075768768088" lon="12.507358304160254"><ele>21.0</ele><time>2026-04-18T08:17:06Z</time></trkpt><trkpt lat="41.99073765398874" lon="12.50757032514395"><ele>21.0</ele><time>2026-04-18T08:17:07Z</time></trkpt><trkpt lat="41.990716195232615" lon="12.507765259076086"><ele>21.0</ele><time>2026-04-18T08:17:08Z</time></trkpt><trkpt lat="41.99069161985331" lon="12.507962970848384"><ele>21.0</ele><time>2026-04-18T08:17:09Z</time></trkpt><trkpt lat="41.99066274476441" lon="12.508164830512595"><ele>21.0</ele><time>2026-04-18T08:17:10Z</time></trkpt><trkpt lat="41.99063209082551" lon="12.508347782080657"><ele>21.0</ele><time>2026-04-18T08:17:11Z</time></trkpt><trkpt lat="41.99059494912585" lon="12.508528352154375"><ele>21.0</ele><time>2026-04-18T08:17:12Z</time></trkpt><trkpt lat="41.990553110090445" lon="12.50871883032778"><ele>20.75</ele><time>2026-04-18T08:17:13Z</time></trkpt><trkpt lat="41.99050620356425" lon="12.508919109240129"><ele>20.5</ele><time>2026-04-18T08:17:14Z</time></trkpt><trkpt lat="41.99045499863169" lon="12.509112681944666"><ele>20.25</ele><time>2026-04-18T08:17:15Z</time></trkpt><trkpt lat="41.99040890120433" lon="12.509277461090775"><ele>20.0</ele><time>2026-04-18T08:17:16Z</time></trkpt><trkpt lat="41.99036549072031" lon="12.509425307429673"><ele>20.0</ele><time>2026-04-18T08:17:17Z</time></trkpt><trkpt lat="41.990326308153" lon="12.509548739894624"><ele>20.0</ele><time>2026-04-18T08:17:18Z</time></trkpt><trkpt lat="41.99028781975261" lon="12.509662656543178"><ele>20.0</ele><time>2026-04-18T08:17:19Z</time></trkpt><trkpt lat="41.99024399958834" lon="12.509782744739258"><ele>20.0</ele><time>2026-04-18T08:17:20Z</time></trkpt><trkpt lat="41.9901893228719" lon="12.509908154147748"><ele>20.0</ele><time>2026-04-18T08:17:21Z</time></trkpt><trkpt lat="41.99012946668901" lon="12.510042009511912"><ele>20.25</ele><time>2026-04-18T08:17:22Z</time></trkpt><trkpt lat="41.99008169890904" lon="12.510187996229938"><ele>20.5</ele><time>2026-04-18T08:17:23Z</time></trkpt><trkpt lat="41.99002467003879" lon="12.510326032844238"><ele>20.75</ele><time>2026-04-18T08:17:24Z</time></trkpt><trkpt lat="41.98996822516713" lon="12.510462655121339"><ele>21.0</ele><time>2026-04-18T08:17:25Z</time></trkpt><trkpt lat="41.989908722739756" lon="12.510597575011197"><ele>21.0</ele><time>2026-04-18T08:17:26Z</time></trkpt><trkpt lat="41.989802839623046" lon="12.510694818314267"><ele>21.0</ele><time>2026-04-18T08:17:27Z</time></trkpt><trkpt lat="41.98973058795389" lon="12.510827648699763"><ele>21.0</ele><time>2026-04-18T08:17:28Z</time></trkpt><trkpt lat="41.98965241624994" lon="12.510963266119118"><ele>21.0</ele><time>2026-04-18T08:17:29Z</time></trkpt><trkpt lat="41.989581800925144" lon="12.511094563326559"><ele>21.0</ele><time>2026-04-18T08:17:30Z</time></trkpt><trkpt lat="41.989510003933304" lon="12.51120390417459"><ele>21.0</ele><time>2026-04-18T08:17:31Z</time></trkpt><trkpt lat="41.989423410732954" lon="12.511293555964595"><ele>21.0</ele><time>2026-04-18T08:17:32Z</time></trkpt><trkpt lat="41.98932671173098" lon="12.511369090529188"><ele>21.0</ele><time>2026-04-18T08:17:33Z</time></trkpt><trkpt lat="41.989217600022435" lon="12.511404690514944"><ele>21.0</ele><time>2026-04-18T08:17:34Z</time></trkpt><trkpt lat="41.9890990318774" lon="12.51138830135551"><ele>21.25</ele><time>2026-04-18T08:17:35Z</time></trkpt><trkpt lat="41.98897179108589" lon="12.511355922470123"><ele>21.5</ele><time>2026-04-18T08:17:36Z</time></trkpt><trkpt lat="41.98883451070442" lon="12.511301007897204"><ele>21.75</ele><time>2026-04-18T08:17:37Z</time></trkpt><trkpt lat="41.98869506568048" lon="12.511245401421103"><ele>22.0</ele><time>2026-04-18T08:17:38Z</time></trkpt><trkpt lat="41.98857288948078" lon="12.511198407657455"><ele>22.0</ele><time>2026-04-18T08:17:39Z</time></trkpt><trkpt lat="41.988457167180826" lon="12.511162940086928"><ele>22.0</ele><time>2026-04-18T08:17:40Z</time></trkpt><trkpt lat="41.988342747395585" lon="12.511144529598333"><ele>22.0</ele><time>2026-04-18T08:17:41Z</time></trkpt><trkpt lat="41.98822913942283" lon="12.51114599500464"><ele>22.0</ele><time>2026-04-18T08:17:42Z</time></trkpt><trkpt lat="41.98811814605029" lon="12.511197538232198"><ele>22.5</ele><time>2026-04-18T08:17:43Z</time></trkpt><trkpt lat="41.98803308991782" lon="12.511302409722186"><ele>23.0</ele><time>2026-04-18T08:17:44Z</time></trkpt><trkpt lat="41.987972049797136" lon="12.511460220822105"><ele>23.5</ele><time>2026-04-18T08:17:45Z</time></trkpt><trkpt lat="41.98793623358183" lon="12.511637806731931"><ele>24.0</ele><time>2026-04-18T08:17:46Z</time></trkpt><trkpt lat="41.987911025341276" lon="12.511814789449954"><ele>24.0</ele><time>2026-04-18T08:17:47Z</time></trkpt><trkpt lat="41.98789207635288" lon="12.511966294087284"><ele>24.0</ele><time>2026-04-18T08:17:48Z</time></trkpt><trkpt lat="41.98790020711171" lon="12.51210423481502"><ele>24.0</ele><time>2026-04-18T08:17:49Z</time></trkpt><trkpt lat="41.987944679803675" lon="12.512236491111205"><ele>24.0</ele><time>2026-04-18T08:17:50Z</time></trkpt><trkpt lat="41.98801834602163" lon="12.512364132501405"><ele>24.0</ele><time>2026-04-18T08:17:51Z</time></trkpt><trkpt lat="41.988121651675186" lon="12.512448918209847"><ele>23.75</ele><time>2026-04-18T08:17:52Z</time></trkpt><trkpt lat="41.98825273003314" lon="12.512480226192213"><ele>23.5</ele><time>2026-04-18T08:17:53Z</time></trkpt><trkpt lat="41.9883841746983" lon="12.512463755036418"><ele>23.25</ele><time>2026-04-18T08:17:54Z</time></trkpt><trkpt lat="41.98849499049599" lon="12.512391498932427"><ele>23.0</ele><time>2026-04-18T08:17:55Z</time></trkpt><trkpt lat="41.988598002033996" lon="12.512298612939313"><ele>23.75</ele><time>2026-04-18T08:17:56Z</time></trkpt><trkpt lat="41.98869806632706" lon="12.51221575805321"><ele>24.5</ele><time>2026-04-18T08:17:57Z</time></trkpt><trkpt lat="41.98881482752045" lon="12.512185583533537"><ele>25.25</ele><time>2026-04-18T08:17:58Z</time></trkpt><trkpt lat="41.98894252495732" lon="12.512217293345383"><ele>26.0</ele><time>2026-04-18T08:17:59Z</time></trkpt><trkpt lat="41.98907761446044" lon="12.512296706526945"><ele>25.5</ele><time>2026-04-18T08:18:00Z</time></trkpt><trkpt lat="41.989207145441924" lon="12.512347062364361"><ele>25.0</ele><time>2026-04-18T08:18:01Z</time></trkpt><trkpt lat="41.989333817117426" lon="12.512384054800958"><ele>24.5</ele><time>2026-04-18T08:18:02Z</time></trkpt><trkpt lat="41.98945884459873" lon="12.512420620419029"><ele>24.0</ele><time>2026-04-18T08:18:03.02Z</time></trkpt><trkpt lat="41.98958100442065" lon="12.512465962426367"><ele>24.0</ele><time>2026-04-18T08:18:04.014Z</time></trkpt><trkpt lat="41.989843333036795" lon="12.512631726453916"><ele>24.0</ele><time>2026-04-18T08:18:05Z</time></trkpt><trkpt lat="41.99015456368005" lon="12.512776160340247"><ele>23.5</ele><time>2026-04-18T08:18:06Z</time></trkpt><trkpt lat="41.990383756234905" lon="12.512928473699667"><ele>23.0</ele><time>2026-04-18T08:18:07Z</time></trkpt><trkpt lat="41.99057919796733" lon="12.513061480406947"><ele>23.0</ele><time>2026-04-18T08:18:08Z</time></trkpt><trkpt lat="41.9907638002469" lon="12.513179656228264"><ele>23.0</ele><time>2026-04-18T08:18:09Z</time></trkpt><trkpt lat="41.99092747403276" lon="12.513288914438904"><ele>23.0</ele><time>2026-04-18T08:18:10Z</time></trkpt><trkpt lat="41.99109232312859" lon="12.513391771726553"><ele>22.0</ele><time>2026-04-18T08:18:11Z</time></trkpt><trkpt lat="41.99125912360976" lon="12.51349791095069"><ele>21.0</ele><time>2026-04-18T08:18:12Z</time></trkpt><trkpt lat="41.991423813665115" lon="12.513604814366872"><ele>20.0</ele><time>2026-04-18T08:18:13Z</time></trkpt><trkpt lat="41.991584744468874" lon="12.513712925058089"><ele>19.666666666666668</ele><time>2026-04-18T08:18:14Z</time></trkpt><trkpt lat="41.99172950484359" lon="12.513809109849957"><ele>19.333333333333332</ele><time>2026-04-18T08:18:15Z</time></trkpt><trkpt lat="41.99187080475365" lon="12.513903555397983"><ele>19.0</ele><time>2026-04-18T08:18:16Z</time></trkpt><trkpt lat="41.992015577727926" lon="12.513992193443517"><ele>19.0</ele><time>2026-04-18T08:18:17Z</time></trkpt><trkpt lat="41.9921655191382" lon="12.514077553188336"><ele>19.0</ele><time>2026-04-18T08:18:18Z</time></trkpt><trkpt lat="41.99231587014413" lon="12.514164650727864"><ele>19.0</ele><time>2026-04-18T08:18:19Z</time></trkpt><trkpt lat="41.99246825855679" lon="12.514251973497801"><ele>20.0</ele><time>2026-04-18T08:18:20Z</time></trkpt><trkpt lat="41.99262098404617" lon="12.514336569855496"><ele>21.0</ele><time>2026-04-18T08:18:21Z</time></trkpt><trkpt lat="41.99277183500789" lon="12.514414917042336"><ele>22.0</ele><time>2026-04-18T08:18:22Z</time></trkpt><trkpt lat="41.99292568432591" lon="12.51449595562531"><ele>21.666666666666664</ele><time>2026-04-18T08:18:23Z</time></trkpt><trkpt lat="41.99307764738016" lon="12.514582294179796"><ele>21.333333333333332</ele><time>2026-04-18T08:18:24Z</time></trkpt><trkpt lat="41.99323276874522" lon="12.514664020810713"><ele>21.0</ele><time>2026-04-18T08:18:25Z</time></trkpt><trkpt lat="41.99338925931935" lon="12.514744900932282"><ele>20.666666666666668</ele><time>2026-04-18T08:18:26Z</time></trkpt><trkpt lat="41.993540746445646" lon="12.514829328355928"><ele>20.333333333333336</ele><time>2026-04-18T08:18:27Z</time></trkpt><trkpt lat="41.993692180377764" lon="12.514910838992167"><ele>20.0</ele><time>2026-04-18T08:18:28Z</time></trkpt><trkpt lat="41.99384171951187" lon="12.514992388310972"><ele>20.0</ele><time>2026-04-18T08:18:29Z</time></trkpt><trkpt lat="41.99399838541504" lon="12.515080615619107"><ele>20.0</ele><time>2026-04-18T08:18:30Z</time></trkpt><trkpt lat="41.994154156500635" lon="12.51516445303651"><ele>20.0</ele><time>2026-04-18T08:18:31Z</time></trkpt><trkpt lat="41.99431481084614" lon="12.515250198532783"><ele>20.0</ele><time>2026-04-18T08:18:32Z</time></trkpt><trkpt lat="41.99447743435471" lon="12.515336337273952"><ele>20.0</ele><time>2026-04-18T08:18:33Z</time></trkpt><trkpt lat="41.994640799632606" lon="12.515424950000442"><ele>20.0</ele><time>2026-04-18T08:18:34Z</time></trkpt><trkpt lat="41.994801560286234" lon="12.515518441731283"><ele>20.0</ele><time>2026-04-18T08:18:35Z</time></trkpt><trkpt lat="41.99495100779841" lon="12.515605714101975"><ele>20.0</ele><time>2026-04-18T08:18:36Z</time></trkpt><trkpt lat="41.99510293588457" lon="12.515701337786759"><ele>20.0</ele><time>2026-04-18T08:18:37Z</time></trkpt><trkpt lat="41.99525904184151" lon="12.51580497569552"><ele>19.666666666666668</ele><time>2026-04-18T08:18:38Z</time></trkpt><trkpt lat="41.99540773221648" lon="12.515914417625348"><ele>19.333333333333332</ele><time>2026-04-18T08:18:39Z</time></trkpt><trkpt lat="41.995542593609365" lon="12.51602828153539"><ele>19.0</ele><time>2026-04-18T08:18:40Z</time></trkpt><trkpt lat="41.995659869487255" lon="12.516135688045019"><ele>19.5</ele><time>2026-04-18T08:18:41Z</time></trkpt><trkpt lat="41.995767847738165" lon="12.516248953078545"><ele>20.0</ele><time>2026-04-18T08:18:42Z</time></trkpt><trkpt lat="41.995879474815354" lon="12.516368800884928"><ele>20.5</ele><time>2026-04-18T08:18:43Z</time></trkpt><trkpt lat="41.995997385688426" lon="12.516485330555387"><ele>21.0</ele><time>2026-04-18T08:18:44Z</time></trkpt><trkpt lat="41.996105104333516" lon="12.5165926265504"><ele>21.5</ele><time>2026-04-18T08:18:45Z</time></trkpt><trkpt lat="41.996215238079095" lon="12.51669655982005"><ele>22.0</ele><time>2026-04-18T08:18:46Z</time></trkpt><trkpt lat="41.99633042544744" lon="12.516805601065109"><ele>22.5</ele><time>2026-04-18T08:18:47Z</time></trkpt><trkpt lat="41.996439992000404" lon="12.516902838018598"><ele>23.0</ele><time>2026-04-18T08:18:48Z</time></trkpt><trkpt lat="41.99653582270675" lon="12.516987801561665"><ele>23.0</ele><time>2026-04-18T08:18:49Z</time></trkpt><trkpt lat="41.99662028558435" lon="12.517064513020854"><ele>23.0</ele><time>2026-04-18T08:18:50Z</time></trkpt><trkpt lat="41.996699962122364" lon="12.517134028164971"><ele>23.0</ele><time>2026-04-18T08:18:51Z</time></trkpt><trkpt lat="41.99677786566833" lon="12.517213457362324"><ele>23.0</ele><time>2026-04-18T08:18:52Z</time></trkpt><trkpt lat="41.99684803350851" lon="12.517310651529224"><ele>23.0</ele><time>2026-04-18T08:18:53Z</time></trkpt><trkpt lat="41.99692739378232" lon="12.517402265352139"><ele>22.75</ele><time>2026-04-18T08:18:54Z</time></trkpt><trkpt lat="41.99702368161309" lon="12.517416214061722"><ele>22.5</ele><time>2026-04-18T08:18:55Z</time></trkpt><trkpt lat="41.99713174361619" lon="12.517365313186286"><ele>22.25</ele><time>2026-04-18T08:18:56Z</time></trkpt><trkpt lat="41.9972618252896" lon="12.517339905536362"><ele>22.0</ele><time>2026-04-18T08:18:57Z</time></trkpt><trkpt lat="41.99742254410376" lon="12.517382593707314"><ele>21.666666666666664</ele><time>2026-04-18T08:18:58Z</time></trkpt><trkpt lat="41.99759400059142" lon="12.517443060771976"><ele>21.333333333333332</ele><time>2026-04-18T08:18:59Z</time></trkpt><trkpt lat="41.99777091148787" lon="12.517494576603067"><ele>21.0</ele><time>2026-04-18T08:19:00Z</time></trkpt><trkpt lat="41.99793677536703" lon="12.51753966511284"><ele>21.0</ele><time>2026-04-18T08:19:01Z</time></trkpt><trkpt lat="41.998098244417264" lon="12.517593786692004"><ele>21.0</ele><time>2026-04-18T08:19:02Z</time></trkpt><trkpt lat="41.99826231329505" lon="12.517657378128725"><ele>21.0</ele><time>2026-04-18T08:19:03Z</time></trkpt><trkpt lat="41.99842443861744" lon="12.51771835790872"><ele>20.666666666666668</ele><time>2026-04-18T08:19:04Z</time></trkpt><trkpt lat="41.99857365893855" lon="12.517787296388244"><ele>20.333333333333336</ele><time>2026-04-18T08:19:05Z</time></trkpt><trkpt lat="41.99871614574954" lon="12.517859503527491"><ele>20.0</ele><time>2026-04-18T08:19:06Z</time></trkpt><trkpt lat="41.99886958274177" lon="12.517927830784895"><ele>20.0</ele><time>2026-04-18T08:19:07Z</time></trkpt><trkpt lat="41.99903383766843" lon="12.517994463046179"><ele>20.0</ele><time>2026-04-18T08:19:08Z</time></trkpt><trkpt lat="41.999211364885035" lon="12.518068999782932"><ele>20.0</ele><time>2026-04-18T08:19:09Z</time></trkpt><trkpt lat="41.999395893244284" lon="12.518155036965652"><ele>20.333333333333336</ele><time>2026-04-18T08:19:10Z</time></trkpt><trkpt lat="41.99957431784177" lon="12.518238044997688"><ele>20.666666666666668</ele><time>2026-04-18T08:19:11Z</time></trkpt><trkpt lat="41.999741229145634" lon="12.518318173090323"><ele>21.0</ele><time>2026-04-18T08:19:12Z</time></trkpt><trkpt lat="41.999897312323" lon="12.518381611096245"><ele>21.0</ele><time>2026-04-18T08:19:13Z</time></trkpt><trkpt lat="42.00005709801044" lon="12.51843179578565"><ele>21.0</ele><time>2026-04-18T08:19:14Z</time></trkpt><trkpt lat="42.00021733195599" lon="12.518465865351434"><ele>21.0</ele><time>2026-04-18T08:19:15Z</time></trkpt><trkpt lat="42.00038541472186" lon="12.51848468430259"><ele>21.0</ele><time>2026-04-18T08:19:16Z</time></trkpt><trkpt lat="42.00055569777347" lon="12.518488150635362"><ele>21.0</ele><time>2026-04-18T08:19:17Z</time></trkpt><trkpt lat="42.0007202840571" lon="12.518482015034715"><ele>21.0</ele><time>2026-04-18T08:19:18Z</time></trkpt><trkpt lat="42.00089112793426" lon="12.518467811022303"><ele>20.666666666666668</ele><time>2026-04-18T08:19:19Z</time></trkpt><trkpt lat="42.00105814193813" lon="12.518437140003122"><ele>20.333333333333336</ele><time>2026-04-18T08:19:20Z</time></trkpt><trkpt lat="42.00121910742179" lon="12.518397655675072"><ele>20.0</ele><time>2026-04-18T08:19:21Z</time></trkpt><trkpt lat="42.00137013710258" lon="12.518356173845492"><ele>20.0</ele><time>2026-04-18T08:19:22Z</time></trkpt><trkpt lat="42.00151789383308" lon="12.518298837967864"><ele>20.0</ele><time>2026-04-18T08:19:23Z</time></trkpt><trkpt lat="42.001669600963105" lon="12.518227938335537"><ele>20.0</ele><time>2026-04-18T08:19:24Z</time></trkpt><trkpt lat="42.00182267616514" lon="12.518149727237017"><ele>20.0</ele><time>2026-04-18T08:19:25Z</time></trkpt><trkpt lat="42.00196251764372" lon="12.518069787037788"><ele>20.0</ele><time>2026-04-18T08:19:26Z</time></trkpt><trkpt lat="42.00207914544411" lon="12.517990762202661"><ele>20.0</ele><time>2026-04-18T08:19:27Z</time></trkpt><trkpt lat="42.00218547801291" lon="12.517916062912406"><ele>20.0</ele><time>2026-04-18T08:19:28Z</time></trkpt><trkpt lat="42.00228202083753" lon="12.517844817216943"><ele>20.0</ele><time>2026-04-18T08:19:29Z</time></trkpt><trkpt lat="42.00237520861462" lon="12.517781992735298"><ele>20.0</ele><time>2026-04-18T08:19:30Z</time></trkpt><trkpt lat="42.00246172512011" lon="12.51773395482023"><ele>20.0</ele><time>2026-04-18T08:19:31Z</time></trkpt><trkpt lat="42.00254135143025" lon="12.517705750813843"><ele>20.0</ele><time>2026-04-18T08:19:32Z</time></trkpt><trkpt lat="42.00262698938632" lon="12.517690925587974"><ele>20.0</ele><time>2026-04-18T08:19:33Z</time></trkpt><trkpt lat="42.00271266908992" lon="12.517684634897261"><ele>19.8</ele><time>2026-04-18T08:19:34Z</time></trkpt><trkpt lat="42.002793016948445" lon="12.517679397966697"><ele>19.6</ele><time>2026-04-18T08:19:35Z</time></trkpt><trkpt lat="42.002878279706785" lon="12.517638110360991"><ele>19.4</ele><time>2026-04-18T08:19:36Z</time></trkpt><trkpt lat="42.00296771419233" lon="12.517503839958852"><ele>19.2</ele><time>2026-04-18T08:19:37Z</time></trkpt><trkpt lat="42.00305462426757" lon="12.517379925761327"><ele>19.0</ele><time>2026-04-18T08:19:38Z</time></trkpt><trkpt lat="42.00315020871969" lon="12.517289793294271"><ele>19.0</ele><time>2026-04-18T08:19:39Z</time></trkpt><trkpt lat="42.003276308572595" lon="12.517203199553148"><ele>19.0</ele><time>2026-04-18T08:19:40Z</time></trkpt><trkpt lat="42.00341565019767" lon="12.517113230775387"><ele>19.0</ele><time>2026-04-18T08:19:41Z</time></trkpt><trkpt lat="42.00356666642429" lon="12.517018276810846"><ele>19.333333333333332</ele><time>2026-04-18T08:19:42Z</time></trkpt><trkpt lat="42.00372265918721" lon="12.516925134790343"><ele>19.666666666666668</ele><time>2026-04-18T08:19:43Z</time></trkpt><trkpt lat="42.003889317995636" lon="12.51684055589914"><ele>20.0</ele><time>2026-04-18T08:19:44Z</time></trkpt><trkpt lat="42.00406489797551" lon="12.516778608193174"><ele>19.666666666666668</ele><time>2026-04-18T08:19:45Z</time></trkpt><trkpt lat="42.00422883611262" lon="12.516717308541944"><ele>19.333333333333332</ele><time>2026-04-18T08:19:46Z</time></trkpt><trkpt lat="42.004372636760955" lon="12.51665039855512"><ele>19.0</ele><time>2026-04-18T08:19:47Z</time></trkpt><trkpt lat="42.004528476355006" lon="12.516593847743845"><ele>19.0</ele><time>2026-04-18T08:19:48Z</time></trkpt><trkpt lat="42.00469400979284" lon="12.516548150032055"><ele>19.0</ele><time>2026-04-18T08:19:49Z</time></trkpt><trkpt lat="42.0048684828437" lon="12.516498602905646"><ele>19.0</ele><time>2026-04-18T08:19:50Z</time></trkpt><trkpt lat="42.0050474573677" lon="12.516462400166734"><ele>19.0</ele><time>2026-04-18T08:19:51Z</time></trkpt><trkpt lat="42.005223009474875" lon="12.516436133028163"><ele>19.0</ele><time>2026-04-18T08:19:52Z</time></trkpt><trkpt lat="42.00539849846844" lon="12.5164231004834"><ele>19.0</ele><time>2026-04-18T08:19:53Z</time></trkpt><trkpt lat="42.00556955939664" lon="12.516408827787581"><ele>19.0</ele><time>2026-04-18T08:19:54Z</time></trkpt><trkpt lat="42.00573707606114" lon="12.516404921195083"><ele>19.0</ele><time>2026-04-18T08:19:55Z</time></trkpt><trkpt lat="42.00590825929202" lon="12.516403687738372"><ele>19.0</ele><time>2026-04-18T08:19:56Z</time></trkpt><trkpt lat="42.0060807066987" lon="12.51642194157828"><ele>18.666666666666664</ele><time>2026-04-18T08:19:57Z</time></trkpt><trkpt lat="42.006256758593764" lon="12.516446994567131"><ele>18.333333333333332</ele><time>2026-04-18T08:19:58Z</time></trkpt><trkpt lat="42.00644552009316" lon="12.516470622966985"><ele>18.0</ele><time>2026-04-18T08:19:59Z</time></trkpt><trkpt lat="42.006633132504255" lon="12.51650150907091"><ele>17.666666666666668</ele><time>2026-04-18T08:20:00Z</time></trkpt><trkpt lat="42.00681333294034" lon="12.516544540131793"><ele>17.333333333333336</ele><time>2026-04-18T08:20:01Z</time></trkpt><trkpt lat="42.006991553958656" lon="12.516592793647979"><ele>17.0</ele><time>2026-04-18T08:20:02Z</time></trkpt><trkpt lat="42.007165392712444" lon="12.516648872900918"><ele>17.0</ele><time>2026-04-18T08:20:03Z</time></trkpt><trkpt lat="42.00733701146359" lon="12.516709369619413"><ele>17.0</ele><time>2026-04-18T08:20:04Z</time></trkpt><trkpt lat="42.00750535639165" lon="12.516777604881737"><ele>17.0</ele><time>2026-04-18T08:20:05Z</time></trkpt><trkpt lat="42.007673930802426" lon="12.516843310412337"><ele>18.0</ele><time>2026-04-18T08:20:06Z</time></trkpt><trkpt lat="42.007840315354336" lon="12.516905965677338"><ele>19.0</ele><time>2026-04-18T08:20:07Z</time></trkpt><trkpt lat="42.00801132966682" lon="12.51697860381584"><ele>20.0</ele><time>2026-04-18T08:20:08Z</time></trkpt><trkpt lat="42.00817582367112" lon="12.517041583259298"><ele>19.666666666666668</ele><time>2026-04-18T08:20:09Z</time></trkpt><trkpt lat="42.008342063641564" lon="12.517106358655292"><ele>19.333333333333332</ele><time>2026-04-18T08:20:10Z</time></trkpt><trkpt lat="42.008506975438365" lon="12.517168880825771"><ele>19.0</ele><time>2026-04-18T08:20:11Z</time></trkpt><trkpt lat="42.008672184264015" lon="12.517232052073167"><ele>19.0</ele><time>2026-04-18T08:20:12Z</time></trkpt><trkpt lat="42.00884976565048" lon="12.517300030612896"><ele>19.0</ele><time>2026-04-18T08:20:13Z</time></trkpt><trkpt lat="42.0090304356441" lon="12.517369693541795"><ele>19.0</ele><time>2026-04-18T08:20:14Z</time></trkpt><trkpt lat="42.0092178623553" lon="12.51743809395749"><ele>19.0</ele><time>2026-04-18T08:20:15Z</time></trkpt><trkpt lat="42.00939011711617" lon="12.517506680423748"><ele>19.0</ele><time>2026-04-18T08:20:16Z</time></trkpt><trkpt lat="42.00956057248256" lon="12.51757987383458"><ele>19.0</ele><time>2026-04-18T08:20:17Z</time></trkpt><trkpt lat="42.009736979486256" lon="12.517653444095172"><ele>19.0</ele><time>2026-04-18T08:20:18Z</time></trkpt><trkpt lat="42.0099080305179" lon="12.517715340415718"><ele>19.0</ele><time>2026-04-18T08:20:19Z</time></trkpt><trkpt lat="42.010071863997354" lon="12.517775868125876"><ele>19.0</ele><time>2026-04-18T08:20:20Z</time></trkpt><trkpt lat="42.01023326226949" lon="12.517842288463088"><ele>19.666666666666664</ele><time>2026-04-18T08:20:21Z</time></trkpt><trkpt lat="42.01039544754017" lon="12.517904174519714"><ele>20.333333333333332</ele><time>2026-04-18T08:20:22Z</time></trkpt><trkpt lat="42.01056419015799" lon="12.51797610666724"><ele>21.0</ele><time>2026-04-18T08:20:23Z</time></trkpt><trkpt lat="42.01073882013569" lon="12.518056518747995"><ele>21.666666666666668</ele><time>2026-04-18T08:20:24Z</time></trkpt><trkpt lat="42.01090238491918" lon="12.51814378275826"><ele>22.333333333333336</ele><time>2026-04-18T08:20:25Z</time></trkpt><trkpt lat="42.01105287674678" lon="12.518231147997323"><ele>23.0</ele><time>2026-04-18T08:20:26Z</time></trkpt><trkpt lat="42.01120442169919" lon="12.518324454350557"><ele>23.0</ele><time>2026-04-18T08:20:27Z</time></trkpt><trkpt lat="42.011372790500424" lon="12.518426570204712"><ele>23.0</ele><time>2026-04-18T08:20:28Z</time></trkpt><trkpt lat="42.01152751827878" lon="12.518533480537426"><ele>23.0</ele><time>2026-04-18T08:20:29Z</time></trkpt><trkpt lat="42.01167190613066" lon="12.518651013891802"><ele>22.333333333333336</ele><time>2026-04-18T08:20:30Z</time></trkpt><trkpt lat="42.011809524642516" lon="12.518769972397395"><ele>21.666666666666668</ele><time>2026-04-18T08:20:31Z</time></trkpt><trkpt lat="42.011945319354155" lon="12.518893427650164"><ele>21.0</ele><time>2026-04-18T08:20:32Z</time></trkpt><trkpt lat="42.01208034431807" lon="12.519027240288406"><ele>21.0</ele><time>2026-04-18T08:20:33Z</time></trkpt><trkpt lat="42.0122168390998" lon="12.51916823648915"><ele>21.0</ele><time>2026-04-18T08:20:34Z</time></trkpt><trkpt lat="42.01235885482862" lon="12.519317702124136"><ele>21.0</ele><time>2026-04-18T08:20:35Z</time></trkpt><trkpt lat="42.012495305008834" lon="12.51947509840377"><ele>23.0</ele><time>2026-04-18T08:20:36Z</time></trkpt><trkpt lat="42.012622192483974" lon="12.519631107619626"><ele>25.0</ele><time>2026-04-18T08:20:37Z</time></trkpt><trkpt lat="42.01273291740173" lon="12.519776548361861"><ele>27.0</ele><time>2026-04-18T08:20:38Z</time></trkpt><trkpt lat="42.012836324225496" lon="12.519919287028598"><ele>27.0</ele><time>2026-04-18T08:20:39Z</time></trkpt><trkpt lat="42.01293160010604" lon="12.520067224767095"><ele>27.0</ele><time>2026-04-18T08:20:40Z</time></trkpt><trkpt lat="42.01302450099994" lon="12.520220961570928"><ele>27.0</ele><time>2026-04-18T08:20:41Z</time></trkpt><trkpt lat="42.013117412085315" lon="12.520380374000547"><ele>27.0</ele><time>2026-04-18T08:20:42Z</time></trkpt><trkpt lat="42.013200201263764" lon="12.520528564486275"><ele>27.0</ele><time>2026-04-18T08:20:43Z</time></trkpt><trkpt lat="42.013277647800514" lon="12.520666430086353"><ele>27.000000000000004</ele><time>2026-04-18T08:20:44Z</time></trkpt><trkpt lat="42.01334084747095" lon="12.520775866945762"><ele>27.000000000000004</ele><time>2026-04-18T08:20:45Z</time></trkpt><trkpt lat="42.01340079409036" lon="12.52089640913301"><ele>27.0</ele><time>2026-04-18T08:20:46Z</time></trkpt><trkpt lat="42.01345202324741" lon="12.521002701986259"><ele>27.0</ele><time>2026-04-18T08:20:47Z</time></trkpt><trkpt lat="42.01349351372711" lon="12.521098139252143"><ele>26.833333333333332</ele><time>2026-04-18T08:20:48Z</time></trkpt><trkpt lat="42.01352623596329" lon="12.5211817143133"><ele>26.666666666666664</ele><time>2026-04-18T08:20:49Z</time></trkpt><trkpt lat="42.01355596212915" lon="12.52128340735029"><ele>26.5</ele><time>2026-04-18T08:20:51Z</time></trkpt><trkpt lat="42.01359613250219" lon="12.52135304699942"><ele>26.333333333333332</ele><time>2026-04-18T08:20:55Z</time></trkpt><trkpt lat="42.013650962331745" lon="12.521500748130412"><ele>26.166666666666664</ele><time>2026-04-18T08:21:05Z</time></trkpt><trkpt lat="42.01369600471391" lon="12.52159664769601"><ele>26.0</ele><time>2026-04-18T08:21:06Z</time></trkpt><trkpt lat="42.01374671774126" lon="12.521718466166169"><ele>25.75</ele><time>2026-04-18T08:21:07Z</time></trkpt><trkpt lat="42.013795199281226" lon="12.52185902506561"><ele>25.5</ele><time>2026-04-18T08:21:08Z</time></trkpt><trkpt lat="42.0138410032633" lon="12.522011510036387"><ele>25.25</ele><time>2026-04-18T08:21:09Z</time></trkpt><trkpt lat="42.01389090992249" lon="12.522173267237584"><ele>25.0</ele><time>2026-04-18T08:21:10Z</time></trkpt><trkpt lat="42.01394354149253" lon="12.522347876161966"><ele>25.666666666666668</ele><time>2026-04-18T08:21:11Z</time></trkpt><trkpt lat="42.01399093121084" lon="12.522532962400843"><ele>26.333333333333336</ele><time>2026-04-18T08:21:12Z</time></trkpt><trkpt lat="42.01403633063017" lon="12.522724999945613"><ele>27.0</ele><time>2026-04-18T08:21:13Z</time></trkpt><trkpt lat="42.01408346115496" lon="12.522926220466791"><ele>26.0</ele><time>2026-04-18T08:21:14Z</time></trkpt><trkpt lat="42.014129575752506" lon="12.523138279304314"><ele>25.0</ele><time>2026-04-18T08:21:15Z</time></trkpt><trkpt lat="42.01417139626125" lon="12.523349013027225"><ele>24.0</ele><time>2026-04-18T08:21:16Z</time></trkpt><trkpt lat="42.01420436299714" lon="12.52355719228073"><ele>24.0</ele><time>2026-04-18T08:21:17Z</time></trkpt><trkpt lat="42.01423456322579" lon="12.52377742796943"><ele>24.0</ele><time>2026-04-18T08:21:18Z</time></trkpt><trkpt lat="42.01426452133362" lon="12.52399630392674"><ele>24.0</ele><time>2026-04-18T08:21:19Z</time></trkpt><trkpt lat="42.0142893765774" lon="12.524216126864737"><ele>24.0</ele><time>2026-04-18T08:21:20Z</time></trkpt><trkpt lat="42.01430669159978" lon="12.524441072982063"><ele>24.0</ele><time>2026-04-18T08:21:21Z</time></trkpt><trkpt lat="42.01432291455396" lon="12.524672265745666"><ele>24.0</ele><time>2026-04-18T08:21:22Z</time></trkpt><trkpt lat="42.01432632932564" lon="12.524915667284347"><ele>23.333333333333332</ele><time>2026-04-18T08:21:23Z</time></trkpt><trkpt lat="42.01431998858519" lon="12.525147647221893"><ele>22.666666666666664</ele><time>2026-04-18T08:21:24Z</time></trkpt><trkpt lat="42.014318147468835" lon="12.525369108382122"><ele>22.0</ele><time>2026-04-18T08:21:25Z</time></trkpt><trkpt lat="42.014320217855904" lon="12.525588556993021"><ele>22.0</ele><time>2026-04-18T08:21:26Z</time></trkpt><trkpt lat="42.014322849922515" lon="12.525813810565344"><ele>22.0</ele><time>2026-04-18T08:21:27Z</time></trkpt><trkpt lat="42.014325058471435" lon="12.526041397424441"><ele>22.0</ele><time>2026-04-18T08:21:28Z</time></trkpt><trkpt lat="42.01432360995542" lon="12.526270204385638"><ele>22.0</ele><time>2026-04-18T08:21:29Z</time></trkpt><trkpt lat="42.01432346058247" lon="12.52650306936084"><ele>22.0</ele><time>2026-04-18T08:21:30Z</time></trkpt><trkpt lat="42.0143279671838" lon="12.526739407489428"><ele>22.0</ele><time>2026-04-18T08:21:31Z</time></trkpt><trkpt lat="42.0143295225272" lon="12.526973763493304"><ele>22.333333333333332</ele><time>2026-04-18T08:21:32Z</time></trkpt><trkpt lat="42.014328913113246" lon="12.527198042349868"><ele>22.666666666666668</ele><time>2026-04-18T08:21:33Z</time></trkpt><trkpt lat="42.01432605044738" lon="12.527421863644078"><ele>23.0</ele><time>2026-04-18T08:21:34Z</time></trkpt><trkpt lat="42.01432705754243" lon="12.527645477988093"><ele>23.0</ele><time>2026-04-18T08:21:35Z</time></trkpt><trkpt lat="42.014332065074775" lon="12.527877409946203"><ele>23.0</ele><time>2026-04-18T08:21:36Z</time></trkpt><trkpt lat="42.01434596521492" lon="12.528104155674868"><ele>23.0</ele><time>2026-04-18T08:21:37Z</time></trkpt><trkpt lat="42.01436565393108" lon="12.52833796814578"><ele>23.333333333333336</ele><time>2026-04-18T08:21:38Z</time></trkpt><trkpt lat="42.01439581161866" lon="12.528567267375497"><ele>23.666666666666668</ele><time>2026-04-18T08:21:39Z</time></trkpt><trkpt lat="42.01442737755968" lon="12.528787169829352"><ele>24.0</ele><time>2026-04-18T08:21:40Z</time></trkpt><trkpt lat="42.01446302931355" lon="12.529005003712593"><ele>25.0</ele><time>2026-04-18T08:21:41Z</time></trkpt><trkpt lat="42.01450402494504" lon="12.529218060306226"><ele>26.0</ele><time>2026-04-18T08:21:42Z</time></trkpt><trkpt lat="42.014553140041876" lon="12.529429223037281"><ele>27.0</ele><time>2026-04-18T08:21:43Z</time></trkpt><trkpt lat="42.014613232527495" lon="12.52963372977902"><ele>27.333333333333336</ele><time>2026-04-18T08:21:44Z</time></trkpt><trkpt lat="42.014682538878986" lon="12.529831671197472"><ele>27.666666666666668</ele><time>2026-04-18T08:21:45Z</time></trkpt><trkpt lat="42.01475674760004" lon="12.530035169618177"><ele>28.0</ele><time>2026-04-18T08:21:46Z</time></trkpt><trkpt lat="42.01482690844886" lon="12.530249423757807"><ele>27.666666666666668</ele><time>2026-04-18T08:21:47Z</time></trkpt><trkpt lat="42.014919333005146" lon="12.530466371936777"><ele>27.333333333333336</ele><time>2026-04-18T08:21:48Z</time></trkpt><trkpt lat="42.01500844889467" lon="12.530682944047676"><ele>27.0</ele><time>2026-04-18T08:21:49Z</time></trkpt><trkpt lat="42.0151154490844" lon="12.530891364024548"><ele>27.0</ele><time>2026-04-18T08:21:50Z</time></trkpt><trkpt lat="42.015225319803214" lon="12.531069518140205"><ele>27.0</ele><time>2026-04-18T08:21:51Z</time></trkpt><trkpt lat="42.015338532574674" lon="12.531227829110634"><ele>27.0</ele><time>2026-04-18T08:21:52Z</time></trkpt><trkpt lat="42.01545865187895" lon="12.53137704239064"><ele>25.666666666666668</ele><time>2026-04-18T08:21:53Z</time></trkpt><trkpt lat="42.015585138674915" lon="12.531521234692873"><ele>24.333333333333336</ele><time>2026-04-18T08:21:54Z</time></trkpt><trkpt lat="42.015709589161226" lon="12.531664529693943"><ele>23.0</ele><time>2026-04-18T08:21:55Z</time></trkpt><trkpt lat="42.01583007396058" lon="12.531808253267371"><ele>23.0</ele><time>2026-04-18T08:21:56Z</time></trkpt><trkpt lat="42.015939745799336" lon="12.531964906222301"><ele>23.0</ele><time>2026-04-18T08:21:57Z</time></trkpt><trkpt lat="42.01607504226836" lon="12.532099069346563"><ele>23.0</ele><time>2026-04-18T08:21:58Z</time></trkpt><trkpt lat="42.016214416024056" lon="12.532254577396397"><ele>23.0</ele><time>2026-04-18T08:21:59Z</time></trkpt><trkpt lat="42.01635703960627" lon="12.53239145128188"><ele>23.0</ele><time>2026-04-18T08:22:00Z</time></trkpt><trkpt lat="42.01651375576394" lon="12.53253793423399"><ele>23.0</ele><time>2026-04-18T08:22:01Z</time></trkpt><trkpt lat="42.016679130063515" lon="12.532686430061416"><ele>23.0</ele><time>2026-04-18T08:22:02Z</time></trkpt><trkpt lat="42.016833741972995" lon="12.532823478953746"><ele>23.0</ele><time>2026-04-18T08:22:03Z</time></trkpt><trkpt lat="42.0169741567969" lon="12.53294462835261"><ele>23.0</ele><time>2026-04-18T08:22:04Z</time></trkpt><trkpt lat="42.017103622104685" lon="12.533088224909841"><ele>23.666666666666668</ele><time>2026-04-18T08:22:05Z</time></trkpt><trkpt lat="42.017248852606436" lon="12.533219384925626"><ele>24.333333333333336</ele><time>2026-04-18T08:22:06Z</time></trkpt><trkpt lat="42.017400334992175" lon="12.533358814892425"><ele>25.0</ele><time>2026-04-18T08:22:07Z</time></trkpt><trkpt lat="42.01755510081669" lon="12.533502343469058"><ele>25.0</ele><time>2026-04-18T08:22:08Z</time></trkpt><trkpt lat="42.01770691114823" lon="12.533643240029514"><ele>25.0</ele><time>2026-04-18T08:22:09Z</time></trkpt><trkpt lat="42.01785612864001" lon="12.533780801854798"><ele>25.0</ele><time>2026-04-18T08:22:10Z</time></trkpt><trkpt lat="42.01800675948685" lon="12.533919306167208"><ele>25.0</ele><time>2026-04-18T08:22:11Z</time></trkpt><trkpt lat="42.01814176622238" lon="12.534032688074525"><ele>25.0</ele><time>2026-04-18T08:22:12Z</time></trkpt><trkpt lat="42.018289660102155" lon="12.534171743629425"><ele>25.0</ele><time>2026-04-18T08:22:13Z</time></trkpt><trkpt lat="42.01844020783754" lon="12.534308615482443"><ele>24.666666666666668</ele><time>2026-04-18T08:22:14Z</time></trkpt><trkpt lat="42.01858854493398" lon="12.534442433613252"><ele>24.333333333333336</ele><time>2026-04-18T08:22:15Z</time></trkpt><trkpt lat="42.01873479319222" lon="12.534571427418895"><ele>24.0</ele><time>2026-04-18T08:22:16Z</time></trkpt><trkpt lat="42.01887250713357" lon="12.534698574494705"><ele>23.666666666666668</ele><time>2026-04-18T08:22:17Z</time></trkpt><trkpt lat="42.01901217949226" lon="12.53482947251426"><ele>23.333333333333336</ele><time>2026-04-18T08:22:18Z</time></trkpt><trkpt lat="42.019149961735884" lon="12.534960351471144"><ele>23.0</ele><time>2026-04-18T08:22:19Z</time></trkpt><trkpt lat="42.0192977228268" lon="12.535086313934457"><ele>23.0</ele><time>2026-04-18T08:22:20Z</time></trkpt><trkpt lat="42.01945192328853" lon="12.535210570488163"><ele>23.0</ele><time>2026-04-18T08:22:21Z</time></trkpt><trkpt lat="42.01960332599705" lon="12.535326630238623"><ele>23.0</ele><time>2026-04-18T08:22:22Z</time></trkpt><trkpt lat="42.01976727265504" lon="12.53543924043292"><ele>25.333333333333336</ele><time>2026-04-18T08:22:23Z</time></trkpt><trkpt lat="42.01993079869187" lon="12.535537222322136"><ele>27.666666666666668</ele><time>2026-04-18T08:22:24Z</time></trkpt><trkpt lat="42.020099225000905" lon="12.535621443478545"><ele>30.0</ele><time>2026-04-18T08:22:25Z</time></trkpt><trkpt lat="42.020275830207275" lon="12.535703783405356"><ele>30.0</ele><time>2026-04-18T08:22:26Z</time></trkpt><trkpt lat="42.02045155541385" lon="12.535786027017446"><ele>30.0</ele><time>2026-04-18T08:22:27Z</time></trkpt><trkpt lat="42.02061216536957" lon="12.535857514072179"><ele>30.0</ele><time>2026-04-18T08:22:28Z</time></trkpt><trkpt lat="42.020773851349354" lon="12.535935095473132"><ele>31.333333333333336</ele><time>2026-04-18T08:22:29Z</time></trkpt><trkpt lat="42.020920078903146" lon="12.536064171116289"><ele>32.66666666666667</ele><time>2026-04-18T08:22:30Z</time></trkpt><trkpt lat="42.02106311579869" lon="12.536206264942711"><ele>34.0</ele><time>2026-04-18T08:22:31Z</time></trkpt><trkpt lat="42.02119990865275" lon="12.536362430897372"><ele>34.0</ele><time>2026-04-18T08:22:32Z</time></trkpt><trkpt lat="42.02132889440991" lon="12.536528913267269"><ele>34.0</ele><time>2026-04-18T08:22:33Z</time></trkpt><trkpt lat="42.02146669365345" lon="12.536717145393684"><ele>34.0</ele><time>2026-04-18T08:22:34Z</time></trkpt><trkpt lat="42.02159074261269" lon="12.536911274900868"><ele>33.333333333333336</ele><time>2026-04-18T08:22:35Z</time></trkpt><trkpt lat="42.02170133375147" lon="12.53710844779559"><ele>32.666666666666664</ele><time>2026-04-18T08:22:36Z</time></trkpt><trkpt lat="42.02180816244373" lon="12.537291835339756"><ele>32.0</ele><time>2026-04-18T08:22:37Z</time></trkpt><trkpt lat="42.02191840432414" lon="12.537471704631011"><ele>32.0</ele><time>2026-04-18T08:22:38Z</time></trkpt><trkpt lat="42.02202500153674" lon="12.537646072574258"><ele>32.0</ele><time>2026-04-18T08:22:39Z</time></trkpt><trkpt lat="42.022132559976164" lon="12.537822141263963"><ele>32.0</ele><time>2026-04-18T08:22:40Z</time></trkpt><trkpt lat="42.02222615267712" lon="12.538013005026242"><ele>28.666666666666664</ele><time>2026-04-18T08:22:41Z</time></trkpt><trkpt lat="42.02232803745379" lon="12.538183827568526"><ele>25.333333333333332</ele><time>2026-04-18T08:22:42Z</time></trkpt><trkpt lat="42.02244364453066" lon="12.538343579383787"><ele>22.0</ele><time>2026-04-18T08:22:43Z</time></trkpt><trkpt lat="42.02254438620733" lon="12.538518560338142"><ele>22.0</ele><time>2026-04-18T08:22:44Z</time></trkpt><trkpt lat="42.02264660587784" lon="12.538694915813245"><ele>22.0</ele><time>2026-04-18T08:22:45Z</time></trkpt><trkpt lat="42.02275037158564" lon="12.53886738475196"><ele>22.0</ele><time>2026-04-18T08:22:46Z</time></trkpt><trkpt lat="42.022853049500526" lon="12.539039973879595"><ele>26.0</ele><time>2026-04-18T08:22:47Z</time></trkpt><trkpt lat="42.02295558140265" lon="12.539215493516014"><ele>30.0</ele><time>2026-04-18T08:22:48Z</time></trkpt><trkpt lat="42.023055173043424" lon="12.5393842476496"><ele>34.0</ele><time>2026-04-18T08:22:49Z</time></trkpt><trkpt lat="42.023153873341336" lon="12.53956021832978"><ele>35.0</ele><time>2026-04-18T08:22:50Z</time></trkpt><trkpt lat="42.023250093495385" lon="12.539731050913668"><ele>36.0</ele><time>2026-04-18T08:22:51Z</time></trkpt><trkpt lat="42.02336524950479" lon="12.539897190456479"><ele>37.0</ele><time>2026-04-18T08:22:52Z</time></trkpt><trkpt lat="42.02349015064466" lon="12.540043401999263"><ele>35.66666666666667</ele><time>2026-04-18T08:22:53Z</time></trkpt><trkpt lat="42.02361705325559" lon="12.540171636614144"><ele>34.333333333333336</ele><time>2026-04-18T08:22:54Z</time></trkpt><trkpt lat="42.02374105233118" lon="12.540302135583945"><ele>33.0</ele><time>2026-04-18T08:22:55Z</time></trkpt><trkpt lat="42.02386382754621" lon="12.540432642114425"><ele>33.0</ele><time>2026-04-18T08:22:56Z</time></trkpt><trkpt lat="42.023986091318704" lon="12.540561061160405"><ele>33.0</ele><time>2026-04-18T08:22:57Z</time></trkpt><trkpt lat="42.024107688581914" lon="12.540688647631276"><ele>33.0</ele><time>2026-04-18T08:22:58Z</time></trkpt><trkpt lat="42.02423203327184" lon="12.54082160256913"><ele>31.0</ele><time>2026-04-18T08:22:59Z</time></trkpt><trkpt lat="42.02436230550927" lon="12.540959320251966"><ele>29.0</ele><time>2026-04-18T08:23:00Z</time></trkpt><trkpt lat="42.024487323234254" lon="12.5410925034149"><ele>27.0</ele><time>2026-04-18T08:23:01Z</time></trkpt><trkpt lat="42.02461122902357" lon="12.5412238436307"><ele>26.333333333333336</ele><time>2026-04-18T08:23:02Z</time></trkpt><trkpt lat="42.024735718793615" lon="12.54135055159955"><ele>25.666666666666668</ele><time>2026-04-18T08:23:03Z</time></trkpt><trkpt lat="42.0248662244534" lon="12.541481832972456"><ele>25.0</ele><time>2026-04-18T08:23:04Z</time></trkpt><trkpt lat="42.02502499579686" lon="12.541627999038308"><ele>25.0</ele><time>2026-04-18T08:23:05Z</time></trkpt><trkpt lat="42.02519818479825" lon="12.541825630571307"><ele>25.0</ele><time>2026-04-18T08:23:06Z</time></trkpt><trkpt lat="42.02539463928795" lon="12.542020322559287"><ele>25.666666666666668</ele><time>2026-04-18T08:23:07Z</time></trkpt><trkpt lat="42.02557628956494" lon="12.542201889746897"><ele>26.333333333333336</ele><time>2026-04-18T08:23:08Z</time></trkpt><trkpt lat="42.02574008395435" lon="12.542364091192939"><ele>27.0</ele><time>2026-04-18T08:23:09Z</time></trkpt><trkpt lat="42.02589886455187" lon="12.542494509604065"><ele>27.0</ele><time>2026-04-18T08:23:10Z</time></trkpt><trkpt lat="42.02604050362028" lon="12.542641630445509"><ele>27.0</ele><time>2026-04-18T08:23:11Z</time></trkpt><trkpt lat="42.0261750630908" lon="12.542780137448805"><ele>27.0</ele><time>2026-04-18T08:23:12Z</time></trkpt><trkpt lat="42.02630081368871" lon="12.542908913318113"><ele>26.666666666666664</ele><time>2026-04-18T08:23:13Z</time></trkpt><trkpt lat="42.02642513597845" lon="12.543040844182078"><ele>26.333333333333332</ele><time>2026-04-18T08:23:14Z</time></trkpt><trkpt lat="42.026559087911465" lon="12.54321054746172"><ele>26.0</ele><time>2026-04-18T08:23:15Z</time></trkpt><trkpt lat="42.02671907135579" lon="12.543380281266286"><ele>26.0</ele><time>2026-04-18T08:23:16Z</time></trkpt><trkpt lat="42.02688191632819" lon="12.543551604165845"><ele>26.0</ele><time>2026-04-18T08:23:17Z</time></trkpt><trkpt lat="42.02703951979009" lon="12.543717144510723"><ele>26.0</ele><time>2026-04-18T08:23:18Z</time></trkpt><trkpt lat="42.027187507153094" lon="12.543847569642704"><ele>25.0</ele><time>2026-04-18T08:23:19Z</time></trkpt><trkpt lat="42.027314882667454" lon="12.543995526038216"><ele>24.0</ele><time>2026-04-18T08:23:20Z</time></trkpt><trkpt lat="42.02745079520745" lon="12.544131168404975"><ele>23.0</ele><time>2026-04-18T08:23:21Z</time></trkpt><trkpt lat="42.02757979106726" lon="12.544259906635803"><ele>23.0</ele><time>2026-04-18T08:23:22Z</time></trkpt><trkpt lat="42.027718492138426" lon="12.544369766607169"><ele>23.0</ele><time>2026-04-18T08:23:23Z</time></trkpt><trkpt lat="42.027844091513536" lon="12.54451868459171"><ele>23.0</ele><time>2026-04-18T08:23:24Z</time></trkpt><trkpt lat="42.028003231267974" lon="12.544674176365968"><ele>25.0</ele><time>2026-04-18T08:23:25Z</time></trkpt><trkpt lat="42.028197061477464" lon="12.544863563124194"><ele>27.0</ele><time>2026-04-18T08:23:26Z</time></trkpt><trkpt lat="42.02840368795274" lon="12.54506519286701"><ele>27.0</ele><time>2026-04-18T08:23:27Z</time></trkpt><trkpt lat="42.028597958581095" lon="12.545249046525518"><ele>27.0</ele><time>2026-04-18T08:23:28Z</time></trkpt><trkpt lat="42.02877741092691" lon="12.545396031978555"><ele>27.0</ele><time>2026-04-18T08:23:29Z</time></trkpt><trkpt lat="42.02894221817291" lon="12.545535381690296"><ele>26.666666666666664</ele><time>2026-04-18T08:23:30Z</time></trkpt><trkpt lat="42.029102172007875" lon="12.545660473729686"><ele>26.333333333333332</ele><time>2026-04-18T08:23:31Z</time></trkpt><trkpt lat="42.02925493123196" lon="12.545777271182963"><ele>26.0</ele><time>2026-04-18T08:23:32Z</time></trkpt><trkpt lat="42.02941567613297" lon="12.545894367826676"><ele>26.0</ele><time>2026-04-18T08:23:33Z</time></trkpt><trkpt lat="42.02959019338746" lon="12.546017323055786"><ele>26.0</ele><time>2026-04-18T08:23:34Z</time></trkpt><trkpt lat="42.02977431368114" lon="12.54615105832042"><ele>26.0</ele><time>2026-04-18T08:23:35Z</time></trkpt><trkpt lat="42.029960964739" lon="12.546279882029092"><ele>26.0</ele><time>2026-04-18T08:23:36Z</time></trkpt><trkpt lat="42.03013880001239" lon="12.546407785429235"><ele>26.0</ele><time>2026-04-18T08:23:37Z</time></trkpt><trkpt lat="42.030297365034215" lon="12.546519545751156"><ele>26.0</ele><time>2026-04-18T08:23:38Z</time></trkpt><trkpt lat="42.03046024624471" lon="12.546629255586364"><ele>26.0</ele><time>2026-04-18T08:23:39Z</time></trkpt><trkpt lat="42.03061226002756" lon="12.546730746149745"><ele>26.0</ele><time>2026-04-18T08:23:40Z</time></trkpt><trkpt lat="42.03076473886369" lon="12.546837529831704"><ele>26.0</ele><time>2026-04-18T08:23:41Z</time></trkpt><trkpt lat="42.030925747915575" lon="12.546949505419601"><ele>25.333333333333332</ele><time>2026-04-18T08:23:42Z</time></trkpt><trkpt lat="42.031091405318605" lon="12.547066207245898"><ele>24.666666666666664</ele><time>2026-04-18T08:23:43Z</time></trkpt><trkpt lat="42.03124619625105" lon="12.547177463579809"><ele>24.0</ele><time>2026-04-18T08:23:44Z</time></trkpt><trkpt lat="42.031391432217546" lon="12.547302817437716"><ele>24.0</ele><time>2026-04-18T08:23:45Z</time></trkpt><trkpt lat="42.03153935130559" lon="12.547418553650374"><ele>24.0</ele><time>2026-04-18T08:23:46Z</time></trkpt><trkpt lat="42.03168358397453" lon="12.54753871825266"><ele>24.0</ele><time>2026-04-18T08:23:47Z</time></trkpt><trkpt lat="42.031822127349386" lon="12.547673628299933"><ele>24.0</ele><time>2026-04-18T08:23:48Z</time></trkpt><trkpt lat="42.031952860029264" lon="12.547825063222378"><ele>24.0</ele><time>2026-04-18T08:23:49Z</time></trkpt><trkpt lat="42.032077250297924" lon="12.547975422705855"><ele>24.0</ele><time>2026-04-18T08:23:50Z</time></trkpt><trkpt lat="42.03216970576337" lon="12.54817176764917"><ele>24.0</ele><time>2026-04-18T08:23:51Z</time></trkpt><trkpt lat="42.03227800685613" lon="12.548374481087466"><ele>24.0</ele><time>2026-04-18T08:23:52Z</time></trkpt><trkpt lat="42.03239594247829" lon="12.548568862597937"><ele>24.0</ele><time>2026-04-18T08:23:53Z</time></trkpt><trkpt lat="42.03248244639316" lon="12.548784917616635"><ele>24.333333333333336</ele><time>2026-04-18T08:23:54Z</time></trkpt><trkpt lat="42.0325741892753" lon="12.548982344289328"><ele>24.666666666666668</ele><time>2026-04-18T08:23:55Z</time></trkpt><trkpt lat="42.03266636662807" lon="12.549186629344801"><ele>25.0</ele><time>2026-04-18T08:23:56Z</time></trkpt><trkpt lat="42.03277196371874" lon="12.549382358000887"><ele>25.333333333333336</ele><time>2026-04-18T08:23:57Z</time></trkpt><trkpt lat="42.03286199654872" lon="12.549582093732756"><ele>25.666666666666664</ele><time>2026-04-18T08:23:58Z</time></trkpt><trkpt lat="42.03295101791689" lon="12.549768912371126"><ele>26.0</ele><time>2026-04-18T08:23:59Z</time></trkpt><trkpt lat="42.0330256469729" lon="12.549957020101196"><ele>26.0</ele><time>2026-04-18T08:24:00Z</time></trkpt><trkpt lat="42.03313583133686" lon="12.550118745117576"><ele>26.0</ele><time>2026-04-18T08:24:01Z</time></trkpt><trkpt lat="42.03325150763919" lon="12.550292766943814"><ele>26.0</ele><time>2026-04-18T08:24:02Z</time></trkpt><trkpt lat="42.03337697189944" lon="12.5504460224644"><ele>26.333333333333332</ele><time>2026-04-18T08:24:03Z</time></trkpt><trkpt lat="42.0335379359823" lon="12.550583514434766"><ele>26.666666666666664</ele><time>2026-04-18T08:24:04Z</time></trkpt><trkpt lat="42.0336913071627" lon="12.550713175194463"><ele>27.0</ele><time>2026-04-18T08:24:05Z</time></trkpt><trkpt lat="42.033842379821486" lon="12.55083955914578"><ele>27.0</ele><time>2026-04-18T08:24:06Z</time></trkpt><trkpt lat="42.03398694200552" lon="12.550963054949042"><ele>27.0</ele><time>2026-04-18T08:24:07Z</time></trkpt><trkpt lat="42.034121804782586" lon="12.551103826080325"><ele>27.0</ele><time>2026-04-18T08:24:08Z</time></trkpt><trkpt lat="42.03427543237707" lon="12.551213808636263"><ele>27.333333333333336</ele><time>2026-04-18T08:24:09Z</time></trkpt><trkpt lat="42.034421784645936" lon="12.551341015861501"><ele>27.666666666666668</ele><time>2026-04-18T08:24:10Z</time></trkpt><trkpt lat="42.034565898713595" lon="12.55146599118377"><ele>28.0</ele><time>2026-04-18T08:24:11Z</time></trkpt><trkpt lat="42.03470925237656" lon="12.55159131475523"><ele>28.0</ele><time>2026-04-18T08:24:12Z</time></trkpt><trkpt lat="42.03484411413963" lon="12.551734771329823"><ele>28.0</ele><time>2026-04-18T08:24:13Z</time></trkpt><trkpt lat="42.034981644777886" lon="12.551854570768006"><ele>28.0</ele><time>2026-04-18T08:24:14Z</time></trkpt><trkpt lat="42.03512108911445" lon="12.551984482420263"><ele>27.333333333333336</ele><time>2026-04-18T08:24:15Z</time></trkpt><trkpt lat="42.035254625163915" lon="12.552118406792465"><ele>26.666666666666664</ele><time>2026-04-18T08:24:16Z</time></trkpt><trkpt lat="42.035384440734795" lon="12.552257646239203"><ele>26.0</ele><time>2026-04-18T08:24:17Z</time></trkpt><trkpt lat="42.035504728444934" lon="12.552397608928036"><ele>26.0</ele><time>2026-04-18T08:24:18Z</time></trkpt><trkpt lat="42.035617890246925" lon="12.552540489549349"><ele>26.0</ele><time>2026-04-18T08:24:19Z</time></trkpt><trkpt lat="42.035721212022956" lon="12.552677400713423"><ele>26.0</ele><time>2026-04-18T08:24:20Z</time></trkpt><trkpt lat="42.03581975742593" lon="12.552814279757103"><ele>26.0</ele><time>2026-04-18T08:24:21Z</time></trkpt><trkpt lat="42.03591930866687" lon="12.552956015186554"><ele>26.0</ele><time>2026-04-18T08:24:22Z</time></trkpt><trkpt lat="42.036022309542105" lon="12.553105325657844"><ele>26.0</ele><time>2026-04-18T08:24:23Z</time></trkpt><trkpt lat="42.0361374196558" lon="12.553273139627617"><ele>26.0</ele><time>2026-04-18T08:24:24Z</time></trkpt><trkpt lat="42.03625684624581" lon="12.553449388350863"><ele>26.0</ele><time>2026-04-18T08:24:25Z</time></trkpt><trkpt lat="42.03637701890276" lon="12.553626738286269"><ele>26.0</ele><time>2026-04-18T08:24:26Z</time></trkpt><trkpt lat="42.03649197808772" lon="12.55379639408892"><ele>26.0</ele><time>2026-04-18T08:24:27Z</time></trkpt><trkpt lat="42.03660893229177" lon="12.553967075562396"><ele>25.333333333333332</ele><time>2026-04-18T08:24:28Z</time></trkpt><trkpt lat="42.0367478717132" lon="12.55416963684079"><ele>24.666666666666664</ele><time>2026-04-18T08:24:29Z</time></trkpt><trkpt lat="42.03690559894749" lon="12.554397609175512"><ele>24.0</ele><time>2026-04-18T08:24:30Z</time></trkpt><trkpt lat="42.037067016176316" lon="12.554631467404569"><ele>23.666666666666668</ele><time>2026-04-18T08:24:31Z</time></trkpt><trkpt lat="42.03721318149888" lon="12.55484322912227"><ele>23.333333333333336</ele><time>2026-04-18T08:24:32Z</time></trkpt><trkpt lat="42.0373529626037" lon="12.55504414649605"><ele>23.0</ele><time>2026-04-18T08:24:33Z</time></trkpt><trkpt lat="42.037494927228764" lon="12.555248080132122"><ele>24.0</ele><time>2026-04-18T08:24:34Z</time></trkpt><trkpt lat="42.037633667353084" lon="12.555446156926543"><ele>25.0</ele><time>2026-04-18T08:24:35Z</time></trkpt><trkpt lat="42.03775886290449" lon="12.555625045040431"><ele>26.0</ele><time>2026-04-18T08:24:36Z</time></trkpt><trkpt lat="42.037880940982056" lon="12.555800018607059"><ele>26.0</ele><time>2026-04-18T08:24:37Z</time></trkpt><trkpt lat="42.03800680304504" lon="12.555980415793702"><ele>26.0</ele><time>2026-04-18T08:24:38Z</time></trkpt><trkpt lat="42.038134026539886" lon="12.556162020708372"><ele>26.0</ele><time>2026-04-18T08:24:39Z</time></trkpt><trkpt lat="42.038261159890965" lon="12.556343323956796"><ele>25.666666666666664</ele><time>2026-04-18T08:24:40Z</time></trkpt><trkpt lat="42.03838836155261" lon="12.556523913401058"><ele>25.333333333333336</ele><time>2026-04-18T08:24:41Z</time></trkpt><trkpt lat="42.038515893269775" lon="12.556704794549546"><ele>25.0</ele><time>2026-04-18T08:24:42Z</time></trkpt><trkpt lat="42.03864122519898" lon="12.556884027823385"><ele>26.666666666666668</ele><time>2026-04-18T08:24:43Z</time></trkpt><trkpt lat="42.03876172074518" lon="12.5570655625006"><ele>28.333333333333336</ele><time>2026-04-18T08:24:44Z</time></trkpt><trkpt lat="42.03887676069781" lon="12.557255048542505"><ele>30.0</ele><time>2026-04-18T08:24:45Z</time></trkpt><trkpt lat="42.03898363786879" lon="12.55745764386873"><ele>30.0</ele><time>2026-04-18T08:24:46Z</time></trkpt><trkpt lat="42.039099438155624" lon="12.557655311630304"><ele>30.0</ele><time>2026-04-18T08:24:47Z</time></trkpt><trkpt lat="42.03917610104934" lon="12.557879351852977"><ele>30.0</ele><time>2026-04-18T08:24:48Z</time></trkpt><trkpt lat="42.03926526430782" lon="12.558090575355513"><ele>29.0</ele><time>2026-04-18T08:24:49Z</time></trkpt><trkpt lat="42.0393541272708" lon="12.558301087440823"><ele>28.0</ele><time>2026-04-18T08:24:50Z</time></trkpt><trkpt lat="42.039440442426134" lon="12.558507664506285"><ele>27.0</ele><time>2026-04-18T08:24:51Z</time></trkpt><trkpt lat="42.0395241246349" lon="12.558708455279994"><ele>27.0</ele><time>2026-04-18T08:24:52Z</time></trkpt><trkpt lat="42.039604141154285" lon="12.55890505387171"><ele>27.0</ele><time>2026-04-18T08:24:53Z</time></trkpt><trkpt lat="42.039681857647615" lon="12.559096672120997"><ele>27.0</ele><time>2026-04-18T08:24:54Z</time></trkpt><trkpt lat="42.039749799363854" lon="12.559272397571908"><ele>27.0</ele><time>2026-04-18T08:24:55Z</time></trkpt><trkpt lat="42.03984636359609" lon="12.559438201050414"><ele>27.0</ele><time>2026-04-18T08:24:56Z</time></trkpt><trkpt lat="42.03991102646184" lon="12.559633390879661"><ele>27.0</ele><time>2026-04-18T08:24:57Z</time></trkpt><trkpt lat="42.039980857018165" lon="12.559838314743219"><ele>26.666666666666664</ele><time>2026-04-18T08:24:58Z</time></trkpt><trkpt lat="42.04005485972024" lon="12.560050572974106"><ele>26.333333333333332</ele><time>2026-04-18T08:24:59Z</time></trkpt><trkpt lat="42.04011658181122" lon="12.560284436056154"><ele>26.0</ele><time>2026-04-18T08:25:00Z</time></trkpt><trkpt lat="42.040203077639305" lon="12.560496484152488"><ele>26.0</ele><time>2026-04-18T08:25:01Z</time></trkpt><trkpt lat="42.040314759510316" lon="12.560695616325681"><ele>26.0</ele><time>2026-04-18T08:25:02Z</time></trkpt><trkpt lat="42.04042059361627" lon="12.560891872623474"><ele>26.0</ele><time>2026-04-18T08:25:03Z</time></trkpt><trkpt lat="42.04052939041198" lon="12.561070657662524"><ele>24.666666666666664</ele><time>2026-04-18T08:25:04Z</time></trkpt><trkpt lat="42.040633114288255" lon="12.56127614748062"><ele>23.333333333333332</ele><time>2026-04-18T08:25:05Z</time></trkpt><trkpt lat="42.04075411843304" lon="12.561468863663857"><ele>22.0</ele><time>2026-04-18T08:25:06Z</time></trkpt><trkpt lat="42.04087544342764" lon="12.56165634248661"><ele>22.0</ele><time>2026-04-18T08:25:07Z</time></trkpt><trkpt lat="42.040993218737384" lon="12.561834479046407"><ele>22.0</ele><time>2026-04-18T08:25:08Z</time></trkpt><trkpt lat="42.04112475156831" lon="12.56199295674525"><ele>22.0</ele><time>2026-04-18T08:25:09Z</time></trkpt><trkpt lat="42.04124659547214" lon="12.562167768541295"><ele>22.333333333333332</ele><time>2026-04-18T08:25:10Z</time></trkpt><trkpt lat="42.04137520542815" lon="12.562349582040525"><ele>22.666666666666668</ele><time>2026-04-18T08:25:11Z</time></trkpt><trkpt lat="42.04150987469951" lon="12.562530615519456"><ele>23.0</ele><time>2026-04-18T08:25:12Z</time></trkpt><trkpt lat="42.04164266058919" lon="12.562707259872571"><ele>23.333333333333336</ele><time>2026-04-18T08:25:13Z</time></trkpt><trkpt lat="42.04176878282277" lon="12.56287929086204"><ele>23.666666666666668</ele><time>2026-04-18T08:25:14Z</time></trkpt><trkpt lat="42.041894067748295" lon="12.563047984730463"><ele>24.0</ele><time>2026-04-18T08:25:15Z</time></trkpt><trkpt lat="42.04202107795091" lon="12.56321817632678"><ele>24.0</ele><time>2026-04-18T08:25:16Z</time></trkpt><trkpt lat="42.042135762063886" lon="12.56340587426689"><ele>24.0</ele><time>2026-04-18T08:25:17Z</time></trkpt><trkpt lat="42.04226315328158" lon="12.563579341772568"><ele>24.0</ele><time>2026-04-18T08:25:18Z</time></trkpt><trkpt lat="42.042408299905176" lon="12.563729975067394"><ele>23.666666666666668</ele><time>2026-04-18T08:25:19Z</time></trkpt><trkpt lat="42.04253520499239" lon="12.563900978953562"><ele>23.333333333333336</ele><time>2026-04-18T08:25:20Z</time></trkpt><trkpt lat="42.04265567775514" lon="12.564071343908475"><ele>23.0</ele><time>2026-04-18T08:25:21Z</time></trkpt><trkpt lat="42.04277940434233" lon="12.56424110041749"><ele>23.0</ele><time>2026-04-18T08:25:22Z</time></trkpt><trkpt lat="42.04288747339789" lon="12.564431979939323"><ele>23.0</ele><time>2026-04-18T08:25:23Z</time></trkpt><trkpt lat="42.04301470019549" lon="12.564606109277765"><ele>23.0</ele><time>2026-04-18T08:25:24Z</time></trkpt><trkpt lat="42.04313895740355" lon="12.564774487361671"><ele>23.666666666666668</ele><time>2026-04-18T08:25:25Z</time></trkpt><trkpt lat="42.04325972437362" lon="12.564938135943946"><ele>24.333333333333336</ele><time>2026-04-18T08:25:26Z</time></trkpt><trkpt lat="42.04338888943998" lon="12.565081729588368"><ele>25.0</ele><time>2026-04-18T08:25:27Z</time></trkpt><trkpt lat="42.043495244449524" lon="12.565257283786144"><ele>25.333333333333336</ele><time>2026-04-18T08:25:28Z</time></trkpt><trkpt lat="42.043615133296434" lon="12.565419742440119"><ele>25.666666666666664</ele><time>2026-04-18T08:25:29Z</time></trkpt><trkpt lat="42.043741098638534" lon="12.565590435147538"><ele>26.0</ele><time>2026-04-18T08:25:30Z</time></trkpt><trkpt lat="42.04388399442568" lon="12.565752802342248"><ele>26.0</ele><time>2026-04-18T08:25:31Z</time></trkpt><trkpt lat="42.04399912562422" lon="12.565937519105463"><ele>26.0</ele><time>2026-04-18T08:25:32Z</time></trkpt><trkpt lat="42.04412340694374" lon="12.566104371939518"><ele>26.0</ele><time>2026-04-18T08:25:33Z</time></trkpt><trkpt lat="42.044259099891256" lon="12.566257566723959"><ele>25.333333333333332</ele><time>2026-04-18T08:25:34Z</time></trkpt><trkpt lat="42.04438516890378" lon="12.56643242174681"><ele>24.666666666666664</ele><time>2026-04-18T08:25:35Z</time></trkpt><trkpt lat="42.04451357008101" lon="12.566615214949062"><ele>24.0</ele><time>2026-04-18T08:25:36Z</time></trkpt><trkpt lat="42.04463937867553" lon="12.566774639975637"><ele>24.0</ele><time>2026-04-18T08:25:37Z</time></trkpt><trkpt lat="42.044766694337" lon="12.566948576685315"><ele>24.0</ele><time>2026-04-18T08:25:38Z</time></trkpt><trkpt lat="42.044895577855236" lon="12.567117834905714"><ele>24.0</ele><time>2026-04-18T08:25:39Z</time></trkpt><trkpt lat="42.045004956142684" lon="12.567291903079276"><ele>24.0</ele><time>2026-04-18T08:25:40Z</time></trkpt><trkpt lat="42.045135474298554" lon="12.567438672412687"><ele>24.0</ele><time>2026-04-18T08:25:41Z</time></trkpt><trkpt lat="42.04525269957123" lon="12.567604068788908"><ele>24.0</ele><time>2026-04-18T08:25:42Z</time></trkpt><trkpt lat="42.04537595371565" lon="12.56776719755959"><ele>24.333333333333336</ele><time>2026-04-18T08:25:43Z</time></trkpt><trkpt lat="42.04549389371198" lon="12.567952097535791"><ele>24.666666666666668</ele><time>2026-04-18T08:25:44Z</time></trkpt><trkpt lat="42.045629205922296" lon="12.568103228086363"><ele>25.0</ele><time>2026-04-18T08:25:45Z</time></trkpt><trkpt lat="42.04574288866658" lon="12.568285489693316"><ele>25.0</ele><time>2026-04-18T08:25:46Z</time></trkpt><trkpt lat="42.04587011657033" lon="12.568457291310573"><ele>25.0</ele><time>2026-04-18T08:25:47Z</time></trkpt><trkpt lat="42.04600224154628" lon="12.568631941952958"><ele>25.0</ele><time>2026-04-18T08:25:48Z</time></trkpt><trkpt lat="42.046145584373555" lon="12.568790794502412"><ele>25.333333333333336</ele><time>2026-04-18T08:25:49Z</time></trkpt><trkpt lat="42.04627803970375" lon="12.568950588481574"><ele>25.666666666666664</ele><time>2026-04-18T08:25:50Z</time></trkpt><trkpt lat="42.04640231504331" lon="12.569130959997022"><ele>26.0</ele><time>2026-04-18T08:25:51Z</time></trkpt><trkpt lat="42.04653052079732" lon="12.569290654048624"><ele>25.666666666666664</ele><time>2026-04-18T08:25:52Z</time></trkpt><trkpt lat="42.04666482286807" lon="12.569457941781797"><ele>25.333333333333336</ele><time>2026-04-18T08:25:53Z</time></trkpt><trkpt lat="42.04679811767377" lon="12.56962423525694"><ele>25.0</ele><time>2026-04-18T08:25:54Z</time></trkpt><trkpt lat="42.046930342778744" lon="12.569786876579153"><ele>26.0</ele><time>2026-04-18T08:25:55Z</time></trkpt><trkpt lat="42.047061908717524" lon="12.569947353226242"><ele>27.0</ele><time>2026-04-18T08:25:56Z</time></trkpt><trkpt lat="42.047190642321404" lon="12.570104376408338"><ele>28.0</ele><time>2026-04-18T08:25:57Z</time></trkpt><trkpt lat="42.04732095213505" lon="12.570257964197983"><ele>29.666666666666668</ele><time>2026-04-18T08:25:58Z</time></trkpt><trkpt lat="42.04745719489314" lon="12.57040592517954"><ele>31.333333333333336</ele><time>2026-04-18T08:25:59Z</time></trkpt><trkpt lat="42.0476051748132" lon="12.570524568798746"><ele>33.0</ele><time>2026-04-18T08:26:00Z</time></trkpt><trkpt lat="42.04774468840618" lon="12.570667795865061"><ele>33.0</ele><time>2026-04-18T08:26:01Z</time></trkpt><trkpt lat="42.047898496572664" lon="12.570797813319883"><ele>33.0</ele><time>2026-04-18T08:26:02Z</time></trkpt><trkpt lat="42.04806140253551" lon="12.570926322197638"><ele>33.0</ele><time>2026-04-18T08:26:03Z</time></trkpt><trkpt lat="42.04822445625067" lon="12.571047897878916"><ele>31.333333333333336</ele><time>2026-04-18T08:26:04Z</time></trkpt><trkpt lat="42.04837466188979" lon="12.571154697553013"><ele>29.666666666666668</ele><time>2026-04-18T08:26:05Z</time></trkpt><trkpt lat="42.04852574802708" lon="12.571257387957614"><ele>28.0</ele><time>2026-04-18T08:26:06Z</time></trkpt><trkpt lat="42.0486888526031" lon="12.571346250812322"><ele>29.666666666666668</ele><time>2026-04-18T08:26:07Z</time></trkpt><trkpt lat="42.04886058827999" lon="12.571457617367937"><ele>31.333333333333336</ele><time>2026-04-18T08:26:08Z</time></trkpt><trkpt lat="42.04903118975074" lon="12.571562480655075"><ele>33.0</ele><time>2026-04-18T08:26:09Z</time></trkpt><trkpt lat="42.04919524344547" lon="12.571662603164235"><ele>33.0</ele><time>2026-04-18T08:26:10Z</time></trkpt><trkpt lat="42.04935759314562" lon="12.571754404740414"><ele>33.0</ele><time>2026-04-18T08:26:11Z</time></trkpt><trkpt lat="42.04951613886469" lon="12.571841601540122"><ele>33.0</ele><time>2026-04-18T08:26:12Z</time></trkpt><trkpt lat="42.04967390955837" lon="12.571932491570927"><ele>34.0</ele><time>2026-04-18T08:26:13Z</time></trkpt><trkpt lat="42.04983307722924" lon="12.572024518721195"><ele>35.0</ele><time>2026-04-18T08:26:14Z</time></trkpt><trkpt lat="42.049997477125274" lon="12.572122199517747"><ele>36.0</ele><time>2026-04-18T08:26:15Z</time></trkpt><trkpt lat="42.05015923659932" lon="12.572218411048224"><ele>36.0</ele><time>2026-04-18T08:26:16Z</time></trkpt><trkpt lat="42.050321414474844" lon="12.572315883971944"><ele>36.0</ele><time>2026-04-18T08:26:17Z</time></trkpt><trkpt lat="42.05046587747574" lon="12.57243564187144"><ele>36.0</ele><time>2026-04-18T08:26:18Z</time></trkpt><trkpt lat="42.05060987119565" lon="12.572544367362875"><ele>36.0</ele><time>2026-04-18T08:26:19Z</time></trkpt><trkpt lat="42.05075591848664" lon="12.572667046471867"><ele>36.0</ele><time>2026-04-18T08:26:20Z</time></trkpt><trkpt lat="42.050897390135106" lon="12.572785121185204"><ele>36.0</ele><time>2026-04-18T08:26:21Z</time></trkpt><trkpt lat="42.051031740000234" lon="12.572897349182906"><ele>35.0</ele><time>2026-04-18T08:26:22Z</time></trkpt><trkpt lat="42.05115903286137" lon="12.573005382150782"><ele>34.0</ele><time>2026-04-18T08:26:23Z</time></trkpt><trkpt lat="42.051281067509215" lon="12.573112748580815"><ele>33.0</ele><time>2026-04-18T08:26:24Z</time></trkpt><trkpt lat="42.05139087372599" lon="12.573210237464874"><ele>32.0</ele><time>2026-04-18T08:26:25Z</time></trkpt><trkpt lat="42.05151104555051" lon="12.573301863484216"><ele>32.0</ele><time>2026-04-18T08:26:26Z</time></trkpt><trkpt lat="42.05162167514144" lon="12.573405065865343"><ele>32.0</ele><time>2026-04-18T08:26:27Z</time></trkpt><trkpt lat="42.05173059374491" lon="12.573500560812665"><ele>32.0</ele><time>2026-04-18T08:26:28Z</time></trkpt><trkpt lat="42.05183951310933" lon="12.57359631873157"><ele>32.0</ele><time>2026-04-18T08:26:29Z</time></trkpt><trkpt lat="42.05195846265058" lon="12.573697338955084"><ele>31.0</ele><time>2026-04-18T08:26:30Z</time></trkpt><trkpt lat="42.05207927617721" lon="12.573818087322916"><ele>30.0</ele><time>2026-04-18T08:26:31Z</time></trkpt><trkpt lat="42.05217623073733" lon="12.573955168174328"><ele>29.0</ele><time>2026-04-18T08:26:32Z</time></trkpt><trkpt lat="42.052273527222724" lon="12.574077042221873"><ele>28.0</ele><time>2026-04-18T08:26:33Z</time></trkpt><trkpt lat="42.05237694017528" lon="12.574183854264529"><ele>28.0</ele><time>2026-04-18T08:26:34Z</time></trkpt><trkpt lat="42.05245541867347" lon="12.574308699046304"><ele>28.0</ele><time>2026-04-18T08:26:35Z</time></trkpt><trkpt lat="42.0525441695434" lon="12.574430899198815"><ele>28.0</ele><time>2026-04-18T08:26:36Z</time></trkpt><trkpt lat="42.052634435498646" lon="12.574560133025532"><ele>28.0</ele><time>2026-04-18T08:26:37Z</time></trkpt><trkpt lat="42.05272805408033" lon="12.574705619024602"><ele>27.0</ele><time>2026-04-18T08:26:38Z</time></trkpt><trkpt lat="42.052832704956984" lon="12.574863166507564"><ele>26.0</ele><time>2026-04-18T08:26:39Z</time></trkpt><trkpt lat="42.052935941628625" lon="12.57502810058365"><ele>25.0</ele><time>2026-04-18T08:26:40Z</time></trkpt><trkpt lat="42.053045347559475" lon="12.575191933076631"><ele>25.0</ele><time>2026-04-18T08:26:41Z</time></trkpt><trkpt lat="42.05315470290841" lon="12.575360864463685"><ele>25.0</ele><time>2026-04-18T08:26:42Z</time></trkpt><trkpt lat="42.053260498614755" lon="12.57553102250325"><ele>25.0</ele><time>2026-04-18T08:26:43Z</time></trkpt><trkpt lat="42.053363243134896" lon="12.575700074006866"><ele>25.0</ele><time>2026-04-18T08:26:44Z</time></trkpt><trkpt lat="42.05347116502001" lon="12.575873096808516"><ele>25.0</ele><time>2026-04-18T08:26:45Z</time></trkpt><trkpt lat="42.0535782043313" lon="12.576037342634006"><ele>25.0</ele><time>2026-04-18T08:26:46Z</time></trkpt><trkpt lat="42.05367918292656" lon="12.576197480748856"><ele>25.0</ele><time>2026-04-18T08:26:47Z</time></trkpt><trkpt lat="42.05377836364143" lon="12.57635527212054"><ele>25.0</ele><time>2026-04-18T08:26:48Z</time></trkpt><trkpt lat="42.053877078913764" lon="12.576511405047617"><ele>25.0</ele><time>2026-04-18T08:26:49Z</time></trkpt><trkpt lat="42.053980247209665" lon="12.576672473472309"><ele>25.0</ele><time>2026-04-18T08:26:50Z</time></trkpt><trkpt lat="42.054081572259996" lon="12.576833881125811"><ele>25.0</ele><time>2026-04-18T08:26:51Z</time></trkpt><trkpt lat="42.054176607565175" lon="12.576995670697734"><ele>25.0</ele><time>2026-04-18T08:26:52Z</time></trkpt><trkpt lat="42.05427984373578" lon="12.577147080275996"><ele>24.333333333333336</ele><time>2026-04-18T08:26:53Z</time></trkpt><trkpt lat="42.0543820101856" lon="12.577316318437218"><ele>23.666666666666668</ele><time>2026-04-18T08:26:54Z</time></trkpt><trkpt lat="42.05448614723293" lon="12.577484636044105"><ele>23.0</ele><time>2026-04-18T08:26:55Z</time></trkpt><trkpt lat="42.054587577582446" lon="12.57764469722385"><ele>23.0</ele><time>2026-04-18T08:26:56Z</time></trkpt><trkpt lat="42.05468319659164" lon="12.577793386904908"><ele>23.0</ele><time>2026-04-18T08:26:57Z</time></trkpt><trkpt lat="42.05475645870002" lon="12.577949129941555"><ele>23.0</ele><time>2026-04-18T08:26:58Z</time></trkpt><trkpt lat="42.05483988654844" lon="12.578103033080835"><ele>23.0</ele><time>2026-04-18T08:26:59Z</time></trkpt><trkpt lat="42.05489179518801" lon="12.578262865098297"><ele>23.666666666666668</ele><time>2026-04-18T08:27:00Z</time></trkpt><trkpt lat="42.05496953527308" lon="12.57842461400237"><ele>24.333333333333336</ele><time>2026-04-18T08:27:01Z</time></trkpt><trkpt lat="42.05501802320789" lon="12.578623913909038"><ele>25.0</ele><time>2026-04-18T08:27:02Z</time></trkpt><trkpt lat="42.05509251104978" lon="12.57880179203967"><ele>25.5</ele><time>2026-04-18T08:27:03Z</time></trkpt><trkpt lat="42.05515147217454" lon="12.578969007946343"><ele>26.0</ele><time>2026-04-18T08:27:04Z</time></trkpt><trkpt lat="42.05520724154797" lon="12.57911507609152"><ele>26.5</ele><time>2026-04-18T08:27:05Z</time></trkpt><trkpt lat="42.05526750713643" lon="12.579257825956615"><ele>27.0</ele><time>2026-04-18T08:27:06Z</time></trkpt><trkpt lat="42.055338442042036" lon="12.57938440553586"><ele>27.0</ele><time>2026-04-18T08:27:07Z</time></trkpt><trkpt lat="42.05541605941838" lon="12.579490371104583"><ele>27.0</ele><time>2026-04-18T08:27:08Z</time></trkpt><trkpt lat="42.05548324065487" lon="12.579607651713701"><ele>27.0</ele><time>2026-04-18T08:27:09Z</time></trkpt><trkpt lat="42.055567548912116" lon="12.579722775279897"><ele>27.0</ele><time>2026-04-18T08:27:10Z</time></trkpt><trkpt lat="42.055649287535125" lon="12.579829789036735"><ele>26.6</ele><time>2026-04-18T08:27:11Z</time></trkpt><trkpt lat="42.05572898679056" lon="12.57993474750337"><ele>26.200000000000003</ele><time>2026-04-18T08:27:12Z</time></trkpt><trkpt lat="42.05580914329418" lon="12.580040251153317"><ele>25.8</ele><time>2026-04-18T08:27:13Z</time></trkpt><trkpt lat="42.055889880952556" lon="12.580146518352151"><ele>25.4</ele><time>2026-04-18T08:27:14Z</time></trkpt><trkpt lat="42.05596778495425" lon="12.580248625703357"><ele>25.0</ele><time>2026-04-18T08:27:15Z</time></trkpt><trkpt lat="42.056053499463644" lon="12.580332574939698"><ele>25.5</ele><time>2026-04-18T08:27:16Z</time></trkpt><trkpt lat="42.056130458799586" lon="12.58043455323397"><ele>26.0</ele><time>2026-04-18T08:27:17Z</time></trkpt><trkpt lat="42.05620941615431" lon="12.580542754047112"><ele>26.5</ele><time>2026-04-18T08:27:18Z</time></trkpt><trkpt lat="42.05629243913952" lon="12.580651612978373"><ele>27.0</ele><time>2026-04-18T08:27:19Z</time></trkpt><trkpt lat="42.05638016651214" lon="12.580764141186279"><ele>27.0</ele><time>2026-04-18T08:27:20Z</time></trkpt><trkpt lat="42.056463628331905" lon="12.580874400827163"><ele>27.000000000000004</ele><time>2026-04-18T08:27:21Z</time></trkpt><trkpt lat="42.05654473876702" lon="12.580977164775428"><ele>27.000000000000004</ele><time>2026-04-18T08:27:22Z</time></trkpt><trkpt lat="42.05661996598223" lon="12.58107497421037"><ele>27.0</ele><time>2026-04-18T08:27:23Z</time></trkpt><trkpt lat="42.05669217772181" lon="12.581169372476978"><ele>27.0</ele><time>2026-04-18T08:27:24Z</time></trkpt><trkpt lat="42.05676214095168" lon="12.581261584975204"><ele>26.5</ele><time>2026-04-18T08:27:25Z</time></trkpt><trkpt lat="42.05682926194315" lon="12.581352143962828"><ele>26.0</ele><time>2026-04-18T08:27:26Z</time></trkpt><trkpt lat="42.05689665693549" lon="12.581447555582931"><ele>25.5</ele><time>2026-04-18T08:27:27Z</time></trkpt><trkpt lat="42.05695721534835" lon="12.581526973578137"><ele>25.0</ele><time>2026-04-18T08:27:28Z</time></trkpt><trkpt lat="42.057016651596314" lon="12.581600141333846"><ele>24.5</ele><time>2026-04-18T08:27:29Z</time></trkpt><trkpt lat="42.05707962215876" lon="12.581680533319568"><ele>24.0</ele><time>2026-04-18T08:27:30Z</time></trkpt><trkpt lat="42.05714292841137" lon="12.581759971234371"><ele>24.0</ele><time>2026-04-18T08:27:31Z</time></trkpt><trkpt lat="42.05719604984868" lon="12.581837249446712"><ele>24.0</ele><time>2026-04-18T08:27:32Z</time></trkpt><trkpt lat="42.05724223833633" lon="12.581898734766776"><ele>24.0</ele><time>2026-04-18T08:27:33Z</time></trkpt><trkpt lat="42.05731903060688" lon="12.582023549252538"><ele>24.0</ele><time>2026-04-18T08:27:35Z</time></trkpt><trkpt lat="42.057367008879176" lon="12.58208926992264"><ele>24.0</ele><time>2026-04-18T08:27:36Z</time></trkpt><trkpt lat="42.05742225164059" lon="12.582164943444885"><ele>24.0</ele><time>2026-04-18T08:27:37Z</time></trkpt><trkpt lat="42.05747975308939" lon="12.582241802484557"><ele>23.833333333333332</ele><time>2026-04-18T08:27:38Z</time></trkpt><trkpt lat="42.0575362688196" lon="12.582317832085339"><ele>23.666666666666668</ele><time>2026-04-18T08:27:39Z</time></trkpt><trkpt lat="42.057581871437684" lon="12.582380132439587"><ele>23.5</ele><time>2026-04-18T08:27:40Z</time></trkpt><trkpt lat="42.05762938334052" lon="12.582444583977201"><ele>23.333333333333336</ele><time>2026-04-18T08:27:42Z</time></trkpt><trkpt lat="42.05768539068574" lon="12.582520387918066"><ele>23.166666666666668</ele><time>2026-04-18T08:27:44Z</time></trkpt><trkpt lat="42.057775033634584" lon="12.582641562881332"><ele>23.0</ele><time>2026-04-18T08:27:46Z</time></trkpt><trkpt lat="42.0578212255751" lon="12.582704002873099"><ele>23.0</ele><time>2026-04-18T08:27:47Z</time></trkpt><trkpt lat="42.05787200048311" lon="12.58277263787887"><ele>23.0</ele><time>2026-04-18T08:27:48Z</time></trkpt><trkpt lat="42.05792024208039" lon="12.582837849464207"><ele>23.0</ele><time>2026-04-18T08:27:49Z</time></trkpt><trkpt lat="42.058003671035856" lon="12.582950630048979"><ele>23.0</ele><time>2026-04-18T08:27:51Z</time></trkpt><trkpt lat="42.058094862001475" lon="12.583075689765776"><ele>23.0</ele><time>2026-04-18T08:27:53Z</time></trkpt><trkpt lat="42.058146090527586" lon="12.583144808477213"><ele>23.166666666666668</ele><time>2026-04-18T08:27:54Z</time></trkpt><trkpt lat="42.05820207522535" lon="12.58321866514969"><ele>23.333333333333336</ele><time>2026-04-18T08:27:55Z</time></trkpt><trkpt lat="42.058264275966884" lon="12.583301128434657"><ele>23.5</ele><time>2026-04-18T08:27:56Z</time></trkpt><trkpt lat="42.05832653617752" lon="12.58338367052025"><ele>23.666666666666668</ele><time>2026-04-18T08:27:57Z</time></trkpt><trkpt lat="42.05839127578062" lon="12.583469499878419"><ele>23.833333333333332</ele><time>2026-04-18T08:27:58Z</time></trkpt><trkpt lat="42.05845351058917" lon="12.583551969116517"><ele>24.0</ele><time>2026-04-18T08:27:59Z</time></trkpt><trkpt lat="42.05850450500849" lon="12.583620293504469"><ele>24.333333333333332</ele><time>2026-04-18T08:28:00Z</time></trkpt><trkpt lat="42.058551944163554" lon="12.583683854493666"><ele>24.666666666666664</ele><time>2026-04-18T08:28:01Z</time></trkpt><trkpt lat="42.05862815460087" lon="12.583787146687152"><ele>25.0</ele><time>2026-04-18T08:28:03Z</time></trkpt><trkpt lat="42.05869471300475" lon="12.583889320490556"><ele>25.333333333333332</ele><time>2026-04-18T08:28:05Z</time></trkpt><trkpt lat="42.05874437845453" lon="12.583954293433093"><ele>25.666666666666664</ele><time>2026-04-18T08:28:07Z</time></trkpt><trkpt lat="42.05881327200497" lon="12.584021694989525"><ele>26.0</ele><time>2026-04-18T08:29:16Z</time></trkpt><trkpt lat="42.058898141845255" lon="12.584131540279182"><ele>25.999999999999996</ele><time>2026-04-18T08:29:18Z</time></trkpt><trkpt lat="42.05893838990146" lon="12.584216743968296"><ele>26.0</ele><time>2026-04-18T08:29:19Z</time></trkpt><trkpt lat="42.05900372901547" lon="12.584305365480214"><ele>26.0</ele><time>2026-04-18T08:29:20Z</time></trkpt><trkpt lat="42.05906022818984" lon="12.584382342663694"><ele>26.0</ele><time>2026-04-18T08:29:21Z</time></trkpt><trkpt lat="42.05912608686434" lon="12.58446932918036"><ele>25.999999999999996</ele><time>2026-04-18T08:29:22Z</time></trkpt><trkpt lat="42.05920101416998" lon="12.584561681194318"><ele>26.0</ele><time>2026-04-18T08:29:23Z</time></trkpt><trkpt lat="42.059280957893876" lon="12.584658352032335"><ele>26.200000000000003</ele><time>2026-04-18T08:29:24Z</time></trkpt><trkpt lat="42.059365825739185" lon="12.584762228976217"><ele>26.400000000000002</ele><time>2026-04-18T08:29:25Z</time></trkpt><trkpt lat="42.05944008920408" lon="12.584853266774012"><ele>26.6</ele><time>2026-04-18T08:29:26Z</time></trkpt><trkpt lat="42.059532527660814" lon="12.584918908158597"><ele>26.8</ele><time>2026-04-18T08:29:27Z</time></trkpt><trkpt lat="42.05961914905468" lon="12.585037384288096"><ele>27.0</ele><time>2026-04-18T08:29:28Z</time></trkpt><trkpt lat="42.05971226485481" lon="12.58515463134864"><ele>27.0</ele><time>2026-04-18T08:29:29Z</time></trkpt><trkpt lat="42.05979842409497" lon="12.585266543756216"><ele>27.0</ele><time>2026-04-18T08:29:30Z</time></trkpt><trkpt lat="42.05985610334867" lon="12.5854095802537"><ele>27.0</ele><time>2026-04-18T08:29:31Z</time></trkpt><trkpt lat="42.05993969666307" lon="12.585521456249728"><ele>27.0</ele><time>2026-04-18T08:29:32Z</time></trkpt><trkpt lat="42.060026488644624" lon="12.585637845722431"><ele>27.0</ele><time>2026-04-18T08:29:33Z</time></trkpt><trkpt lat="42.06011517225829" lon="12.58575673119498"><ele>27.0</ele><time>2026-04-18T08:29:34Z</time></trkpt><trkpt lat="42.060195690574055" lon="12.585866105974041"><ele>27.0</ele><time>2026-04-18T08:29:35Z</time></trkpt><trkpt lat="42.060279740605104" lon="12.585981312882616"><ele>27.0</ele><time>2026-04-18T08:29:36Z</time></trkpt><trkpt lat="42.060369655430556" lon="12.586105031677597"><ele>27.0</ele><time>2026-04-18T08:29:37Z</time></trkpt><trkpt lat="42.06045841009334" lon="12.586227519513852"><ele>27.0</ele><time>2026-04-18T08:29:38Z</time></trkpt><trkpt lat="42.060546638129225" lon="12.58635119134144"><ele>27.0</ele><time>2026-04-18T08:29:39Z</time></trkpt><trkpt lat="42.06063730186602" lon="12.58647846326491"><ele>27.0</ele><time>2026-04-18T08:29:40Z</time></trkpt><trkpt lat="42.06072506245489" lon="12.586604821882958"><ele>27.0</ele><time>2026-04-18T08:29:41Z</time></trkpt><trkpt lat="42.060814438450436" lon="12.586735963030701"><ele>27.0</ele><time>2026-04-18T08:29:42Z</time></trkpt><trkpt lat="42.060903862801055" lon="12.586870263290294"><ele>27.0</ele><time>2026-04-18T08:29:43Z</time></trkpt><trkpt lat="42.06099309796603" lon="12.587012009346171"><ele>27.0</ele><time>2026-04-18T08:29:44Z</time></trkpt><trkpt lat="42.06107897778806" lon="12.587153510013975"><ele>27.0</ele><time>2026-04-18T08:29:45Z</time></trkpt><trkpt lat="42.061163877287576" lon="12.58729892220955"><ele>27.0</ele><time>2026-04-18T08:29:46Z</time></trkpt><trkpt lat="42.06124375306979" lon="12.587443029622078"><ele>27.0</ele><time>2026-04-18T08:29:47Z</time></trkpt><trkpt lat="42.06131988506373" lon="12.58758617017284"><ele>27.0</ele><time>2026-04-18T08:29:48Z</time></trkpt><trkpt lat="42.06139331202359" lon="12.587729244583475"><ele>26.75</ele><time>2026-04-18T08:29:49Z</time></trkpt><trkpt lat="42.061467194648884" lon="12.58786501323061"><ele>26.5</ele><time>2026-04-18T08:29:50Z</time></trkpt><trkpt lat="42.06154139019042" lon="12.5880012185444"><ele>26.25</ele><time>2026-04-18T08:29:51Z</time></trkpt><trkpt lat="42.06161413146618" lon="12.588131255225496"><ele>26.0</ele><time>2026-04-18T08:29:52Z</time></trkpt><trkpt lat="42.06168212947924" lon="12.588251657965207"><ele>25.833333333333332</ele><time>2026-04-18T08:29:53Z</time></trkpt><trkpt lat="42.061748588124665" lon="12.588369335976282"><ele>25.666666666666664</ele><time>2026-04-18T08:29:54Z</time></trkpt><trkpt lat="42.06180495376998" lon="12.58847254968119"><ele>25.5</ele><time>2026-04-18T08:29:55Z</time></trkpt><trkpt lat="42.06185312223865" lon="12.58856224797092"><ele>25.333333333333336</ele><time>2026-04-18T08:29:56Z</time></trkpt><trkpt lat="42.06189379686108" lon="12.58863668186663"><ele>25.166666666666668</ele><time>2026-04-18T08:29:57Z</time></trkpt><trkpt lat="42.06193481925727" lon="12.588709832283868"><ele>25.0</ele><time>2026-04-18T08:29:58Z</time></trkpt><trkpt lat="42.06201017889989" lon="12.58883601379306"><ele>25.0</ele><time>2026-04-18T08:30:00Z</time></trkpt><trkpt lat="42.0620842083114" lon="12.588954038360697"><ele>25.0</ele><time>2026-04-18T08:30:02Z</time></trkpt><trkpt lat="42.0621429372142" lon="12.589040943025772"><ele>25.0</ele><time>2026-04-18T08:30:03Z</time></trkpt><trkpt lat="42.06220702634776" lon="12.589137283619518"><ele>25.0</ele><time>2026-04-18T08:30:04Z</time></trkpt><trkpt lat="42.06226896732074" lon="12.589230144675371"><ele>25.0</ele><time>2026-04-18T08:30:05Z</time></trkpt><trkpt lat="42.06233417301644" lon="12.58932790029687"><ele>25.000000000000004</ele><time>2026-04-18T08:30:06Z</time></trkpt><trkpt lat="42.062423773138875" lon="12.589402280396834"><ele>25.0</ele><time>2026-04-18T08:30:07Z</time></trkpt><trkpt lat="42.062478859360084" lon="12.589484605192718"><ele>25.0</ele><time>2026-04-18T08:30:08Z</time></trkpt><trkpt lat="42.06252101814204" lon="12.589550460538137"><ele>25.0</ele><time>2026-04-18T08:30:09Z</time></trkpt><trkpt lat="42.06256208711291" lon="12.589670829300207"><ele>25.000000000000004</ele><time>2026-04-18T08:30:11Z</time></trkpt><trkpt lat="42.0626149003043" lon="12.589749172551118"><ele>25.0</ele><time>2026-04-18T08:30:15Z</time></trkpt><trkpt lat="42.06267318765264" lon="12.589834519818774"><ele>25.8</ele><time>2026-04-18T08:30:16Z</time></trkpt><trkpt lat="42.06274141159853" lon="12.589933488625935"><ele>26.6</ele><time>2026-04-18T08:30:17Z</time></trkpt><trkpt lat="42.06281856207107" lon="12.590045410627045"><ele>27.4</ele><time>2026-04-18T08:30:18Z</time></trkpt><trkpt lat="42.06288744329047" lon="12.590139287766629"><ele>28.2</ele><time>2026-04-18T08:30:19Z</time></trkpt><trkpt lat="42.06295923253823" lon="12.590189599037739"><ele>29.0</ele><time>2026-04-18T08:30:20Z</time></trkpt><trkpt lat="42.063007247431614" lon="12.590256392906845"><ele>29.0</ele><time>2026-04-18T08:30:21Z</time></trkpt><trkpt lat="42.06308943633304" lon="12.590379466705189"><ele>29.0</ele><time>2026-04-18T08:30:23Z</time></trkpt><trkpt lat="42.063170384078504" lon="12.590499830577269"><ele>29.0</ele><time>2026-04-18T08:30:25Z</time></trkpt><trkpt lat="42.063219714958734" lon="12.590606977828672"><ele>29.0</ele><time>2026-04-18T08:30:27Z</time></trkpt><trkpt lat="42.06327296026835" lon="12.590665664033157"><ele>29.0</ele><time>2026-04-18T08:30:33Z</time></trkpt><trkpt lat="42.06332133347202" lon="12.590747532873564"><ele>29.0</ele><time>2026-04-18T08:30:35Z</time></trkpt><trkpt lat="42.06340279468303" lon="12.590847976894038"><ele>29.0</ele><time>2026-04-18T08:30:37Z</time></trkpt><trkpt lat="42.063459325840206" lon="12.590925402938018"><ele>29.0</ele><time>2026-04-18T08:30:38Z</time></trkpt><trkpt lat="42.063524678266184" lon="12.591022151732341"><ele>29.0</ele><time>2026-04-18T08:30:39Z</time></trkpt><trkpt lat="42.063594661045094" lon="12.591128285453303"><ele>29.0</ele><time>2026-04-18T08:30:40Z</time></trkpt><trkpt lat="42.06366803751964" lon="12.591228514663973"><ele>28.799999999999997</ele><time>2026-04-18T08:30:41Z</time></trkpt><trkpt lat="42.06374269731314" lon="12.591326258398448"><ele>28.599999999999998</ele><time>2026-04-18T08:30:42Z</time></trkpt><trkpt lat="42.06381167388001" lon="12.59141817251088"><ele>28.4</ele><time>2026-04-18T08:30:43Z</time></trkpt><trkpt lat="42.06387565175481" lon="12.591499063766335"><ele>28.2</ele><time>2026-04-18T08:30:44Z</time></trkpt><trkpt lat="42.06393319577812" lon="12.591579708557454"><ele>28.0</ele><time>2026-04-18T08:30:45Z</time></trkpt><trkpt lat="42.063988880974" lon="12.591654831599659"><ele>28.0</ele><time>2026-04-18T08:30:46Z</time></trkpt><trkpt lat="42.064043329348166" lon="12.591727752929211"><ele>27.999999999999996</ele><time>2026-04-18T08:30:47Z</time></trkpt><trkpt lat="42.06408888673533" lon="12.591790283474719"><ele>27.999999999999996</ele><time>2026-04-18T08:30:48Z</time></trkpt><trkpt lat="42.06414803704518" lon="12.59189401277618"><ele>28.0</ele><time>2026-04-18T08:30:50Z</time></trkpt><trkpt lat="42.06421506132488" lon="12.592004916431977"><ele>28.0</ele><time>2026-04-18T08:30:52Z</time></trkpt><trkpt lat="42.06431718242849" lon="12.592152223573107"><ele>28.5</ele><time>2026-04-18T08:30:54Z</time></trkpt><trkpt lat="42.06441859897928" lon="12.592267622874486"><ele>29.0</ele><time>2026-04-18T08:30:55Z</time></trkpt><trkpt lat="42.06451428059107" lon="12.592411310620948"><ele>29.5</ele><time>2026-04-18T08:30:56Z</time></trkpt><trkpt lat="42.06458796137419" lon="12.59252262336739"><ele>30.0</ele><time>2026-04-18T08:30:57Z</time></trkpt><trkpt lat="42.06465830413127" lon="12.592629159969803"><ele>30.0</ele><time>2026-04-18T08:30:58Z</time></trkpt><trkpt lat="42.06474444507719" lon="12.592727040296747"><ele>30.0</ele><time>2026-04-18T08:30:59Z</time></trkpt><trkpt lat="42.064839286965814" lon="12.592835364757658"><ele>30.0</ele><time>2026-04-18T08:31:00Z</time></trkpt><trkpt lat="42.06492667314298" lon="12.592936222020679"><ele>30.0</ele><time>2026-04-18T08:31:01Z</time></trkpt><trkpt lat="42.065014562657844" lon="12.59302778347439"><ele>29.4</ele><time>2026-04-18T08:31:02Z</time></trkpt><trkpt lat="42.065107429406964" lon="12.593111242267744"><ele>28.8</ele><time>2026-04-18T08:31:03Z</time></trkpt><trkpt lat="42.06520452903789" lon="12.593190961686547"><ele>28.200000000000003</ele><time>2026-04-18T08:31:04Z</time></trkpt><trkpt lat="42.06529503305688" lon="12.59326468742055"><ele>27.6</ele><time>2026-04-18T08:31:05Z</time></trkpt><trkpt lat="42.06538630879936" lon="12.593338869369552"><ele>27.0</ele><time>2026-04-18T08:31:06Z</time></trkpt><trkpt lat="42.06547292968685" lon="12.59341711108419"><ele>27.0</ele><time>2026-04-18T08:31:07Z</time></trkpt><trkpt lat="42.06555368685837" lon="12.59349060633254"><ele>27.0</ele><time>2026-04-18T08:31:08Z</time></trkpt><trkpt lat="42.06563414936309" lon="12.593556820441599"><ele>27.0</ele><time>2026-04-18T08:31:09Z</time></trkpt><trkpt lat="42.065741907861415" lon="12.593642192697823"><ele>27.0</ele><time>2026-04-18T08:31:10Z</time></trkpt><trkpt lat="42.06585933949452" lon="12.593734501039764"><ele>26.75</ele><time>2026-04-18T08:31:11Z</time></trkpt><trkpt lat="42.06597233178742" lon="12.593818045583609"><ele>26.5</ele><time>2026-04-18T08:31:12Z</time></trkpt><trkpt lat="42.06609059717578" lon="12.593904504458925"><ele>26.25</ele><time>2026-04-18T08:31:13Z</time></trkpt><trkpt lat="42.06622254948439" lon="12.593994021184798"><ele>26.0</ele><time>2026-04-18T08:31:14Z</time></trkpt><trkpt lat="42.066354532648795" lon="12.594076212691855"><ele>26.0</ele><time>2026-04-18T08:31:15Z</time></trkpt><trkpt lat="42.066484051787725" lon="12.594162878078405"><ele>26.0</ele><time>2026-04-18T08:31:16Z</time></trkpt><trkpt lat="42.06662949118354" lon="12.594272737292872"><ele>26.0</ele><time>2026-04-18T08:31:17Z</time></trkpt><trkpt lat="42.06682655444822" lon="12.594386034517374"><ele>25.666666666666664</ele><time>2026-04-18T08:31:18Z</time></trkpt><trkpt lat="42.06702947554153" lon="12.59448971400962"><ele>25.333333333333336</ele><time>2026-04-18T08:31:19Z</time></trkpt><trkpt lat="42.06718747741889" lon="12.594542731764788"><ele>25.0</ele><time>2026-04-18T08:31:20Z</time></trkpt><trkpt lat="42.06732123997625" lon="12.594601636633127"><ele>25.75</ele><time>2026-04-18T08:31:21Z</time></trkpt><trkpt lat="42.067456820281166" lon="12.594669018496404"><ele>26.5</ele><time>2026-04-18T08:31:22Z</time></trkpt><trkpt lat="42.06760068534879" lon="12.594739687790387"><ele>27.25</ele><time>2026-04-18T08:31:23Z</time></trkpt><trkpt lat="42.0677272931826" lon="12.594793722913408"><ele>28.0</ele><time>2026-04-18T08:31:24Z</time></trkpt><trkpt lat="42.067856320684385" lon="12.594860221783449"><ele>28.0</ele><time>2026-04-18T08:31:25Z</time></trkpt><trkpt lat="42.067980483376175" lon="12.594931976281273"><ele>28.0</ele><time>2026-04-18T08:31:26Z</time></trkpt><trkpt lat="42.06809480878568" lon="12.595020417535572"><ele>28.0</ele><time>2026-04-18T08:31:27Z</time></trkpt><trkpt lat="42.06819770110375" lon="12.595137105765494"><ele>28.0</ele><time>2026-04-18T08:31:28Z</time></trkpt><trkpt lat="42.0683031051212" lon="12.595245852038959"><ele>27.5</ele><time>2026-04-18T08:31:29Z</time></trkpt><trkpt lat="42.068414932203474" lon="12.59535153041423"><ele>27.0</ele><time>2026-04-18T08:31:30Z</time></trkpt><trkpt lat="42.06850068210378" lon="12.595469718802914"><ele>26.5</ele><time>2026-04-18T08:31:31Z</time></trkpt><trkpt lat="42.06857688877285" lon="12.595589135426312"><ele>26.0</ele><time>2026-04-18T08:31:32Z</time></trkpt><trkpt lat="42.06864341689703" lon="12.595740498505053"><ele>25.999999999999996</ele><time>2026-04-18T08:31:33Z</time></trkpt><trkpt lat="42.06869698963007" lon="12.595848542796716"><ele>26.0</ele><time>2026-04-18T08:31:34Z</time></trkpt><trkpt lat="42.06874999574795" lon="12.59593147046806"><ele>26.0</ele><time>2026-04-18T08:31:35Z</time></trkpt><trkpt lat="42.068780160422556" lon="12.596006805913143"><ele>26.0</ele><time>2026-04-18T08:31:36Z</time></trkpt><trkpt lat="42.0688494172813" lon="12.59614885715721"><ele>25.999999999999996</ele><time>2026-04-18T08:31:38Z</time></trkpt><trkpt lat="42.068875455537025" lon="12.596227841801669"><ele>26.0</ele><time>2026-04-18T08:31:39Z</time></trkpt><trkpt lat="42.06891008709704" lon="12.596313710838265"><ele>26.0</ele><time>2026-04-18T08:31:40Z</time></trkpt><trkpt lat="42.06895170239126" lon="12.596403068474604"><ele>26.0</ele><time>2026-04-18T08:31:41Z</time></trkpt><trkpt lat="42.06900194105692" lon="12.596510957291404"><ele>26.0</ele><time>2026-04-18T08:31:42Z</time></trkpt><trkpt lat="42.06905106750122" lon="12.596656641380475"><ele>26.0</ele><time>2026-04-18T08:31:43Z</time></trkpt><trkpt lat="42.06911698249528" lon="12.596813187545512"><ele>26.0</ele><time>2026-04-18T08:31:44Z</time></trkpt><trkpt lat="42.069187928645924" lon="12.596978708568852"><ele>25.666666666666664</ele><time>2026-04-18T08:31:45Z</time></trkpt><trkpt lat="42.069273274592206" lon="12.597139537287019"><ele>25.333333333333336</ele><time>2026-04-18T08:31:46Z</time></trkpt><trkpt lat="42.0693537249467" lon="12.597312507022826"><ele>25.0</ele><time>2026-04-18T08:31:47Z</time></trkpt><trkpt lat="42.06944041623009" lon="12.59747974306354"><ele>25.0</ele><time>2026-04-18T08:31:48Z</time></trkpt><trkpt lat="42.069541046815395" lon="12.597646977235616"><ele>25.0</ele><time>2026-04-18T08:31:49Z</time></trkpt><trkpt lat="42.069652837562906" lon="12.597801756475684"><ele>25.0</ele><time>2026-04-18T08:31:50Z</time></trkpt><trkpt lat="42.06976786142555" lon="12.597945022473406"><ele>25.0</ele><time>2026-04-18T08:31:51Z</time></trkpt><trkpt lat="42.0698720348354" lon="12.598089214460932"><ele>25.0</ele><time>2026-04-18T08:31:52Z</time></trkpt><trkpt lat="42.06996949404204" lon="12.598205625795414"><ele>25.0</ele><time>2026-04-18T08:31:53Z</time></trkpt><trkpt lat="42.07005169341044" lon="12.598353053165955"><ele>25.0</ele><time>2026-04-18T08:31:54Z</time></trkpt><trkpt lat="42.070141188347016" lon="12.59847040980654"><ele>25.0</ele><time>2026-04-18T08:31:55Z</time></trkpt><trkpt lat="42.07024353044449" lon="12.598555183950477"><ele>25.0</ele><time>2026-04-18T08:31:56Z</time></trkpt><trkpt lat="42.07035742504332" lon="12.598653563220147"><ele>25.0</ele><time>2026-04-18T08:31:57Z</time></trkpt><trkpt lat="42.07046632835786" lon="12.598731157163936"><ele>25.0</ele><time>2026-04-18T08:31:58Z</time></trkpt><trkpt lat="42.07054576522156" lon="12.598806997762832"><ele>25.0</ele><time>2026-04-18T08:31:59Z</time></trkpt><trkpt lat="42.07058035160046" lon="12.598909916218716"><ele>25.0</ele><time>2026-04-18T08:32:00Z</time></trkpt><trkpt lat="42.07060735242423" lon="12.59904583148518"><ele>25.0</ele><time>2026-04-18T08:32:01Z</time></trkpt><trkpt lat="42.07066557404408" lon="12.599172009826415"><ele>25.0</ele><time>2026-04-18T08:32:02Z</time></trkpt><trkpt lat="42.07078713774648" lon="12.59928830512935"><ele>25.0</ele><time>2026-04-18T08:32:03Z</time></trkpt><trkpt lat="42.07089453120847" lon="12.599381110335992"><ele>25.0</ele><time>2026-04-18T08:32:04Z</time></trkpt><trkpt lat="42.070970427048586" lon="12.599480673750916"><ele>25.0</ele><time>2026-04-18T08:32:05Z</time></trkpt><trkpt lat="42.07102566857826" lon="12.599623692725672"><ele>25.0</ele><time>2026-04-18T08:32:06Z</time></trkpt><trkpt lat="42.07113844283957" lon="12.59977606028025"><ele>25.0</ele><time>2026-04-18T08:32:07Z</time></trkpt><trkpt lat="42.0712517270508" lon="12.599943188006213"><ele>25.0</ele><time>2026-04-18T08:32:08Z</time></trkpt><trkpt lat="42.07136485728628" lon="12.600097704357873"><ele>25.0</ele><time>2026-04-18T08:32:09Z</time></trkpt><trkpt lat="42.071483207966835" lon="12.600259065603563"><ele>25.0</ele><time>2026-04-18T08:32:10Z</time></trkpt><trkpt lat="42.071611459783" lon="12.600432697560123"><ele>25.333333333333336</ele><time>2026-04-18T08:32:11Z</time></trkpt><trkpt lat="42.071739292679254" lon="12.600606952524846"><ele>25.666666666666664</ele><time>2026-04-18T08:32:12Z</time></trkpt><trkpt lat="42.07185952124058" lon="12.600774142577176"><ele>26.0</ele><time>2026-04-18T08:32:13Z</time></trkpt><trkpt lat="42.071972554608664" lon="12.60092531155329"><ele>26.0</ele><time>2026-04-18T08:32:14Z</time></trkpt><trkpt lat="42.072069642032815" lon="12.601093998057687"><ele>26.0</ele><time>2026-04-18T08:32:15Z</time></trkpt><trkpt lat="42.07217293742905" lon="12.601247023868906"><ele>26.0</ele><time>2026-04-18T08:32:16Z</time></trkpt><trkpt lat="42.07227846074824" lon="12.601379188613494"><ele>26.0</ele><time>2026-04-18T08:32:17Z</time></trkpt><trkpt lat="42.072369088063034" lon="12.601530602421864"><ele>26.0</ele><time>2026-04-18T08:32:18Z</time></trkpt><trkpt lat="42.07246297867945" lon="12.601684791778466"><ele>26.0</ele><time>2026-04-18T08:32:19Z</time></trkpt><trkpt lat="42.07255665993092" lon="12.601829418855356"><ele>26.0</ele><time>2026-04-18T08:32:20Z</time></trkpt><trkpt lat="42.07265339809387" lon="12.601974094580273"><ele>25.333333333333332</ele><time>2026-04-18T08:32:21Z</time></trkpt><trkpt lat="42.07274960767135" lon="12.602124452672426"><ele>24.666666666666664</ele><time>2026-04-18T08:32:22Z</time></trkpt><trkpt lat="42.072846802902745" lon="12.602276694254414"><ele>24.0</ele><time>2026-04-18T08:32:23Z</time></trkpt><trkpt lat="42.072947862553704" lon="12.60243347100773"><ele>24.0</ele><time>2026-04-18T08:32:24Z</time></trkpt><trkpt lat="42.07305009593317" lon="12.602593974184938"><ele>24.0</ele><time>2026-04-18T08:32:25Z</time></trkpt><trkpt lat="42.07315646663425" lon="12.602757283051252"><ele>24.0</ele><time>2026-04-18T08:32:26Z</time></trkpt><trkpt lat="42.07326093187951" lon="12.602918805486294"><ele>25.0</ele><time>2026-04-18T08:32:27Z</time></trkpt><trkpt lat="42.07335929246821" lon="12.603072743258709"><ele>26.0</ele><time>2026-04-18T08:32:28Z</time></trkpt><trkpt lat="42.0734587646419" lon="12.603233886466043"><ele>27.0</ele><time>2026-04-18T08:32:29Z</time></trkpt><trkpt lat="42.073562862362316" lon="12.603392404900198"><ele>27.0</ele><time>2026-04-18T08:32:30Z</time></trkpt><trkpt lat="42.07366657657486" lon="12.603542279656555"><ele>27.0</ele><time>2026-04-18T08:32:31Z</time></trkpt><trkpt lat="42.073773503901634" lon="12.603680301010488"><ele>27.0</ele><time>2026-04-18T08:32:32Z</time></trkpt><trkpt lat="42.07390250775446" lon="12.603803324099676"><ele>27.0</ele><time>2026-04-18T08:32:33Z</time></trkpt><trkpt lat="42.07403690210018" lon="12.60390755481601"><ele>27.0</ele><time>2026-04-18T08:32:34Z</time></trkpt><trkpt lat="42.07416923828648" lon="12.604003853699714"><ele>27.0</ele><time>2026-04-18T08:32:35Z</time></trkpt><trkpt lat="42.074292242616885" lon="12.604089231846961"><ele>27.0</ele><time>2026-04-18T08:32:36Z</time></trkpt><trkpt lat="42.07441894034065" lon="12.604175071972458"><ele>26.5</ele><time>2026-04-18T08:32:37Z</time></trkpt><trkpt lat="42.07453585159087" lon="12.60424997394766"><ele>26.0</ele><time>2026-04-18T08:32:38Z</time></trkpt><trkpt lat="42.0746218341243" lon="12.604304443017979"><ele>25.5</ele><time>2026-04-18T08:32:39Z</time></trkpt><trkpt lat="42.07472766925228" lon="12.604365874867081"><ele>25.0</ele><time>2026-04-18T08:32:40Z</time></trkpt><trkpt lat="42.0748631020142" lon="12.604440106395135"><ele>25.0</ele><time>2026-04-18T08:32:41Z</time></trkpt><trkpt lat="42.07501327944745" lon="12.604528268488213"><ele>25.0</ele><time>2026-04-18T08:32:42Z</time></trkpt><trkpt lat="42.075156101058695" lon="12.604624598924831"><ele>25.0</ele><time>2026-04-18T08:32:43Z</time></trkpt><trkpt lat="42.07530074780434" lon="12.60471744331537"><ele>25.0</ele><time>2026-04-18T08:32:44Z</time></trkpt><trkpt lat="42.075447166191225" lon="12.604815826579427"><ele>25.0</ele><time>2026-04-18T08:32:45Z</time></trkpt><trkpt lat="42.07560131339987" lon="12.604915003840992"><ele>25.0</ele><time>2026-04-18T08:32:46Z</time></trkpt><trkpt lat="42.075746874874895" lon="12.60500413866149"><ele>25.666666666666668</ele><time>2026-04-18T08:32:47Z</time></trkpt><trkpt lat="42.07589796635768" lon="12.605094051842118"><ele>26.333333333333336</ele><time>2026-04-18T08:32:48Z</time></trkpt><trkpt lat="42.076026076696" lon="12.605170168781662"><ele>27.0</ele><time>2026-04-18T08:32:49Z</time></trkpt><trkpt lat="42.07616896964239" lon="12.605244144220848"><ele>27.0</ele><time>2026-04-18T08:32:50Z</time></trkpt><trkpt lat="42.076322081520175" lon="12.605305674047942"><ele>27.0</ele><time>2026-04-18T08:32:51Z</time></trkpt><trkpt lat="42.07648295502897" lon="12.605365556516858"><ele>27.0</ele><time>2026-04-18T08:32:52Z</time></trkpt><trkpt lat="42.07663400953505" lon="12.60543262981915"><ele>28.0</ele><time>2026-04-18T08:32:53Z</time></trkpt><trkpt lat="42.0767882186177" lon="12.605501995548366"><ele>29.0</ele><time>2026-04-18T08:32:54Z</time></trkpt><trkpt lat="42.07694381849214" lon="12.60557018728075"><ele>30.0</ele><time>2026-04-18T08:32:55Z</time></trkpt><trkpt lat="42.07709724620402" lon="12.605634019602991"><ele>30.0</ele><time>2026-04-18T08:32:56Z</time></trkpt><trkpt lat="42.07725157484408" lon="12.605700003896331"><ele>30.0</ele><time>2026-04-18T08:32:57Z</time></trkpt><trkpt lat="42.07740857700303" lon="12.605772224304863"><ele>30.0</ele><time>2026-04-18T08:32:58Z</time></trkpt><trkpt lat="42.07756884903589" lon="12.605833406883189"><ele>29.666666666666664</ele><time>2026-04-18T08:32:59Z</time></trkpt><trkpt lat="42.07773055014602" lon="12.605902379128345"><ele>29.333333333333332</ele><time>2026-04-18T08:33:00Z</time></trkpt><trkpt lat="42.07788886174359" lon="12.605967242664644"><ele>29.0</ele><time>2026-04-18T08:33:01Z</time></trkpt><trkpt lat="42.07804193617155" lon="12.606033903918354"><ele>29.0</ele><time>2026-04-18T08:33:02Z</time></trkpt><trkpt lat="42.07818601132301" lon="12.606101043788188"><ele>29.0</ele><time>2026-04-18T08:33:03Z</time></trkpt><trkpt lat="42.0783296712267" lon="12.60616227284396"><ele>29.0</ele><time>2026-04-18T08:33:04Z</time></trkpt><trkpt lat="42.07848061573352" lon="12.606227595703693"><ele>29.666666666666664</ele><time>2026-04-18T08:33:05Z</time></trkpt><trkpt lat="42.07863374065406" lon="12.606287765061253"><ele>30.333333333333336</ele><time>2026-04-18T08:33:06Z</time></trkpt><trkpt lat="42.07878816965656" lon="12.606354814624636"><ele>31.0</ele><time>2026-04-18T08:33:07Z</time></trkpt><trkpt lat="42.078945265875" lon="12.606423262493404"><ele>31.0</ele><time>2026-04-18T08:33:08Z</time></trkpt><trkpt lat="42.079098610172586" lon="12.606489394972296"><ele>31.0</ele><time>2026-04-18T08:33:09Z</time></trkpt><trkpt lat="42.07925516772787" lon="12.606551025857943"><ele>31.0</ele><time>2026-04-18T08:33:10Z</time></trkpt><trkpt lat="42.07941939353679" lon="12.606609340803407"><ele>30.0</ele><time>2026-04-18T08:33:11Z</time></trkpt><trkpt lat="42.07957900365036" lon="12.60666073735103"><ele>29.0</ele><time>2026-04-18T08:33:12Z</time></trkpt><trkpt lat="42.079739177715176" lon="12.606712788848991"><ele>28.0</ele><time>2026-04-18T08:33:13Z</time></trkpt><trkpt lat="42.07989674327605" lon="12.606760564960558"><ele>28.666666666666668</ele><time>2026-04-18T08:33:14Z</time></trkpt><trkpt lat="42.08005495761921" lon="12.606805876943548"><ele>29.333333333333336</ele><time>2026-04-18T08:33:15Z</time></trkpt><trkpt lat="42.08020874780245" lon="12.60684940201075"><ele>30.0</ele><time>2026-04-18T08:33:16Z</time></trkpt><trkpt lat="42.080361758422185" lon="12.606889953355424"><ele>30.0</ele><time>2026-04-18T08:33:17Z</time></trkpt><trkpt lat="42.08050951606029" lon="12.606930511833305"><ele>30.0</ele><time>2026-04-18T08:33:18Z</time></trkpt><trkpt lat="42.08065737308744" lon="12.606978188784836"><ele>30.0</ele><time>2026-04-18T08:33:19Z</time></trkpt><trkpt lat="42.080805674092474" lon="12.607044110371906"><ele>29.666666666666664</ele><time>2026-04-18T08:33:20Z</time></trkpt><trkpt lat="42.08095514567174" lon="12.607110014658511"><ele>29.333333333333332</ele><time>2026-04-18T08:33:21Z</time></trkpt><trkpt lat="42.08109977472592" lon="12.607173737741084"><ele>29.0</ele><time>2026-04-18T08:33:22Z</time></trkpt><trkpt lat="42.08124441911272" lon="12.607237837036106"><ele>29.0</ele><time>2026-04-18T08:33:23Z</time></trkpt><trkpt lat="42.08137599526313" lon="12.60730218428681"><ele>29.0</ele><time>2026-04-18T08:33:24Z</time></trkpt><trkpt lat="42.08150152344681" lon="12.607364521816846"><ele>29.0</ele><time>2026-04-18T08:33:25Z</time></trkpt><trkpt lat="42.081638091944626" lon="12.607431354395432"><ele>29.0</ele><time>2026-04-18T08:33:26Z</time></trkpt><trkpt lat="42.081778924068736" lon="12.607493359889675"><ele>29.25</ele><time>2026-04-18T08:33:27Z</time></trkpt><trkpt lat="42.081916238661584" lon="12.60755509017414"><ele>29.5</ele><time>2026-04-18T08:33:28Z</time></trkpt><trkpt lat="42.08204665134132" lon="12.60761121213612"><ele>29.75</ele><time>2026-04-18T08:33:29Z</time></trkpt><trkpt lat="42.082185867253955" lon="12.607674127560728"><ele>30.0</ele><time>2026-04-18T08:33:30Z</time></trkpt><trkpt lat="42.0823394181268" lon="12.607742021128509"><ele>30.333333333333336</ele><time>2026-04-18T08:33:31Z</time></trkpt><trkpt lat="42.08249692793947" lon="12.607817158860538"><ele>30.666666666666668</ele><time>2026-04-18T08:33:32Z</time></trkpt><trkpt lat="42.08266608737492" lon="12.607902641517935"><ele>31.0</ele><time>2026-04-18T08:33:33Z</time></trkpt><trkpt lat="42.08282684515122" lon="12.607990904371567"><ele>31.0</ele><time>2026-04-18T08:33:34Z</time></trkpt><trkpt lat="42.08299193287088" lon="12.608073440833659"><ele>31.0</ele><time>2026-04-18T08:33:35Z</time></trkpt><trkpt lat="42.08314485712833" lon="12.60815428179908"><ele>31.0</ele><time>2026-04-18T08:33:36Z</time></trkpt><trkpt lat="42.08330432821997" lon="12.608232932017032"><ele>29.333333333333336</ele><time>2026-04-18T08:33:37Z</time></trkpt><trkpt lat="42.083468080421284" lon="12.60831043607207"><ele>27.666666666666664</ele><time>2026-04-18T08:33:38Z</time></trkpt><trkpt lat="42.083637104856294" lon="12.608372431153223"><ele>26.0</ele><time>2026-04-18T08:33:39Z</time></trkpt><trkpt lat="42.08381874876576" lon="12.608391201674328"><ele>26.0</ele><time>2026-04-18T08:33:40Z</time></trkpt><trkpt lat="42.083997548760244" lon="12.608368000091662"><ele>26.0</ele><time>2026-04-18T08:33:41Z</time></trkpt><trkpt lat="42.084170701625986" lon="12.6083158007516"><ele>26.0</ele><time>2026-04-18T08:33:42Z</time></trkpt><trkpt lat="42.084338640795224" lon="12.608253646590882"><ele>25.666666666666664</ele><time>2026-04-18T08:33:43Z</time></trkpt><trkpt lat="42.084504405252424" lon="12.608190798465033"><ele>25.333333333333336</ele><time>2026-04-18T08:33:44Z</time></trkpt><trkpt lat="42.084680740618225" lon="12.608127036376054"><ele>25.0</ele><time>2026-04-18T08:33:45Z</time></trkpt><trkpt lat="42.08485435781131" lon="12.608065865322272"><ele>24.666666666666668</ele><time>2026-04-18T08:33:46Z</time></trkpt><trkpt lat="42.08503148433206" lon="12.608002202303002"><ele>24.333333333333336</ele><time>2026-04-18T08:33:47Z</time></trkpt><trkpt lat="42.085195975283376" lon="12.607944450595179"><ele>24.0</ele><time>2026-04-18T08:33:48Z</time></trkpt><trkpt lat="42.08534890363298" lon="12.607889793979409"><ele>24.0</ele><time>2026-04-18T08:33:49Z</time></trkpt><trkpt lat="42.08549554970848" lon="12.607834624271556"><ele>24.0</ele><time>2026-04-18T08:33:50Z</time></trkpt><trkpt lat="42.08563701567304" lon="12.607790522091902"><ele>24.0</ele><time>2026-04-18T08:33:51Z</time></trkpt><trkpt lat="42.085779064095725" lon="12.607750831709591"><ele>24.0</ele><time>2026-04-18T08:33:52Z</time></trkpt><trkpt lat="42.08592088242936" lon="12.607707686160953"><ele>23.75</ele><time>2026-04-18T08:33:53Z</time></trkpt><trkpt lat="42.086056534117446" lon="12.607666691064061"><ele>23.5</ele><time>2026-04-18T08:33:54Z</time></trkpt><trkpt lat="42.086185484539776" lon="12.607630626178201"><ele>23.25</ele><time>2026-04-18T08:33:55Z</time></trkpt><trkpt lat="42.08631397781584" lon="12.607589936469093"><ele>23.0</ele><time>2026-04-18T08:33:56Z</time></trkpt><trkpt lat="42.08643857965521" lon="12.607546822267576"><ele>23.0</ele><time>2026-04-18T08:33:57Z</time></trkpt><trkpt lat="42.086555061136764" lon="12.607509729351223"><ele>23.0</ele><time>2026-04-18T08:33:58Z</time></trkpt><trkpt lat="42.08666769195029" lon="12.607473372949313"><ele>23.0</ele><time>2026-04-18T08:33:59Z</time></trkpt><trkpt lat="42.08676703289806" lon="12.607450664913753"><ele>23.0</ele><time>2026-04-18T08:34:00Z</time></trkpt><trkpt lat="42.08687496378441" lon="12.607445902113373"><ele>23.0</ele><time>2026-04-18T08:34:01Z</time></trkpt><trkpt lat="42.08699255057071" lon="12.607475228149239"><ele>23.5</ele><time>2026-04-18T08:34:02Z</time></trkpt><trkpt lat="42.087101721313246" lon="12.607535939292497"><ele>24.0</ele><time>2026-04-18T08:34:03Z</time></trkpt><trkpt lat="42.087214914581686" lon="12.607623194834904"><ele>24.5</ele><time>2026-04-18T08:34:04Z</time></trkpt><trkpt lat="42.08732680540893" lon="12.607742210385036"><ele>25.0</ele><time>2026-04-18T08:34:05Z</time></trkpt><trkpt lat="42.08743317445277" lon="12.60786164443017"><ele>25.0</ele><time>2026-04-18T08:34:06Z</time></trkpt><trkpt lat="42.08753678755752" lon="12.607971949092212"><ele>25.0</ele><time>2026-04-18T08:34:07Z</time></trkpt><trkpt lat="42.08764941105398" lon="12.60808015912179"><ele>25.0</ele><time>2026-04-18T08:34:08Z</time></trkpt><trkpt lat="42.0877775402871" lon="12.608195611061992"><ele>25.0</ele><time>2026-04-18T08:34:09Z</time></trkpt><trkpt lat="42.087909529572606" lon="12.608331277692729"><ele>25.0</ele><time>2026-04-18T08:34:10Z</time></trkpt><trkpt lat="42.088049413680096" lon="12.608473775539522"><ele>25.0</ele><time>2026-04-18T08:34:11Z</time></trkpt><trkpt lat="42.088199202491694" lon="12.608602040357882"><ele>25.0</ele><time>2026-04-18T08:34:12Z</time></trkpt><trkpt lat="42.08832891208255" lon="12.608704470860538"><ele>25.25</ele><time>2026-04-18T08:34:13Z</time></trkpt><trkpt lat="42.08845564972912" lon="12.608773791301417"><ele>25.5</ele><time>2026-04-18T08:34:14Z</time></trkpt><trkpt lat="42.08857994501281" lon="12.608821653212788"><ele>25.75</ele><time>2026-04-18T08:34:15Z</time></trkpt><trkpt lat="42.08870843437268" lon="12.608869322732305"><ele>26.0</ele><time>2026-04-18T08:34:16Z</time></trkpt><trkpt lat="42.08884003212672" lon="12.608926475071941"><ele>26.0</ele><time>2026-04-18T08:34:17Z</time></trkpt><trkpt lat="42.088993513515845" lon="12.608981854462028"><ele>26.0</ele><time>2026-04-18T08:34:18Z</time></trkpt><trkpt lat="42.08918147215" lon="12.609038528253885"><ele>26.0</ele><time>2026-04-18T08:34:19Z</time></trkpt><trkpt lat="42.089389488686955" lon="12.609101701666491"><ele>26.0</ele><time>2026-04-18T08:34:20Z</time></trkpt><trkpt lat="42.08960976508797" lon="12.609183888319915"><ele>26.0</ele><time>2026-04-18T08:34:21Z</time></trkpt><trkpt lat="42.08979770248897" lon="12.609263897764565"><ele>26.0</ele><time>2026-04-18T08:34:22Z</time></trkpt><trkpt lat="42.0899735147799" lon="12.609331316093847"><ele>25.333333333333332</ele><time>2026-04-18T08:34:23Z</time></trkpt><trkpt lat="42.090149335263675" lon="12.609390300419607"><ele>24.666666666666664</ele><time>2026-04-18T08:34:24Z</time></trkpt><trkpt lat="42.09032370359366" lon="12.60944470600132"><ele>24.0</ele><time>2026-04-18T08:34:25Z</time></trkpt><trkpt lat="42.090503646863134" lon="12.60948604381877"><ele>24.0</ele><time>2026-04-18T08:34:26Z</time></trkpt><trkpt lat="42.09069357200293" lon="12.609500480070967"><ele>24.0</ele><time>2026-04-18T08:34:27Z</time></trkpt><trkpt lat="42.090878267893906" lon="12.609483813749758"><ele>24.0</ele><time>2026-04-18T08:34:28Z</time></trkpt><trkpt lat="42.09104444589461" lon="12.609432810930675"><ele>24.0</ele><time>2026-04-18T08:34:29Z</time></trkpt><trkpt lat="42.091210773097316" lon="12.60936461598868"><ele>24.0</ele><time>2026-04-18T08:34:30Z</time></trkpt><trkpt lat="42.0913848853312" lon="12.609290452099069"><ele>24.0</ele><time>2026-04-18T08:34:31Z</time></trkpt><trkpt lat="42.091565362692535" lon="12.609224522800645"><ele>24.333333333333336</ele><time>2026-04-18T08:34:32Z</time></trkpt><trkpt lat="42.09174866392571" lon="12.60916992191966"><ele>24.666666666666668</ele><time>2026-04-18T08:34:33Z</time></trkpt><trkpt lat="42.09192867846816" lon="12.609131672924486"><ele>25.0</ele><time>2026-04-18T08:34:34Z</time></trkpt><trkpt lat="42.09210895225072" lon="12.609103706864339"><ele>25.0</ele><time>2026-04-18T08:34:35Z</time></trkpt><trkpt lat="42.09229236789731" lon="12.609088064794577"><ele>25.0</ele><time>2026-04-18T08:34:36Z</time></trkpt><trkpt lat="42.092472447702" lon="12.609076203465277"><ele>25.0</ele><time>2026-04-18T08:34:37Z</time></trkpt><trkpt lat="42.092654653936975" lon="12.609075785680455"><ele>25.333333333333336</ele><time>2026-04-18T08:34:38Z</time></trkpt><trkpt lat="42.09282911526963" lon="12.609106066305333"><ele>25.666666666666664</ele><time>2026-04-18T08:34:39Z</time></trkpt><trkpt lat="42.093002060815685" lon="12.609167533508822"><ele>26.0</ele><time>2026-04-18T08:34:40Z</time></trkpt><trkpt lat="42.093172604441165" lon="12.609242311660102"><ele>25.666666666666664</ele><time>2026-04-18T08:34:41Z</time></trkpt><trkpt lat="42.09333998649734" lon="12.60933294748647"><ele>25.333333333333336</ele><time>2026-04-18T08:34:42Z</time></trkpt><trkpt lat="42.09349842070058" lon="12.60942635425617"><ele>25.0</ele><time>2026-04-18T08:34:43Z</time></trkpt><trkpt lat="42.0936466288317" lon="12.60954833552548"><ele>24.666666666666668</ele><time>2026-04-18T08:34:44Z</time></trkpt><trkpt lat="42.093793150473864" lon="12.609695745969551"><ele>24.333333333333336</ele><time>2026-04-18T08:34:45Z</time></trkpt><trkpt lat="42.09394579749638" lon="12.609868716942032"><ele>24.0</ele><time>2026-04-18T08:34:46Z</time></trkpt><trkpt lat="42.09408862564961" lon="12.610046154279317"><ele>24.0</ele><time>2026-04-18T08:34:47Z</time></trkpt><trkpt lat="42.09421617945144" lon="12.610206154160236"><ele>24.0</ele><time>2026-04-18T08:34:48Z</time></trkpt><trkpt lat="42.09434609075397" lon="12.610370014444054"><ele>24.0</ele><time>2026-04-18T08:34:49Z</time></trkpt><trkpt lat="42.094482894311504" lon="12.610531792231304"><ele>23.666666666666668</ele><time>2026-04-18T08:34:50Z</time></trkpt><trkpt lat="42.0946277238986" lon="12.610692617194776"><ele>23.333333333333336</ele><time>2026-04-18T08:34:51Z</time></trkpt><trkpt lat="42.09477018803507" lon="12.610850084211837"><ele>23.0</ele><time>2026-04-18T08:34:52Z</time></trkpt><trkpt lat="42.094912636999936" lon="12.61100072512702"><ele>23.0</ele><time>2026-04-18T08:34:53Z</time></trkpt><trkpt lat="42.0950639338372" lon="12.611146886139853"><ele>23.0</ele><time>2026-04-18T08:34:54Z</time></trkpt><trkpt lat="42.09522803347223" lon="12.611283760575201"><ele>23.0</ele><time>2026-04-18T08:34:55Z</time></trkpt><trkpt lat="42.09539442776744" lon="12.611409740707314"><ele>23.0</ele><time>2026-04-18T08:34:56Z</time></trkpt><trkpt lat="42.09555503386332" lon="12.611544672259113"><ele>23.0</ele><time>2026-04-18T08:34:57Z</time></trkpt><trkpt lat="42.0957133846004" lon="12.611674635834778"><ele>23.0</ele><time>2026-04-18T08:34:58Z</time></trkpt><trkpt lat="42.095873770030586" lon="12.611801873499868"><ele>23.333333333333336</ele><time>2026-04-18T08:34:59Z</time></trkpt><trkpt lat="42.09603009471975" lon="12.611923563134912"><ele>23.666666666666668</ele><time>2026-04-18T08:35:00Z</time></trkpt><trkpt lat="42.096189799891896" lon="12.612047127988188"><ele>24.0</ele><time>2026-04-18T08:35:01Z</time></trkpt><trkpt lat="42.09635463795787" lon="12.612168992736754"><ele>24.0</ele><time>2026-04-18T08:35:02Z</time></trkpt><trkpt lat="42.09651664668458" lon="12.612299802034117"><ele>24.0</ele><time>2026-04-18T08:35:03Z</time></trkpt><trkpt lat="42.096676088444504" lon="12.612429308093926"><ele>24.0</ele><time>2026-04-18T08:35:04Z</time></trkpt><trkpt lat="42.09683134510843" lon="12.612553896986467"><ele>24.0</ele><time>2026-04-18T08:35:05Z</time></trkpt><trkpt lat="42.0969789342925" lon="12.612673733443174"><ele>24.0</ele><time>2026-04-18T08:35:06Z</time></trkpt><trkpt lat="42.09712618571009" lon="12.612793592902566"><ele>24.0</ele><time>2026-04-18T08:35:07Z</time></trkpt><trkpt lat="42.09726951105998" lon="12.612905049875122"><ele>24.0</ele><time>2026-04-18T08:35:08Z</time></trkpt><trkpt lat="42.097413371924276" lon="12.613021416431925"><ele>24.0</ele><time>2026-04-18T08:35:09Z</time></trkpt><trkpt lat="42.09755101083011" lon="12.613140360760347"><ele>24.0</ele><time>2026-04-18T08:35:10Z</time></trkpt><trkpt lat="42.0976880223079" lon="12.613245540150155"><ele>24.0</ele><time>2026-04-18T08:35:11Z</time></trkpt><trkpt lat="42.09782904461235" lon="12.613356902511589"><ele>24.0</ele><time>2026-04-18T08:35:12Z</time></trkpt><trkpt lat="42.09797219828553" lon="12.613476954639047"><ele>24.0</ele><time>2026-04-18T08:35:13Z</time></trkpt><trkpt lat="42.09811622421055" lon="12.613613811741278"><ele>24.333333333333336</ele><time>2026-04-18T08:35:14Z</time></trkpt><trkpt lat="42.098263579409995" lon="12.613769406262291"><ele>24.666666666666668</ele><time>2026-04-18T08:35:15Z</time></trkpt><trkpt lat="42.098407090580636" lon="12.613933964187835"><ele>25.0</ele><time>2026-04-18T08:35:16Z</time></trkpt><trkpt lat="42.098545953765225" lon="12.614107924678754"><ele>25.0</ele><time>2026-04-18T08:35:17Z</time></trkpt><trkpt lat="42.09868380186942" lon="12.614291235818811"><ele>25.0</ele><time>2026-04-18T08:35:18Z</time></trkpt><trkpt lat="42.09881875578491" lon="12.614470896477735"><ele>25.0</ele><time>2026-04-18T08:35:19Z</time></trkpt><trkpt lat="42.09895639310707" lon="12.614648134068553"><ele>25.333333333333336</ele><time>2026-04-18T08:35:20Z</time></trkpt><trkpt lat="42.09906352268898" lon="12.614795819831928"><ele>25.666666666666664</ele><time>2026-04-18T08:35:21Z</time></trkpt><trkpt lat="42.099211742840275" lon="12.614992159275682"><ele>26.0</ele><time>2026-04-18T08:35:22Z</time></trkpt><trkpt lat="42.09934221131413" lon="12.615164210513711"><ele>26.333333333333332</ele><time>2026-04-18T08:35:23Z</time></trkpt><trkpt lat="42.099479311196355" lon="12.615344773563034"><ele>26.666666666666664</ele><time>2026-04-18T08:35:24Z</time></trkpt><trkpt lat="42.099608850960145" lon="12.615514498923524"><ele>27.0</ele><time>2026-04-18T08:35:25Z</time></trkpt><trkpt lat="42.099743303937544" lon="12.615689106276307"><ele>27.0</ele><time>2026-04-18T08:35:26Z</time></trkpt><trkpt lat="42.09989817521772" lon="12.615866166967267"><ele>27.0</ele><time>2026-04-18T08:35:27Z</time></trkpt><trkpt lat="42.100020401067184" lon="12.616047045496957"><ele>27.0</ele><time>2026-04-18T08:35:28Z</time></trkpt><trkpt lat="42.10015283951669" lon="12.616214392493546"><ele>26.0</ele><time>2026-04-18T08:35:29Z</time></trkpt><trkpt lat="42.10028748177082" lon="12.616383042198262"><ele>25.0</ele><time>2026-04-18T08:35:30Z</time></trkpt><trkpt lat="42.10039679645174" lon="12.616535481412454"><ele>24.0</ele><time>2026-04-18T08:35:31Z</time></trkpt><trkpt lat="42.1005284207198" lon="12.616718261516967"><ele>24.0</ele><time>2026-04-18T08:35:32Z</time></trkpt><trkpt lat="42.10066117252968" lon="12.616925915338303"><ele>24.0</ele><time>2026-04-18T08:35:33Z</time></trkpt><trkpt lat="42.10076871025781" lon="12.617144402450368"><ele>24.0</ele><time>2026-04-18T08:35:34Z</time></trkpt><trkpt lat="42.100875567361975" lon="12.617328853770555"><ele>24.0</ele><time>2026-04-18T08:35:35Z</time></trkpt><trkpt lat="42.100958486913306" lon="12.61753207491315"><ele>24.0</ele><time>2026-04-18T08:35:36Z</time></trkpt><trkpt lat="42.10104657332293" lon="12.617737619306453"><ele>24.0</ele><time>2026-04-18T08:35:37Z</time></trkpt><trkpt lat="42.10114373682243" lon="12.617953807977324"><ele>23.666666666666668</ele><time>2026-04-18T08:35:38Z</time></trkpt><trkpt lat="42.10124552315591" lon="12.618170555544888"><ele>23.333333333333336</ele><time>2026-04-18T08:35:39Z</time></trkpt><trkpt lat="42.10134477254969" lon="12.618389110635047"><ele>23.0</ele><time>2026-04-18T08:35:40Z</time></trkpt><trkpt lat="42.10144127223511" lon="12.618607072738309"><ele>23.333333333333336</ele><time>2026-04-18T08:35:41Z</time></trkpt><trkpt lat="42.10152984594438" lon="12.618805578286803"><ele>23.666666666666668</ele><time>2026-04-18T08:35:42Z</time></trkpt><trkpt lat="42.10162320778991" lon="12.619012520468798"><ele>24.0</ele><time>2026-04-18T08:35:43Z</time></trkpt><trkpt lat="42.101721420471755" lon="12.619227799708042"><ele>24.333333333333336</ele><time>2026-04-18T08:35:44Z</time></trkpt><trkpt lat="42.10181898576046" lon="12.619439377530965"><ele>24.666666666666668</ele><time>2026-04-18T08:35:45Z</time></trkpt><trkpt lat="42.101911117476355" lon="12.619650019494285"><ele>25.0</ele><time>2026-04-18T08:35:46Z</time></trkpt><trkpt lat="42.10200327283994" lon="12.61986023894696"><ele>25.0</ele><time>2026-04-18T08:35:47Z</time></trkpt><trkpt lat="42.10209498243996" lon="12.620061411488415"><ele>25.0</ele><time>2026-04-18T08:35:48Z</time></trkpt><trkpt lat="42.10218815651232" lon="12.620268903252123"><ele>25.0</ele><time>2026-04-18T08:35:49Z</time></trkpt><trkpt lat="42.10228463922753" lon="12.620480413121646"><ele>25.0</ele><time>2026-04-18T08:35:50Z</time></trkpt><trkpt lat="42.10238560236079" lon="12.620691447215032"><ele>25.0</ele><time>2026-04-18T08:35:51Z</time></trkpt><trkpt lat="42.102478307250074" lon="12.620901467122593"><ele>25.0</ele><time>2026-04-18T08:35:52Z</time></trkpt><trkpt lat="42.10257894078856" lon="12.62111570672424"><ele>25.333333333333336</ele><time>2026-04-18T08:35:53Z</time></trkpt><trkpt lat="42.10267647375401" lon="12.621325886174773"><ele>25.666666666666664</ele><time>2026-04-18T08:35:54Z</time></trkpt><trkpt lat="42.10277265300863" lon="12.621538964770421"><ele>26.0</ele><time>2026-04-18T08:35:55Z</time></trkpt><trkpt lat="42.102876135878034" lon="12.62173124656102"><ele>26.0</ele><time>2026-04-18T08:35:56Z</time></trkpt><trkpt lat="42.10298719261575" lon="12.621971695743966"><ele>26.0</ele><time>2026-04-18T08:35:57Z</time></trkpt><trkpt lat="42.10309247293686" lon="12.622145556636791"><ele>26.0</ele><time>2026-04-18T08:35:58Z</time></trkpt><trkpt lat="42.10320145786575" lon="12.622335593977635"><ele>25.333333333333332</ele><time>2026-04-18T08:35:59Z</time></trkpt><trkpt lat="42.1033133185647" lon="12.622535465447301"><ele>24.666666666666664</ele><time>2026-04-18T08:36:00Z</time></trkpt><trkpt lat="42.103431618531786" lon="12.622744784947926"><ele>24.0</ele><time>2026-04-18T08:36:01Z</time></trkpt><trkpt lat="42.10353972648025" lon="12.622949522492025"><ele>23.666666666666668</ele><time>2026-04-18T08:36:02Z</time></trkpt><trkpt lat="42.10366370954693" lon="12.62315024897276"><ele>23.333333333333336</ele><time>2026-04-18T08:36:03Z</time></trkpt><trkpt lat="42.10376688855189" lon="12.623342755575504"><ele>23.0</ele><time>2026-04-18T08:36:04Z</time></trkpt><trkpt lat="42.10387438677717" lon="12.623538898944162"><ele>23.0</ele><time>2026-04-18T08:36:05Z</time></trkpt><trkpt lat="42.103981701039665" lon="12.623736205909681"><ele>23.0</ele><time>2026-04-18T08:36:06Z</time></trkpt><trkpt lat="42.10408645203827" lon="12.623934132396055"><ele>23.0</ele><time>2026-04-18T08:36:07Z</time></trkpt><trkpt lat="42.1041894814128" lon="12.624137035448117"><ele>23.333333333333336</ele><time>2026-04-18T08:36:08Z</time></trkpt><trkpt lat="42.10429025576978" lon="12.62434586037184"><ele>23.666666666666668</ele><time>2026-04-18T08:36:09Z</time></trkpt><trkpt lat="42.1043841556126" lon="12.624548308933832"><ele>24.0</ele><time>2026-04-18T08:36:10Z</time></trkpt><trkpt lat="42.10446938968483" lon="12.624743572848766"><ele>24.0</ele><time>2026-04-18T08:36:11Z</time></trkpt><trkpt lat="42.10454970468127" lon="12.624938787373422"><ele>24.0</ele><time>2026-04-18T08:36:12Z</time></trkpt><trkpt lat="42.104623784325135" lon="12.625132274826989"><ele>24.0</ele><time>2026-04-18T08:36:13Z</time></trkpt><trkpt lat="42.10469241860072" lon="12.62530954150403"><ele>24.0</ele><time>2026-04-18T08:36:14Z</time></trkpt><trkpt lat="42.10475152173774" lon="12.625477467184451"><ele>24.0</ele><time>2026-04-18T08:36:15Z</time></trkpt><trkpt lat="42.104809975240876" lon="12.625638851339907"><ele>24.0</ele><time>2026-04-18T08:36:16Z</time></trkpt><trkpt lat="42.10486684531112" lon="12.625794761911353"><ele>24.0</ele><time>2026-04-18T08:36:17Z</time></trkpt><trkpt lat="42.1049156707662" lon="12.625936836268258"><ele>24.2</ele><time>2026-04-18T08:36:18Z</time></trkpt><trkpt lat="42.10496199205579" lon="12.626067516716281"><ele>24.4</ele><time>2026-04-18T08:36:19Z</time></trkpt><trkpt lat="42.10500627293432" lon="12.626201180309234"><ele>24.6</ele><time>2026-04-18T08:36:20Z</time></trkpt><trkpt lat="42.1050451401819" lon="12.62633131334004"><ele>24.8</ele><time>2026-04-18T08:36:21Z</time></trkpt><trkpt lat="42.10508047859961" lon="12.626453120863337"><ele>25.0</ele><time>2026-04-18T08:36:22Z</time></trkpt><trkpt lat="42.10510890605568" lon="12.626562089680455"><ele>25.000000000000004</ele><time>2026-04-18T08:36:23Z</time></trkpt><trkpt lat="42.10512105693789" lon="12.626672296355961"><ele>25.0</ele><time>2026-04-18T08:36:24Z</time></trkpt><trkpt lat="42.105116241361245" lon="12.626773712356774"><ele>25.0</ele><time>2026-04-18T08:36:25Z</time></trkpt><trkpt lat="42.10509896746398" lon="12.626864092498868"><ele>25.0</ele><time>2026-04-18T08:36:26Z</time></trkpt><trkpt lat="42.10505248190152" lon="12.627022473464363"><ele>25.000000000000004</ele><time>2026-04-18T08:36:28Z</time></trkpt><trkpt lat="42.10501644768499" lon="12.62710310948273"><ele>25.0</ele><time>2026-04-18T08:36:29Z</time></trkpt><trkpt lat="42.10499851609682" lon="12.627189341734864"><ele>24.833333333333336</ele><time>2026-04-18T08:36:30Z</time></trkpt><trkpt lat="42.10499137410079" lon="12.627273776855473"><ele>24.666666666666668</ele><time>2026-04-18T08:36:31Z</time></trkpt><trkpt lat="42.105055079694594" lon="12.627369435972346"><ele>24.5</ele><time>2026-04-18T08:36:32Z</time></trkpt><trkpt lat="42.1051116549725" lon="12.627417281655248"><ele>24.333333333333336</ele><time>2026-04-18T08:36:33Z</time></trkpt><trkpt lat="42.10517797899085" lon="12.627437441740206"><ele>24.166666666666668</ele><time>2026-04-18T08:36:34Z</time></trkpt><trkpt lat="42.10525930699888" lon="12.627442598641549"><ele>24.0</ele><time>2026-04-18T08:36:35Z</time></trkpt><trkpt lat="42.10534172274175" lon="12.627484536284143"><ele>24.0</ele><time>2026-04-18T08:36:36Z</time></trkpt><trkpt lat="42.10542393629301" lon="12.6275710398341"><ele>24.0</ele><time>2026-04-18T08:36:37Z</time></trkpt><trkpt lat="42.105491020125186" lon="12.627676817970519"><ele>24.0</ele><time>2026-04-18T08:36:38Z</time></trkpt><trkpt lat="42.10555915475136" lon="12.627797545910566"><ele>24.0</ele><time>2026-04-18T08:36:39Z</time></trkpt><trkpt lat="42.105631825474944" lon="12.62794485849936"><ele>24.0</ele><time>2026-04-18T08:36:40Z</time></trkpt><trkpt lat="42.10571640249843" lon="12.628126261624871"><ele>24.0</ele><time>2026-04-18T08:36:41Z</time></trkpt><trkpt lat="42.10579078743552" lon="12.628353378479607"><ele>24.0</ele><time>2026-04-18T08:36:42Z</time></trkpt><trkpt lat="42.1058808036234" lon="12.628600982535001"><ele>25.0</ele><time>2026-04-18T08:36:43Z</time></trkpt><trkpt lat="42.1059810884639" lon="12.628876478558597"><ele>26.0</ele><time>2026-04-18T08:36:44Z</time></trkpt><trkpt lat="42.106091465462015" lon="12.629176233116263"><ele>25.0</ele><time>2026-04-18T08:36:45Z</time></trkpt><trkpt lat="42.10621395913041" lon="12.629513953927468"><ele>24.0</ele><time>2026-04-18T08:36:46Z</time></trkpt><trkpt lat="42.10632553720661" lon="12.629817420618988"><ele>24.0</ele><time>2026-04-18T08:36:47Z</time></trkpt><trkpt lat="42.106425299378756" lon="12.630093726350546"><ele>24.0</ele><time>2026-04-18T08:36:48Z</time></trkpt><trkpt lat="42.10652919722109" lon="12.630317639490974"><ele>24.0</ele><time>2026-04-18T08:36:49Z</time></trkpt><trkpt lat="42.10661358059088" lon="12.630534425919592"><ele>24.333333333333336</ele><time>2026-04-18T08:36:50Z</time></trkpt><trkpt lat="42.1067187753384" lon="12.63071019984486"><ele>24.666666666666668</ele><time>2026-04-18T08:36:51Z</time></trkpt><trkpt lat="42.10683365959857" lon="12.630876996779705"><ele>25.0</ele><time>2026-04-18T08:36:52Z</time></trkpt><trkpt lat="42.10696123126501" lon="12.631013044755896"><ele>25.0</ele><time>2026-04-18T08:36:53Z</time></trkpt><trkpt lat="42.10706412712019" lon="12.631164051894737"><ele>25.0</ele><time>2026-04-18T08:36:54Z</time></trkpt><trkpt lat="42.107179498442406" lon="12.631279672147812"><ele>25.0</ele><time>2026-04-18T08:36:55Z</time></trkpt><trkpt lat="42.10727822721687" lon="12.631404255266427"><ele>25.0</ele><time>2026-04-18T08:36:56Z</time></trkpt><trkpt lat="42.10737363008338" lon="12.631525004475938"><ele>25.0</ele><time>2026-04-18T08:36:57Z</time></trkpt><trkpt lat="42.10747432415225" lon="12.631655717803955"><ele>25.0</ele><time>2026-04-18T08:36:58Z</time></trkpt><trkpt lat="42.107594554656366" lon="12.631799266546578"><ele>25.0</ele><time>2026-04-18T08:36:59Z</time></trkpt><trkpt lat="42.10773356365015" lon="12.63196790724431"><ele>25.0</ele><time>2026-04-18T08:37:00Z</time></trkpt><trkpt lat="42.10787878099234" lon="12.632181553325099"><ele>25.0</ele><time>2026-04-18T08:37:01Z</time></trkpt><trkpt lat="42.108036463154505" lon="12.632392504541508"><ele>25.0</ele><time>2026-04-18T08:37:02Z</time></trkpt><trkpt lat="42.108209947645605" lon="12.632605446360918"><ele>25.0</ele><time>2026-04-18T08:37:03Z</time></trkpt><trkpt lat="42.108364150195406" lon="12.632836663733185"><ele>25.0</ele><time>2026-04-18T08:37:04Z</time></trkpt><trkpt lat="42.10851001383625" lon="12.633038929067949"><ele>25.0</ele><time>2026-04-18T08:37:05Z</time></trkpt><trkpt lat="42.1086443319676" lon="12.633216446759079"><ele>25.0</ele><time>2026-04-18T08:37:06Z</time></trkpt><trkpt lat="42.10876926910684" lon="12.633386373117443"><ele>25.0</ele><time>2026-04-18T08:37:07Z</time></trkpt><trkpt lat="42.10889040550467" lon="12.633547670095878"><ele>25.0</ele><time>2026-04-18T08:37:08Z</time></trkpt><trkpt lat="42.10902235929859" lon="12.633691265631008"><ele>26.666666666666668</ele><time>2026-04-18T08:37:09Z</time></trkpt><trkpt lat="42.10917363486735" lon="12.633806860474422"><ele>28.333333333333336</ele><time>2026-04-18T08:37:10Z</time></trkpt><trkpt lat="42.109338334637016" lon="12.633873734894166"><ele>30.0</ele><time>2026-04-18T08:37:11Z</time></trkpt><trkpt lat="42.109505499411696" lon="12.633927494488805"><ele>30.0</ele><time>2026-04-18T08:37:12Z</time></trkpt><trkpt lat="42.109692421723764" lon="12.633967847813409"><ele>30.0</ele><time>2026-04-18T08:37:13Z</time></trkpt><trkpt lat="42.10991164845645" lon="12.634021733894867"><ele>30.0</ele><time>2026-04-18T08:37:14Z</time></trkpt><trkpt lat="42.11015395925297" lon="12.634105028086267"><ele>28.666666666666664</ele><time>2026-04-18T08:37:15Z</time></trkpt><trkpt lat="42.11038194855036" lon="12.6341705538515"><ele>27.333333333333332</ele><time>2026-04-18T08:37:16Z</time></trkpt><trkpt lat="42.110589072118245" lon="12.634217740917704"><ele>26.0</ele><time>2026-04-18T08:37:17Z</time></trkpt><trkpt lat="42.11079046614155" lon="12.63428519628736"><ele>25.666666666666664</ele><time>2026-04-18T08:37:18Z</time></trkpt><trkpt lat="42.110986498479754" lon="12.634342399739966"><ele>25.333333333333336</ele><time>2026-04-18T08:37:19Z</time></trkpt><trkpt lat="42.11117904158336" lon="12.634394222090318"><ele>25.0</ele><time>2026-04-18T08:37:20Z</time></trkpt><trkpt lat="42.11136610730703" lon="12.63444831187618"><ele>25.333333333333336</ele><time>2026-04-18T08:37:21Z</time></trkpt><trkpt lat="42.111545769195644" lon="12.634496112032641"><ele>25.666666666666664</ele><time>2026-04-18T08:37:22Z</time></trkpt><trkpt lat="42.11172033602904" lon="12.634512501658383"><ele>26.0</ele><time>2026-04-18T08:37:23Z</time></trkpt><trkpt lat="42.11190148180262" lon="12.634504445647972"><ele>26.0</ele><time>2026-04-18T08:37:24Z</time></trkpt><trkpt lat="42.11209156829841" lon="12.634483547174346"><ele>26.0</ele><time>2026-04-18T08:37:25Z</time></trkpt><trkpt lat="42.112274930238634" lon="12.63445766845729"><ele>26.0</ele><time>2026-04-18T08:37:26Z</time></trkpt><trkpt lat="42.11245829354526" lon="12.634438013115464"><ele>25.666666666666664</ele><time>2026-04-18T08:37:27Z</time></trkpt><trkpt lat="42.11264090090324" lon="12.634435563496124"><ele>25.333333333333336</ele><time>2026-04-18T08:37:28Z</time></trkpt><trkpt lat="42.11282440016662" lon="12.634448499401048"><ele>25.0</ele><time>2026-04-18T08:37:29Z</time></trkpt><trkpt lat="42.11301634843601" lon="12.634472027362197"><ele>25.0</ele><time>2026-04-18T08:37:30Z</time></trkpt><trkpt lat="42.11320322936853" lon="12.634497729412221"><ele>25.0</ele><time>2026-04-18T08:37:31Z</time></trkpt><trkpt lat="42.11338021899167" lon="12.634522541431965"><ele>25.0</ele><time>2026-04-18T08:37:32Z</time></trkpt><trkpt lat="42.113558451851716" lon="12.634544029278388"><ele>25.333333333333336</ele><time>2026-04-18T08:37:33Z</time></trkpt><trkpt lat="42.11373680083209" lon="12.634559741475368"><ele>25.666666666666664</ele><time>2026-04-18T08:37:34Z</time></trkpt><trkpt lat="42.11391632942949" lon="12.634572261020676"><ele>26.0</ele><time>2026-04-18T08:37:35Z</time></trkpt><trkpt lat="42.11410694186139" lon="12.634586822282941"><ele>25.333333333333332</ele><time>2026-04-18T08:37:36Z</time></trkpt><trkpt lat="42.114306946892185" lon="12.634603892017484"><ele>24.666666666666664</ele><time>2026-04-18T08:37:37Z</time></trkpt><trkpt lat="42.11452074015012" lon="12.634631913896552"><ele>24.0</ele><time>2026-04-18T08:37:38Z</time></trkpt><trkpt lat="42.11471621876317" lon="12.634665716620914"><ele>24.0</ele><time>2026-04-18T08:37:39Z</time></trkpt><trkpt lat="42.11488515954134" lon="12.634707004510949"><ele>24.0</ele><time>2026-04-18T08:37:40Z</time></trkpt><trkpt lat="42.1150489274716" lon="12.63474773528149"><ele>24.0</ele><time>2026-04-18T08:37:41Z</time></trkpt><trkpt lat="42.11521246722181" lon="12.634796891259562"><ele>24.0</ele><time>2026-04-18T08:37:42Z</time></trkpt><trkpt lat="42.11537449105832" lon="12.634846166597374"><ele>24.0</ele><time>2026-04-18T08:37:43Z</time></trkpt><trkpt lat="42.11552106955507" lon="12.634893413236572"><ele>24.0</ele><time>2026-04-18T08:37:44Z</time></trkpt><trkpt lat="42.11564958047447" lon="12.634930920799853"><ele>24.0</ele><time>2026-04-18T08:37:45Z</time></trkpt><trkpt lat="42.11576380603312" lon="12.634960132879781"><ele>25.25</ele><time>2026-04-18T08:37:46Z</time></trkpt><trkpt lat="42.11588088103003" lon="12.634999033877643"><ele>26.5</ele><time>2026-04-18T08:37:47Z</time></trkpt><trkpt lat="42.115998850519034" lon="12.635036115912317"><ele>27.75</ele><time>2026-04-18T08:37:48Z</time></trkpt><trkpt lat="42.116119635345186" lon="12.635074552337896"><ele>29.0</ele><time>2026-04-18T08:37:49Z</time></trkpt><trkpt lat="42.11624605268317" lon="12.635111055201994"><ele>29.0</ele><time>2026-04-18T08:37:50Z</time></trkpt><trkpt lat="42.11636658020932" lon="12.635150151065941"><ele>29.0</ele><time>2026-04-18T08:37:51Z</time></trkpt><trkpt lat="42.11649397953108" lon="12.635189417712807"><ele>29.0</ele><time>2026-04-18T08:37:52Z</time></trkpt><trkpt lat="42.116618902594176" lon="12.63522785310548"><ele>29.0</ele><time>2026-04-18T08:37:53Z</time></trkpt><trkpt lat="42.116743048602544" lon="12.635265920190411"><ele>28.75</ele><time>2026-04-18T08:37:54Z</time></trkpt><trkpt lat="42.11685475625453" lon="12.635297923228237"><ele>28.5</ele><time>2026-04-18T08:37:55Z</time></trkpt><trkpt lat="42.11696396922187" lon="12.635333687563937"><ele>28.25</ele><time>2026-04-18T08:37:56Z</time></trkpt><trkpt lat="42.117075970781016" lon="12.635369099486732"><ele>28.0</ele><time>2026-04-18T08:37:57Z</time></trkpt><trkpt lat="42.11718675103819" lon="12.635412668392418"><ele>28.0</ele><time>2026-04-18T08:37:58Z</time></trkpt><trkpt lat="42.1173046010111" lon="12.635468803073865"><ele>28.0</ele><time>2026-04-18T08:37:59Z</time></trkpt><trkpt lat="42.117429703728966" lon="12.635532381984802"><ele>28.0</ele><time>2026-04-18T08:38:00Z</time></trkpt><trkpt lat="42.11754855646663" lon="12.635602231496986"><ele>28.0</ele><time>2026-04-18T08:38:01Z</time></trkpt><trkpt lat="42.11764994922758" lon="12.635680710010828"><ele>28.0</ele><time>2026-04-18T08:38:02Z</time></trkpt><trkpt lat="42.11774814529668" lon="12.635769868570888"><ele>27.999999999999996</ele><time>2026-04-18T08:38:03Z</time></trkpt><trkpt lat="42.11783823134956" lon="12.63586844496977"><ele>27.999999999999996</ele><time>2026-04-18T08:38:04Z</time></trkpt><trkpt lat="42.117919257737476" lon="12.63597302486385"><ele>28.0</ele><time>2026-04-18T08:38:05Z</time></trkpt><trkpt lat="42.1179899589295" lon="12.636072930772922"><ele>28.0</ele><time>2026-04-18T08:38:06Z</time></trkpt><trkpt lat="42.118060758317576" lon="12.636184973124628"><ele>27.333333333333336</ele><time>2026-04-18T08:38:07Z</time></trkpt><trkpt lat="42.1181361949793" lon="12.636326769650712"><ele>26.666666666666664</ele><time>2026-04-18T08:38:08Z</time></trkpt><trkpt lat="42.11822284276391" lon="12.636505664724638"><ele>26.0</ele><time>2026-04-18T08:38:09Z</time></trkpt><trkpt lat="42.118330469519236" lon="12.636722777541229"><ele>27.0</ele><time>2026-04-18T08:38:10Z</time></trkpt><trkpt lat="42.1184530640001" lon="12.636976391534361"><ele>28.0</ele><time>2026-04-18T08:38:11Z</time></trkpt><trkpt lat="42.11859788229614" lon="12.637280236092307"><ele>28.0</ele><time>2026-04-18T08:38:12Z</time></trkpt><trkpt lat="42.11872600759042" lon="12.63757838181272"><ele>28.0</ele><time>2026-04-18T08:38:13Z</time></trkpt><trkpt lat="42.118840813188406" lon="12.63784008662192"><ele>28.0</ele><time>2026-04-18T08:38:14Z</time></trkpt><trkpt lat="42.118949782153784" lon="12.638066927757823"><ele>28.0</ele><time>2026-04-18T08:38:15Z</time></trkpt><trkpt lat="42.119052038405684" lon="12.63828906184113"><ele>28.0</ele><time>2026-04-18T08:38:16Z</time></trkpt><trkpt lat="42.11914669318012" lon="12.638488493674538"><ele>28.0</ele><time>2026-04-18T08:38:17Z</time></trkpt><trkpt lat="42.11924859209362" lon="12.638685889598094"><ele>28.0</ele><time>2026-04-18T08:38:18Z</time></trkpt><trkpt lat="42.11936901954827" lon="12.638881620193752"><ele>28.0</ele><time>2026-04-18T08:38:19Z</time></trkpt><trkpt lat="42.119524136081914" lon="12.639072664974076"><ele>28.0</ele><time>2026-04-18T08:38:20Z</time></trkpt><trkpt lat="42.119716406228456" lon="12.639238133954908"><ele>28.0</ele><time>2026-04-18T08:38:21Z</time></trkpt><trkpt lat="42.119931613253044" lon="12.639366687702045"><ele>28.0</ele><time>2026-04-18T08:38:22Z</time></trkpt><trkpt lat="42.120187716393545" lon="12.639459194584587"><ele>28.0</ele><time>2026-04-18T08:38:23Z</time></trkpt><trkpt lat="42.120470054247185" lon="12.639520457447931"><ele>27.0</ele><time>2026-04-18T08:38:24Z</time></trkpt><trkpt lat="42.120725913361156" lon="12.639553533122053"><ele>26.0</ele><time>2026-04-18T08:38:25Z</time></trkpt><trkpt lat="42.12095089140467" lon="12.639598874429772"><ele>26.0</ele><time>2026-04-18T08:38:26Z</time></trkpt><trkpt lat="42.121158251303655" lon="12.639648586548638"><ele>26.0</ele><time>2026-04-18T08:38:27Z</time></trkpt><trkpt lat="42.12135540664011" lon="12.639690275886881"><ele>26.0</ele><time>2026-04-18T08:38:28Z</time></trkpt><trkpt lat="42.12154351456672" lon="12.639729326620666"><ele>26.333333333333332</ele><time>2026-04-18T08:38:29Z</time></trkpt><trkpt lat="42.121731323886635" lon="12.639768559650255"><ele>26.666666666666664</ele><time>2026-04-18T08:38:30Z</time></trkpt><trkpt lat="42.121929527571226" lon="12.639808773552435"><ele>27.0</ele><time>2026-04-18T08:38:31Z</time></trkpt><trkpt lat="42.12211721903157" lon="12.639838858160244"><ele>27.0</ele><time>2026-04-18T08:38:32Z</time></trkpt><trkpt lat="42.12231102145554" lon="12.639855911351091"><ele>27.0</ele><time>2026-04-18T08:38:33Z</time></trkpt><trkpt lat="42.12249977807011" lon="12.639866703182001"><ele>27.0</ele><time>2026-04-18T08:38:34Z</time></trkpt><trkpt lat="42.12269079966309" lon="12.639869078775307"><ele>26.333333333333336</ele><time>2026-04-18T08:38:35Z</time></trkpt><trkpt lat="42.12288097191646" lon="12.639854447550675"><ele>25.666666666666668</ele><time>2026-04-18T08:38:36Z</time></trkpt><trkpt lat="42.12306261385997" lon="12.639829220821822"><ele>25.0</ele><time>2026-04-18T08:38:37Z</time></trkpt><trkpt lat="42.12324073288192" lon="12.639791334432752"><ele>25.0</ele><time>2026-04-18T08:38:38Z</time></trkpt><trkpt lat="42.12341865458139" lon="12.639745843449273"><ele>25.0</ele><time>2026-04-18T08:38:39Z</time></trkpt><trkpt lat="42.1235944105184" lon="12.639700009799204"><ele>25.0</ele><time>2026-04-18T08:38:40Z</time></trkpt><trkpt lat="42.12377640414141" lon="12.639672659198974"><ele>25.0</ele><time>2026-04-18T08:38:41Z</time></trkpt><trkpt lat="42.12394886025629" lon="12.63967205133817"><ele>25.0</ele><time>2026-04-18T08:38:42Z</time></trkpt><trkpt lat="42.12411521018095" lon="12.639692577694188"><ele>25.0</ele><time>2026-04-18T08:38:43Z</time></trkpt><trkpt lat="42.124289884007105" lon="12.639735862008477"><ele>25.666666666666668</ele><time>2026-04-18T08:38:44Z</time></trkpt><trkpt lat="42.124476310533275" lon="12.639803304923493"><ele>26.333333333333336</ele><time>2026-04-18T08:38:45Z</time></trkpt><trkpt lat="42.12465665610482" lon="12.639889279753026"><ele>27.0</ele><time>2026-04-18T08:38:46Z</time></trkpt><trkpt lat="42.12482501108988" lon="12.639998687879794"><ele>27.0</ele><time>2026-04-18T08:38:47Z</time></trkpt><trkpt lat="42.124997874670775" lon="12.640111915391104"><ele>27.0</ele><time>2026-04-18T08:38:48Z</time></trkpt><trkpt lat="42.12518003225975" lon="12.640225299079365"><ele>27.0</ele><time>2026-04-18T08:38:49Z</time></trkpt><trkpt lat="42.12536925724469" lon="12.640344908982804"><ele>27.0</ele><time>2026-04-18T08:38:50Z</time></trkpt><trkpt lat="42.12554247467782" lon="12.640452400465943"><ele>27.0</ele><time>2026-04-18T08:38:51Z</time></trkpt><trkpt lat="42.12571874776308" lon="12.640556893061387"><ele>27.0</ele><time>2026-04-18T08:38:52Z</time></trkpt><trkpt lat="42.12589529530878" lon="12.640666464038176"><ele>27.0</ele><time>2026-04-18T08:38:53Z</time></trkpt><trkpt lat="42.126069216210226" lon="12.64077409250902"><ele>27.0</ele><time>2026-04-18T08:38:54Z</time></trkpt><trkpt lat="42.12624166687011" lon="12.640884438869351"><ele>27.0</ele><time>2026-04-18T08:38:55Z</time></trkpt><trkpt lat="42.12641204405125" lon="12.64099614454405"><ele>26.333333333333336</ele><time>2026-04-18T08:38:56Z</time></trkpt><trkpt lat="42.12658497747742" lon="12.641104871240165"><ele>25.666666666666668</ele><time>2026-04-18T08:38:57Z</time></trkpt><trkpt lat="42.126756830500334" lon="12.641209128551512"><ele>25.0</ele><time>2026-04-18T08:38:58Z</time></trkpt><trkpt lat="42.1269309766388" lon="12.641317270082807"><ele>25.0</ele><time>2026-04-18T08:38:59Z</time></trkpt><trkpt lat="42.127102521873894" lon="12.641427191033536"><ele>25.0</ele><time>2026-04-18T08:39:00Z</time></trkpt><trkpt lat="42.12727419032073" lon="12.641539419162228"><ele>25.0</ele><time>2026-04-18T08:39:01Z</time></trkpt><trkpt lat="42.127442241974435" lon="12.641647167726012"><ele>25.666666666666668</ele><time>2026-04-18T08:39:02Z</time></trkpt><trkpt lat="42.127607142662384" lon="12.641749807256483"><ele>26.333333333333336</ele><time>2026-04-18T08:39:03Z</time></trkpt><trkpt lat="42.12776940778429" lon="12.64185141313667"><ele>27.0</ele><time>2026-04-18T08:39:04Z</time></trkpt><trkpt lat="42.127930549194886" lon="12.641954308386952"><ele>27.0</ele><time>2026-04-18T08:39:05Z</time></trkpt><trkpt lat="42.1280906041847" lon="12.642059009324537"><ele>27.0</ele><time>2026-04-18T08:39:06Z</time></trkpt><trkpt lat="42.12825507492085" lon="12.64216023078878"><ele>27.0</ele><time>2026-04-18T08:39:07Z</time></trkpt><trkpt lat="42.128421863304276" lon="12.642249279561245"><ele>27.333333333333336</ele><time>2026-04-18T08:39:08Z</time></trkpt><trkpt lat="42.12860137742246" lon="12.642323211209396"><ele>27.666666666666668</ele><time>2026-04-18T08:39:09Z</time></trkpt><trkpt lat="42.128786830985916" lon="12.642382042418898"><ele>28.0</ele><time>2026-04-18T08:39:10Z</time></trkpt><trkpt lat="42.12897694415505" lon="12.642422783797954"><ele>27.666666666666668</ele><time>2026-04-18T08:39:11Z</time></trkpt><trkpt lat="42.12916959903013" lon="12.642453901613209"><ele>27.333333333333336</ele><time>2026-04-18T08:39:12Z</time></trkpt><trkpt lat="42.12935607342895" lon="12.642485409002328"><ele>27.0</ele><time>2026-04-18T08:39:13Z</time></trkpt><trkpt lat="42.12954232053083" lon="12.642522600884813"><ele>27.0</ele><time>2026-04-18T08:39:14Z</time></trkpt><trkpt lat="42.1297292007803" lon="12.642597307141681"><ele>27.0</ele><time>2026-04-18T08:39:15Z</time></trkpt><trkpt lat="42.1299145190426" lon="12.642639183013682"><ele>27.0</ele><time>2026-04-18T08:39:16Z</time></trkpt><trkpt lat="42.13010101910589" lon="12.642660332542537"><ele>26.666666666666664</ele><time>2026-04-18T08:39:17Z</time></trkpt><trkpt lat="42.130283186235765" lon="12.642690111066184"><ele>26.333333333333332</ele><time>2026-04-18T08:39:18Z</time></trkpt><trkpt lat="42.13045962946518" lon="12.642732166556799"><ele>26.0</ele><time>2026-04-18T08:39:19Z</time></trkpt><trkpt lat="42.13064497490739" lon="12.642772716240573"><ele>26.333333333333332</ele><time>2026-04-18T08:39:20Z</time></trkpt><trkpt lat="42.130826202307325" lon="12.64281447623407"><ele>26.666666666666664</ele><time>2026-04-18T08:39:21Z</time></trkpt><trkpt lat="42.13100511008957" lon="12.64285336747795"><ele>27.0</ele><time>2026-04-18T08:39:22Z</time></trkpt><trkpt lat="42.13118491669427" lon="12.642886620275966"><ele>27.0</ele><time>2026-04-18T08:39:23Z</time></trkpt><trkpt lat="42.131363394670615" lon="12.642912031071"><ele>27.0</ele><time>2026-04-18T08:39:24Z</time></trkpt><trkpt lat="42.13154619444989" lon="12.642935424334732"><ele>27.0</ele><time>2026-04-18T08:39:25Z</time></trkpt><trkpt lat="42.13173699834421" lon="12.642953401219586"><ele>27.333333333333336</ele><time>2026-04-18T08:39:26Z</time></trkpt><trkpt lat="42.13193104234584" lon="12.642969535215183"><ele>27.666666666666668</ele><time>2026-04-18T08:39:27Z</time></trkpt><trkpt lat="42.13212845719414" lon="12.642983126425294"><ele>28.0</ele><time>2026-04-18T08:39:28Z</time></trkpt><trkpt lat="42.132324261132744" lon="12.642990886474024"><ele>28.0</ele><time>2026-04-18T08:39:29Z</time></trkpt><trkpt lat="42.132521270954975" lon="12.642999484997375"><ele>28.0</ele><time>2026-04-18T08:39:30Z</time></trkpt><trkpt lat="42.13271598794896" lon="12.643005651483557"><ele>28.0</ele><time>2026-04-18T08:39:31Z</time></trkpt><trkpt lat="42.13291331475847" lon="12.643010259312932"><ele>28.0</ele><time>2026-04-18T08:39:32Z</time></trkpt><trkpt lat="42.13310328575867" lon="12.64301501355252"><ele>28.0</ele><time>2026-04-18T08:39:33Z</time></trkpt><trkpt lat="42.133291495787255" lon="12.64302571777039"><ele>28.0</ele><time>2026-04-18T08:39:34Z</time></trkpt><trkpt lat="42.13347621856972" lon="12.643032106314687"><ele>28.0</ele><time>2026-04-18T08:39:35Z</time></trkpt><trkpt lat="42.133660775783795" lon="12.643025629148436"><ele>28.0</ele><time>2026-04-18T08:39:36Z</time></trkpt><trkpt lat="42.133843652659884" lon="12.643048976289538"><ele>28.0</ele><time>2026-04-18T08:39:37Z</time></trkpt><trkpt lat="42.134027586896266" lon="12.643057609197953"><ele>29.0</ele><time>2026-04-18T08:39:38Z</time></trkpt><trkpt lat="42.134214300622226" lon="12.643066372562092"><ele>30.0</ele><time>2026-04-18T08:39:39Z</time></trkpt><trkpt lat="42.13440913092501" lon="12.643062229601446"><ele>31.0</ele><time>2026-04-18T08:39:40Z</time></trkpt><trkpt lat="42.13459626058235" lon="12.643070516736975"><ele>31.0</ele><time>2026-04-18T08:39:41Z</time></trkpt><trkpt lat="42.13478958797685" lon="12.643083283895857"><ele>31.0</ele><time>2026-04-18T08:39:42Z</time></trkpt><trkpt lat="42.13498672658205" lon="12.64309796902614"><ele>31.0</ele><time>2026-04-18T08:39:43Z</time></trkpt><trkpt lat="42.13518427226531" lon="12.643111216043135"><ele>30.333333333333336</ele><time>2026-04-18T08:39:44Z</time></trkpt><trkpt lat="42.135378086487876" lon="12.643119495587351"><ele>29.666666666666664</ele><time>2026-04-18T08:39:45Z</time></trkpt><trkpt lat="42.135562949879684" lon="12.643124814679208"><ele>29.0</ele><time>2026-04-18T08:39:46Z</time></trkpt><trkpt lat="42.1357464120133" lon="12.643135985842045"><ele>28.666666666666664</ele><time>2026-04-18T08:39:47Z</time></trkpt><trkpt lat="42.13592748202437" lon="12.643139905167333"><ele>28.333333333333336</ele><time>2026-04-18T08:39:48Z</time></trkpt><trkpt lat="42.13611519082542" lon="12.643145539995603"><ele>28.0</ele><time>2026-04-18T08:39:49Z</time></trkpt><trkpt lat="42.13630214599358" lon="12.643153445936079"><ele>28.0</ele><time>2026-04-18T08:39:50Z</time></trkpt><trkpt lat="42.136487473910385" lon="12.643160420613981"><ele>28.0</ele><time>2026-04-18T08:39:51Z</time></trkpt><trkpt lat="42.136670172756894" lon="12.643164864164326"><ele>28.0</ele><time>2026-04-18T08:39:52Z</time></trkpt><trkpt lat="42.13684933297968" lon="12.643169483434505"><ele>28.0</ele><time>2026-04-18T08:39:53Z</time></trkpt><trkpt lat="42.13701897679711" lon="12.643175149590771"><ele>28.0</ele><time>2026-04-18T08:39:54Z</time></trkpt><trkpt lat="42.13718421464666" lon="12.643183155508456"><ele>28.0</ele><time>2026-04-18T08:39:55Z</time></trkpt><trkpt lat="42.13734767784436" lon="12.643193912754322"><ele>28.333333333333336</ele><time>2026-04-18T08:39:56Z</time></trkpt><trkpt lat="42.137513284015014" lon="12.643207611250242"><ele>28.666666666666664</ele><time>2026-04-18T08:39:57Z</time></trkpt><trkpt lat="42.13768394485138" lon="12.6432144085614"><ele>29.0</ele><time>2026-04-18T08:39:58Z</time></trkpt><trkpt lat="42.13785013815066" lon="12.64322145851846"><ele>29.0</ele><time>2026-04-18T08:39:59Z</time></trkpt><trkpt lat="42.138021045668374" lon="12.643231415819178"><ele>29.0</ele><time>2026-04-18T08:40:00Z</time></trkpt><trkpt lat="42.138196834888355" lon="12.643239715844603"><ele>29.0</ele><time>2026-04-18T08:40:01Z</time></trkpt><trkpt lat="42.13837209715905" lon="12.643253397582406"><ele>29.0</ele><time>2026-04-18T08:40:02Z</time></trkpt><trkpt lat="42.138552398753255" lon="12.643264098766258"><ele>29.0</ele><time>2026-04-18T08:40:03Z</time></trkpt><trkpt lat="42.138728053113226" lon="12.643274048762404"><ele>29.0</ele><time>2026-04-18T08:40:04Z</time></trkpt><trkpt lat="42.13889382639033" lon="12.643280278702907"><ele>28.666666666666664</ele><time>2026-04-18T08:40:05Z</time></trkpt><trkpt lat="42.13906489629352" lon="12.643289094460219"><ele>28.333333333333336</ele><time>2026-04-18T08:40:06Z</time></trkpt><trkpt lat="42.139244190487986" lon="12.643309610585952"><ele>28.0</ele><time>2026-04-18T08:40:07Z</time></trkpt><trkpt lat="42.139414030642286" lon="12.643330582624682"><ele>28.0</ele><time>2026-04-18T08:40:08Z</time></trkpt><trkpt lat="42.13958846911409" lon="12.643321862124635"><ele>28.0</ele><time>2026-04-18T08:40:09Z</time></trkpt><trkpt lat="42.139772376969795" lon="12.643328225001547"><ele>28.0</ele><time>2026-04-18T08:40:10Z</time></trkpt><trkpt lat="42.13995330787926" lon="12.643336460991874"><ele>28.333333333333336</ele><time>2026-04-18T08:40:11Z</time></trkpt><trkpt lat="42.14014322053498" lon="12.64335384028693"><ele>28.666666666666664</ele><time>2026-04-18T08:40:12Z</time></trkpt><trkpt lat="42.140324437363866" lon="12.643351643222065"><ele>29.0</ele><time>2026-04-18T08:40:13Z</time></trkpt><trkpt lat="42.14049595881329" lon="12.643359038396778"><ele>29.0</ele><time>2026-04-18T08:40:14Z</time></trkpt><trkpt lat="42.14065959992817" lon="12.643376432630573"><ele>29.0</ele><time>2026-04-18T08:40:15Z</time></trkpt><trkpt lat="42.14083902152707" lon="12.643379328763706"><ele>29.0</ele><time>2026-04-18T08:40:16Z</time></trkpt><trkpt lat="42.141029340863746" lon="12.643386423535937"><ele>28.333333333333332</ele><time>2026-04-18T08:40:17Z</time></trkpt><trkpt lat="42.141207851137295" lon="12.643402110342304"><ele>27.666666666666664</ele><time>2026-04-18T08:40:18Z</time></trkpt><trkpt lat="42.14137075459489" lon="12.643417911121777"><ele>27.0</ele><time>2026-04-18T08:40:19Z</time></trkpt><trkpt lat="42.14153936359905" lon="12.643421975197787"><ele>27.333333333333336</ele><time>2026-04-18T08:40:20Z</time></trkpt><trkpt lat="42.1417039385708" lon="12.643422025626032"><ele>27.666666666666668</ele><time>2026-04-18T08:40:21Z</time></trkpt><trkpt lat="42.141875891101215" lon="12.643428373696489"><ele>28.0</ele><time>2026-04-18T08:40:22Z</time></trkpt><trkpt lat="42.142055146533394" lon="12.643440082337351"><ele>28.0</ele><time>2026-04-18T08:40:23Z</time></trkpt><trkpt lat="42.142230988785606" lon="12.64344313363146"><ele>28.0</ele><time>2026-04-18T08:40:24Z</time></trkpt><trkpt lat="42.14239655880611" lon="12.643451815733883"><ele>28.0</ele><time>2026-04-18T08:40:25Z</time></trkpt><trkpt lat="42.142571693686776" lon="12.643470602916214"><ele>27.666666666666668</ele><time>2026-04-18T08:40:26Z</time></trkpt><trkpt lat="42.14272997518604" lon="12.6434712114551"><ele>27.333333333333336</ele><time>2026-04-18T08:40:27Z</time></trkpt><trkpt lat="42.14289310722488" lon="12.643463582384456"><ele>27.0</ele><time>2026-04-18T08:40:28Z</time></trkpt><trkpt lat="42.14305092054609" lon="12.643473245025731"><ele>27.0</ele><time>2026-04-18T08:40:29Z</time></trkpt><trkpt lat="42.1432076210346" lon="12.64347962843274"><ele>27.0</ele><time>2026-04-18T08:40:30Z</time></trkpt><trkpt lat="42.143356456747114" lon="12.643483267428623"><ele>27.0</ele><time>2026-04-18T08:40:31Z</time></trkpt><trkpt lat="42.14349560125224" lon="12.643483761310195"><ele>27.0</ele><time>2026-04-18T08:40:32Z</time></trkpt><trkpt lat="42.14363843437037" lon="12.643510643862953"><ele>27.25</ele><time>2026-04-18T08:40:33Z</time></trkpt><trkpt lat="42.14378624314739" lon="12.643518563128511"><ele>27.5</ele><time>2026-04-18T08:40:34Z</time></trkpt><trkpt lat="42.143929216250626" lon="12.643525888070286"><ele>27.75</ele><time>2026-04-18T08:40:35Z</time></trkpt><trkpt lat="42.1440473951946" lon="12.64352422506566"><ele>28.0</ele><time>2026-04-18T08:40:36Z</time></trkpt><trkpt lat="42.14414510300284" lon="12.64352576776373"><ele>28.25</ele><time>2026-04-18T08:40:37Z</time></trkpt><trkpt lat="42.144231280156966" lon="12.643541365360269"><ele>28.5</ele><time>2026-04-18T08:40:38Z</time></trkpt><trkpt lat="42.14431193265795" lon="12.643545497579156"><ele>28.75</ele><time>2026-04-18T08:40:39Z</time></trkpt><trkpt lat="42.14439875910127" lon="12.643192453090654"><ele>29.0</ele><time>2026-04-18T08:40:41Z</time></trkpt><trkpt lat="42.14449707323923" lon="12.643114414479948"><ele>29.0</ele><time>2026-04-18T08:40:42Z</time></trkpt><trkpt lat="42.14458640743068" lon="12.64304876964797"><ele>29.0</ele><time>2026-04-18T08:40:43Z</time></trkpt><trkpt lat="42.14469623547296" lon="12.643061168604989"><ele>29.0</ele><time>2026-04-18T08:40:44Z</time></trkpt><trkpt lat="42.144828914791375" lon="12.643080944485124"><ele>29.0</ele><time>2026-04-18T08:40:45Z</time></trkpt><trkpt lat="42.14498403929193" lon="12.643100040101137"><ele>29.0</ele><time>2026-04-18T08:40:46Z</time></trkpt><trkpt lat="42.145125728114124" lon="12.643131112496684"><ele>29.0</ele><time>2026-04-18T08:40:47Z</time></trkpt><trkpt lat="42.14527699550774" lon="12.643157050693041"><ele>29.0</ele><time>2026-04-18T08:40:48Z</time></trkpt><trkpt lat="42.1454350502487" lon="12.643187695809115"><ele>29.0</ele><time>2026-04-18T08:40:49Z</time></trkpt><trkpt lat="42.14559390905318" lon="12.643216353474108"><ele>29.0</ele><time>2026-04-18T08:40:50Z</time></trkpt><trkpt lat="42.14576432956331" lon="12.643248902799067"><ele>29.0</ele><time>2026-04-18T08:40:51Z</time></trkpt><trkpt lat="42.145934379601044" lon="12.643269023438409"><ele>29.0</ele><time>2026-04-18T08:40:52Z</time></trkpt><trkpt lat="42.14609976001175" lon="12.643301334181338"><ele>29.0</ele><time>2026-04-18T08:40:53Z</time></trkpt><trkpt lat="42.14625963951709" lon="12.64333514350331"><ele>29.0</ele><time>2026-04-18T08:40:54Z</time></trkpt><trkpt lat="42.14641118177891" lon="12.64335856165606"><ele>28.666666666666664</ele><time>2026-04-18T08:40:55Z</time></trkpt><trkpt lat="42.14657348373207" lon="12.643380270181341"><ele>28.333333333333336</ele><time>2026-04-18T08:40:56Z</time></trkpt><trkpt lat="42.14674390848867" lon="12.643417434936207"><ele>28.0</ele><time>2026-04-18T08:40:57Z</time></trkpt><trkpt lat="42.146894414067866" lon="12.643452465007913"><ele>28.0</ele><time>2026-04-18T08:40:58Z</time></trkpt><trkpt lat="42.14704585049047" lon="12.643489732342259"><ele>28.0</ele><time>2026-04-18T08:40:59Z</time></trkpt><trkpt lat="42.14721058205244" lon="12.643519279992875"><ele>28.0</ele><time>2026-04-18T08:41:00Z</time></trkpt><trkpt lat="42.14738159188347" lon="12.643546912114342"><ele>28.0</ele><time>2026-04-18T08:41:01Z</time></trkpt><trkpt lat="42.14755215087859" lon="12.643573657066213"><ele>28.0</ele><time>2026-04-18T08:41:02Z</time></trkpt><trkpt lat="42.14772341505816" lon="12.643599015902394"><ele>28.0</ele><time>2026-04-18T08:41:03Z</time></trkpt><trkpt lat="42.14788958571806" lon="12.643628490257406"><ele>29.0</ele><time>2026-04-18T08:41:04Z</time></trkpt><trkpt lat="42.14805205635628" lon="12.643660192002354"><ele>30.0</ele><time>2026-04-18T08:41:05Z</time></trkpt><trkpt lat="42.14821240137164" lon="12.643698740124522"><ele>31.0</ele><time>2026-04-18T08:41:06Z</time></trkpt><trkpt lat="42.148372451427534" lon="12.643746256571255"><ele>31.333333333333336</ele><time>2026-04-18T08:41:07Z</time></trkpt><trkpt lat="42.14852550658425" lon="12.643818097828749"><ele>31.666666666666664</ele><time>2026-04-18T08:41:08Z</time></trkpt><trkpt lat="42.14867208675715" lon="12.643908736066617"><ele>32.0</ele><time>2026-04-18T08:41:09Z</time></trkpt><trkpt lat="42.14880256421534" lon="12.644046444764818"><ele>32.0</ele><time>2026-04-18T08:41:10Z</time></trkpt><trkpt lat="42.14893210292089" lon="12.64418054123197"><ele>32.0</ele><time>2026-04-18T08:41:11Z</time></trkpt><trkpt lat="42.14907163684551" lon="12.644334676944439"><ele>32.0</ele><time>2026-04-18T08:41:12Z</time></trkpt><trkpt lat="42.14921395197628" lon="12.644498826114184"><ele>31.666666666666664</ele><time>2026-04-18T08:41:13Z</time></trkpt><trkpt lat="42.14934508641986" lon="12.644651988818728"><ele>31.333333333333336</ele><time>2026-04-18T08:41:14Z</time></trkpt><trkpt lat="42.14946776793424" lon="12.644795278749346"><ele>31.0</ele><time>2026-04-18T08:41:15Z</time></trkpt><trkpt lat="42.149597006202164" lon="12.644946226917991"><ele>31.0</ele><time>2026-04-18T08:41:16Z</time></trkpt><trkpt lat="42.14972868335819" lon="12.645101071069313"><ele>31.0</ele><time>2026-04-18T08:41:17Z</time></trkpt><trkpt lat="42.149863437219295" lon="12.64526296716977"><ele>31.0</ele><time>2026-04-18T08:41:18Z</time></trkpt><trkpt lat="42.14999582697506" lon="12.645424264714471"><ele>30.0</ele><time>2026-04-18T08:41:19Z</time></trkpt><trkpt lat="42.15012420727721" lon="12.645586655575988"><ele>29.0</ele><time>2026-04-18T08:41:20Z</time></trkpt><trkpt lat="42.15024336979795" lon="12.645735953728732"><ele>28.0</ele><time>2026-04-18T08:41:21Z</time></trkpt><trkpt lat="42.150350383629096" lon="12.645870031077365"><ele>28.0</ele><time>2026-04-18T08:41:22Z</time></trkpt><trkpt lat="42.150457382097436" lon="12.645995417723011"><ele>28.0</ele><time>2026-04-18T08:41:23Z</time></trkpt><trkpt lat="42.15058026094255" lon="12.646111959646513"><ele>28.0</ele><time>2026-04-18T08:41:24Z</time></trkpt><trkpt lat="42.150721151502985" lon="12.64617972321426"><ele>28.0</ele><time>2026-04-18T08:41:25Z</time></trkpt><trkpt lat="42.15087806927233" lon="12.646221800769055"><ele>28.0</ele><time>2026-04-18T08:41:26Z</time></trkpt><trkpt lat="42.15104176193438" lon="12.646202875508724"><ele>28.0</ele><time>2026-04-18T08:41:27Z</time></trkpt><trkpt lat="42.151210054457046" lon="12.646131825744542"><ele>28.0</ele><time>2026-04-18T08:41:28Z</time></trkpt><trkpt lat="42.151381640684576" lon="12.646065522136466"><ele>27.666666666666668</ele><time>2026-04-18T08:41:29Z</time></trkpt><trkpt lat="42.151544301825886" lon="12.646025487507384"><ele>27.333333333333336</ele><time>2026-04-18T08:41:30Z</time></trkpt><trkpt lat="42.151687743099885" lon="12.64597919301189"><ele>27.0</ele><time>2026-04-18T08:41:31Z</time></trkpt><trkpt lat="42.15182254015198" lon="12.645938033906306"><ele>27.0</ele><time>2026-04-18T08:41:32Z</time></trkpt><trkpt lat="42.15195598720742" lon="12.645885191421733"><ele>27.0</ele><time>2026-04-18T08:41:33Z</time></trkpt><trkpt lat="42.1520854954929" lon="12.645957525916298"><ele>27.0</ele><time>2026-04-18T08:41:34Z</time></trkpt><trkpt lat="42.15219996013444" lon="12.646001346694407"><ele>27.0</ele><time>2026-04-18T08:41:35Z</time></trkpt><trkpt lat="42.15230926743273" lon="12.646063350055801"><ele>27.0</ele><time>2026-04-18T08:41:36Z</time></trkpt><trkpt lat="42.152417975643985" lon="12.64615003633067"><ele>27.0</ele><time>2026-04-18T08:41:37Z</time></trkpt><trkpt lat="42.15252831293296" lon="12.646244875607838"><ele>27.0</ele><time>2026-04-18T08:41:38Z</time></trkpt><trkpt lat="42.15263195048299" lon="12.64633881587178"><ele>27.0</ele><time>2026-04-18T08:41:39Z</time></trkpt><trkpt lat="42.15272128045769" lon="12.64642157316142"><ele>27.0</ele><time>2026-04-18T08:41:40Z</time></trkpt><trkpt lat="42.152808417531176" lon="12.646502595974406"><ele>27.000000000000004</ele><time>2026-04-18T08:41:41Z</time></trkpt><trkpt lat="42.152900288655324" lon="12.646559627955334"><ele>27.000000000000004</ele><time>2026-04-18T08:41:42Z</time></trkpt><trkpt lat="42.152970648417025" lon="12.646633210796093"><ele>27.0</ele><time>2026-04-18T08:41:43Z</time></trkpt><trkpt lat="42.153039720180956" lon="12.646696080264132"><ele>27.0</ele><time>2026-04-18T08:41:44Z</time></trkpt><trkpt lat="42.15310489207449" lon="12.646750011434099"><ele>27.0</ele><time>2026-04-18T08:41:45Z</time></trkpt><trkpt lat="42.15316269863112" lon="12.646799687773989"><ele>27.0</ele><time>2026-04-18T08:41:46Z</time></trkpt><trkpt lat="42.153241783407594" lon="12.646893382931074"><ele>27.0</ele><time>2026-04-18T08:41:48Z</time></trkpt><trkpt lat="42.15327673280206" lon="12.646986968700782"><ele>27.0</ele><time>2026-04-18T08:41:50Z</time></trkpt><trkpt lat="42.153329681160876" lon="12.647037014308383"><ele>27.0</ele><time>2026-04-18T08:41:51Z</time></trkpt><trkpt lat="42.15341046820304" lon="12.647052256466594"><ele>27.0</ele><time>2026-04-18T08:41:52Z</time></trkpt><trkpt lat="42.15350584194251" lon="12.647025856603033"><ele>27.400000000000002</ele><time>2026-04-18T08:41:53Z</time></trkpt><trkpt lat="42.1536063658981" lon="12.646995081174664"><ele>27.800000000000004</ele><time>2026-04-18T08:41:54Z</time></trkpt><trkpt lat="42.15371010321882" lon="12.647027975196888"><ele>28.2</ele><time>2026-04-18T08:41:55Z</time></trkpt><trkpt lat="42.15382658597415" lon="12.647036112341834"><ele>28.6</ele><time>2026-04-18T08:41:56Z</time></trkpt><trkpt lat="42.15392929771254" lon="12.64707451872949"><ele>29.0</ele><time>2026-04-18T08:41:57Z</time></trkpt><trkpt lat="42.1540145773995" lon="12.6471009997105"><ele>29.166666666666664</ele><time>2026-04-18T08:41:58Z</time></trkpt><trkpt lat="42.154098472444396" lon="12.647121424741899"><ele>29.333333333333332</ele><time>2026-04-18T08:41:59Z</time></trkpt><trkpt lat="42.154185930469104" lon="12.64713491158678"><ele>29.5</ele><time>2026-04-18T08:42:00Z</time></trkpt><trkpt lat="42.15427488278531" lon="12.6471496497863"><ele>29.666666666666664</ele><time>2026-04-18T08:42:01Z</time></trkpt><trkpt lat="42.154357325248704" lon="12.647165929636845"><ele>29.833333333333332</ele><time>2026-04-18T08:42:02Z</time></trkpt><trkpt lat="42.154432278542544" lon="12.647184308572244"><ele>30.0</ele><time>2026-04-18T08:42:03Z</time></trkpt><trkpt lat="42.154502109443406" lon="12.64720767211948"><ele>30.0</ele><time>2026-04-18T08:42:04Z</time></trkpt><trkpt lat="42.154570433747644" lon="12.647230182430574"><ele>30.0</ele><time>2026-04-18T08:42:05Z</time></trkpt><trkpt lat="42.154634745855105" lon="12.64724600599863"><ele>30.0</ele><time>2026-04-18T08:42:06Z</time></trkpt><trkpt lat="42.15469933858568" lon="12.647263157870013"><ele>30.0</ele><time>2026-04-18T08:42:07Z</time></trkpt><trkpt lat="42.15476222734776" lon="12.647292516457886"><ele>30.0</ele><time>2026-04-18T08:42:08Z</time></trkpt><trkpt lat="42.15487405665631" lon="12.647320507068313"><ele>30.0</ele><time>2026-04-18T08:42:10Z</time></trkpt><trkpt lat="42.15495404192085" lon="12.647346440984105"><ele>30.25</ele><time>2026-04-18T08:42:12Z</time></trkpt><trkpt lat="42.15505298088082" lon="12.647393240079799"><ele>30.5</ele><time>2026-04-18T08:42:15Z</time></trkpt><trkpt lat="42.155149609229746" lon="12.64741370158172"><ele>30.75</ele><time>2026-04-18T08:42:17Z</time></trkpt><trkpt lat="42.15528604830047" lon="12.647471904088903"><ele>31.0</ele><time>2026-04-18T08:42:19Z</time></trkpt><trkpt lat="42.15539590287263" lon="12.647500925006753"><ele>31.0</ele><time>2026-04-18T08:42:20Z</time></trkpt><trkpt lat="42.155498259350374" lon="12.647542992157708"><ele>31.0</ele><time>2026-04-18T08:42:21Z</time></trkpt><trkpt lat="42.1556092467484" lon="12.647572664590967"><ele>31.0</ele><time>2026-04-18T08:42:22Z</time></trkpt><trkpt lat="42.155724930959934" lon="12.647596478835723"><ele>31.0</ele><time>2026-04-18T08:42:23Z</time></trkpt><trkpt lat="42.15582783602072" lon="12.647627031876105"><ele>31.0</ele><time>2026-04-18T08:42:24Z</time></trkpt><trkpt lat="42.15593839345453" lon="12.647652099824972"><ele>31.0</ele><time>2026-04-18T08:42:25Z</time></trkpt><trkpt lat="42.15605590663358" lon="12.6476714140547"><ele>31.0</ele><time>2026-04-18T08:42:26Z</time></trkpt><trkpt lat="42.15618635053216" lon="12.647684501100146"><ele>31.0</ele><time>2026-04-18T08:42:27Z</time></trkpt><trkpt lat="42.15631063806698" lon="12.647693309759575"><ele>31.0</ele><time>2026-04-18T08:42:28Z</time></trkpt><trkpt lat="42.15643411497564" lon="12.64770451585328"><ele>30.75</ele><time>2026-04-18T08:42:29Z</time></trkpt><trkpt lat="42.15656103799102" lon="12.647719127755096"><ele>30.5</ele><time>2026-04-18T08:42:30Z</time></trkpt><trkpt lat="42.15669070433256" lon="12.647739880798872"><ele>30.25</ele><time>2026-04-18T08:42:31Z</time></trkpt><trkpt lat="42.15682496607375" lon="12.647763272442399"><ele>30.0</ele><time>2026-04-18T08:42:32Z</time></trkpt><trkpt lat="42.15696357421341" lon="12.647784112584816"><ele>30.333333333333336</ele><time>2026-04-18T08:42:33Z</time></trkpt><trkpt lat="42.157106302944705" lon="12.647810235533642"><ele>30.666666666666668</ele><time>2026-04-18T08:42:34Z</time></trkpt><trkpt lat="42.1572559055774" lon="12.64783953168091"><ele>31.0</ele><time>2026-04-18T08:42:35Z</time></trkpt><trkpt lat="42.157415146491374" lon="12.647883609646499"><ele>31.0</ele><time>2026-04-18T08:42:36Z</time></trkpt><trkpt lat="42.15757652719204" lon="12.647927499631612"><ele>31.0</ele><time>2026-04-18T08:42:37Z</time></trkpt><trkpt lat="42.15773915518903" lon="12.64797075976702"><ele>31.0</ele><time>2026-04-18T08:42:38Z</time></trkpt><trkpt lat="42.15789936299076" lon="12.648013135709922"><ele>31.0</ele><time>2026-04-18T08:42:39Z</time></trkpt><trkpt lat="42.15805978484621" lon="12.648060345488432"><ele>31.0</ele><time>2026-04-18T08:42:40Z</time></trkpt><trkpt lat="42.15821651760267" lon="12.648107308694813"><ele>31.0</ele><time>2026-04-18T08:42:41Z</time></trkpt><trkpt lat="42.15835955444837" lon="12.648148762293635"><ele>30.75</ele><time>2026-04-18T08:42:42Z</time></trkpt><trkpt lat="42.15849883590822" lon="12.648178019382053"><ele>30.5</ele><time>2026-04-18T08:42:43Z</time></trkpt><trkpt lat="42.15863970378437" lon="12.648199949434614"><ele>30.25</ele><time>2026-04-18T08:42:44Z</time></trkpt><trkpt lat="42.15878484125061" lon="12.648211936818052"><ele>30.0</ele><time>2026-04-18T08:42:45Z</time></trkpt><trkpt lat="42.158928846161565" lon="12.648213469740114"><ele>30.5</ele><time>2026-04-18T08:42:46Z</time></trkpt><trkpt lat="42.159076606505344" lon="12.648210285230205"><ele>31.0</ele><time>2026-04-18T08:42:47Z</time></trkpt><trkpt lat="42.15922619041733" lon="12.648203833215824"><ele>31.5</ele><time>2026-04-18T08:42:48Z</time></trkpt><trkpt lat="42.159366239968506" lon="12.648189495193144"><ele>32.0</ele><time>2026-04-18T08:42:49Z</time></trkpt><trkpt lat="42.1594901219658" lon="12.648172535595622"><ele>32.0</ele><time>2026-04-18T08:42:50Z</time></trkpt><trkpt lat="42.159605311339284" lon="12.648137796692252"><ele>32.0</ele><time>2026-04-18T08:42:51Z</time></trkpt><trkpt lat="42.159721710293056" lon="12.64808948359077"><ele>32.0</ele><time>2026-04-18T08:42:52Z</time></trkpt><trkpt lat="42.159829680159696" lon="12.647946367428638"><ele>32.0</ele><time>2026-04-18T08:42:53Z</time></trkpt><trkpt lat="42.15991126540679" lon="12.647753066796904"><ele>31.25</ele><time>2026-04-18T08:42:54Z</time></trkpt><trkpt lat="42.16001036454079" lon="12.647590685398587"><ele>30.5</ele><time>2026-04-18T08:42:55Z</time></trkpt><trkpt lat="42.16007133947253" lon="12.64745502098951"><ele>29.75</ele><time>2026-04-18T08:42:56Z</time></trkpt><trkpt lat="42.160109838780606" lon="12.647339143790258"><ele>29.0</ele><time>2026-04-18T08:42:57Z</time></trkpt><trkpt lat="42.160174737538064" lon="12.64723659729748"><ele>29.0</ele><time>2026-04-18T08:42:58Z</time></trkpt><trkpt lat="42.16026747880773" lon="12.647112303103745"><ele>29.0</ele><time>2026-04-18T08:42:59Z</time></trkpt><trkpt lat="42.160383172794404" lon="12.646974434637063"><ele>29.0</ele><time>2026-04-18T08:43:00Z</time></trkpt><trkpt lat="42.16052229329792" lon="12.646849912269928"><ele>28.666666666666664</ele><time>2026-04-18T08:43:01Z</time></trkpt><trkpt lat="42.160677032255855" lon="12.64673769195586"><ele>28.333333333333336</ele><time>2026-04-18T08:43:02Z</time></trkpt><trkpt lat="42.160826297244974" lon="12.646653587494045"><ele>28.0</ele><time>2026-04-18T08:43:03Z</time></trkpt><trkpt lat="42.16095733234011" lon="12.646594460092446"><ele>28.0</ele><time>2026-04-18T08:43:04Z</time></trkpt><trkpt lat="42.161081686675026" lon="12.646546092679142"><ele>28.0</ele><time>2026-04-18T08:43:05.001Z</time></trkpt><trkpt lat="42.16121404778383" lon="12.646519146030286"><ele>28.0</ele><time>2026-04-18T08:43:06.001Z</time></trkpt><trkpt lat="42.16134669375453" lon="12.646524058578915"><ele>28.0</ele><time>2026-04-18T08:43:07.001Z</time></trkpt><trkpt lat="42.16146699437711" lon="12.646564894001633"><ele>28.4</ele><time>2026-04-18T08:43:08.001Z</time></trkpt><trkpt lat="42.161572516710464" lon="12.64663935502424"><ele>28.799999999999997</ele><time>2026-04-18T08:43:09Z</time></trkpt><trkpt lat="42.161651389261415" lon="12.646712204944787"><ele>29.2</ele><time>2026-04-18T08:43:10Z</time></trkpt><trkpt lat="42.161712232729265" lon="12.64677996427618"><ele>29.6</ele><time>2026-04-18T08:43:11Z</time></trkpt><trkpt lat="42.161795866081995" lon="12.64682823900641"><ele>30.0</ele><time>2026-04-18T08:43:12Z</time></trkpt><trkpt lat="42.16186462625404" lon="12.646998826695484"><ele>30.6</ele><time>2026-04-18T08:43:13Z</time></trkpt><trkpt lat="42.161951252073" lon="12.64713334478487"><ele>31.2</ele><time>2026-04-18T08:43:14Z</time></trkpt><trkpt lat="42.16201919772151" lon="12.647248514388327"><ele>31.799999999999997</ele><time>2026-04-18T08:43:15Z</time></trkpt><trkpt lat="42.16207502737189" lon="12.647340858989208"><ele>32.4</ele><time>2026-04-18T08:43:16Z</time></trkpt><trkpt lat="42.16212684526922" lon="12.647410716267851"><ele>33.0</ele><time>2026-04-18T08:43:17Z</time></trkpt><trkpt lat="42.16217705391885" lon="12.64747780426061"><ele>33.0</ele><time>2026-04-18T08:43:18Z</time></trkpt><trkpt lat="42.16224242101777" lon="12.647572898091783"><ele>33.0</ele><time>2026-04-18T08:43:19Z</time></trkpt><trkpt lat="42.16233423813182" lon="12.647635252922242"><ele>33.0</ele><time>2026-04-18T08:43:20Z</time></trkpt><trkpt lat="42.16244615508417" lon="12.647632126911914"><ele>33.0</ele><time>2026-04-18T08:43:21Z</time></trkpt><trkpt lat="42.16256282144436" lon="12.647600846882062"><ele>33.0</ele><time>2026-04-18T08:43:22Z</time></trkpt><trkpt lat="42.16269254148097" lon="12.64752447328244"><ele>34.0</ele><time>2026-04-18T08:43:23Z</time></trkpt><trkpt lat="42.16281451059597" lon="12.647441120583235"><ele>35.0</ele><time>2026-04-18T08:43:24Z</time></trkpt><trkpt lat="42.16291412483377" lon="12.647357609724924"><ele>36.0</ele><time>2026-04-18T08:43:25Z</time></trkpt><trkpt lat="42.162997584131524" lon="12.647273420041554"><ele>37.0</ele><time>2026-04-18T08:43:26Z</time></trkpt><trkpt lat="42.16305592649555" lon="12.647160889383327"><ele>37.0</ele><time>2026-04-18T08:43:27Z</time></trkpt><trkpt lat="42.16307334563502" lon="12.647010246773311"><ele>37.0</ele><time>2026-04-18T08:43:28Z</time></trkpt><trkpt lat="42.163036855249764" lon="12.646844729220861"><ele>37.0</ele><time>2026-04-18T08:43:29Z</time></trkpt><trkpt lat="42.16299975572041" lon="12.64669821094516"><ele>37.0</ele><time>2026-04-18T08:43:30Z</time></trkpt><trkpt lat="42.16312847921253" lon="12.646519720861782"><ele>36.333333333333336</ele><time>2026-04-18T08:43:31Z</time></trkpt><trkpt lat="42.16323476582261" lon="12.64633847115428"><ele>35.666666666666664</ele><time>2026-04-18T08:43:32Z</time></trkpt><trkpt lat="42.16332177103662" lon="12.646154044192006"><ele>35.0</ele><time>2026-04-18T08:43:33Z</time></trkpt><trkpt lat="42.163398839533336" lon="12.645972464461455"><ele>34.25</ele><time>2026-04-18T08:43:34Z</time></trkpt><trkpt lat="42.16348175410316" lon="12.645800150495708"><ele>33.5</ele><time>2026-04-18T08:43:35Z</time></trkpt><trkpt lat="42.163563512073814" lon="12.64564241485358"><ele>32.75</ele><time>2026-04-18T08:43:36Z</time></trkpt><trkpt lat="42.163645732308275" lon="12.645489204730941"><ele>32.0</ele><time>2026-04-18T08:43:37Z</time></trkpt><trkpt lat="42.16373414532981" lon="12.645332717165061"><ele>31.75</ele><time>2026-04-18T08:43:38Z</time></trkpt><trkpt lat="42.163824237500116" lon="12.64517841078505"><ele>31.5</ele><time>2026-04-18T08:43:39Z</time></trkpt><trkpt lat="42.16391231872889" lon="12.645022005721167"><ele>31.25</ele><time>2026-04-18T08:43:40Z</time></trkpt><trkpt lat="42.163997256409985" lon="12.644863031307777"><ele>31.0</ele><time>2026-04-18T08:43:41Z</time></trkpt><trkpt lat="42.16408083926903" lon="12.644707257564315"><ele>31.0</ele><time>2026-04-18T08:43:42Z</time></trkpt><trkpt lat="42.16417065883803" lon="12.644556238597298"><ele>31.0</ele><time>2026-04-18T08:43:43Z</time></trkpt><trkpt lat="42.16426352308789" lon="12.644409560485643"><ele>31.0</ele><time>2026-04-18T08:43:44Z</time></trkpt><trkpt lat="42.16435944858275" lon="12.644264558465121"><ele>31.0</ele><time>2026-04-18T08:43:45Z</time></trkpt><trkpt lat="42.16445677981304" lon="12.644125037188585"><ele>31.0</ele><time>2026-04-18T08:43:46Z</time></trkpt><trkpt lat="42.16455527902474" lon="12.643983573426937"><ele>31.0</ele><time>2026-04-18T08:43:47Z</time></trkpt><trkpt lat="42.16465732486643" lon="12.64384534367779"><ele>31.0</ele><time>2026-04-18T08:43:48Z</time></trkpt><trkpt lat="42.1647640804302" lon="12.643708850561142"><ele>31.0</ele><time>2026-04-18T08:43:49Z</time></trkpt><trkpt lat="42.16486988489651" lon="12.643568323571419"><ele>31.0</ele><time>2026-04-18T08:43:50Z</time></trkpt><trkpt lat="42.16497818846464" lon="12.643426650579723"><ele>31.0</ele><time>2026-04-18T08:43:51Z</time></trkpt><trkpt lat="42.16508650664193" lon="12.643292967513986"><ele>31.0</ele><time>2026-04-18T08:43:52Z</time></trkpt><trkpt lat="42.165196694484436" lon="12.643160586711009"><ele>31.0</ele><time>2026-04-18T08:43:53Z</time></trkpt><trkpt lat="42.16531186822711" lon="12.643037737656659"><ele>31.0</ele><time>2026-04-18T08:43:54Z</time></trkpt><trkpt lat="42.165425000249456" lon="12.642918720271542"><ele>31.0</ele><time>2026-04-18T08:43:55Z</time></trkpt><trkpt lat="42.16553678103057" lon="12.642802200548854"><ele>31.0</ele><time>2026-04-18T08:43:56Z</time></trkpt><trkpt lat="42.1656474067231" lon="12.64268624016857"><ele>31.0</ele><time>2026-04-18T08:43:57Z</time></trkpt><trkpt lat="42.16575783697257" lon="12.642573630561365"><ele>31.25</ele><time>2026-04-18T08:43:58Z</time></trkpt><trkpt lat="42.16586905759914" lon="12.64246023871686"><ele>31.5</ele><time>2026-04-18T08:43:59Z</time></trkpt><trkpt lat="42.16597550340907" lon="12.642342869777943"><ele>31.75</ele><time>2026-04-18T08:44:00Z</time></trkpt><trkpt lat="42.166078407184536" lon="12.642227360463648"><ele>32.0</ele><time>2026-04-18T08:44:01Z</time></trkpt><trkpt lat="42.166166604378496" lon="12.642127491966864"><ele>31.999999999999996</ele><time>2026-04-18T08:44:02Z</time></trkpt><trkpt lat="42.16624894473806" lon="12.642051950285792"><ele>32.0</ele><time>2026-04-18T08:44:03Z</time></trkpt><trkpt lat="42.16632442686975" lon="12.642013956054914"><ele>32.0</ele><time>2026-04-18T08:44:04Z</time></trkpt><trkpt lat="42.16640809978758" lon="12.642016230165739"><ele>32.0</ele><time>2026-04-18T08:44:05Z</time></trkpt><trkpt lat="42.1665033210434" lon="12.642038495487707"><ele>31.999999999999996</ele><time>2026-04-18T08:44:06Z</time></trkpt><trkpt lat="42.166590751888236" lon="12.642030758669232"><ele>32.0</ele><time>2026-04-18T08:44:07Z</time></trkpt><trkpt lat="42.16663641502445" lon="12.641939546151864"><ele>32.0</ele><time>2026-04-18T08:44:08Z</time></trkpt><trkpt lat="42.166642587759014" lon="12.641811574909829"><ele>32.0</ele><time>2026-04-18T08:44:09Z</time></trkpt><trkpt lat="42.166628485551456" lon="12.641650428708209"><ele>32.0</ele><time>2026-04-18T08:44:10Z</time></trkpt><trkpt lat="42.166626243792734" lon="12.641494335939857"><ele>32.0</ele><time>2026-04-18T08:44:11Z</time></trkpt><trkpt lat="42.16663476936298" lon="12.641352032278624"><ele>32.0</ele><time>2026-04-18T08:44:12Z</time></trkpt><trkpt lat="42.1667643680256" lon="12.641213170656703"><ele>31.5</ele><time>2026-04-18T08:44:13Z</time></trkpt><trkpt lat="42.16685253790424" lon="12.641041733591495"><ele>31.0</ele><time>2026-04-18T08:44:14Z</time></trkpt><trkpt lat="42.16694433643175" lon="12.640900202439393"><ele>30.5</ele><time>2026-04-18T08:44:15Z</time></trkpt><trkpt lat="42.167033173393826" lon="12.640755391617025"><ele>30.0</ele><time>2026-04-18T08:44:16Z</time></trkpt><trkpt lat="42.16712319635411" lon="12.640600171099143"><ele>30.0</ele><time>2026-04-18T08:44:17Z</time></trkpt><trkpt lat="42.167210795262044" lon="12.640444600498972"><ele>30.0</ele><time>2026-04-18T08:44:18Z</time></trkpt><trkpt lat="42.16728722515394" lon="12.6403082263464"><ele>30.0</ele><time>2026-04-18T08:44:19Z</time></trkpt><trkpt lat="42.16736386295024" lon="12.640177039627986"><ele>30.0</ele><time>2026-04-18T08:44:20Z</time></trkpt><trkpt lat="42.16745365055841" lon="12.640031762116307"><ele>29.75</ele><time>2026-04-18T08:44:21Z</time></trkpt><trkpt lat="42.167541275893875" lon="12.63988225684843"><ele>29.5</ele><time>2026-04-18T08:44:22Z</time></trkpt><trkpt lat="42.167635807739686" lon="12.639736578525632"><ele>29.25</ele><time>2026-04-18T08:44:23Z</time></trkpt><trkpt lat="42.16772679159594" lon="12.639592427159561"><ele>29.0</ele><time>2026-04-18T08:44:24Z</time></trkpt><trkpt lat="42.16782097347845" lon="12.639448229893986"><ele>29.0</ele><time>2026-04-18T08:44:25Z</time></trkpt><trkpt lat="42.16791909956875" lon="12.639301737168479"><ele>29.0</ele><time>2026-04-18T08:44:26Z</time></trkpt><trkpt lat="42.168020821188016" lon="12.639152353498918"><ele>29.0</ele><time>2026-04-18T08:44:27Z</time></trkpt><trkpt lat="42.16812126394776" lon="12.638999397588538"><ele>29.0</ele><time>2026-04-18T08:44:28Z</time></trkpt><trkpt lat="42.16821156667805" lon="12.638864559239359"><ele>29.25</ele><time>2026-04-18T08:44:29Z</time></trkpt><trkpt lat="42.168297457046954" lon="12.638728702269207"><ele>29.5</ele><time>2026-04-18T08:44:30Z</time></trkpt><trkpt lat="42.16838394596836" lon="12.638581335786505"><ele>29.75</ele><time>2026-04-18T08:44:31Z</time></trkpt><trkpt lat="42.16847011263934" lon="12.63842966465717"><ele>30.0</ele><time>2026-04-18T08:44:32Z</time></trkpt><trkpt lat="42.16855325640466" lon="12.638290930067157"><ele>30.0</ele><time>2026-04-18T08:44:33Z</time></trkpt><trkpt lat="42.168633092143885" lon="12.638154021593238"><ele>30.0</ele><time>2026-04-18T08:44:34Z</time></trkpt><trkpt lat="42.1687190431957" lon="12.638020074235783"><ele>30.0</ele><time>2026-04-18T08:44:35Z</time></trkpt><trkpt lat="42.16881644941336" lon="12.637894373876051"><ele>30.0</ele><time>2026-04-18T08:44:36Z</time></trkpt><trkpt lat="42.168925874867284" lon="12.637773422622054"><ele>30.0</ele><time>2026-04-18T08:44:37Z</time></trkpt><trkpt lat="42.169023148794686" lon="12.637672362634813"><ele>30.0</ele><time>2026-04-18T08:44:38Z</time></trkpt><trkpt lat="42.169094087965235" lon="12.637604274987938"><ele>30.0</ele><time>2026-04-18T08:44:39Z</time></trkpt><trkpt lat="42.16915289320823" lon="12.637542264336481"><ele>30.0</ele><time>2026-04-18T08:44:40Z</time></trkpt><trkpt lat="42.16921168045706" lon="12.637477440710208"><ele>30.0</ele><time>2026-04-18T08:44:41Z</time></trkpt><trkpt lat="42.16927628694612" lon="12.637417519792878"><ele>30.0</ele><time>2026-04-18T08:44:42Z</time></trkpt><trkpt lat="42.1693473054847" lon="12.637351747715835"><ele>30.0</ele><time>2026-04-18T08:44:43Z</time></trkpt><trkpt lat="42.169418900559634" lon="12.637285970116958"><ele>30.0</ele><time>2026-04-18T08:44:44Z</time></trkpt><trkpt lat="42.16948832485564" lon="12.63721529217011"><ele>30.0</ele><time>2026-04-18T08:44:45Z</time></trkpt><trkpt lat="42.169553548982854" lon="12.637149762199838"><ele>30.0</ele><time>2026-04-18T08:44:46Z</time></trkpt><trkpt lat="42.16961559000578" lon="12.637091697304383"><ele>30.0</ele><time>2026-04-18T08:44:47Z</time></trkpt><trkpt lat="42.16968961231885" lon="12.637027518046189"><ele>30.0</ele><time>2026-04-18T08:44:48Z</time></trkpt><trkpt lat="42.16976443571456" lon="12.636955719030237"><ele>29.75</ele><time>2026-04-18T08:44:49Z</time></trkpt><trkpt lat="42.16984835310463" lon="12.63686798174534"><ele>29.5</ele><time>2026-04-18T08:44:50Z</time></trkpt><trkpt lat="42.16993745418229" lon="12.636775869521903"><ele>29.25</ele><time>2026-04-18T08:44:51Z</time></trkpt><trkpt lat="42.1700289624859" lon="12.636682450679052"><ele>29.0</ele><time>2026-04-18T08:44:52Z</time></trkpt><trkpt lat="42.17012617411854" lon="12.63658313028103"><ele>29.5</ele><time>2026-04-18T08:44:53Z</time></trkpt><trkpt lat="42.17022819102243" lon="12.636473888424693"><ele>30.0</ele><time>2026-04-18T08:44:54Z</time></trkpt><trkpt lat="42.17035275361363" lon="12.636368477523087"><ele>30.5</ele><time>2026-04-18T08:44:55Z</time></trkpt><trkpt lat="42.170440955020084" lon="12.636262155073577"><ele>31.0</ele><time>2026-04-18T08:44:56Z</time></trkpt><trkpt lat="42.170523657679986" lon="12.636199716464397"><ele>30.6</ele><time>2026-04-18T08:44:57Z</time></trkpt><trkpt lat="42.17059658611946" lon="12.636127836790417"><ele>30.200000000000003</ele><time>2026-04-18T08:44:58Z</time></trkpt><trkpt lat="42.17067334167161" lon="12.636049219769443"><ele>29.799999999999997</ele><time>2026-04-18T08:44:59Z</time></trkpt><trkpt lat="42.1707371130765" lon="12.635983901792383"><ele>29.4</ele><time>2026-04-18T08:45:00Z</time></trkpt><trkpt lat="42.17079805012965" lon="12.63592148672518"><ele>29.0</ele><time>2026-04-18T08:45:01Z</time></trkpt><trkpt lat="42.17090374969334" lon="12.63581472790318"><ele>29.25</ele><time>2026-04-18T08:45:03Z</time></trkpt><trkpt lat="42.17089446801861" lon="12.635603795317722"><ele>29.5</ele><time>2026-04-18T08:45:04Z</time></trkpt><trkpt lat="42.17095431589889" lon="12.635468128141323"><ele>29.75</ele><time>2026-04-18T08:45:05Z</time></trkpt><trkpt lat="42.17102091317544" lon="12.635341807749688"><ele>30.0</ele><time>2026-04-18T08:45:06Z</time></trkpt><trkpt lat="42.17108207856818" lon="12.635235456653072"><ele>30.0</ele><time>2026-04-18T08:45:07Z</time></trkpt><trkpt lat="42.17113884791544" lon="12.635143986468357"><ele>30.0</ele><time>2026-04-18T08:45:08Z</time></trkpt><trkpt lat="42.1711868358075" lon="12.635047018757199"><ele>30.0</ele><time>2026-04-18T08:45:09Z</time></trkpt><trkpt lat="42.171226085570446" lon="12.634964994279864"><ele>30.0</ele><time>2026-04-18T08:45:10Z</time></trkpt><trkpt lat="42.17125745485947" lon="12.634843794936838"><ele>30.0</ele><time>2026-04-18T08:45:12Z</time></trkpt><trkpt lat="42.17127289034849" lon="12.634656802681624"><ele>30.0</ele><time>2026-04-18T08:45:37Z</time></trkpt><trkpt lat="42.171268596557596" lon="12.63456974959642"><ele>30.0</ele><time>2026-04-18T08:45:38Z</time></trkpt><trkpt lat="42.17126681081167" lon="12.63445693073151"><ele>30.0</ele><time>2026-04-18T08:45:40Z</time></trkpt><trkpt lat="42.171293624262994" lon="12.634318446036957"><ele>30.0</ele><time>2026-04-18T08:48:54Z</time></trkpt><trkpt lat="42.171332923659804" lon="12.634230662713335"><ele>30.0</ele><time>2026-04-18T08:48:55Z</time></trkpt><trkpt lat="42.17139665655975" lon="12.634131515091678"><ele>30.0</ele><time>2026-04-18T08:48:56Z</time></trkpt><trkpt lat="42.17146977215535" lon="12.63400326354508"><ele>30.0</ele><time>2026-04-18T08:48:57Z</time></trkpt><trkpt lat="42.1715584403244" lon="12.633889295456758"><ele>30.0</ele><time>2026-04-18T08:48:58Z</time></trkpt><trkpt lat="42.171661593236564" lon="12.633767308309947"><ele>30.0</ele><time>2026-04-18T08:48:59Z</time></trkpt><trkpt lat="42.171781803649864" lon="12.633638480865526"><ele>30.0</ele><time>2026-04-18T08:49:00Z</time></trkpt><trkpt lat="42.171917626655535" lon="12.63343771770806"><ele>29.666666666666664</ele><time>2026-04-18T08:49:01Z</time></trkpt><trkpt lat="42.17206280637059" lon="12.633261084061576"><ele>29.333333333333332</ele><time>2026-04-18T08:49:02Z</time></trkpt><trkpt lat="42.17216571484536" lon="12.633105473522539"><ele>29.0</ele><time>2026-04-18T08:49:03Z</time></trkpt><trkpt lat="42.172265985615866" lon="12.632961947171834"><ele>29.5</ele><time>2026-04-18T08:49:04Z</time></trkpt><trkpt lat="42.172371372315816" lon="12.632816905913485"><ele>30.0</ele><time>2026-04-18T08:49:05Z</time></trkpt><trkpt lat="42.17246027771917" lon="12.632695725533535"><ele>30.5</ele><time>2026-04-18T08:49:06Z</time></trkpt><trkpt lat="42.172538531058585" lon="12.632594086483522"><ele>31.0</ele><time>2026-04-18T08:49:07Z</time></trkpt><trkpt lat="42.172617097178204" lon="12.632502742875559"><ele>31.0</ele><time>2026-04-18T08:49:08Z</time></trkpt><trkpt lat="42.172690944850245" lon="12.632419969471794"><ele>31.0</ele><time>2026-04-18T08:49:09Z</time></trkpt><trkpt lat="42.172756669796485" lon="12.63233889842766"><ele>31.0</ele><time>2026-04-18T08:49:10Z</time></trkpt><trkpt lat="42.172803108297856" lon="12.632274988547163"><ele>31.0</ele><time>2026-04-18T08:49:11Z</time></trkpt><trkpt lat="42.17286418532961" lon="12.632169756629951"><ele>31.0</ele><time>2026-04-18T08:49:13Z</time></trkpt><trkpt lat="42.17293514754499" lon="12.63207257742506"><ele>30.8</ele><time>2026-04-18T08:49:15Z</time></trkpt><trkpt lat="42.17299427711618" lon="12.631972941269423"><ele>30.6</ele><time>2026-04-18T08:49:17Z</time></trkpt><trkpt lat="42.17304913149762" lon="12.631884955967967"><ele>30.4</ele><time>2026-04-18T08:49:19Z</time></trkpt><trkpt lat="42.17311163183888" lon="12.631787692136704"><ele>30.2</ele><time>2026-04-18T08:49:21Z</time></trkpt><trkpt lat="42.17317180327739" lon="12.631696865297783"><ele>30.0</ele><time>2026-04-18T08:49:23Z</time></trkpt><trkpt lat="42.173232796237706" lon="12.63161346115274"><ele>29.833333333333332</ele><time>2026-04-18T08:49:24.999Z</time></trkpt><trkpt lat="42.17329066239347" lon="12.631547229045685"><ele>29.666666666666664</ele><time>2026-04-18T08:49:26.999Z</time></trkpt><trkpt lat="42.17335979035147" lon="12.631483941810782"><ele>29.5</ele><time>2026-04-18T08:49:28.999Z</time></trkpt><trkpt lat="42.173433317268874" lon="12.631440127527194"><ele>29.333333333333332</ele><time>2026-04-18T08:49:30.999Z</time></trkpt><trkpt lat="42.17351077552228" lon="12.631405528358878"><ele>29.166666666666664</ele><time>2026-04-18T08:49:32.999Z</time></trkpt><trkpt lat="42.17359204713169" lon="12.631375437058761"><ele>29.0</ele><time>2026-04-18T08:49:36Z</time></trkpt><trkpt lat="42.17366635515242" lon="12.631350424079052"><ele>28.999999999999996</ele><time>2026-04-18T08:49:38Z</time></trkpt><trkpt lat="42.173779089770946" lon="12.63131758652431"><ele>29.0</ele><time>2026-04-18T08:49:40Z</time></trkpt><trkpt lat="42.1738475382474" lon="12.631315419890056"><ele>29.0</ele><time>2026-04-18T08:49:41Z</time></trkpt><trkpt lat="42.17395557765695" lon="12.631327371526087"><ele>29.0</ele><time>2026-04-18T08:49:43Z</time></trkpt><trkpt lat="42.174015434016376" lon="12.631369945722808"><ele>28.999999999999996</ele><time>2026-04-18T08:49:44Z</time></trkpt><trkpt lat="42.174081416212" lon="12.631439054532652"><ele>29.0</ele><time>2026-04-18T08:49:45Z</time></trkpt><trkpt lat="42.174141722749155" lon="12.631493267917502"><ele>28.999999999999996</ele><time>2026-04-18T08:49:46Z</time></trkpt><trkpt lat="42.17420451349525" lon="12.631545670592134"><ele>29.0</ele><time>2026-04-18T08:49:47Z</time></trkpt><trkpt lat="42.17427293370075" lon="12.631585014100429"><ele>29.0</ele><time>2026-04-18T08:49:48Z</time></trkpt><trkpt lat="42.17434526557718" lon="12.631608021251479"><ele>29.0</ele><time>2026-04-18T08:49:49Z</time></trkpt><trkpt lat="42.17441978955143" lon="12.631607423046123"><ele>28.999999999999996</ele><time>2026-04-18T08:49:50Z</time></trkpt><trkpt lat="42.17449057624461" lon="12.631582137447301"><ele>29.0</ele><time>2026-04-18T08:49:51Z</time></trkpt><trkpt lat="42.17457632861933" lon="12.631578782488749"><ele>29.0</ele><time>2026-04-18T08:49:52Z</time></trkpt><trkpt lat="42.17466439486677" lon="12.631543726769467"><ele>29.0</ele><time>2026-04-18T08:49:53Z</time></trkpt><trkpt lat="42.17474819064283" lon="12.631481582709098"><ele>29.0</ele><time>2026-04-18T08:49:54Z</time></trkpt><trkpt lat="42.174835533496775" lon="12.631440960695413"><ele>29.0</ele><time>2026-04-18T08:49:55Z</time></trkpt><trkpt lat="42.17493105077096" lon="12.631374048610283"><ele>29.0</ele><time>2026-04-18T08:49:56Z</time></trkpt><trkpt lat="42.175028163222265" lon="12.631325115373805"><ele>30.25</ele><time>2026-04-18T08:49:57Z</time></trkpt><trkpt lat="42.17512838935291" lon="12.63125803735377"><ele>31.5</ele><time>2026-04-18T08:49:58Z</time></trkpt><trkpt lat="42.17522436378689" lon="12.631169089806834"><ele>32.75</ele><time>2026-04-18T08:49:59Z</time></trkpt><trkpt lat="42.175333827311384" lon="12.631093405898314"><ele>34.0</ele><time>2026-04-18T08:50:00Z</time></trkpt><trkpt lat="42.175447853377584" lon="12.631024513339682"><ele>36.25</ele><time>2026-04-18T08:50:01Z</time></trkpt><trkpt lat="42.175555312842306" lon="12.630942362454139"><ele>38.5</ele><time>2026-04-18T08:50:02Z</time></trkpt><trkpt lat="42.17566622138752" lon="12.63085997075983"><ele>40.75</ele><time>2026-04-18T08:50:03Z</time></trkpt><trkpt lat="42.175777384418396" lon="12.630786964394467"><ele>43.0</ele><time>2026-04-18T08:50:04Z</time></trkpt><trkpt lat="42.17586832008389" lon="12.63068517008514"><ele>43.75</ele><time>2026-04-18T08:50:05Z</time></trkpt><trkpt lat="42.17596792303282" lon="12.630589559576944"><ele>44.5</ele><time>2026-04-18T08:50:06Z</time></trkpt><trkpt lat="42.17607006095707" lon="12.63049580847697"><ele>45.25</ele><time>2026-04-18T08:50:07Z</time></trkpt><trkpt lat="42.17618589967436" lon="12.630420659771332"><ele>46.0</ele><time>2026-04-18T08:50:08Z</time></trkpt><trkpt lat="42.176287588307346" lon="12.63030326804031"><ele>47.5</ele><time>2026-04-18T08:50:09Z</time></trkpt><trkpt lat="42.176400141942025" lon="12.630218231386534"><ele>49.0</ele><time>2026-04-18T08:50:10Z</time></trkpt><trkpt lat="42.176485846935094" lon="12.630102948963641"><ele>50.5</ele><time>2026-04-18T08:50:11Z</time></trkpt><trkpt lat="42.176560555166844" lon="12.629971896655432"><ele>52.0</ele><time>2026-04-18T08:50:12Z</time></trkpt><trkpt lat="42.176632322051" lon="12.629856920138318"><ele>52.2</ele><time>2026-04-18T08:50:13Z</time></trkpt><trkpt lat="42.17671555041251" lon="12.629756309589784"><ele>52.400000000000006</ele><time>2026-04-18T08:50:14Z</time></trkpt><trkpt lat="42.17678643603064" lon="12.629671780446266"><ele>52.599999999999994</ele><time>2026-04-18T08:50:15Z</time></trkpt><trkpt lat="42.176878365688474" lon="12.629597498848241"><ele>52.8</ele><time>2026-04-18T08:50:16Z</time></trkpt><trkpt lat="42.17699182284072" lon="12.629523279914933"><ele>53.0</ele><time>2026-04-18T08:50:17Z</time></trkpt><trkpt lat="42.177108269684204" lon="12.62946630454876"><ele>54.0</ele><time>2026-04-18T08:50:18Z</time></trkpt><trkpt lat="42.177216387078374" lon="12.629418519173628"><ele>55.0</ele><time>2026-04-18T08:50:19Z</time></trkpt><trkpt lat="42.1773345870009" lon="12.629377702710064"><ele>56.0</ele><time>2026-04-18T08:50:20Z</time></trkpt><trkpt lat="42.177454699922" lon="12.62933595412522"><ele>57.0</ele><time>2026-04-18T08:50:21Z</time></trkpt><trkpt lat="42.17758030707175" lon="12.629296403997364"><ele>57.5</ele><time>2026-04-18T08:50:22Z</time></trkpt><trkpt lat="42.17770219578431" lon="12.629256283581663"><ele>58.0</ele><time>2026-04-18T08:50:23Z</time></trkpt><trkpt lat="42.17783036193164" lon="12.629213804308854"><ele>58.5</ele><time>2026-04-18T08:50:24Z</time></trkpt><trkpt lat="42.1779565391657" lon="12.629175163715379"><ele>59.0</ele><time>2026-04-18T08:50:25Z</time></trkpt><trkpt lat="42.178085951614804" lon="12.629143814058812"><ele>60.2</ele><time>2026-04-18T08:50:26Z</time></trkpt><trkpt lat="42.17819685008507" lon="12.629096861542697"><ele>61.400000000000006</ele><time>2026-04-18T08:50:27Z</time></trkpt><trkpt lat="42.17828571358708" lon="12.629003656875145"><ele>62.6</ele><time>2026-04-18T08:50:28Z</time></trkpt><trkpt lat="42.178363909498586" lon="12.628936045814905"><ele>63.8</ele><time>2026-04-18T08:50:29Z</time></trkpt><trkpt lat="42.178438041828876" lon="12.628863025276594"><ele>65.0</ele><time>2026-04-18T08:50:30Z</time></trkpt><trkpt lat="42.17854116693581" lon="12.628782361434256"><ele>65.0</ele><time>2026-04-18T08:50:31Z</time></trkpt><trkpt lat="42.178666390986244" lon="12.628705494962475"><ele>65.0</ele><time>2026-04-18T08:50:32Z</time></trkpt><trkpt lat="42.178792730217175" lon="12.62863354606049"><ele>65.0</ele><time>2026-04-18T08:50:33Z</time></trkpt><trkpt lat="42.1789074016" lon="12.628565927189978"><ele>65.0</ele><time>2026-04-18T08:50:34Z</time></trkpt><trkpt lat="42.17900267568109" lon="12.62849598534988"><ele>66.8</ele><time>2026-04-18T08:50:35Z</time></trkpt><trkpt lat="42.17906937559702" lon="12.628434173794883"><ele>68.6</ele><time>2026-04-18T08:50:36Z</time></trkpt><trkpt lat="42.179130281284266" lon="12.628370165404293"><ele>70.4</ele><time>2026-04-18T08:50:37Z</time></trkpt><trkpt lat="42.179203182073465" lon="12.628283507488415"><ele>72.2</ele><time>2026-04-18T08:50:38Z</time></trkpt><trkpt lat="42.179250625075895" lon="12.62812109191845"><ele>74.0</ele><time>2026-04-18T08:50:39Z</time></trkpt><trkpt lat="42.17930598710429" lon="12.627974303766216"><ele>74.0</ele><time>2026-04-18T08:50:40Z</time></trkpt><trkpt lat="42.17937531969501" lon="12.62782800219509"><ele>74.0</ele><time>2026-04-18T08:50:41Z</time></trkpt><trkpt lat="42.17946168685574" lon="12.62770292221745"><ele>74.0</ele><time>2026-04-18T08:50:42Z</time></trkpt><trkpt lat="42.1795392695526" lon="12.627548783533241"><ele>74.0</ele><time>2026-04-18T08:50:43Z</time></trkpt><trkpt lat="42.17962652953105" lon="12.627421424699657"><ele>74.25</ele><time>2026-04-18T08:50:44Z</time></trkpt><trkpt lat="42.179712907800926" lon="12.627302441156848"><ele>74.5</ele><time>2026-04-18T08:50:45Z</time></trkpt><trkpt lat="42.17980344037915" lon="12.627187694338181"><ele>74.75</ele><time>2026-04-18T08:50:46Z</time></trkpt><trkpt lat="42.179899471664335" lon="12.627066391527785"><ele>75.0</ele><time>2026-04-18T08:50:47Z</time></trkpt><trkpt lat="42.179993754982185" lon="12.626945820740342"><ele>76.4</ele><time>2026-04-18T08:50:48Z</time></trkpt><trkpt lat="42.18007779206277" lon="12.626834181283751"><ele>77.8</ele><time>2026-04-18T08:50:49Z</time></trkpt><trkpt lat="42.180160131541484" lon="12.626731907179776"><ele>79.19999999999999</ele><time>2026-04-18T08:50:50Z</time></trkpt><trkpt lat="42.180219239048945" lon="12.62661326883804"><ele>80.6</ele><time>2026-04-18T08:50:51Z</time></trkpt><trkpt lat="42.18026912583028" lon="12.626490171753794"><ele>82.0</ele><time>2026-04-18T08:50:52Z</time></trkpt><trkpt lat="42.18031130372628" lon="12.626352661622303"><ele>82.0</ele><time>2026-04-18T08:50:53Z</time></trkpt><trkpt lat="42.18035278952766" lon="12.626181615100636"><ele>82.0</ele><time>2026-04-18T08:50:54Z</time></trkpt><trkpt lat="42.1803931468351" lon="12.626024003239657"><ele>82.0</ele><time>2026-04-18T08:50:55Z</time></trkpt><trkpt lat="42.18042076508704" lon="12.625870630949963"><ele>82.0</ele><time>2026-04-18T08:50:56Z</time></trkpt><trkpt lat="42.18042654713263" lon="12.625709000391598"><ele>82.19999999999999</ele><time>2026-04-18T08:50:57Z</time></trkpt><trkpt lat="42.18043294638883" lon="12.625558336297518"><ele>82.4</ele><time>2026-04-18T08:50:58Z</time></trkpt><trkpt lat="42.18044339909523" lon="12.625426461226098"><ele>82.6</ele><time>2026-04-18T08:50:59Z</time></trkpt><trkpt lat="42.18046446168143" lon="12.625291885761154"><ele>82.80000000000001</ele><time>2026-04-18T08:51:00Z</time></trkpt><trkpt lat="42.18053205082654" lon="12.62516515488121"><ele>83.0</ele><time>2026-04-18T08:51:01Z</time></trkpt><trkpt lat="42.180615690791015" lon="12.625026600162249"><ele>81.0</ele><time>2026-04-18T08:51:02Z</time></trkpt><trkpt lat="42.18072559344262" lon="12.624893279747047"><ele>79.0</ele><time>2026-04-18T08:51:03Z</time></trkpt><trkpt lat="42.18084252666251" lon="12.624796938007641"><ele>77.0</ele><time>2026-04-18T08:51:04Z</time></trkpt><trkpt lat="42.18094735220022" lon="12.624727764129057"><ele>75.0</ele><time>2026-04-18T08:51:05Z</time></trkpt><trkpt lat="42.18104899495434" lon="12.62466869488348"><ele>75.0</ele><time>2026-04-18T08:51:06Z</time></trkpt><trkpt lat="42.18118139465616" lon="12.624605289285999"><ele>75.0</ele><time>2026-04-18T08:51:07Z</time></trkpt><trkpt lat="42.18133673070924" lon="12.624530788673148"><ele>75.0</ele><time>2026-04-18T08:51:08Z</time></trkpt><trkpt lat="42.181466806716465" lon="12.62443876994276"><ele>76.25</ele><time>2026-04-18T08:51:09Z</time></trkpt><trkpt lat="42.181580580605555" lon="12.624374133615254"><ele>77.5</ele><time>2026-04-18T08:51:10Z</time></trkpt><trkpt lat="42.181695572476976" lon="12.624331218670068"><ele>78.75</ele><time>2026-04-18T08:51:11Z</time></trkpt><trkpt lat="42.18181363172156" lon="12.624269120884492"><ele>80.0</ele><time>2026-04-18T08:51:12Z</time></trkpt><trkpt lat="42.181931062230326" lon="12.624216322785742"><ele>80.0</ele><time>2026-04-18T08:51:13Z</time></trkpt><trkpt lat="42.182047816832494" lon="12.624176360967445"><ele>80.0</ele><time>2026-04-18T08:51:14Z</time></trkpt><trkpt lat="42.18217019822973" lon="12.624138252961625"><ele>80.0</ele><time>2026-04-18T08:51:15Z</time></trkpt><trkpt lat="42.182283214284176" lon="12.624106576948513"><ele>80.0</ele><time>2026-04-18T08:51:16Z</time></trkpt><trkpt lat="42.182397425138426" lon="12.624084063323167"><ele>80.5</ele><time>2026-04-18T08:51:17Z</time></trkpt><trkpt lat="42.18251773755293" lon="12.624062470308774"><ele>81.0</ele><time>2026-04-18T08:51:18Z</time></trkpt><trkpt lat="42.18263655692834" lon="12.624041734308076"><ele>81.5</ele><time>2026-04-18T08:51:19Z</time></trkpt><trkpt lat="42.18276278375285" lon="12.623997785425773"><ele>82.0</ele><time>2026-04-18T08:51:20Z</time></trkpt><trkpt lat="42.18290035579321" lon="12.62398318935222"><ele>82.0</ele><time>2026-04-18T08:51:21Z</time></trkpt><trkpt lat="42.18304377047399" lon="12.623973368722353"><ele>82.0</ele><time>2026-04-18T08:51:22Z</time></trkpt><trkpt lat="42.18318482730917" lon="12.623948261555196"><ele>82.0</ele><time>2026-04-18T08:51:23Z</time></trkpt><trkpt lat="42.183326484690184" lon="12.623912816483871"><ele>82.0</ele><time>2026-04-18T08:51:24Z</time></trkpt><trkpt lat="42.18345266226145" lon="12.623879108778077"><ele>82.0</ele><time>2026-04-18T08:51:25Z</time></trkpt><trkpt lat="42.18357608960152" lon="12.623833902564694"><ele>82.0</ele><time>2026-04-18T08:51:26Z</time></trkpt><trkpt lat="42.183694720000524" lon="12.623791836803804"><ele>82.0</ele><time>2026-04-18T08:51:27Z</time></trkpt><trkpt lat="42.18381825314663" lon="12.62373113750332"><ele>82.0</ele><time>2026-04-18T08:51:28Z</time></trkpt><trkpt lat="42.18394111602752" lon="12.623660643633743"><ele>83.5</ele><time>2026-04-18T08:51:28.999Z</time></trkpt><trkpt lat="42.18406045197251" lon="12.623598512821868"><ele>85.0</ele><time>2026-04-18T08:51:29.999Z</time></trkpt><trkpt lat="42.18417997550541" lon="12.623530114595722"><ele>86.5</ele><time>2026-04-18T08:51:30.999Z</time></trkpt><trkpt lat="42.184279146012734" lon="12.623470460262562"><ele>88.0</ele><time>2026-04-18T08:51:31.999Z</time></trkpt><trkpt lat="42.18437284501725" lon="12.62340637268524"><ele>88.0</ele><time>2026-04-18T08:51:32.999Z</time></trkpt><trkpt lat="42.18447782635868" lon="12.62333642319937"><ele>88.0</ele><time>2026-04-18T08:51:33.999Z</time></trkpt><trkpt lat="42.18457710790549" lon="12.623280185617189"><ele>88.0</ele><time>2026-04-18T08:51:34.999Z</time></trkpt><trkpt lat="42.18466223986839" lon="12.62325316112299"><ele>88.0</ele><time>2026-04-18T08:51:35.999Z</time></trkpt><trkpt lat="42.18476391760604" lon="12.623230151229137"><ele>88.0</ele><time>2026-04-18T08:51:36.999Z</time></trkpt><trkpt lat="42.18489556730205" lon="12.623183775033276"><ele>88.0</ele><time>2026-04-18T08:51:37.999Z</time></trkpt><trkpt lat="42.18502496859204" lon="12.623130840994603"><ele>88.0</ele><time>2026-04-18T08:51:38.999Z</time></trkpt><trkpt lat="42.185135095598504" lon="12.623083566557062"><ele>88.0</ele><time>2026-04-18T08:51:39.999Z</time></trkpt><trkpt lat="42.18523793842049" lon="12.623032749239748"><ele>88.0</ele><time>2026-04-18T08:51:40.999Z</time></trkpt><trkpt lat="42.1853425060105" lon="12.622980871824137"><ele>88.0</ele><time>2026-04-18T08:51:41.999Z</time></trkpt><trkpt lat="42.18543392536971" lon="12.622934644020818"><ele>88.0</ele><time>2026-04-18T08:51:42.999Z</time></trkpt><trkpt lat="42.18552505286509" lon="12.622891880575711"><ele>88.0</ele><time>2026-04-18T08:51:43.999Z</time></trkpt><trkpt lat="42.18562815939384" lon="12.622846622205511"><ele>88.0</ele><time>2026-04-18T08:51:44.999Z</time></trkpt><trkpt lat="42.18573220649038" lon="12.622798125345241"><ele>88.0</ele><time>2026-04-18T08:51:45.999Z</time></trkpt><trkpt lat="42.18583157650819" lon="12.622739846933733"><ele>88.60000000000001</ele><time>2026-04-18T08:51:46.999Z</time></trkpt><trkpt lat="42.185925139022004" lon="12.62267941356538"><ele>89.2</ele><time>2026-04-18T08:51:47.999Z</time></trkpt><trkpt lat="42.18601574224984" lon="12.622620999176865"><ele>89.8</ele><time>2026-04-18T08:51:48.999Z</time></trkpt><trkpt lat="42.18609546983718" lon="12.622568417759034"><ele>90.4</ele><time>2026-04-18T08:51:49.999Z</time></trkpt><trkpt lat="42.186168353621795" lon="12.622517107262652"><ele>91.0</ele><time>2026-04-18T08:51:50.999Z</time></trkpt><trkpt lat="42.18623844012157" lon="12.622468666446737"><ele>91.0</ele><time>2026-04-18T08:51:51.999Z</time></trkpt><trkpt lat="42.18631054761477" lon="12.62241062365949"><ele>91.0</ele><time>2026-04-18T08:51:52.999Z</time></trkpt><trkpt lat="42.1863936656797" lon="12.622348716341742"><ele>91.0</ele><time>2026-04-18T08:51:53.999Z</time></trkpt><trkpt lat="42.18650156666925" lon="12.622303009985329"><ele>91.0</ele><time>2026-04-18T08:51:54.999Z</time></trkpt><trkpt lat="42.18661530750474" lon="12.622233560068935"><ele>91.0</ele><time>2026-04-18T08:51:55.999Z</time></trkpt><trkpt lat="42.18672068162635" lon="12.62214790871587"><ele>91.33333333333333</ele><time>2026-04-18T08:51:56.999Z</time></trkpt><trkpt lat="42.186820654661275" lon="12.622097752621059"><ele>91.66666666666666</ele><time>2026-04-18T08:51:57.999Z</time></trkpt><trkpt lat="42.18690267131383" lon="12.622045782832197"><ele>92.0</ele><time>2026-04-18T08:51:58.999Z</time></trkpt><trkpt lat="42.186976298160566" lon="12.621994788941441"><ele>92.33333333333333</ele><time>2026-04-18T08:51:59.999Z</time></trkpt><trkpt lat="42.187044965166464" lon="12.621955281628548"><ele>92.66666666666667</ele><time>2026-04-18T08:52:01Z</time></trkpt><trkpt lat="42.187102949312425" lon="12.621918955941068"><ele>93.0</ele><time>2026-04-18T08:52:02Z</time></trkpt><trkpt lat="42.18716308363293" lon="12.621878353179966"><ele>92.33333333333333</ele><time>2026-04-18T08:52:03Z</time></trkpt><trkpt lat="42.18723169532581" lon="12.621827226224468"><ele>91.66666666666667</ele><time>2026-04-18T08:52:04Z</time></trkpt><trkpt lat="42.18731421597758" lon="12.621768782877465"><ele>91.0</ele><time>2026-04-18T08:52:05Z</time></trkpt><trkpt lat="42.18740805739215" lon="12.621703937811414"><ele>90.33333333333334</ele><time>2026-04-18T08:52:06Z</time></trkpt><trkpt lat="42.18748562587127" lon="12.621653102527008"><ele>89.66666666666667</ele><time>2026-04-18T08:52:07Z</time></trkpt><trkpt lat="42.1875433689081" lon="12.621612315182034"><ele>89.0</ele><time>2026-04-18T08:52:08Z</time></trkpt><trkpt lat="42.18760261421858" lon="12.6215757868513"><ele>88.99999999999999</ele><time>2026-04-18T08:52:10Z</time></trkpt><trkpt lat="42.18767525369293" lon="12.621524106417262"><ele>89.0</ele><time>2026-04-18T08:52:12Z</time></trkpt><trkpt lat="42.187732163080994" lon="12.621479341655043"><ele>89.0</ele><time>2026-04-18T08:52:13Z</time></trkpt><trkpt lat="42.18779033108621" lon="12.621434633308548"><ele>89.0</ele><time>2026-04-18T08:52:14Z</time></trkpt><trkpt lat="42.187853535019805" lon="12.621393139946013"><ele>89.0</ele><time>2026-04-18T08:52:15Z</time></trkpt><trkpt lat="42.187917987392765" lon="12.6213520424875"><ele>88.99999999999999</ele><time>2026-04-18T08:52:16Z</time></trkpt><trkpt lat="42.18798823033391" lon="12.62130530022223"><ele>89.0</ele><time>2026-04-18T08:52:17Z</time></trkpt><trkpt lat="42.18806367006529" lon="12.621251948550565"><ele>89.0</ele><time>2026-04-18T08:52:18Z</time></trkpt><trkpt lat="42.18814815743657" lon="12.621183924939363"><ele>89.0</ele><time>2026-04-18T08:52:19Z</time></trkpt><trkpt lat="42.18824525342434" lon="12.6211121156112"><ele>89.0</ele><time>2026-04-18T08:52:20Z</time></trkpt><trkpt lat="42.18835141393329" lon="12.621037822277708"><ele>89.0</ele><time>2026-04-18T08:52:21Z</time></trkpt><trkpt lat="42.18846068303193" lon="12.62096226079902"><ele>90.0</ele><time>2026-04-18T08:52:22Z</time></trkpt><trkpt lat="42.18857402120776" lon="12.62089395036132"><ele>91.0</ele><time>2026-04-18T08:52:23Z</time></trkpt><trkpt lat="42.18869190865896" lon="12.620828766718455"><ele>92.0</ele><time>2026-04-18T08:52:24Z</time></trkpt><trkpt lat="42.18882071892529" lon="12.6207690047512"><ele>93.0</ele><time>2026-04-18T08:52:25Z</time></trkpt><trkpt lat="42.1889455675153" lon="12.620744055900055"><ele>93.60000000000001</ele><time>2026-04-18T08:52:26Z</time></trkpt><trkpt lat="42.18906571724813" lon="12.620730240507614"><ele>94.2</ele><time>2026-04-18T08:52:27Z</time></trkpt><trkpt lat="42.18916667047786" lon="12.620748003722397"><ele>94.8</ele><time>2026-04-18T08:52:28Z</time></trkpt><trkpt lat="42.18926389071466" lon="12.620764946521708"><ele>95.4</ele><time>2026-04-18T08:52:29Z</time></trkpt><trkpt lat="42.189367972553505" lon="12.620798838857867"><ele>96.0</ele><time>2026-04-18T08:52:30Z</time></trkpt><trkpt lat="42.189487759094476" lon="12.620851871797345"><ele>96.0</ele><time>2026-04-18T08:52:31Z</time></trkpt><trkpt lat="42.189612403068956" lon="12.620935557739493"><ele>96.0</ele><time>2026-04-18T08:52:32Z</time></trkpt><trkpt lat="42.18972962083643" lon="12.621057485039197"><ele>96.0</ele><time>2026-04-18T08:52:33Z</time></trkpt><trkpt lat="42.18984230589205" lon="12.621198783770359"><ele>96.0</ele><time>2026-04-18T08:52:34Z</time></trkpt><trkpt lat="42.18992903542931" lon="12.621339192144006"><ele>96.0</ele><time>2026-04-18T08:52:35Z</time></trkpt><trkpt lat="42.189994970749375" lon="12.621469014346124"><ele>96.0</ele><time>2026-04-18T08:52:36Z</time></trkpt><trkpt lat="42.190048778592015" lon="12.621602449834958"><ele>96.0</ele><time>2026-04-18T08:52:37Z</time></trkpt><trkpt lat="42.19010226075948" lon="12.621750312257538"><ele>96.0</ele><time>2026-04-18T08:52:38Z</time></trkpt><trkpt lat="42.19015917031859" lon="12.621910680461228"><ele>94.66666666666667</ele><time>2026-04-18T08:52:39Z</time></trkpt><trkpt lat="42.190235216055186" lon="12.622079959597023"><ele>93.33333333333334</ele><time>2026-04-18T08:52:40Z</time></trkpt><trkpt lat="42.190299232589076" lon="12.622279600476434"><ele>92.0</ele><time>2026-04-18T08:52:41Z</time></trkpt><trkpt lat="42.19037105516086" lon="12.622490775654667"><ele>92.0</ele><time>2026-04-18T08:52:42Z</time></trkpt><trkpt lat="42.19044580127517" lon="12.622714157285936"><ele>92.0</ele><time>2026-04-18T08:52:43Z</time></trkpt><trkpt lat="42.19051665810027" lon="12.622926965258763"><ele>92.0</ele><time>2026-04-18T08:52:44Z</time></trkpt><trkpt lat="42.19058698356003" lon="12.623115730016718"><ele>92.25</ele><time>2026-04-18T08:52:45Z</time></trkpt><trkpt lat="42.19065219648089" lon="12.623289557815877"><ele>92.5</ele><time>2026-04-18T08:52:46Z</time></trkpt><trkpt lat="42.190709078879586" lon="12.62345531633413"><ele>92.75</ele><time>2026-04-18T08:52:47Z</time></trkpt><trkpt lat="42.19077046177426" lon="12.623629267045931"><ele>93.0</ele><time>2026-04-18T08:52:48Z</time></trkpt><trkpt lat="42.19083653720823" lon="12.623802649491882"><ele>93.66666666666667</ele><time>2026-04-18T08:52:49Z</time></trkpt><trkpt lat="42.19092332108897" lon="12.623977581926479"><ele>94.33333333333334</ele><time>2026-04-18T08:52:50Z</time></trkpt><trkpt lat="42.191019914387454" lon="12.624156342098784"><ele>95.0</ele><time>2026-04-18T08:52:51Z</time></trkpt><trkpt lat="42.191129925976405" lon="12.624347580210399"><ele>95.33333333333334</ele><time>2026-04-18T08:52:52Z</time></trkpt><trkpt lat="42.191227114178254" lon="12.624521594210695"><ele>95.66666666666667</ele><time>2026-04-18T08:52:53Z</time></trkpt><trkpt lat="42.19132510862378" lon="12.624676490955592"><ele>96.0</ele><time>2026-04-18T08:52:54Z</time></trkpt><trkpt lat="42.191421027058574" lon="12.624812447902361"><ele>96.0</ele><time>2026-04-18T08:52:55Z</time></trkpt><trkpt lat="42.19150536546278" lon="12.62494868248958"><ele>96.0</ele><time>2026-04-18T08:52:56Z</time></trkpt><trkpt lat="42.19158100142706" lon="12.62506020116758"><ele>96.0</ele><time>2026-04-18T08:52:57Z</time></trkpt><trkpt lat="42.191657833166175" lon="12.62514664748698"><ele>96.0</ele><time>2026-04-18T08:52:58Z</time></trkpt><trkpt lat="42.191753322489156" lon="12.6252037335861"><ele>96.0</ele><time>2026-04-18T08:52:59Z</time></trkpt><trkpt lat="42.19187866885286" lon="12.625211164380737"><ele>96.0</ele><time>2026-04-18T08:53:00Z</time></trkpt><trkpt lat="42.192004151652995" lon="12.625189463115678"><ele>96.0</ele><time>2026-04-18T08:53:01Z</time></trkpt><trkpt lat="42.19213986759455" lon="12.625198980329777"><ele>96.0</ele><time>2026-04-18T08:53:02Z</time></trkpt><trkpt lat="42.19229209855469" lon="12.625178438438697"><ele>96.0</ele><time>2026-04-18T08:53:03Z</time></trkpt><trkpt lat="42.192467046429215" lon="12.625177833725616"><ele>96.0</ele><time>2026-04-18T08:53:04Z</time></trkpt><trkpt lat="42.192643833721625" lon="12.625204342078641"><ele>96.0</ele><time>2026-04-18T08:53:05Z</time></trkpt><trkpt lat="42.19282812345751" lon="12.625181714394618"><ele>96.0</ele><time>2026-04-18T08:53:06Z</time></trkpt><trkpt lat="42.19301148382442" lon="12.625192149215847"><ele>96.0</ele><time>2026-04-18T08:53:07Z</time></trkpt><trkpt lat="42.193172167321684" lon="12.625198823859932"><ele>96.0</ele><time>2026-04-18T08:53:08Z</time></trkpt><trkpt lat="42.19332179618966" lon="12.625177072372095"><ele>96.0</ele><time>2026-04-18T08:53:09Z</time></trkpt><trkpt lat="42.19348896393124" lon="12.625150714249179"><ele>97.0</ele><time>2026-04-18T08:53:10Z</time></trkpt><trkpt lat="42.193664730846514" lon="12.625121845821232"><ele>98.0</ele><time>2026-04-18T08:53:11Z</time></trkpt><trkpt lat="42.19383212957105" lon="12.625126888608428"><ele>99.0</ele><time>2026-04-18T08:53:12Z</time></trkpt><trkpt lat="42.193975444106066" lon="12.62512027516973"><ele>98.75</ele><time>2026-04-18T08:53:13Z</time></trkpt><trkpt lat="42.19409413837441" lon="12.625117585495332"><ele>98.5</ele><time>2026-04-18T08:53:14Z</time></trkpt><trkpt lat="42.19421844873392" lon="12.62512032650779"><ele>98.25</ele><time>2026-04-18T08:53:15Z</time></trkpt><trkpt lat="42.19437127448336" lon="12.625131204363896"><ele>98.0</ele><time>2026-04-18T08:53:16Z</time></trkpt><trkpt lat="42.1945090865292" lon="12.625139386582966"><ele>98.0</ele><time>2026-04-18T08:53:17Z</time></trkpt><trkpt lat="42.194594948634446" lon="12.62516137500202"><ele>98.0</ele><time>2026-04-18T08:53:18Z</time></trkpt><trkpt lat="42.194670099445936" lon="12.62519323001648"><ele>98.0</ele><time>2026-04-18T08:53:19Z</time></trkpt><trkpt lat="42.194725331031904" lon="12.625286839485137"><ele>98.0</ele><time>2026-04-18T08:53:20Z</time></trkpt><trkpt lat="42.19476224873102" lon="12.625417973292066"><ele>98.0</ele><time>2026-04-18T08:53:21Z</time></trkpt><trkpt lat="42.19479835770967" lon="12.62556788024283"><ele>97.5</ele><time>2026-04-18T08:53:22Z</time></trkpt><trkpt lat="42.194836044532885" lon="12.62574218671989"><ele>97.0</ele><time>2026-04-18T08:53:23Z</time></trkpt><trkpt lat="42.19487767024823" lon="12.62590723971222"><ele>96.5</ele><time>2026-04-18T08:53:24Z</time></trkpt><trkpt lat="42.194918095845416" lon="12.626064109326478"><ele>96.0</ele><time>2026-04-18T08:53:25Z</time></trkpt><trkpt lat="42.19494811134735" lon="12.626223018290915"><ele>95.0</ele><time>2026-04-18T08:53:26Z</time></trkpt><trkpt lat="42.19497838193917" lon="12.626378514936645"><ele>94.0</ele><time>2026-04-18T08:53:27Z</time></trkpt><trkpt lat="42.19500510571732" lon="12.626529756865377"><ele>93.0</ele><time>2026-04-18T08:53:28Z</time></trkpt><trkpt lat="42.19502754878428" lon="12.62666985779042"><ele>92.0</ele><time>2026-04-18T08:53:29Z</time></trkpt><trkpt lat="42.19504990719442" lon="12.626795106145464"><ele>91.0</ele><time>2026-04-18T08:53:30Z</time></trkpt><trkpt lat="42.195069112890316" lon="12.626908672722783"><ele>91.8</ele><time>2026-04-18T08:53:31Z</time></trkpt><trkpt lat="42.19508526828989" lon="12.627007369704549"><ele>92.6</ele><time>2026-04-18T08:53:32Z</time></trkpt><trkpt lat="42.19512398849147" lon="12.627128813883312"><ele>93.4</ele><time>2026-04-18T08:53:33Z</time></trkpt><trkpt lat="42.19517400900579" lon="12.627249422294204"><ele>94.2</ele><time>2026-04-18T08:53:34Z</time></trkpt><trkpt lat="42.19525589505901" lon="12.627393303494403"><ele>95.0</ele><time>2026-04-18T08:53:34.999Z</time></trkpt><trkpt lat="42.195340498495696" lon="12.627527423622977"><ele>95.0</ele><time>2026-04-18T08:53:35.999Z</time></trkpt><trkpt lat="42.19544614610317" lon="12.627641867712255"><ele>95.0</ele><time>2026-04-18T08:53:36.999Z</time></trkpt><trkpt lat="42.19557607973187" lon="12.62773205140969"><ele>95.0</ele><time>2026-04-18T08:53:37.999Z</time></trkpt><trkpt lat="42.19571454543079" lon="12.627810065734229"><ele>95.0</ele><time>2026-04-18T08:53:38.999Z</time></trkpt><trkpt lat="42.195843812955026" lon="12.62788557133787"><ele>96.5</ele><time>2026-04-18T08:53:39.999Z</time></trkpt><trkpt lat="42.195972734727675" lon="12.627957997964819"><ele>98.0</ele><time>2026-04-18T08:53:40.999Z</time></trkpt><trkpt lat="42.19609969982495" lon="12.628017322674635"><ele>99.5</ele><time>2026-04-18T08:53:41.999Z</time></trkpt><trkpt lat="42.19622811474913" lon="12.628099188909495"><ele>101.0</ele><time>2026-04-18T08:53:42.999Z</time></trkpt><trkpt lat="42.19635242698069" lon="12.628164759269067"><ele>101.0</ele><time>2026-04-18T08:53:43.999Z</time></trkpt><trkpt lat="42.1964704141898" lon="12.62821182407206"><ele>101.0</ele><time>2026-04-18T08:53:44.999Z</time></trkpt><trkpt lat="42.1965522757711" lon="12.628322292506143"><ele>101.0</ele><time>2026-04-18T08:53:45.999Z</time></trkpt><trkpt lat="42.19663890633567" lon="12.628415347906236"><ele>101.0</ele><time>2026-04-18T08:53:46.999Z</time></trkpt><trkpt lat="42.19673819352773" lon="12.628523622597056"><ele>100.8</ele><time>2026-04-18T08:53:47.999Z</time></trkpt><trkpt lat="42.19683712642161" lon="12.628612848473388"><ele>100.6</ele><time>2026-04-18T08:53:48.999Z</time></trkpt><trkpt lat="42.196938623975164" lon="12.628666634636039"><ele>100.4</ele><time>2026-04-18T08:53:49.999Z</time></trkpt><trkpt lat="42.197017489694964" lon="12.62874661932816"><ele>100.2</ele><time>2026-04-18T08:53:50.999Z</time></trkpt><trkpt lat="42.19710246414315" lon="12.62878438556032"><ele>100.0</ele><time>2026-04-18T08:53:51.999Z</time></trkpt><trkpt lat="42.19717241828986" lon="12.62884035706117"><ele>99.2</ele><time>2026-04-18T08:53:53Z</time></trkpt><trkpt lat="42.19724882338366" lon="12.628889014498034"><ele>98.4</ele><time>2026-04-18T08:53:54Z</time></trkpt><trkpt lat="42.197329827129934" lon="12.628935372912407"><ele>97.6</ele><time>2026-04-18T08:53:55Z</time></trkpt><trkpt lat="42.19741569181479" lon="12.628984292534676"><ele>96.8</ele><time>2026-04-18T08:53:56Z</time></trkpt><trkpt lat="42.19750121127847" lon="12.629039518034174"><ele>96.0</ele><time>2026-04-18T08:53:57Z</time></trkpt><trkpt lat="42.197588185727845" lon="12.629103043716631"><ele>96.0</ele><time>2026-04-18T08:53:58Z</time></trkpt><trkpt lat="42.19767992645463" lon="12.62915963436724"><ele>96.0</ele><time>2026-04-18T08:53:59Z</time></trkpt><trkpt lat="42.19776994439084" lon="12.629208839019773"><ele>96.0</ele><time>2026-04-18T08:54:00Z</time></trkpt><trkpt lat="42.19783244016861" lon="12.629255934514651"><ele>96.0</ele><time>2026-04-18T08:54:01Z</time></trkpt><trkpt lat="42.197893111400745" lon="12.629299337998342"><ele>96.0</ele><time>2026-04-18T08:54:02Z</time></trkpt><trkpt lat="42.19799145377155" lon="12.629367381702378"><ele>96.0</ele><time>2026-04-18T08:54:04Z</time></trkpt><trkpt lat="42.19805703618361" lon="12.629401622522668"><ele>96.0</ele><time>2026-04-18T08:54:06Z</time></trkpt><trkpt lat="42.198148707067304" lon="12.629469365816815"><ele>96.0</ele><time>2026-04-18T08:54:38Z</time></trkpt><trkpt lat="42.19822898336048" lon="12.629513403854538"><ele>96.0</ele><time>2026-04-18T08:54:39Z</time></trkpt><trkpt lat="42.19831371124013" lon="12.629570756818161"><ele>96.0</ele><time>2026-04-18T08:54:40Z</time></trkpt><trkpt lat="42.198399574940595" lon="12.629629464778652"><ele>96.0</ele><time>2026-04-18T08:54:41Z</time></trkpt><trkpt lat="42.19848859191838" lon="12.629683825399944"><ele>97.25</ele><time>2026-04-18T08:54:42Z</time></trkpt><trkpt lat="42.19859022369023" lon="12.629744875515525"><ele>98.5</ele><time>2026-04-18T08:54:43Z</time></trkpt><trkpt lat="42.198704321072604" lon="12.62981481020911"><ele>99.75</ele><time>2026-04-18T08:54:44Z</time></trkpt><trkpt lat="42.19880754483773" lon="12.629880930325145"><ele>101.0</ele><time>2026-04-18T08:54:45Z</time></trkpt><trkpt lat="42.198898912151165" lon="12.62993343416541"><ele>101.0</ele><time>2026-04-18T08:54:46Z</time></trkpt><trkpt lat="42.19899930665985" lon="12.630008621266178"><ele>101.0</ele><time>2026-04-18T08:54:47Z</time></trkpt><trkpt lat="42.19910357626715" lon="12.630085470074413"><ele>101.0</ele><time>2026-04-18T08:54:48Z</time></trkpt><trkpt lat="42.199193118650676" lon="12.630146120567725"><ele>101.0</ele><time>2026-04-18T08:54:49Z</time></trkpt><trkpt lat="42.19928275861897" lon="12.630226282349552"><ele>101.0</ele><time>2026-04-18T08:54:50Z</time></trkpt><trkpt lat="42.19936769878027" lon="12.630325760900755"><ele>101.8</ele><time>2026-04-18T08:54:51Z</time></trkpt><trkpt lat="42.199442287538" lon="12.630431806513867"><ele>102.6</ele><time>2026-04-18T08:54:52Z</time></trkpt><trkpt lat="42.19951295627767" lon="12.630538942890738"><ele>103.4</ele><time>2026-04-18T08:54:53Z</time></trkpt><trkpt lat="42.19955706734896" lon="12.630669300065222"><ele>104.2</ele><time>2026-04-18T08:54:54Z</time></trkpt><trkpt lat="42.19961553140609" lon="12.630801033938937"><ele>105.0</ele><time>2026-04-18T08:54:55Z</time></trkpt><trkpt lat="42.199688982931995" lon="12.630929903152719"><ele>105.0</ele><time>2026-04-18T08:54:56Z</time></trkpt><trkpt lat="42.199734215290974" lon="12.631076434614833"><ele>105.0</ele><time>2026-04-18T08:54:57Z</time></trkpt><trkpt lat="42.19978779575877" lon="12.631192150722203"><ele>105.0</ele><time>2026-04-18T08:54:58Z</time></trkpt><trkpt lat="42.19983647784132" lon="12.631290430637995"><ele>105.0</ele><time>2026-04-18T08:54:59Z</time></trkpt><trkpt lat="42.19989448959595" lon="12.63140847783797"><ele>105.0</ele><time>2026-04-18T08:55:00Z</time></trkpt><trkpt lat="42.19994456866186" lon="12.631517369990283"><ele>104.75</ele><time>2026-04-18T08:55:01Z</time></trkpt><trkpt lat="42.19999391302296" lon="12.631628434155186"><ele>104.5</ele><time>2026-04-18T08:55:02Z</time></trkpt><trkpt lat="42.20005621724993" lon="12.631760386543807"><ele>104.25</ele><time>2026-04-18T08:55:03Z</time></trkpt><trkpt lat="42.200117828132434" lon="12.6319339085734"><ele>104.0</ele><time>2026-04-18T08:55:04Z</time></trkpt><trkpt lat="42.200192507846424" lon="12.632103524572369"><ele>104.6</ele><time>2026-04-18T08:55:05Z</time></trkpt><trkpt lat="42.20026186876103" lon="12.632240372792348"><ele>105.2</ele><time>2026-04-18T08:55:06Z</time></trkpt><trkpt lat="42.20032146393098" lon="12.63235120053595"><ele>105.79999999999998</ele><time>2026-04-18T08:55:07Z</time></trkpt><trkpt lat="42.200372044650734" lon="12.632472207685767"><ele>106.39999999999999</ele><time>2026-04-18T08:55:08Z</time></trkpt><trkpt lat="42.20042126564096" lon="12.632593648657853"><ele>107.0</ele><time>2026-04-18T08:55:09Z</time></trkpt><trkpt lat="42.20045859764026" lon="12.632714066817877"><ele>107.5</ele><time>2026-04-18T08:55:10Z</time></trkpt><trkpt lat="42.20051936674263" lon="12.632855231454965"><ele>108.0</ele><time>2026-04-18T08:55:11Z</time></trkpt><trkpt lat="42.20056267495844" lon="12.632986750923843"><ele>108.5</ele><time>2026-04-18T08:55:12Z</time></trkpt><trkpt lat="42.20059517358109" lon="12.633113533009602"><ele>109.0</ele><time>2026-04-18T08:55:13Z</time></trkpt><trkpt lat="42.20067383729594" lon="12.633246549283362"><ele>107.25</ele><time>2026-04-18T08:55:14Z</time></trkpt><trkpt lat="42.200736480451965" lon="12.633400761022571"><ele>105.5</ele><time>2026-04-18T08:55:15Z</time></trkpt><trkpt lat="42.20079427527295" lon="12.63356265659706"><ele>103.75</ele><time>2026-04-18T08:55:16Z</time></trkpt><trkpt lat="42.20084935482349" lon="12.63370893884112"><ele>102.0</ele><time>2026-04-18T08:55:17Z</time></trkpt><trkpt lat="42.2009040608582" lon="12.633857690071729"><ele>102.0</ele><time>2026-04-18T08:55:18Z</time></trkpt><trkpt lat="42.20096345580868" lon="12.634002469002581"><ele>102.0</ele><time>2026-04-18T08:55:19Z</time></trkpt><trkpt lat="42.20102258176115" lon="12.634134035684218"><ele>102.0</ele><time>2026-04-18T08:55:20Z</time></trkpt><trkpt lat="42.201078766881196" lon="12.634242596739805"><ele>102.0</ele><time>2026-04-18T08:55:21Z</time></trkpt><trkpt lat="42.20112474931151" lon="12.634341561791807"><ele>102.0</ele><time>2026-04-18T08:55:22Z</time></trkpt><trkpt lat="42.201173932653816" lon="12.634426128076935"><ele>102.0</ele><time>2026-04-18T08:55:23Z</time></trkpt><trkpt lat="42.20121509286727" lon="12.634499600131553"><ele>102.0</ele><time>2026-04-18T08:55:24Z</time></trkpt><trkpt lat="42.20125106277833" lon="12.634586061729342"><ele>102.0</ele><time>2026-04-18T08:55:25Z</time></trkpt><trkpt lat="42.201268516886245" lon="12.634669936396392"><ele>102.0</ele><time>2026-04-18T08:55:26Z</time></trkpt><trkpt lat="42.201239190046074" lon="12.634826493809319"><ele>102.0</ele><time>2026-04-18T08:55:28Z</time></trkpt><trkpt lat="42.20119995642552" lon="12.63490167717858"><ele>102.0</ele><time>2026-04-18T08:55:29Z</time></trkpt><trkpt lat="42.20113613027028" lon="12.635017285952388"><ele>102.0</ele><time>2026-04-18T08:55:31Z</time></trkpt><trkpt lat="42.201053137414064" lon="12.635160465116344"><ele>102.0</ele><time>2026-04-18T08:55:33Z</time></trkpt><trkpt lat="42.201017318580675" lon="12.635265718676912"><ele>102.0</ele><time>2026-04-18T08:55:34Z</time></trkpt><trkpt lat="42.200981118622856" lon="12.635369112443689"><ele>102.0</ele><time>2026-04-18T08:55:35Z</time></trkpt><trkpt lat="42.200950405264855" lon="12.635479469494914"><ele>102.0</ele><time>2026-04-18T08:55:36Z</time></trkpt><trkpt lat="42.2009367700431" lon="12.63560539624545"><ele>102.39999999999999</ele><time>2026-04-18T08:55:37Z</time></trkpt><trkpt lat="42.200922161723106" lon="12.635745642235626"><ele>102.8</ele><time>2026-04-18T08:55:38Z</time></trkpt><trkpt lat="42.20090821395598" lon="12.63587794622834"><ele>103.2</ele><time>2026-04-18T08:55:39Z</time></trkpt><trkpt lat="42.200890128910586" lon="12.636008746762899"><ele>103.6</ele><time>2026-04-18T08:55:40Z</time></trkpt><trkpt lat="42.200871875547016" lon="12.636143040336634"><ele>104.0</ele><time>2026-04-18T08:55:41Z</time></trkpt><trkpt lat="42.200855847863465" lon="12.636267812997918"><ele>103.99999999999999</ele><time>2026-04-18T08:55:42Z</time></trkpt><trkpt lat="42.20084066280363" lon="12.636392865965108"><ele>104.0</ele><time>2026-04-18T08:55:43Z</time></trkpt><trkpt lat="42.200828821742476" lon="12.636495039465428"><ele>104.0</ele><time>2026-04-18T08:55:44Z</time></trkpt><trkpt lat="42.200812703976204" lon="12.636590128593342"><ele>104.0</ele><time>2026-04-18T08:55:45Z</time></trkpt><trkpt lat="42.20078198836216" lon="12.636694097144396"><ele>103.99999999999999</ele><time>2026-04-18T08:55:46Z</time></trkpt><trkpt lat="42.20072228333294" lon="12.63679270183109"><ele>104.0</ele><time>2026-04-18T08:55:47Z</time></trkpt><trkpt lat="42.20064896309125" lon="12.636905416388018"><ele>103.6</ele><time>2026-04-18T08:55:48Z</time></trkpt><trkpt lat="42.200584151515585" lon="12.637017459529844"><ele>103.2</ele><time>2026-04-18T08:55:49Z</time></trkpt><trkpt lat="42.200522501546935" lon="12.637119583593114"><ele>102.8</ele><time>2026-04-18T08:55:50Z</time></trkpt><trkpt lat="42.20045770330098" lon="12.637220124792929"><ele>102.39999999999999</ele><time>2026-04-18T08:55:51Z</time></trkpt><trkpt lat="42.20040360911655" lon="12.637323402114854"><ele>102.0</ele><time>2026-04-18T08:55:52Z</time></trkpt><trkpt lat="42.20034610690639" lon="12.637433648153344"><ele>102.0</ele><time>2026-04-18T08:55:53Z</time></trkpt><trkpt lat="42.20027835419953" lon="12.63757476279119"><ele>102.0</ele><time>2026-04-18T08:55:54Z</time></trkpt><trkpt lat="42.20020654363534" lon="12.637694869375617"><ele>102.0</ele><time>2026-04-18T08:55:55Z</time></trkpt><trkpt lat="42.200143709796365" lon="12.637801385055162"><ele>102.0</ele><time>2026-04-18T08:55:56Z</time></trkpt><trkpt lat="42.20008527697719" lon="12.637918921897485"><ele>102.0</ele><time>2026-04-18T08:55:57Z</time></trkpt><trkpt lat="42.20002249946573" lon="12.638020351689164"><ele>102.19999999999999</ele><time>2026-04-18T08:55:58Z</time></trkpt><trkpt lat="42.19996122465788" lon="12.638125662208445"><ele>102.4</ele><time>2026-04-18T08:55:59Z</time></trkpt><trkpt lat="42.19989949592446" lon="12.638220691895029"><ele>102.6</ele><time>2026-04-18T08:56:00Z</time></trkpt><trkpt lat="42.199842514643834" lon="12.638314249293362"><ele>102.80000000000001</ele><time>2026-04-18T08:56:01Z</time></trkpt><trkpt lat="42.199779301474244" lon="12.638433099640569"><ele>103.0</ele><time>2026-04-18T08:56:02Z</time></trkpt><trkpt lat="42.19972185900017" lon="12.638535748579534"><ele>102.75</ele><time>2026-04-18T08:56:03Z</time></trkpt><trkpt lat="42.19965555828455" lon="12.638648692284047"><ele>102.5</ele><time>2026-04-18T08:56:04Z</time></trkpt><trkpt lat="42.199577849289476" lon="12.638794892012548"><ele>102.25</ele><time>2026-04-18T08:56:05Z</time></trkpt><trkpt lat="42.1995021562756" lon="12.638918415373228"><ele>102.0</ele><time>2026-04-18T08:56:06Z</time></trkpt><trkpt lat="42.199424138864536" lon="12.639025446976856"><ele>102.0</ele><time>2026-04-18T08:56:07Z</time></trkpt><trkpt lat="42.19935597269076" lon="12.639139382295113"><ele>102.0</ele><time>2026-04-18T08:56:08Z</time></trkpt><trkpt lat="42.199281748048115" lon="12.639246325568969"><ele>102.0</ele><time>2026-04-18T08:56:09Z</time></trkpt><trkpt lat="42.19920396230832" lon="12.639362540319805"><ele>102.0</ele><time>2026-04-18T08:56:10Z</time></trkpt><trkpt lat="42.19912486104401" lon="12.639483041408559"><ele>102.25</ele><time>2026-04-18T08:56:11Z</time></trkpt><trkpt lat="42.199049204550114" lon="12.639600504968838"><ele>102.5</ele><time>2026-04-18T08:56:12Z</time></trkpt><trkpt lat="42.198978785180145" lon="12.639715830693488"><ele>102.75</ele><time>2026-04-18T08:56:13Z</time></trkpt><trkpt lat="42.19889158272461" lon="12.639805623116263"><ele>103.0</ele><time>2026-04-18T08:56:14Z</time></trkpt><trkpt lat="42.19881589353126" lon="12.639921959713156"><ele>104.0</ele><time>2026-04-18T08:56:15Z</time></trkpt><trkpt lat="42.19872156210591" lon="12.640026866666048"><ele>105.0</ele><time>2026-04-18T08:56:16Z</time></trkpt><trkpt lat="42.19861290934926" lon="12.640143887467657"><ele>106.0</ele><time>2026-04-18T08:56:17Z</time></trkpt><trkpt lat="42.19852160657511" lon="12.640250961626702"><ele>107.0</ele><time>2026-04-18T08:56:18Z</time></trkpt><trkpt lat="42.19843493911505" lon="12.640357976955677"><ele>107.0</ele><time>2026-04-18T08:56:19Z</time></trkpt><trkpt lat="42.1983463861468" lon="12.64047499508145"><ele>107.0</ele><time>2026-04-18T08:56:20Z</time></trkpt><trkpt lat="42.198252619811235" lon="12.640607509415265"><ele>107.0</ele><time>2026-04-18T08:56:21Z</time></trkpt><trkpt lat="42.198156941173615" lon="12.640751711560096"><ele>107.0</ele><time>2026-04-18T08:56:22Z</time></trkpt><trkpt lat="42.198079487681504" lon="12.640874480098596"><ele>107.39999999999999</ele><time>2026-04-18T08:56:23Z</time></trkpt><trkpt lat="42.1980175791545" lon="12.640969535668718"><ele>107.79999999999998</ele><time>2026-04-18T08:56:24Z</time></trkpt><trkpt lat="42.19795627140591" lon="12.64107306067191"><ele>108.2</ele><time>2026-04-18T08:56:25Z</time></trkpt><trkpt lat="42.19790519167823" lon="12.641210554506761"><ele>108.6</ele><time>2026-04-18T08:56:26Z</time></trkpt><trkpt lat="42.197845726465985" lon="12.64132550714998"><ele>109.0</ele><time>2026-04-18T08:56:27Z</time></trkpt><trkpt lat="42.197789662410045" lon="12.641453345674584"><ele>109.2</ele><time>2026-04-18T08:56:28Z</time></trkpt><trkpt lat="42.19774711213172" lon="12.641591548275237"><ele>109.4</ele><time>2026-04-18T08:56:29Z</time></trkpt><trkpt lat="42.19771781878128" lon="12.64174073404542"><ele>109.6</ele><time>2026-04-18T08:56:30Z</time></trkpt><trkpt lat="42.197711727759796" lon="12.641887035842764"><ele>109.8</ele><time>2026-04-18T08:56:31Z</time></trkpt><trkpt lat="42.197711175441455" lon="12.642024870121787"><ele>110.0</ele><time>2026-04-18T08:56:32Z</time></trkpt><trkpt lat="42.19772883560963" lon="12.64214645767744"><ele>110.6</ele><time>2026-04-18T08:56:33Z</time></trkpt><trkpt lat="42.19775083745672" lon="12.642270107694433"><ele>111.2</ele><time>2026-04-18T08:56:34Z</time></trkpt><trkpt lat="42.19779782270417" lon="12.642383899619123"><ele>111.80000000000001</ele><time>2026-04-18T08:56:35Z</time></trkpt><trkpt lat="42.19785551663074" lon="12.64250973973241"><ele>112.4</ele><time>2026-04-18T08:56:36Z</time></trkpt><trkpt lat="42.1979297420449" lon="12.642637745470259"><ele>113.0</ele><time>2026-04-18T08:56:37Z</time></trkpt><trkpt lat="42.19800078587617" lon="12.64273007017753"><ele>113.80000000000001</ele><time>2026-04-18T08:56:38Z</time></trkpt><trkpt lat="42.198057798510824" lon="12.642803507288278"><ele>114.60000000000001</ele><time>2026-04-18T08:56:39Z</time></trkpt><trkpt lat="42.19812222090977" lon="12.64287986153378"><ele>115.39999999999999</ele><time>2026-04-18T08:56:40Z</time></trkpt><trkpt lat="42.19820371206017" lon="12.642968296266602"><ele>116.19999999999999</ele><time>2026-04-18T08:56:41Z</time></trkpt><trkpt lat="42.19828769596178" lon="12.643062358956163"><ele>117.0</ele><time>2026-04-18T08:56:42Z</time></trkpt><trkpt lat="42.198378177797636" lon="12.643170090031909"><ele>117.0</ele><time>2026-04-18T08:56:43Z</time></trkpt><trkpt lat="42.19846575584916" lon="12.643282820910821"><ele>117.0</ele><time>2026-04-18T08:56:44Z</time></trkpt><trkpt lat="42.19855046616453" lon="12.643388460752421"><ele>117.0</ele><time>2026-04-18T08:56:45Z</time></trkpt><trkpt lat="42.19863525682335" lon="12.643488785531567"><ele>117.0</ele><time>2026-04-18T08:56:46Z</time></trkpt><trkpt lat="42.19871435889121" lon="12.64359516668478"><ele>116.83333333333333</ele><time>2026-04-18T08:56:47Z</time></trkpt><trkpt lat="42.198790760736905" lon="12.643690172559584"><ele>116.66666666666666</ele><time>2026-04-18T08:56:48Z</time></trkpt><trkpt lat="42.19885348520092" lon="12.643768366811155"><ele>116.5</ele><time>2026-04-18T08:56:49Z</time></trkpt><trkpt lat="42.19890392077377" lon="12.643826947459724"><ele>116.33333333333333</ele><time>2026-04-18T08:56:50Z</time></trkpt><trkpt lat="42.19896069664805" lon="12.643902676552925"><ele>116.16666666666666</ele><time>2026-04-18T08:56:51Z</time></trkpt><trkpt lat="42.199041193263604" lon="12.643994131898193"><ele>116.0</ele><time>2026-04-18T08:56:52Z</time></trkpt><trkpt lat="42.19913560145645" lon="12.644104848800518"><ele>116.0</ele><time>2026-04-18T08:56:53Z</time></trkpt><trkpt lat="42.199246501211924" lon="12.644220408413089"><ele>116.0</ele><time>2026-04-18T08:56:54Z</time></trkpt><trkpt lat="42.19936700905871" lon="12.644347527786497"><ele>116.0</ele><time>2026-04-18T08:56:55Z</time></trkpt><trkpt lat="42.199479886933524" lon="12.644468318851715"><ele>116.0</ele><time>2026-04-18T08:56:56Z</time></trkpt><trkpt lat="42.199584510765504" lon="12.644580339681301"><ele>115.5</ele><time>2026-04-18T08:56:57Z</time></trkpt><trkpt lat="42.19968563671529" lon="12.64469640925997"><ele>115.0</ele><time>2026-04-18T08:56:58Z</time></trkpt><trkpt lat="42.19979415037337" lon="12.644803657166824"><ele>114.5</ele><time>2026-04-18T08:56:59Z</time></trkpt><trkpt lat="42.19989856602173" lon="12.64491843939233"><ele>114.0</ele><time>2026-04-18T08:57:00Z</time></trkpt><trkpt lat="42.20000865911639" lon="12.645036570640071"><ele>113.75</ele><time>2026-04-18T08:57:01Z</time></trkpt><trkpt lat="42.20011049198378" lon="12.645173586495149"><ele>113.5</ele><time>2026-04-18T08:57:02Z</time></trkpt><trkpt lat="42.20021841779002" lon="12.645306080540825"><ele>113.25</ele><time>2026-04-18T08:57:03Z</time></trkpt><trkpt lat="42.20031347862" lon="12.645440368755745"><ele>113.0</ele><time>2026-04-18T08:57:04Z</time></trkpt><trkpt lat="42.20038427191935" lon="12.645586628295886"><ele>113.5</ele><time>2026-04-18T08:57:05Z</time></trkpt><trkpt lat="42.2004724653011" lon="12.645700056938798"><ele>114.0</ele><time>2026-04-18T08:57:06Z</time></trkpt><trkpt lat="42.200553494243636" lon="12.645834551998439"><ele>114.5</ele><time>2026-04-18T08:57:07Z</time></trkpt><trkpt lat="42.20064580709942" lon="12.645962824035406"><ele>115.0</ele><time>2026-04-18T08:57:08Z</time></trkpt><trkpt lat="42.20072679581112" lon="12.646082965601675"><ele>114.8</ele><time>2026-04-18T08:57:09Z</time></trkpt><trkpt lat="42.200807632489415" lon="12.646197179759795"><ele>114.6</ele><time>2026-04-18T08:57:10Z</time></trkpt><trkpt lat="42.20089046462529" lon="12.646306203770697"><ele>114.4</ele><time>2026-04-18T08:57:11Z</time></trkpt><trkpt lat="42.200963443501976" lon="12.646395207287192"><ele>114.2</ele><time>2026-04-18T08:57:12Z</time></trkpt><trkpt lat="42.2010291284749" lon="12.646466346352327"><ele>114.0</ele><time>2026-04-18T08:57:13Z</time></trkpt><trkpt lat="42.20108998914263" lon="12.646548427970762"><ele>114.0</ele><time>2026-04-18T08:57:14Z</time></trkpt><trkpt lat="42.20115416107134" lon="12.646629079248573"><ele>114.0</ele><time>2026-04-18T08:57:15Z</time></trkpt><trkpt lat="42.20122542000638" lon="12.646722037128809"><ele>114.0</ele><time>2026-04-18T08:57:16Z</time></trkpt><trkpt lat="42.20130957407554" lon="12.64681945293684"><ele>114.0</ele><time>2026-04-18T08:57:17Z</time></trkpt><trkpt lat="42.201396236407014" lon="12.646927485714004"><ele>114.0</ele><time>2026-04-18T08:57:18Z</time></trkpt><trkpt lat="42.20149002809401" lon="12.647029434024505"><ele>114.75</ele><time>2026-04-18T08:57:19Z</time></trkpt><trkpt lat="42.20158952589877" lon="12.647117217300742"><ele>115.5</ele><time>2026-04-18T08:57:20Z</time></trkpt><trkpt lat="42.20169583053737" lon="12.647190905825669"><ele>116.25</ele><time>2026-04-18T08:57:21.001Z</time></trkpt><trkpt lat="42.20180542061908" lon="12.647260694430361"><ele>117.0</ele><time>2026-04-18T08:57:22.001Z</time></trkpt><trkpt lat="42.20192655579372" lon="12.647340711202604"><ele>117.0</ele><time>2026-04-18T08:57:23.001Z</time></trkpt><trkpt lat="42.202051191826406" lon="12.647429635794547"><ele>117.0</ele><time>2026-04-18T08:57:24.001Z</time></trkpt><trkpt lat="42.20216874078775" lon="12.647513129662377"><ele>117.0</ele><time>2026-04-18T08:57:25.001Z</time></trkpt><trkpt lat="42.20227008243197" lon="12.647581784152742"><ele>117.0</ele><time>2026-04-18T08:57:26.001Z</time></trkpt><trkpt lat="42.202362191601175" lon="12.647644003868248"><ele>118.0</ele><time>2026-04-18T08:57:27.001Z</time></trkpt><trkpt lat="42.20245438282391" lon="12.647707874376378"><ele>118.99999999999999</ele><time>2026-04-18T08:57:28.001Z</time></trkpt><trkpt lat="42.20255039592305" lon="12.647775890535144"><ele>119.99999999999999</ele><time>2026-04-18T08:57:29.001Z</time></trkpt><trkpt lat="42.20265124954215" lon="12.6478426303627"><ele>121.0</ele><time>2026-04-18T08:57:30.001Z</time></trkpt><trkpt lat="42.20276370482201" lon="12.647901468638446"><ele>122.0</ele><time>2026-04-18T08:57:31.001Z</time></trkpt><trkpt lat="42.20287915832089" lon="12.647965572485695"><ele>122.0</ele><time>2026-04-18T08:57:32.001Z</time></trkpt><trkpt lat="42.203002542405855" lon="12.64803483387841"><ele>122.0</ele><time>2026-04-18T08:57:33.001Z</time></trkpt><trkpt lat="42.203116934442285" lon="12.64810214915437"><ele>122.0</ele><time>2026-04-18T08:57:34.001Z</time></trkpt><trkpt lat="42.20322602708742" lon="12.648164707837493"><ele>122.0</ele><time>2026-04-18T08:57:35.001Z</time></trkpt><trkpt lat="42.20331932873762" lon="12.648226146657375"><ele>123.16666666666666</ele><time>2026-04-18T08:57:36.001Z</time></trkpt><trkpt lat="42.20339341848386" lon="12.648296969644388"><ele>124.33333333333333</ele><time>2026-04-18T08:57:37.001Z</time></trkpt><trkpt lat="42.20346715780411" lon="12.648329193556687"><ele>125.5</ele><time>2026-04-18T08:57:38.001Z</time></trkpt><trkpt lat="42.20353082938472" lon="12.648375181014519"><ele>126.66666666666666</ele><time>2026-04-18T08:57:39.001Z</time></trkpt><trkpt lat="42.20358200558404" lon="12.648446174418018"><ele>127.83333333333333</ele><time>2026-04-18T08:57:40.001Z</time></trkpt><trkpt lat="42.203658746538316" lon="12.648505540857709"><ele>129.0</ele><time>2026-04-18T08:57:41.001Z</time></trkpt><trkpt lat="42.203723500731705" lon="12.648595648451302"><ele>129.0</ele><time>2026-04-18T08:57:42.001Z</time></trkpt><trkpt lat="42.20378127943358" lon="12.648673923832648"><ele>129.0</ele><time>2026-04-18T08:57:43.001Z</time></trkpt><trkpt lat="42.20383431623684" lon="12.648740639454658"><ele>129.0</ele><time>2026-04-18T08:57:44.001Z</time></trkpt><trkpt lat="42.2038900087878" lon="12.648813850881439"><ele>129.0</ele><time>2026-04-18T08:57:45.001Z</time></trkpt><trkpt lat="42.20395167267144" lon="12.648889091803866"><ele>129.0</ele><time>2026-04-18T08:57:46.001Z</time></trkpt><trkpt lat="42.20401361216854" lon="12.64896299245906"><ele>129.0</ele><time>2026-04-18T08:57:47.001Z</time></trkpt><trkpt lat="42.204063902066586" lon="12.649029529824531"><ele>129.0</ele><time>2026-04-18T08:57:48.001Z</time></trkpt><trkpt lat="42.204143397646924" lon="12.649129962548868"><ele>129.0</ele><time>2026-04-18T08:57:50.001Z</time></trkpt><trkpt lat="42.204213653536186" lon="12.649222718207904"><ele>129.0</ele><time>2026-04-18T08:57:52.001Z</time></trkpt><trkpt lat="42.204180058550996" lon="12.649345473329653"><ele>129.0</ele><time>2026-04-18T08:57:54.001Z</time></trkpt><trkpt lat="42.20411449372951" lon="12.649403001957749"><ele>129.0</ele><time>2026-04-18T08:57:55.001Z</time></trkpt><trkpt lat="42.20405884320314" lon="12.649463311035102"><ele>128.0</ele><time>2026-04-18T08:57:56.001Z</time></trkpt><trkpt lat="42.203999287055716" lon="12.649525576192397"><ele>127.0</ele><time>2026-04-18T08:57:57.001Z</time></trkpt><trkpt lat="42.20395073210767" lon="12.6495893547967"><ele>126.0</ele><time>2026-04-18T08:57:58.001Z</time></trkpt><trkpt lat="42.203886023318354" lon="12.649666032129401"><ele>125.0</ele><time>2026-04-18T08:57:59.001Z</time></trkpt><trkpt lat="42.20381020996821" lon="12.649766658817583"><ele>124.0</ele><time>2026-04-18T08:58:00.001Z</time></trkpt><trkpt lat="42.203717368877065" lon="12.649907415896855"><ele>124.0</ele><time>2026-04-18T08:58:01.001Z</time></trkpt><trkpt lat="42.203626350879034" lon="12.650067598596225"><ele>124.0</ele><time>2026-04-18T08:58:02.001Z</time></trkpt><trkpt lat="42.20354335289309" lon="12.650253201986486"><ele>124.0</ele><time>2026-04-18T08:58:03.001Z</time></trkpt><trkpt lat="42.20348513485617" lon="12.650465441575173"><ele>126.0</ele><time>2026-04-18T08:58:04.001Z</time></trkpt><trkpt lat="42.2034568584565" lon="12.65069975489226"><ele>128.0</ele><time>2026-04-18T08:58:05.001Z</time></trkpt><trkpt lat="42.20344063949247" lon="12.650912790027569"><ele>130.0</ele><time>2026-04-18T08:58:06.001Z</time></trkpt><trkpt lat="42.203425451806666" lon="12.651105299566927"><ele>130.0</ele><time>2026-04-18T08:58:07.001Z</time></trkpt><trkpt lat="42.2034081289875" lon="12.651280337793944"><ele>130.0</ele><time>2026-04-18T08:58:08.001Z</time></trkpt><trkpt lat="42.203382360377" lon="12.651444807549884"><ele>130.0</ele><time>2026-04-18T08:58:09.001Z</time></trkpt><trkpt lat="42.203342057401684" lon="12.651614956465297"><ele>130.0</ele><time>2026-04-18T08:58:10.001Z</time></trkpt><trkpt lat="42.20328568659097" lon="12.651803723440636"><ele>129.25</ele><time>2026-04-18T08:58:11.001Z</time></trkpt><trkpt lat="42.20322506635231" lon="12.651989931588869"><ele>128.5</ele><time>2026-04-18T08:58:12.001Z</time></trkpt><trkpt lat="42.20315723453182" lon="12.6521593413214"><ele>127.75</ele><time>2026-04-18T08:58:13.001Z</time></trkpt><trkpt lat="42.203092655246124" lon="12.652288155700223"><ele>127.0</ele><time>2026-04-18T08:58:14.001Z</time></trkpt><trkpt lat="42.20302185423846" lon="12.652388267583072"><ele>126.33333333333334</ele><time>2026-04-18T08:58:15.001Z</time></trkpt><trkpt lat="42.2029470283202" lon="12.652457876020812"><ele>125.66666666666667</ele><time>2026-04-18T08:58:16.001Z</time></trkpt><trkpt lat="42.202865211883186" lon="12.652502062168669"><ele>125.0</ele><time>2026-04-18T08:58:17.001Z</time></trkpt><trkpt lat="42.20277323518486" lon="12.652523529678938"><ele>124.33333333333334</ele><time>2026-04-18T08:58:18.001Z</time></trkpt><trkpt lat="42.202680275737904" lon="12.652536512476027"><ele>123.66666666666667</ele><time>2026-04-18T08:58:19.001Z</time></trkpt><trkpt lat="42.20261193673585" lon="12.652593859877937"><ele>123.0</ele><time>2026-04-18T08:58:20.001Z</time></trkpt><trkpt lat="42.202573219403455" lon="12.652676864782652"><ele>123.0</ele><time>2026-04-18T08:58:21.001Z</time></trkpt><trkpt lat="42.20254272886002" lon="12.652757128313489"><ele>123.0</ele><time>2026-04-18T08:58:22.001Z</time></trkpt><trkpt lat="42.20258533214657" lon="12.652860704834001"><ele>123.0</ele><time>2026-04-18T08:58:23.001Z</time></trkpt><trkpt lat="42.20263314426797" lon="12.652944255695559"><ele>123.0</ele><time>2026-04-18T08:58:24.001Z</time></trkpt><trkpt lat="42.202709835398146" lon="12.652994102672647"><ele>123.0</ele><time>2026-04-18T08:58:25.001Z</time></trkpt><trkpt lat="42.20280820803287" lon="12.653006716978233"><ele>123.0</ele><time>2026-04-18T08:58:26.001Z</time></trkpt><trkpt lat="42.20291035538818" lon="12.653016965526591"><ele>122.0</ele><time>2026-04-18T08:58:27.001Z</time></trkpt><trkpt lat="42.20299577972743" lon="12.653058452509423"><ele>121.0</ele><time>2026-04-18T08:58:28.001Z</time></trkpt><trkpt lat="42.203057350239845" lon="12.653148142246922"><ele>120.0</ele><time>2026-04-18T08:58:29.001Z</time></trkpt><trkpt lat="42.20308819769107" lon="12.653442739017912"><ele>119.0</ele><time>2026-04-18T08:58:31.001Z</time></trkpt><trkpt lat="42.203086535066106" lon="12.653638191573668"><ele>117.75</ele><time>2026-04-18T08:58:32.001Z</time></trkpt><trkpt lat="42.203103640557295" lon="12.653823899602285"><ele>116.5</ele><time>2026-04-18T08:58:33.001Z</time></trkpt><trkpt lat="42.2031084421579" lon="12.653978413332133"><ele>115.25</ele><time>2026-04-18T08:58:34.001Z</time></trkpt><trkpt lat="42.203121090165176" lon="12.654125124716165"><ele>114.0</ele><time>2026-04-18T08:58:35.001Z</time></trkpt><trkpt lat="42.203132945502" lon="12.65426367547162"><ele>114.0</ele><time>2026-04-18T08:58:36.001Z</time></trkpt><trkpt lat="42.20314375471992" lon="12.65439383775253"><ele>114.0</ele><time>2026-04-18T08:58:37.001Z</time></trkpt><trkpt lat="42.203148529597506" lon="12.654519329493741"><ele>114.0</ele><time>2026-04-18T08:58:38.001Z</time></trkpt><trkpt lat="42.20315101703888" lon="12.654665430646995"><ele>114.0</ele><time>2026-04-18T08:58:39.001Z</time></trkpt><trkpt lat="42.20315934991589" lon="12.654811178528243"><ele>114.0</ele><time>2026-04-18T08:58:40.001Z</time></trkpt><trkpt lat="42.2031716935414" lon="12.654964484245223"><ele>114.25</ele><time>2026-04-18T08:58:41.001Z</time></trkpt><trkpt lat="42.20317278202819" lon="12.655127018597808"><ele>114.5</ele><time>2026-04-18T08:58:42.001Z</time></trkpt><trkpt lat="42.20314714900891" lon="12.65528724035954"><ele>114.75</ele><time>2026-04-18T08:58:43.001Z</time></trkpt><trkpt lat="42.20314597247897" lon="12.655439923108002"><ele>115.0</ele><time>2026-04-18T08:58:44.001Z</time></trkpt><trkpt lat="42.20314466974942" lon="12.655608984984676"><ele>116.25</ele><time>2026-04-18T08:58:45.001Z</time></trkpt><trkpt lat="42.20315668374028" lon="12.655798145834138"><ele>117.5</ele><time>2026-04-18T08:58:46.001Z</time></trkpt><trkpt lat="42.2031502342277" lon="12.655982321527336"><ele>118.75</ele><time>2026-04-18T08:58:47.001Z</time></trkpt><trkpt lat="42.2031523660913" lon="12.656156362421635"><ele>120.0</ele><time>2026-04-18T08:58:48.001Z</time></trkpt><trkpt lat="42.20315324862962" lon="12.65630714724634"><ele>120.6</ele><time>2026-04-18T08:58:49.001Z</time></trkpt><trkpt lat="42.203155586205874" lon="12.656454370871932"><ele>121.2</ele><time>2026-04-18T08:58:50.001Z</time></trkpt><trkpt lat="42.2031562735374" lon="12.656590011353252"><ele>121.80000000000001</ele><time>2026-04-18T08:58:51.001Z</time></trkpt><trkpt lat="42.20316220193454" lon="12.656750800190014"><ele>122.4</ele><time>2026-04-18T08:58:52.001Z</time></trkpt><trkpt lat="42.20317419523477" lon="12.65690924552002"><ele>123.0</ele><time>2026-04-18T08:58:53.001Z</time></trkpt><trkpt lat="42.20318153150606" lon="12.657068441089319"><ele>124.25</ele><time>2026-04-18T08:58:54.001Z</time></trkpt><trkpt lat="42.20318639265923" lon="12.657239769319498"><ele>125.5</ele><time>2026-04-18T08:58:55.001Z</time></trkpt><trkpt lat="42.20317965263044" lon="12.657413510400293"><ele>126.75</ele><time>2026-04-18T08:58:56.001Z</time></trkpt><trkpt lat="42.20318289385141" lon="12.657589840384738"><ele>128.0</ele><time>2026-04-18T08:58:57.001Z</time></trkpt><trkpt lat="42.20318355571945" lon="12.657750541043319"><ele>129.4</ele><time>2026-04-18T08:58:58.001Z</time></trkpt><trkpt lat="42.20318207028153" lon="12.65789678999044"><ele>130.8</ele><time>2026-04-18T08:58:59.001Z</time></trkpt><trkpt lat="42.20317989149243" lon="12.658027572001705"><ele>132.2</ele><time>2026-04-18T08:59:00.001Z</time></trkpt><trkpt lat="42.20317213282478" lon="12.65815629656048"><ele>133.6</ele><time>2026-04-18T08:59:01.001Z</time></trkpt><trkpt lat="42.20316402690099" lon="12.658284759929856"><ele>135.0</ele><time>2026-04-18T08:59:02.001Z</time></trkpt><trkpt lat="42.203167037349665" lon="12.65839626514353"><ele>135.0</ele><time>2026-04-18T08:59:03.001Z</time></trkpt><trkpt lat="42.20317735233983" lon="12.65851071708092"><ele>135.0</ele><time>2026-04-18T08:59:04.001Z</time></trkpt><trkpt lat="42.203199255467304" lon="12.65865160798074"><ele>135.0</ele><time>2026-04-18T08:59:05.001Z</time></trkpt><trkpt lat="42.2032384089009" lon="12.658778696389271"><ele>135.0</ele><time>2026-04-18T08:59:06.001Z</time></trkpt><trkpt lat="42.20324810602271" lon="12.658901158354558"><ele>135.0</ele><time>2026-04-18T08:59:07.001Z</time></trkpt><trkpt lat="42.20327755034649" lon="12.659004728282035"><ele>133.8</ele><time>2026-04-18T08:59:08.001Z</time></trkpt><trkpt lat="42.20330317301657" lon="12.6591153816123"><ele>132.6</ele><time>2026-04-18T08:59:09.001Z</time></trkpt><trkpt lat="42.203334228426684" lon="12.659252394542234"><ele>131.4</ele><time>2026-04-18T08:59:10.001Z</time></trkpt><trkpt lat="42.20336250922414" lon="12.659375363301223"><ele>130.2</ele><time>2026-04-18T08:59:11.001Z</time></trkpt><trkpt lat="42.203388554347185" lon="12.659492833206018"><ele>129.0</ele><time>2026-04-18T08:59:12.001Z</time></trkpt><trkpt lat="42.20340292425926" lon="12.659607585505182"><ele>127.6</ele><time>2026-04-18T08:59:13.001Z</time></trkpt><trkpt lat="42.203425098250875" lon="12.659710240360393"><ele>126.2</ele><time>2026-04-18T08:59:14.001Z</time></trkpt><trkpt lat="42.20345267521825" lon="12.659837908283512"><ele>124.79999999999998</ele><time>2026-04-18T08:59:15.001Z</time></trkpt><trkpt lat="42.20348571779233" lon="12.659968834697022"><ele>123.39999999999999</ele><time>2026-04-18T08:59:16.001Z</time></trkpt><trkpt lat="42.203532639747436" lon="12.66012506001288"><ele>122.0</ele><time>2026-04-18T08:59:17.001Z</time></trkpt><trkpt lat="42.20356819828078" lon="12.660308946906367"><ele>121.0</ele><time>2026-04-18T08:59:18.001Z</time></trkpt><trkpt lat="42.20360595071602" lon="12.660479466695657"><ele>120.0</ele><time>2026-04-18T08:59:19.001Z</time></trkpt><trkpt lat="42.2036374493894" lon="12.660635009495529"><ele>119.0</ele><time>2026-04-18T08:59:20.001Z</time></trkpt><trkpt lat="42.2036725258371" lon="12.660769856179812"><ele>118.0</ele><time>2026-04-18T08:59:21.001Z</time></trkpt><trkpt lat="42.20369520435986" lon="12.6608950649693"><ele>118.0</ele><time>2026-04-18T08:59:22.001Z</time></trkpt><trkpt lat="42.20372048694042" lon="12.66103204011487"><ele>118.0</ele><time>2026-04-18T08:59:23.001Z</time></trkpt><trkpt lat="42.20375241312142" lon="12.661200869358328"><ele>118.0</ele><time>2026-04-18T08:59:24.001Z</time></trkpt><trkpt lat="42.20378243618583" lon="12.661371614615572"><ele>118.0</ele><time>2026-04-18T08:59:25.001Z</time></trkpt><trkpt lat="42.20380105846079" lon="12.661535414895608"><ele>118.2</ele><time>2026-04-18T08:59:26.001Z</time></trkpt><trkpt lat="42.203797223126756" lon="12.661679572284926"><ele>118.4</ele><time>2026-04-18T08:59:27.001Z</time></trkpt><trkpt lat="42.20376753448069" lon="12.661818613105172"><ele>118.60000000000001</ele><time>2026-04-18T08:59:28.001Z</time></trkpt><trkpt lat="42.20371889817411" lon="12.661948026599163"><ele>118.80000000000001</ele><time>2026-04-18T08:59:29.001Z</time></trkpt><trkpt lat="42.20366139925242" lon="12.66209340249251"><ele>119.0</ele><time>2026-04-18T08:59:30.001Z</time></trkpt><trkpt lat="42.203598259142595" lon="12.662240756409677"><ele>120.4</ele><time>2026-04-18T08:59:31.001Z</time></trkpt><trkpt lat="42.20356295061209" lon="12.662341711277389"><ele>121.80000000000001</ele><time>2026-04-18T08:59:32.001Z</time></trkpt><trkpt lat="42.20349612031578" lon="12.662449868873974"><ele>123.19999999999999</ele><time>2026-04-18T08:59:33.001Z</time></trkpt><trkpt lat="42.203444519937214" lon="12.662545639412976"><ele>124.6</ele><time>2026-04-18T08:59:34.001Z</time></trkpt><trkpt lat="42.20336909097634" lon="12.662634180581394"><ele>126.0</ele><time>2026-04-18T08:59:35.001Z</time></trkpt><trkpt lat="42.20328828929074" lon="12.662743631924767"><ele>126.25</ele><time>2026-04-18T08:59:36.001Z</time></trkpt><trkpt lat="42.20319036859123" lon="12.662851579252033"><ele>126.5</ele><time>2026-04-18T08:59:37.001Z</time></trkpt><trkpt lat="42.20309779638324" lon="12.66294989806752"><ele>126.75</ele><time>2026-04-18T08:59:38.001Z</time></trkpt><trkpt lat="42.20301258716731" lon="12.663033172853629"><ele>127.0</ele><time>2026-04-18T08:59:39.001Z</time></trkpt><trkpt lat="42.202916322835094" lon="12.66314343073388"><ele>127.0</ele><time>2026-04-18T08:59:40.001Z</time></trkpt><trkpt lat="42.20281654759118" lon="12.663254371983955"><ele>126.99999999999999</ele><time>2026-04-18T08:59:41.001Z</time></trkpt><trkpt lat="42.20273042869312" lon="12.663355226860373"><ele>126.99999999999999</ele><time>2026-04-18T08:59:42.001Z</time></trkpt><trkpt lat="42.202651927916556" lon="12.663440441343552"><ele>127.0</ele><time>2026-04-18T08:59:43.001Z</time></trkpt><trkpt lat="42.20255799735899" lon="12.66350182886033"><ele>127.0</ele><time>2026-04-18T08:59:44.001Z</time></trkpt><trkpt lat="42.202469022722866" lon="12.663573424255414"><ele>126.8</ele><time>2026-04-18T08:59:45.001Z</time></trkpt><trkpt lat="42.20237989206431" lon="12.663637970912603"><ele>126.6</ele><time>2026-04-18T08:59:46.001Z</time></trkpt><trkpt lat="42.20229448549531" lon="12.66369147877701"><ele>126.39999999999999</ele><time>2026-04-18T08:59:47.001Z</time></trkpt><trkpt lat="42.20220407690892" lon="12.663737894986202"><ele>126.19999999999999</ele><time>2026-04-18T08:59:48.001Z</time></trkpt><trkpt lat="42.2021181842226" lon="12.663775985532414"><ele>126.0</ele><time>2026-04-18T08:59:49.001Z</time></trkpt><trkpt lat="42.20200893716638" lon="12.663818413471885"><ele>127.25</ele><time>2026-04-18T08:59:50.001Z</time></trkpt><trkpt lat="42.201891785615906" lon="12.663870635046274"><ele>128.5</ele><time>2026-04-18T08:59:51.001Z</time></trkpt><trkpt lat="42.20175926848756" lon="12.663885260898862"><ele>129.75</ele><time>2026-04-18T08:59:52.001Z</time></trkpt><trkpt lat="42.20162294921686" lon="12.663909957274399"><ele>131.0</ele><time>2026-04-18T08:59:53.001Z</time></trkpt><trkpt lat="42.20149109418191" lon="12.663920226463452"><ele>132.0</ele><time>2026-04-18T08:59:54.001Z</time></trkpt><trkpt lat="42.20135314346504" lon="12.663944217147812"><ele>133.0</ele><time>2026-04-18T08:59:55.001Z</time></trkpt><trkpt lat="42.20120830771184" lon="12.663958993025892"><ele>134.0</ele><time>2026-04-18T08:59:56.001Z</time></trkpt><trkpt lat="42.20106441943544" lon="12.663985092412966"><ele>135.0</ele><time>2026-04-18T08:59:57.001Z</time></trkpt><trkpt lat="42.20092271339891" lon="12.664016335138095"><ele>135.0</ele><time>2026-04-18T08:59:58.001Z</time></trkpt><trkpt lat="42.20077890010643" lon="12.664042366380023"><ele>135.0</ele><time>2026-04-18T08:59:59.001Z</time></trkpt><trkpt lat="42.2006489398221" lon="12.66406744775766"><ele>135.0</ele><time>2026-04-18T09:00:00.001Z</time></trkpt><trkpt lat="42.20054137284267" lon="12.664077865342113"><ele>135.0</ele><time>2026-04-18T09:00:01.001Z</time></trkpt><trkpt lat="42.200432835222756" lon="12.664090598587677"><ele>135.0</ele><time>2026-04-18T09:00:02.001Z</time></trkpt><trkpt lat="42.200317335332954" lon="12.664126056465308"><ele>135.0</ele><time>2026-04-18T09:00:03.001Z</time></trkpt><trkpt lat="42.200187436872646" lon="12.664203866863025"><ele>135.0</ele><time>2026-04-18T09:00:04.001Z</time></trkpt><trkpt lat="42.20007511582615" lon="12.664291221373725"><ele>135.0</ele><time>2026-04-18T09:00:05.001Z</time></trkpt><trkpt lat="42.199979532085216" lon="12.664409618681143"><ele>135.2</ele><time>2026-04-18T09:00:06.001Z</time></trkpt><trkpt lat="42.19988654534487" lon="12.664527516153472"><ele>135.4</ele><time>2026-04-18T09:00:07.001Z</time></trkpt><trkpt lat="42.199790233229535" lon="12.664592974441534"><ele>135.6</ele><time>2026-04-18T09:00:08.001Z</time></trkpt><trkpt lat="42.199708605902465" lon="12.664630057776833"><ele>135.8</ele><time>2026-04-18T09:00:09.001Z</time></trkpt><trkpt lat="42.19962894129614" lon="12.664643067099309"><ele>136.0</ele><time>2026-04-18T09:00:10.001Z</time></trkpt><trkpt lat="42.199557973071734" lon="12.664641074606989"><ele>135.2</ele><time>2026-04-18T09:00:11.001Z</time></trkpt><trkpt lat="42.19948850386562" lon="12.664640000102743"><ele>134.39999999999998</ele><time>2026-04-18T09:00:12.001Z</time></trkpt><trkpt lat="42.19939201032577" lon="12.664635342310211"><ele>133.6</ele><time>2026-04-18T09:00:14.001Z</time></trkpt><trkpt lat="42.19938294104293" lon="12.664853149916539"><ele>132.79999999999998</ele><time>2026-04-18T09:00:18.001Z</time></trkpt><trkpt lat="42.19942140434209" lon="12.664950487696323"><ele>132.0</ele><time>2026-04-18T09:00:19Z</time></trkpt><trkpt lat="42.19947159168622" lon="12.665050034847706"><ele>132.0</ele><time>2026-04-18T09:00:20Z</time></trkpt><trkpt lat="42.199523556188105" lon="12.66515438545579"><ele>132.0</ele><time>2026-04-18T09:00:21Z</time></trkpt><trkpt lat="42.19957429959837" lon="12.665265428453683"><ele>132.0</ele><time>2026-04-18T09:00:22Z</time></trkpt><trkpt lat="42.19962974315916" lon="12.665377087185082"><ele>132.0</ele><time>2026-04-18T09:00:23Z</time></trkpt><trkpt lat="42.1996782305535" lon="12.66548129861495"><ele>132.0</ele><time>2026-04-18T09:00:24Z</time></trkpt><trkpt lat="42.199731681472024" lon="12.665584762308239"><ele>131.79999999999998</ele><time>2026-04-18T09:00:25Z</time></trkpt><trkpt lat="42.19978582298785" lon="12.665688657197652"><ele>131.6</ele><time>2026-04-18T09:00:26Z</time></trkpt><trkpt lat="42.19983944862315" lon="12.665800412727826"><ele>131.39999999999998</ele><time>2026-04-18T09:00:27Z</time></trkpt><trkpt lat="42.19989849404419" lon="12.665916292394874"><ele>131.2</ele><time>2026-04-18T09:00:28Z</time></trkpt><trkpt lat="42.19996186973112" lon="12.666041922007206"><ele>131.0</ele><time>2026-04-18T09:00:29Z</time></trkpt><trkpt lat="42.200035997999514" lon="12.666176514054762"><ele>132.5</ele><time>2026-04-18T09:00:30Z</time></trkpt><trkpt lat="42.20010914291339" lon="12.666307502783463"><ele>134.0</ele><time>2026-04-18T09:00:31Z</time></trkpt><trkpt lat="42.200174280025536" lon="12.666426179172767"><ele>135.5</ele><time>2026-04-18T09:00:32Z</time></trkpt><trkpt lat="42.200237491424815" lon="12.666546451746722"><ele>137.0</ele><time>2026-04-18T09:00:33Z</time></trkpt><trkpt lat="42.200307582011284" lon="12.666672548350093"><ele>137.0</ele><time>2026-04-18T09:00:34Z</time></trkpt><trkpt lat="42.20038519170311" lon="12.666810447115134"><ele>137.0</ele><time>2026-04-18T09:00:35Z</time></trkpt><trkpt lat="42.200463624918065" lon="12.666957407237955"><ele>137.0</ele><time>2026-04-18T09:00:36Z</time></trkpt><trkpt lat="42.200539691245424" lon="12.667104793857595"><ele>137.0</ele><time>2026-04-18T09:00:37Z</time></trkpt><trkpt lat="42.20061538497528" lon="12.667255589500536"><ele>137.5</ele><time>2026-04-18T09:00:38Z</time></trkpt><trkpt lat="42.20067022794344" lon="12.66739080601656"><ele>138.0</ele><time>2026-04-18T09:00:39Z</time></trkpt><trkpt lat="42.20072960472995" lon="12.667526064655384"><ele>138.5</ele><time>2026-04-18T09:00:40Z</time></trkpt><trkpt lat="42.20081030012046" lon="12.667680245029983"><ele>139.0</ele><time>2026-04-18T09:00:41Z</time></trkpt><trkpt lat="42.20088154553373" lon="12.667824610967223"><ele>140.75</ele><time>2026-04-18T09:00:42Z</time></trkpt><trkpt lat="42.200946170173545" lon="12.667956008843595"><ele>142.5</ele><time>2026-04-18T09:00:43Z</time></trkpt><trkpt lat="42.20101487820717" lon="12.66809040645734"><ele>144.25</ele><time>2026-04-18T09:00:44Z</time></trkpt><trkpt lat="42.201086511345906" lon="12.668237452363424"><ele>146.0</ele><time>2026-04-18T09:00:45Z</time></trkpt><trkpt lat="42.20115650207929" lon="12.668379733509203"><ele>146.0</ele><time>2026-04-18T09:00:46Z</time></trkpt><trkpt lat="42.20122759290559" lon="12.66852400405465"><ele>146.0</ele><time>2026-04-18T09:00:47Z</time></trkpt><trkpt lat="42.201297331035974" lon="12.668650700466616"><ele>146.0</ele><time>2026-04-18T09:00:48Z</time></trkpt><trkpt lat="42.2013697778319" lon="12.668783737771191"><ele>146.0</ele><time>2026-04-18T09:00:49Z</time></trkpt><trkpt lat="42.20143964334006" lon="12.668924286377372"><ele>146.8</ele><time>2026-04-18T09:00:50Z</time></trkpt><trkpt lat="42.20149781244806" lon="12.669045850428246"><ele>147.6</ele><time>2026-04-18T09:00:51Z</time></trkpt><trkpt lat="42.20154434020977" lon="12.669136534663384"><ele>148.4</ele><time>2026-04-18T09:00:52Z</time></trkpt><trkpt lat="42.201580137505175" lon="12.66920668088573"><ele>149.2</ele><time>2026-04-18T09:00:53Z</time></trkpt><trkpt lat="42.2016300450891" lon="12.669338797548333"><ele>150.0</ele><time>2026-04-18T09:00:55Z</time></trkpt><trkpt lat="42.20169435552552" lon="12.669435671881178"><ele>151.6</ele><time>2026-04-18T09:00:57.001Z</time></trkpt><trkpt lat="42.20174194277784" lon="12.669547284590633"><ele>153.2</ele><time>2026-04-18T09:00:59.001Z</time></trkpt><trkpt lat="42.20180264587963" lon="12.669686892721359"><ele>154.8</ele><time>2026-04-18T09:01:01.001Z</time></trkpt><trkpt lat="42.201830688847586" lon="12.669770018046478"><ele>156.4</ele><time>2026-04-18T09:01:02.001Z</time></trkpt><trkpt lat="42.20189766229868" lon="12.669909109532451"><ele>158.0</ele><time>2026-04-18T09:01:04.001Z</time></trkpt><trkpt lat="42.20193592822728" lon="12.669985931907004"><ele>158.0</ele><time>2026-04-18T09:01:05.001Z</time></trkpt><trkpt lat="42.20197042944381" lon="12.670068794137254"><ele>158.0</ele><time>2026-04-18T09:01:06.001Z</time></trkpt><trkpt lat="42.202005322770056" lon="12.670165772941145"><ele>158.0</ele><time>2026-04-18T09:01:07.001Z</time></trkpt><trkpt lat="42.20204573176041" lon="12.67027205756932"><ele>158.0</ele><time>2026-04-18T09:01:08.001Z</time></trkpt><trkpt lat="42.202084319907556" lon="12.670398234387752"><ele>158.0</ele><time>2026-04-18T09:01:09.001Z</time></trkpt><trkpt lat="42.202115452091405" lon="12.670513875130528"><ele>158.0</ele><time>2026-04-18T09:01:10.001Z</time></trkpt><trkpt lat="42.202148609899936" lon="12.670622049885617"><ele>157.8</ele><time>2026-04-18T09:01:11.001Z</time></trkpt><trkpt lat="42.20219334572563" lon="12.67073493668721"><ele>157.60000000000002</ele><time>2026-04-18T09:01:12.001Z</time></trkpt><trkpt lat="42.20224842050479" lon="12.670845318608302"><ele>157.39999999999998</ele><time>2026-04-18T09:01:13.001Z</time></trkpt><trkpt lat="42.202316828817985" lon="12.67095803079102"><ele>157.2</ele><time>2026-04-18T09:01:14.001Z</time></trkpt><trkpt lat="42.20240104563745" lon="12.671058987594735"><ele>157.0</ele><time>2026-04-18T09:01:15.001Z</time></trkpt><trkpt lat="42.20251156469917" lon="12.671173506893881"><ele>158.75</ele><time>2026-04-18T09:01:16.001Z</time></trkpt><trkpt lat="42.202606242851196" lon="12.671288940686559"><ele>160.5</ele><time>2026-04-18T09:01:17.001Z</time></trkpt><trkpt lat="42.20270357499421" lon="12.671404158715744"><ele>162.25</ele><time>2026-04-18T09:01:18.001Z</time></trkpt><trkpt lat="42.202815242287784" lon="12.671524654075759"><ele>164.0</ele><time>2026-04-18T09:01:19.001Z</time></trkpt><trkpt lat="42.2029019538606" lon="12.67165232418251"><ele>164.0</ele><time>2026-04-18T09:01:20.001Z</time></trkpt><trkpt lat="42.202976520307125" lon="12.671757448254715"><ele>164.0</ele><time>2026-04-18T09:01:21.001Z</time></trkpt><trkpt lat="42.20304968128656" lon="12.671866341346448"><ele>164.0</ele><time>2026-04-18T09:01:22.001Z</time></trkpt><trkpt lat="42.20312192021318" lon="12.671989316888764"><ele>164.0</ele><time>2026-04-18T09:01:23.001Z</time></trkpt><trkpt lat="42.20318611234931" lon="12.672116065120102"><ele>164.0</ele><time>2026-04-18T09:01:24.001Z</time></trkpt><trkpt lat="42.20326495485448" lon="12.672261722026663"><ele>164.25</ele><time>2026-04-18T09:01:25.001Z</time></trkpt><trkpt lat="42.2033316898613" lon="12.672425436845437"><ele>164.5</ele><time>2026-04-18T09:01:26.001Z</time></trkpt><trkpt lat="42.20339420131388" lon="12.67255130530957"><ele>164.75</ele><time>2026-04-18T09:01:27.001Z</time></trkpt><trkpt lat="42.20345608371469" lon="12.672669498692551"><ele>165.0</ele><time>2026-04-18T09:01:28.001Z</time></trkpt><trkpt lat="42.2035323455743" lon="12.672786396559804"><ele>165.0</ele><time>2026-04-18T09:01:29.001Z</time></trkpt><trkpt lat="42.203618029973434" lon="12.672900618293744"><ele>165.0</ele><time>2026-04-18T09:01:30.001Z</time></trkpt><trkpt lat="42.20372152744002" lon="12.673003817056559"><ele>165.0</ele><time>2026-04-18T09:01:31.001Z</time></trkpt><trkpt lat="42.203823871799976" lon="12.673143349209779"><ele>165.0</ele><time>2026-04-18T09:01:32.001Z</time></trkpt><trkpt lat="42.20393560363872" lon="12.67327208848373"><ele>165.8</ele><time>2026-04-18T09:01:33.001Z</time></trkpt><trkpt lat="42.20401890217138" lon="12.673387374274501"><ele>166.6</ele><time>2026-04-18T09:01:34.001Z</time></trkpt><trkpt lat="42.20408445853907" lon="12.673496229714399"><ele>167.39999999999998</ele><time>2026-04-18T09:01:35.001Z</time></trkpt><trkpt lat="42.20413576940201" lon="12.673600074264817"><ele>168.2</ele><time>2026-04-18T09:01:36.001Z</time></trkpt><trkpt lat="42.20417212200624" lon="12.673690506397046"><ele>169.0</ele><time>2026-04-18T09:01:37.001Z</time></trkpt><trkpt lat="42.20420447693728" lon="12.673803507247335"><ele>169.0</ele><time>2026-04-18T09:01:38.001Z</time></trkpt><trkpt lat="42.20423157796493" lon="12.673955761115097"><ele>169.0</ele><time>2026-04-18T09:01:39.001Z</time></trkpt><trkpt lat="42.204241939929155" lon="12.674109238506587"><ele>169.0</ele><time>2026-04-18T09:01:40.001Z</time></trkpt><trkpt lat="42.20423891876626" lon="12.674233556263555"><ele>169.0</ele><time>2026-04-18T09:01:41.001Z</time></trkpt><trkpt lat="42.20422298609439" lon="12.67434348040818"><ele>169.0</ele><time>2026-04-18T09:01:42.001Z</time></trkpt><trkpt lat="42.204179137385104" lon="12.67445942539207"><ele>168.75</ele><time>2026-04-18T09:01:43.001Z</time></trkpt><trkpt lat="42.20410359556482" lon="12.674582013601718"><ele>168.5</ele><time>2026-04-18T09:01:44.001Z</time></trkpt><trkpt lat="42.204024608260575" lon="12.674742005633162"><ele>168.25</ele><time>2026-04-18T09:01:45.001Z</time></trkpt><trkpt lat="42.20394758485292" lon="12.674901529783835"><ele>168.0</ele><time>2026-04-18T09:01:46.001Z</time></trkpt><trkpt lat="42.203861944701785" lon="12.675090840973821"><ele>168.0</ele><time>2026-04-18T09:01:47.001Z</time></trkpt><trkpt lat="42.203777559483434" lon="12.675252462442941"><ele>168.0</ele><time>2026-04-18T09:01:48.001Z</time></trkpt><trkpt lat="42.203697978823485" lon="12.675385449970893"><ele>168.0</ele><time>2026-04-18T09:01:49.001Z</time></trkpt><trkpt lat="42.20363361552882" lon="12.675517255753045"><ele>168.0</ele><time>2026-04-18T09:01:50.001Z</time></trkpt><trkpt lat="42.2035794913767" lon="12.675664363356995"><ele>169.25</ele><time>2026-04-18T09:01:51.001Z</time></trkpt><trkpt lat="42.20354304341381" lon="12.675834991360505"><ele>170.5</ele><time>2026-04-18T09:01:52.001Z</time></trkpt><trkpt lat="42.203524245264894" lon="12.676029227516127"><ele>171.75</ele><time>2026-04-18T09:01:53.001Z</time></trkpt><trkpt lat="42.20350061673939" lon="12.676223720983872"><ele>173.0</ele><time>2026-04-18T09:01:54.001Z</time></trkpt><trkpt lat="42.203474822426124" lon="12.67637819963154"><ele>173.8</ele><time>2026-04-18T09:01:55.001Z</time></trkpt><trkpt lat="42.20346364657103" lon="12.67651046570397"><ele>174.60000000000002</ele><time>2026-04-18T09:01:56.001Z</time></trkpt><trkpt lat="42.20345658013093" lon="12.676625805081969"><ele>175.39999999999998</ele><time>2026-04-18T09:01:57.001Z</time></trkpt><trkpt lat="42.20343113989424" lon="12.67671618788108"><ele>176.2</ele><time>2026-04-18T09:01:58.001Z</time></trkpt><trkpt lat="42.203412204363595" lon="12.676841755110951"><ele>177.0</ele><time>2026-04-18T09:02:00.001Z</time></trkpt><trkpt lat="42.20351872085429" lon="12.676955901586837"><ele>177.0</ele><time>2026-04-18T09:02:01.001Z</time></trkpt><trkpt lat="42.203582724175924" lon="12.677036556055992"><ele>177.0</ele><time>2026-04-18T09:02:02.001Z</time></trkpt><trkpt lat="42.20366066743255" lon="12.677120777323262"><ele>177.0</ele><time>2026-04-18T09:02:03.001Z</time></trkpt><trkpt lat="42.20374084949574" lon="12.677205757166492"><ele>177.0</ele><time>2026-04-18T09:02:04.001Z</time></trkpt><trkpt lat="42.203815529501284" lon="12.677275604077078"><ele>177.0</ele><time>2026-04-18T09:02:05Z</time></trkpt><trkpt lat="42.20389389119623" lon="12.677343557486655"><ele>177.0</ele><time>2026-04-18T09:02:06Z</time></trkpt><trkpt lat="42.20397689699768" lon="12.67740548621868"><ele>177.0</ele><time>2026-04-18T09:02:07Z</time></trkpt><trkpt lat="42.20406041993663" lon="12.677451596334866"><ele>177.0</ele><time>2026-04-18T09:02:08Z</time></trkpt><trkpt lat="42.20413945331403" lon="12.677518229710708"><ele>177.0</ele><time>2026-04-18T09:02:09Z</time></trkpt><trkpt lat="42.204229236280256" lon="12.677566439882861"><ele>177.0</ele><time>2026-04-18T09:02:10Z</time></trkpt><trkpt lat="42.204331499810834" lon="12.677590118431688"><ele>176.39999999999998</ele><time>2026-04-18T09:02:11Z</time></trkpt><trkpt lat="42.20442326530803" lon="12.677619845995093"><ele>175.79999999999998</ele><time>2026-04-18T09:02:12Z</time></trkpt><trkpt lat="42.204520444337106" lon="12.677642654770004"><ele>175.2</ele><time>2026-04-18T09:02:13Z</time></trkpt><trkpt lat="42.20462505423625" lon="12.677667834736903"><ele>174.6</ele><time>2026-04-18T09:02:14Z</time></trkpt><trkpt lat="42.20472483556001" lon="12.677693532084653"><ele>174.0</ele><time>2026-04-18T09:02:15Z</time></trkpt><trkpt lat="42.204822497644265" lon="12.677727564100522"><ele>173.0</ele><time>2026-04-18T09:02:16Z</time></trkpt><trkpt lat="42.20490663481756" lon="12.677776684007315"><ele>172.0</ele><time>2026-04-18T09:02:17Z</time></trkpt><trkpt lat="42.20498243883661" lon="12.677855512413057"><ele>171.0</ele><time>2026-04-18T09:02:18Z</time></trkpt><trkpt lat="42.205031662574825" lon="12.67797525880416"><ele>170.0</ele><time>2026-04-18T09:02:19Z</time></trkpt><trkpt lat="42.20509066477289" lon="12.678097577479564"><ele>169.0</ele><time>2026-04-18T09:02:20Z</time></trkpt><trkpt lat="42.20513851670608" lon="12.678264394430439"><ele>169.0</ele><time>2026-04-18T09:02:21Z</time></trkpt><trkpt lat="42.205186985925586" lon="12.678412746105488"><ele>169.0</ele><time>2026-04-18T09:02:22Z</time></trkpt><trkpt lat="42.20525172836794" lon="12.678542206330793"><ele>169.0</ele><time>2026-04-18T09:02:23Z</time></trkpt><trkpt lat="42.20532909721225" lon="12.67864468266718"><ele>169.0</ele><time>2026-04-18T09:02:24Z</time></trkpt><trkpt lat="42.20541292975767" lon="12.678728072010852"><ele>169.0</ele><time>2026-04-18T09:02:25Z</time></trkpt><trkpt lat="42.20550076240271" lon="12.678794896107377"><ele>167.25</ele><time>2026-04-18T09:02:26Z</time></trkpt><trkpt lat="42.205600505327645" lon="12.678861959515746"><ele>165.5</ele><time>2026-04-18T09:02:27Z</time></trkpt><trkpt lat="42.205724347546486" lon="12.67892090125922"><ele>163.75</ele><time>2026-04-18T09:02:28Z</time></trkpt><trkpt lat="42.205857138315075" lon="12.678964892728253"><ele>162.0</ele><time>2026-04-18T09:02:29Z</time></trkpt><trkpt lat="42.205969083548204" lon="12.679000715065348"><ele>162.0</ele><time>2026-04-18T09:02:30Z</time></trkpt><trkpt lat="42.20606144355509" lon="12.67898364554428"><ele>162.0</ele><time>2026-04-18T09:02:31Z</time></trkpt><trkpt lat="42.20613945491147" lon="12.678976886528366"><ele>162.0</ele><time>2026-04-18T09:02:32Z</time></trkpt><trkpt lat="42.20621862217081" lon="12.678958435602876"><ele>162.0</ele><time>2026-04-18T09:02:33Z</time></trkpt><trkpt lat="42.20629419756107" lon="12.678953415715362"><ele>162.0</ele><time>2026-04-18T09:02:34Z</time></trkpt><trkpt lat="42.206373440303835" lon="12.678964110723152"><ele>162.0</ele><time>2026-04-18T09:02:36Z</time></trkpt><trkpt lat="42.20647091943877" lon="12.678991383236285"><ele>162.2</ele><time>2026-04-18T09:02:42Z</time></trkpt><trkpt lat="42.20658132036736" lon="12.679009214650993"><ele>162.39999999999998</ele><time>2026-04-18T09:02:44Z</time></trkpt><trkpt lat="42.20667599045898" lon="12.67907353684593"><ele>162.60000000000002</ele><time>2026-04-18T09:02:46Z</time></trkpt><trkpt lat="42.20675245187934" lon="12.67913663864977"><ele>162.8</ele><time>2026-04-18T09:02:48Z</time></trkpt><trkpt lat="42.20682189947559" lon="12.67920953228896"><ele>163.0</ele><time>2026-04-18T09:02:50Z</time></trkpt><trkpt lat="42.20688044684001" lon="12.679249420187473"><ele>163.0</ele><time>2026-04-18T09:02:51Z</time></trkpt><trkpt lat="42.2069482736884" lon="12.679293418476261"><ele>163.0</ele><time>2026-04-18T09:02:52Z</time></trkpt><trkpt lat="42.2070082980373" lon="12.679353554219663"><ele>163.0</ele><time>2026-04-18T09:02:53Z</time></trkpt><trkpt lat="42.20707065373103" lon="12.67941914996818"><ele>163.0</ele><time>2026-04-18T09:02:54Z</time></trkpt><trkpt lat="42.20711929761755" lon="12.679477944873032"><ele>163.0</ele><time>2026-04-18T09:02:55Z</time></trkpt><trkpt lat="42.20720483605415" lon="12.679600405193028"><ele>163.0</ele><time>2026-04-18T09:02:57Z</time></trkpt><trkpt lat="42.20726143936103" lon="12.679678756802314"><ele>162.83333333333334</ele><time>2026-04-18T09:02:58Z</time></trkpt><trkpt lat="42.20731618714438" lon="12.679750214719377"><ele>162.66666666666669</ele><time>2026-04-18T09:02:59Z</time></trkpt><trkpt lat="42.20736593862016" lon="12.679827013737173"><ele>162.5</ele><time>2026-04-18T09:03:00Z</time></trkpt><trkpt lat="42.20741458430809" lon="12.679899989510064"><ele>162.33333333333334</ele><time>2026-04-18T09:03:01Z</time></trkpt><trkpt lat="42.207468192774385" lon="12.679972731303565"><ele>162.16666666666666</ele><time>2026-04-18T09:03:02Z</time></trkpt><trkpt lat="42.20752060342824" lon="12.68005783877267"><ele>162.0</ele><time>2026-04-18T09:03:03Z</time></trkpt><trkpt lat="42.20757130048057" lon="12.680140250613846"><ele>162.0</ele><time>2026-04-18T09:03:04Z</time></trkpt><trkpt lat="42.20762317887305" lon="12.680211976377471"><ele>162.0</ele><time>2026-04-18T09:03:05Z</time></trkpt><trkpt lat="42.20767602909357" lon="12.680289083814623"><ele>162.0</ele><time>2026-04-18T09:03:06Z</time></trkpt><trkpt lat="42.20772937937383" lon="12.680354117026665"><ele>162.0</ele><time>2026-04-18T09:03:07Z</time></trkpt><trkpt lat="42.20779181948827" lon="12.680456263518169"><ele>162.0</ele><time>2026-04-18T09:03:09Z</time></trkpt><trkpt lat="42.20784975917082" lon="12.680612287007643"><ele>162.0</ele><time>2026-04-18T09:03:21Z</time></trkpt><trkpt lat="42.20781890560198" lon="12.680694587550025"><ele>162.0</ele><time>2026-04-18T09:03:22Z</time></trkpt><trkpt lat="42.207785421161695" lon="12.680766723354788"><ele>162.0</ele><time>2026-04-18T09:03:23Z</time></trkpt><trkpt lat="42.20775238473948" lon="12.680843413074408"><ele>162.0</ele><time>2026-04-18T09:03:24Z</time></trkpt><trkpt lat="42.207774386729135" lon="12.68101724408947"><ele>162.0</ele><time>2026-04-18T09:03:26Z</time></trkpt><trkpt lat="42.20779902422579" lon="12.681134118655866"><ele>162.0</ele><time>2026-04-18T09:03:27Z</time></trkpt><trkpt lat="42.20784870489391" lon="12.681267721483202"><ele>163.39999999999998</ele><time>2026-04-18T09:03:28Z</time></trkpt><trkpt lat="42.207911639053016" lon="12.681383845911132"><ele>164.79999999999998</ele><time>2026-04-18T09:03:29Z</time></trkpt><trkpt lat="42.207991789010634" lon="12.681498517176474"><ele>166.2</ele><time>2026-04-18T09:03:30Z</time></trkpt><trkpt lat="42.208044512788746" lon="12.681636589515065"><ele>167.6</ele><time>2026-04-18T09:03:31Z</time></trkpt><trkpt lat="42.208090086419084" lon="12.681763734006838"><ele>169.0</ele><time>2026-04-18T09:03:32Z</time></trkpt><trkpt lat="42.20812344948044" lon="12.681878632112904"><ele>166.6</ele><time>2026-04-18T09:03:33Z</time></trkpt><trkpt lat="42.208144348638335" lon="12.68197454545403"><ele>164.2</ele><time>2026-04-18T09:03:34Z</time></trkpt><trkpt lat="42.208176361128764" lon="12.682118844575651"><ele>161.79999999999998</ele><time>2026-04-18T09:03:35Z</time></trkpt><trkpt lat="42.20822201790845" lon="12.682263815300669"><ele>159.39999999999998</ele><time>2026-04-18T09:03:36Z</time></trkpt><trkpt lat="42.20826126458341" lon="12.682428356401259"><ele>157.0</ele><time>2026-04-18T09:03:37Z</time></trkpt><trkpt lat="42.20827985420296" lon="12.682577817088273"><ele>157.0</ele><time>2026-04-18T09:03:38Z</time></trkpt><trkpt lat="42.208331687852635" lon="12.682728813543617"><ele>157.0</ele><time>2026-04-18T09:03:39Z</time></trkpt><trkpt lat="42.208360622570545" lon="12.68289710491218"><ele>157.0</ele><time>2026-04-18T09:03:40Z</time></trkpt><trkpt lat="42.208407873815744" lon="12.683068710880738"><ele>157.0</ele><time>2026-04-18T09:03:41Z</time></trkpt><trkpt lat="42.20845111244981" lon="12.683221870217173"><ele>158.8</ele><time>2026-04-18T09:03:42Z</time></trkpt><trkpt lat="42.20848903412075" lon="12.683363802541635"><ele>160.6</ele><time>2026-04-18T09:03:43Z</time></trkpt><trkpt lat="42.208514245776975" lon="12.683513962862513"><ele>162.4</ele><time>2026-04-18T09:03:44Z</time></trkpt><trkpt lat="42.2085606968521" lon="12.683622286126147"><ele>164.20000000000002</ele><time>2026-04-18T09:03:45Z</time></trkpt><trkpt lat="42.2085914233769" lon="12.683720918260159"><ele>166.0</ele><time>2026-04-18T09:03:46Z</time></trkpt><trkpt lat="42.20861394054025" lon="12.683804534855875"><ele>168.0</ele><time>2026-04-18T09:03:47Z</time></trkpt><trkpt lat="42.20864110255482" lon="12.683901153588769"><ele>170.0</ele><time>2026-04-18T09:03:48Z</time></trkpt><trkpt lat="42.20867730804922" lon="12.683994633313022"><ele>172.0</ele><time>2026-04-18T09:03:49Z</time></trkpt><trkpt lat="42.208744218204274" lon="12.684081461760869"><ele>174.0</ele><time>2026-04-18T09:03:50Z</time></trkpt><trkpt lat="42.20878762677144" lon="12.68419097591486"><ele>176.0</ele><time>2026-04-18T09:03:51Z</time></trkpt><trkpt lat="42.20883506149078" lon="12.68425006382355"><ele>178.0</ele><time>2026-04-18T09:03:52Z</time></trkpt><trkpt lat="42.20887820755883" lon="12.68434825948491"><ele>180.0</ele><time>2026-04-18T09:03:53Z</time></trkpt><trkpt lat="42.20894758322267" lon="12.684490993212632"><ele>182.0</ele><time>2026-04-18T09:03:54Z</time></trkpt><trkpt lat="42.20899062622755" lon="12.684646111013336"><ele>184.0</ele><time>2026-04-18T09:03:55Z</time></trkpt><trkpt lat="42.20903773180994" lon="12.684769928779824"><ele>186.0</ele><time>2026-04-18T09:03:56Z</time></trkpt><trkpt lat="42.20908586086252" lon="12.684897986091435"><ele>183.0</ele><time>2026-04-18T09:03:57Z</time></trkpt><trkpt lat="42.20912653199231" lon="12.6850061999728"><ele>180.0</ele><time>2026-04-18T09:03:58Z</time></trkpt><trkpt lat="42.20918582521107" lon="12.685117070156728"><ele>177.0</ele><time>2026-04-18T09:03:59Z</time></trkpt><trkpt lat="42.20923450495511" lon="12.685246028053395"><ele>174.0</ele><time>2026-04-18T09:04:00Z</time></trkpt><trkpt lat="42.209288688841234" lon="12.68538047309356"><ele>171.0</ele><time>2026-04-18T09:04:01Z</time></trkpt><trkpt lat="42.209348170911404" lon="12.685530061530747"><ele>171.0</ele><time>2026-04-18T09:04:02Z</time></trkpt><trkpt lat="42.20941864253806" lon="12.685679107276835"><ele>171.0</ele><time>2026-04-18T09:04:03Z</time></trkpt><trkpt lat="42.209497975663155" lon="12.685824929957176"><ele>171.0</ele><time>2026-04-18T09:04:04Z</time></trkpt><trkpt lat="42.20957709445028" lon="12.685959711469811"><ele>171.0</ele><time>2026-04-18T09:04:05Z</time></trkpt><trkpt lat="42.20965959378467" lon="12.686098066104869"><ele>170.0</ele><time>2026-04-18T09:04:06Z</time></trkpt><trkpt lat="42.2097548142738" lon="12.68624313264185"><ele>169.0</ele><time>2026-04-18T09:04:07Z</time></trkpt><trkpt lat="42.209854160889954" lon="12.686387086445997"><ele>168.0</ele><time>2026-04-18T09:04:08Z</time></trkpt><trkpt lat="42.20993108068051" lon="12.686502393762103"><ele>167.0</ele><time>2026-04-18T09:04:09Z</time></trkpt><trkpt lat="42.209998271894214" lon="12.68659337194427"><ele>167.0</ele><time>2026-04-18T09:04:10Z</time></trkpt><trkpt lat="42.21005555171197" lon="12.686686813051264"><ele>167.0</ele><time>2026-04-18T09:04:11Z</time></trkpt><trkpt lat="42.21012391026119" lon="12.686778551549333"><ele>167.0</ele><time>2026-04-18T09:04:12Z</time></trkpt><trkpt lat="42.21019139508011" lon="12.686864209665911"><ele>167.0</ele><time>2026-04-18T09:04:13Z</time></trkpt><trkpt lat="42.210264563071966" lon="12.686969825322274"><ele>167.0</ele><time>2026-04-18T09:04:14Z</time></trkpt><trkpt lat="42.21035071310888" lon="12.68707703786247"><ele>168.0</ele><time>2026-04-18T09:04:15Z</time></trkpt><trkpt lat="42.21044306448501" lon="12.687185149379708"><ele>169.0</ele><time>2026-04-18T09:04:16Z</time></trkpt><trkpt lat="42.210550470427364" lon="12.687291211435273"><ele>170.0</ele><time>2026-04-18T09:04:17Z</time></trkpt><trkpt lat="42.2106593864922" lon="12.687370205387733"><ele>171.0</ele><time>2026-04-18T09:04:18Z</time></trkpt><trkpt lat="42.21074976223124" lon="12.687455627156288"><ele>171.0</ele><time>2026-04-18T09:04:19Z</time></trkpt><trkpt lat="42.210825944856985" lon="12.687516225802765"><ele>171.0</ele><time>2026-04-18T09:04:20Z</time></trkpt><trkpt lat="42.21087754102048" lon="12.687580326752899"><ele>171.0</ele><time>2026-04-18T09:04:21Z</time></trkpt><trkpt lat="42.21093404583015" lon="12.687630939096936"><ele>171.0</ele><time>2026-04-18T09:04:22Z</time></trkpt><trkpt lat="42.21098599873121" lon="12.687793247560538"><ele>171.0</ele><time>2026-04-18T09:04:24Z</time></trkpt><trkpt lat="42.210999531345735" lon="12.687911759220931"><ele>171.0</ele><time>2026-04-18T09:04:25Z</time></trkpt><trkpt lat="42.21101957616727" lon="12.688059951643803"><ele>175.5</ele><time>2026-04-18T09:04:26Z</time></trkpt><trkpt lat="42.211044776865506" lon="12.688199737241254"><ele>180.0</ele><time>2026-04-18T09:04:27Z</time></trkpt><trkpt lat="42.21107611824055" lon="12.688378088096878"><ele>184.5</ele><time>2026-04-18T09:04:28Z</time></trkpt><trkpt lat="42.211095443625965" lon="12.688558612486858"><ele>189.0</ele><time>2026-04-18T09:04:29Z</time></trkpt><trkpt lat="42.21112877124025" lon="12.688708859362748"><ele>190.79999999999998</ele><time>2026-04-18T09:04:30Z</time></trkpt><trkpt lat="42.211165501180176" lon="12.688824055669558"><ele>192.6</ele><time>2026-04-18T09:04:31Z</time></trkpt><trkpt lat="42.21120550602708" lon="12.688949298158397"><ele>194.4</ele><time>2026-04-18T09:04:32Z</time></trkpt><trkpt lat="42.21126025204727" lon="12.689085242482202"><ele>196.2</ele><time>2026-04-18T09:04:33Z</time></trkpt><trkpt lat="42.211312276003156" lon="12.689223553889969"><ele>198.0</ele><time>2026-04-18T09:04:34Z</time></trkpt><trkpt lat="42.21137474396115" lon="12.68936537268236"><ele>202.0</ele><time>2026-04-18T09:04:35Z</time></trkpt><trkpt lat="42.21143860780582" lon="12.689513209937394"><ele>206.0</ele><time>2026-04-18T09:04:36Z</time></trkpt><trkpt lat="42.211487378772134" lon="12.689657958142547"><ele>210.0</ele><time>2026-04-18T09:04:37Z</time></trkpt><trkpt lat="42.21155596582735" lon="12.689776624820196"><ele>214.0</ele><time>2026-04-18T09:04:38Z</time></trkpt><trkpt lat="42.2116066698589" lon="12.689901582684017"><ele>212.39999999999998</ele><time>2026-04-18T09:04:39Z</time></trkpt><trkpt lat="42.211638187890586" lon="12.69001269481094"><ele>210.79999999999998</ele><time>2026-04-18T09:04:40Z</time></trkpt><trkpt lat="42.21170172384976" lon="12.690115604441914"><ele>209.2</ele><time>2026-04-18T09:04:41Z</time></trkpt><trkpt lat="42.2117445525078" lon="12.690276653687533"><ele>207.60000000000002</ele><time>2026-04-18T09:04:42Z</time></trkpt><trkpt lat="42.21179630030914" lon="12.690402742174795"><ele>206.0</ele><time>2026-04-18T09:04:43Z</time></trkpt><trkpt lat="42.21186017824636" lon="12.690495686052731"><ele>206.00000000000003</ele><time>2026-04-18T09:04:44Z</time></trkpt><trkpt lat="42.211952714569996" lon="12.690558770084888"><ele>206.0</ele><time>2026-04-18T09:04:45Z</time></trkpt><trkpt lat="42.21205247043478" lon="12.690589384318923"><ele>206.0</ele><time>2026-04-18T09:04:46Z</time></trkpt><trkpt lat="42.212128618064504" lon="12.69064618211663"><ele>206.0</ele><time>2026-04-18T09:04:47Z</time></trkpt><trkpt lat="42.21219298617714" lon="12.6906773902232"><ele>206.00000000000003</ele><time>2026-04-18T09:04:48Z</time></trkpt><trkpt lat="42.21226143263783" lon="12.690621408073453"><ele>206.0</ele><time>2026-04-18T09:04:49Z</time></trkpt><trkpt lat="42.212333976389694" lon="12.690614819208365"><ele>201.66666666666669</ele><time>2026-04-18T09:04:51Z</time></trkpt><trkpt lat="42.21239807408004" lon="12.690583009259726"><ele>197.33333333333334</ele><time>2026-04-18T09:04:53Z</time></trkpt><trkpt lat="42.2124670447875" lon="12.690650405812047"><ele>193.0</ele><time>2026-04-18T09:04:55Z</time></trkpt><trkpt lat="42.21252964303253" lon="12.69069217679454"><ele>188.66666666666669</ele><time>2026-04-18T09:04:56Z</time></trkpt><trkpt lat="42.21260952843102" lon="12.690753484092708"><ele>184.33333333333334</ele><time>2026-04-18T09:04:58Z</time></trkpt><trkpt lat="42.21271793925811" lon="12.69081966922874"><ele>180.0</ele><time>2026-04-18T09:05:00Z</time></trkpt><trkpt lat="42.212784499611764" lon="12.690855964928119"><ele>180.0</ele><time>2026-04-18T09:05:02Z</time></trkpt><trkpt lat="42.212873236810566" lon="12.690882730115359"><ele>180.0</ele><time>2026-04-18T09:05:04Z</time></trkpt><trkpt lat="42.21299118553789" lon="12.690908096440573"><ele>180.0</ele><time>2026-04-18T09:05:06Z</time></trkpt><trkpt lat="42.213038845356614" lon="12.691003299602126"><ele>180.0</ele><time>2026-04-18T09:05:08Z</time></trkpt><trkpt lat="42.21309263139269" lon="12.69106848912184"><ele>180.0</ele><time>2026-04-18T09:05:10Z</time></trkpt><trkpt lat="42.213109798631194" lon="12.691158557288766"><ele>180.0</ele><time>2026-04-18T09:05:11Z</time></trkpt><trkpt lat="42.2131839981433" lon="12.691326221520569"><ele>177.5</ele><time>2026-04-18T09:05:13Z</time></trkpt><trkpt lat="42.21319888520395" lon="12.691445430991134"><ele>175.0</ele><time>2026-04-18T09:05:14Z</time></trkpt><trkpt lat="42.2132248891714" lon="12.691547486694635"><ele>172.5</ele><time>2026-04-18T09:05:15Z</time></trkpt><trkpt lat="42.213249183840965" lon="12.691646868607538"><ele>170.0</ele><time>2026-04-18T09:05:16Z</time></trkpt><trkpt lat="42.21326019583477" lon="12.69175224810152"><ele>167.5</ele><time>2026-04-18T09:05:17Z</time></trkpt><trkpt lat="42.213261915945175" lon="12.691851821507589"><ele>165.0</ele><time>2026-04-18T09:05:18Z</time></trkpt><trkpt lat="42.21325712444339" lon="12.691952691059683"><ele>164.83333333333334</ele><time>2026-04-18T09:05:19Z</time></trkpt><trkpt lat="42.2132544502189" lon="12.692063207055826"><ele>164.66666666666666</ele><time>2026-04-18T09:05:20Z</time></trkpt><trkpt lat="42.213250389416835" lon="12.692179151497127"><ele>164.5</ele><time>2026-04-18T09:05:21Z</time></trkpt><trkpt lat="42.213242972036724" lon="12.692276088602886"><ele>164.33333333333331</ele><time>2026-04-18T09:05:22Z</time></trkpt><trkpt lat="42.21322193066113" lon="12.692409927258248"><ele>164.16666666666666</ele><time>2026-04-18T09:05:24Z</time></trkpt><trkpt lat="42.21320291556675" lon="12.692531363952874"><ele>164.0</ele><time>2026-04-18T09:05:26Z</time></trkpt><trkpt lat="42.21319197704327" lon="12.69262790686964"><ele>164.0</ele><time>2026-04-18T09:05:30Z</time></trkpt><trkpt lat="42.21318344596467" lon="12.692718610676192"><ele>164.0</ele><time>2026-04-18T09:06:41Z</time></trkpt><trkpt lat="42.21322196864817" lon="12.692791993968044"><ele>164.0</ele><time>2026-04-18T09:06:43Z</time></trkpt><trkpt lat="42.21324666014624" lon="12.692937291064741"><ele>164.0</ele><time>2026-04-18T09:06:45Z</time></trkpt><trkpt lat="42.21319365243633" lon="12.693026450426697"><ele>164.0</ele><time>2026-04-18T09:06:46Z</time></trkpt><trkpt lat="42.21317143344041" lon="12.693187833882007"><ele>162.79999999999998</ele><time>2026-04-18T09:06:48Z</time></trkpt><trkpt lat="42.2131645144784" lon="12.693277443616811"><ele>161.6</ele><time>2026-04-18T09:06:49Z</time></trkpt><trkpt lat="42.21314214418241" lon="12.693420367520151"><ele>160.4</ele><time>2026-04-18T09:06:51Z</time></trkpt><trkpt lat="42.21312662080092" lon="12.693559987609358"><ele>159.2</ele><time>2026-04-18T09:06:53Z</time></trkpt><trkpt lat="42.213124124304635" lon="12.69372412968779"><ele>158.0</ele><time>2026-04-18T09:06:55Z</time></trkpt><trkpt lat="42.21313474342558" lon="12.693855575816277"><ele>157.5</ele><time>2026-04-18T09:06:57Z</time></trkpt><trkpt lat="42.21317807293669" lon="12.693961108783794"><ele>157.0</ele><time>2026-04-18T09:06:59Z</time></trkpt><trkpt lat="42.21325523440082" lon="12.69398716483162"><ele>156.5</ele><time>2026-04-18T09:07:01Z</time></trkpt><trkpt lat="42.21331556343543" lon="12.693920719417077"><ele>156.0</ele><time>2026-04-18T09:07:03Z</time></trkpt><trkpt lat="42.21337451764376" lon="12.693786041329618"><ele>155.5</ele><time>2026-04-18T09:07:05Z</time></trkpt><trkpt lat="42.21341172222915" lon="12.69371206855008"><ele>155.0</ele><time>2026-04-18T09:07:06Z</time></trkpt><trkpt lat="42.213466797135304" lon="12.693612331932586"><ele>155.6</ele><time>2026-04-18T09:07:08Z</time></trkpt><trkpt lat="42.21352982377595" lon="12.693509281012819"><ele>156.2</ele><time>2026-04-18T09:07:10Z</time></trkpt><trkpt lat="42.2136138288973" lon="12.693386190550486"><ele>156.8</ele><time>2026-04-18T09:07:12Z</time></trkpt><trkpt lat="42.21367236627116" lon="12.693247222369642"><ele>157.4</ele><time>2026-04-18T09:07:14Z</time></trkpt><trkpt lat="42.213707923968144" lon="12.693137745132724"><ele>158.0</ele><time>2026-04-18T09:07:16Z</time></trkpt><trkpt lat="42.213765350703795" lon="12.693072661487955"><ele>158.0</ele><time>2026-04-18T09:07:19Z</time></trkpt><trkpt lat="42.213806689859155" lon="12.693175719968648"><ele>158.0</ele><time>2026-04-18T09:07:23Z</time></trkpt><trkpt lat="42.21375106884006" lon="12.69333396036732"><ele>158.0</ele><time>2026-04-18T09:07:25Z</time></trkpt><trkpt lat="42.213731908950436" lon="12.69342498462351"><ele>158.0</ele><time>2026-04-18T09:07:26Z</time></trkpt><trkpt lat="42.213721199779144" lon="12.693516675179918"><ele>158.0</ele><time>2026-04-18T09:07:27Z</time></trkpt><trkpt lat="42.213691158799854" lon="12.693686404585536"><ele>157.4</ele><time>2026-04-18T09:07:29Z</time></trkpt><trkpt lat="42.21369629251991" lon="12.69382694979717"><ele>156.8</ele><time>2026-04-18T09:07:31Z</time></trkpt><trkpt lat="42.21372327976749" lon="12.693932535430264"><ele>156.2</ele><time>2026-04-18T09:07:33Z</time></trkpt><trkpt lat="42.21379869917071" lon="12.694029972655299"><ele>155.6</ele><time>2026-04-18T09:07:35Z</time></trkpt><trkpt lat="42.213919411764834" lon="12.694025653276425"><ele>155.0</ele><time>2026-04-18T09:07:37Z</time></trkpt><trkpt lat="42.21398793941843" lon="12.693990239392761"><ele>152.83333333333331</ele><time>2026-04-18T09:07:38Z</time></trkpt><trkpt lat="42.21405677249565" lon="12.693952259040062"><ele>150.66666666666666</ele><time>2026-04-18T09:07:39Z</time></trkpt><trkpt lat="42.214119780876345" lon="12.693926076281643"><ele>148.5</ele><time>2026-04-18T09:07:40Z</time></trkpt><trkpt lat="42.214228566822676" lon="12.693889486118334"><ele>146.33333333333334</ele><time>2026-04-18T09:07:42Z</time></trkpt><trkpt lat="42.21433239170682" lon="12.69381411337399"><ele>144.16666666666669</ele><time>2026-04-18T09:07:44Z</time></trkpt><trkpt lat="42.2143871406803" lon="12.693757065508244"><ele>142.0</ele><time>2026-04-18T09:07:45Z</time></trkpt><trkpt lat="42.214448792455734" lon="12.693715565966006"><ele>142.0</ele><time>2026-04-18T09:07:46Z</time></trkpt><trkpt lat="42.214526155038854" lon="12.693690041392914"><ele>142.0</ele><time>2026-04-18T09:07:47Z</time></trkpt><trkpt lat="42.21459214704322" lon="12.693672617179832"><ele>142.0</ele><time>2026-04-18T09:07:48Z</time></trkpt><trkpt lat="42.21465681962558" lon="12.69367417795205"><ele>142.0</ele><time>2026-04-18T09:07:49Z</time></trkpt><trkpt lat="42.2147593627689" lon="12.693738690394833"><ele>142.0</ele><time>2026-04-18T09:07:51Z</time></trkpt><trkpt lat="42.214835226485995" lon="12.693789453864202"><ele>142.0</ele><time>2026-04-18T09:07:52Z</time></trkpt><trkpt lat="42.214927470940125" lon="12.693848017165704"><ele>140.79999999999998</ele><time>2026-04-18T09:07:53Z</time></trkpt><trkpt lat="42.21502858582912" lon="12.693902239155005"><ele>139.6</ele><time>2026-04-18T09:07:54Z</time></trkpt><trkpt lat="42.21512176387502" lon="12.693962236101827"><ele>138.39999999999998</ele><time>2026-04-18T09:07:55Z</time></trkpt><trkpt lat="42.2152109763764" lon="12.69402573900988"><ele>137.2</ele><time>2026-04-18T09:07:56Z</time></trkpt><trkpt lat="42.21530122813238" lon="12.694094142327527"><ele>136.0</ele><time>2026-04-18T09:07:57Z</time></trkpt><trkpt lat="42.21538630729453" lon="12.694153008452217"><ele>136.0</ele><time>2026-04-18T09:07:58Z</time></trkpt><trkpt lat="42.21545996890337" lon="12.694195133745591"><ele>136.0</ele><time>2026-04-18T09:07:59Z</time></trkpt><trkpt lat="42.215538938857925" lon="12.694219008274716"><ele>136.0</ele><time>2026-04-18T09:08:00Z</time></trkpt><trkpt lat="42.21562655597936" lon="12.694217274392544"><ele>136.0</ele><time>2026-04-18T09:08:01Z</time></trkpt><trkpt lat="42.21571037747223" lon="12.694210066829845"><ele>136.0</ele><time>2026-04-18T09:08:02Z</time></trkpt><trkpt lat="42.21582196469765" lon="12.694211677794039"><ele>136.0</ele><time>2026-04-18T09:08:03Z</time></trkpt><trkpt lat="42.215918821809105" lon="12.694222727563279"><ele>135.33333333333334</ele><time>2026-04-18T09:08:04Z</time></trkpt><trkpt lat="42.21600112211818" lon="12.694231341630537"><ele>134.66666666666669</ele><time>2026-04-18T09:08:05Z</time></trkpt><trkpt lat="42.21609054984146" lon="12.694236961349018"><ele>134.0</ele><time>2026-04-18T09:08:06Z</time></trkpt><trkpt lat="42.216175994348326" lon="12.694246346554914"><ele>133.33333333333334</ele><time>2026-04-18T09:08:07Z</time></trkpt><trkpt lat="42.216241184729746" lon="12.69425857503229"><ele>132.66666666666666</ele><time>2026-04-18T09:08:08Z</time></trkpt><trkpt lat="42.216307980956024" lon="12.69428680694388"><ele>132.0</ele><time>2026-04-18T09:08:09Z</time></trkpt><trkpt lat="42.2163761817217" lon="12.694337720446795"><ele>132.0</ele><time>2026-04-18T09:08:10Z</time></trkpt><trkpt lat="42.21646410202149" lon="12.694396197964943"><ele>132.0</ele><time>2026-04-18T09:08:11Z</time></trkpt><trkpt lat="42.21653312418735" lon="12.69445201189144"><ele>132.0</ele><time>2026-04-18T09:08:12Z</time></trkpt><trkpt lat="42.216606686055655" lon="12.694506716681083"><ele>132.0</ele><time>2026-04-18T09:08:13Z</time></trkpt><trkpt lat="42.216689849175296" lon="12.694555894579812"><ele>132.0</ele><time>2026-04-18T09:08:14Z</time></trkpt><trkpt lat="42.21677453053862" lon="12.694585734093758"><ele>132.0</ele><time>2026-04-18T09:08:15Z</time></trkpt><trkpt lat="42.21687111687804" lon="12.69459469923144"><ele>135.2</ele><time>2026-04-18T09:08:17Z</time></trkpt><trkpt lat="42.21695283816822" lon="12.694637752857737"><ele>138.39999999999998</ele><time>2026-04-18T09:09:09Z</time></trkpt><trkpt lat="42.21701828185284" lon="12.694731828293325"><ele>141.60000000000002</ele><time>2026-04-18T09:09:11Z</time></trkpt><trkpt lat="42.21708108735286" lon="12.6948475721801"><ele>144.8</ele><time>2026-04-18T09:09:13Z</time></trkpt><trkpt lat="42.21718112952831" lon="12.694934398383069"><ele>148.0</ele><time>2026-04-18T09:09:15Z</time></trkpt><trkpt lat="42.21729724501772" lon="12.694978669002358"><ele>146.4</ele><time>2026-04-18T09:09:17Z</time></trkpt><trkpt lat="42.217419912431346" lon="12.694987867986868"><ele>144.8</ele><time>2026-04-18T09:09:19Z</time></trkpt><trkpt lat="42.217513720624346" lon="12.695052494708284"><ele>143.2</ele><time>2026-04-18T09:09:21Z</time></trkpt><trkpt lat="42.21758085753555" lon="12.695183759531359"><ele>141.6</ele><time>2026-04-18T09:09:23Z</time></trkpt><trkpt lat="42.2176094067236" lon="12.695260861781898"><ele>140.0</ele><time>2026-04-18T09:09:24Z</time></trkpt><trkpt lat="42.217651614088915" lon="12.695328007493405"><ele>140.0</ele><time>2026-04-18T09:09:25Z</time></trkpt><trkpt lat="42.2177119465836" lon="12.695355791377539"><ele>140.0</ele><time>2026-04-18T09:09:26Z</time></trkpt><trkpt lat="42.21781750502896" lon="12.69536518997649"><ele>140.0</ele><time>2026-04-18T09:09:28Z</time></trkpt><trkpt lat="42.21788697527208" lon="12.695350469259877"><ele>140.0</ele><time>2026-04-18T09:09:30Z</time></trkpt><trkpt lat="42.21795570334194" lon="12.695340508831327"><ele>140.0</ele><time>2026-04-18T09:09:33Z</time></trkpt><trkpt lat="42.21804672002791" lon="12.695334590646592"><ele>140.0</ele><time>2026-04-18T09:09:36Z</time></trkpt><trkpt lat="42.218117361938816" lon="12.695359181378606"><ele>137.83333333333331</ele><time>2026-04-18T09:09:38Z</time></trkpt><trkpt lat="42.21819210836635" lon="12.695369751120507"><ele>135.66666666666666</ele><time>2026-04-18T09:09:40Z</time></trkpt><trkpt lat="42.21825577747841" lon="12.695383068468084"><ele>133.5</ele><time>2026-04-18T09:09:42Z</time></trkpt><trkpt lat="42.21833187928964" lon="12.695369522737478"><ele>131.33333333333334</ele><time>2026-04-18T09:09:44Z</time></trkpt><trkpt lat="42.218414459931545" lon="12.695353143422933"><ele>129.16666666666669</ele><time>2026-04-18T09:09:47Z</time></trkpt><trkpt lat="42.2184998967645" lon="12.695316732122409"><ele>127.0</ele><time>2026-04-18T09:09:50Z</time></trkpt><trkpt lat="42.21855202707061" lon="12.695266780628593"><ele>124.66666666666667</ele><time>2026-04-18T09:09:52Z</time></trkpt><trkpt lat="42.21861510874304" lon="12.69524321027905"><ele>122.33333333333334</ele><time>2026-04-18T09:09:54Z</time></trkpt><trkpt lat="42.21868485354788" lon="12.695197625935721"><ele>120.0</ele><time>2026-04-18T09:09:56Z</time></trkpt><trkpt lat="42.21879134020739" lon="12.695203851776062"><ele>117.66666666666666</ele><time>2026-04-18T09:09:58Z</time></trkpt><trkpt lat="42.21886146876667" lon="12.695167156566747"><ele>115.33333333333333</ele><time>2026-04-18T09:10:00Z</time></trkpt><trkpt lat="42.21894536230326" lon="12.695116210650513"><ele>113.0</ele><time>2026-04-18T09:10:02Z</time></trkpt><trkpt lat="42.21904063873508" lon="12.695054638730456"><ele>113.0</ele><time>2026-04-18T09:10:04Z</time></trkpt><trkpt lat="42.21911999317707" lon="12.694984239151658"><ele>113.00000000000001</ele><time>2026-04-18T09:10:06Z</time></trkpt><trkpt lat="42.2191870879213" lon="12.69490018719605"><ele>113.00000000000001</ele><time>2026-04-18T09:10:08Z</time></trkpt><trkpt lat="42.21922780115135" lon="12.694788416912884"><ele>113.0</ele><time>2026-04-18T09:10:10Z</time></trkpt><trkpt lat="42.21929577746114" lon="12.694691570514758"><ele>113.0</ele><time>2026-04-18T09:10:12Z</time></trkpt><trkpt lat="42.21936914523067" lon="12.694607812511281"><ele>113.0</ele><time>2026-04-18T09:10:14Z</time></trkpt><trkpt lat="42.2194219416451" lon="12.694503355778323"><ele>113.00000000000001</ele><time>2026-04-18T09:10:16Z</time></trkpt><trkpt lat="42.219469949229136" lon="12.69439386997553"><ele>113.00000000000001</ele><time>2026-04-18T09:10:18Z</time></trkpt><trkpt lat="42.21950673145066" lon="12.694295527694262"><ele>113.0</ele><time>2026-04-18T09:10:20Z</time></trkpt><trkpt lat="42.21954779741917" lon="12.69418921058313"><ele>113.0</ele><time>2026-04-18T09:10:22Z</time></trkpt><trkpt lat="42.21962753604081" lon="12.694103383283055"><ele>110.60000000000001</ele><time>2026-04-18T09:10:24Z</time></trkpt><trkpt lat="42.21969111330102" lon="12.694033267298641"><ele>108.20000000000002</ele><time>2026-04-18T09:10:27Z</time></trkpt><trkpt lat="42.219764340567856" lon="12.693945368076495"><ele>105.8</ele><time>2026-04-18T09:10:29Z</time></trkpt><trkpt lat="42.21985374656017" lon="12.693890658252124"><ele>103.4</ele><time>2026-04-18T09:10:31Z</time></trkpt><trkpt lat="42.219866161766774" lon="12.693693978497718"><ele>101.0</ele><time>2026-04-18T09:10:32Z</time></trkpt><trkpt lat="42.219928983333126" lon="12.693677912327148"><ele>101.0</ele><time>2026-04-18T09:10:33Z</time></trkpt><trkpt lat="42.22003458359023" lon="12.693659268754095"><ele>101.0</ele><time>2026-04-18T09:10:35Z</time></trkpt><trkpt lat="42.22010368383715" lon="12.693659593259884"><ele>101.0</ele><time>2026-04-18T09:10:36Z</time></trkpt><trkpt lat="42.220210265806024" lon="12.693673854937767"><ele>101.0</ele><time>2026-04-18T09:10:38Z</time></trkpt><trkpt lat="42.22032241651549" lon="12.693689695932212"><ele>101.0</ele><time>2026-04-18T09:10:40Z</time></trkpt><trkpt lat="42.22041856276798" lon="12.693682098772257"><ele>101.0</ele><time>2026-04-18T09:10:42Z</time></trkpt><trkpt lat="42.22052453965687" lon="12.693680321106056"><ele>101.0</ele><time>2026-04-18T09:10:44Z</time></trkpt><trkpt lat="42.22064784235641" lon="12.693678252811706"><ele>101.0</ele><time>2026-04-18T09:10:46Z</time></trkpt><trkpt lat="42.22071037408071" lon="12.6939069864359"><ele>101.0</ele><time>2026-04-18T09:10:47Z</time></trkpt><trkpt lat="42.220816800635056" lon="12.69389695159522"><ele>100.66666666666666</ele><time>2026-04-18T09:10:49Z</time></trkpt><trkpt lat="42.22092768789622" lon="12.693930350106742"><ele>100.33333333333333</ele><time>2026-04-18T09:10:51Z</time></trkpt><trkpt lat="42.220978820766234" lon="12.69398286139026"><ele>100.0</ele><time>2026-04-18T09:10:53Z</time></trkpt><trkpt lat="42.22102075126202" lon="12.694050820369187"><ele>99.66666666666666</ele><time>2026-04-18T09:10:54Z</time></trkpt><trkpt lat="42.22108534098937" lon="12.694174361354833"><ele>99.33333333333333</ele><time>2026-04-18T09:10:56Z</time></trkpt><trkpt lat="42.221136702258505" lon="12.69423418643368"><ele>99.0</ele><time>2026-04-18T09:13:01Z</time></trkpt><trkpt lat="42.2211468395588" lon="12.694325860582198"><ele>99.0</ele><time>2026-04-18T09:13:02Z</time></trkpt><trkpt lat="42.221174368144794" lon="12.694407798746022"><ele>99.0</ele><time>2026-04-18T09:13:03Z</time></trkpt><trkpt lat="42.22120890425999" lon="12.69449809009684"><ele>99.0</ele><time>2026-04-18T09:13:04Z</time></trkpt><trkpt lat="42.22127056259593" lon="12.694564021299072"><ele>99.0</ele><time>2026-04-18T09:13:05Z</time></trkpt><trkpt lat="42.22131714231671" lon="12.694626712304444"><ele>99.0</ele><time>2026-04-18T09:13:06Z</time></trkpt><trkpt lat="42.221424598047776" lon="12.69471481269447"><ele>99.0</ele><time>2026-04-18T09:13:08Z</time></trkpt><trkpt lat="42.2214886067744" lon="12.69475912296724"><ele>99.33333333333333</ele><time>2026-04-18T09:13:09Z</time></trkpt><trkpt lat="42.22156899136389" lon="12.694736401360373"><ele>99.66666666666666</ele><time>2026-04-18T09:13:10Z</time></trkpt><trkpt lat="42.22164870673233" lon="12.694730653443974"><ele>100.0</ele><time>2026-04-18T09:13:11Z</time></trkpt><trkpt lat="42.22173071759885" lon="12.694704664462446"><ele>100.33333333333333</ele><time>2026-04-18T09:13:12Z</time></trkpt><trkpt lat="42.22182229964665" lon="12.69469459217718"><ele>100.66666666666666</ele><time>2026-04-18T09:13:13Z</time></trkpt><trkpt lat="42.22190769704111" lon="12.694652558185098"><ele>101.0</ele><time>2026-04-18T09:13:14Z</time></trkpt><trkpt lat="42.22199420075487" lon="12.69460792004942"><ele>101.0</ele><time>2026-04-18T09:13:15Z</time></trkpt><trkpt lat="42.22208896504504" lon="12.694564134175906"><ele>101.0</ele><time>2026-04-18T09:13:16Z</time></trkpt><trkpt lat="42.22218051272708" lon="12.6945370139481"><ele>101.0</ele><time>2026-04-18T09:13:17Z</time></trkpt><trkpt lat="42.22227324260996" lon="12.694527260528334"><ele>101.0</ele><time>2026-04-18T09:13:18Z</time></trkpt><trkpt lat="42.22236900981236" lon="12.694532956004956"><ele>101.0</ele><time>2026-04-18T09:13:19Z</time></trkpt><trkpt lat="42.2224615732267" lon="12.694552205795565"><ele>102.6</ele><time>2026-04-18T09:13:20Z</time></trkpt><trkpt lat="42.22255947254073" lon="12.69457500085627"><ele>104.19999999999999</ele><time>2026-04-18T09:13:21Z</time></trkpt><trkpt lat="42.222659103215754" lon="12.694609398618793"><ele>105.80000000000001</ele><time>2026-04-18T09:13:22Z</time></trkpt><trkpt lat="42.22276204184852" lon="12.694659186990467"><ele>107.4</ele><time>2026-04-18T09:13:23Z</time></trkpt><trkpt lat="42.222860805407464" lon="12.69471250608573"><ele>109.0</ele><time>2026-04-18T09:13:24Z</time></trkpt><trkpt lat="42.2229445134767" lon="12.694754554164668"><ele>109.0</ele><time>2026-04-18T09:13:25Z</time></trkpt><trkpt lat="42.22302475654126" lon="12.694799809221067"><ele>109.0</ele><time>2026-04-18T09:13:26Z</time></trkpt><trkpt lat="42.22310617461761" lon="12.694798510855891"><ele>109.0</ele><time>2026-04-18T09:13:27Z</time></trkpt><trkpt lat="42.223190913518515" lon="12.694780405452056"><ele>109.0</ele><time>2026-04-18T09:13:28Z</time></trkpt><trkpt lat="42.22329813203945" lon="12.694705130962545"><ele>109.0</ele><time>2026-04-18T09:13:29Z</time></trkpt><trkpt lat="42.22342428863968" lon="12.694662465037949"><ele>109.6</ele><time>2026-04-18T09:13:30Z</time></trkpt><trkpt lat="42.22352049226006" lon="12.694638981797782"><ele>110.2</ele><time>2026-04-18T09:13:31Z</time></trkpt><trkpt lat="42.22361372295857" lon="12.694624872389383"><ele>110.79999999999998</ele><time>2026-04-18T09:13:32Z</time></trkpt><trkpt lat="42.22373306671387" lon="12.694679112500914"><ele>111.39999999999999</ele><time>2026-04-18T09:13:33Z</time></trkpt><trkpt lat="42.22385271221701" lon="12.69470061690447"><ele>112.0</ele><time>2026-04-18T09:13:34Z</time></trkpt><trkpt lat="42.22395433135271" lon="12.694739098958824"><ele>111.8</ele><time>2026-04-18T09:13:35Z</time></trkpt><trkpt lat="42.22404907394998" lon="12.694766568662425"><ele>111.6</ele><time>2026-04-18T09:13:36Z</time></trkpt><trkpt lat="42.22414638917218" lon="12.694818034812942"><ele>111.39999999999999</ele><time>2026-04-18T09:13:37Z</time></trkpt><trkpt lat="42.22424530385089" lon="12.694870720775562"><ele>111.19999999999999</ele><time>2026-04-18T09:13:38Z</time></trkpt><trkpt lat="42.22433541414974" lon="12.69492477616347"><ele>111.0</ele><time>2026-04-18T09:13:39Z</time></trkpt><trkpt lat="42.22443513222152" lon="12.694983669748316"><ele>111.0</ele><time>2026-04-18T09:13:40Z</time></trkpt><trkpt lat="42.22453440716349" lon="12.695047062913083"><ele>111.0</ele><time>2026-04-18T09:13:41Z</time></trkpt><trkpt lat="42.22465231027235" lon="12.695129151859021"><ele>111.0</ele><time>2026-04-18T09:13:42Z</time></trkpt><trkpt lat="42.22478131965348" lon="12.695220659895037"><ele>111.0</ele><time>2026-04-18T09:13:43Z</time></trkpt><trkpt lat="42.22488539422211" lon="12.695307570267182"><ele>114.75</ele><time>2026-04-18T09:13:44Z</time></trkpt><trkpt lat="42.22499635387588" lon="12.695379440342627"><ele>118.5</ele><time>2026-04-18T09:13:45Z</time></trkpt><trkpt lat="42.2251064692877" lon="12.695449850907348"><ele>122.25</ele><time>2026-04-18T09:13:46Z</time></trkpt><trkpt lat="42.22521065606805" lon="12.695546171164237"><ele>126.0</ele><time>2026-04-18T09:13:47Z</time></trkpt><trkpt lat="42.2253211327052" lon="12.69561594532574"><ele>126.0</ele><time>2026-04-18T09:13:48Z</time></trkpt><trkpt lat="42.22543174303342" lon="12.69568841009091"><ele>126.0</ele><time>2026-04-18T09:13:49Z</time></trkpt><trkpt lat="42.22553748350359" lon="12.695757856970257"><ele>126.0</ele><time>2026-04-18T09:13:50Z</time></trkpt><trkpt lat="42.22561191318553" lon="12.695809502154065"><ele>126.0</ele><time>2026-04-18T09:13:51Z</time></trkpt><trkpt lat="42.225687639291415" lon="12.69588810794585"><ele>126.0</ele><time>2026-04-18T09:13:52Z</time></trkpt><trkpt lat="42.22575024746005" lon="12.695946791592322"><ele>127.4</ele><time>2026-04-18T09:13:53Z</time></trkpt><trkpt lat="42.22581555720459" lon="12.696019852682658"><ele>128.8</ele><time>2026-04-18T09:13:54Z</time></trkpt><trkpt lat="42.22587052344759" lon="12.69611679287773"><ele>130.20000000000002</ele><time>2026-04-18T09:13:55Z</time></trkpt><trkpt lat="42.22592296971768" lon="12.696240460674725"><ele>131.6</ele><time>2026-04-18T09:13:56Z</time></trkpt><trkpt lat="42.225980512868695" lon="12.696368762218048"><ele>133.0</ele><time>2026-04-18T09:13:57Z</time></trkpt><trkpt lat="42.22603858443889" lon="12.696491038714159"><ele>133.0</ele><time>2026-04-18T09:13:58Z</time></trkpt><trkpt lat="42.22610711908248" lon="12.696608496035124"><ele>133.0</ele><time>2026-04-18T09:13:59Z</time></trkpt><trkpt lat="42.226209102937744" lon="12.696703880244756"><ele>133.0</ele><time>2026-04-18T09:14:00Z</time></trkpt><trkpt lat="42.22631684410821" lon="12.696819835689785"><ele>133.0</ele><time>2026-04-18T09:14:01Z</time></trkpt><trkpt lat="42.22640921511749" lon="12.696926502388767"><ele>133.8</ele><time>2026-04-18T09:14:02Z</time></trkpt><trkpt lat="42.226491733387796" lon="12.69701467680961"><ele>134.60000000000002</ele><time>2026-04-18T09:14:03Z</time></trkpt><trkpt lat="42.22656877204058" lon="12.697110034016454"><ele>135.39999999999998</ele><time>2026-04-18T09:14:04Z</time></trkpt><trkpt lat="42.22663071761874" lon="12.697212997574669"><ele>136.2</ele><time>2026-04-18T09:14:05Z</time></trkpt><trkpt lat="42.226688475313345" lon="12.697347504247439"><ele>137.0</ele><time>2026-04-18T09:14:06Z</time></trkpt><trkpt lat="42.22672917645969" lon="12.697498704422877"><ele>137.0</ele><time>2026-04-18T09:14:07Z</time></trkpt><trkpt lat="42.2267686566409" lon="12.69764073859518"><ele>137.0</ele><time>2026-04-18T09:14:08Z</time></trkpt><trkpt lat="42.22683632126808" lon="12.697732049269101"><ele>137.0</ele><time>2026-04-18T09:14:09Z</time></trkpt><trkpt lat="42.226894851127334" lon="12.697792080581113"><ele>137.0</ele><time>2026-04-18T09:14:10Z</time></trkpt><trkpt lat="42.22696670974545" lon="12.69784346209827"><ele>137.0</ele><time>2026-04-18T09:14:11Z</time></trkpt><trkpt lat="42.22707351440104" lon="12.697827214057098"><ele>137.0</ele><time>2026-04-18T09:14:12Z</time></trkpt><trkpt lat="42.22716570358116" lon="12.69773431053148"><ele>137.0</ele><time>2026-04-18T09:14:13Z</time></trkpt><trkpt lat="42.22724797021082" lon="12.697644531346956"><ele>137.0</ele><time>2026-04-18T09:14:14Z</time></trkpt><trkpt lat="42.22733008475512" lon="12.697604779150058"><ele>137.0</ele><time>2026-04-18T09:14:15Z</time></trkpt><trkpt lat="42.2274028269784" lon="12.697677636785501"><ele>137.0</ele><time>2026-04-18T09:14:16Z</time></trkpt><trkpt lat="42.22747224201128" lon="12.697748125903411"><ele>136.75</ele><time>2026-04-18T09:14:17Z</time></trkpt><trkpt lat="42.227516204029634" lon="12.697851358414246"><ele>136.5</ele><time>2026-04-18T09:14:18Z</time></trkpt><trkpt lat="42.22758119364316" lon="12.697975733381368"><ele>136.25</ele><time>2026-04-18T09:14:19Z</time></trkpt><trkpt lat="42.22762637379587" lon="12.698130773035404"><ele>136.0</ele><time>2026-04-18T09:14:20Z</time></trkpt><trkpt lat="42.22766331562425" lon="12.698309709439197"><ele>136.0</ele><time>2026-04-18T09:14:21Z</time></trkpt><trkpt lat="42.22771498526566" lon="12.698484615476442"><ele>136.0</ele><time>2026-04-18T09:14:22Z</time></trkpt><trkpt lat="42.22775240488936" lon="12.698666622605106"><ele>136.0</ele><time>2026-04-18T09:14:23Z</time></trkpt><trkpt lat="42.22778342430799" lon="12.698839097290609"><ele>136.0</ele><time>2026-04-18T09:14:24Z</time></trkpt><trkpt lat="42.22781787273686" lon="12.699000706243602"><ele>136.6</ele><time>2026-04-18T09:14:25Z</time></trkpt><trkpt lat="42.22786407209983" lon="12.699156805806242"><ele>137.2</ele><time>2026-04-18T09:14:26Z</time></trkpt><trkpt lat="42.227902428421224" lon="12.699301727670173"><ele>137.8</ele><time>2026-04-18T09:14:27Z</time></trkpt><trkpt lat="42.2279410915098" lon="12.699432225072378"><ele>138.4</ele><time>2026-04-18T09:14:28Z</time></trkpt><trkpt lat="42.22796933415657" lon="12.699561201994669"><ele>139.0</ele><time>2026-04-18T09:14:29Z</time></trkpt><trkpt lat="42.227963817831274" lon="12.699693262968768"><ele>137.6</ele><time>2026-04-18T09:14:30Z</time></trkpt><trkpt lat="42.2279490074427" lon="12.699825313180147"><ele>136.2</ele><time>2026-04-18T09:14:31Z</time></trkpt><trkpt lat="42.22788131448661" lon="12.699930738121456"><ele>134.79999999999998</ele><time>2026-04-18T09:14:32Z</time></trkpt><trkpt lat="42.227818845980224" lon="12.700022723034127"><ele>133.4</ele><time>2026-04-18T09:14:33Z</time></trkpt><trkpt lat="42.22775365074862" lon="12.70011255516381"><ele>132.0</ele><time>2026-04-18T09:14:34Z</time></trkpt><trkpt lat="42.22767440154434" lon="12.700171954167887"><ele>132.0</ele><time>2026-04-18T09:14:35Z</time></trkpt><trkpt lat="42.22756857158041" lon="12.700226085065534"><ele>132.0</ele><time>2026-04-18T09:14:36Z</time></trkpt><trkpt lat="42.22745896504794" lon="12.700263563291935"><ele>132.0</ele><time>2026-04-18T09:14:37Z</time></trkpt><trkpt lat="42.22736429311007" lon="12.700288748262297"><ele>132.0</ele><time>2026-04-18T09:14:38Z</time></trkpt><trkpt lat="42.22726637784302" lon="12.700315726993253"><ele>132.0</ele><time>2026-04-18T09:14:39Z</time></trkpt><trkpt lat="42.22716708234533" lon="12.700356019889764"><ele>130.2</ele><time>2026-04-18T09:14:40Z</time></trkpt><trkpt lat="42.22706396555609" lon="12.700379972198231"><ele>128.39999999999998</ele><time>2026-04-18T09:14:41Z</time></trkpt><trkpt lat="42.22696226753771" lon="12.700418496138333"><ele>126.60000000000001</ele><time>2026-04-18T09:14:42Z</time></trkpt><trkpt lat="42.226864871707164" lon="12.700473017375732"><ele>124.80000000000001</ele><time>2026-04-18T09:14:43Z</time></trkpt><trkpt lat="42.226777424532" lon="12.700569571510265"><ele>123.0</ele><time>2026-04-18T09:14:44Z</time></trkpt><trkpt lat="42.226713705780305" lon="12.700697162513812"><ele>123.0</ele><time>2026-04-18T09:14:45Z</time></trkpt><trkpt lat="42.22667530418267" lon="12.700842262114332"><ele>123.0</ele><time>2026-04-18T09:14:46Z</time></trkpt><trkpt lat="42.226667688006984" lon="12.700999375168982"><ele>123.0</ele><time>2026-04-18T09:14:47Z</time></trkpt><trkpt lat="42.22668259309803" lon="12.70115515864854"><ele>123.0</ele><time>2026-04-18T09:14:48Z</time></trkpt><trkpt lat="42.22668702548745" lon="12.701323635000538"><ele>122.25</ele><time>2026-04-18T09:14:49Z</time></trkpt><trkpt lat="42.22673441599229" lon="12.701479014816682"><ele>121.5</ele><time>2026-04-18T09:14:50Z</time></trkpt><trkpt lat="42.22677670505526" lon="12.701623297801287"><ele>120.75</ele><time>2026-04-18T09:14:51Z</time></trkpt><trkpt lat="42.22679833124209" lon="12.701769415957726"><ele>120.0</ele><time>2026-04-18T09:14:52Z</time></trkpt><trkpt lat="42.22682759062857" lon="12.701898598925986"><ele>119.2</ele><time>2026-04-18T09:14:53Z</time></trkpt><trkpt lat="42.226850678218995" lon="12.702016098285464"><ele>118.4</ele><time>2026-04-18T09:14:54Z</time></trkpt><trkpt lat="42.22686383655531" lon="12.702113153975699"><ele>117.6</ele><time>2026-04-18T09:14:55Z</time></trkpt><trkpt lat="42.22686394528547" lon="12.702239758090474"><ele>116.8</ele><time>2026-04-18T09:14:57Z</time></trkpt><trkpt lat="42.226803099898234" lon="12.702403812824656"><ele>116.0</ele><time>2026-04-18T09:15:00Z</time></trkpt><trkpt lat="42.22686578585399" lon="12.702583573893975"><ele>116.0</ele><time>2026-04-18T09:15:01Z</time></trkpt><trkpt lat="42.22682117249065" lon="12.70270693097803"><ele>116.0</ele><time>2026-04-18T09:15:02Z</time></trkpt><trkpt lat="42.22676350505605" lon="12.702821754770493"><ele>116.0</ele><time>2026-04-18T09:15:03Z</time></trkpt><trkpt lat="42.226727407585784" lon="12.702964288058832"><ele>116.0</ele><time>2026-04-18T09:15:04Z</time></trkpt><trkpt lat="42.22668687731708" lon="12.703082257095375"><ele>116.0</ele><time>2026-04-18T09:15:05Z</time></trkpt><trkpt lat="42.22668341885293" lon="12.703223509639079"><ele>115.19999999999999</ele><time>2026-04-18T09:15:06Z</time></trkpt><trkpt lat="42.226719061865154" lon="12.703377252910586"><ele>114.39999999999999</ele><time>2026-04-18T09:15:07Z</time></trkpt><trkpt lat="42.226770032026664" lon="12.703516490105269"><ele>113.6</ele><time>2026-04-18T09:15:08Z</time></trkpt><trkpt lat="42.226798959338154" lon="12.703648634766354"><ele>112.8</ele><time>2026-04-18T09:15:09Z</time></trkpt><trkpt lat="42.22682715456693" lon="12.703784713417841"><ele>112.0</ele><time>2026-04-18T09:15:10Z</time></trkpt><trkpt lat="42.22681853718354" lon="12.70391497320149"><ele>110.39999999999999</ele><time>2026-04-18T09:15:11Z</time></trkpt><trkpt lat="42.2267908380242" lon="12.704057550519197"><ele>108.79999999999998</ele><time>2026-04-18T09:15:12Z</time></trkpt><trkpt lat="42.22675467282318" lon="12.70420836759732"><ele>107.2</ele><time>2026-04-18T09:15:13Z</time></trkpt><trkpt lat="42.22672169239984" lon="12.704338160328815"><ele>105.6</ele><time>2026-04-18T09:15:14Z</time></trkpt><trkpt lat="42.226709543910815" lon="12.704463680506576"><ele>104.0</ele><time>2026-04-18T09:15:15Z</time></trkpt><trkpt lat="42.22675947154161" lon="12.704618460766635"><ele>103.25</ele><time>2026-04-18T09:15:16Z</time></trkpt><trkpt lat="42.22686759339446" lon="12.704722741775585"><ele>102.5</ele><time>2026-04-18T09:15:17Z</time></trkpt><trkpt lat="42.22697752337687" lon="12.704862480609693"><ele>101.75</ele><time>2026-04-18T09:15:18Z</time></trkpt><trkpt lat="42.22709480692445" lon="12.7050042036688"><ele>101.0</ele><time>2026-04-18T09:15:19Z</time></trkpt><trkpt lat="42.22721190228278" lon="12.705145886176734"><ele>100.25</ele><time>2026-04-18T09:15:20Z</time></trkpt><trkpt lat="42.22731233508796" lon="12.705267407379234"><ele>99.5</ele><time>2026-04-18T09:15:21Z</time></trkpt><trkpt lat="42.227417071680584" lon="12.70539175206943"><ele>98.75</ele><time>2026-04-18T09:15:22Z</time></trkpt><trkpt lat="42.22752237917757" lon="12.705516370989777"><ele>98.0</ele><time>2026-04-18T09:15:23Z</time></trkpt><trkpt lat="42.22762916413591" lon="12.705642497388068"><ele>98.0</ele><time>2026-04-18T09:15:24Z</time></trkpt><trkpt lat="42.227732777772864" lon="12.705764878042558"><ele>98.0</ele><time>2026-04-18T09:15:25Z</time></trkpt><trkpt lat="42.22784023136693" lon="12.70589179419145"><ele>98.0</ele><time>2026-04-18T09:15:26Z</time></trkpt><trkpt lat="42.227946218521375" lon="12.706017563167174"><ele>98.0</ele><time>2026-04-18T09:15:27Z</time></trkpt><trkpt lat="42.22805257022122" lon="12.706144035438752"><ele>97.75</ele><time>2026-04-18T09:15:28Z</time></trkpt><trkpt lat="42.22815896280399" lon="12.706270556352175"><ele>97.5</ele><time>2026-04-18T09:15:29Z</time></trkpt><trkpt lat="42.2282651345882" lon="12.70639681468855"><ele>97.25</ele><time>2026-04-18T09:15:30Z</time></trkpt><trkpt lat="42.2283739987314" lon="12.706526274751031"><ele>97.0</ele><time>2026-04-18T09:15:31Z</time></trkpt><trkpt lat="42.228482330848216" lon="12.70665510411912"><ele>97.0</ele><time>2026-04-18T09:15:32Z</time></trkpt><trkpt lat="42.22858964080775" lon="12.70678331573729"><ele>97.0</ele><time>2026-04-18T09:15:33Z</time></trkpt><trkpt lat="42.22870669881579" lon="12.70689379072816"><ele>97.0</ele><time>2026-04-18T09:15:34Z</time></trkpt><trkpt lat="42.228801627301536" lon="12.707036935542966"><ele>97.0</ele><time>2026-04-18T09:15:35Z</time></trkpt><trkpt lat="42.22890465184675" lon="12.707162181611098"><ele>97.75</ele><time>2026-04-18T09:15:36Z</time></trkpt><trkpt lat="42.229005803657756" lon="12.707286561466113"><ele>98.5</ele><time>2026-04-18T09:15:37Z</time></trkpt><trkpt lat="42.22911977923147" lon="12.70739866296555"><ele>99.25</ele><time>2026-04-18T09:15:38Z</time></trkpt><trkpt lat="42.22921215112531" lon="12.707525483952127"><ele>100.0</ele><time>2026-04-18T09:15:39Z</time></trkpt><trkpt lat="42.22931210568782" lon="12.707625891084973"><ele>100.0</ele><time>2026-04-18T09:15:40Z</time></trkpt><trkpt lat="42.229427624519715" lon="12.70769803849711"><ele>100.0</ele><time>2026-04-18T09:15:41Z</time></trkpt><trkpt lat="42.22954957429848" lon="12.70773876274668"><ele>100.0</ele><time>2026-04-18T09:15:42Z</time></trkpt><trkpt lat="42.229687980149" lon="12.7077834844195"><ele>100.0</ele><time>2026-04-18T09:15:43Z</time></trkpt><trkpt lat="42.22982824662558" lon="12.707798167305048"><ele>101.75</ele><time>2026-04-18T09:15:44Z</time></trkpt><trkpt lat="42.22996186809407" lon="12.707806445049748"><ele>103.5</ele><time>2026-04-18T09:15:45Z</time></trkpt><trkpt lat="42.23009824408852" lon="12.707822634090249"><ele>105.25</ele><time>2026-04-18T09:15:46Z</time></trkpt><trkpt lat="42.23023338755321" lon="12.707828866254584"><ele>107.0</ele><time>2026-04-18T09:15:47Z</time></trkpt><trkpt lat="42.23034611572822" lon="12.707851052739024"><ele>107.0</ele><time>2026-04-18T09:15:48Z</time></trkpt><trkpt lat="42.23044487163112" lon="12.70786835011964"><ele>106.99999999999999</ele><time>2026-04-18T09:15:49Z</time></trkpt><trkpt lat="42.23053662355334" lon="12.707881035678632"><ele>106.99999999999999</ele><time>2026-04-18T09:15:50Z</time></trkpt><trkpt lat="42.23063610922285" lon="12.707895381277329"><ele>107.0</ele><time>2026-04-18T09:15:51Z</time></trkpt><trkpt lat="42.2307345526042" lon="12.707905406633952"><ele>107.0</ele><time>2026-04-18T09:15:52Z</time></trkpt><trkpt lat="42.23082165148378" lon="12.7079152203483"><ele>107.83333333333333</ele><time>2026-04-18T09:15:53Z</time></trkpt><trkpt lat="42.23088855720215" lon="12.707922538302505"><ele>108.66666666666666</ele><time>2026-04-18T09:15:54Z</time></trkpt><trkpt lat="42.23097852077272" lon="12.707958443999633"><ele>109.5</ele><time>2026-04-18T09:15:56Z</time></trkpt><trkpt lat="42.23104198794826" lon="12.707981858286557"><ele>110.33333333333334</ele><time>2026-04-18T09:15:59Z</time></trkpt><trkpt lat="42.23113647206013" lon="12.707991973899071"><ele>111.16666666666667</ele><time>2026-04-18T09:16:01Z</time></trkpt><trkpt lat="42.231206012477514" lon="12.707873998712863"><ele>112.0</ele><time>2026-04-18T09:16:02Z</time></trkpt><trkpt lat="42.231276700558304" lon="12.707784518563965"><ele>111.5</ele><time>2026-04-18T09:16:03Z</time></trkpt><trkpt lat="42.23134833490471" lon="12.707686436753622"><ele>111.0</ele><time>2026-04-18T09:16:04Z</time></trkpt><trkpt lat="42.23142736225597" lon="12.707585318929405"><ele>110.5</ele><time>2026-04-18T09:16:05Z</time></trkpt><trkpt lat="42.23151715994253" lon="12.707474579358744"><ele>110.0</ele><time>2026-04-18T09:16:06Z</time></trkpt><trkpt lat="42.23161412824584" lon="12.70735698149961"><ele>110.0</ele><time>2026-04-18T09:16:07Z</time></trkpt><trkpt lat="42.23170365481681" lon="12.707244740512811"><ele>110.0</ele><time>2026-04-18T09:16:08Z</time></trkpt><trkpt lat="42.23179365771583" lon="12.707135383856976"><ele>110.0</ele><time>2026-04-18T09:16:09Z</time></trkpt><trkpt lat="42.23188509298986" lon="12.707019444410014"><ele>110.0</ele><time>2026-04-18T09:16:10Z</time></trkpt><trkpt lat="42.23197515600213" lon="12.706899963698344"><ele>109.75</ele><time>2026-04-18T09:16:11Z</time></trkpt><trkpt lat="42.23207152710982" lon="12.706789599700123"><ele>109.5</ele><time>2026-04-18T09:16:12Z</time></trkpt><trkpt lat="42.23216495954718" lon="12.7066792755436"><ele>109.25</ele><time>2026-04-18T09:16:13Z</time></trkpt><trkpt lat="42.232254804634145" lon="12.706574779158972"><ele>109.0</ele><time>2026-04-18T09:16:14Z</time></trkpt><trkpt lat="42.23234256810696" lon="12.706474170805416"><ele>109.0</ele><time>2026-04-18T09:16:15Z</time></trkpt><trkpt lat="42.23242682727979" lon="12.706365946887576"><ele>109.0</ele><time>2026-04-18T09:16:16Z</time></trkpt><trkpt lat="42.23251589502984" lon="12.706267968781152"><ele>109.0</ele><time>2026-04-18T09:16:17Z</time></trkpt><trkpt lat="42.23260332899848" lon="12.706188751690577"><ele>109.0</ele><time>2026-04-18T09:16:18Z</time></trkpt><trkpt lat="42.232700328927436" lon="12.706130471580853"><ele>109.0</ele><time>2026-04-18T09:16:19Z</time></trkpt><trkpt lat="42.23280383361201" lon="12.70608166594438"><ele>107.5</ele><time>2026-04-18T09:16:20Z</time></trkpt><trkpt lat="42.23291867655941" lon="12.706052020862511"><ele>106.0</ele><time>2026-04-18T09:16:21Z</time></trkpt><trkpt lat="42.23303328410079" lon="12.706034963907916"><ele>104.5</ele><time>2026-04-18T09:16:22Z</time></trkpt><trkpt lat="42.23316071665462" lon="12.706010735728933"><ele>103.0</ele><time>2026-04-18T09:16:23Z</time></trkpt><trkpt lat="42.23328633990088" lon="12.705967200800885"><ele>103.0</ele><time>2026-04-18T09:16:24Z</time></trkpt><trkpt lat="42.23340208717482" lon="12.705886680393347"><ele>103.0</ele><time>2026-04-18T09:16:25Z</time></trkpt><trkpt lat="42.233517888980266" lon="12.705779784878882"><ele>103.0</ele><time>2026-04-18T09:16:26Z</time></trkpt><trkpt lat="42.23362608804222" lon="12.705658841325416"><ele>103.0</ele><time>2026-04-18T09:16:27Z</time></trkpt><trkpt lat="42.23373606454098" lon="12.705547033092232"><ele>103.0</ele><time>2026-04-18T09:16:28Z</time></trkpt><trkpt lat="42.233845031484634" lon="12.705444735117384"><ele>103.0</ele><time>2026-04-18T09:16:29Z</time></trkpt><trkpt lat="42.23394901289674" lon="12.705339842138013"><ele>103.0</ele><time>2026-04-18T09:16:30Z</time></trkpt><trkpt lat="42.2340492798759" lon="12.705234577811499"><ele>103.0</ele><time>2026-04-18T09:16:31Z</time></trkpt><trkpt lat="42.23415044550055" lon="12.705128422531407"><ele>101.75</ele><time>2026-04-18T09:16:32Z</time></trkpt><trkpt lat="42.23424997406199" lon="12.705027034870545"><ele>100.5</ele><time>2026-04-18T09:16:33Z</time></trkpt><trkpt lat="42.23434796121406" lon="12.704935609664616"><ele>99.25</ele><time>2026-04-18T09:16:34Z</time></trkpt><trkpt lat="42.23444300327301" lon="12.704835857252554"><ele>98.0</ele><time>2026-04-18T09:16:35Z</time></trkpt><trkpt lat="42.23454502243535" lon="12.704734530087599"><ele>98.0</ele><time>2026-04-18T09:16:36Z</time></trkpt><trkpt lat="42.234651397831705" lon="12.704626350278136"><ele>98.0</ele><time>2026-04-18T09:16:37Z</time></trkpt><trkpt lat="42.23476172739674" lon="12.704517790305761"><ele>98.0</ele><time>2026-04-18T09:16:38Z</time></trkpt><trkpt lat="42.23488043342576" lon="12.704404210476039"><ele>98.0</ele><time>2026-04-18T09:16:39Z</time></trkpt><trkpt lat="42.23499779150087" lon="12.704285137215738"><ele>98.0</ele><time>2026-04-18T09:16:40Z</time></trkpt><trkpt lat="42.23511077956688" lon="12.70417354531973"><ele>98.0</ele><time>2026-04-18T09:16:41Z</time></trkpt><trkpt lat="42.235222847626844" lon="12.704064686487996"><ele>98.0</ele><time>2026-04-18T09:16:42Z</time></trkpt><trkpt lat="42.23532945620161" lon="12.70396036343049"><ele>98.0</ele><time>2026-04-18T09:16:43Z</time></trkpt><trkpt lat="42.23543699717054" lon="12.703852363756615"><ele>98.0</ele><time>2026-04-18T09:16:44Z</time></trkpt><trkpt lat="42.235542732602376" lon="12.703743923339102"><ele>98.0</ele><time>2026-04-18T09:16:45Z</time></trkpt><trkpt lat="42.23564661426273" lon="12.703637929527519"><ele>98.0</ele><time>2026-04-18T09:16:46Z</time></trkpt><trkpt lat="42.235747762174476" lon="12.703536068312665"><ele>98.0</ele><time>2026-04-18T09:16:47Z</time></trkpt><trkpt lat="42.23584841949936" lon="12.703436347518993"><ele>98.5</ele><time>2026-04-18T09:16:48Z</time></trkpt><trkpt lat="42.23594568445153" lon="12.703345613709471"><ele>99.0</ele><time>2026-04-18T09:16:49Z</time></trkpt><trkpt lat="42.23604963382467" lon="12.703240526148532"><ele>99.5</ele><time>2026-04-18T09:16:50Z</time></trkpt><trkpt lat="42.2361462272636" lon="12.703137774509175"><ele>100.0</ele><time>2026-04-18T09:16:51Z</time></trkpt><trkpt lat="42.236238276548384" lon="12.703037948171286"><ele>100.00000000000001</ele><time>2026-04-18T09:16:52Z</time></trkpt><trkpt lat="42.23632369936201" lon="12.702958724203686"><ele>100.0</ele><time>2026-04-18T09:16:53Z</time></trkpt><trkpt lat="42.236398088352374" lon="12.70288979497251"><ele>100.0</ele><time>2026-04-18T09:16:54Z</time></trkpt><trkpt lat="42.23646129263186" lon="12.702826933952768"><ele>100.0</ele><time>2026-04-18T09:16:55Z</time></trkpt><trkpt lat="42.236520984236286" lon="12.702766980564322"><ele>100.00000000000001</ele><time>2026-04-18T09:16:56Z</time></trkpt><trkpt lat="42.23658221803128" lon="12.702717975098116"><ele>100.0</ele><time>2026-04-18T09:16:57Z</time></trkpt><trkpt lat="42.23664978104173" lon="12.702719634811322"><ele>100.75</ele><time>2026-04-18T09:16:58Z</time></trkpt><trkpt lat="42.236755992365104" lon="12.70290227862997"><ele>101.5</ele><time>2026-04-18T09:17:00Z</time></trkpt><trkpt lat="42.23682109479164" lon="12.703040506341342"><ele>102.25</ele><time>2026-04-18T09:17:01Z</time></trkpt><trkpt lat="42.236900424014124" lon="12.703168050960043"><ele>103.0</ele><time>2026-04-18T09:17:02Z</time></trkpt><trkpt lat="42.23698765156711" lon="12.703307411144392"><ele>103.0</ele><time>2026-04-18T09:17:03Z</time></trkpt><trkpt lat="42.23707184967418" lon="12.703464526161214"><ele>103.0</ele><time>2026-04-18T09:17:04Z</time></trkpt><trkpt lat="42.23715052230588" lon="12.703623219047799"><ele>103.0</ele><time>2026-04-18T09:17:05Z</time></trkpt><trkpt lat="42.237234381453405" lon="12.703768196475528"><ele>103.0</ele><time>2026-04-18T09:17:06Z</time></trkpt><trkpt lat="42.23731873153858" lon="12.703908702125934"><ele>103.0</ele><time>2026-04-18T09:17:07Z</time></trkpt><trkpt lat="42.237400452160614" lon="12.70404965878202"><ele>103.0</ele><time>2026-04-18T09:17:08Z</time></trkpt><trkpt lat="42.237478751382" lon="12.704191497411193"><ele>103.0</ele><time>2026-04-18T09:17:09Z</time></trkpt><trkpt lat="42.23755718954556" lon="12.704326432949458"><ele>103.0</ele><time>2026-04-18T09:17:10Z</time></trkpt><trkpt lat="42.2376379255639" lon="12.704459649499277"><ele>103.0</ele><time>2026-04-18T09:17:11Z</time></trkpt><trkpt lat="42.23772050824124" lon="12.704599409149793"><ele>103.0</ele><time>2026-04-18T09:17:12Z</time></trkpt><trkpt lat="42.23781389981604" lon="12.704723990632473"><ele>103.0</ele><time>2026-04-18T09:17:13Z</time></trkpt><trkpt lat="42.237917003815056" lon="12.7048490221704"><ele>103.0</ele><time>2026-04-18T09:17:14Z</time></trkpt><trkpt lat="42.23801835981503" lon="12.704972022008954"><ele>103.0</ele><time>2026-04-18T09:17:15Z</time></trkpt><trkpt lat="42.238124797720545" lon="12.705102758418356"><ele>103.0</ele><time>2026-04-18T09:17:16Z</time></trkpt><trkpt lat="42.23822103825861" lon="12.705227972348428"><ele>103.0</ele><time>2026-04-18T09:17:17Z</time></trkpt><trkpt lat="42.238320436739485" lon="12.705347186718509"><ele>103.0</ele><time>2026-04-18T09:17:18Z</time></trkpt><trkpt lat="42.23843117708438" lon="12.70546499134378"><ele>103.33333333333334</ele><time>2026-04-18T09:17:19Z</time></trkpt><trkpt lat="42.23855411601447" lon="12.705585601847396"><ele>103.66666666666666</ele><time>2026-04-18T09:17:20Z</time></trkpt><trkpt lat="42.23868859769658" lon="12.705698070016064"><ele>104.0</ele><time>2026-04-18T09:17:21Z</time></trkpt><trkpt lat="42.23885827396301" lon="12.705778595153697"><ele>106.33333333333333</ele><time>2026-04-18T09:17:22Z</time></trkpt><trkpt lat="42.23901858180134" lon="12.70584822542537"><ele>108.66666666666666</ele><time>2026-04-18T09:17:23Z</time></trkpt><trkpt lat="42.23916103182061" lon="12.705910505234602"><ele>111.0</ele><time>2026-04-18T09:17:24Z</time></trkpt><trkpt lat="42.23930175961512" lon="12.705969435409232"><ele>111.0</ele><time>2026-04-18T09:17:25Z</time></trkpt><trkpt lat="42.23944230161349" lon="12.706019837645302"><ele>111.0</ele><time>2026-04-18T09:17:26Z</time></trkpt><trkpt lat="42.239585962715246" lon="12.706059288702408"><ele>111.0</ele><time>2026-04-18T09:17:27Z</time></trkpt><trkpt lat="42.23973567951764" lon="12.706090447595654"><ele>111.0</ele><time>2026-04-18T09:17:28Z</time></trkpt><trkpt lat="42.23988931905211" lon="12.706122552401325"><ele>110.25</ele><time>2026-04-18T09:17:29Z</time></trkpt><trkpt lat="42.24003716406574" lon="12.70615522061272"><ele>109.5</ele><time>2026-04-18T09:17:30Z</time></trkpt><trkpt lat="42.24017567003638" lon="12.706188577566289"><ele>108.75</ele><time>2026-04-18T09:17:31Z</time></trkpt><trkpt lat="42.24030582405343" lon="12.706213152513152"><ele>108.0</ele><time>2026-04-18T09:17:32Z</time></trkpt><trkpt lat="42.24043652131491" lon="12.70623558021868"><ele>108.0</ele><time>2026-04-18T09:17:33Z</time></trkpt><trkpt lat="42.2405674564055" lon="12.706260257534261"><ele>108.0</ele><time>2026-04-18T09:17:34Z</time></trkpt><trkpt lat="42.24069590565619" lon="12.706293046104657"><ele>108.0</ele><time>2026-04-18T09:17:35Z</time></trkpt><trkpt lat="42.24083997175585" lon="12.706312253046784"><ele>108.0</ele><time>2026-04-18T09:17:36Z</time></trkpt><trkpt lat="42.24099485369684" lon="12.706314621533918"><ele>108.66666666666666</ele><time>2026-04-18T09:17:37Z</time></trkpt><trkpt lat="42.24115574560143" lon="12.706310778739924"><ele>109.33333333333333</ele><time>2026-04-18T09:17:38Z</time></trkpt><trkpt lat="42.24131776107346" lon="12.706310142074415"><ele>110.0</ele><time>2026-04-18T09:17:39Z</time></trkpt><trkpt lat="42.24147819814589" lon="12.70630423114186"><ele>110.25</ele><time>2026-04-18T09:17:40Z</time></trkpt><trkpt lat="42.24163148034204" lon="12.706293213743201"><ele>110.5</ele><time>2026-04-18T09:17:41Z</time></trkpt><trkpt lat="42.24178049705586" lon="12.706285193668764"><ele>110.75</ele><time>2026-04-18T09:17:42Z</time></trkpt><trkpt lat="42.24192233498322" lon="12.706282398289092"><ele>111.0</ele><time>2026-04-18T09:17:43Z</time></trkpt><trkpt lat="42.2420647123695" lon="12.706273541930157"><ele>111.0</ele><time>2026-04-18T09:17:44Z</time></trkpt><trkpt lat="42.24220436922675" lon="12.70626334120155"><ele>111.0</ele><time>2026-04-18T09:17:45Z</time></trkpt><trkpt lat="42.24234330827006" lon="12.706260613677813"><ele>111.0</ele><time>2026-04-18T09:17:46Z</time></trkpt><trkpt lat="42.24248330997528" lon="12.706255605265625"><ele>111.0</ele><time>2026-04-18T09:17:47Z</time></trkpt><trkpt lat="42.242623931483784" lon="12.706242441495183"><ele>111.75</ele><time>2026-04-18T09:17:48Z</time></trkpt><trkpt lat="42.2427715301461" lon="12.706234722659008"><ele>112.5</ele><time>2026-04-18T09:17:49Z</time></trkpt><trkpt lat="42.242924064390216" lon="12.706225478286054"><ele>113.25</ele><time>2026-04-18T09:17:50Z</time></trkpt><trkpt lat="42.24307169795132" lon="12.706222530336701"><ele>114.0</ele><time>2026-04-18T09:17:51Z</time></trkpt><trkpt lat="42.24320421241365" lon="12.70622274942877"><ele>114.75</ele><time>2026-04-18T09:17:52Z</time></trkpt><trkpt lat="42.24333875465813" lon="12.706222479201028"><ele>115.5</ele><time>2026-04-18T09:17:53Z</time></trkpt><trkpt lat="42.2434700430015" lon="12.706207133133244"><ele>116.25</ele><time>2026-04-18T09:17:54Z</time></trkpt><trkpt lat="42.243612375495765" lon="12.706148340324335"><ele>117.0</ele><time>2026-04-18T09:17:55Z</time></trkpt><trkpt lat="42.24375262567007" lon="12.70605667122549"><ele>119.66666666666666</ele><time>2026-04-18T09:17:56Z</time></trkpt><trkpt lat="42.24388283046817" lon="12.705953804262645"><ele>122.33333333333333</ele><time>2026-04-18T09:17:57Z</time></trkpt><trkpt lat="42.24401543795036" lon="12.705846802808628"><ele>125.0</ele><time>2026-04-18T09:17:58Z</time></trkpt><trkpt lat="42.2441415496759" lon="12.70573894883804"><ele>125.0</ele><time>2026-04-18T09:17:59Z</time></trkpt><trkpt lat="42.24427561843182" lon="12.705650867646314"><ele>125.0</ele><time>2026-04-18T09:18:00Z</time></trkpt><trkpt lat="42.244416115204295" lon="12.70558958610129"><ele>125.0</ele><time>2026-04-18T09:18:01Z</time></trkpt><trkpt lat="42.24458941727131" lon="12.705574956482467"><ele>125.0</ele><time>2026-04-18T09:18:02Z</time></trkpt><trkpt lat="42.244791197951685" lon="12.705578179558428"><ele>125.0</ele><time>2026-04-18T09:18:03Z</time></trkpt><trkpt lat="42.24496925729536" lon="12.705558742350028"><ele>125.0</ele><time>2026-04-18T09:18:04Z</time></trkpt><trkpt lat="42.245137169484195" lon="12.705501476092643"><ele>124.66666666666666</ele><time>2026-04-18T09:18:05Z</time></trkpt><trkpt lat="42.24530161784938" lon="12.705427004997777"><ele>124.33333333333334</ele><time>2026-04-18T09:18:06Z</time></trkpt><trkpt lat="42.24544184823561" lon="12.705352020580898"><ele>124.0</ele><time>2026-04-18T09:18:07Z</time></trkpt><trkpt lat="42.24556748274221" lon="12.705292565773853"><ele>125.25</ele><time>2026-04-18T09:18:08Z</time></trkpt><trkpt lat="42.245679055749086" lon="12.705251790644672"><ele>126.5</ele><time>2026-04-18T09:18:09Z</time></trkpt><trkpt lat="42.24579178921505" lon="12.705242288010577"><ele>127.75</ele><time>2026-04-18T09:18:10Z</time></trkpt><trkpt lat="42.24590437483301" lon="12.705322801977871"><ele>129.0</ele><time>2026-04-18T09:18:11Z</time></trkpt><trkpt lat="42.24602710399061" lon="12.705382647859999"><ele>129.0</ele><time>2026-04-18T09:18:12Z</time></trkpt><trkpt lat="42.246146190714754" lon="12.70542232462917"><ele>129.0</ele><time>2026-04-18T09:18:13Z</time></trkpt><trkpt lat="42.24627398136112" lon="12.705367188413204"><ele>129.0</ele><time>2026-04-18T09:18:14Z</time></trkpt><trkpt lat="42.24641674597144" lon="12.705244017010434"><ele>129.0</ele><time>2026-04-18T09:18:15Z</time></trkpt><trkpt lat="42.246562504752205" lon="12.705088054400937"><ele>129.0</ele><time>2026-04-18T09:18:16Z</time></trkpt><trkpt lat="42.246730416892326" lon="12.704916860848328"><ele>129.0</ele><time>2026-04-18T09:18:17Z</time></trkpt><trkpt lat="42.24688964460677" lon="12.704767205574042"><ele>129.0</ele><time>2026-04-18T09:18:18Z</time></trkpt><trkpt lat="42.2470377208883" lon="12.704645923243248"><ele>129.0</ele><time>2026-04-18T09:18:19Z</time></trkpt><trkpt lat="42.24718761545145" lon="12.70452364301176"><ele>129.0</ele><time>2026-04-18T09:18:20Z</time></trkpt><trkpt lat="42.24736613285678" lon="12.70438106867906"><ele>129.0</ele><time>2026-04-18T09:18:21Z</time></trkpt><trkpt lat="42.247549610425374" lon="12.704233935550468"><ele>130.33333333333334</ele><time>2026-04-18T09:18:22Z</time></trkpt><trkpt lat="42.247716198428975" lon="12.704120472192276"><ele>131.66666666666669</ele><time>2026-04-18T09:18:23Z</time></trkpt><trkpt lat="42.24786505164324" lon="12.704026730790043"><ele>133.0</ele><time>2026-04-18T09:18:24Z</time></trkpt><trkpt lat="42.24802110387656" lon="12.703944300123817"><ele>135.75</ele><time>2026-04-18T09:18:25Z</time></trkpt><trkpt lat="42.24815212490714" lon="12.70387314555477"><ele>138.5</ele><time>2026-04-18T09:18:26Z</time></trkpt><trkpt lat="42.24828451963737" lon="12.703831054804942"><ele>141.25</ele><time>2026-04-18T09:18:27Z</time></trkpt><trkpt lat="42.24839846884404" lon="12.70380918679812"><ele>144.0</ele><time>2026-04-18T09:18:28Z</time></trkpt><trkpt lat="42.248498006936686" lon="12.703805007075758"><ele>144.0</ele><time>2026-04-18T09:18:29Z</time></trkpt><trkpt lat="42.24857771524781" lon="12.70381462345859"><ele>144.0</ele><time>2026-04-18T09:18:30Z</time></trkpt><trkpt lat="42.2486661369991" lon="12.703782877735998"><ele>144.0</ele><time>2026-04-18T09:18:31Z</time></trkpt><trkpt lat="42.24876972295828" lon="12.703708427414611"><ele>144.0</ele><time>2026-04-18T09:18:32Z</time></trkpt><trkpt lat="42.24886245865773" lon="12.703557243497167"><ele>144.0</ele><time>2026-04-18T09:18:33Z</time></trkpt><trkpt lat="42.24895970963891" lon="12.703374330871423"><ele>143.0</ele><time>2026-04-18T09:18:34Z</time></trkpt><trkpt lat="42.24909902034511" lon="12.703257731681246"><ele>142.0</ele><time>2026-04-18T09:18:35Z</time></trkpt><trkpt lat="42.24928511311117" lon="12.703113015178602"><ele>141.0</ele><time>2026-04-18T09:18:36Z</time></trkpt><trkpt lat="42.24946985141366" lon="12.702972918182509"><ele>141.0</ele><time>2026-04-18T09:18:37Z</time></trkpt><trkpt lat="42.24963752212607" lon="12.702861090867529"><ele>141.0</ele><time>2026-04-18T09:18:38Z</time></trkpt><trkpt lat="42.24981353947785" lon="12.702745337184417"><ele>141.0</ele><time>2026-04-18T09:18:39Z</time></trkpt><trkpt lat="42.249991474967864" lon="12.702640669197404"><ele>143.0</ele><time>2026-04-18T09:18:40Z</time></trkpt><trkpt lat="42.25015651196045" lon="12.702510929737253"><ele>145.0</ele><time>2026-04-18T09:18:41Z</time></trkpt><trkpt lat="42.25029256444241" lon="12.70236360654166"><ele>147.0</ele><time>2026-04-18T09:18:42Z</time></trkpt><trkpt lat="42.2504431165134" lon="12.702227724091069"><ele>147.0</ele><time>2026-04-18T09:18:43Z</time></trkpt><trkpt lat="42.250597659744265" lon="12.702095735723024"><ele>147.0</ele><time>2026-04-18T09:18:44Z</time></trkpt><trkpt lat="42.25075751045928" lon="12.701961626597672"><ele>147.0</ele><time>2026-04-18T09:18:45Z</time></trkpt><trkpt lat="42.25090743245243" lon="12.701844611230763"><ele>147.66666666666666</ele><time>2026-04-18T09:18:46Z</time></trkpt><trkpt lat="42.25104683079446" lon="12.701726160155527"><ele>148.33333333333331</ele><time>2026-04-18T09:18:47Z</time></trkpt><trkpt lat="42.25119134526629" lon="12.701611836707903"><ele>149.0</ele><time>2026-04-18T09:18:48Z</time></trkpt><trkpt lat="42.251348296574086" lon="12.701487009007352"><ele>151.75</ele><time>2026-04-18T09:18:49Z</time></trkpt><trkpt lat="42.25146455352847" lon="12.701370307492914"><ele>154.5</ele><time>2026-04-18T09:18:50Z</time></trkpt><trkpt lat="42.25156292167875" lon="12.701276612201129"><ele>157.25</ele><time>2026-04-18T09:18:51Z</time></trkpt><trkpt lat="42.25165665609616" lon="12.701211667253977"><ele>160.0</ele><time>2026-04-18T09:18:52Z</time></trkpt><trkpt lat="42.25177636499874" lon="12.701194043829213"><ele>160.0</ele><time>2026-04-18T09:18:53Z</time></trkpt><trkpt lat="42.25192032849821" lon="12.701228705588012"><ele>160.0</ele><time>2026-04-18T09:18:54Z</time></trkpt><trkpt lat="42.25208118239858" lon="12.701312183747765"><ele>160.0</ele><time>2026-04-18T09:18:55Z</time></trkpt><trkpt lat="42.252263753868334" lon="12.701423302114208"><ele>160.5</ele><time>2026-04-18T09:18:56Z</time></trkpt><trkpt lat="42.25248892673754" lon="12.70157035449474"><ele>161.0</ele><time>2026-04-18T09:18:57Z</time></trkpt><trkpt lat="42.252667956235356" lon="12.701703698515406"><ele>161.0</ele><time>2026-04-18T09:18:58Z</time></trkpt><trkpt lat="42.25279495322216" lon="12.701812464564926"><ele>161.0</ele><time>2026-04-18T09:18:59Z</time></trkpt><trkpt lat="42.25288857575435" lon="12.701930143072493"><ele>161.0</ele><time>2026-04-18T09:19:00Z</time></trkpt><trkpt lat="42.25297195201328" lon="12.702080463334244"><ele>161.0</ele><time>2026-04-18T09:19:01Z</time></trkpt><trkpt lat="42.25304914392705" lon="12.70222907102842"><ele>161.75</ele><time>2026-04-18T09:19:02Z</time></trkpt><trkpt lat="42.253125133428945" lon="12.7023407732445"><ele>162.5</ele><time>2026-04-18T09:19:03Z</time></trkpt><trkpt lat="42.253208031455195" lon="12.702410254634174"><ele>163.25</ele><time>2026-04-18T09:19:04Z</time></trkpt><trkpt lat="42.25332810598371" lon="12.702431682371284"><ele>164.0</ele><time>2026-04-18T09:19:05Z</time></trkpt><trkpt lat="42.253445715106245" lon="12.702392541549253"><ele>164.0</ele><time>2026-04-18T09:19:06Z</time></trkpt><trkpt lat="42.25355089718776" lon="12.70236017023207"><ele>164.0</ele><time>2026-04-18T09:19:07Z</time></trkpt><trkpt lat="42.25365631666114" lon="12.702346776506094"><ele>164.0</ele><time>2026-04-18T09:19:08Z</time></trkpt><trkpt lat="42.25377234644447" lon="12.702404230761234"><ele>164.0</ele><time>2026-04-18T09:19:09Z</time></trkpt><trkpt lat="42.253905511130924" lon="12.70250101025834"><ele>164.33333333333331</ele><time>2026-04-18T09:19:10Z</time></trkpt><trkpt lat="42.25404652734406" lon="12.702637722607122"><ele>164.66666666666666</ele><time>2026-04-18T09:19:11Z</time></trkpt><trkpt lat="42.25418388654362" lon="12.70280728335113"><ele>165.0</ele><time>2026-04-18T09:19:12Z</time></trkpt><trkpt lat="42.254331730710255" lon="12.702968466091686"><ele>162.66666666666666</ele><time>2026-04-18T09:19:13Z</time></trkpt><trkpt lat="42.25449653067826" lon="12.703185963057125"><ele>160.33333333333331</ele><time>2026-04-18T09:19:14Z</time></trkpt><trkpt lat="42.25464771614095" lon="12.703375795703412"><ele>158.0</ele><time>2026-04-18T09:19:15Z</time></trkpt><trkpt lat="42.254772214962486" lon="12.703540812810362"><ele>159.2</ele><time>2026-04-18T09:19:16Z</time></trkpt><trkpt lat="42.254872193241845" lon="12.70367089282106"><ele>160.4</ele><time>2026-04-18T09:19:17Z</time></trkpt><trkpt lat="42.25495120288588" lon="12.703766310647243"><ele>161.6</ele><time>2026-04-18T09:19:18Z</time></trkpt><trkpt lat="42.25503057870561" lon="12.703858430085813"><ele>162.79999999999998</ele><time>2026-04-18T09:19:19Z</time></trkpt><trkpt lat="42.25511779279438" lon="12.703923788674276"><ele>164.0</ele><time>2026-04-18T09:19:20Z</time></trkpt><trkpt lat="42.255221041450504" lon="12.703890963798553"><ele>164.0</ele><time>2026-04-18T09:19:22Z</time></trkpt><trkpt lat="42.25525740236522" lon="12.703783780001805"><ele>164.0</ele><time>2026-04-18T09:19:23Z</time></trkpt><trkpt lat="42.25519180101128" lon="12.70363484685951"><ele>164.0</ele><time>2026-04-18T09:19:24Z</time></trkpt><trkpt lat="42.25512181549508" lon="12.703515003250063"><ele>164.0</ele><time>2026-04-18T09:19:25Z</time></trkpt><trkpt lat="42.25503228714647" lon="12.703371815590272"><ele>166.0</ele><time>2026-04-18T09:19:26Z</time></trkpt><trkpt lat="42.25495360993379" lon="12.70318774942568"><ele>168.0</ele><time>2026-04-18T09:19:27Z</time></trkpt><trkpt lat="42.25486437215364" lon="12.70298011620021"><ele>170.0</ele><time>2026-04-18T09:19:28Z</time></trkpt><trkpt lat="42.25480150799895" lon="12.70278962452355"><ele>168.75</ele><time>2026-04-18T09:19:29Z</time></trkpt><trkpt lat="42.25471537876993" lon="12.70262850788306"><ele>167.5</ele><time>2026-04-18T09:19:30Z</time></trkpt><trkpt lat="42.25465336480075" lon="12.70245668826224"><ele>166.25</ele><time>2026-04-18T09:19:31Z</time></trkpt><trkpt lat="42.25458914167607" lon="12.702282292427713"><ele>165.0</ele><time>2026-04-18T09:19:32Z</time></trkpt><trkpt lat="42.2545201950107" lon="12.702128331269055"><ele>165.0</ele><time>2026-04-18T09:19:33Z</time></trkpt><trkpt lat="42.254466139095655" lon="12.70199648779572"><ele>165.0</ele><time>2026-04-18T09:19:34Z</time></trkpt><trkpt lat="42.254412697765545" lon="12.70185870322557"><ele>165.0</ele><time>2026-04-18T09:19:35Z</time></trkpt><trkpt lat="42.25433640050423" lon="12.701725524785045"><ele>165.0</ele><time>2026-04-18T09:19:36Z</time></trkpt><trkpt lat="42.2542482837314" lon="12.701623163195457"><ele>166.83333333333334</ele><time>2026-04-18T09:19:37Z</time></trkpt><trkpt lat="42.254162500121964" lon="12.70153805956126"><ele>168.66666666666666</ele><time>2026-04-18T09:19:38Z</time></trkpt><trkpt lat="42.25409015319037" lon="12.701458515905198"><ele>170.5</ele><time>2026-04-18T09:19:39Z</time></trkpt><trkpt lat="42.25403910398175" lon="12.701393195348492"><ele>172.33333333333331</ele><time>2026-04-18T09:19:40Z</time></trkpt><trkpt lat="42.25400622623635" lon="12.701290368006422"><ele>174.16666666666666</ele><time>2026-04-18T09:19:41Z</time></trkpt><trkpt lat="42.25400891117683" lon="12.701196910941826"><ele>176.0</ele><time>2026-04-18T09:19:42Z</time></trkpt><trkpt lat="42.254043460373104" lon="12.701118014356096"><ele>176.0</ele><time>2026-04-18T09:19:43Z</time></trkpt><trkpt lat="42.254108948087996" lon="12.70108399702392"><ele>176.0</ele><time>2026-04-18T09:19:44Z</time></trkpt><trkpt lat="42.25425712804408" lon="12.701070216141854"><ele>176.0</ele><time>2026-04-18T09:19:46Z</time></trkpt><trkpt lat="42.25437570114371" lon="12.701154864639324"><ele>176.0</ele><time>2026-04-18T09:19:47Z</time></trkpt><trkpt lat="42.254477888528285" lon="12.701230284118857"><ele>176.0</ele><time>2026-04-18T09:19:48Z</time></trkpt><trkpt lat="42.25456294985583" lon="12.701277080198178"><ele>176.0</ele><time>2026-04-18T09:19:49Z</time></trkpt><trkpt lat="42.25467429768975" lon="12.701339400121402"><ele>176.0</ele><time>2026-04-18T09:19:51Z</time></trkpt><trkpt lat="42.25474241294602" lon="12.701396007217195"><ele>176.0</ele><time>2026-04-18T09:19:53Z</time></trkpt><trkpt lat="42.254823356141465" lon="12.701435116053291"><ele>176.0</ele><time>2026-04-18T09:20:14Z</time></trkpt><trkpt lat="42.254893246894405" lon="12.701473317816918"><ele>176.0</ele><time>2026-04-18T09:20:15Z</time></trkpt><trkpt lat="42.254961278875435" lon="12.701508096729787"><ele>176.0</ele><time>2026-04-18T09:20:16Z</time></trkpt><trkpt lat="42.25502522515924" lon="12.701539142479625"><ele>176.0</ele><time>2026-04-18T09:20:17Z</time></trkpt><trkpt lat="42.255122471099085" lon="12.70160056972661"><ele>176.0</ele><time>2026-04-18T09:20:19Z</time></trkpt><trkpt lat="42.25518443053057" lon="12.701620336612997"><ele>176.0</ele><time>2026-04-18T09:20:21Z</time></trkpt><trkpt lat="42.25527144224551" lon="12.70167691136914"><ele>176.0</ele><time>2026-04-18T09:20:23Z</time></trkpt><trkpt lat="42.2553601555845" lon="12.701745843137237"><ele>176.0</ele><time>2026-04-18T09:20:25Z</time></trkpt><trkpt lat="42.25542520597755" lon="12.701867164315544"><ele>176.0</ele><time>2026-04-18T09:20:27Z</time></trkpt><trkpt lat="42.25546250543923" lon="12.70199669397868"><ele>176.0</ele><time>2026-04-18T09:20:29Z</time></trkpt><trkpt lat="42.25551862853084" lon="12.70213199549417"><ele>176.0</ele><time>2026-04-18T09:20:31Z</time></trkpt><trkpt lat="42.25558264742191" lon="12.70218666546022"><ele>176.0</ele><time>2026-04-18T09:20:32Z</time></trkpt><trkpt lat="42.255634236640795" lon="12.702269489258109"><ele>178.16666666666666</ele><time>2026-04-18T09:20:33Z</time></trkpt><trkpt lat="42.25568778001242" lon="12.702340555180603"><ele>180.33333333333331</ele><time>2026-04-18T09:20:34Z</time></trkpt><trkpt lat="42.25577802824733" lon="12.702448144105015"><ele>182.5</ele><time>2026-04-18T09:20:36Z</time></trkpt><trkpt lat="42.255807030565585" lon="12.702533360824335"><ele>184.66666666666666</ele><time>2026-04-18T09:20:37Z</time></trkpt><trkpt lat="42.25588687425189" lon="12.702557781620042"><ele>186.83333333333334</ele><time>2026-04-18T09:20:38Z</time></trkpt><trkpt lat="42.255965683122845" lon="12.702575737221995"><ele>189.0</ele><time>2026-04-18T09:20:39Z</time></trkpt><trkpt lat="42.256034801482684" lon="12.702609229052714"><ele>189.0</ele><time>2026-04-18T09:20:40Z</time></trkpt><trkpt lat="42.25607206401138" lon="12.702679783005173"><ele>189.0</ele><time>2026-04-18T09:20:41Z</time></trkpt><trkpt lat="42.25609714025677" lon="12.70277788712123"><ele>189.0</ele><time>2026-04-18T09:20:42Z</time></trkpt><trkpt lat="42.25609863906806" lon="12.702886660634759"><ele>189.0</ele><time>2026-04-18T09:20:43Z</time></trkpt><trkpt lat="42.2560905992211" lon="12.703006265433295"><ele>189.0</ele><time>2026-04-18T09:20:44Z</time></trkpt><trkpt lat="42.256102879116945" lon="12.703121950680707"><ele>189.0</ele><time>2026-04-18T09:20:45Z</time></trkpt><trkpt lat="42.256132953938796" lon="12.703202769168303"><ele>188.5</ele><time>2026-04-18T09:20:46Z</time></trkpt><trkpt lat="42.25618208173308" lon="12.703258129983194"><ele>188.0</ele><time>2026-04-18T09:20:47Z</time></trkpt><trkpt lat="42.256246493968995" lon="12.703303311185302"><ele>187.5</ele><time>2026-04-18T09:20:48Z</time></trkpt><trkpt lat="42.2563626365324" lon="12.703393414662118"><ele>187.0</ele><time>2026-04-18T09:20:50Z</time></trkpt><trkpt lat="42.25643388220316" lon="12.703432094507889"><ele>186.5</ele><time>2026-04-18T09:20:51Z</time></trkpt><trkpt lat="42.25650759012838" lon="12.703435777207892"><ele>186.0</ele><time>2026-04-18T09:20:52Z</time></trkpt><trkpt lat="42.25658536141634" lon="12.703468416624087"><ele>188.66666666666666</ele><time>2026-04-18T09:20:53Z</time></trkpt><trkpt lat="42.25665999408424" lon="12.7034946083226"><ele>191.33333333333331</ele><time>2026-04-18T09:20:54Z</time></trkpt><trkpt lat="42.256736731126765" lon="12.70352605226062"><ele>194.0</ele><time>2026-04-18T09:20:55Z</time></trkpt><trkpt lat="42.2568124378095" lon="12.703557884909484"><ele>196.66666666666666</ele><time>2026-04-18T09:20:56Z</time></trkpt><trkpt lat="42.25688586247375" lon="12.70359325760977"><ele>199.33333333333331</ele><time>2026-04-18T09:20:57Z</time></trkpt><trkpt lat="42.25696062037143" lon="12.703620592467397"><ele>202.0</ele><time>2026-04-18T09:20:58Z</time></trkpt><trkpt lat="42.257042731155515" lon="12.703647168861789"><ele>202.0</ele><time>2026-04-18T09:20:59Z</time></trkpt><trkpt lat="42.25712023081899" lon="12.703639166974254"><ele>202.0</ele><time>2026-04-18T09:21:00Z</time></trkpt><trkpt lat="42.25719683166441" lon="12.703655984605527"><ele>202.0</ele><time>2026-04-18T09:21:01Z</time></trkpt><trkpt lat="42.2572866721014" lon="12.703777556604372"><ele>202.0</ele><time>2026-04-18T09:21:03Z</time></trkpt><trkpt lat="42.2573249699887" lon="12.703851196371216"><ele>202.0</ele><time>2026-04-18T09:21:04Z</time></trkpt><trkpt lat="42.25733832116301" lon="12.704004124470952"><ele>201.99999999999997</ele><time>2026-04-18T09:21:06Z</time></trkpt><trkpt lat="42.257279091236946" lon="12.704081262019594"><ele>202.0</ele><time>2026-04-18T09:21:07Z</time></trkpt><trkpt lat="42.25723348129162" lon="12.704168288931177"><ele>202.0</ele><time>2026-04-18T09:21:08Z</time></trkpt><trkpt lat="42.257183951552236" lon="12.704261445298968"><ele>202.0</ele><time>2026-04-18T09:21:09Z</time></trkpt><trkpt lat="42.257132659422695" lon="12.704357916398118"><ele>201.99999999999997</ele><time>2026-04-18T09:21:10Z</time></trkpt><trkpt lat="42.25707627204854" lon="12.704465817878175"><ele>202.0</ele><time>2026-04-18T09:21:11Z</time></trkpt><trkpt lat="42.257040213709594" lon="12.704573736201423"><ele>203.16666666666666</ele><time>2026-04-18T09:21:12Z</time></trkpt><trkpt lat="42.25699032049645" lon="12.704658032989117"><ele>204.33333333333331</ele><time>2026-04-18T09:21:13Z</time></trkpt><trkpt lat="42.256939660023775" lon="12.704751980534375"><ele>205.5</ele><time>2026-04-18T09:21:14Z</time></trkpt><trkpt lat="42.25689938796993" lon="12.704867694149256"><ele>206.66666666666669</ele><time>2026-04-18T09:21:15Z</time></trkpt><trkpt lat="42.25686770757844" lon="12.704977111997607"><ele>207.83333333333334</ele><time>2026-04-18T09:21:16Z</time></trkpt><trkpt lat="42.256856822573226" lon="12.705079213919584"><ele>209.0</ele><time>2026-04-18T09:21:17Z</time></trkpt><trkpt lat="42.256880235523475" lon="12.705181364662874"><ele>208.39999999999998</ele><time>2026-04-18T09:21:18Z</time></trkpt><trkpt lat="42.25691798386945" lon="12.70528447531596"><ele>207.8</ele><time>2026-04-18T09:21:19Z</time></trkpt><trkpt lat="42.25696810063943" lon="12.70537940394863"><ele>207.2</ele><time>2026-04-18T09:21:20Z</time></trkpt><trkpt lat="42.25704489057132" lon="12.70548086318804"><ele>206.60000000000002</ele><time>2026-04-18T09:21:21Z</time></trkpt><trkpt lat="42.25712175429047" lon="12.705595680736314"><ele>206.0</ele><time>2026-04-18T09:21:22Z</time></trkpt><trkpt lat="42.257185598877165" lon="12.705703390788589"><ele>206.0</ele><time>2026-04-18T09:21:23Z</time></trkpt><trkpt lat="42.25723456385363" lon="12.70581221539905"><ele>206.0</ele><time>2026-04-18T09:21:24Z</time></trkpt><trkpt lat="42.257294118869645" lon="12.705925167934492"><ele>206.0</ele><time>2026-04-18T09:21:25Z</time></trkpt><trkpt lat="42.257337126567535" lon="12.706037348064406"><ele>206.0</ele><time>2026-04-18T09:21:26Z</time></trkpt><trkpt lat="42.257381780280724" lon="12.70615752443447"><ele>206.0</ele><time>2026-04-18T09:21:27Z</time></trkpt><trkpt lat="42.257441794411555" lon="12.706271210072183"><ele>209.66666666666669</ele><time>2026-04-18T09:21:28Z</time></trkpt><trkpt lat="42.257493180657306" lon="12.706370641783206"><ele>213.33333333333334</ele><time>2026-04-18T09:21:29Z</time></trkpt><trkpt lat="42.25754752901869" lon="12.706458712873435"><ele>217.0</ele><time>2026-04-18T09:21:30Z</time></trkpt><trkpt lat="42.25759582534371" lon="12.706538311873585"><ele>220.66666666666669</ele><time>2026-04-18T09:21:31Z</time></trkpt><trkpt lat="42.257654405911374" lon="12.706610145640063"><ele>224.33333333333334</ele><time>2026-04-18T09:21:32Z</time></trkpt><trkpt lat="42.25774512169203" lon="12.706694362398624"><ele>228.0</ele><time>2026-04-18T09:21:33Z</time></trkpt><trkpt lat="42.25783947771688" lon="12.706754320887413"><ele>228.0</ele><time>2026-04-18T09:21:34Z</time></trkpt><trkpt lat="42.25791214304071" lon="12.706817150879447"><ele>227.99999999999997</ele><time>2026-04-18T09:21:35Z</time></trkpt><trkpt lat="42.2579684723256" lon="12.706856840306825"><ele>228.0</ele><time>2026-04-18T09:21:36Z</time></trkpt><trkpt lat="42.25802606591127" lon="12.706896933186867"><ele>228.0</ele><time>2026-04-18T09:21:37Z</time></trkpt><trkpt lat="42.25810009029621" lon="12.706863929113954"><ele>227.99999999999997</ele><time>2026-04-18T09:21:38Z</time></trkpt><trkpt lat="42.25816316193994" lon="12.706822016879153"><ele>228.0</ele><time>2026-04-18T09:21:39Z</time></trkpt><trkpt lat="42.25822910627115" lon="12.706748131435559"><ele>228.0</ele><time>2026-04-18T09:21:40Z</time></trkpt><trkpt lat="42.25829874511249" lon="12.706660196178259"><ele>232.0</ele><time>2026-04-18T09:21:41Z</time></trkpt><trkpt lat="42.258356415921895" lon="12.706542539172046"><ele>236.0</ele><time>2026-04-18T09:21:42Z</time></trkpt><trkpt lat="42.25840309146686" lon="12.706430178436738"><ele>240.0</ele><time>2026-04-18T09:21:43Z</time></trkpt><trkpt lat="42.25847046658117" lon="12.706309717341503"><ele>244.0</ele><time>2026-04-18T09:21:44Z</time></trkpt><trkpt lat="42.25854335782208" lon="12.70618736110811"><ele>248.0</ele><time>2026-04-18T09:21:45Z</time></trkpt><trkpt lat="42.258594305459866" lon="12.706079361698498"><ele>248.8</ele><time>2026-04-18T09:21:46Z</time></trkpt><trkpt lat="42.258647646737856" lon="12.705956401470806"><ele>249.60000000000002</ele><time>2026-04-18T09:21:47Z</time></trkpt><trkpt lat="42.258697462700624" lon="12.705866849922469"><ele>250.39999999999998</ele><time>2026-04-18T09:21:48Z</time></trkpt><trkpt lat="42.25875448936517" lon="12.705720677369609"><ele>251.2</ele><time>2026-04-18T09:21:49Z</time></trkpt><trkpt lat="42.25881308823775" lon="12.705601440684864"><ele>252.0</ele><time>2026-04-18T09:21:50Z</time></trkpt><trkpt lat="42.25886994325791" lon="12.705488834951264"><ele>252.0</ele><time>2026-04-18T09:21:51Z</time></trkpt><trkpt lat="42.25890463573387" lon="12.705370455295252"><ele>252.0</ele><time>2026-04-18T09:21:52Z</time></trkpt><trkpt lat="42.25893453160921" lon="12.70523224358451"><ele>252.0</ele><time>2026-04-18T09:21:53Z</time></trkpt><trkpt lat="42.25894665916288" lon="12.705073897388418"><ele>252.0</ele><time>2026-04-18T09:21:54Z</time></trkpt><trkpt lat="42.25896391583309" lon="12.704919547740122"><ele>252.0</ele><time>2026-04-18T09:21:55Z</time></trkpt><trkpt lat="42.25899524017391" lon="12.704749055323742"><ele>254.6</ele><time>2026-04-18T09:21:56Z</time></trkpt><trkpt lat="42.25902488925063" lon="12.704604777805848"><ele>257.2</ele><time>2026-04-18T09:21:57Z</time></trkpt><trkpt lat="42.259034931250035" lon="12.704486107232375"><ele>259.8</ele><time>2026-04-18T09:21:58Z</time></trkpt><trkpt lat="42.259042257984085" lon="12.704363015560636"><ele>262.4</ele><time>2026-04-18T09:21:59Z</time></trkpt><trkpt lat="42.259053322738225" lon="12.704248299153539"><ele>265.0</ele><time>2026-04-18T09:22:00Z</time></trkpt><trkpt lat="42.259087558624216" lon="12.704146124439701"><ele>265.16666666666663</ele><time>2026-04-18T09:22:01Z</time></trkpt><trkpt lat="42.25912364529305" lon="12.704051449941923"><ele>265.3333333333333</ele><time>2026-04-18T09:22:02Z</time></trkpt><trkpt lat="42.25920117883669" lon="12.704021735312526"><ele>265.5</ele><time>2026-04-18T09:22:03Z</time></trkpt><trkpt lat="42.25929094845481" lon="12.703931751098432"><ele>265.6666666666667</ele><time>2026-04-18T09:22:05Z</time></trkpt><trkpt lat="42.25934271844847" lon="12.703878870978643"><ele>265.83333333333337</ele><time>2026-04-18T09:22:06Z</time></trkpt><trkpt lat="42.259414020341616" lon="12.703845852536741"><ele>266.0</ele><time>2026-04-18T09:22:07Z</time></trkpt><trkpt lat="42.259505655899645" lon="12.703849021982888"><ele>266.0</ele><time>2026-04-18T09:22:08Z</time></trkpt><trkpt lat="42.25959704661126" lon="12.703857818867055"><ele>266.0</ele><time>2026-04-18T09:22:09Z</time></trkpt><trkpt lat="42.259668279614566" lon="12.703875586912575"><ele>266.0</ele><time>2026-04-18T09:22:10Z</time></trkpt><trkpt lat="42.25973303113148" lon="12.703894225305172"><ele>266.0</ele><time>2026-04-18T09:22:11Z</time></trkpt><trkpt lat="42.259808341469636" lon="12.703947509807586"><ele>266.0</ele><time>2026-04-18T09:22:12Z</time></trkpt><trkpt lat="42.259909237505184" lon="12.70399245906579"><ele>266.0</ele><time>2026-04-18T09:22:13Z</time></trkpt><trkpt lat="42.26001429876572" lon="12.70404757409908"><ele>268.6</ele><time>2026-04-18T09:22:14Z</time></trkpt><trkpt lat="42.26011769014766" lon="12.704101578705481"><ele>271.20000000000005</ele><time>2026-04-18T09:22:15Z</time></trkpt><trkpt lat="42.26019928365806" lon="12.704166646012824"><ele>273.79999999999995</ele><time>2026-04-18T09:22:16Z</time></trkpt><trkpt lat="42.26028128749932" lon="12.704222824765388"><ele>276.4</ele><time>2026-04-18T09:22:17Z</time></trkpt><trkpt lat="42.260367340696206" lon="12.704291072086583"><ele>279.0</ele><time>2026-04-18T09:22:18Z</time></trkpt><trkpt lat="42.26046904893634" lon="12.704372334751122"><ele>280.5</ele><time>2026-04-18T09:22:19Z</time></trkpt><trkpt lat="42.26055451540944" lon="12.704499611251489"><ele>282.0</ele><time>2026-04-18T09:22:20Z</time></trkpt><trkpt lat="42.260613335981056" lon="12.704596654773205"><ele>283.5</ele><time>2026-04-18T09:22:21Z</time></trkpt><trkpt lat="42.26064968718979" lon="12.704667064209305"><ele>285.0</ele><time>2026-04-18T09:22:22Z</time></trkpt><trkpt lat="42.260699841663005" lon="12.704719237277509"><ele>286.5</ele><time>2026-04-18T09:22:23Z</time></trkpt><trkpt lat="42.260760492575734" lon="12.70476601536531"><ele>288.0</ele><time>2026-04-18T09:22:24Z</time></trkpt><trkpt lat="42.26087201871965" lon="12.704731409324431"><ele>289.25</ele><time>2026-04-18T09:22:25Z</time></trkpt><trkpt lat="42.260984539872595" lon="12.704802180759945"><ele>290.5</ele><time>2026-04-18T09:22:26Z</time></trkpt><trkpt lat="42.26109299266386" lon="12.704831452034622"><ele>291.75</ele><time>2026-04-18T09:22:27Z</time></trkpt><trkpt lat="42.26119884031794" lon="12.704857016343382"><ele>293.0</ele><time>2026-04-18T09:22:28Z</time></trkpt><trkpt lat="42.261318542201714" lon="12.704876649227263"><ele>293.0</ele><time>2026-04-18T09:22:29Z</time></trkpt><trkpt lat="42.2614410669289" lon="12.704906159570825"><ele>293.0</ele><time>2026-04-18T09:22:30Z</time></trkpt><trkpt lat="42.26154475104123" lon="12.704938098701993"><ele>293.0</ele><time>2026-04-18T09:22:31Z</time></trkpt><trkpt lat="42.26164315195643" lon="12.704954350580062"><ele>293.0</ele><time>2026-04-18T09:22:32Z</time></trkpt><trkpt lat="42.26174326977916" lon="12.704951652456202"><ele>293.0</ele><time>2026-04-18T09:22:33Z</time></trkpt><trkpt lat="42.26184693503519" lon="12.704924654295041"><ele>293.83333333333337</ele><time>2026-04-18T09:22:34Z</time></trkpt><trkpt lat="42.261959402969076" lon="12.704921715057857"><ele>294.6666666666667</ele><time>2026-04-18T09:22:35Z</time></trkpt><trkpt lat="42.26205014089938" lon="12.704913172342101"><ele>295.5</ele><time>2026-04-18T09:22:36Z</time></trkpt><trkpt lat="42.26212527368919" lon="12.704920280369475"><ele>296.3333333333333</ele><time>2026-04-18T09:22:37Z</time></trkpt><trkpt lat="42.26220217529932" lon="12.704948483275043"><ele>297.16666666666663</ele><time>2026-04-18T09:22:38Z</time></trkpt><trkpt lat="42.26229016253416" lon="12.704974900857742"><ele>298.0</ele><time>2026-04-18T09:22:39Z</time></trkpt><trkpt lat="42.26238445064637" lon="12.704996225500208"><ele>298.4</ele><time>2026-04-18T09:22:40Z</time></trkpt><trkpt lat="42.26248274166142" lon="12.70497019393831"><ele>298.8</ele><time>2026-04-18T09:22:41Z</time></trkpt><trkpt lat="42.26258385629383" lon="12.704941270089945"><ele>299.2</ele><time>2026-04-18T09:22:42Z</time></trkpt><trkpt lat="42.262690313978034" lon="12.704891394563248"><ele>299.6</ele><time>2026-04-18T09:22:43Z</time></trkpt><trkpt lat="42.262795154066055" lon="12.704838414512"><ele>300.0</ele><time>2026-04-18T09:22:44Z</time></trkpt><trkpt lat="42.262881659425624" lon="12.704836704856387"><ele>300.0</ele><time>2026-04-18T09:22:45Z</time></trkpt><trkpt lat="42.26295412073664" lon="12.704855866793443"><ele>300.0</ele><time>2026-04-18T09:22:46Z</time></trkpt><trkpt lat="42.263037081642466" lon="12.704900579922255"><ele>300.0</ele><time>2026-04-18T09:22:47Z</time></trkpt><trkpt lat="42.263127308107066" lon="12.704915807379203"><ele>300.0</ele><time>2026-04-18T09:22:48Z</time></trkpt><trkpt lat="42.26323304246744" lon="12.704877953334677"><ele>300.0</ele><time>2026-04-18T09:22:49Z</time></trkpt><trkpt lat="42.263359631754454" lon="12.704863455631498"><ele>301.0</ele><time>2026-04-18T09:22:50Z</time></trkpt><trkpt lat="42.263454227594956" lon="12.704838018603473"><ele>302.0</ele><time>2026-04-18T09:22:51Z</time></trkpt><trkpt lat="42.26354435988043" lon="12.704811034363773"><ele>303.0</ele><time>2026-04-18T09:22:52Z</time></trkpt><trkpt lat="42.26362685521406" lon="12.704782325304244"><ele>304.0</ele><time>2026-04-18T09:22:53Z</time></trkpt><trkpt lat="42.26371633975422" lon="12.70470608246169"><ele>305.0</ele><time>2026-04-18T09:22:54Z</time></trkpt><trkpt lat="42.26379166285739" lon="12.70464034691376"><ele>305.0</ele><time>2026-04-18T09:22:55Z</time></trkpt><trkpt lat="42.263847928896055" lon="12.704574317635963"><ele>305.0</ele><time>2026-04-18T09:22:56Z</time></trkpt><trkpt lat="42.263908036054055" lon="12.704511382397827"><ele>305.0</ele><time>2026-04-18T09:22:57Z</time></trkpt><trkpt lat="42.26397170792089" lon="12.704497993578563"><ele>305.0</ele><time>2026-04-18T09:22:58Z</time></trkpt><trkpt lat="42.264076839598445" lon="12.704488381060495"><ele>305.0</ele><time>2026-04-18T09:23:00Z</time></trkpt><trkpt lat="42.26414792880381" lon="12.704554330199668"><ele>305.0</ele><time>2026-04-18T09:23:02Z</time></trkpt><trkpt lat="42.264177907906735" lon="12.704633788593565"><ele>306.6</ele><time>2026-04-18T09:23:03Z</time></trkpt><trkpt lat="42.26419398079769" lon="12.704742113999266"><ele>308.2</ele><time>2026-04-18T09:23:04Z</time></trkpt><trkpt lat="42.26420129597522" lon="12.70486219616394"><ele>309.8</ele><time>2026-04-18T09:23:05Z</time></trkpt><trkpt lat="42.264221044680276" lon="12.704961414430151"><ele>311.4</ele><time>2026-04-18T09:23:06Z</time></trkpt><trkpt lat="42.26426396040502" lon="12.705106379698861"><ele>313.0</ele><time>2026-04-18T09:23:08Z</time></trkpt><trkpt lat="42.26437804167955" lon="12.705114720579482"><ele>313.0</ele><time>2026-04-18T09:23:10Z</time></trkpt><trkpt lat="42.26445282350446" lon="12.705019180763228"><ele>313.0</ele><time>2026-04-18T09:23:11Z</time></trkpt><trkpt lat="42.2645296545522" lon="12.704978005747297"><ele>313.0</ele><time>2026-04-18T09:23:12Z</time></trkpt><trkpt lat="42.264602469275616" lon="12.704933986749506"><ele>313.0</ele><time>2026-04-18T09:23:13Z</time></trkpt><trkpt lat="42.26468155297115" lon="12.704909866913875"><ele>313.0</ele><time>2026-04-18T09:23:14Z</time></trkpt><trkpt lat="42.26475895916787" lon="12.704896481545369"><ele>313.0</ele><time>2026-04-18T09:23:15Z</time></trkpt><trkpt lat="42.26483426905862" lon="12.704883517190652"><ele>315.2</ele><time>2026-04-18T09:23:16Z</time></trkpt><trkpt lat="42.264923005295174" lon="12.704883980721505"><ele>317.4</ele><time>2026-04-18T09:23:17Z</time></trkpt><trkpt lat="42.26501256174229" lon="12.704867710142276"><ele>319.59999999999997</ele><time>2026-04-18T09:23:18Z</time></trkpt><trkpt lat="42.26509637974929" lon="12.704826497814958"><ele>321.8</ele><time>2026-04-18T09:23:19Z</time></trkpt><trkpt lat="42.265157035804705" lon="12.704734959036633"><ele>324.0</ele><time>2026-04-18T09:23:20Z</time></trkpt><trkpt lat="42.2652292629515" lon="12.704658487767366"><ele>324.0</ele><time>2026-04-18T09:23:21Z</time></trkpt><trkpt lat="42.26531912746381" lon="12.704581295788667"><ele>324.0</ele><time>2026-04-18T09:23:22Z</time></trkpt><trkpt lat="42.2654029967387" lon="12.704492741791357"><ele>324.0</ele><time>2026-04-18T09:23:23Z</time></trkpt><trkpt lat="42.26547880412802" lon="12.704415160953943"><ele>324.0</ele><time>2026-04-18T09:23:24Z</time></trkpt><trkpt lat="42.265562882303165" lon="12.704342131048755"><ele>324.0</ele><time>2026-04-18T09:23:25Z</time></trkpt><trkpt lat="42.26565756411185" lon="12.70426679648503"><ele>324.4</ele><time>2026-04-18T09:23:26Z</time></trkpt><trkpt lat="42.26573239001646" lon="12.704216221733983"><ele>324.79999999999995</ele><time>2026-04-18T09:23:27Z</time></trkpt><trkpt lat="42.26580456838473" lon="12.70417705270809"><ele>325.20000000000005</ele><time>2026-04-18T09:23:28Z</time></trkpt><trkpt lat="42.265925281954" lon="12.704120237054761"><ele>325.6</ele><time>2026-04-18T09:23:30Z</time></trkpt><trkpt lat="42.26599692187418" lon="12.704107794473012"><ele>326.0</ele><time>2026-04-18T09:23:31Z</time></trkpt><trkpt lat="42.26608844669603" lon="12.704123520516701"><ele>326.0</ele><time>2026-04-18T09:23:32Z</time></trkpt><trkpt lat="42.26617382960316" lon="12.704124713978807"><ele>326.0</ele><time>2026-04-18T09:23:33Z</time></trkpt><trkpt lat="42.266253138734776" lon="12.70410967927187"><ele>326.0</ele><time>2026-04-18T09:23:34Z</time></trkpt><trkpt lat="42.26633383345599" lon="12.704138882066728"><ele>326.0</ele><time>2026-04-18T09:23:35Z</time></trkpt><trkpt lat="42.26641398500907" lon="12.704172389269766"><ele>326.0</ele><time>2026-04-18T09:23:36Z</time></trkpt><trkpt lat="42.26648584888983" lon="12.704212787783598"><ele>326.0</ele><time>2026-04-18T09:23:37Z</time></trkpt><trkpt lat="42.26656568334799" lon="12.704234258181494"><ele>327.14285714285717</ele><time>2026-04-18T09:23:38Z</time></trkpt><trkpt lat="42.26663145820211" lon="12.704235115158406"><ele>328.2857142857143</ele><time>2026-04-18T09:23:39Z</time></trkpt><trkpt lat="42.266705858725196" lon="12.704226302165354"><ele>329.42857142857144</ele><time>2026-04-18T09:23:40Z</time></trkpt><trkpt lat="42.26677509275144" lon="12.704173558583667"><ele>330.57142857142856</ele><time>2026-04-18T09:23:41Z</time></trkpt><trkpt lat="42.266790555221064" lon="12.704056169572638"><ele>331.7142857142857</ele><time>2026-04-18T09:23:42Z</time></trkpt><trkpt lat="42.26679966063065" lon="12.703967582527234"><ele>332.85714285714283</ele><time>2026-04-18T09:23:43Z</time></trkpt><trkpt lat="42.26685188634695" lon="12.703894690125635"><ele>334.0</ele><time>2026-04-18T09:23:44Z</time></trkpt><trkpt lat="42.26693127902122" lon="12.703851964205436"><ele>334.0</ele><time>2026-04-18T09:23:45Z</time></trkpt><trkpt lat="42.26703157341576" lon="12.703789842312714"><ele>334.0</ele><time>2026-04-18T09:23:46Z</time></trkpt><trkpt lat="42.267124020983736" lon="12.703705025407164"><ele>334.0</ele><time>2026-04-18T09:23:47Z</time></trkpt><trkpt lat="42.267189793116295" lon="12.703593322287412"><ele>334.0</ele><time>2026-04-18T09:23:48Z</time></trkpt><trkpt lat="42.267237879391935" lon="12.703481390205917"><ele>334.0</ele><time>2026-04-18T09:23:49Z</time></trkpt><trkpt lat="42.267299919562916" lon="12.703369868953118"><ele>334.0</ele><time>2026-04-18T09:23:50Z</time></trkpt><trkpt lat="42.267359197101676" lon="12.703260558938988"><ele>334.0</ele><time>2026-04-18T09:23:51Z</time></trkpt><trkpt lat="42.267416333245414" lon="12.703156783982376"><ele>334.0</ele><time>2026-04-18T09:23:52Z</time></trkpt><trkpt lat="42.26747179358018" lon="12.703062564792445"><ele>334.0</ele><time>2026-04-18T09:23:53Z</time></trkpt><trkpt lat="42.26752898661781" lon="12.702973548652274"><ele>334.0</ele><time>2026-04-18T09:23:54Z</time></trkpt><trkpt lat="42.26758600147691" lon="12.702885229413543"><ele>334.0</ele><time>2026-04-18T09:23:55Z</time></trkpt><trkpt lat="42.26766311418279" lon="12.702806725018146"><ele>334.0</ele><time>2026-04-18T09:23:56Z</time></trkpt><trkpt lat="42.26774275026157" lon="12.70272388510389"><ele>334.0</ele><time>2026-04-18T09:23:57Z</time></trkpt><trkpt lat="42.267823849670926" lon="12.702648913376683"><ele>334.0</ele><time>2026-04-18T09:23:58Z</time></trkpt><trkpt lat="42.26789754336523" lon="12.70255872153206"><ele>334.0</ele><time>2026-04-18T09:23:59Z</time></trkpt><trkpt lat="42.267966472622724" lon="12.702483636977336"><ele>332.8333333333333</ele><time>2026-04-18T09:24:00Z</time></trkpt><trkpt lat="42.26802245655843" lon="12.702424291694527"><ele>331.66666666666663</ele><time>2026-04-18T09:24:01Z</time></trkpt><trkpt lat="42.26811964523842" lon="12.702326967165696"><ele>330.5</ele><time>2026-04-18T09:24:03Z</time></trkpt><trkpt lat="42.268180333265214" lon="12.702271302419195"><ele>329.3333333333333</ele><time>2026-04-18T09:24:04Z</time></trkpt><trkpt lat="42.26823964542594" lon="12.702221172642773"><ele>328.1666666666667</ele><time>2026-04-18T09:24:05Z</time></trkpt><trkpt lat="42.26831750081698" lon="12.702181828138148"><ele>327.0</ele><time>2026-04-18T09:24:06Z</time></trkpt><trkpt lat="42.26838453722214" lon="12.702148639917434"><ele>329.5</ele><time>2026-04-18T09:24:07Z</time></trkpt><trkpt lat="42.26847285941913" lon="12.702138455665825"><ele>332.0</ele><time>2026-04-18T09:24:09Z</time></trkpt><trkpt lat="42.268543765162406" lon="12.70215739240875"><ele>334.5</ele><time>2026-04-18T09:24:10Z</time></trkpt><trkpt lat="42.26862779420412" lon="12.70217427783071"><ele>337.0</ele><time>2026-04-18T09:24:11Z</time></trkpt><trkpt lat="42.26871353655794" lon="12.702159444304733"><ele>339.5</ele><time>2026-04-18T09:24:12Z</time></trkpt><trkpt lat="42.268799933111445" lon="12.702097126579762"><ele>342.0</ele><time>2026-04-18T09:24:13Z</time></trkpt><trkpt lat="42.26888671624568" lon="12.702020679286138"><ele>341.3333333333333</ele><time>2026-04-18T09:24:14Z</time></trkpt><trkpt lat="42.268965442597505" lon="12.70197501588799"><ele>340.6666666666667</ele><time>2026-04-18T09:24:15Z</time></trkpt><trkpt lat="42.26904967971717" lon="12.701950461085593"><ele>340.0</ele><time>2026-04-18T09:24:16Z</time></trkpt><trkpt lat="42.26913368880962" lon="12.701922500596998"><ele>339.33333333333337</ele><time>2026-04-18T09:24:17Z</time></trkpt><trkpt lat="42.2692172057065" lon="12.701911389063984"><ele>338.6666666666667</ele><time>2026-04-18T09:24:18Z</time></trkpt><trkpt lat="42.26928604872817" lon="12.701918889166583"><ele>338.0</ele><time>2026-04-18T09:24:19Z</time></trkpt><trkpt lat="42.26935483938363" lon="12.701942734209961"><ele>340.5</ele><time>2026-04-18T09:24:20Z</time></trkpt><trkpt lat="42.26940171243044" lon="12.702008528364921"><ele>343.0</ele><time>2026-04-18T09:24:21Z</time></trkpt><trkpt lat="42.26948248942707" lon="12.702117917292492"><ele>345.5</ele><time>2026-04-18T09:24:23Z</time></trkpt><trkpt lat="42.26953106618535" lon="12.702188845024015"><ele>348.0</ele><time>2026-04-18T09:24:24Z</time></trkpt><trkpt lat="42.26958467312433" lon="12.702273986061005"><ele>350.5</ele><time>2026-04-18T09:24:25Z</time></trkpt><trkpt lat="42.269629764476676" lon="12.702387572233153"><ele>353.0</ele><time>2026-04-18T09:24:26Z</time></trkpt><trkpt lat="42.26968045386611" lon="12.702524510230653"><ele>353.0</ele><time>2026-04-18T09:24:27Z</time></trkpt><trkpt lat="42.269740791636806" lon="12.702608912672321"><ele>353.0</ele><time>2026-04-18T09:24:28Z</time></trkpt><trkpt lat="42.2697858143724" lon="12.70270122497156"><ele>353.0</ele><time>2026-04-18T09:24:29Z</time></trkpt><trkpt lat="42.26983250398322" lon="12.702760907217712"><ele>353.0</ele><time>2026-04-18T09:24:31Z</time></trkpt><trkpt lat="42.26994805639433" lon="12.702739644402245"><ele>353.0</ele><time>2026-04-18T09:24:33Z</time></trkpt><trkpt lat="42.270017395344176" lon="12.702702713052618"><ele>353.0</ele><time>2026-04-18T09:24:34Z</time></trkpt><trkpt lat="42.27010164295157" lon="12.702675669165771"><ele>355.4</ele><time>2026-04-18T09:24:35Z</time></trkpt><trkpt lat="42.27017580058729" lon="12.702610108936126"><ele>357.79999999999995</ele><time>2026-04-18T09:24:36Z</time></trkpt><trkpt lat="42.270263247166774" lon="12.702585630711056"><ele>360.2</ele><time>2026-04-18T09:24:37Z</time></trkpt><trkpt lat="42.270353763374125" lon="12.702535725033227"><ele>362.6</ele><time>2026-04-18T09:24:38Z</time></trkpt><trkpt lat="42.27045122148319" lon="12.702479646473822"><ele>365.0</ele><time>2026-04-18T09:24:39Z</time></trkpt><trkpt lat="42.2705316227358" lon="12.702433182751218"><ele>366.83333333333337</ele><time>2026-04-18T09:24:40Z</time></trkpt><trkpt lat="42.270618704069754" lon="12.702384953940623"><ele>368.6666666666667</ele><time>2026-04-18T09:24:41Z</time></trkpt><trkpt lat="42.270699123984386" lon="12.70234479687161"><ele>370.5</ele><time>2026-04-18T09:24:42Z</time></trkpt><trkpt lat="42.27078692839806" lon="12.70230610769537"><ele>372.3333333333333</ele><time>2026-04-18T09:24:43Z</time></trkpt><trkpt lat="42.270878973686244" lon="12.702270564882868"><ele>374.16666666666663</ele><time>2026-04-18T09:24:44Z</time></trkpt><trkpt lat="42.27095624748788" lon="12.702242469495655"><ele>376.0</ele><time>2026-04-18T09:24:45Z</time></trkpt><trkpt lat="42.27103541427549" lon="12.70221368579391"><ele>376.0</ele><time>2026-04-18T09:24:46Z</time></trkpt><trkpt lat="42.27112889091949" lon="12.702179699324256"><ele>376.0</ele><time>2026-04-18T09:24:47Z</time></trkpt><trkpt lat="42.27122647455494" lon="12.702142556394024"><ele>376.0</ele><time>2026-04-18T09:24:48Z</time></trkpt><trkpt lat="42.2713308254867" lon="12.702122011541743"><ele>376.0</ele><time>2026-04-18T09:24:49Z</time></trkpt><trkpt lat="42.27143474649294" lon="12.70207395706077"><ele>376.0</ele><time>2026-04-18T09:24:50Z</time></trkpt><trkpt lat="42.27153175281496" lon="12.70200214903647"><ele>377.0</ele><time>2026-04-18T09:24:51Z</time></trkpt><trkpt lat="42.27162201628532" lon="12.701947766016408"><ele>378.0</ele><time>2026-04-18T09:24:52Z</time></trkpt><trkpt lat="42.2717072367039" lon="12.701916083374206"><ele>379.0</ele><time>2026-04-18T09:24:53Z</time></trkpt><trkpt lat="42.27178945551658" lon="12.701866363974135"><ele>380.0</ele><time>2026-04-18T09:24:54Z</time></trkpt><trkpt lat="42.271857347163994" lon="12.70182390133981"><ele>381.0</ele><time>2026-04-18T09:24:55Z</time></trkpt><trkpt lat="42.27193506727761" lon="12.701780240356394"><ele>382.0</ele><time>2026-04-18T09:24:56Z</time></trkpt><trkpt lat="42.27200007220996" lon="12.701746110936844"><ele>379.0</ele><time>2026-04-18T09:24:57Z</time></trkpt><trkpt lat="42.27206450947517" lon="12.701714091629205"><ele>376.0</ele><time>2026-04-18T09:24:58Z</time></trkpt><trkpt lat="42.2721560294434" lon="12.701674436387977"><ele>373.0</ele><time>2026-04-18T09:25:00Z</time></trkpt><trkpt lat="42.27222339087516" lon="12.701568417528433"><ele>370.0</ele><time>2026-04-18T09:25:02Z</time></trkpt><trkpt lat="42.27223748627806" lon="12.701356441723936"><ele>367.0</ele><time>2026-04-18T09:25:04Z</time></trkpt><trkpt lat="42.272185197895624" lon="12.701239259360667"><ele>367.0</ele><time>2026-04-18T09:25:05Z</time></trkpt><trkpt lat="42.27213787071147" lon="12.701119160377091"><ele>367.0</ele><time>2026-04-18T09:25:06Z</time></trkpt><trkpt lat="42.272097187933895" lon="12.70101331215049"><ele>367.0</ele><time>2026-04-18T09:25:07Z</time></trkpt><trkpt lat="42.27207262846633" lon="12.700920320049569"><ele>367.0</ele><time>2026-04-18T09:25:08Z</time></trkpt><trkpt lat="42.272052294761785" lon="12.70077893444602"><ele>367.0</ele><time>2026-04-18T09:25:09Z</time></trkpt><trkpt lat="42.27204765392195" lon="12.700659417453632"><ele>366.8</ele><time>2026-04-18T09:25:10Z</time></trkpt><trkpt lat="42.27205146095485" lon="12.700520064635079"><ele>366.6</ele><time>2026-04-18T09:25:11Z</time></trkpt><trkpt lat="42.272057055946824" lon="12.700409737974832"><ele>366.40000000000003</ele><time>2026-04-18T09:25:12Z</time></trkpt><trkpt lat="42.27207467190439" lon="12.700297951594273"><ele>366.20000000000005</ele><time>2026-04-18T09:25:13Z</time></trkpt><trkpt lat="42.272096207060386" lon="12.700167942315757"><ele>366.0</ele><time>2026-04-18T09:25:14Z</time></trkpt><trkpt lat="42.27213569763273" lon="12.700062779052224"><ele>365.75</ele><time>2026-04-18T09:25:15Z</time></trkpt><trkpt lat="42.27219065523617" lon="12.699944961845029"><ele>365.5</ele><time>2026-04-18T09:25:16Z</time></trkpt><trkpt lat="42.272270350780744" lon="12.699836635144385"><ele>365.25</ele><time>2026-04-18T09:25:17Z</time></trkpt><trkpt lat="42.27237616404679" lon="12.699684902492287"><ele>365.0</ele><time>2026-04-18T09:25:18Z</time></trkpt><trkpt lat="42.27244193631932" lon="12.699521831372383"><ele>369.25</ele><time>2026-04-18T09:25:19Z</time></trkpt><trkpt lat="42.27250940648289" lon="12.699344017595946"><ele>373.5</ele><time>2026-04-18T09:25:20Z</time></trkpt><trkpt lat="42.27255936719575" lon="12.699192248312272"><ele>377.75</ele><time>2026-04-18T09:25:21Z</time></trkpt><trkpt lat="42.272619802353326" lon="12.699088325981458"><ele>382.0</ele><time>2026-04-18T09:25:22Z</time></trkpt><trkpt lat="42.27268852576499" lon="12.698994358726893"><ele>382.0</ele><time>2026-04-18T09:25:23Z</time></trkpt><trkpt lat="42.27277221692684" lon="12.698910700079841"><ele>382.0</ele><time>2026-04-18T09:25:24Z</time></trkpt><trkpt lat="42.27284693757669" lon="12.698840844958982"><ele>382.0</ele><time>2026-04-18T09:25:25Z</time></trkpt><trkpt lat="42.27290494298872" lon="12.698790480118939"><ele>382.0</ele><time>2026-04-18T09:25:28Z</time></trkpt><trkpt lat="42.27299783405641" lon="12.698736341638346"><ele>382.0</ele><time>2026-04-18T09:25:30Z</time></trkpt><trkpt lat="42.27307282229633" lon="12.698671948791622"><ele>383.8</ele><time>2026-04-18T09:25:31Z</time></trkpt><trkpt lat="42.27312926587884" lon="12.698616212419234"><ele>385.6</ele><time>2026-04-18T09:25:32Z</time></trkpt><trkpt lat="42.27321789321998" lon="12.698564878814027"><ele>387.40000000000003</ele><time>2026-04-18T09:25:34Z</time></trkpt><trkpt lat="42.27325375148684" lon="12.69868788950688"><ele>389.20000000000005</ele><time>2026-04-18T09:25:37Z</time></trkpt><trkpt lat="42.273289509448205" lon="12.698809567315626"><ele>391.0</ele><time>2026-04-18T09:25:38Z</time></trkpt><trkpt lat="42.2733117971179" lon="12.698952752285361"><ele>392.75</ele><time>2026-04-18T09:25:39Z</time></trkpt><trkpt lat="42.273345803715365" lon="12.699126331431641"><ele>394.5</ele><time>2026-04-18T09:25:40Z</time></trkpt><trkpt lat="42.27335896012236" lon="12.699326420801528"><ele>396.25</ele><time>2026-04-18T09:25:41Z</time></trkpt><trkpt lat="42.27336685577485" lon="12.699513886670498"><ele>398.0</ele><time>2026-04-18T09:25:42Z</time></trkpt><trkpt lat="42.27334253599111" lon="12.699666122412307"><ele>400.75</ele><time>2026-04-18T09:25:43Z</time></trkpt><trkpt lat="42.273291354623616" lon="12.699818891929848"><ele>403.5</ele><time>2026-04-18T09:25:44Z</time></trkpt><trkpt lat="42.273228886157284" lon="12.700007874172835"><ele>406.25</ele><time>2026-04-18T09:25:45Z</time></trkpt><trkpt lat="42.27317387490283" lon="12.700211808189545"><ele>409.0</ele><time>2026-04-18T09:25:46Z</time></trkpt><trkpt lat="42.27313939851528" lon="12.700361961353332"><ele>410.5</ele><time>2026-04-18T09:25:47Z</time></trkpt><trkpt lat="42.273140602845736" lon="12.700512572159509"><ele>412.0</ele><time>2026-04-18T09:25:48Z</time></trkpt><trkpt lat="42.273171262034936" lon="12.70065801352662"><ele>413.5</ele><time>2026-04-18T09:25:49Z</time></trkpt><trkpt lat="42.273218527532215" lon="12.700811074980672"><ele>415.0</ele><time>2026-04-18T09:25:50Z</time></trkpt><trkpt lat="42.27326184082095" lon="12.70095998695637"><ele>414.0</ele><time>2026-04-18T09:25:51Z</time></trkpt><trkpt lat="42.2732956485053" lon="12.701106485633868"><ele>413.0</ele><time>2026-04-18T09:25:52Z</time></trkpt><trkpt lat="42.27334123434435" lon="12.701229781952136"><ele>412.0</ele><time>2026-04-18T09:25:53Z</time></trkpt><trkpt lat="42.27341421512369" lon="12.70130599897098"><ele>411.0</ele><time>2026-04-18T09:25:54Z</time></trkpt><trkpt lat="42.27351081364498" lon="12.7013689986896"><ele>410.0</ele><time>2026-04-18T09:25:55Z</time></trkpt><trkpt lat="42.27363345467996" lon="12.701411040679716"><ele>410.0</ele><time>2026-04-18T09:25:56Z</time></trkpt><trkpt lat="42.273773315244" lon="12.701468286690677"><ele>410.0</ele><time>2026-04-18T09:25:57Z</time></trkpt><trkpt lat="42.27389937992777" lon="12.701521130660957"><ele>410.0</ele><time>2026-04-18T09:25:58Z</time></trkpt><trkpt lat="42.27402434104291" lon="12.701583178592617"><ele>410.0</ele><time>2026-04-18T09:25:59Z</time></trkpt><trkpt lat="42.27414598884009" lon="12.701626458669269"><ele>414.5</ele><time>2026-04-18T09:26:00Z</time></trkpt><trkpt lat="42.27425725725027" lon="12.701623308718265"><ele>419.0</ele><time>2026-04-18T09:26:01Z</time></trkpt><trkpt lat="42.27437925494921" lon="12.701659614890122"><ele>423.5</ele><time>2026-04-18T09:26:02Z</time></trkpt><trkpt lat="42.27449741581971" lon="12.701716619074372"><ele>428.0</ele><time>2026-04-18T09:26:03Z</time></trkpt><trkpt lat="42.274604802201324" lon="12.701794556954884"><ele>428.0</ele><time>2026-04-18T09:26:04Z</time></trkpt><trkpt lat="42.27470418660056" lon="12.701885154584925"><ele>428.0</ele><time>2026-04-18T09:26:05Z</time></trkpt><trkpt lat="42.27480949644057" lon="12.701970062187451"><ele>428.0</ele><time>2026-04-18T09:26:06Z</time></trkpt><trkpt lat="42.27491366619206" lon="12.702057087643398"><ele>428.0</ele><time>2026-04-18T09:26:07Z</time></trkpt><trkpt lat="42.27500746726145" lon="12.702150307476412"><ele>430.4</ele><time>2026-04-18T09:26:08Z</time></trkpt><trkpt lat="42.275086097306705" lon="12.702225671365651"><ele>432.79999999999995</ele><time>2026-04-18T09:26:09Z</time></trkpt><trkpt lat="42.275160634861116" lon="12.702307333788742"><ele>435.2</ele><time>2026-04-18T09:26:10Z</time></trkpt><trkpt lat="42.27522209737158" lon="12.70241151882213"><ele>437.6</ele><time>2026-04-18T09:26:11Z</time></trkpt><trkpt lat="42.27526557314845" lon="12.702554061963946"><ele>440.0</ele><time>2026-04-18T09:26:12Z</time></trkpt><trkpt lat="42.27530350865362" lon="12.702724056909755"><ele>441.0</ele><time>2026-04-18T09:26:13Z</time></trkpt><trkpt lat="42.27535605302597" lon="12.702921034105234"><ele>442.0</ele><time>2026-04-18T09:26:14Z</time></trkpt><trkpt lat="42.275429372958335" lon="12.703105990689068"><ele>443.0</ele><time>2026-04-18T09:26:15Z</time></trkpt><trkpt lat="42.275479147876496" lon="12.703241150010893"><ele>444.0</ele><time>2026-04-18T09:26:16Z</time></trkpt><trkpt lat="42.27552286757786" lon="12.703356467819024"><ele>444.0</ele><time>2026-04-18T09:26:17Z</time></trkpt><trkpt lat="42.275596809578076" lon="12.703471308139184"><ele>444.0</ele><time>2026-04-18T09:26:18Z</time></trkpt><trkpt lat="42.27568808952403" lon="12.703590742176896"><ele>444.0</ele><time>2026-04-18T09:26:19Z</time></trkpt><trkpt lat="42.275792985095464" lon="12.70371535316106"><ele>444.0</ele><time>2026-04-18T09:26:20Z</time></trkpt><trkpt lat="42.275905371198476" lon="12.703835240344551"><ele>446.5</ele><time>2026-04-18T09:26:21Z</time></trkpt><trkpt lat="42.2760085385727" lon="12.703941573336742"><ele>449.0</ele><time>2026-04-18T09:26:22Z</time></trkpt><trkpt lat="42.27611747837507" lon="12.704055351947028"><ele>451.5</ele><time>2026-04-18T09:26:23Z</time></trkpt><trkpt lat="42.2762318832726" lon="12.704180411441136"><ele>454.0</ele><time>2026-04-18T09:26:24Z</time></trkpt><trkpt lat="42.27635880390861" lon="12.70431771067671"><ele>458.0</ele><time>2026-04-18T09:26:25Z</time></trkpt><trkpt lat="42.2764794559453" lon="12.704442087336473"><ele>462.0</ele><time>2026-04-18T09:26:26Z</time></trkpt><trkpt lat="42.2765840416947" lon="12.704555519406675"><ele>466.0</ele><time>2026-04-18T09:26:27Z</time></trkpt><trkpt lat="42.27668289322775" lon="12.704662380862645"><ele>470.0</ele><time>2026-04-18T09:26:28Z</time></trkpt><trkpt lat="42.27677970276365" lon="12.70477082961761"><ele>470.0</ele><time>2026-04-18T09:26:29Z</time></trkpt><trkpt lat="42.276864902169685" lon="12.704870238183657"><ele>470.0</ele><time>2026-04-18T09:26:30Z</time></trkpt><trkpt lat="42.276945949981716" lon="12.704973595287237"><ele>470.0</ele><time>2026-04-18T09:26:31Z</time></trkpt><trkpt lat="42.277031977810665" lon="12.705080023692199"><ele>470.0</ele><time>2026-04-18T09:26:32Z</time></trkpt><trkpt lat="42.27710928573656" lon="12.705223675407252"><ele>475.5</ele><time>2026-04-18T09:26:33Z</time></trkpt><trkpt lat="42.27719446428131" lon="12.705372241802332"><ele>481.0</ele><time>2026-04-18T09:26:34Z</time></trkpt><trkpt lat="42.27725671311016" lon="12.705510819419025"><ele>486.5</ele><time>2026-04-18T09:26:35Z</time></trkpt><trkpt lat="42.2773166796461" lon="12.7056628619374"><ele>492.0</ele><time>2026-04-18T09:26:36Z</time></trkpt><trkpt lat="42.27737849001265" lon="12.705822785916082"><ele>493.0</ele><time>2026-04-18T09:26:37Z</time></trkpt><trkpt lat="42.27745125547295" lon="12.705969257613557"><ele>494.00000000000006</ele><time>2026-04-18T09:26:38Z</time></trkpt><trkpt lat="42.27751199967888" lon="12.706108401314077"><ele>495.00000000000006</ele><time>2026-04-18T09:26:39Z</time></trkpt><trkpt lat="42.277568354654235" lon="12.706218933724884"><ele>496.0</ele><time>2026-04-18T09:26:40Z</time></trkpt><trkpt lat="42.27760239033838" lon="12.706340825688248"><ele>497.0</ele><time>2026-04-18T09:26:41Z</time></trkpt><trkpt lat="42.277635792014294" lon="12.706440159703053"><ele>498.99999999999994</ele><time>2026-04-18T09:26:43Z</time></trkpt><trkpt lat="42.27762333241673" lon="12.706551599488288"><ele>501.0</ele><time>2026-04-18T09:26:46Z</time></trkpt><trkpt lat="42.27754889651903" lon="12.706552448829747"><ele>503.0</ele><time>2026-04-18T09:26:48Z</time></trkpt><trkpt lat="42.27747570487171" lon="12.706506943802381"><ele>505.0</ele><time>2026-04-18T09:26:58Z</time></trkpt><trkpt lat="42.27735967126812" lon="12.70642683950055"><ele>506.99999999999994</ele><time>2026-04-18T09:27:00Z</time></trkpt><trkpt lat="42.277282801701574" lon="12.706397362781123"><ele>509.0</ele><time>2026-04-18T09:27:01Z</time></trkpt><trkpt lat="42.27719373770533" lon="12.70638245799934"><ele>510.66666666666663</ele><time>2026-04-18T09:27:02Z</time></trkpt><trkpt lat="42.27711665217972" lon="12.706391489714047"><ele>512.3333333333333</ele><time>2026-04-18T09:27:03Z</time></trkpt><trkpt lat="42.277045261325426" lon="12.706410929418364"><ele>514.0</ele><time>2026-04-18T09:27:04Z</time></trkpt><trkpt lat="42.276984374801486" lon="12.706435842427746"><ele>515.6666666666666</ele><time>2026-04-18T09:27:05Z</time></trkpt><trkpt lat="42.27686450096886" lon="12.7064334523017"><ele>517.3333333333334</ele><time>2026-04-18T09:27:07Z</time></trkpt><trkpt lat="42.27675645989334" lon="12.706438987634087"><ele>519.0</ele><time>2026-04-18T09:27:09Z</time></trkpt><trkpt lat="42.2766550222267" lon="12.706460715731104"><ele>519.0</ele><time>2026-04-18T09:27:11Z</time></trkpt><trkpt lat="42.276546553769975" lon="12.706464760837708"><ele>519.0</ele><time>2026-04-18T09:27:14Z</time></trkpt><trkpt lat="42.27647694258638" lon="12.706468145033266"><ele>519.0</ele><time>2026-04-18T09:27:15Z</time></trkpt><trkpt lat="42.27637826635275" lon="12.706495018658183"><ele>519.0</ele><time>2026-04-18T09:27:17Z</time></trkpt><trkpt lat="42.27627889084946" lon="12.706511623194059"><ele>519.0</ele><time>2026-04-18T09:27:19Z</time></trkpt><trkpt lat="42.27618408923458" lon="12.706546614418418"><ele>518.8</ele><time>2026-04-18T09:27:21Z</time></trkpt><trkpt lat="42.27609319097113" lon="12.706577852188234"><ele>518.5999999999999</ele><time>2026-04-18T09:27:23Z</time></trkpt><trkpt lat="42.27597411390694" lon="12.706630599507564"><ele>518.4</ele><time>2026-04-18T09:27:25Z</time></trkpt><trkpt lat="42.27586927213745" lon="12.706686294142965"><ele>518.1999999999999</ele><time>2026-04-18T09:27:27Z</time></trkpt><trkpt lat="42.27580919083693" lon="12.706719616018447"><ele>518.0</ele><time>2026-04-18T09:27:28Z</time></trkpt><trkpt lat="42.275746002161" lon="12.706760315122335"><ele>518.0</ele><time>2026-04-18T09:27:29Z</time></trkpt><trkpt lat="42.275696332478866" lon="12.706820576697874"><ele>518.0</ele><time>2026-04-18T09:27:30Z</time></trkpt><trkpt lat="42.275601354543554" lon="12.706885760177544"><ele>518.0</ele><time>2026-04-18T09:27:32Z</time></trkpt><trkpt lat="42.27550020450305" lon="12.706946847106627"><ele>518.0</ele><time>2026-04-18T09:27:34Z</time></trkpt><trkpt lat="42.275430739711354" lon="12.70698861005702"><ele>518.0</ele><time>2026-04-18T09:27:35Z</time></trkpt><trkpt lat="42.27537990090717" lon="12.707051912169877"><ele>518.0</ele><time>2026-04-18T09:27:36Z</time></trkpt><trkpt lat="42.275301626949656" lon="12.707139162368637"><ele>522.1999999999999</ele><time>2026-04-18T09:27:38Z</time></trkpt><trkpt lat="42.2751768275564" lon="12.707176831507788"><ele>526.4</ele><time>2026-04-18T09:27:40Z</time></trkpt><trkpt lat="42.27509533413212" lon="12.707203466351688"><ele>530.5999999999999</ele><time>2026-04-18T09:27:41Z</time></trkpt><trkpt lat="42.27502149203377" lon="12.707226102686974"><ele>534.8</ele><time>2026-04-18T09:27:42Z</time></trkpt><trkpt lat="42.27494511213492" lon="12.70725020613789"><ele>539.0</ele><time>2026-04-18T09:27:43Z</time></trkpt><trkpt lat="42.274827597082314" lon="12.707325341536986"><ele>539.3333333333333</ele><time>2026-04-18T09:27:45Z</time></trkpt><trkpt lat="42.27474994167888" lon="12.707342773858851"><ele>539.6666666666666</ele><time>2026-04-18T09:27:46Z</time></trkpt><trkpt lat="42.274673166921424" lon="12.707385327296103"><ele>540.0</ele><time>2026-04-18T09:27:47Z</time></trkpt><trkpt lat="42.274596911565716" lon="12.707424076306642"><ele>540.3333333333334</ele><time>2026-04-18T09:27:48Z</time></trkpt><trkpt lat="42.27448751249155" lon="12.70746766179412"><ele>540.6666666666667</ele><time>2026-04-18T09:27:50Z</time></trkpt><trkpt lat="42.274421373548265" lon="12.707486109568151"><ele>541.0</ele><time>2026-04-18T09:27:51Z</time></trkpt><trkpt lat="42.2743468457765" lon="12.7075027525684"><ele>541.0</ele><time>2026-04-18T09:27:52Z</time></trkpt><trkpt lat="42.274268477369944" lon="12.707516099074356"><ele>541.0</ele><time>2026-04-18T09:27:53Z</time></trkpt><trkpt lat="42.2742002216048" lon="12.707518173580889"><ele>541.0</ele><time>2026-04-18T09:27:54Z</time></trkpt><trkpt lat="42.27408213992388" lon="12.707520276362002"><ele>541.0</ele><time>2026-04-18T09:27:56Z</time></trkpt><trkpt lat="42.27400549843114" lon="12.707499139787336"><ele>541.0</ele><time>2026-04-18T09:27:57Z</time></trkpt><trkpt lat="42.27393469193755" lon="12.707493894956244"><ele>541.0</ele><time>2026-04-18T09:27:58Z</time></trkpt><trkpt lat="42.273841203205905" lon="12.707448124088545"><ele>541.8571428571429</ele><time>2026-04-18T09:28:00Z</time></trkpt><trkpt lat="42.273774942481374" lon="12.707423224177326"><ele>542.7142857142858</ele><time>2026-04-18T09:28:01Z</time></trkpt><trkpt lat="42.27371164199082" lon="12.707399729020329"><ele>543.5714285714286</ele><time>2026-04-18T09:28:02Z</time></trkpt><trkpt lat="42.27363803616509" lon="12.707374090511523"><ele>544.4285714285714</ele><time>2026-04-18T09:28:03Z</time></trkpt><trkpt lat="42.27353429514422" lon="12.707372755556452"><ele>545.2857142857142</ele><time>2026-04-18T09:28:05Z</time></trkpt><trkpt lat="42.2734694135829" lon="12.707366316110141"><ele>546.1428571428571</ele><time>2026-04-18T09:28:06Z</time></trkpt><trkpt lat="42.273404342927655" lon="12.707348205408557"><ele>547.0</ele><time>2026-04-18T09:28:07Z</time></trkpt><trkpt lat="42.27333061064385" lon="12.707365901379426"><ele>547.0</ele><time>2026-04-18T09:28:08Z</time></trkpt><trkpt lat="42.273257109700225" lon="12.7074141543768"><ele>547.0</ele><time>2026-04-18T09:28:09Z</time></trkpt><trkpt lat="42.27318719846408" lon="12.707515362460198"><ele>547.0</ele><time>2026-04-18T09:28:10Z</time></trkpt><trkpt lat="42.27317286844316" lon="12.707651578644928"><ele>547.0</ele><time>2026-04-18T09:28:11Z</time></trkpt><trkpt lat="42.27316227165023" lon="12.70774959114041"><ele>547.0</ele><time>2026-04-18T09:28:12Z</time></trkpt><trkpt lat="42.27316129574465" lon="12.707837773077568"><ele>547.0</ele><time>2026-04-18T09:28:13Z</time></trkpt><trkpt lat="42.273160581702804" lon="12.707996391894769"><ele>548.5</ele><time>2026-04-18T09:28:15Z</time></trkpt><trkpt lat="42.27315390437517" lon="12.708082348650523"><ele>550.0</ele><time>2026-04-18T09:28:16Z</time></trkpt><trkpt lat="42.27313683793241" lon="12.708170057404784"><ele>551.5</ele><time>2026-04-18T09:28:17Z</time></trkpt><trkpt lat="42.273158298242585" lon="12.70827345136114"><ele>553.0</ele><time>2026-04-18T09:28:18Z</time></trkpt><trkpt lat="42.2731618080722" lon="12.708426758233514"><ele>554.5</ele><time>2026-04-18T09:28:20Z</time></trkpt><trkpt lat="42.27316410964472" lon="12.708559035522745"><ele>556.0</ele><time>2026-04-18T09:28:22Z</time></trkpt><trkpt lat="42.27318188703756" lon="12.708705268834168"><ele>557.2</ele><time>2026-04-18T09:28:24Z</time></trkpt><trkpt lat="42.273189306791544" lon="12.708790545467576"><ele>558.4000000000001</ele><time>2026-04-18T09:28:26Z</time></trkpt><trkpt lat="42.27319842364621" lon="12.708965154828114"><ele>559.6</ele><time>2026-04-18T09:28:28Z</time></trkpt><trkpt lat="42.27319434658726" lon="12.709050896207621"><ele>560.8000000000001</ele><time>2026-04-18T09:28:29Z</time></trkpt><trkpt lat="42.27319252338623" lon="12.709172673251604"><ele>562.0</ele><time>2026-04-18T09:28:31Z</time></trkpt><trkpt lat="42.27319537688696" lon="12.709343281743802"><ele>562.8000000000001</ele><time>2026-04-18T09:28:33Z</time></trkpt><trkpt lat="42.27319117366175" lon="12.70945887472655"><ele>563.6</ele><time>2026-04-18T09:28:34Z</time></trkpt><trkpt lat="42.27319261488891" lon="12.709579101803785"><ele>564.4000000000001</ele><time>2026-04-18T09:28:35Z</time></trkpt><trkpt lat="42.27319420296839" lon="12.709711579265443"><ele>565.2</ele><time>2026-04-18T09:28:36Z</time></trkpt><trkpt lat="42.273197648492314" lon="12.709872191255458"><ele>566.0</ele><time>2026-04-18T09:28:37Z</time></trkpt><trkpt lat="42.27320484238585" lon="12.710012346445982"><ele>566.0</ele><time>2026-04-18T09:28:38Z</time></trkpt><trkpt lat="42.2731860851035" lon="12.710135004417802"><ele>566.0</ele><time>2026-04-18T09:28:39Z</time></trkpt><trkpt lat="42.27322120140343" lon="12.710238558561521"><ele>566.0</ele><time>2026-04-18T09:28:40Z</time></trkpt><trkpt lat="42.273256950801844" lon="12.710324997215707"><ele>566.0</ele><time>2026-04-18T09:28:41Z</time></trkpt><trkpt lat="42.273274365898644" lon="12.710412577408992"><ele>566.0</ele><time>2026-04-18T09:28:42Z</time></trkpt><trkpt lat="42.27329556475822" lon="12.71051997084851"><ele>566.0</ele><time>2026-04-18T09:28:43Z</time></trkpt><trkpt lat="42.27332842481089" lon="12.710625652834038"><ele>565.8</ele><time>2026-04-18T09:28:44Z</time></trkpt><trkpt lat="42.273346725916404" lon="12.710715770920245"><ele>565.6</ele><time>2026-04-18T09:28:45Z</time></trkpt><trkpt lat="42.27339881950591" lon="12.710843277054623"><ele>565.4</ele><time>2026-04-18T09:28:47Z</time></trkpt><trkpt lat="42.27342061127509" lon="12.710973453787668"><ele>565.2</ele><time>2026-04-18T09:28:49Z</time></trkpt><trkpt lat="42.27347269382287" lon="12.711071371676367"><ele>565.0</ele><time>2026-04-18T09:28:51Z</time></trkpt><trkpt lat="42.27351801291056" lon="12.711186091474747"><ele>564.2</ele><time>2026-04-18T09:28:53Z</time></trkpt><trkpt lat="42.2735485586156" lon="12.711345898686941"><ele>563.4</ele><time>2026-04-18T09:28:55Z</time></trkpt><trkpt lat="42.2735680972448" lon="12.711428534121946"><ele>562.6</ele><time>2026-04-18T09:28:56Z</time></trkpt><trkpt lat="42.27358477624829" lon="12.711547111141558"><ele>561.8</ele><time>2026-04-18T09:28:58Z</time></trkpt><trkpt lat="42.27363759927418" lon="12.711658445936363"><ele>561.0</ele><time>2026-04-18T09:29:00Z</time></trkpt><trkpt lat="42.27364676181439" lon="12.711789048637092"><ele>561.0</ele><time>2026-04-18T09:29:02Z</time></trkpt><trkpt lat="42.273668261291846" lon="12.711877504267557"><ele>561.0</ele><time>2026-04-18T09:29:03Z</time></trkpt><trkpt lat="42.273680715619555" lon="12.712038731050372"><ele>561.0</ele><time>2026-04-18T09:29:05Z</time></trkpt><trkpt lat="42.2736953043662" lon="12.71217278165494"><ele>561.0</ele><time>2026-04-18T09:29:07Z</time></trkpt><trkpt lat="42.27374225903029" lon="12.712301537018245"><ele>561.0</ele><time>2026-04-18T09:29:09Z</time></trkpt><trkpt lat="42.27379001930823" lon="12.712428090151716"><ele>560.8</ele><time>2026-04-18T09:29:11Z</time></trkpt><trkpt lat="42.273827229927086" lon="12.712570523683455"><ele>560.6</ele><time>2026-04-18T09:29:13Z</time></trkpt><trkpt lat="42.2738455021189" lon="12.712714809819959"><ele>560.4</ele><time>2026-04-18T09:29:15Z</time></trkpt><trkpt lat="42.27387246290452" lon="12.71283541315549"><ele>560.2</ele><time>2026-04-18T09:29:17Z</time></trkpt><trkpt lat="42.27390630507706" lon="12.71293604606344"><ele>560.0</ele><time>2026-04-18T09:29:19Z</time></trkpt><trkpt lat="42.27394526631051" lon="12.713040387176225"><ele>565.2</ele><time>2026-04-18T09:29:21Z</time></trkpt><trkpt lat="42.273970677235226" lon="12.713125417100583"><ele>570.4</ele><time>2026-04-18T09:29:22Z</time></trkpt><trkpt lat="42.274032374574446" lon="12.713273444131367"><ele>575.6</ele><time>2026-04-18T09:29:24Z</time></trkpt><trkpt lat="42.27409664399609" lon="12.713365090385045"><ele>580.8</ele><time>2026-04-18T09:29:25Z</time></trkpt><trkpt lat="42.274151340665995" lon="12.713448663969443"><ele>586.0</ele><time>2026-04-18T09:29:26Z</time></trkpt><trkpt lat="42.27420563785168" lon="12.713529858343106"><ele>583.4</ele><time>2026-04-18T09:29:27Z</time></trkpt><trkpt lat="42.27428320904788" lon="12.713598903225563"><ele>580.8</ele><time>2026-04-18T09:29:28Z</time></trkpt><trkpt lat="42.27434118569504" lon="12.71367266912786"><ele>578.1999999999999</ele><time>2026-04-18T09:29:29Z</time></trkpt><trkpt lat="42.27442620803653" lon="12.713746732309543"><ele>575.6</ele><time>2026-04-18T09:29:31Z</time></trkpt><trkpt lat="42.27456403161082" lon="12.713778878106732"><ele>573.0</ele><time>2026-04-18T09:29:33Z</time></trkpt><trkpt lat="42.27466166788446" lon="12.713827792322151"><ele>573.0</ele><time>2026-04-18T09:29:35Z</time></trkpt><trkpt lat="42.274754853843774" lon="12.713868130767263"><ele>573.0</ele><time>2026-04-18T09:29:37Z</time></trkpt><trkpt lat="42.274865660098605" lon="12.71389073031276"><ele>573.0</ele><time>2026-04-18T09:29:39Z</time></trkpt><trkpt lat="42.27493306212658" lon="12.71391952207285"><ele>573.0</ele><time>2026-04-18T09:29:40Z</time></trkpt><trkpt lat="42.275010710363475" lon="12.713915135382052"><ele>573.0</ele><time>2026-04-18T09:29:41Z</time></trkpt><trkpt lat="42.27507951427023" lon="12.713926241566265"><ele>573.0</ele><time>2026-04-18T09:29:42Z</time></trkpt><trkpt lat="42.27518294540418" lon="12.713941337708201"><ele>576.0</ele><time>2026-04-18T09:29:44Z</time></trkpt><trkpt lat="42.27532259320176" lon="12.71396093350966"><ele>579.0</ele><time>2026-04-18T09:29:46Z</time></trkpt><trkpt lat="42.27539893974698" lon="12.713962155916281"><ele>582.0</ele><time>2026-04-18T09:29:47Z</time></trkpt><trkpt lat="42.27549584975346" lon="12.713971921850156"><ele>585.0</ele><time>2026-04-18T09:29:48Z</time></trkpt><trkpt lat="42.27560517709519" lon="12.713976451107651"><ele>588.0</ele><time>2026-04-18T09:29:49Z</time></trkpt><trkpt lat="42.27568787783562" lon="12.7139653041002"><ele>590.0</ele><time>2026-04-18T09:29:50Z</time></trkpt><trkpt lat="42.27576613027903" lon="12.713986489689955"><ele>592.0</ele><time>2026-04-18T09:29:51Z</time></trkpt><trkpt lat="42.2758394103156" lon="12.714001966276422"><ele>594.0</ele><time>2026-04-18T09:29:52Z</time></trkpt><trkpt lat="42.275927767183695" lon="12.714015631592725"><ele>596.0</ele><time>2026-04-18T09:29:53Z</time></trkpt><trkpt lat="42.2760362130393" lon="12.714032940416256"><ele>598.0</ele><time>2026-04-18T09:29:54Z</time></trkpt><trkpt lat="42.27612737456148" lon="12.714033677109667"><ele>600.0</ele><time>2026-04-18T09:29:55Z</time></trkpt><trkpt lat="42.27621788777588" lon="12.714043503871347"><ele>600.0</ele><time>2026-04-18T09:29:56Z</time></trkpt><trkpt lat="42.27630639018194" lon="12.714058226693249"><ele>600.0</ele><time>2026-04-18T09:29:57Z</time></trkpt><trkpt lat="42.276410377428505" lon="12.714091125259753"><ele>600.0</ele><time>2026-04-18T09:29:58Z</time></trkpt><trkpt lat="42.27649653406601" lon="12.714131386307493"><ele>600.0</ele><time>2026-04-18T09:29:59Z</time></trkpt><trkpt lat="42.276577008823374" lon="12.71417580602112"><ele>600.0</ele><time>2026-04-18T09:30:00Z</time></trkpt><trkpt lat="42.276638603081985" lon="12.714204150938443"><ele>600.0</ele><time>2026-04-18T09:30:01Z</time></trkpt><trkpt lat="42.2767039133992" lon="12.71425193776258"><ele>601.5</ele><time>2026-04-18T09:30:02Z</time></trkpt><trkpt lat="42.2767689753673" lon="12.714282397530043"><ele>603.0</ele><time>2026-04-18T09:30:03Z</time></trkpt><trkpt lat="42.27683470069535" lon="12.714302029409803"><ele>604.5</ele><time>2026-04-18T09:30:04Z</time></trkpt><trkpt lat="42.27691557870366" lon="12.714371149850212"><ele>606.0</ele><time>2026-04-18T09:30:05Z</time></trkpt><trkpt lat="42.276980499273186" lon="12.714375878440888"><ele>607.5</ele><time>2026-04-18T09:30:06Z</time></trkpt><trkpt lat="42.27706721017351" lon="12.714394053612114"><ele>609.0</ele><time>2026-04-18T09:30:07Z</time></trkpt><trkpt lat="42.27716220987629" lon="12.714417438114712"><ele>609.8</ele><time>2026-04-18T09:30:08Z</time></trkpt><trkpt lat="42.27722132626585" lon="12.714453299206188"><ele>610.5999999999999</ele><time>2026-04-18T09:30:09Z</time></trkpt><trkpt lat="42.277303314948256" lon="12.71449297662715"><ele>611.4</ele><time>2026-04-18T09:30:10Z</time></trkpt><trkpt lat="42.27738259171381" lon="12.714539858634968"><ele>612.1999999999999</ele><time>2026-04-18T09:30:11Z</time></trkpt><trkpt lat="42.27747416535221" lon="12.714600823082964"><ele>613.0</ele><time>2026-04-18T09:30:12Z</time></trkpt><trkpt lat="42.27759207583777" lon="12.714664671430981"><ele>615.6</ele><time>2026-04-18T09:30:13Z</time></trkpt><trkpt lat="42.2776864230731" lon="12.714732545963123"><ele>618.1999999999999</ele><time>2026-04-18T09:30:14Z</time></trkpt><trkpt lat="42.27777566553945" lon="12.714787011224027"><ele>620.8</ele><time>2026-04-18T09:30:15Z</time></trkpt><trkpt lat="42.27785807605222" lon="12.714837676619387"><ele>623.4</ele><time>2026-04-18T09:30:16Z</time></trkpt><trkpt lat="42.27792804478183" lon="12.714890695627913"><ele>626.0</ele><time>2026-04-18T09:30:17Z</time></trkpt><trkpt lat="42.27804109968203" lon="12.714952900060755"><ele>627.5</ele><time>2026-04-18T09:30:19Z</time></trkpt><trkpt lat="42.27812292639693" lon="12.714992471184688"><ele>629.0</ele><time>2026-04-18T09:30:21Z</time></trkpt><trkpt lat="42.2782109376233" lon="12.715024632181798"><ele>630.5</ele><time>2026-04-18T09:30:23Z</time></trkpt><trkpt lat="42.2782810668512" lon="12.71504007057594"><ele>632.0</ele><time>2026-04-18T09:30:24Z</time></trkpt><trkpt lat="42.2783752878769" lon="12.715052616925506"><ele>633.5</ele><time>2026-04-18T09:30:26Z</time></trkpt><trkpt lat="42.278477094276965" lon="12.71504900111568"><ele>635.0</ele><time>2026-04-18T09:30:28Z</time></trkpt><trkpt lat="42.278565865420155" lon="12.715038346809694"><ele>635.0</ele><time>2026-04-18T09:30:31Z</time></trkpt><trkpt lat="42.27865946787032" lon="12.715021381762128"><ele>635.0</ele><time>2026-04-18T09:30:33Z</time></trkpt><trkpt lat="42.27877829495483" lon="12.714971890070192"><ele>635.0</ele><time>2026-04-18T09:30:35Z</time></trkpt><trkpt lat="42.27888417525884" lon="12.714906549810001"><ele>635.0</ele><time>2026-04-18T09:30:37Z</time></trkpt><trkpt lat="42.27894764117721" lon="12.714911899565047"><ele>635.0</ele><time>2026-04-18T09:30:38Z</time></trkpt><trkpt lat="42.279015617594524" lon="12.714914785782618"><ele>636.2</ele><time>2026-04-18T09:30:39Z</time></trkpt><trkpt lat="42.27911387642272" lon="12.71494288971713"><ele>637.4</ele><time>2026-04-18T09:30:41Z</time></trkpt><trkpt lat="42.279212874412906" lon="12.714981333723225"><ele>638.5999999999999</ele><time>2026-04-18T09:30:43Z</time></trkpt><trkpt lat="42.27929767985265" lon="12.715026184136622"><ele>639.8</ele><time>2026-04-18T09:30:45Z</time></trkpt><trkpt lat="42.279444979585456" lon="12.715071188003526"><ele>641.0</ele><time>2026-04-18T09:30:47Z</time></trkpt><trkpt lat="42.27952836201279" lon="12.715095025563228"><ele>641.0</ele><time>2026-04-18T09:30:48Z</time></trkpt><trkpt lat="42.27960373661492" lon="12.715115401824175"><ele>641.0</ele><time>2026-04-18T09:30:49Z</time></trkpt><trkpt lat="42.279678714516365" lon="12.715142559181539"><ele>641.0</ele><time>2026-04-18T09:30:50Z</time></trkpt><trkpt lat="42.27975518305219" lon="12.715175678223247"><ele>641.0</ele><time>2026-04-18T09:30:51Z</time></trkpt><trkpt lat="42.27988552943838" lon="12.71522807487242"><ele>641.0</ele><time>2026-04-18T09:30:53Z</time></trkpt><trkpt lat="42.27995859270616" lon="12.71524649853816"><ele>641.0</ele><time>2026-04-18T09:30:54Z</time></trkpt><trkpt lat="42.28003289461748" lon="12.71528553140435"><ele>645.8</ele><time>2026-04-18T09:30:55Z</time></trkpt><trkpt lat="42.28013749019818" lon="12.715314862214374"><ele>650.5999999999999</ele><time>2026-04-18T09:30:56Z</time></trkpt><trkpt lat="42.280247293566134" lon="12.715350518800406"><ele>655.4</ele><time>2026-04-18T09:30:57Z</time></trkpt><trkpt lat="42.28034446719621" lon="12.715386574833184"><ele>660.2</ele><time>2026-04-18T09:30:58Z</time></trkpt><trkpt lat="42.28043690410001" lon="12.715443245272711"><ele>665.0</ele><time>2026-04-18T09:30:59Z</time></trkpt><trkpt lat="42.28054237057626" lon="12.71545640756545"><ele>662.4</ele><time>2026-04-18T09:31:00Z</time></trkpt><trkpt lat="42.280645084518724" lon="12.715481615637025"><ele>659.8</ele><time>2026-04-18T09:31:01Z</time></trkpt><trkpt lat="42.28074296785805" lon="12.71549368847701"><ele>657.2</ele><time>2026-04-18T09:31:02Z</time></trkpt><trkpt lat="42.280815983727805" lon="12.715527265582848"><ele>654.6</ele><time>2026-04-18T09:31:03Z</time></trkpt><trkpt lat="42.2808995182079" lon="12.715581449928301"><ele>652.0</ele><time>2026-04-18T09:31:04Z</time></trkpt><trkpt lat="42.28096883271086" lon="12.71566931464142"><ele>652.0</ele><time>2026-04-18T09:31:05Z</time></trkpt><trkpt lat="42.28103758403627" lon="12.715773760232496"><ele>652.0</ele><time>2026-04-18T09:31:06Z</time></trkpt><trkpt lat="42.28110161942755" lon="12.715899123751266"><ele>652.0</ele><time>2026-04-18T09:31:07Z</time></trkpt><trkpt lat="42.28115546450214" lon="12.716035763350051"><ele>652.0</ele><time>2026-04-18T09:31:08Z</time></trkpt><trkpt lat="42.28118535949413" lon="12.716157097070889"><ele>652.0</ele><time>2026-04-18T09:31:09Z</time></trkpt><trkpt lat="42.281211042531915" lon="12.716291501580317"><ele>655.3333333333334</ele><time>2026-04-18T09:31:10Z</time></trkpt><trkpt lat="42.281236081998266" lon="12.716425921354313"><ele>658.6666666666667</ele><time>2026-04-18T09:31:11Z</time></trkpt><trkpt lat="42.28127604427918" lon="12.716533286643037"><ele>662.0</ele><time>2026-04-18T09:31:12Z</time></trkpt><trkpt lat="42.28130319559217" lon="12.71663669999044"><ele>665.3333333333334</ele><time>2026-04-18T09:31:13Z</time></trkpt><trkpt lat="42.281328385300405" lon="12.716739755895803"><ele>668.6666666666666</ele><time>2026-04-18T09:31:14Z</time></trkpt><trkpt lat="42.28136235141284" lon="12.716851408090886"><ele>672.0</ele><time>2026-04-18T09:31:15Z</time></trkpt><trkpt lat="42.2813787861186" lon="12.716972938747416"><ele>672.4000000000001</ele><time>2026-04-18T09:31:16Z</time></trkpt><trkpt lat="42.28140483123479" lon="12.717092500692639"><ele>672.8000000000001</ele><time>2026-04-18T09:31:17Z</time></trkpt><trkpt lat="42.28143225406397" lon="12.71719562056111"><ele>673.2</ele><time>2026-04-18T09:31:18Z</time></trkpt><trkpt lat="42.28145051033957" lon="12.717278890931182"><ele>673.6</ele><time>2026-04-18T09:31:19Z</time></trkpt><trkpt lat="42.281497591334706" lon="12.717430929713688"><ele>674.0</ele><time>2026-04-18T09:31:20Z</time></trkpt><trkpt lat="42.28154284406994" lon="12.71757358959984"><ele>671.0</ele><time>2026-04-18T09:31:21Z</time></trkpt><trkpt lat="42.28159100873068" lon="12.71769578533558"><ele>668.0</ele><time>2026-04-18T09:31:22Z</time></trkpt><trkpt lat="42.281635578666695" lon="12.717809108912446"><ele>665.0</ele><time>2026-04-18T09:31:23Z</time></trkpt><trkpt lat="42.28169387827677" lon="12.717900224887565"><ele>662.0</ele><time>2026-04-18T09:31:24Z</time></trkpt><trkpt lat="42.28175583741797" lon="12.717967921623158"><ele>659.0</ele><time>2026-04-18T09:31:25Z</time></trkpt><trkpt lat="42.281853257485615" lon="12.718048823468013"><ele>659.0</ele><time>2026-04-18T09:31:26Z</time></trkpt><trkpt lat="42.28194457625764" lon="12.71810527812688"><ele>659.0</ele><time>2026-04-18T09:31:27Z</time></trkpt><trkpt lat="42.28205378934543" lon="12.718110956015085"><ele>659.0</ele><time>2026-04-18T09:31:28Z</time></trkpt><trkpt lat="42.282133757561475" lon="12.718155591458714"><ele>659.0</ele><time>2026-04-18T09:31:29Z</time></trkpt><trkpt lat="42.282228371751025" lon="12.718162073618624"><ele>659.0</ele><time>2026-04-18T09:31:30Z</time></trkpt><trkpt lat="42.28233783527767" lon="12.718198754835852"><ele>658.2</ele><time>2026-04-18T09:31:31Z</time></trkpt><trkpt lat="42.2824546460228" lon="12.71822176012235"><ele>657.4000000000001</ele><time>2026-04-18T09:31:32Z</time></trkpt><trkpt lat="42.28255067574655" lon="12.718260452680061"><ele>656.6</ele><time>2026-04-18T09:31:33Z</time></trkpt><trkpt lat="42.28264266409612" lon="12.718299597999334"><ele>655.8</ele><time>2026-04-18T09:31:34Z</time></trkpt><trkpt lat="42.282715821366466" lon="12.718349761566595"><ele>655.0</ele><time>2026-04-18T09:31:35Z</time></trkpt><trkpt lat="42.282768609336166" lon="12.718412511783654"><ele>655.0</ele><time>2026-04-18T09:31:36Z</time></trkpt><trkpt lat="42.28283850459513" lon="12.71848951890421"><ele>655.0</ele><time>2026-04-18T09:31:37Z</time></trkpt><trkpt lat="42.282898065482684" lon="12.71856471047467"><ele>655.0</ele><time>2026-04-18T09:31:38Z</time></trkpt><trkpt lat="42.282968360146576" lon="12.718615185410505"><ele>655.0</ele><time>2026-04-18T09:31:39Z</time></trkpt><trkpt lat="42.28303069700979" lon="12.718730195429849"><ele>655.0</ele><time>2026-04-18T09:31:41Z</time></trkpt><trkpt lat="42.28313302558009" lon="12.718830456661681"><ele>653.6666666666667</ele><time>2026-04-18T09:31:43Z</time></trkpt><trkpt lat="42.28319125856801" lon="12.718883070154515"><ele>652.3333333333334</ele><time>2026-04-18T09:31:44Z</time></trkpt><trkpt lat="42.28323619899752" lon="12.71896565187654"><ele>651.0</ele><time>2026-04-18T09:31:45Z</time></trkpt><trkpt lat="42.283289842549756" lon="12.719019030029655"><ele>649.6666666666666</ele><time>2026-04-18T09:31:46Z</time></trkpt><trkpt lat="42.28336102931706" lon="12.719030588320258"><ele>648.3333333333333</ele><time>2026-04-18T09:31:47Z</time></trkpt><trkpt lat="42.28343318187656" lon="12.719075500632671"><ele>647.0</ele><time>2026-04-18T09:31:48Z</time></trkpt><trkpt lat="42.28351862997717" lon="12.719101131420068"><ele>647.0</ele><time>2026-04-18T09:31:49Z</time></trkpt><trkpt lat="42.28360089823056" lon="12.71911460252811"><ele>647.0</ele><time>2026-04-18T09:31:50Z</time></trkpt><trkpt lat="42.283679553435704" lon="12.719207104690822"><ele>647.0</ele><time>2026-04-18T09:31:51Z</time></trkpt><trkpt lat="42.28374746250076" lon="12.719207881637821"><ele>647.0</ele><time>2026-04-18T09:31:53Z</time></trkpt><trkpt lat="42.28384195903593" lon="12.719236129074881"><ele>647.0</ele><time>2026-04-18T09:31:55Z</time></trkpt><trkpt lat="42.283932005456165" lon="12.719240377235977"><ele>647.0</ele><time>2026-04-18T09:31:56Z</time></trkpt><trkpt lat="42.28399732268626" lon="12.71926445535367"><ele>648.0</ele><time>2026-04-18T09:31:57Z</time></trkpt><trkpt lat="42.28409571173681" lon="12.719294149137657"><ele>649.0</ele><time>2026-04-18T09:31:58Z</time></trkpt><trkpt lat="42.28418098115594" lon="12.719327084749095"><ele>650.0</ele><time>2026-04-18T09:31:59Z</time></trkpt><trkpt lat="42.28425267317754" lon="12.719353760495514"><ele>651.0</ele><time>2026-04-18T09:32:00Z</time></trkpt><trkpt lat="42.28431772285891" lon="12.719373223444231"><ele>652.0</ele><time>2026-04-18T09:32:01Z</time></trkpt><trkpt lat="42.284389509754206" lon="12.719395035106034"><ele>653.0</ele><time>2026-04-18T09:32:02Z</time></trkpt><trkpt lat="42.28445286241601" lon="12.71940062944453"><ele>653.0</ele><time>2026-04-18T09:32:03Z</time></trkpt><trkpt lat="42.2845274096383" lon="12.7193819079847"><ele>653.0</ele><time>2026-04-18T09:32:04Z</time></trkpt><trkpt lat="42.28460870430047" lon="12.719391539070363"><ele>653.0</ele><time>2026-04-18T09:32:05Z</time></trkpt><trkpt lat="42.28470065608864" lon="12.719361731377703"><ele>653.0</ele><time>2026-04-18T09:32:06Z</time></trkpt><trkpt lat="42.284783124748586" lon="12.719294334503347"><ele>653.0</ele><time>2026-04-18T09:32:07Z</time></trkpt><trkpt lat="42.28485574904626" lon="12.719240569644747"><ele>653.0</ele><time>2026-04-18T09:32:08Z</time></trkpt><trkpt lat="42.28493690972792" lon="12.719199458407198"><ele>653.8</ele><time>2026-04-18T09:32:10Z</time></trkpt><trkpt lat="42.285011903790505" lon="12.71924117879184"><ele>654.5999999999999</ele><time>2026-04-18T09:32:14Z</time></trkpt><trkpt lat="42.28505556795987" lon="12.719451545697561"><ele>655.4000000000001</ele><time>2026-04-18T09:32:16Z</time></trkpt><trkpt lat="42.28508122498746" lon="12.719547522183996"><ele>656.2</ele><time>2026-04-18T09:32:17Z</time></trkpt><trkpt lat="42.28511995054102" lon="12.719617277460692"><ele>657.0</ele><time>2026-04-18T09:32:18Z</time></trkpt><trkpt lat="42.28515215593046" lon="12.719785331730147"><ele>654.0</ele><time>2026-04-18T09:32:20Z</time></trkpt><trkpt lat="42.28516827204753" lon="12.719879475356981"><ele>651.0</ele><time>2026-04-18T09:32:21Z</time></trkpt><trkpt lat="42.28520705455638" lon="12.71995285617061"><ele>648.0</ele><time>2026-04-18T09:32:22Z</time></trkpt><trkpt lat="42.28532822802115" lon="12.720040018711801"><ele>645.0</ele><time>2026-04-18T09:32:24Z</time></trkpt><trkpt lat="42.285452662159884" lon="12.720083130111728"><ele>642.0</ele><time>2026-04-18T09:32:26Z</time></trkpt><trkpt lat="42.28551802872173" lon="12.720125369014086"><ele>641.3333333333334</ele><time>2026-04-18T09:32:27Z</time></trkpt><trkpt lat="42.28561792267789" lon="12.720186219736355"><ele>640.6666666666666</ele><time>2026-04-18T09:32:29Z</time></trkpt><trkpt lat="42.28568318967297" lon="12.720214990483225"><ele>640.0</ele><time>2026-04-18T09:32:30Z</time></trkpt><trkpt lat="42.28576781567015" lon="12.720253331617556"><ele>639.3333333333333</ele><time>2026-04-18T09:32:31Z</time></trkpt><trkpt lat="42.28584886581392" lon="12.72028086121065"><ele>638.6666666666666</ele><time>2026-04-18T09:32:32Z</time></trkpt><trkpt lat="42.28593499077916" lon="12.720279501976082"><ele>638.0</ele><time>2026-04-18T09:32:33Z</time></trkpt><trkpt lat="42.28601143937602" lon="12.720321004775274"><ele>638.0</ele><time>2026-04-18T09:32:34Z</time></trkpt><trkpt lat="42.28609935711417" lon="12.720328694202589"><ele>638.0</ele><time>2026-04-18T09:32:35Z</time></trkpt><trkpt lat="42.286189233366706" lon="12.720326777179615"><ele>638.0</ele><time>2026-04-18T09:32:36Z</time></trkpt><trkpt lat="42.2862625701392" lon="12.72035943759545"><ele>638.0</ele><time>2026-04-18T09:32:37Z</time></trkpt><trkpt lat="42.28634640004279" lon="12.720376292460164"><ele>638.0</ele><time>2026-04-18T09:32:38Z</time></trkpt><trkpt lat="42.28644129535092" lon="12.720393000933457"><ele>638.0</ele><time>2026-04-18T09:32:39Z</time></trkpt><trkpt lat="42.28653113138459" lon="12.72040235080959"><ele>639.3333333333333</ele><time>2026-04-18T09:32:40Z</time></trkpt><trkpt lat="42.28662075974835" lon="12.720387793588342"><ele>640.6666666666666</ele><time>2026-04-18T09:32:41Z</time></trkpt><trkpt lat="42.28670623699739" lon="12.720400156655984"><ele>642.0</ele><time>2026-04-18T09:32:42Z</time></trkpt><trkpt lat="42.28678866934588" lon="12.720391750765936"><ele>643.3333333333334</ele><time>2026-04-18T09:32:43Z</time></trkpt><trkpt lat="42.2869104471339" lon="12.720366206065268"><ele>644.6666666666667</ele><time>2026-04-18T09:32:45Z</time></trkpt><trkpt lat="42.286975775799704" lon="12.720355454824913"><ele>646.0</ele><time>2026-04-18T09:32:46Z</time></trkpt><trkpt lat="42.28704373295384" lon="12.720367294686262"><ele>646.0</ele><time>2026-04-18T09:32:47Z</time></trkpt><trkpt lat="42.28718570155009" lon="12.720383003010792"><ele>646.0</ele><time>2026-04-18T09:32:49Z</time></trkpt><trkpt lat="42.28726743872299" lon="12.720374136108349"><ele>646.0</ele><time>2026-04-18T09:32:50Z</time></trkpt><trkpt lat="42.28738082054541" lon="12.720399688963136"><ele>646.0</ele><time>2026-04-18T09:32:52Z</time></trkpt><trkpt lat="42.287508562134406" lon="12.720416153064093"><ele>645.1999999999999</ele><time>2026-04-18T09:32:54Z</time></trkpt><trkpt lat="42.287637311824845" lon="12.720406285066527"><ele>644.4</ele><time>2026-04-18T09:32:56Z</time></trkpt><trkpt lat="42.28770972444448" lon="12.72041244151399"><ele>643.6</ele><time>2026-04-18T09:32:57Z</time></trkpt><trkpt lat="42.28780141512679" lon="12.720385029334109"><ele>642.8</ele><time>2026-04-18T09:32:59Z</time></trkpt><trkpt lat="42.28788879613762" lon="12.720350411239062"><ele>642.0</ele><time>2026-04-18T09:33:00Z</time></trkpt><trkpt lat="42.28797281301254" lon="12.720304146278426"><ele>642.0</ele><time>2026-04-18T09:33:03Z</time></trkpt><trkpt lat="42.288041048772776" lon="12.720244789633215"><ele>642.0</ele><time>2026-04-18T09:33:07Z</time></trkpt><trkpt lat="42.28808648725098" lon="12.720172468065382"><ele>642.0</ele><time>2026-04-18T09:33:09Z</time></trkpt><trkpt lat="42.288114982626624" lon="12.720058828412972"><ele>642.0</ele><time>2026-04-18T09:33:11Z</time></trkpt><trkpt lat="42.288155379564536" lon="12.719920836588079"><ele>642.0</ele><time>2026-04-18T09:33:14Z</time></trkpt><trkpt lat="42.288184741206656" lon="12.7198251053621"><ele>642.0</ele><time>2026-04-18T09:33:16Z</time></trkpt><trkpt lat="42.288220965473094" lon="12.719718089623845"><ele>643.8</ele><time>2026-04-18T09:33:18Z</time></trkpt><trkpt lat="42.28825215407338" lon="12.71962833360986"><ele>645.6</ele><time>2026-04-18T09:33:21Z</time></trkpt><trkpt lat="42.28835606697113" lon="12.719626427929937"><ele>647.4</ele><time>2026-04-18T09:33:26Z</time></trkpt><trkpt lat="42.28845263112987" lon="12.719746264495315"><ele>649.1999999999999</ele><time>2026-04-18T09:33:28Z</time></trkpt><trkpt lat="42.28850346327078" lon="12.719815923301704"><ele>651.0</ele><time>2026-04-18T09:33:29Z</time></trkpt><trkpt lat="42.28857199079581" lon="12.719936399854392"><ele>651.0</ele><time>2026-04-18T09:33:30Z</time></trkpt><trkpt lat="42.288616100532366" lon="12.720023601519564"><ele>651.0</ele><time>2026-04-18T09:33:31Z</time></trkpt><trkpt lat="42.28867354463901" lon="12.720160065695499"><ele>651.0</ele><time>2026-04-18T09:33:33Z</time></trkpt><trkpt lat="42.28873397835578" lon="12.720306220182207"><ele>651.0</ele><time>2026-04-18T09:33:35Z</time></trkpt><trkpt lat="42.2887748832746" lon="12.720390822568142"><ele>651.0</ele><time>2026-04-18T09:33:36Z</time></trkpt><trkpt lat="42.2888200669116" lon="12.720476045886542"><ele>649.6666666666666</ele><time>2026-04-18T09:33:37Z</time></trkpt><trkpt lat="42.288862390891076" lon="12.720552438026715"><ele>648.3333333333334</ele><time>2026-04-18T09:33:38Z</time></trkpt><trkpt lat="42.28890771538249" lon="12.720624714089311"><ele>647.0</ele><time>2026-04-18T09:33:39Z</time></trkpt><trkpt lat="42.28899876847661" lon="12.720722373541268"><ele>645.6666666666667</ele><time>2026-04-18T09:33:41Z</time></trkpt><trkpt lat="42.289081920556434" lon="12.720812641333904"><ele>644.3333333333334</ele><time>2026-04-18T09:33:43Z</time></trkpt><trkpt lat="42.28913126819082" lon="12.720865996705482"><ele>643.0</ele><time>2026-04-18T09:33:44Z</time></trkpt><trkpt lat="42.28924031695235" lon="12.720936572184783"><ele>643.0</ele><time>2026-04-18T09:33:46Z</time></trkpt><trkpt lat="42.28930038504156" lon="12.720962749356596"><ele>643.0</ele><time>2026-04-18T09:33:47Z</time></trkpt><trkpt lat="42.28937898228028" lon="12.720989730456889"><ele>643.0</ele><time>2026-04-18T09:33:48Z</time></trkpt><trkpt lat="42.289450959524956" lon="12.7210102231073"><ele>643.0</ele><time>2026-04-18T09:33:49Z</time></trkpt><trkpt lat="42.289559653381424" lon="12.721021247535614"><ele>643.0</ele><time>2026-04-18T09:33:51Z</time></trkpt><trkpt lat="42.28963614050378" lon="12.72107019251606"><ele>643.0</ele><time>2026-04-18T09:33:53Z</time></trkpt><trkpt lat="42.28973604233454" lon="12.721095235790704"><ele>642.8</ele><time>2026-04-18T09:33:55Z</time></trkpt><trkpt lat="42.28985747745044" lon="12.721115162093867"><ele>642.5999999999999</ele><time>2026-04-18T09:33:57Z</time></trkpt><trkpt lat="42.28996714993593" lon="12.721126457523782"><ele>642.4000000000001</ele><time>2026-04-18T09:33:59Z</time></trkpt><trkpt lat="42.290062548441625" lon="12.721178657431247"><ele>642.2</ele><time>2026-04-18T09:34:01Z</time></trkpt><trkpt lat="42.29016383895585" lon="12.721220255894423"><ele>642.0</ele><time>2026-04-18T09:34:03Z</time></trkpt><trkpt lat="42.29022959996328" lon="12.721242789928802"><ele>642.0</ele><time>2026-04-18T09:34:04Z</time></trkpt><trkpt lat="42.290326197287655" lon="12.721259463423586"><ele>642.0</ele><time>2026-04-18T09:34:06Z</time></trkpt><trkpt lat="42.290425115974756" lon="12.721289954632306"><ele>642.0</ele><time>2026-04-18T09:34:08Z</time></trkpt><trkpt lat="42.29051395146468" lon="12.721307648355983"><ele>642.0</ele><time>2026-04-18T09:34:10Z</time></trkpt><trkpt lat="42.290609003918725" lon="12.721323977385037"><ele>642.0</ele><time>2026-04-18T09:34:12Z</time></trkpt><trkpt lat="42.29067171526364" lon="12.721332305104323"><ele>642.0</ele><time>2026-04-18T09:34:13Z</time></trkpt><trkpt lat="42.29074127197415" lon="12.721338249370431"><ele>643.4000000000001</ele><time>2026-04-18T09:34:14Z</time></trkpt><trkpt lat="42.29081665475144" lon="12.721326898394791"><ele>644.8000000000001</ele><time>2026-04-18T09:34:15Z</time></trkpt><trkpt lat="42.29093575243926" lon="12.72134866215085"><ele>646.2</ele><time>2026-04-18T09:34:17Z</time></trkpt><trkpt lat="42.291025091058" lon="12.721347242228408"><ele>647.6</ele><time>2026-04-18T09:34:18Z</time></trkpt><trkpt lat="42.29110469015326" lon="12.721291445348806"><ele>649.0</ele><time>2026-04-18T09:34:19Z</time></trkpt><trkpt lat="42.29125444441432" lon="12.721245629517648"><ele>649.0</ele><time>2026-04-18T09:34:20Z</time></trkpt><trkpt lat="42.29141007899571" lon="12.721204931374718"><ele>649.0</ele><time>2026-04-18T09:34:21Z</time></trkpt><trkpt lat="42.291511176542166" lon="12.721154830022309"><ele>649.0</ele><time>2026-04-18T09:34:22Z</time></trkpt><trkpt lat="42.291586957772296" lon="12.721131080020204"><ele>649.0</ele><time>2026-04-18T09:34:23Z</time></trkpt><trkpt lat="42.29169954793076" lon="12.721109095656272"><ele>650.0</ele><time>2026-04-18T09:34:24Z</time></trkpt><trkpt lat="42.291798639339795" lon="12.721115703349636"><ele>651.0</ele><time>2026-04-18T09:34:25Z</time></trkpt><trkpt lat="42.291878413809705" lon="12.721112089967967"><ele>652.0</ele><time>2026-04-18T09:34:26Z</time></trkpt><trkpt lat="42.29202165668405" lon="12.721101109241445"><ele>653.0</ele><time>2026-04-18T09:34:28Z</time></trkpt><trkpt lat="42.292166425320616" lon="12.721108414073923"><ele>653.0</ele><time>2026-04-18T09:34:30Z</time></trkpt><trkpt lat="42.292252422389566" lon="12.721116839459318"><ele>653.0</ele><time>2026-04-18T09:34:31Z</time></trkpt><trkpt lat="42.292350123857815" lon="12.72112656126762"><ele>653.0</ele><time>2026-04-18T09:34:32Z</time></trkpt><trkpt lat="42.292447438747665" lon="12.721141973724437"><ele>653.0</ele><time>2026-04-18T09:34:33Z</time></trkpt><trkpt lat="42.29250928094261" lon="12.721162558162591"><ele>653.0</ele><time>2026-04-18T09:34:34Z</time></trkpt><trkpt lat="42.29257904494009" lon="12.721192919812284"><ele>653.0</ele><time>2026-04-18T09:34:35Z</time></trkpt><trkpt lat="42.29266027467596" lon="12.721273166651327"><ele>654.5999999999999</ele><time>2026-04-18T09:34:36Z</time></trkpt><trkpt lat="42.29272722984956" lon="12.721344094041156"><ele>656.1999999999999</ele><time>2026-04-18T09:34:37Z</time></trkpt><trkpt lat="42.292812289060095" lon="12.721444835387372"><ele>657.8</ele><time>2026-04-18T09:34:39Z</time></trkpt><trkpt lat="42.292825914007224" lon="12.721531033897211"><ele>659.4</ele><time>2026-04-18T09:34:40Z</time></trkpt><trkpt lat="42.29286437640569" lon="12.721615823068808"><ele>661.0</ele><time>2026-04-18T09:34:41Z</time></trkpt><trkpt lat="42.29291334021539" lon="12.721771773797816"><ele>661.0</ele><time>2026-04-18T09:34:43Z</time></trkpt><trkpt lat="42.29293913991783" lon="12.721887778366654"><ele>661.0</ele><time>2026-04-18T09:34:44Z</time></trkpt><trkpt lat="42.27351081364498" lon="12.7013689986896"><ele>602.75</ele><time>2026-04-18T09:25:55Z</time></trkpt><trkpt lat="42.27363345467996" lon="12.701411040679716"><ele>544.5</ele><time>2026-04-18T09:25:56Z</time></trkpt><trkpt lat="42.273773315244" lon="12.701468286690677"><ele>486.25</ele><time>2026-04-18T09:25:57Z</time></trkpt><trkpt lat="42.27389937992777" lon="12.701521130660957"><ele>428.0</ele><time>2026-04-18T09:25:58Z</time></trkpt><trkpt lat="42.27402434104291" lon="12.701583178592617"><ele>428.0</ele><time>2026-04-18T09:25:59Z</time></trkpt><trkpt lat="42.27414598884009" lon="12.701626458669269"><ele>428.0</ele><time>2026-04-18T09:26:00Z</time></trkpt><trkpt lat="42.27425725725027" lon="12.701623308718265"><ele>428.0</ele><time>2026-04-18T09:26:01Z</time></trkpt><trkpt lat="42.27437925494921" lon="12.701659614890122"><ele>428.0</ele><time>2026-04-18T09:26:02Z</time></trkpt><trkpt lat="42.27449741581971" lon="12.701716619074372"><ele>428.0</ele><time>2026-04-18T09:26:03Z</time></trkpt><trkpt lat="42.274604802201324" lon="12.701794556954884"><ele>428.0</ele><time>2026-04-18T09:26:04Z</time></trkpt><trkpt lat="42.27470418660056" lon="12.701885154584925"><ele>428.0</ele><time>2026-04-18T09:26:05Z</time></trkpt><trkpt lat="42.27480949644057" lon="12.701970062187451"><ele>428.0</ele><time>2026-04-18T09:26:06Z</time></trkpt><trkpt lat="42.27491366619206" lon="12.702057087643398"><ele>430.4</ele><time>2026-04-18T09:26:07Z</time></trkpt><trkpt lat="42.27500746726145" lon="12.702150307476412"><ele>432.79999999999995</ele><time>2026-04-18T09:26:08Z</time></trkpt><trkpt lat="42.275086097306705" lon="12.702225671365651"><ele>435.2</ele><time>2026-04-18T09:26:09Z</time></trkpt><trkpt lat="42.275160634861116" lon="12.702307333788742"><ele>437.6</ele><time>2026-04-18T09:26:10Z</time></trkpt><trkpt lat="42.27522209737158" lon="12.70241151882213"><ele>440.0</ele><time>2026-04-18T09:26:11Z</time></trkpt><trkpt lat="42.27526557314845" lon="12.702554061963946"><ele>440.0</ele><time>2026-04-18T09:26:12Z</time></trkpt><trkpt lat="42.27530350865362" lon="12.702724056909755"><ele>440.0</ele><time>2026-04-18T09:26:13Z</time></trkpt><trkpt lat="42.27535605302597" lon="12.702921034105234"><ele>440.0</ele><time>2026-04-18T09:26:14Z</time></trkpt><trkpt lat="42.275429372958335" lon="12.703105990689068"><ele>440.0</ele><time>2026-04-18T09:26:15Z</time></trkpt><trkpt lat="42.275479147876496" lon="12.703241150010893"><ele>441.0</ele><time>2026-04-18T09:26:16Z</time></trkpt><trkpt lat="42.27552286757786" lon="12.703356467819024"><ele>442.0</ele><time>2026-04-18T09:26:17Z</time></trkpt><trkpt lat="42.275596809578076" lon="12.703471308139184"><ele>443.0</ele><time>2026-04-18T09:26:18Z</time></trkpt><trkpt lat="42.27568808952403" lon="12.703590742176896"><ele>444.0</ele><time>2026-04-18T09:26:19Z</time></trkpt><trkpt lat="42.275792985095464" lon="12.70371535316106"><ele>446.5</ele><time>2026-04-18T09:26:20Z</time></trkpt><trkpt lat="42.275905371198476" lon="12.703835240344551"><ele>449.0</ele><time>2026-04-18T09:26:21Z</time></trkpt><trkpt lat="42.2760085385727" lon="12.703941573336742"><ele>451.5</ele><time>2026-04-18T09:26:22Z</time></trkpt><trkpt lat="42.27611747837507" lon="12.704055351947028"><ele>454.0</ele><time>2026-04-18T09:26:23Z</time></trkpt><trkpt lat="42.2762318832726" lon="12.704180411441136"><ele>454.0</ele><time>2026-04-18T09:26:24Z</time></trkpt><trkpt lat="42.27635880390861" lon="12.70431771067671"><ele>454.0</ele><time>2026-04-18T09:26:25Z</time></trkpt><trkpt lat="42.2764794559453" lon="12.704442087336473"><ele>454.0</ele><time>2026-04-18T09:26:26Z</time></trkpt><trkpt lat="42.2765840416947" lon="12.704555519406675"><ele>454.0</ele><time>2026-04-18T09:26:27Z</time></trkpt><trkpt lat="42.27668289322775" lon="12.704662380862645"><ele>458.0</ele><time>2026-04-18T09:26:28Z</time></trkpt><trkpt lat="42.27677970276365" lon="12.70477082961761"><ele>462.0</ele><time>2026-04-18T09:26:29Z</time></trkpt><trkpt lat="42.276864902169685" lon="12.704870238183657"><ele>466.0</ele><time>2026-04-18T09:26:30Z</time></trkpt><trkpt lat="42.276945949981716" lon="12.704973595287237"><ele>470.0</ele><time>2026-04-18T09:26:31Z</time></trkpt><trkpt lat="42.277031977810665" lon="12.705080023692199"><ele>470.0</ele><time>2026-04-18T09:26:32Z</time></trkpt><trkpt lat="42.27710928573656" lon="12.705223675407252"><ele>470.0</ele><time>2026-04-18T09:26:33Z</time></trkpt><trkpt lat="42.27719446428131" lon="12.705372241802332"><ele>470.0</ele><time>2026-04-18T09:26:34Z</time></trkpt><trkpt lat="42.27725671311016" lon="12.705510819419025"><ele>470.0</ele><time>2026-04-18T09:26:35Z</time></trkpt><trkpt lat="42.2773166796461" lon="12.7056628619374"><ele>476.75</ele><time>2026-04-18T09:26:36Z</time></trkpt><trkpt lat="42.27737849001265" lon="12.705822785916082"><ele>483.5</ele><time>2026-04-18T09:26:37Z</time></trkpt><trkpt lat="42.27745125547295" lon="12.705969257613557"><ele>490.25</ele><time>2026-04-18T09:26:38Z</time></trkpt><trkpt lat="42.27751199967888" lon="12.706108401314077"><ele>497.0</ele><time>2026-04-18T09:26:39Z</time></trkpt><trkpt lat="42.277568354654235" lon="12.706218933724884"><ele>498.99999999999994</ele><time>2026-04-18T09:26:40Z</time></trkpt><trkpt lat="42.27760239033838" lon="12.706340825688248"><ele>501.0</ele><time>2026-04-18T09:26:41Z</time></trkpt><trkpt lat="42.277635792014294" lon="12.706440159703053"><ele>503.0</ele><time>2026-04-18T09:26:43Z</time></trkpt><trkpt lat="42.27762333241673" lon="12.706551599488288"><ele>505.0</ele><time>2026-04-18T09:26:46Z</time></trkpt><trkpt lat="42.27754889651903" lon="12.706552448829747"><ele>506.99999999999994</ele><time>2026-04-18T09:26:48Z</time></trkpt><trkpt lat="42.27747570487171" lon="12.706506943802381"><ele>509.0</ele><time>2026-04-18T09:26:58Z</time></trkpt><trkpt lat="42.27735967126812" lon="12.70642683950055"><ele>508.99999999999994</ele><time>2026-04-18T09:27:00Z</time></trkpt><trkpt lat="42.277282801701574" lon="12.706397362781123"><ele>509.0</ele><time>2026-04-18T09:27:01Z</time></trkpt><trkpt lat="42.27719373770533" lon="12.70638245799934"><ele>509.0</ele><time>2026-04-18T09:27:02Z</time></trkpt><trkpt lat="42.27711665217972" lon="12.706391489714047"><ele>509.0</ele><time>2026-04-18T09:27:03Z</time></trkpt><trkpt lat="42.277045261325426" lon="12.706410929418364"><ele>508.99999999999994</ele><time>2026-04-18T09:27:04Z</time></trkpt><trkpt lat="42.276984374801486" lon="12.706435842427746"><ele>509.0</ele><time>2026-04-18T09:27:05Z</time></trkpt><trkpt lat="42.27686450096886" lon="12.7064334523017"><ele>510.79999999999995</ele><time>2026-04-18T09:27:07Z</time></trkpt><trkpt lat="42.27675645989334" lon="12.706438987634087"><ele>512.5999999999999</ele><time>2026-04-18T09:27:09Z</time></trkpt><trkpt lat="42.2766550222267" lon="12.706460715731104"><ele>514.4</ele><time>2026-04-18T09:27:11Z</time></trkpt><trkpt lat="42.276546553769975" lon="12.706464760837708"><ele>516.1999999999999</ele><time>2026-04-18T09:27:14Z</time></trkpt><trkpt lat="42.27647694258638" lon="12.706468145033266"><ele>518.0</ele><time>2026-04-18T09:27:15Z</time></trkpt><trkpt lat="42.27637826635275" lon="12.706495018658183"><ele>518.0</ele><time>2026-04-18T09:27:17Z</time></trkpt><trkpt lat="42.27627889084946" lon="12.706511623194059"><ele>518.0</ele><time>2026-04-18T09:27:19Z</time></trkpt><trkpt lat="42.27618408923458" lon="12.706546614418418"><ele>518.0</ele><time>2026-04-18T09:27:21Z</time></trkpt><trkpt lat="42.27609319097113" lon="12.706577852188234"><ele>518.0</ele><time>2026-04-18T09:27:23Z</time></trkpt><trkpt lat="42.27597411390694" lon="12.706630599507564"><ele>518.0</ele><time>2026-04-18T09:27:25Z</time></trkpt><trkpt lat="42.27586927213745" lon="12.706686294142965"><ele>518.0</ele><time>2026-04-18T09:27:27Z</time></trkpt><trkpt lat="42.27580919083693" lon="12.706719616018447"><ele>518.0</ele><time>2026-04-18T09:27:28Z</time></trkpt><trkpt lat="42.275746002161" lon="12.706760315122335"><ele>518.0</ele><time>2026-04-18T09:27:29Z</time></trkpt><trkpt lat="42.275696332478866" lon="12.706820576697874"><ele>518.0</ele><time>2026-04-18T09:27:30Z</time></trkpt><trkpt lat="42.275601354543554" lon="12.706885760177544"><ele>518.0</ele><time>2026-04-18T09:27:32Z</time></trkpt><trkpt lat="42.27550020450305" lon="12.706946847106627"><ele>518.0</ele><time>2026-04-18T09:27:34Z</time></trkpt><trkpt lat="42.275430739711354" lon="12.70698861005702"><ele>522.1999999999999</ele><time>2026-04-18T09:27:35Z</time></trkpt><trkpt lat="42.27537990090717" lon="12.707051912169877"><ele>526.4</ele><time>2026-04-18T09:27:36Z</time></trkpt><trkpt lat="42.275301626949656" lon="12.707139162368637"><ele>530.5999999999999</ele><time>2026-04-18T09:27:38Z</time></trkpt><trkpt lat="42.2751768275564" lon="12.707176831507788"><ele>534.8</ele><time>2026-04-18T09:27:40Z</time></trkpt><trkpt lat="42.27509533413212" lon="12.707203466351688"><ele>539.0</ele><time>2026-04-18T09:27:41Z</time></trkpt><trkpt lat="42.27502149203377" lon="12.707226102686974"><ele>539.0</ele><time>2026-04-18T09:27:42Z</time></trkpt><trkpt lat="42.27494511213492" lon="12.70725020613789"><ele>539.0</ele><time>2026-04-18T09:27:43Z</time></trkpt><trkpt lat="42.274827597082314" lon="12.707325341536986"><ele>539.0</ele><time>2026-04-18T09:27:45Z</time></trkpt><trkpt lat="42.27474994167888" lon="12.707342773858851"><ele>539.0</ele><time>2026-04-18T09:27:46Z</time></trkpt><trkpt lat="42.274673166921424" lon="12.707385327296103"><ele>539.0</ele><time>2026-04-18T09:27:47Z</time></trkpt><trkpt lat="42.274596911565716" lon="12.707424076306642"><ele>539.3333333333333</ele><time>2026-04-18T09:27:48Z</time></trkpt><trkpt lat="42.27448751249155" lon="12.70746766179412"><ele>539.6666666666666</ele><time>2026-04-18T09:27:50Z</time></trkpt><trkpt lat="42.274421373548265" lon="12.707486109568151"><ele>540.0</ele><time>2026-04-18T09:27:51Z</time></trkpt><trkpt lat="42.2743468457765" lon="12.7075027525684"><ele>540.3333333333334</ele><time>2026-04-18T09:27:52Z</time></trkpt><trkpt lat="42.274268477369944" lon="12.707516099074356"><ele>540.6666666666667</ele><time>2026-04-18T09:27:53Z</time></trkpt><trkpt lat="42.2742002216048" lon="12.707518173580889"><ele>541.0</ele><time>2026-04-18T09:27:54Z</time></trkpt><trkpt lat="42.27408213992388" lon="12.707520276362002"><ele>541.0</ele><time>2026-04-18T09:27:56Z</time></trkpt><trkpt lat="42.27400549843114" lon="12.707499139787336"><ele>541.0</ele><time>2026-04-18T09:27:57Z</time></trkpt><trkpt lat="42.27393469193755" lon="12.707493894956244"><ele>541.0</ele><time>2026-04-18T09:27:58Z</time></trkpt><trkpt lat="42.273841203205905" lon="12.707448124088545"><ele>541.0</ele><time>2026-04-18T09:28:00Z</time></trkpt><trkpt lat="42.273774942481374" lon="12.707423224177326"><ele>541.0</ele><time>2026-04-18T09:28:01Z</time></trkpt><trkpt lat="42.27371164199082" lon="12.707399729020329"><ele>541.0</ele><time>2026-04-18T09:28:02Z</time></trkpt><trkpt lat="42.27363803616509" lon="12.707374090511523"><ele>542.0</ele><time>2026-04-18T09:28:03Z</time></trkpt><trkpt lat="42.27353429514422" lon="12.707372755556452"><ele>543.0</ele><time>2026-04-18T09:28:05Z</time></trkpt><trkpt lat="42.2734694135829" lon="12.707366316110141"><ele>544.0</ele><time>2026-04-18T09:28:06Z</time></trkpt><trkpt lat="42.273404342927655" lon="12.707348205408557"><ele>545.0</ele><time>2026-04-18T09:28:07Z</time></trkpt><trkpt lat="42.27333061064385" lon="12.707365901379426"><ele>546.0</ele><time>2026-04-18T09:28:08Z</time></trkpt><trkpt lat="42.273257109700225" lon="12.7074141543768"><ele>547.0</ele><time>2026-04-18T09:28:09Z</time></trkpt><trkpt lat="42.27318719846408" lon="12.707515362460198"><ele>547.0</ele><time>2026-04-18T09:28:10Z</time></trkpt><trkpt lat="42.27317286844316" lon="12.707651578644928"><ele>547.0</ele><time>2026-04-18T09:28:11Z</time></trkpt><trkpt lat="42.27316227165023" lon="12.70774959114041"><ele>547.0</ele><time>2026-04-18T09:28:12Z</time></trkpt><trkpt lat="42.27316129574465" lon="12.707837773077568"><ele>547.0</ele><time>2026-04-18T09:28:13Z</time></trkpt><trkpt lat="42.273160581702804" lon="12.707996391894769"><ele>547.0</ele><time>2026-04-18T09:28:15Z</time></trkpt><trkpt lat="42.27315390437517" lon="12.708082348650523"><ele>547.0</ele><time>2026-04-18T09:28:16Z</time></trkpt><trkpt lat="42.27313683793241" lon="12.708170057404784"><ele>548.8000000000001</ele><time>2026-04-18T09:28:17Z</time></trkpt><trkpt lat="42.273158298242585" lon="12.70827345136114"><ele>550.6</ele><time>2026-04-18T09:28:18Z</time></trkpt><trkpt lat="42.2731618080722" lon="12.708426758233514"><ele>552.4000000000001</ele><time>2026-04-18T09:28:20Z</time></trkpt><trkpt lat="42.27316410964472" lon="12.708559035522745"><ele>554.2</ele><time>2026-04-18T09:28:22Z</time></trkpt><trkpt lat="42.27318188703756" lon="12.708705268834168"><ele>556.0</ele><time>2026-04-18T09:28:24Z</time></trkpt><trkpt lat="42.273189306791544" lon="12.708790545467576"><ele>557.2</ele><time>2026-04-18T09:28:26Z</time></trkpt><trkpt lat="42.27319842364621" lon="12.708965154828114"><ele>558.4000000000001</ele><time>2026-04-18T09:28:28Z</time></trkpt><trkpt lat="42.27319434658726" lon="12.709050896207621"><ele>559.6</ele><time>2026-04-18T09:28:29Z</time></trkpt><trkpt lat="42.27319252338623" lon="12.709172673251604"><ele>560.8000000000001</ele><time>2026-04-18T09:28:31Z</time></trkpt><trkpt lat="42.27319537688696" lon="12.709343281743802"><ele>562.0</ele><time>2026-04-18T09:28:33Z</time></trkpt><trkpt lat="42.27319117366175" lon="12.70945887472655"><ele>562.8000000000001</ele><time>2026-04-18T09:28:34Z</time></trkpt><trkpt lat="42.27319261488891" lon="12.709579101803785"><ele>563.6</ele><time>2026-04-18T09:28:35Z</time></trkpt><trkpt lat="42.27319420296839" lon="12.709711579265443"><ele>564.4000000000001</ele><time>2026-04-18T09:28:36Z</time></trkpt><trkpt lat="42.273197648492314" lon="12.709872191255458"><ele>565.2</ele><time>2026-04-18T09:28:37Z</time></trkpt><trkpt lat="42.27320484238585" lon="12.710012346445982"><ele>566.0</ele><time>2026-04-18T09:28:38Z</time></trkpt><trkpt lat="42.2731860851035" lon="12.710135004417802"><ele>566.0</ele><time>2026-04-18T09:28:39Z</time></trkpt><trkpt lat="42.27322120140343" lon="12.710238558561521"><ele>566.0</ele><time>2026-04-18T09:28:40Z</time></trkpt><trkpt lat="42.273256950801844" lon="12.710324997215707"><ele>566.0</ele><time>2026-04-18T09:28:41Z</time></trkpt><trkpt lat="42.273274365898644" lon="12.710412577408992"><ele>566.0</ele><time>2026-04-18T09:28:42Z</time></trkpt><trkpt lat="42.27329556475822" lon="12.71051997084851"><ele>566.0</ele><time>2026-04-18T09:28:43Z</time></trkpt><trkpt lat="42.27332842481089" lon="12.710625652834038"><ele>566.0</ele><time>2026-04-18T09:28:44Z</time></trkpt><trkpt lat="42.273346725916404" lon="12.710715770920245"><ele>565.8</ele><time>2026-04-18T09:28:45Z</time></trkpt><trkpt lat="42.27339881950591" lon="12.710843277054623"><ele>565.6</ele><time>2026-04-18T09:28:47Z</time></trkpt><trkpt lat="42.27342061127509" lon="12.710973453787668"><ele>565.4</ele><time>2026-04-18T09:28:49Z</time></trkpt><trkpt lat="42.27347269382287" lon="12.711071371676367"><ele>565.2</ele><time>2026-04-18T09:28:51Z</time></trkpt><trkpt lat="42.27351801291056" lon="12.711186091474747"><ele>565.0</ele><time>2026-04-18T09:28:53Z</time></trkpt><trkpt lat="42.2735485586156" lon="12.711345898686941"><ele>564.3333333333334</ele><time>2026-04-18T09:28:55Z</time></trkpt><trkpt lat="42.2735680972448" lon="12.711428534121946"><ele>563.6666666666667</ele><time>2026-04-18T09:28:56Z</time></trkpt><trkpt lat="42.27358477624829" lon="12.711547111141558"><ele>563.0</ele><time>2026-04-18T09:28:58Z</time></trkpt><trkpt lat="42.27363759927418" lon="12.711658445936363"><ele>562.3333333333334</ele><time>2026-04-18T09:29:00Z</time></trkpt><trkpt lat="42.27364676181439" lon="12.711789048637092"><ele>561.6666666666666</ele><time>2026-04-18T09:29:02Z</time></trkpt><trkpt lat="42.273668261291846" lon="12.711877504267557"><ele>561.0</ele><time>2026-04-18T09:29:03Z</time></trkpt><trkpt lat="42.273680715619555" lon="12.712038731050372"><ele>560.6</ele><time>2026-04-18T09:29:05Z</time></trkpt><trkpt lat="42.2736953043662" lon="12.71217278165494"><ele>560.2</ele><time>2026-04-18T09:29:07Z</time></trkpt><trkpt lat="42.27374225903029" lon="12.712301537018245"><ele>559.8</ele><time>2026-04-18T09:29:09Z</time></trkpt><trkpt lat="42.27379001930823" lon="12.712428090151716"><ele>559.4</ele><time>2026-04-18T09:29:11Z</time></trkpt><trkpt lat="42.273827229927086" lon="12.712570523683455"><ele>559.0</ele><time>2026-04-18T09:29:13Z</time></trkpt><trkpt lat="42.2738455021189" lon="12.712714809819959"><ele>559.2</ele><time>2026-04-18T09:29:15Z</time></trkpt><trkpt lat="42.27387246290452" lon="12.71283541315549"><ele>559.4</ele><time>2026-04-18T09:29:17Z</time></trkpt><trkpt lat="42.27390630507706" lon="12.71293604606344"><ele>559.6</ele><time>2026-04-18T09:29:19Z</time></trkpt><trkpt lat="42.27394526631051" lon="12.713040387176225"><ele>559.8</ele><time>2026-04-18T09:29:21Z</time></trkpt><trkpt lat="42.273970677235226" lon="12.713125417100583"><ele>560.0</ele><time>2026-04-18T09:29:22Z</time></trkpt><trkpt lat="42.274032374574446" lon="12.713273444131367"><ele>562.1666666666666</ele><time>2026-04-18T09:29:24Z</time></trkpt><trkpt lat="42.27409664399609" lon="12.713365090385045"><ele>564.3333333333333</ele><time>2026-04-18T09:29:25Z</time></trkpt><trkpt lat="42.274151340665995" lon="12.713448663969443"><ele>566.5</ele><time>2026-04-18T09:29:26Z</time></trkpt><trkpt lat="42.27420563785168" lon="12.713529858343106"><ele>568.6666666666666</ele><time>2026-04-18T09:29:27Z</time></trkpt><trkpt lat="42.27428320904788" lon="12.713598903225563"><ele>570.8333333333334</ele><time>2026-04-18T09:29:28Z</time></trkpt><trkpt lat="42.27434118569504" lon="12.71367266912786"><ele>573.0</ele><time>2026-04-18T09:29:29Z</time></trkpt><trkpt lat="42.27442620803653" lon="12.713746732309543"><ele>573.0</ele><time>2026-04-18T09:29:31Z</time></trkpt><trkpt lat="42.27456403161082" lon="12.713778878106732"><ele>573.0</ele><time>2026-04-18T09:29:33Z</time></trkpt><trkpt lat="42.27466166788446" lon="12.713827792322151"><ele>573.0</ele><time>2026-04-18T09:29:35Z</time></trkpt><trkpt lat="42.274754853843774" lon="12.713868130767263"><ele>573.0</ele><time>2026-04-18T09:29:37Z</time></trkpt><trkpt lat="42.274865660098605" lon="12.71389073031276"><ele>576.0</ele><time>2026-04-18T09:29:39Z</time></trkpt><trkpt lat="42.27493306212658" lon="12.71391952207285"><ele>579.0</ele><time>2026-04-18T09:29:40Z</time></trkpt><trkpt lat="42.275010710363475" lon="12.713915135382052"><ele>582.0</ele><time>2026-04-18T09:29:41Z</time></trkpt><trkpt lat="42.27507951427023" lon="12.713926241566265"><ele>585.0</ele><time>2026-04-18T09:29:42Z</time></trkpt><trkpt lat="42.27518294540418" lon="12.713941337708201"><ele>588.0</ele><time>2026-04-18T09:29:44Z</time></trkpt><trkpt lat="42.27532259320176" lon="12.71396093350966"><ele>588.0</ele><time>2026-04-18T09:29:46Z</time></trkpt><trkpt lat="42.27539893974698" lon="12.713962155916281"><ele>588.0</ele><time>2026-04-18T09:29:47Z</time></trkpt><trkpt lat="42.27549584975346" lon="12.713971921850156"><ele>588.0</ele><time>2026-04-18T09:29:48Z</time></trkpt><trkpt lat="42.27560517709519" lon="12.713976451107651"><ele>588.0</ele><time>2026-04-18T09:29:49Z</time></trkpt><trkpt lat="42.27568787783562" lon="12.7139653041002"><ele>588.0</ele><time>2026-04-18T09:29:50Z</time></trkpt><trkpt lat="42.27576613027903" lon="12.713986489689955"><ele>588.0</ele><time>2026-04-18T09:29:51Z</time></trkpt><trkpt lat="42.2758394103156" lon="12.714001966276422"><ele>590.4</ele><time>2026-04-18T09:29:52Z</time></trkpt><trkpt lat="42.275927767183695" lon="12.714015631592725"><ele>592.8</ele><time>2026-04-18T09:29:53Z</time></trkpt><trkpt lat="42.2760362130393" lon="12.714032940416256"><ele>595.2</ele><time>2026-04-18T09:29:54Z</time></trkpt><trkpt lat="42.27612737456148" lon="12.714033677109667"><ele>597.6</ele><time>2026-04-18T09:29:55Z</time></trkpt><trkpt lat="42.27621788777588" lon="12.714043503871347"><ele>600.0</ele><time>2026-04-18T09:29:56Z</time></trkpt><trkpt lat="42.27630639018194" lon="12.714058226693249"><ele>600.0</ele><time>2026-04-18T09:29:57Z</time></trkpt><trkpt lat="42.276410377428505" lon="12.714091125259753"><ele>600.0</ele><time>2026-04-18T09:29:58Z</time></trkpt><trkpt lat="42.27649653406601" lon="12.714131386307493"><ele>600.0</ele><time>2026-04-18T09:29:59Z</time></trkpt><trkpt lat="42.276577008823374" lon="12.71417580602112"><ele>600.0</ele><time>2026-04-18T09:30:00Z</time></trkpt><trkpt lat="42.276638603081985" lon="12.714204150938443"><ele>600.0</ele><time>2026-04-18T09:30:01Z</time></trkpt><trkpt lat="42.2767039133992" lon="12.71425193776258"><ele>600.0</ele><time>2026-04-18T09:30:02Z</time></trkpt><trkpt lat="42.2767689753673" lon="12.714282397530043"><ele>601.5</ele><time>2026-04-18T09:30:03Z</time></trkpt><trkpt lat="42.27683470069535" lon="12.714302029409803"><ele>603.0</ele><time>2026-04-18T09:30:04Z</time></trkpt><trkpt lat="42.27691557870366" lon="12.714371149850212"><ele>604.5</ele><time>2026-04-18T09:30:05Z</time></trkpt><trkpt lat="42.276980499273186" lon="12.714375878440888"><ele>606.0</ele><time>2026-04-18T09:30:06Z</time></trkpt><trkpt lat="42.27706721017351" lon="12.714394053612114"><ele>607.5</ele><time>2026-04-18T09:30:07Z</time></trkpt><trkpt lat="42.27716220987629" lon="12.714417438114712"><ele>609.0</ele><time>2026-04-18T09:30:08Z</time></trkpt><trkpt lat="42.27722132626585" lon="12.714453299206188"><ele>612.4</ele><time>2026-04-18T09:30:09Z</time></trkpt><trkpt lat="42.277303314948256" lon="12.71449297662715"><ele>615.8</ele><time>2026-04-18T09:30:10Z</time></trkpt><trkpt lat="42.27738259171381" lon="12.714539858634968"><ele>619.2</ele><time>2026-04-18T09:30:11Z</time></trkpt><trkpt lat="42.27747416535221" lon="12.714600823082964"><ele>622.6</ele><time>2026-04-18T09:30:12Z</time></trkpt><trkpt lat="42.27759207583777" lon="12.714664671430981"><ele>626.0</ele><time>2026-04-18T09:30:13Z</time></trkpt><trkpt lat="42.2776864230731" lon="12.714732545963123"><ele>626.0</ele><time>2026-04-18T09:30:14Z</time></trkpt><trkpt lat="42.27777566553945" lon="12.714787011224027"><ele>626.0</ele><time>2026-04-18T09:30:15Z</time></trkpt><trkpt lat="42.27785807605222" lon="12.714837676619387"><ele>626.0</ele><time>2026-04-18T09:30:16Z</time></trkpt><trkpt lat="42.27792804478183" lon="12.714890695627913"><ele>626.0</ele><time>2026-04-18T09:30:17Z</time></trkpt><trkpt lat="42.27804109968203" lon="12.714952900060755"><ele>626.0</ele><time>2026-04-18T09:30:19Z</time></trkpt><trkpt lat="42.27812292639693" lon="12.714992471184688"><ele>627.5</ele><time>2026-04-18T09:30:21Z</time></trkpt><trkpt lat="42.2782109376233" lon="12.715024632181798"><ele>629.0</ele><time>2026-04-18T09:30:23Z</time></trkpt><trkpt lat="42.2782810668512" lon="12.71504007057594"><ele>630.5</ele><time>2026-04-18T09:30:24Z</time></trkpt><trkpt lat="42.2783752878769" lon="12.715052616925506"><ele>632.0</ele><time>2026-04-18T09:30:26Z</time></trkpt><trkpt lat="42.278477094276965" lon="12.71504900111568"><ele>633.5</ele><time>2026-04-18T09:30:28Z</time></trkpt><trkpt lat="42.278565865420155" lon="12.715038346809694"><ele>635.0</ele><time>2026-04-18T09:30:31Z</time></trkpt><trkpt lat="42.27865946787032" lon="12.715021381762128"><ele>635.0</ele><time>2026-04-18T09:30:33Z</time></trkpt><trkpt lat="42.27877829495483" lon="12.714971890070192"><ele>635.0</ele><time>2026-04-18T09:30:35Z</time></trkpt><trkpt lat="42.27888417525884" lon="12.714906549810001"><ele>635.0</ele><time>2026-04-18T09:30:37Z</time></trkpt><trkpt lat="42.27894764117721" lon="12.714911899565047"><ele>635.0</ele><time>2026-04-18T09:30:38Z</time></trkpt><trkpt lat="42.279015617594524" lon="12.714914785782618"><ele>635.0</ele><time>2026-04-18T09:30:39Z</time></trkpt><trkpt lat="42.27911387642272" lon="12.71494288971713"><ele>636.2</ele><time>2026-04-18T09:30:41Z</time></trkpt><trkpt lat="42.279212874412906" lon="12.714981333723225"><ele>637.4</ele><time>2026-04-18T09:30:43Z</time></trkpt><trkpt lat="42.27929767985265" lon="12.715026184136622"><ele>638.5999999999999</ele><time>2026-04-18T09:30:45Z</time></trkpt><trkpt lat="42.279444979585456" lon="12.715071188003526"><ele>639.8</ele><time>2026-04-18T09:30:47Z</time></trkpt><trkpt lat="42.27952836201279" lon="12.715095025563228"><ele>641.0</ele><time>2026-04-18T09:30:48Z</time></trkpt><trkpt lat="42.27960373661492" lon="12.715115401824175"><ele>641.0</ele><time>2026-04-18T09:30:49Z</time></trkpt><trkpt lat="42.279678714516365" lon="12.715142559181539"><ele>641.0</ele><time>2026-04-18T09:30:50Z</time></trkpt><trkpt lat="42.27975518305219" lon="12.715175678223247"><ele>641.0</ele><time>2026-04-18T09:30:51Z</time></trkpt><trkpt lat="42.27988552943838" lon="12.71522807487242"><ele>641.0</ele><time>2026-04-18T09:30:53Z</time></trkpt><trkpt lat="42.27995859270616" lon="12.71524649853816"><ele>641.0</ele><time>2026-04-18T09:30:54Z</time></trkpt><trkpt lat="42.28003289461748" lon="12.71528553140435"><ele>641.0</ele><time>2026-04-18T09:30:55Z</time></trkpt><trkpt lat="42.28013749019818" lon="12.715314862214374"><ele>643.1999999999999</ele><time>2026-04-18T09:30:56Z</time></trkpt><trkpt lat="42.280247293566134" lon="12.715350518800406"><ele>645.4</ele><time>2026-04-18T09:30:57Z</time></trkpt><trkpt lat="42.28034446719621" lon="12.715386574833184"><ele>647.6</ele><time>2026-04-18T09:30:58Z</time></trkpt><trkpt lat="42.28043690410001" lon="12.715443245272711"><ele>649.8</ele><time>2026-04-18T09:30:59Z</time></trkpt><trkpt lat="42.28054237057626" lon="12.71545640756545"><ele>652.0</ele><time>2026-04-18T09:31:00Z</time></trkpt><trkpt lat="42.280645084518724" lon="12.715481615637025"><ele>652.0</ele><time>2026-04-18T09:31:01Z</time></trkpt><trkpt lat="42.28074296785805" lon="12.71549368847701"><ele>652.0</ele><time>2026-04-18T09:31:02Z</time></trkpt><trkpt lat="42.280815983727805" lon="12.715527265582848"><ele>652.0</ele><time>2026-04-18T09:31:03Z</time></trkpt><trkpt lat="42.2808995182079" lon="12.715581449928301"><ele>652.0</ele><time>2026-04-18T09:31:04Z</time></trkpt><trkpt lat="42.28096883271086" lon="12.71566931464142"><ele>652.0</ele><time>2026-04-18T09:31:05Z</time></trkpt><trkpt lat="42.28103758403627" lon="12.715773760232496"><ele>652.0</ele><time>2026-04-18T09:31:06Z</time></trkpt><trkpt lat="42.28110161942755" lon="12.715899123751266"><ele>652.0</ele><time>2026-04-18T09:31:07Z</time></trkpt><trkpt lat="42.28115546450214" lon="12.716035763350051"><ele>652.0</ele><time>2026-04-18T09:31:08Z</time></trkpt><trkpt lat="42.28118535949413" lon="12.716157097070889"><ele>652.0</ele><time>2026-04-18T09:31:09Z</time></trkpt><trkpt lat="42.281211042531915" lon="12.716291501580317"><ele>652.0</ele><time>2026-04-18T09:31:10Z</time></trkpt><trkpt lat="42.281236081998266" lon="12.716425921354313"><ele>655.3333333333334</ele><time>2026-04-18T09:31:11Z</time></trkpt><trkpt lat="42.28127604427918" lon="12.716533286643037"><ele>658.6666666666667</ele><time>2026-04-18T09:31:12Z</time></trkpt><trkpt lat="42.28130319559217" lon="12.71663669999044"><ele>662.0</ele><time>2026-04-18T09:31:13Z</time></trkpt><trkpt lat="42.281328385300405" lon="12.716739755895803"><ele>665.3333333333334</ele><time>2026-04-18T09:31:14Z</time></trkpt><trkpt lat="42.28136235141284" lon="12.716851408090886"><ele>668.6666666666666</ele><time>2026-04-18T09:31:15Z</time></trkpt><trkpt lat="42.2813787861186" lon="12.716972938747416"><ele>672.0</ele><time>2026-04-18T09:31:16Z</time></trkpt><trkpt lat="42.28140483123479" lon="12.717092500692639"><ele>669.2</ele><time>2026-04-18T09:31:17Z</time></trkpt><trkpt lat="42.28143225406397" lon="12.71719562056111"><ele>666.4000000000001</ele><time>2026-04-18T09:31:18Z</time></trkpt><trkpt lat="42.28145051033957" lon="12.717278890931182"><ele>663.5999999999999</ele><time>2026-04-18T09:31:19Z</time></trkpt><trkpt lat="42.281497591334706" lon="12.717430929713688"><ele>660.8</ele><time>2026-04-18T09:31:20Z</time></trkpt><trkpt lat="42.28154284406994" lon="12.71757358959984"><ele>658.0</ele><time>2026-04-18T09:31:21Z</time></trkpt><trkpt lat="42.28159100873068" lon="12.71769578533558"><ele>658.2</ele><time>2026-04-18T09:31:22Z</time></trkpt><trkpt lat="42.281635578666695" lon="12.717809108912446"><ele>658.4</ele><time>2026-04-18T09:31:23Z</time></trkpt><trkpt lat="42.28169387827677" lon="12.717900224887565"><ele>658.6</ele><time>2026-04-18T09:31:24Z</time></trkpt><trkpt lat="42.28175583741797" lon="12.717967921623158"><ele>658.8000000000001</ele><time>2026-04-18T09:31:25Z</time></trkpt><trkpt lat="42.281853257485615" lon="12.718048823468013"><ele>659.0</ele><time>2026-04-18T09:31:26Z</time></trkpt><trkpt lat="42.28194457625764" lon="12.71810527812688"><ele>659.0</ele><time>2026-04-18T09:31:27Z</time></trkpt><trkpt lat="42.28205378934543" lon="12.718110956015085"><ele>659.0</ele><time>2026-04-18T09:31:28Z</time></trkpt><trkpt lat="42.282133757561475" lon="12.718155591458714"><ele>659.0</ele><time>2026-04-18T09:31:29Z</time></trkpt><trkpt lat="42.282228371751025" lon="12.718162073618624"><ele>659.0</ele><time>2026-04-18T09:31:30Z</time></trkpt><trkpt lat="42.28233783527767" lon="12.718198754835852"><ele>659.0</ele><time>2026-04-18T09:31:31Z</time></trkpt><trkpt lat="42.2824546460228" lon="12.71822176012235"><ele>658.3333333333333</ele><time>2026-04-18T09:31:32Z</time></trkpt><trkpt lat="42.28255067574655" lon="12.718260452680061"><ele>657.6666666666666</ele><time>2026-04-18T09:31:33Z</time></trkpt><trkpt lat="42.28264266409612" lon="12.718299597999334"><ele>657.0</ele><time>2026-04-18T09:31:34Z</time></trkpt><trkpt lat="42.282715821366466" lon="12.718349761566595"><ele>656.3333333333334</ele><time>2026-04-18T09:31:35Z</time></trkpt><trkpt lat="42.282768609336166" lon="12.718412511783654"><ele>655.6666666666667</ele><time>2026-04-18T09:31:36Z</time></trkpt><trkpt lat="42.28283850459513" lon="12.71848951890421"><ele>655.0</ele><time>2026-04-18T09:31:37Z</time></trkpt><trkpt lat="42.282898065482684" lon="12.71856471047467"><ele>653.4</ele><time>2026-04-18T09:31:38Z</time></trkpt><trkpt lat="42.282968360146576" lon="12.718615185410505"><ele>651.8</ele><time>2026-04-18T09:31:39Z</time></trkpt><trkpt lat="42.28303069700979" lon="12.718730195429849"><ele>650.2</ele><time>2026-04-18T09:31:41Z</time></trkpt><trkpt lat="42.28313302558009" lon="12.718830456661681"><ele>648.6</ele><time>2026-04-18T09:31:43Z</time></trkpt><trkpt lat="42.28319125856801" lon="12.718883070154515"><ele>647.0</ele><time>2026-04-18T09:31:44Z</time></trkpt><trkpt lat="42.28323619899752" lon="12.71896565187654"><ele>647.0</ele><time>2026-04-18T09:31:45Z</time></trkpt><trkpt lat="42.283289842549756" lon="12.719019030029655"><ele>647.0</ele><time>2026-04-18T09:31:46Z</time></trkpt><trkpt lat="42.28336102931706" lon="12.719030588320258"><ele>647.0</ele><time>2026-04-18T09:31:47Z</time></trkpt><trkpt lat="42.28343318187656" lon="12.719075500632671"><ele>647.0</ele><time>2026-04-18T09:31:48Z</time></trkpt><trkpt lat="42.28351862997717" lon="12.719101131420068"><ele>647.0</ele><time>2026-04-18T09:31:49Z</time></trkpt><trkpt lat="42.28360089823056" lon="12.71911460252811"><ele>647.0</ele><time>2026-04-18T09:31:50Z</time></trkpt><trkpt lat="42.283679553435704" lon="12.719207104690822"><ele>647.0</ele><time>2026-04-18T09:31:51Z</time></trkpt><trkpt lat="42.28374746250076" lon="12.719207881637821"><ele>647.0</ele><time>2026-04-18T09:31:53Z</time></trkpt><trkpt lat="42.28384195903593" lon="12.719236129074881"><ele>647.0</ele><time>2026-04-18T09:31:55Z</time></trkpt><trkpt lat="42.283932005456165" lon="12.719240377235977"><ele>647.0</ele><time>2026-04-18T09:31:56Z</time></trkpt><trkpt lat="42.28399732268626" lon="12.71926445535367"><ele>647.0</ele><time>2026-04-18T09:31:57Z</time></trkpt><trkpt lat="42.28409571173681" lon="12.719294149137657"><ele>647.0</ele><time>2026-04-18T09:31:58Z</time></trkpt><trkpt lat="42.28418098115594" lon="12.719327084749095"><ele>647.8571428571429</ele><time>2026-04-18T09:31:59Z</time></trkpt><trkpt lat="42.28425267317754" lon="12.719353760495514"><ele>648.7142857142858</ele><time>2026-04-18T09:32:00Z</time></trkpt><trkpt lat="42.28431772285891" lon="12.719373223444231"><ele>649.5714285714287</ele><time>2026-04-18T09:32:01Z</time></trkpt><trkpt lat="42.284389509754206" lon="12.719395035106034"><ele>650.4285714285714</ele><time>2026-04-18T09:32:02Z</time></trkpt><trkpt lat="42.28445286241601" lon="12.71940062944453"><ele>651.2857142857143</ele><time>2026-04-18T09:32:03Z</time></trkpt><trkpt lat="42.2845274096383" lon="12.7193819079847"><ele>652.1428571428572</ele><time>2026-04-18T09:32:04Z</time></trkpt><trkpt lat="42.28460870430047" lon="12.719391539070363"><ele>653.0</ele><time>2026-04-18T09:32:05Z</time></trkpt><trkpt lat="42.28470065608864" lon="12.719361731377703"><ele>653.8</ele><time>2026-04-18T09:32:06Z</time></trkpt><trkpt lat="42.284783124748586" lon="12.719294334503347"><ele>654.5999999999999</ele><time>2026-04-18T09:32:07Z</time></trkpt><trkpt lat="42.28485574904626" lon="12.719240569644747"><ele>655.4000000000001</ele><time>2026-04-18T09:32:08Z</time></trkpt><trkpt lat="42.28493690972792" lon="12.719199458407198"><ele>656.2</ele><time>2026-04-18T09:32:10Z</time></trkpt><trkpt lat="42.285011903790505" lon="12.71924117879184"><ele>657.0</ele><time>2026-04-18T09:32:14Z</time></trkpt><trkpt lat="42.28505556795987" lon="12.719451545697561"><ele>654.5</ele><time>2026-04-18T09:32:16Z</time></trkpt><trkpt lat="42.28508122498746" lon="12.719547522183996"><ele>652.0</ele><time>2026-04-18T09:32:17Z</time></trkpt><trkpt lat="42.28511995054102" lon="12.719617277460692"><ele>649.5</ele><time>2026-04-18T09:32:18Z</time></trkpt><trkpt lat="42.28515215593046" lon="12.719785331730147"><ele>647.0</ele><time>2026-04-18T09:32:20Z</time></trkpt><trkpt lat="42.28516827204753" lon="12.719879475356981"><ele>644.5</ele><time>2026-04-18T09:32:21Z</time></trkpt><trkpt lat="42.28520705455638" lon="12.71995285617061"><ele>642.0</ele><time>2026-04-18T09:32:22Z</time></trkpt><trkpt lat="42.28532822802115" lon="12.720040018711801"><ele>642.0</ele><time>2026-04-18T09:32:24Z</time></trkpt><trkpt lat="42.285452662159884" lon="12.720083130111728"><ele>642.0</ele><time>2026-04-18T09:32:26Z</time></trkpt><trkpt lat="42.28551802872173" lon="12.720125369014086"><ele>642.0</ele><time>2026-04-18T09:32:27Z</time></trkpt><trkpt lat="42.28561792267789" lon="12.720186219736355"><ele>642.0</ele><time>2026-04-18T09:32:29Z</time></trkpt><trkpt lat="42.28568318967297" lon="12.720214990483225"><ele>642.0</ele><time>2026-04-18T09:32:30Z</time></trkpt><trkpt lat="42.28576781567015" lon="12.720253331617556"><ele>641.3333333333334</ele><time>2026-04-18T09:32:31Z</time></trkpt><trkpt lat="42.28584886581392" lon="12.72028086121065"><ele>640.6666666666666</ele><time>2026-04-18T09:32:32Z</time></trkpt><trkpt lat="42.28593499077916" lon="12.720279501976082"><ele>640.0</ele><time>2026-04-18T09:32:33Z</time></trkpt><trkpt lat="42.28601143937602" lon="12.720321004775274"><ele>639.3333333333333</ele><time>2026-04-18T09:32:34Z</time></trkpt><trkpt lat="42.28609935711417" lon="12.720328694202589"><ele>638.6666666666666</ele><time>2026-04-18T09:32:35Z</time></trkpt><trkpt lat="42.286189233366706" lon="12.720326777179615"><ele>638.0</ele><time>2026-04-18T09:32:36Z</time></trkpt><trkpt lat="42.2862625701392" lon="12.72035943759545"><ele>638.0</ele><time>2026-04-18T09:32:37Z</time></trkpt><trkpt lat="42.28634640004279" lon="12.720376292460164"><ele>638.0</ele><time>2026-04-18T09:32:38Z</time></trkpt><trkpt lat="42.28644129535092" lon="12.720393000933457"><ele>638.0</ele><time>2026-04-18T09:32:39Z</time></trkpt><trkpt lat="42.28653113138459" lon="12.72040235080959"><ele>638.0</ele><time>2026-04-18T09:32:40Z</time></trkpt><trkpt lat="42.28662075974835" lon="12.720387793588342"><ele>638.0</ele><time>2026-04-18T09:32:41Z</time></trkpt><trkpt lat="42.28670623699739" lon="12.720400156655984"><ele>638.0</ele><time>2026-04-18T09:32:42Z</time></trkpt><trkpt lat="42.28678866934588" lon="12.720391750765936"><ele>638.8</ele><time>2026-04-18T09:32:43Z</time></trkpt><trkpt lat="42.2869104471339" lon="12.720366206065268"><ele>639.5999999999999</ele><time>2026-04-18T09:32:45Z</time></trkpt><trkpt lat="42.286975775799704" lon="12.720355454824913"><ele>640.4000000000001</ele><time>2026-04-18T09:32:46Z</time></trkpt><trkpt lat="42.28704373295384" lon="12.720367294686262"><ele>641.2</ele><time>2026-04-18T09:32:47Z</time></trkpt><trkpt lat="42.28718570155009" lon="12.720383003010792"><ele>642.0</ele><time>2026-04-18T09:32:49Z</time></trkpt><trkpt lat="42.28726743872299" lon="12.720374136108349"><ele>642.0</ele><time>2026-04-18T09:32:50Z</time></trkpt><trkpt lat="42.28738082054541" lon="12.720399688963136"><ele>642.0</ele><time>2026-04-18T09:32:52Z</time></trkpt><trkpt lat="42.287508562134406" lon="12.720416153064093"><ele>642.0</ele><time>2026-04-18T09:32:54Z</time></trkpt><trkpt lat="42.287637311824845" lon="12.720406285066527"><ele>642.0</ele><time>2026-04-18T09:32:56Z</time></trkpt><trkpt lat="42.28770972444448" lon="12.72041244151399"><ele>642.0</ele><time>2026-04-18T09:32:57Z</time></trkpt><trkpt lat="42.28780141512679" lon="12.720385029334109"><ele>642.0</ele><time>2026-04-18T09:32:59Z</time></trkpt><trkpt lat="42.28788879613762" lon="12.720350411239062"><ele>642.0</ele><time>2026-04-18T09:33:00Z</time></trkpt><trkpt lat="42.28797281301254" lon="12.720304146278426"><ele>642.0</ele><time>2026-04-18T09:33:03Z</time></trkpt><trkpt lat="42.288041048772776" lon="12.720244789633215"><ele>642.0</ele><time>2026-04-18T09:33:07Z</time></trkpt><trkpt lat="42.28808648725098" lon="12.720172468065382"><ele>642.0</ele><time>2026-04-18T09:33:09Z</time></trkpt><trkpt lat="42.288114982626624" lon="12.720058828412972"><ele>642.0</ele><time>2026-04-18T09:33:11Z</time></trkpt><trkpt lat="42.288155379564536" lon="12.719920836588079"><ele>643.8</ele><time>2026-04-18T09:33:14Z</time></trkpt><trkpt lat="42.288184741206656" lon="12.7198251053621"><ele>645.6</ele><time>2026-04-18T09:33:16Z</time></trkpt><trkpt lat="42.288220965473094" lon="12.719718089623845"><ele>647.4</ele><time>2026-04-18T09:33:18Z</time></trkpt><trkpt lat="42.28825215407338" lon="12.71962833360986"><ele>649.1999999999999</ele><time>2026-04-18T09:33:21Z</time></trkpt><trkpt lat="42.28835606697113" lon="12.719626427929937"><ele>651.0</ele><time>2026-04-18T09:33:26Z</time></trkpt><trkpt lat="42.28845263112987" lon="12.719746264495315"><ele>651.0</ele><time>2026-04-18T09:33:28Z</time></trkpt><trkpt lat="42.28850346327078" lon="12.719815923301704"><ele>651.0</ele><time>2026-04-18T09:33:29Z</time></trkpt><trkpt lat="42.28857199079581" lon="12.719936399854392"><ele>651.0</ele><time>2026-04-18T09:33:30Z</time></trkpt><trkpt lat="42.288616100532366" lon="12.720023601519564"><ele>651.0</ele><time>2026-04-18T09:33:31Z</time></trkpt><trkpt lat="42.28867354463901" lon="12.720160065695499"><ele>651.0</ele><time>2026-04-18T09:33:33Z</time></trkpt><trkpt lat="42.28873397835578" lon="12.720306220182207"><ele>649.6666666666666</ele><time>2026-04-18T09:33:35Z</time></trkpt><trkpt lat="42.2887748832746" lon="12.720390822568142"><ele>648.3333333333334</ele><time>2026-04-18T09:33:36Z</time></trkpt><trkpt lat="42.2888200669116" lon="12.720476045886542"><ele>647.0</ele><time>2026-04-18T09:33:37Z</time></trkpt><trkpt lat="42.288862390891076" lon="12.720552438026715"><ele>645.6666666666667</ele><time>2026-04-18T09:33:38Z</time></trkpt><trkpt lat="42.28890771538249" lon="12.720624714089311"><ele>644.3333333333334</ele><time>2026-04-18T09:33:39Z</time></trkpt><trkpt lat="42.28899876847661" lon="12.720722373541268"><ele>643.0</ele><time>2026-04-18T09:33:41Z</time></trkpt><trkpt lat="42.289081920556434" lon="12.720812641333904"><ele>643.0</ele><time>2026-04-18T09:33:43Z</time></trkpt><trkpt lat="42.28913126819082" lon="12.720865996705482"><ele>643.0</ele><time>2026-04-18T09:33:44Z</time></trkpt><trkpt lat="42.28924031695235" lon="12.720936572184783"><ele>643.0</ele><time>2026-04-18T09:33:46Z</time></trkpt><trkpt lat="42.28930038504156" lon="12.720962749356596"><ele>643.0</ele><time>2026-04-18T09:33:47Z</time></trkpt><trkpt lat="42.28937898228028" lon="12.720989730456889"><ele>643.0</ele><time>2026-04-18T09:33:48Z</time></trkpt><trkpt lat="42.289450959524956" lon="12.7210102231073"><ele>643.0</ele><time>2026-04-18T09:33:49Z</time></trkpt><trkpt lat="42.289559653381424" lon="12.721021247535614"><ele>642.8</ele><time>2026-04-18T09:33:51Z</time></trkpt><trkpt lat="42.28963614050378" lon="12.72107019251606"><ele>642.5999999999999</ele><time>2026-04-18T09:33:53Z</time></trkpt><trkpt lat="42.28973604233454" lon="12.721095235790704"><ele>642.4000000000001</ele><time>2026-04-18T09:33:55Z</time></trkpt><trkpt lat="42.28985747745044" lon="12.721115162093867"><ele>642.2</ele><time>2026-04-18T09:33:57Z</time></trkpt><trkpt lat="42.28996714993593" lon="12.721126457523782"><ele>642.0</ele><time>2026-04-18T09:33:59Z</time></trkpt><trkpt lat="42.290062548441625" lon="12.721178657431247"><ele>642.0</ele><time>2026-04-18T09:34:01Z</time></trkpt><trkpt lat="42.29016383895585" lon="12.721220255894423"><ele>642.0</ele><time>2026-04-18T09:34:03Z</time></trkpt><trkpt lat="42.29022959996328" lon="12.721242789928802"><ele>642.0</ele><time>2026-04-18T09:34:04Z</time></trkpt><trkpt lat="42.290326197287655" lon="12.721259463423586"><ele>642.0</ele><time>2026-04-18T09:34:06Z</time></trkpt><trkpt lat="42.290425115974756" lon="12.721289954632306"><ele>642.0</ele><time>2026-04-18T09:34:08Z</time></trkpt><trkpt lat="42.29051395146468" lon="12.721307648355983"><ele>643.1666666666666</ele><time>2026-04-18T09:34:10Z</time></trkpt><trkpt lat="42.290609003918725" lon="12.721323977385037"><ele>644.3333333333334</ele><time>2026-04-18T09:34:12Z</time></trkpt><trkpt lat="42.29067171526364" lon="12.721332305104323"><ele>645.5</ele><time>2026-04-18T09:34:13Z</time></trkpt><trkpt lat="42.29074127197415" lon="12.721338249370431"><ele>646.6666666666667</ele><time>2026-04-18T09:34:14Z</time></trkpt><trkpt lat="42.29081665475144" lon="12.721326898394791"><ele>647.8333333333334</ele><time>2026-04-18T09:34:15Z</time></trkpt><trkpt lat="42.29093575243926" lon="12.72134866215085"><ele>649.0</ele><time>2026-04-18T09:34:17Z</time></trkpt><trkpt lat="42.291025091058" lon="12.721347242228408"><ele>649.0</ele><time>2026-04-18T09:34:18Z</time></trkpt><trkpt lat="42.29110469015326" lon="12.721291445348806"><ele>649.0</ele><time>2026-04-18T09:34:19Z</time></trkpt><trkpt lat="42.29125444441432" lon="12.721245629517648"><ele>649.0</ele><time>2026-04-18T09:34:20Z</time></trkpt><trkpt lat="42.29141007899571" lon="12.721204931374718"><ele>649.0</ele><time>2026-04-18T09:34:21Z</time></trkpt><trkpt lat="42.291511176542166" lon="12.721154830022309"><ele>649.8000000000001</ele><time>2026-04-18T09:34:22Z</time></trkpt><trkpt lat="42.291586957772296" lon="12.721131080020204"><ele>650.6</ele><time>2026-04-18T09:34:23Z</time></trkpt><trkpt lat="42.29169954793076" lon="12.721109095656272"><ele>651.4</ele><time>2026-04-18T09:34:24Z</time></trkpt><trkpt lat="42.291798639339795" lon="12.721115703349636"><ele>652.2</ele><time>2026-04-18T09:34:25Z</time></trkpt><trkpt lat="42.291878413809705" lon="12.721112089967967"><ele>653.0</ele><time>2026-04-18T09:34:26Z</time></trkpt><trkpt lat="42.29202165668405" lon="12.721101109241445"><ele>653.0</ele><time>2026-04-18T09:34:28Z</time></trkpt><trkpt lat="42.292166425320616" lon="12.721108414073923"><ele>653.0</ele><time>2026-04-18T09:34:30Z</time></trkpt><trkpt lat="42.292252422389566" lon="12.721116839459318"><ele>653.0</ele><time>2026-04-18T09:34:31Z</time></trkpt><trkpt lat="42.292350123857815" lon="12.72112656126762"><ele>653.0</ele><time>2026-04-18T09:34:32Z</time></trkpt><trkpt lat="42.292447438747665" lon="12.721141973724437"><ele>653.0</ele><time>2026-04-18T09:34:33Z</time></trkpt><trkpt lat="42.29250928094261" lon="12.721162558162591"><ele>654.3333333333333</ele><time>2026-04-18T09:34:34Z</time></trkpt><trkpt lat="42.29257904494009" lon="12.721192919812284"><ele>655.6666666666666</ele><time>2026-04-18T09:34:35Z</time></trkpt><trkpt lat="42.29266027467596" lon="12.721273166651327"><ele>657.0</ele><time>2026-04-18T09:34:36Z</time></trkpt><trkpt lat="42.29272722984956" lon="12.721344094041156"><ele>658.3333333333334</ele><time>2026-04-18T09:34:37Z</time></trkpt><trkpt lat="42.292812289060095" lon="12.721444835387372"><ele>659.6666666666667</ele><time>2026-04-18T09:34:39Z</time></trkpt><trkpt lat="42.292825914007224" lon="12.721531033897211"><ele>661.0</ele><time>2026-04-18T09:34:40Z</time></trkpt><trkpt lat="42.29286437640569" lon="12.721615823068808"><ele>661.0</ele><time>2026-04-18T09:34:41Z</time></trkpt><trkpt lat="42.29291334021539" lon="12.721771773797816"><ele>661.0</ele><time>2026-04-18T09:34:43Z</time></trkpt><trkpt lat="42.29293913991783" lon="12.721887778366654"><ele>661.0</ele><time>2026-04-18T09:34:44Z</time></trkpt><trkpt lat="42.29298043313898" lon="12.721996195060191"><ele>661.0</ele><time>2026-04-18T09:34:45Z</time></trkpt><trkpt lat="42.29300927657017" lon="12.722136543008174"><ele>661.0</ele><time>2026-04-18T09:34:47Z</time></trkpt><trkpt lat="42.293028055562395" lon="12.722220678659852"><ele>662.1999999999999</ele><time>2026-04-18T09:34:48Z</time></trkpt><trkpt lat="42.293051190207" lon="12.722352000571163"><ele>663.4</ele><time>2026-04-18T09:34:50Z</time></trkpt><trkpt lat="42.29311024571008" lon="12.722434706040852"><ele>664.6</ele><time>2026-04-18T09:34:51Z</time></trkpt><trkpt lat="42.293217509668" lon="12.72253225506106"><ele>665.8</ele><time>2026-04-18T09:34:53Z</time></trkpt><trkpt lat="42.293311852949735" lon="12.722450367854753"><ele>667.0</ele><time>2026-04-18T09:34:55Z</time></trkpt><trkpt lat="42.29342735201711" lon="12.722326623132016"><ele>667.0</ele><time>2026-04-18T09:34:57Z</time></trkpt><trkpt lat="42.29353060802315" lon="12.722184191425526"><ele>667.0</ele><time>2026-04-18T09:34:59Z</time></trkpt><trkpt lat="42.29359114840387" lon="12.722116658901951"><ele>667.0</ele><time>2026-04-18T09:35:00Z</time></trkpt><trkpt lat="42.29365937259066" lon="12.722038790455686"><ele>667.0</ele><time>2026-04-18T09:35:02Z</time></trkpt><trkpt lat="42.29374129677907" lon="12.721988729861637"><ele>667.0</ele><time>2026-04-18T09:35:07Z</time></trkpt><trkpt lat="42.293899766631895" lon="12.72210832944541"><ele>667.4000000000001</ele><time>2026-04-18T09:35:09Z</time></trkpt><trkpt lat="42.29395159914875" lon="12.722163323819762"><ele>667.8000000000001</ele><time>2026-04-18T09:35:10Z</time></trkpt><trkpt lat="42.2940133332282" lon="12.722303274364963"><ele>668.2</ele><time>2026-04-18T09:35:12Z</time></trkpt><trkpt lat="42.29404414625369" lon="12.722399154579895"><ele>668.6</ele><time>2026-04-18T09:35:13Z</time></trkpt><trkpt lat="42.2940947458785" lon="12.722488707460105"><ele>669.0</ele><time>2026-04-18T09:35:15Z</time></trkpt><trkpt lat="42.29415954330251" lon="12.722596676963338"><ele>669.0</ele><time>2026-04-18T09:35:17Z</time></trkpt><trkpt lat="42.294256468383715" lon="12.722708153024039"><ele>669.0</ele><time>2026-04-18T09:35:19Z</time></trkpt><trkpt lat="42.2943544707663" lon="12.722771876775779"><ele>669.0</ele><time>2026-04-18T09:35:21Z</time></trkpt><trkpt lat="42.29445039107319" lon="12.722806730509177"><ele>669.0</ele><time>2026-04-18T09:35:23Z</time></trkpt><trkpt lat="42.294518607278434" lon="12.722809898013079"><ele>669.0</ele><time>2026-04-18T09:35:24Z</time></trkpt><trkpt lat="42.2945794212597" lon="12.722851792716378"><ele>671.8333333333334</ele><time>2026-04-18T09:35:26Z</time></trkpt><trkpt lat="42.294576927030086" lon="12.72295797787033"><ele>674.6666666666666</ele><time>2026-04-18T09:35:29Z</time></trkpt><trkpt lat="42.29447947193829" lon="12.723023733247825"><ele>677.5</ele><time>2026-04-18T09:35:31Z</time></trkpt><trkpt lat="42.29440638384546" lon="12.723035307486823"><ele>680.3333333333333</ele><time>2026-04-18T09:35:32Z</time></trkpt><trkpt lat="42.29433368500114" lon="12.723070558535252"><ele>683.1666666666666</ele><time>2026-04-18T09:35:33Z</time></trkpt><trkpt lat="42.29425071950088" lon="12.723116173290814"><ele>686.0</ele><time>2026-04-18T09:35:34Z</time></trkpt><trkpt lat="42.294164067399564" lon="12.72319664813702"><ele>686.0</ele><time>2026-04-18T09:35:36Z</time></trkpt><trkpt lat="42.29404816142364" lon="12.723172284554332"><ele>686.0</ele><time>2026-04-18T09:35:39Z</time></trkpt><trkpt lat="42.29393229304217" lon="12.723164176809536"><ele>686.0</ele><time>2026-04-18T09:35:41Z</time></trkpt><trkpt lat="42.293866648791465" lon="12.723246672420071"><ele>686.0</ele><time>2026-04-18T09:35:42Z</time></trkpt><trkpt lat="42.29381127304741" lon="12.723289206815814"><ele>686.0</ele><time>2026-04-18T09:35:43Z</time></trkpt><trkpt lat="42.293739211148456" lon="12.723368735451896"><ele>685.3333333333333</ele><time>2026-04-18T09:35:45Z</time></trkpt><trkpt lat="42.29365491356404" lon="12.723481466359406"><ele>684.6666666666666</ele><time>2026-04-18T09:35:47Z</time></trkpt><trkpt lat="42.293600096004006" lon="12.723531202721677"><ele>684.0</ele><time>2026-04-18T09:35:48Z</time></trkpt><trkpt lat="42.29351540996854" lon="12.723642080829089"><ele>683.3333333333334</ele><time>2026-04-18T09:35:50Z</time></trkpt><trkpt lat="42.29347944442398" lon="12.72371949253787"><ele>682.6666666666667</ele><time>2026-04-18T09:35:51Z</time></trkpt><trkpt lat="42.29344989555172" lon="12.72380574928248"><ele>682.0</ele><time>2026-04-18T09:35:52Z</time></trkpt><trkpt lat="42.29336868183455" lon="12.723937097934204"><ele>683.8</ele><time>2026-04-18T09:35:54Z</time></trkpt><trkpt lat="42.29332372121917" lon="12.7240103968813"><ele>685.6</ele><time>2026-04-18T09:35:56Z</time></trkpt><trkpt lat="42.29327318270431" lon="12.72411020308788"><ele>687.4</ele><time>2026-04-18T09:35:58Z</time></trkpt><trkpt lat="42.29320052047129" lon="12.724228920353406"><ele>689.1999999999999</ele><time>2026-04-18T09:36:00Z</time></trkpt><trkpt lat="42.29309324580398" lon="12.724320936593774"><ele>691.0</ele><time>2026-04-18T09:36:02Z</time></trkpt><trkpt lat="42.293012854437606" lon="12.724366329448394"><ele>694.1666666666667</ele><time>2026-04-18T09:36:03Z</time></trkpt><trkpt lat="42.292931087979824" lon="12.72440789636139"><ele>697.3333333333334</ele><time>2026-04-18T09:36:04Z</time></trkpt><trkpt lat="42.2928604004555" lon="12.72447961420326"><ele>700.5</ele><time>2026-04-18T09:36:05Z</time></trkpt><trkpt lat="42.29279206690818" lon="12.724495305311121"><ele>703.6666666666666</ele><time>2026-04-18T09:36:06Z</time></trkpt><trkpt lat="42.29269308737525" lon="12.724523786678791"><ele>706.8333333333333</ele><time>2026-04-18T09:36:08Z</time></trkpt><trkpt lat="42.29260261077157" lon="12.724543639227235"><ele>710.0</ele><time>2026-04-18T09:36:10Z</time></trkpt><trkpt lat="42.29248387561816" lon="12.724537591027177"><ele>710.0</ele><time>2026-04-18T09:36:12Z</time></trkpt><trkpt lat="42.29242246138972" lon="12.724510892418596"><ele>710.0</ele><time>2026-04-18T09:36:13Z</time></trkpt><trkpt lat="42.292360618929415" lon="12.724489613731638"><ele>710.0</ele><time>2026-04-18T09:36:14Z</time></trkpt><trkpt lat="42.29224751954755" lon="12.724493121326274"><ele>710.0</ele><time>2026-04-18T09:36:16Z</time></trkpt><trkpt lat="42.29213864784391" lon="12.724572395517487"><ele>710.0</ele><time>2026-04-18T09:36:18Z</time></trkpt><trkpt lat="42.29207350113459" lon="12.724612557244763"><ele>710.0</ele><time>2026-04-18T09:36:21Z</time></trkpt><trkpt lat="42.29202678339487" lon="12.7246820727683"><ele>710.8571428571429</ele><time>2026-04-18T09:36:22Z</time></trkpt><trkpt lat="42.29197539031463" lon="12.72476664990934"><ele>711.7142857142858</ele><time>2026-04-18T09:36:23Z</time></trkpt><trkpt lat="42.29193975616422" lon="12.724846343379088"><ele>712.5714285714287</ele><time>2026-04-18T09:36:24Z</time></trkpt><trkpt lat="42.29191492046038" lon="12.724926442364735"><ele>713.4285714285714</ele><time>2026-04-18T09:36:25Z</time></trkpt><trkpt lat="42.29187492272218" lon="12.724993006188456"><ele>714.2857142857143</ele><time>2026-04-18T09:36:26Z</time></trkpt><trkpt lat="42.291832915949136" lon="12.725068091962841"><ele>715.1428571428572</ele><time>2026-04-18T09:36:27Z</time></trkpt><trkpt lat="42.29180419423763" lon="12.725158563255134"><ele>716.0</ele><time>2026-04-18T09:36:28Z</time></trkpt><trkpt lat="42.2917749260479" lon="12.72524710401355"><ele>716.0</ele><time>2026-04-18T09:36:29Z</time></trkpt><trkpt lat="42.291750287433054" lon="12.725380473314274"><ele>716.0</ele><time>2026-04-18T09:36:31Z</time></trkpt><trkpt lat="42.29175236656501" lon="12.725531091370494"><ele>716.0</ele><time>2026-04-18T09:36:33Z</time></trkpt><trkpt lat="42.29179835094121" lon="12.725680252188972"><ele>716.0</ele><time>2026-04-18T09:36:35Z</time></trkpt><trkpt lat="42.291802236055275" lon="12.725769275497164"><ele>716.0</ele><time>2026-04-18T09:36:36Z</time></trkpt><trkpt lat="42.29177012319015" lon="12.725851824309048"><ele>716.0</ele><time>2026-04-18T09:36:37Z</time></trkpt><trkpt lat="42.29169746520341" lon="12.725940251358077"><ele>716.0</ele><time>2026-04-18T09:36:38Z</time></trkpt><trkpt lat="42.291612710499344" lon="12.72598625456977"><ele>716.0</ele><time>2026-04-18T09:36:39Z</time></trkpt><trkpt lat="42.29151245197758" lon="12.725979670044161"><ele>716.0</ele><time>2026-04-18T09:36:40Z</time></trkpt><trkpt lat="42.29139141646738" lon="12.725982870342964"><ele>716.0</ele><time>2026-04-18T09:36:42Z</time></trkpt><trkpt lat="42.29129352517546" lon="12.72607691322538"><ele>722.25</ele><time>2026-04-18T09:36:44Z</time></trkpt><trkpt lat="42.29119175877339" lon="12.72617509194224"><ele>728.5</ele><time>2026-04-18T09:36:46Z</time></trkpt><trkpt lat="42.29112708284272" lon="12.726315851524609"><ele>734.75</ele><time>2026-04-18T09:36:48Z</time></trkpt><trkpt lat="42.29107159350797" lon="12.72644499368316"><ele>741.0</ele><time>2026-04-18T09:36:50Z</time></trkpt><trkpt lat="42.290969606496304" lon="12.726517892883296"><ele>741.0</ele><time>2026-04-18T09:36:52Z</time></trkpt><trkpt lat="42.29081697045158" lon="12.726530082407537"><ele>741.0</ele><time>2026-04-18T09:36:54Z</time></trkpt><trkpt lat="42.29074392286569" lon="12.72650106154222"><ele>741.0</ele><time>2026-04-18T09:36:55Z</time></trkpt><trkpt lat="42.29066549780885" lon="12.726491769650508"><ele>741.0</ele><time>2026-04-18T09:36:56Z</time></trkpt><trkpt lat="42.29059311947235" lon="12.726432223876515"><ele>741.0</ele><time>2026-04-18T09:36:57Z</time></trkpt><trkpt lat="42.29052364843849" lon="12.726352689997912"><ele>743.1666666666666</ele><time>2026-04-18T09:36:58Z</time></trkpt><trkpt lat="42.29045160159038" lon="12.726291320393619"><ele>745.3333333333334</ele><time>2026-04-18T09:36:59Z</time></trkpt><trkpt lat="42.290380208474716" lon="12.726273424434185"><ele>747.5</ele><time>2026-04-18T09:37:00Z</time></trkpt><trkpt lat="42.29031605381928" lon="12.726247675727016"><ele>749.6666666666667</ele><time>2026-04-18T09:37:01Z</time></trkpt><trkpt lat="42.290250376792784" lon="12.72620809099383"><ele>751.8333333333334</ele><time>2026-04-18T09:37:02Z</time></trkpt><trkpt lat="42.29015352373862" lon="12.72614896919677"><ele>754.0</ele><time>2026-04-18T09:37:03Z</time></trkpt><trkpt lat="42.29008764366766" lon="12.726114228018828"><ele>754.0</ele><time>2026-04-18T09:37:04Z</time></trkpt><trkpt lat="42.289995509394075" lon="12.726094879508912"><ele>754.0</ele><time>2026-04-18T09:37:05Z</time></trkpt><trkpt lat="42.28991491758705" lon="12.726087382638795"><ele>754.0</ele><time>2026-04-18T09:37:06Z</time></trkpt><trkpt lat="42.289838295371275" lon="12.72607478294662"><ele>754.0</ele><time>2026-04-18T09:37:07Z</time></trkpt><trkpt lat="42.28970185421802" lon="12.726058522946824"><ele>754.0</ele><time>2026-04-18T09:37:09Z</time></trkpt><trkpt lat="42.289632842308805" lon="12.726032905952122"><ele>751.0</ele><time>2026-04-18T09:37:10Z</time></trkpt><trkpt lat="42.28957127024142" lon="12.726071764306065"><ele>748.0</ele><time>2026-04-18T09:37:11Z</time></trkpt><trkpt lat="42.2894526503465" lon="12.726144440353798"><ele>745.0</ele><time>2026-04-18T09:37:13Z</time></trkpt><trkpt lat="42.28938416635811" lon="12.726230257909766"><ele>742.0</ele><time>2026-04-18T09:37:14Z</time></trkpt><trkpt lat="42.289288211790314" lon="12.72635258073636"><ele>739.0</ele><time>2026-04-18T09:37:16Z</time></trkpt><trkpt lat="42.28925002678807" lon="12.726449890620236"><ele>739.0</ele><time>2026-04-18T09:37:17Z</time></trkpt><trkpt lat="42.28920098668557" lon="12.726544942243915"><ele>739.0</ele><time>2026-04-18T09:37:18Z</time></trkpt><trkpt lat="42.28918684066445" lon="12.726727300080531"><ele>739.0</ele><time>2026-04-18T09:37:19Z</time></trkpt><trkpt lat="42.28913439662596" lon="12.726821124673316"><ele>739.0</ele><time>2026-04-18T09:37:20Z</time></trkpt><trkpt lat="42.28910753037214" lon="12.726977131896794"><ele>739.0</ele><time>2026-04-18T09:37:22Z</time></trkpt><trkpt lat="42.28910804624412" lon="12.727074208958067"><ele>739.0</ele><time>2026-04-18T09:37:24Z</time></trkpt><trkpt lat="42.28904893953374" lon="12.727181964213338"><ele>739.0</ele><time>2026-04-18T09:37:25Z</time></trkpt><trkpt lat="42.28896098395892" lon="12.727293765232394"><ele>739.0</ele><time>2026-04-18T09:37:27Z</time></trkpt><trkpt lat="42.28887236063596" lon="12.727295057460406"><ele>739.0</ele><time>2026-04-18T09:37:29Z</time></trkpt><trkpt lat="42.288803721184756" lon="12.727310921644879"><ele>739.0</ele><time>2026-04-18T09:37:30Z</time></trkpt><trkpt lat="42.28873469667198" lon="12.727331289505619"><ele>739.0</ele><time>2026-04-18T09:37:31Z</time></trkpt><trkpt lat="42.288638340862356" lon="12.727385986056829"><ele>739.0</ele><time>2026-04-18T09:37:33Z</time></trkpt><trkpt lat="42.28859789312569" lon="12.727455503059307"><ele>739.0</ele><time>2026-04-18T09:37:34Z</time></trkpt><trkpt lat="42.28853767945861" lon="12.727550808797535"><ele>739.0</ele><time>2026-04-18T09:37:36Z</time></trkpt><trkpt lat="42.28845137603242" lon="12.727636298945374"><ele>739.0</ele><time>2026-04-18T09:37:38Z</time></trkpt><trkpt lat="42.28835828754456" lon="12.72774831160054"><ele>739.0</ele><time>2026-04-18T09:37:40Z</time></trkpt><trkpt lat="42.288301537964244" lon="12.727818992441932"><ele>740.8000000000001</ele><time>2026-04-18T09:37:41Z</time></trkpt><trkpt lat="42.28824832591527" lon="12.727902563356965"><ele>742.6</ele><time>2026-04-18T09:37:42Z</time></trkpt><trkpt lat="42.28820548925942" lon="12.727988564408012"><ele>744.4</ele><time>2026-04-18T09:37:43Z</time></trkpt><trkpt lat="42.28811435791183" lon="12.728107610495353"><ele>746.2</ele><time>2026-04-18T09:37:45Z</time></trkpt><trkpt lat="42.288055425014434" lon="12.728233855072821"><ele>748.0</ele><time>2026-04-18T09:37:47Z</time></trkpt><trkpt lat="42.288009448955265" lon="12.728301092523678"><ele>748.0</ele><time>2026-04-18T09:37:48Z</time></trkpt><trkpt lat="42.28794993408866" lon="12.728384007724925"><ele>748.0</ele><time>2026-04-18T09:37:49Z</time></trkpt><trkpt lat="42.28788990797597" lon="12.728454451844183"><ele>748.0</ele><time>2026-04-18T09:37:50Z</time></trkpt><trkpt lat="42.28783945182055" lon="12.728514125074017"><ele>748.0</ele><time>2026-04-18T09:37:51Z</time></trkpt><trkpt lat="42.287749847101196" lon="12.72862657163639"><ele>748.0</ele><time>2026-04-18T09:37:53Z</time></trkpt><trkpt lat="42.28770790488853" lon="12.728694094204961"><ele>748.0</ele><time>2026-04-18T09:37:54Z</time></trkpt><trkpt lat="42.28766821667392" lon="12.728760696876877"><ele>753.8</ele><time>2026-04-18T09:37:55Z</time></trkpt><trkpt lat="42.28757976178995" lon="12.728846731534988"><ele>759.5999999999999</ele><time>2026-04-18T09:37:57Z</time></trkpt><trkpt lat="42.287546267072734" lon="12.728960078540533"><ele>765.4000000000001</ele><time>2026-04-18T09:38:00Z</time></trkpt><trkpt lat="42.28744999216385" lon="12.728984506421337"><ele>771.2</ele><time>2026-04-18T09:38:02Z</time></trkpt><trkpt lat="42.28738094329719" lon="12.728956493735161"><ele>777.0</ele><time>2026-04-18T09:38:03Z</time></trkpt><trkpt lat="42.28730211851148" lon="12.728936215883055"><ele>776.4000000000001</ele><time>2026-04-18T09:38:04Z</time></trkpt><trkpt lat="42.287187128110176" lon="12.728919534683085"><ele>775.8000000000001</ele><time>2026-04-18T09:38:06Z</time></trkpt><trkpt lat="42.28706400408026" lon="12.728982620805063"><ele>775.2</ele><time>2026-04-18T09:38:08Z</time></trkpt><trkpt lat="42.286966268028515" lon="12.728920874963292"><ele>774.6</ele><time>2026-04-18T09:38:10Z</time></trkpt><trkpt lat="42.28690491533221" lon="12.72888856135523"><ele>774.0</ele><time>2026-04-18T09:38:11Z</time></trkpt><trkpt lat="42.28682207908042" lon="12.728890893410668"><ele>774.0</ele><time>2026-04-18T09:38:12Z</time></trkpt><trkpt lat="42.286737864709096" lon="12.728909001560076"><ele>774.0</ele><time>2026-04-18T09:38:13Z</time></trkpt><trkpt lat="42.28664210619607" lon="12.728913891207858"><ele>774.0</ele><time>2026-04-18T09:38:14Z</time></trkpt><trkpt lat="42.28655320222458" lon="12.728931298528739"><ele>774.0</ele><time>2026-04-18T09:38:15Z</time></trkpt><trkpt lat="42.286481865763356" lon="12.728908812330081"><ele>774.0</ele><time>2026-04-18T09:38:16Z</time></trkpt><trkpt lat="42.28635270283838" lon="12.728955805897238"><ele>775.4000000000001</ele><time>2026-04-18T09:38:18Z</time></trkpt><trkpt lat="42.28629050866677" lon="12.72901069383477"><ele>776.8</ele><time>2026-04-18T09:38:19Z</time></trkpt><trkpt lat="42.28621128211525" lon="12.72913704709844"><ele>778.2</ele><time>2026-04-18T09:38:21Z</time></trkpt><trkpt lat="42.28612566108108" lon="12.729297757430688"><ele>779.5999999999999</ele><time>2026-04-18T09:38:23Z</time></trkpt><trkpt lat="42.286056719343684" lon="12.729377791112357"><ele>781.0</ele><time>2026-04-18T09:38:25Z</time></trkpt><trkpt lat="42.285995989259845" lon="12.729489975537263"><ele>780.9999999999999</ele><time>2026-04-18T09:38:27Z</time></trkpt><trkpt lat="42.28593988705287" lon="12.729551869683366"><ele>781.0</ele><time>2026-04-18T09:38:28Z</time></trkpt><trkpt lat="42.285884574550515" lon="12.729624963264797"><ele>781.0</ele><time>2026-04-18T09:38:29Z</time></trkpt><trkpt lat="42.285833847545554" lon="12.7296968655239"><ele>781.0</ele><time>2026-04-18T09:38:30Z</time></trkpt><trkpt lat="42.28577262943433" lon="12.729757392782613"><ele>780.9999999999999</ele><time>2026-04-18T09:38:31Z</time></trkpt><trkpt lat="42.28572191321523" lon="12.72982438523875"><ele>781.0</ele><time>2026-04-18T09:38:32Z</time></trkpt><trkpt lat="42.285642308323304" lon="12.72994683388343"><ele>781.0</ele><time>2026-04-18T09:38:34Z</time></trkpt><trkpt lat="42.28559581455944" lon="12.730039905478593"><ele>781.0</ele><time>2026-04-18T09:38:36Z</time></trkpt><trkpt lat="42.285541838175796" lon="12.730100279410419"><ele>781.0</ele><time>2026-04-18T09:38:37Z</time></trkpt><trkpt lat="42.285492382878246" lon="12.730166512541919"><ele>781.0</ele><time>2026-04-18T09:38:38Z</time></trkpt><trkpt lat="42.28544957306298" lon="12.730261028357404"><ele>781.0</ele><time>2026-04-18T09:38:39Z</time></trkpt><trkpt lat="42.285431623495604" lon="12.730362425415676"><ele>781.0</ele><time>2026-04-18T09:38:40Z</time></trkpt><trkpt lat="42.285385416518274" lon="12.730425590261575"><ele>781.0</ele><time>2026-04-18T09:38:41Z</time></trkpt><trkpt lat="42.28536489591611" lon="12.730533906949423"><ele>780.8</ele><time>2026-04-18T09:38:43Z</time></trkpt><trkpt lat="42.28539888799743" lon="12.730666462585113"><ele>780.5999999999999</ele><time>2026-04-18T09:38:45Z</time></trkpt><trkpt lat="42.285389358599566" lon="12.730796211006755"><ele>780.4</ele><time>2026-04-18T09:38:47Z</time></trkpt><trkpt lat="42.28536298105868" lon="12.730934198347276"><ele>780.2</ele><time>2026-04-18T09:38:49Z</time></trkpt><trkpt lat="42.28541627047636" lon="12.731096078147507"><ele>780.0</ele><time>2026-04-18T09:38:51Z</time></trkpt><trkpt lat="42.285430364027846" lon="12.73120288114958"><ele>780.0</ele><time>2026-04-18T09:38:52Z</time></trkpt><trkpt lat="42.28543891478925" lon="12.73134363957631"><ele>780.0</ele><time>2026-04-18T09:38:53Z</time></trkpt><trkpt lat="42.2854505200215" lon="12.731470280129454"><ele>780.0</ele><time>2026-04-18T09:38:54Z</time></trkpt><trkpt lat="42.285474137291985" lon="12.731566507979093"><ele>780.0</ele><time>2026-04-18T09:38:55Z</time></trkpt><trkpt lat="42.28549710491095" lon="12.731646950118707"><ele>780.0</ele><time>2026-04-18T09:38:56Z</time></trkpt><trkpt lat="42.28555210296007" lon="12.731766110928117"><ele>780.0</ele><time>2026-04-18T09:38:58Z</time></trkpt><trkpt lat="42.285644666326625" lon="12.731831394187834"><ele>780.6</ele><time>2026-04-18T09:39:00Z</time></trkpt><trkpt lat="42.285745403839215" lon="12.731919954911286"><ele>781.2</ele><time>2026-04-18T09:39:02Z</time></trkpt><trkpt lat="42.285831496944105" lon="12.731988554338736"><ele>781.8</ele><time>2026-04-18T09:39:04Z</time></trkpt><trkpt lat="42.2859401612497" lon="12.731998456197351"><ele>782.4</ele><time>2026-04-18T09:39:06Z</time></trkpt><trkpt lat="42.28601900987791" lon="12.732046296733367"><ele>783.0</ele><time>2026-04-18T09:39:08Z</time></trkpt><trkpt lat="42.28606935410254" lon="12.732098068609762"><ele>783.0</ele><time>2026-04-18T09:39:09Z</time></trkpt><trkpt lat="42.28615388149667" lon="12.732125374528179"><ele>783.0</ele><time>2026-04-18T09:39:11Z</time></trkpt><trkpt lat="42.286219408330695" lon="12.732108723582162"><ele>783.0</ele><time>2026-04-18T09:39:12Z</time></trkpt><trkpt lat="42.28629077763029" lon="12.732120342655303"><ele>783.0</ele><time>2026-04-18T09:39:13Z</time></trkpt><trkpt lat="42.28638871324443" lon="12.732105954627057"><ele>783.0</ele><time>2026-04-18T09:39:15Z</time></trkpt><trkpt lat="42.286468937359224" lon="12.73207889412221"><ele>783.0</ele><time>2026-04-18T09:39:17Z</time></trkpt><trkpt lat="42.28657525559114" lon="12.73218389046314"><ele>783.0</ele><time>2026-04-18T09:39:19Z</time></trkpt><trkpt lat="42.28661245712081" lon="12.732267044322274"><ele>783.0</ele><time>2026-04-18T09:39:20Z</time></trkpt><trkpt lat="42.28663842011018" lon="12.732389412646672"><ele>783.0</ele><time>2026-04-18T09:39:21Z</time></trkpt><trkpt lat="42.28668066917405" lon="12.73255609296371"><ele>783.0</ele><time>2026-04-18T09:39:22Z</time></trkpt><trkpt lat="42.286708272035824" lon="12.732663329415663"><ele>783.0</ele><time>2026-04-18T09:39:23Z</time></trkpt><trkpt lat="42.286744269823416" lon="12.732801204065321"><ele>781.0</ele><time>2026-04-18T09:39:25Z</time></trkpt><trkpt lat="42.28677164614457" lon="12.732892339611256"><ele>779.0</ele><time>2026-04-18T09:39:26Z</time></trkpt><trkpt lat="42.28678248496946" lon="12.73298406770173"><ele>777.0</ele><time>2026-04-18T09:39:27Z</time></trkpt><trkpt lat="42.2868044815224" lon="12.733081585143164"><ele>775.0</ele><time>2026-04-18T09:39:28Z</time></trkpt><trkpt lat="42.28683958351117" lon="12.733185521287991"><ele>773.0</ele><time>2026-04-18T09:39:29Z</time></trkpt><trkpt lat="42.286893259068954" lon="12.733271535987663"><ele>771.0</ele><time>2026-04-18T09:39:30Z</time></trkpt><trkpt lat="42.286939368548325" lon="12.733370952848814"><ele>771.0</ele><time>2026-04-18T09:39:31Z</time></trkpt><trkpt lat="42.28700581107074" lon="12.733458097472116"><ele>771.0</ele><time>2026-04-18T09:39:32Z</time></trkpt><trkpt lat="42.287020530749906" lon="12.73355573244515"><ele>771.0</ele><time>2026-04-18T09:39:33Z</time></trkpt><trkpt lat="42.2870250705899" lon="12.733738180194683"><ele>771.0</ele><time>2026-04-18T09:39:35Z</time></trkpt><trkpt lat="42.28706874249797" lon="12.733824236371461"><ele>771.0</ele><time>2026-04-18T09:39:36Z</time></trkpt><trkpt lat="42.287124601532526" lon="12.733877524046314"><ele>771.0</ele><time>2026-04-18T09:39:37Z</time></trkpt><trkpt lat="42.28719501631356" lon="12.73400751719817"><ele>772.5999999999999</ele><time>2026-04-18T09:39:39Z</time></trkpt><trkpt lat="42.28721997846175" lon="12.734101748614927"><ele>774.2</ele><time>2026-04-18T09:39:41Z</time></trkpt><trkpt lat="42.28729822948415" lon="12.734171124529176"><ele>775.8</ele><time>2026-04-18T09:39:43Z</time></trkpt><trkpt lat="42.28739381993662" lon="12.734198533747538"><ele>777.4000000000001</ele><time>2026-04-18T09:39:45Z</time></trkpt><trkpt lat="42.28748803157035" lon="12.734235097476063"><ele>779.0</ele><time>2026-04-18T09:39:47Z</time></trkpt><trkpt lat="42.28760200671667" lon="12.734273017505163"><ele>779.0</ele><time>2026-04-18T09:39:49Z</time></trkpt><trkpt lat="42.28768628306778" lon="12.73430170200565"><ele>779.0</ele><time>2026-04-18T09:39:50Z</time></trkpt><trkpt lat="42.287805793641375" lon="12.734316573507114"><ele>779.0</ele><time>2026-04-18T09:39:52Z</time></trkpt><trkpt lat="42.287925325783085" lon="12.734317890750262"><ele>779.0</ele><time>2026-04-18T09:39:54Z</time></trkpt><trkpt lat="42.28800025272735" lon="12.734326075299144"><ele>779.0</ele><time>2026-04-18T09:39:56Z</time></trkpt><trkpt lat="42.28806310418532" lon="12.734315741573246"><ele>781.6</ele><time>2026-04-18T09:39:57Z</time></trkpt><trkpt lat="42.28813735898363" lon="12.734327498910476"><ele>784.2</ele><time>2026-04-18T09:39:58Z</time></trkpt><trkpt lat="42.28825803150859" lon="12.734323166374272"><ele>786.8000000000001</ele><time>2026-04-18T09:40:00Z</time></trkpt><trkpt lat="42.28837222536903" lon="12.73435411568436"><ele>789.4000000000001</ele><time>2026-04-18T09:40:02Z</time></trkpt><trkpt lat="42.28848241597683" lon="12.734408907037048"><ele>792.0</ele><time>2026-04-18T09:40:04Z</time></trkpt><trkpt lat="42.2885796769037" lon="12.734498171656437"><ele>787.8</ele><time>2026-04-18T09:40:06Z</time></trkpt><trkpt lat="42.28864567375042" lon="12.734598718162355"><ele>783.6</ele><time>2026-04-18T09:40:07Z</time></trkpt><trkpt lat="42.288724851890045" lon="12.734677961984792"><ele>779.4</ele><time>2026-04-18T09:40:09Z</time></trkpt><trkpt lat="42.288818852130774" lon="12.734773046320388"><ele>775.1999999999999</ele><time>2026-04-18T09:40:11Z</time></trkpt><trkpt lat="42.28891088770933" lon="12.73484078293661"><ele>771.0</ele><time>2026-04-18T09:40:13Z</time></trkpt><trkpt lat="42.288963314984436" lon="12.734892879490415"><ele>771.0</ele><time>2026-04-18T09:40:14Z</time></trkpt><trkpt lat="42.28903321022201" lon="12.73492955126113"><ele>771.0</ele><time>2026-04-18T09:40:15Z</time></trkpt><trkpt lat="42.28910887204971" lon="12.734995969790901"><ele>771.0</ele><time>2026-04-18T09:40:16Z</time></trkpt><trkpt lat="42.2891728152229" lon="12.734993178821055"><ele>771.0</ele><time>2026-04-18T09:40:17Z</time></trkpt><trkpt lat="42.28925891917326" lon="12.73505504560313"><ele>771.0</ele><time>2026-04-18T09:40:19Z</time></trkpt><trkpt lat="42.28932684979687" lon="12.735076337155581"><ele>771.0</ele><time>2026-04-18T09:40:20Z</time></trkpt><trkpt lat="42.28938986223595" lon="12.735073637197004"><ele>771.0</ele><time>2026-04-18T09:40:21Z</time></trkpt><trkpt lat="42.2894849863791" lon="12.735095289346905"><ele>771.0</ele><time>2026-04-18T09:40:23Z</time></trkpt><trkpt lat="42.28956915078804" lon="12.73507345156686"><ele>771.0</ele><time>2026-04-18T09:40:25Z</time></trkpt><trkpt lat="42.28965562556343" lon="12.735015708431655"><ele>771.0</ele><time>2026-04-18T09:40:26Z</time></trkpt><trkpt lat="42.28973615432453" lon="12.735004835886402"><ele>771.0</ele><time>2026-04-18T09:40:27Z</time></trkpt><trkpt lat="42.28981403055995" lon="12.734989536337242"><ele>771.0</ele><time>2026-04-18T09:40:28Z</time></trkpt><trkpt lat="42.28988669037039" lon="12.73499368802534"><ele>771.4</ele><time>2026-04-18T09:40:29Z</time></trkpt><trkpt lat="42.289951636556054" lon="12.734977767363038"><ele>771.8</ele><time>2026-04-18T09:40:48Z</time></trkpt><trkpt lat="42.29005000362645" lon="12.735002916583827"><ele>772.1999999999999</ele><time>2026-04-18T09:40:50Z</time></trkpt><trkpt lat="42.290158357479015" lon="12.735011182519667"><ele>772.5999999999999</ele><time>2026-04-18T09:40:52Z</time></trkpt><trkpt lat="42.290259076344284" lon="12.734989937238177"><ele>773.0</ele><time>2026-04-18T09:40:55Z</time></trkpt><trkpt lat="42.29033525338106" lon="12.73492138073904"><ele>773.0000000000001</ele><time>2026-04-18T09:40:57Z</time></trkpt><trkpt lat="42.29040704706801" lon="12.734886735240753"><ele>773.0</ele><time>2026-04-18T09:40:59Z</time></trkpt><trkpt lat="42.290469594725366" lon="12.734955669022398"><ele>773.0</ele><time>2026-04-18T09:41:01Z</time></trkpt><trkpt lat="42.29051536764588" lon="12.735026148635017"><ele>773.0</ele><time>2026-04-18T09:41:02Z</time></trkpt><trkpt lat="42.2905681304624" lon="12.735119566424606"><ele>773.0000000000001</ele><time>2026-04-18T09:41:03Z</time></trkpt><trkpt lat="42.29059099893768" lon="12.735205942256679"><ele>773.0</ele><time>2026-04-18T09:41:04Z</time></trkpt><trkpt lat="42.29065657097905" lon="12.735358032721363"><ele>770.5000000000001</ele><time>2026-04-18T09:41:06Z</time></trkpt><trkpt lat="42.29071859250447" lon="12.735449509898343"><ele>768.0</ele><time>2026-04-18T09:41:08Z</time></trkpt><trkpt lat="42.2907145654178" lon="12.735563208204036"><ele>765.5</ele><time>2026-04-18T09:41:11Z</time></trkpt><trkpt lat="42.29068426015329" lon="12.73567355822527"><ele>763.0</ele><time>2026-04-18T09:41:13Z</time></trkpt><trkpt lat="42.29065602457935" lon="12.73578247859151"><ele>760.5</ele><time>2026-04-18T09:41:15Z</time></trkpt><trkpt lat="42.290643348034266" lon="12.735888645413059"><ele>758.0</ele><time>2026-04-18T09:41:17Z</time></trkpt><trkpt lat="42.290607301081536" lon="12.736040718620162"><ele>755.5</ele><time>2026-04-18T09:41:19Z</time></trkpt><trkpt lat="42.29061654072639" lon="12.736159899776622"><ele>753.0</ele><time>2026-04-18T09:41:21Z</time></trkpt><trkpt lat="42.29065140297291" lon="12.73629713936163"><ele>750.5</ele><time>2026-04-18T09:41:23Z</time></trkpt><trkpt lat="42.29066062753677" lon="12.7364190965825"><ele>748.0</ele><time>2026-04-18T09:41:25Z</time></trkpt><trkpt lat="42.29066250520411" lon="12.736513425000421"><ele>745.5</ele><time>2026-04-18T09:41:27Z</time></trkpt><trkpt lat="42.29066488536958" lon="12.736609566523876"><ele>743.0</ele><time>2026-04-18T09:41:29Z</time></trkpt><trkpt lat="42.29065421849702" lon="12.736704489313482"><ele>743.0</ele><time>2026-04-18T09:41:31Z</time></trkpt><trkpt lat="42.29067072404646" lon="12.736837746530894"><ele>743.0</ele><time>2026-04-18T09:41:33Z</time></trkpt><trkpt lat="42.29071306995688" lon="12.73699316290211"><ele>743.0</ele><time>2026-04-18T09:41:35Z</time></trkpt><trkpt lat="42.29078896547027" lon="12.737114351143275"><ele>743.0</ele><time>2026-04-18T09:41:37Z</time></trkpt><trkpt lat="42.29085287754264" lon="12.737261503422616"><ele>743.75</ele><time>2026-04-18T09:41:39Z</time></trkpt><trkpt lat="42.29087469199323" lon="12.737377222919575"><ele>744.5</ele><time>2026-04-18T09:41:40Z</time></trkpt><trkpt lat="42.29095231089648" lon="12.737508935240832"><ele>745.25</ele><time>2026-04-18T09:41:41Z</time></trkpt><trkpt lat="42.29102269679799" lon="12.737660416387314"><ele>746.0</ele><time>2026-04-18T09:41:42Z</time></trkpt><trkpt lat="42.291076155697326" lon="12.737787115437161"><ele>746.0</ele><time>2026-04-18T09:41:43Z</time></trkpt><trkpt lat="42.29113500026005" lon="12.737915447253286"><ele>746.0</ele><time>2026-04-18T09:41:44Z</time></trkpt><trkpt lat="42.29115503434863" lon="12.738044208066148"><ele>746.0</ele><time>2026-04-18T09:41:45Z</time></trkpt><trkpt lat="42.291189720394115" lon="12.738120515986383"><ele>746.0</ele><time>2026-04-18T09:41:46Z</time></trkpt><trkpt lat="42.29121969970457" lon="12.738203234459526"><ele>746.0</ele><time>2026-04-18T09:41:47Z</time></trkpt><trkpt lat="42.2913171170882" lon="12.73837853391432"><ele>745.5</ele><time>2026-04-18T09:41:49Z</time></trkpt><trkpt lat="42.291443891488846" lon="12.738471324828797"><ele>745.0</ele><time>2026-04-18T09:41:50Z</time></trkpt><trkpt lat="42.291529442949184" lon="12.738561228652229"><ele>744.5</ele><time>2026-04-18T09:41:51Z</time></trkpt><trkpt lat="42.29162714453833" lon="12.73864295901511"><ele>744.0</ele><time>2026-04-18T09:41:52Z</time></trkpt><trkpt lat="42.29172647621451" lon="12.738685507057312"><ele>747.4000000000001</ele><time>2026-04-18T09:41:53Z</time></trkpt><trkpt lat="42.29182579647541" lon="12.738760668950547"><ele>750.8</ele><time>2026-04-18T09:41:54Z</time></trkpt><trkpt lat="42.29194712287697" lon="12.738820555683128"><ele>754.2</ele><time>2026-04-18T09:41:55Z</time></trkpt><trkpt lat="42.292025702453806" lon="12.738865031895818"><ele>757.5999999999999</ele><time>2026-04-18T09:41:56Z</time></trkpt><trkpt lat="42.29210793096649" lon="12.738932411826031"><ele>761.0</ele><time>2026-04-18T09:41:57Z</time></trkpt><trkpt lat="42.29218765807646" lon="12.739022807906752"><ele>762.8</ele><time>2026-04-18T09:41:58Z</time></trkpt><trkpt lat="42.29226581411627" lon="12.739120904751916"><ele>764.5999999999999</ele><time>2026-04-18T09:41:59Z</time></trkpt><trkpt lat="42.29235300340123" lon="12.739241424186723"><ele>766.4</ele><time>2026-04-18T09:42:00Z</time></trkpt><trkpt lat="42.29244083977212" lon="12.739347864212942"><ele>768.2</ele><time>2026-04-18T09:42:01Z</time></trkpt><trkpt lat="42.292496385263725" lon="12.739421123888555"><ele>770.0</ele><time>2026-04-18T09:42:02Z</time></trkpt><trkpt lat="42.29258433806297" lon="12.739473994132036"><ele>770.0</ele><time>2026-04-18T09:42:03Z</time></trkpt><trkpt lat="42.29269959682171" lon="12.739532532157407"><ele>770.0</ele><time>2026-04-18T09:42:04Z</time></trkpt><trkpt lat="42.292808426983825" lon="12.739576260146375"><ele>770.0</ele><time>2026-04-18T09:42:05Z</time></trkpt><trkpt lat="42.29288546389142" lon="12.739637150213134"><ele>770.0</ele><time>2026-04-18T09:42:06Z</time></trkpt><trkpt lat="42.29295088884327" lon="12.739696145838623"><ele>770.0</ele><time>2026-04-18T09:42:07Z</time></trkpt><trkpt lat="42.29301499940073" lon="12.739757977186422"><ele>770.0000000000001</ele><time>2026-04-18T09:42:08Z</time></trkpt><trkpt lat="42.293078314814544" lon="12.739826466955478"><ele>770.0</ele><time>2026-04-18T09:42:09Z</time></trkpt><trkpt lat="42.29313475343122" lon="12.739899397038085"><ele>770.0</ele><time>2026-04-18T09:42:10Z</time></trkpt><trkpt lat="42.29318660498337" lon="12.739985501524993"><ele>770.0</ele><time>2026-04-18T09:42:11Z</time></trkpt><trkpt lat="42.2932303172513" lon="12.740080258378415"><ele>770.0000000000001</ele><time>2026-04-18T09:42:12Z</time></trkpt><trkpt lat="42.29328316609901" lon="12.740219754510157"><ele>770.0</ele><time>2026-04-18T09:42:13Z</time></trkpt><trkpt lat="42.29332633194812" lon="12.740417328725227"><ele>768.8333333333334</ele><time>2026-04-18T09:42:14Z</time></trkpt><trkpt lat="42.29333203790338" lon="12.740542291052119"><ele>767.6666666666667</ele><time>2026-04-18T09:42:15Z</time></trkpt><trkpt lat="42.29334297769292" lon="12.740628783964228"><ele>766.5</ele><time>2026-04-18T09:42:16Z</time></trkpt><trkpt lat="42.293365914802855" lon="12.740728203971688"><ele>765.3333333333334</ele><time>2026-04-18T09:42:17Z</time></trkpt><trkpt lat="42.29335843868224" lon="12.740893801344662"><ele>764.1666666666667</ele><time>2026-04-18T09:42:19Z</time></trkpt><trkpt lat="42.293350422560984" lon="12.741003597993062"><ele>763.0</ele><time>2026-04-18T09:42:20Z</time></trkpt><trkpt lat="42.29336180756897" lon="12.741104202158574"><ele>762.6666666666667</ele><time>2026-04-18T09:42:21Z</time></trkpt><trkpt lat="42.29339880815923" lon="12.741193496275926"><ele>762.3333333333334</ele><time>2026-04-18T09:42:22Z</time></trkpt><trkpt lat="42.29346587578059" lon="12.741261383402831"><ele>762.0</ele><time>2026-04-18T09:42:23Z</time></trkpt><trkpt lat="42.29352672696945" lon="12.74132446185725"><ele>761.6666666666666</ele><time>2026-04-18T09:42:24Z</time></trkpt><trkpt lat="42.29358415114837" lon="12.741378629802261"><ele>761.3333333333333</ele><time>2026-04-18T09:42:25Z</time></trkpt><trkpt lat="42.293666342765505" lon="12.7414549952359"><ele>761.0</ele><time>2026-04-18T09:42:27Z</time></trkpt><trkpt lat="42.293724496572146" lon="12.741512354931432"><ele>761.0</ele><time>2026-04-18T09:42:28Z</time></trkpt><trkpt lat="42.29378298350924" lon="12.741582954283825"><ele>761.0</ele><time>2026-04-18T09:42:30Z</time></trkpt><trkpt lat="42.29373355837402" lon="12.741745014451624"><ele>761.0</ele><time>2026-04-18T09:42:33Z</time></trkpt><trkpt lat="42.29374164531536" lon="12.74183847163126"><ele>761.0</ele><time>2026-04-18T09:42:34Z</time></trkpt><trkpt lat="42.29379230343914" lon="12.741980562915042"><ele>761.0</ele><time>2026-04-18T09:42:36Z</time></trkpt><trkpt lat="42.2938263131006" lon="12.742065587880587"><ele>760.1666666666666</ele><time>2026-04-18T09:42:37Z</time></trkpt><trkpt lat="42.29388055653822" lon="12.74210939351851"><ele>759.3333333333333</ele><time>2026-04-18T09:42:38Z</time></trkpt><trkpt lat="42.293956693754325" lon="12.742089298793752"><ele>758.5</ele><time>2026-04-18T09:42:39Z</time></trkpt><trkpt lat="42.294015753158234" lon="12.741985529860695"><ele>757.6666666666666</ele><time>2026-04-18T09:42:40Z</time></trkpt><trkpt lat="42.294091778979414" lon="12.741959815162579"><ele>756.8333333333334</ele><time>2026-04-18T09:42:41Z</time></trkpt><trkpt lat="42.294181578273225" lon="12.741917452846135"><ele>756.0</ele><time>2026-04-18T09:42:42Z</time></trkpt><trkpt lat="42.294281022008875" lon="12.741874353015712"><ele>755.6666666666666</ele><time>2026-04-18T09:42:43Z</time></trkpt><trkpt lat="42.29438103478469" lon="12.74183284315329"><ele>755.3333333333334</ele><time>2026-04-18T09:42:44Z</time></trkpt><trkpt lat="42.29447856395156" lon="12.741800154547553"><ele>755.0</ele><time>2026-04-18T09:42:45Z</time></trkpt><trkpt lat="42.29457354428874" lon="12.741793487812503"><ele>754.6666666666667</ele><time>2026-04-18T09:42:46Z</time></trkpt><trkpt lat="42.294656066764794" lon="12.74179394788447"><ele>754.3333333333334</ele><time>2026-04-18T09:42:47Z</time></trkpt><trkpt lat="42.29472078996112" lon="12.741796728928003"><ele>754.0</ele><time>2026-04-18T09:42:48Z</time></trkpt><trkpt lat="42.294786572931486" lon="12.741801381750742"><ele>754.0</ele><time>2026-04-18T09:42:49Z</time></trkpt><trkpt lat="42.294913976559336" lon="12.741817153365812"><ele>754.0</ele><time>2026-04-18T09:42:51Z</time></trkpt><trkpt lat="42.295003148299095" lon="12.741838448554812"><ele>754.0</ele><time>2026-04-18T09:42:53Z</time></trkpt><trkpt lat="42.29504202599632" lon="12.741906310054585"><ele>754.0</ele><time>2026-04-18T10:11:35Z</time></trkpt><trkpt lat="42.295091445390455" lon="12.742012644562152"><ele>754.0</ele><time>2026-04-18T10:16:24.999Z</time></trkpt><trkpt lat="42.29517516117711" lon="12.742057875304077"><ele>755.8000000000001</ele><time>2026-04-18T10:16:26.999Z</time></trkpt><trkpt lat="42.295287134966394" lon="12.742062942861466"><ele>757.6</ele><time>2026-04-18T10:16:28.999Z</time></trkpt><trkpt lat="42.295380432944086" lon="12.742081397220538"><ele>759.4</ele><time>2026-04-18T10:16:30.999Z</time></trkpt><trkpt lat="42.29545746640268" lon="12.742112905846922"><ele>761.2</ele><time>2026-04-18T10:16:32.999Z</time></trkpt><trkpt lat="42.29552227749791" lon="12.742160545913276"><ele>763.0</ele><time>2026-04-18T10:16:34.999Z</time></trkpt><trkpt lat="42.295617124230745" lon="12.742202722239076"><ele>764.2</ele><time>2026-04-18T10:16:36.999Z</time></trkpt><trkpt lat="42.2957343919046" lon="12.74222995903519"><ele>765.4</ele><time>2026-04-18T10:16:38.999Z</time></trkpt><trkpt lat="42.295817702992565" lon="12.742260861950209"><ele>766.6</ele><time>2026-04-18T10:16:40.999Z</time></trkpt><trkpt lat="42.295884860109275" lon="12.742309859496526"><ele>767.8000000000001</ele><time>2026-04-18T10:16:42.999Z</time></trkpt><trkpt lat="42.295949422891155" lon="12.742421526177957"><ele>769.0</ele><time>2026-04-18T10:16:44.999Z</time></trkpt><trkpt lat="42.295972579149364" lon="12.742530117222522"><ele>769.0</ele><time>2026-04-18T10:16:46.999Z</time></trkpt><trkpt lat="42.29593816929535" lon="12.742650438596904"><ele>769.0</ele><time>2026-04-18T10:16:48.999Z</time></trkpt><trkpt lat="42.295879358701896" lon="12.742762814894604"><ele>769.0</ele><time>2026-04-18T10:16:50.999Z</time></trkpt><trkpt lat="42.295808478587034" lon="12.742889484581134"><ele>769.0</ele><time>2026-04-18T10:16:52.999Z</time></trkpt><trkpt lat="42.29576193098476" lon="12.742947816940601"><ele>769.0</ele><time>2026-04-18T10:16:53.999Z</time></trkpt><trkpt lat="42.29571271392681" lon="12.743022078176722"><ele>769.6</ele><time>2026-04-18T10:16:54.999Z</time></trkpt><trkpt lat="42.295655323802244" lon="12.743127877577235"><ele>770.2</ele><time>2026-04-18T10:16:56.999Z</time></trkpt><trkpt lat="42.29561782699066" lon="12.74328194164341"><ele>770.8000000000001</ele><time>2026-04-18T10:16:58.999Z</time></trkpt><trkpt lat="42.29558578277466" lon="12.743388123758361"><ele>771.4000000000001</ele><time>2026-04-18T10:16:59.999Z</time></trkpt><trkpt lat="42.29555985467665" lon="12.74348962133968"><ele>772.0</ele><time>2026-04-18T10:17:00.999Z</time></trkpt><trkpt lat="42.2955346852655" lon="12.743605890797276"><ele>775.0</ele><time>2026-04-18T10:17:01.999Z</time></trkpt><trkpt lat="42.29551407999459" lon="12.743739952750913"><ele>778.0</ele><time>2026-04-18T10:17:02.999Z</time></trkpt><trkpt lat="42.295487008736536" lon="12.74390098423913"><ele>781.0</ele><time>2026-04-18T10:17:03.999Z</time></trkpt><trkpt lat="42.29546479828538" lon="12.744079120769474"><ele>784.0</ele><time>2026-04-18T10:17:04.999Z</time></trkpt><trkpt lat="42.2954525653063" lon="12.744231244857671"><ele>787.4000000000001</ele><time>2026-04-18T10:17:05.999Z</time></trkpt><trkpt lat="42.295450027240335" lon="12.744386308493574"><ele>790.8</ele><time>2026-04-18T10:17:06.999Z</time></trkpt><trkpt lat="42.295438807819004" lon="12.744523767988014"><ele>794.2</ele><time>2026-04-18T10:17:07.999Z</time></trkpt><trkpt lat="42.29542036864168" lon="12.744649583484735"><ele>797.5999999999999</ele><time>2026-04-18T10:17:08.999Z</time></trkpt><trkpt lat="42.29540099051258" lon="12.744794083802212"><ele>801.0</ele><time>2026-04-18T10:17:09.999Z</time></trkpt><trkpt lat="42.2953895929345" lon="12.744887887833173"><ele>801.0</ele><time>2026-04-18T10:17:10.999Z</time></trkpt><trkpt lat="42.295376583595825" lon="12.744986775265527"><ele>801.0</ele><time>2026-04-18T10:17:11.999Z</time></trkpt><trkpt lat="42.2953388330553" lon="12.745139021574966"><ele>801.0</ele><time>2026-04-18T10:17:13.999Z</time></trkpt><trkpt lat="42.29526996407614" lon="12.745237855359422"><ele>801.0</ele><time>2026-04-18T10:17:15.999Z</time></trkpt><trkpt lat="42.29514681129632" lon="12.74529370537747"><ele>801.0</ele><time>2026-04-18T10:17:17.999Z</time></trkpt><trkpt lat="42.29505325086809" lon="12.745334108732271"><ele>802.3333333333334</ele><time>2026-04-18T10:17:18.999Z</time></trkpt><trkpt lat="42.29496842688692" lon="12.745371123492125"><ele>803.6666666666667</ele><time>2026-04-18T10:17:19.999Z</time></trkpt><trkpt lat="42.29489691727289" lon="12.745375572121054"><ele>805.0</ele><time>2026-04-18T10:17:20.999Z</time></trkpt><trkpt lat="42.2948312974977" lon="12.745476109403766"><ele>806.3333333333334</ele><time>2026-04-18T10:17:22.999Z</time></trkpt><trkpt lat="42.29480010520636" lon="12.74555602230289"><ele>807.6666666666667</ele><time>2026-04-18T10:17:23.999Z</time></trkpt><trkpt lat="42.29477145075803" lon="12.745639015844445"><ele>809.0</ele><time>2026-04-18T10:17:24.999Z</time></trkpt><trkpt lat="42.294745120499975" lon="12.745721198673696"><ele>810.0</ele><time>2026-04-18T10:17:25.999Z</time></trkpt><trkpt lat="42.29473770886071" lon="12.745845943301928"><ele>811.0</ele><time>2026-04-18T10:17:27.999Z</time></trkpt><trkpt lat="42.29473559912365" lon="12.745970923684617"><ele>812.0</ele><time>2026-04-18T10:17:29.999Z</time></trkpt><trkpt lat="42.29470501814548" lon="12.746063389073246"><ele>813.0</ele><time>2026-04-18T10:17:31.999Z</time></trkpt><trkpt lat="42.29462960761327" lon="12.746197117528393"><ele>814.0</ele><time>2026-04-18T10:17:34Z</time></trkpt><trkpt lat="42.29456910365924" lon="12.746323485488713"><ele>815.8333333333333</ele><time>2026-04-18T10:17:36Z</time></trkpt><trkpt lat="42.294513401995644" lon="12.746435531963769"><ele>817.6666666666666</ele><time>2026-04-18T10:17:38Z</time></trkpt><trkpt lat="42.2944709697168" lon="12.746500827670989"><ele>819.5</ele><time>2026-04-18T10:17:39Z</time></trkpt><trkpt lat="42.29445222058844" lon="12.74660898896049"><ele>821.3333333333333</ele><time>2026-04-18T10:17:40Z</time></trkpt><trkpt lat="42.29445187556934" lon="12.746743063910134"><ele>823.1666666666666</ele><time>2026-04-18T10:17:42Z</time></trkpt><trkpt lat="42.29443109673415" lon="12.746838529641442"><ele>825.0</ele><time>2026-04-18T10:17:43Z</time></trkpt><trkpt lat="42.29441625180383" lon="12.746939457262453"><ele>827.0</ele><time>2026-04-18T10:17:44Z</time></trkpt><trkpt lat="42.294413386772305" lon="12.74702602498618"><ele>829.0</ele><time>2026-04-18T10:17:45Z</time></trkpt><trkpt lat="42.29443982989925" lon="12.747186050960154"><ele>831.0</ele><time>2026-04-18T10:17:47Z</time></trkpt><trkpt lat="42.294479468735304" lon="12.747276636032886"><ele>833.0</ele><time>2026-04-18T10:17:48Z</time></trkpt><trkpt lat="42.29451457869708" lon="12.74734837742593"><ele>835.0</ele><time>2026-04-18T10:17:49Z</time></trkpt><trkpt lat="42.29457688136297" lon="12.747402408915116"><ele>837.0</ele><time>2026-04-18T10:17:50Z</time></trkpt><trkpt lat="42.294653004837365" lon="12.747470351701502"><ele>837.0</ele><time>2026-04-18T10:17:52Z</time></trkpt><trkpt lat="42.294711916159635" lon="12.747609771385115"><ele>837.0</ele><time>2026-04-18T10:17:54Z</time></trkpt><trkpt lat="42.294746349416336" lon="12.747749381575153"><ele>837.0</ele><time>2026-04-18T10:17:56Z</time></trkpt><trkpt lat="42.2947312650876" lon="12.747921325125912"><ele>837.0</ele><time>2026-04-18T10:17:58Z</time></trkpt><trkpt lat="42.29472699728883" lon="12.748014583442735"><ele>837.0</ele><time>2026-04-18T10:17:59Z</time></trkpt><trkpt lat="42.294710637781826" lon="12.748102039657677"><ele>836.8571428571429</ele><time>2026-04-18T10:18:00Z</time></trkpt><trkpt lat="42.29469791485973" lon="12.748208951622969"><ele>836.7142857142858</ele><time>2026-04-18T10:18:01Z</time></trkpt><trkpt lat="42.294685959983475" lon="12.748295641435385"><ele>836.5714285714286</ele><time>2026-04-18T10:18:02Z</time></trkpt><trkpt lat="42.294649718114016" lon="12.74837039002143"><ele>836.4285714285714</ele><time>2026-04-18T10:18:03Z</time></trkpt><trkpt lat="42.294592479168315" lon="12.748435981423434"><ele>836.2857142857142</ele><time>2026-04-18T10:18:04Z</time></trkpt><trkpt lat="42.29452247802596" lon="12.748493418768577"><ele>836.1428571428571</ele><time>2026-04-18T10:18:05Z</time></trkpt><trkpt lat="42.294462705433965" lon="12.748533690481072"><ele>836.0</ele><time>2026-04-18T10:18:06Z</time></trkpt><trkpt lat="42.294392505032384" lon="12.74856398271293"><ele>836.0</ele><time>2026-04-18T10:18:07Z</time></trkpt><trkpt lat="42.29432021769084" lon="12.748605257491663"><ele>836.0</ele><time>2026-04-18T10:18:08Z</time></trkpt><trkpt lat="42.29424462885728" lon="12.748650373002736"><ele>836.0</ele><time>2026-04-18T10:18:09Z</time></trkpt><trkpt lat="42.294180068780285" lon="12.748685480356299"><ele>836.0</ele><time>2026-04-18T10:18:10Z</time></trkpt><trkpt lat="42.29408059712858" lon="12.748778867980745"><ele>836.0</ele><time>2026-04-18T10:18:12Z</time></trkpt><trkpt lat="42.29402260494701" lon="12.748892715009898"><ele>836.0</ele><time>2026-04-18T10:18:13.999Z</time></trkpt><trkpt lat="42.294015770570496" lon="12.74910126918236"><ele>836.0</ele><time>2026-04-18T10:18:15.999Z</time></trkpt><trkpt lat="42.29403263001668" lon="12.749247211609456"><ele>836.0</ele><time>2026-04-18T10:18:16.999Z</time></trkpt><trkpt lat="42.29406017352405" lon="12.749337229729187"><ele>836.0</ele><time>2026-04-18T10:18:17.999Z</time></trkpt><trkpt lat="42.29409097422479" lon="12.749440137169694"><ele>836.0</ele><time>2026-04-18T10:18:18.999Z</time></trkpt><trkpt lat="42.294112742936974" lon="12.749526494441422"><ele>835.6666666666667</ele><time>2026-04-18T10:18:19.999Z</time></trkpt><trkpt lat="42.294114187114666" lon="12.749630249360107"><ele>835.3333333333334</ele><time>2026-04-18T10:18:20.999Z</time></trkpt><trkpt lat="42.294139553849135" lon="12.749725544689898"><ele>835.0</ele><time>2026-04-18T10:18:21.999Z</time></trkpt><trkpt lat="42.294171432107625" lon="12.749801475480885"><ele>834.6666666666667</ele><time>2026-04-18T10:18:22.999Z</time></trkpt><trkpt lat="42.29420407269024" lon="12.74987823281624"><ele>834.3333333333334</ele><time>2026-04-18T10:18:23.999Z</time></trkpt><trkpt lat="42.294208940420255" lon="12.750055681471567"><ele>834.0</ele><time>2026-04-18T10:18:25.999Z</time></trkpt><trkpt lat="42.294220116370795" lon="12.75014920738378"><ele>833.6666666666666</ele><time>2026-04-18T10:18:26.999Z</time></trkpt><trkpt lat="42.29423187262805" lon="12.750234352897168"><ele>833.3333333333333</ele><time>2026-04-18T10:18:27.999Z</time></trkpt><trkpt lat="42.29421885008047" lon="12.75038028482354"><ele>833.0</ele><time>2026-04-18T10:18:29.999Z</time></trkpt><trkpt lat="42.29424010399788" lon="12.750502918475561"><ele>832.6666666666666</ele><time>2026-04-18T10:18:31.999Z</time></trkpt><trkpt lat="42.29429999714135" lon="12.750550559184713"><ele>832.3333333333333</ele><time>2026-04-18T10:18:33.999Z</time></trkpt><trkpt lat="42.29437780860717" lon="12.750512749378675"><ele>832.0</ele><time>2026-04-18T10:18:35.999Z</time></trkpt><trkpt lat="42.294500741845674" lon="12.75048274459747"><ele>832.0</ele><time>2026-04-18T10:18:37.999Z</time></trkpt><trkpt lat="42.294589651849755" lon="12.750461619044913"><ele>832.0</ele><time>2026-04-18T10:18:39.999Z</time></trkpt><trkpt lat="42.294705835144164" lon="12.75047115401101"><ele>832.0</ele><time>2026-04-18T10:18:41.999Z</time></trkpt><trkpt lat="42.29477679787605" lon="12.750455404290841"><ele>832.0</ele><time>2026-04-18T10:18:42.999Z</time></trkpt><trkpt lat="42.29487197744437" lon="12.750453720247254"><ele>832.0</ele><time>2026-04-18T10:18:44.999Z</time></trkpt><trkpt lat="42.294968268946796" lon="12.750450351097912"><ele>833.1666666666666</ele><time>2026-04-18T10:18:46.999Z</time></trkpt><trkpt lat="42.29508043427082" lon="12.750451927170742"><ele>834.3333333333333</ele><time>2026-04-18T10:18:48.999Z</time></trkpt><trkpt lat="42.29514718070434" lon="12.750437067274035"><ele>835.5</ele><time>2026-04-18T10:18:49.999Z</time></trkpt><trkpt lat="42.295263691895705" lon="12.75038522971353"><ele>836.6666666666667</ele><time>2026-04-18T10:18:51.999Z</time></trkpt><trkpt lat="42.29533426776897" lon="12.750360777228956"><ele>837.8333333333334</ele><time>2026-04-18T10:18:52.999Z</time></trkpt><trkpt lat="42.29539704684561" lon="12.750325888756327"><ele>839.0</ele><time>2026-04-18T10:18:53.999Z</time></trkpt><trkpt lat="42.295472645615796" lon="12.750297241572222"><ele>839.0000000000001</ele><time>2026-04-18T10:18:54.999Z</time></trkpt><trkpt lat="42.295546642602176" lon="12.750297352921727"><ele>839.0</ele><time>2026-04-18T10:18:55.999Z</time></trkpt><trkpt lat="42.295658511302875" lon="12.750314820116193"><ele>839.0</ele><time>2026-04-18T10:18:57.999Z</time></trkpt><trkpt lat="42.29574357680225" lon="12.750248408960374"><ele>839.0</ele><time>2026-04-18T10:18:59.999Z</time></trkpt><trkpt lat="42.29579603967307" lon="12.750178646452806"><ele>839.0000000000001</ele><time>2026-04-18T10:19:00.999Z</time></trkpt><trkpt lat="42.2958754409181" lon="12.750126980447533"><ele>839.0</ele><time>2026-04-18T10:19:01.999Z</time></trkpt><trkpt lat="42.29594047312594" lon="12.750064209471924"><ele>836.8333333333334</ele><time>2026-04-18T10:19:02.999Z</time></trkpt><trkpt lat="42.296000135574864" lon="12.750015188394151"><ele>834.6666666666667</ele><time>2026-04-18T10:19:03.999Z</time></trkpt><trkpt lat="42.296066030678865" lon="12.7499836934612"><ele>832.5</ele><time>2026-04-18T10:19:04.999Z</time></trkpt><trkpt lat="42.29613524722863" lon="12.749965731473004"><ele>830.3333333333333</ele><time>2026-04-18T10:19:05.999Z</time></trkpt><trkpt lat="42.29625883998728" lon="12.749979900129414"><ele>828.1666666666666</ele><time>2026-04-18T10:19:07.999Z</time></trkpt><trkpt lat="42.29634514463195" lon="12.750043698389689"><ele>826.0</ele><time>2026-04-18T10:19:09.999Z</time></trkpt><trkpt lat="42.296394518982275" lon="12.75010187284839"><ele>826.8</ele><time>2026-04-18T10:19:10.999Z</time></trkpt><trkpt lat="42.29645137505222" lon="12.750161186225725"><ele>827.5999999999999</ele><time>2026-04-18T10:19:11.999Z</time></trkpt><trkpt lat="42.296506682414986" lon="12.750212447193935"><ele>828.4</ele><time>2026-04-18T10:19:12.999Z</time></trkpt><trkpt lat="42.2966167416403" lon="12.750226424020743"><ele>829.2</ele><time>2026-04-18T10:19:14.999Z</time></trkpt><trkpt lat="42.29674718749922" lon="12.75022763921792"><ele>830.0</ele><time>2026-04-18T10:19:16.999Z</time></trkpt><trkpt lat="42.29681588771268" lon="12.750245189251736"><ele>829.8</ele><time>2026-04-18T10:19:17.999Z</time></trkpt><trkpt lat="42.29689125946041" lon="12.750247032942076"><ele>829.6</ele><time>2026-04-18T10:19:18.999Z</time></trkpt><trkpt lat="42.296995509129886" lon="12.750234411799752"><ele>829.4000000000001</ele><time>2026-04-18T10:19:19.999Z</time></trkpt><trkpt lat="42.29710264723776" lon="12.750225125321325"><ele>829.2</ele><time>2026-04-18T10:19:20.999Z</time></trkpt><trkpt lat="42.29720519699534" lon="12.750210401748495"><ele>829.0</ele><time>2026-04-18T10:19:22.999Z</time></trkpt><trkpt lat="42.29732076358787" lon="12.750205727623285"><ele>828.9999999999999</ele><time>2026-04-18T10:19:24.999Z</time></trkpt><trkpt lat="42.29738829578396" lon="12.750184924105584"><ele>829.0</ele><time>2026-04-18T10:19:25.999Z</time></trkpt><trkpt lat="42.29745071819958" lon="12.75016267190152"><ele>829.0</ele><time>2026-04-18T10:19:26.999Z</time></trkpt><trkpt lat="42.29755564949989" lon="12.750110072022707"><ele>829.0</ele><time>2026-04-18T10:19:28.999Z</time></trkpt><trkpt lat="42.29763580735003" lon="12.750089505675367"><ele>828.9999999999999</ele><time>2026-04-18T10:19:30.999Z</time></trkpt><trkpt lat="42.29769808158945" lon="12.750106493926678"><ele>829.0</ele><time>2026-04-18T10:19:31.999Z</time></trkpt><trkpt lat="42.29775797689231" lon="12.750135285532227"><ele>828.9999999999999</ele><time>2026-04-18T10:19:32.999Z</time></trkpt><trkpt lat="42.2978067109513" lon="12.750197222697336"><ele>829.0</ele><time>2026-04-18T10:19:33.999Z</time></trkpt><trkpt lat="42.29785512084639" lon="12.750315608217539"><ele>829.0</ele><time>2026-04-18T10:19:34.999Z</time></trkpt><trkpt lat="42.297910077132336" lon="12.750425928041507"><ele>829.0</ele><time>2026-04-18T10:19:35.999Z</time></trkpt><trkpt lat="42.297965231582225" lon="12.750488226824503"><ele>828.9999999999999</ele><time>2026-04-18T10:19:36.999Z</time></trkpt><trkpt lat="42.29803672387435" lon="12.75057728977215"><ele>829.0</ele><time>2026-04-18T10:19:38.999Z</time></trkpt><trkpt lat="42.298057377777745" lon="12.750667133874416"><ele>829.0</ele><time>2026-04-18T10:19:41.999Z</time></trkpt><trkpt lat="42.29811923246156" lon="12.750732935528209"><ele>829.0</ele><time>2026-04-18T10:20:01.999Z</time></trkpt><trkpt lat="42.2981753576713" lon="12.750793454031506"><ele>829.0</ele><time>2026-04-18T10:20:03.999Z</time></trkpt><trkpt lat="42.29825802953258" lon="12.750867846976512"><ele>829.0</ele><time>2026-04-18T10:20:05.999Z</time></trkpt><trkpt lat="42.2983579779544" lon="12.750976410380105"><ele>829.0</ele><time>2026-04-18T10:20:07.999Z</time></trkpt><trkpt lat="42.29843169005833" lon="12.751104029711158"><ele>831.6</ele><time>2026-04-18T10:20:09.999Z</time></trkpt><trkpt lat="42.2984721154171" lon="12.751183547232417"><ele>834.2</ele><time>2026-04-18T10:20:10.999Z</time></trkpt><trkpt lat="42.29850897090361" lon="12.751262889461007"><ele>836.8000000000001</ele><time>2026-04-18T10:20:11.999Z</time></trkpt><trkpt lat="42.29862189829895" lon="12.751361873587642"><ele>839.4000000000001</ele><time>2026-04-18T10:20:13.999Z</time></trkpt><trkpt lat="42.29870463188099" lon="12.751395182698458"><ele>842.0</ele><time>2026-04-18T10:20:14.999Z</time></trkpt><trkpt lat="42.29880617489367" lon="12.751491951140475"><ele>842.0</ele><time>2026-04-18T10:20:16.999Z</time></trkpt><trkpt lat="42.298858752627794" lon="12.75167926573958"><ele>842.0</ele><time>2026-04-18T10:20:18.999Z</time></trkpt><trkpt lat="42.298903583005604" lon="12.751789196695347"><ele>842.0</ele><time>2026-04-18T10:20:19.999Z</time></trkpt><trkpt lat="42.29896510703464" lon="12.751862788561004"><ele>842.0</ele><time>2026-04-18T10:20:20.999Z</time></trkpt><trkpt lat="42.29902606435504" lon="12.751930584765397"><ele>842.0</ele><time>2026-04-18T10:20:21.999Z</time></trkpt><trkpt lat="42.29908614258614" lon="12.751992258852592"><ele>838.6666666666667</ele><time>2026-04-18T10:20:22.999Z</time></trkpt><trkpt lat="42.29915281981205" lon="12.75205595132163"><ele>835.3333333333334</ele><time>2026-04-18T10:20:24.999Z</time></trkpt><trkpt lat="42.29923864452649" lon="12.752081889174287"><ele>832.0</ele><time>2026-04-18T10:20:26.999Z</time></trkpt><trkpt lat="42.29932958483383" lon="12.752052980868815"><ele>828.6666666666667</ele><time>2026-04-18T10:20:28.999Z</time></trkpt><trkpt lat="42.29939719026476" lon="12.752032332280573"><ele>825.3333333333334</ele><time>2026-04-18T10:20:31.999Z</time></trkpt><trkpt lat="42.29946378083873" lon="12.751978211719413"><ele>822.0</ele><time>2026-04-18T10:20:52.999Z</time></trkpt><trkpt lat="42.29952961461795" lon="12.751963615026847"><ele>822.0</ele><time>2026-04-18T10:20:53.999Z</time></trkpt><trkpt lat="42.29961161369605" lon="12.751987481030373"><ele>822.0</ele><time>2026-04-18T10:20:54.999Z</time></trkpt><trkpt lat="42.299706369045666" lon="12.751999165117823"><ele>822.0</ele><time>2026-04-18T10:20:55.999Z</time></trkpt><trkpt lat="42.29978678921984" lon="12.751981243210649"><ele>822.0</ele><time>2026-04-18T10:20:56.999Z</time></trkpt><trkpt lat="42.29985015580358" lon="12.751943792304969"><ele>822.0</ele><time>2026-04-18T10:20:57.999Z</time></trkpt><trkpt lat="42.29991274339427" lon="12.751905216545515"><ele>822.0</ele><time>2026-04-18T10:20:58.999Z</time></trkpt><trkpt lat="42.2999969453476" lon="12.75193122842036"><ele>820.4000000000001</ele><time>2026-04-18T10:21:00.999Z</time></trkpt><trkpt lat="42.3000941595719" lon="12.75197802930725"><ele>818.8000000000001</ele><time>2026-04-18T10:21:02.999Z</time></trkpt><trkpt lat="42.30015857667846" lon="12.752004109438479"><ele>817.2</ele><time>2026-04-18T10:21:03.999Z</time></trkpt><trkpt lat="42.30028323489001" lon="12.752020093862178"><ele>815.6</ele><time>2026-04-18T10:21:05.999Z</time></trkpt><trkpt lat="42.30039707017282" lon="12.752055678496994"><ele>814.0</ele><time>2026-04-18T10:21:07.999Z</time></trkpt><trkpt lat="42.300521000058204" lon="12.752070065300368"><ele>813.0</ele><time>2026-04-18T10:21:09.999Z</time></trkpt><trkpt lat="42.30059988672056" lon="12.752053275010228"><ele>812.0</ele><time>2026-04-18T10:21:10.999Z</time></trkpt><trkpt lat="42.300686898435494" lon="12.752024735273267"><ele>811.0</ele><time>2026-04-18T10:21:11.999Z</time></trkpt><trkpt lat="42.30077643875025" lon="12.75197645780826"><ele>810.0</ele><time>2026-04-18T10:21:12.999Z</time></trkpt><trkpt lat="42.3008447701904" lon="12.75192562363973"><ele>809.0</ele><time>2026-04-18T10:21:13.999Z</time></trkpt><trkpt lat="42.30096691392077" lon="12.751878113548026"><ele>809.0000000000001</ele><time>2026-04-18T10:21:15.999Z</time></trkpt><trkpt lat="42.301037047271116" lon="12.751873383880323"><ele>809.0</ele><time>2026-04-18T10:21:16.999Z</time></trkpt><trkpt lat="42.301115537196424" lon="12.751886730149945"><ele>809.0</ele><time>2026-04-18T10:21:17.999Z</time></trkpt><trkpt lat="42.30118325024304" lon="12.751907743075023"><ele>809.0</ele><time>2026-04-18T10:21:18.999Z</time></trkpt><trkpt lat="42.301252338037635" lon="12.751942261673582"><ele>809.0000000000001</ele><time>2026-04-18T10:21:19.999Z</time></trkpt><trkpt lat="42.30132301871291" lon="12.751986635349944"><ele>809.0</ele><time>2026-04-18T10:21:20.999Z</time></trkpt><trkpt lat="42.30140956218768" lon="12.752005810921311"><ele>808.5000000000001</ele><time>2026-04-18T10:21:21.999Z</time></trkpt><trkpt lat="42.30148698756512" lon="12.752011437199547"><ele>808.0</ele><time>2026-04-18T10:21:22.999Z</time></trkpt><trkpt lat="42.30155604894915" lon="12.752025013672867"><ele>807.5</ele><time>2026-04-18T10:21:23.999Z</time></trkpt><trkpt lat="42.301620513107046" lon="12.75203154246447"><ele>807.0</ele><time>2026-04-18T10:21:24.999Z</time></trkpt><trkpt lat="42.30168387645057" lon="12.752008375599175"><ele>806.5000000000001</ele><time>2026-04-18T10:21:25.999Z</time></trkpt><trkpt lat="42.301747695249475" lon="12.751977745611166"><ele>806.0</ele><time>2026-04-18T10:21:26.999Z</time></trkpt><trkpt lat="42.30186815967721" lon="12.751964167404243"><ele>806.0000000000001</ele><time>2026-04-18T10:21:28.999Z</time></trkpt><trkpt lat="42.30194057875256" lon="12.751970306558205"><ele>806.0</ele><time>2026-04-18T10:21:29.999Z</time></trkpt><trkpt lat="42.30202032303977" lon="12.751966447620514"><ele>806.0</ele><time>2026-04-18T10:21:30.999Z</time></trkpt><trkpt lat="42.30209297966238" lon="12.751942109707803"><ele>806.0</ele><time>2026-04-18T10:21:31.999Z</time></trkpt><trkpt lat="42.302206070322086" lon="12.751858703441432"><ele>806.0000000000001</ele><time>2026-04-18T10:21:33.999Z</time></trkpt><trkpt lat="42.302277468209525" lon="12.751817273766742"><ele>806.0</ele><time>2026-04-18T10:21:34.999Z</time></trkpt><trkpt lat="42.30235208543621" lon="12.75178257377156"><ele>805.5000000000001</ele><time>2026-04-18T10:21:35.999Z</time></trkpt><trkpt lat="42.30240746291377" lon="12.75172276901282"><ele>805.0</ele><time>2026-04-18T10:21:36.999Z</time></trkpt><trkpt lat="42.30245097592076" lon="12.75165676821005"><ele>804.5</ele><time>2026-04-18T10:21:37.999Z</time></trkpt><trkpt lat="42.30251253824343" lon="12.751631564405512"><ele>804.0</ele><time>2026-04-18T10:21:38.999Z</time></trkpt><trkpt lat="42.30259915073848" lon="12.751614496707493"><ele>803.5000000000001</ele><time>2026-04-18T10:21:39.999Z</time></trkpt><trkpt lat="42.30267148536816" lon="12.751589553043035"><ele>803.0</ele><time>2026-04-18T10:21:40.999Z</time></trkpt><trkpt lat="42.30274571450383" lon="12.751517307784258"><ele>803.0</ele><time>2026-04-18T10:21:41.999Z</time></trkpt><trkpt lat="42.30282857431136" lon="12.751421007664685"><ele>803.0</ele><time>2026-04-18T10:21:42.999Z</time></trkpt><trkpt lat="42.30291015979538" lon="12.751340880763419"><ele>803.0</ele><time>2026-04-18T10:21:43.999Z</time></trkpt><trkpt lat="42.3029857034183" lon="12.751247968144218"><ele>803.0</ele><time>2026-04-18T10:21:44.999Z</time></trkpt><trkpt lat="42.30304375851208" lon="12.751130753127837"><ele>803.0</ele><time>2026-04-18T10:21:45.999Z</time></trkpt><trkpt lat="42.30309704369157" lon="12.750984258316828"><ele>801.5999999999999</ele><time>2026-04-18T10:21:46.999Z</time></trkpt><trkpt lat="42.30314799068124" lon="12.750813029709619"><ele>800.1999999999999</ele><time>2026-04-18T10:21:47.999Z</time></trkpt><trkpt lat="42.30319142079755" lon="12.75066397779293"><ele>798.8</ele><time>2026-04-18T10:21:48.999Z</time></trkpt><trkpt lat="42.30323461464865" lon="12.750547163597158"><ele>797.4</ele><time>2026-04-18T10:21:49.999Z</time></trkpt><trkpt lat="42.30328155699921" lon="12.750443082150902"><ele>796.0</ele><time>2026-04-18T10:21:50.999Z</time></trkpt><trkpt lat="42.30333793318132" lon="12.750367133680843"><ele>795.9999999999999</ele><time>2026-04-18T10:21:51.999Z</time></trkpt><trkpt lat="42.30339852373837" lon="12.750285780196819"><ele>796.0</ele><time>2026-04-18T10:21:52.999Z</time></trkpt><trkpt lat="42.30346570331284" lon="12.750196870592427"><ele>796.0</ele><time>2026-04-18T10:21:53.999Z</time></trkpt><trkpt lat="42.30352661173008" lon="12.750133854510128"><ele>796.0</ele><time>2026-04-18T10:21:54.999Z</time></trkpt><trkpt lat="42.30358287981939" lon="12.75007917335259"><ele>795.9999999999999</ele><time>2026-04-18T10:21:55.999Z</time></trkpt><trkpt lat="42.30366947052724" lon="12.749999071784414"><ele>796.0</ele><time>2026-04-18T10:21:57.999Z</time></trkpt><trkpt lat="42.303724403298276" lon="12.749957408479714"><ele>795.8333333333333</ele><time>2026-04-18T10:21:58.999Z</time></trkpt><trkpt lat="42.30378389090261" lon="12.749907926535752"><ele>795.6666666666666</ele><time>2026-04-18T10:21:59.999Z</time></trkpt><trkpt lat="42.30384253430368" lon="12.74987283503021"><ele>795.5</ele><time>2026-04-18T10:22:00.999Z</time></trkpt><trkpt lat="42.30390970524751" lon="12.749846833290011"><ele>795.3333333333333</ele><time>2026-04-18T10:22:01.999Z</time></trkpt><trkpt lat="42.30399895070599" lon="12.74987619281527"><ele>795.1666666666666</ele><time>2026-04-18T10:22:02.999Z</time></trkpt><trkpt lat="42.30408621158643" lon="12.749871854450689"><ele>795.0</ele><time>2026-04-18T10:22:03.999Z</time></trkpt><trkpt lat="42.30415511901098" lon="12.749847993131516"><ele>795.0</ele><time>2026-04-18T10:22:04.999Z</time></trkpt><trkpt lat="42.30422498027828" lon="12.749841511162247"><ele>795.0</ele><time>2026-04-18T10:22:05.999Z</time></trkpt><trkpt lat="42.30434368590875" lon="12.7498080843223"><ele>795.0</ele><time>2026-04-18T10:22:07.999Z</time></trkpt><trkpt lat="42.3043909227601" lon="12.749746925586793"><ele>795.0</ele><time>2026-04-18T10:22:08.999Z</time></trkpt><trkpt lat="42.304484478441566" lon="12.749666906939419"><ele>795.0</ele><time>2026-04-18T10:22:09.999Z</time></trkpt><trkpt lat="42.30455679379501" lon="12.74962775541944"><ele>795.0</ele><time>2026-04-18T10:22:10.999Z</time></trkpt><trkpt lat="42.30463602417139" lon="12.749590390424938"><ele>795.0</ele><time>2026-04-18T10:22:11.999Z</time></trkpt><trkpt lat="42.304739824330795" lon="12.749804954801412"><ele>795.0</ele><time>2026-04-18T10:22:12.999Z</time></trkpt><trkpt lat="42.30485212940454" lon="12.749802830505562"><ele>795.0</ele><time>2026-04-18T10:22:14.999Z</time></trkpt><trkpt lat="42.30496904860672" lon="12.749835409343493"><ele>795.0</ele><time>2026-04-18T10:22:16.999Z</time></trkpt><trkpt lat="42.30503164827071" lon="12.749847186299874"><ele>795.0</ele><time>2026-04-18T10:22:17.999Z</time></trkpt><trkpt lat="42.30509082393801" lon="12.749880808736334"><ele>795.0</ele><time>2026-04-18T10:22:18.999Z</time></trkpt><trkpt lat="42.30514736883894" lon="12.74992914675824"><ele>795.0</ele><time>2026-04-18T10:22:19.999Z</time></trkpt><trkpt lat="42.30527139243373" lon="12.749949379382981"><ele>795.0</ele><time>2026-04-18T10:22:21.999Z</time></trkpt><trkpt lat="42.30533478214889" lon="12.74996461979622"><ele>795.0</ele><time>2026-04-18T10:22:22.999Z</time></trkpt><trkpt lat="42.30540372321851" lon="12.749977603678184"><ele>795.0</ele><time>2026-04-18T10:22:23.999Z</time></trkpt><trkpt lat="42.30546950212321" lon="12.749999638905644"><ele>795.0</ele><time>2026-04-18T10:22:24.999Z</time></trkpt><trkpt lat="42.305537079131845" lon="12.749980711717399"><ele>795.0</ele><time>2026-04-18T10:22:25.999Z</time></trkpt><trkpt lat="42.305641320431405" lon="12.74993492258215"><ele>795.0</ele><time>2026-04-18T10:22:27.999Z</time></trkpt><trkpt lat="42.30574707022993" lon="12.749897449538947"><ele>795.0</ele><time>2026-04-18T10:22:29.999Z</time></trkpt><trkpt lat="42.30581150092847" lon="12.75004141608313"><ele>795.0</ele><time>2026-04-18T10:22:30.999Z</time></trkpt><trkpt lat="42.305884666694276" lon="12.750108465924553"><ele>796.25</ele><time>2026-04-18T10:22:31.999Z</time></trkpt><trkpt lat="42.3059674908691" lon="12.750183198617874"><ele>797.5</ele><time>2026-04-18T10:22:32.999Z</time></trkpt><trkpt lat="42.30605327454784" lon="12.750305536620216"><ele>798.75</ele><time>2026-04-18T10:22:33.999Z</time></trkpt><trkpt lat="42.30615690267222" lon="12.750459062313235"><ele>800.0</ele><time>2026-04-18T10:22:34.999Z</time></trkpt><trkpt lat="42.30627389128553" lon="12.750627744598223"><ele>800.5</ele><time>2026-04-18T10:22:35.999Z</time></trkpt><trkpt lat="42.306381848213604" lon="12.750768417564013"><ele>801.0</ele><time>2026-04-18T10:22:36.999Z</time></trkpt><trkpt lat="42.30648807110066" lon="12.750891667619843"><ele>801.5</ele><time>2026-04-18T10:22:37.999Z</time></trkpt><trkpt lat="42.30658838444119" lon="12.751000457216866"><ele>802.0</ele><time>2026-04-18T10:22:38.999Z</time></trkpt><trkpt lat="42.30668985628493" lon="12.751091897724045"><ele>799.0</ele><time>2026-04-18T10:22:39.999Z</time></trkpt><trkpt lat="42.30678606974664" lon="12.751177662045817"><ele>796.0</ele><time>2026-04-18T10:22:40.999Z</time></trkpt><trkpt lat="42.30686116167627" lon="12.751286551329944"><ele>793.0</ele><time>2026-04-18T10:22:41.999Z</time></trkpt><trkpt lat="42.30693392503997" lon="12.751404489546395"><ele>790.0</ele><time>2026-04-18T10:22:42.999Z</time></trkpt><trkpt lat="42.306978817175704" lon="12.751544900453116"><ele>790.0</ele><time>2026-04-18T10:22:43.999Z</time></trkpt><trkpt lat="42.30699188245409" lon="12.751690585934483"><ele>790.0</ele><time>2026-04-18T10:22:44.999Z</time></trkpt><trkpt lat="42.30699040672788" lon="12.751847873454333"><ele>790.0</ele><time>2026-04-18T10:22:45.999Z</time></trkpt><trkpt lat="42.30697365713946" lon="12.75201406199479"><ele>790.0</ele><time>2026-04-18T10:22:46.999Z</time></trkpt><trkpt lat="42.30694614680859" lon="12.752181086715447"><ele>789.5</ele><time>2026-04-18T10:22:47.999Z</time></trkpt><trkpt lat="42.3069068838539" lon="12.752339452786414"><ele>789.0</ele><time>2026-04-18T10:22:48.999Z</time></trkpt><trkpt lat="42.30685638181717" lon="12.752493924276887"><ele>788.5</ele><time>2026-04-18T10:22:49.999Z</time></trkpt><trkpt lat="42.30680007453152" lon="12.752650794938647"><ele>788.0</ele><time>2026-04-18T10:22:50.999Z</time></trkpt><trkpt lat="42.30674817247479" lon="12.752811639183209"><ele>789.5</ele><time>2026-04-18T10:22:51.999Z</time></trkpt><trkpt lat="42.30668363866315" lon="12.752964032940994"><ele>791.0</ele><time>2026-04-18T10:22:52.999Z</time></trkpt><trkpt lat="42.30661355681782" lon="12.753123743423442"><ele>792.5</ele><time>2026-04-18T10:22:53.999Z</time></trkpt><trkpt lat="42.306538312034135" lon="12.75329426616825"><ele>794.0</ele><time>2026-04-18T10:22:54.999Z</time></trkpt><trkpt lat="42.306458858735986" lon="12.753474989681235"><ele>789.5</ele><time>2026-04-18T10:22:55.999Z</time></trkpt><trkpt lat="42.30639261117821" lon="12.753641918186005"><ele>785.0</ele><time>2026-04-18T10:22:56.999Z</time></trkpt><trkpt lat="42.30631920413555" lon="12.75379775728832"><ele>780.5</ele><time>2026-04-18T10:22:57.999Z</time></trkpt><trkpt lat="42.30625011796437" lon="12.753960746204761"><ele>776.0</ele><time>2026-04-18T10:22:58.999Z</time></trkpt><trkpt lat="42.30617501766466" lon="12.754121705190695"><ele>776.0</ele><time>2026-04-18T10:22:59.999Z</time></trkpt><trkpt lat="42.30609907296236" lon="12.754292920402658"><ele>776.0</ele><time>2026-04-18T10:23:00.999Z</time></trkpt><trkpt lat="42.30603344144895" lon="12.754461442379762"><ele>776.0</ele><time>2026-04-18T10:23:01.999Z</time></trkpt><trkpt lat="42.30597973821437" lon="12.754626116800432"><ele>776.0</ele><time>2026-04-18T10:23:02.999Z</time></trkpt><trkpt lat="42.30593861288314" lon="12.754797088327946"><ele>776.25</ele><time>2026-04-18T10:23:03.999Z</time></trkpt><trkpt lat="42.305915893232864" lon="12.75497711224914"><ele>776.5</ele><time>2026-04-18T10:23:04.999Z</time></trkpt><trkpt lat="42.305903946844076" lon="12.755159911415397"><ele>776.75</ele><time>2026-04-18T10:23:05.999Z</time></trkpt><trkpt lat="42.305897424859005" lon="12.755351417597737"><ele>777.0</ele><time>2026-04-18T10:23:06.999Z</time></trkpt><trkpt lat="42.305901185012715" lon="12.755542149037549"><ele>777.0</ele><time>2026-04-18T10:23:07.999Z</time></trkpt><trkpt lat="42.30591788190376" lon="12.755737664799106"><ele>777.0</ele><time>2026-04-18T10:23:08.999Z</time></trkpt><trkpt lat="42.30594711995394" lon="12.75593348941729"><ele>777.0</ele><time>2026-04-18T10:23:09.999Z</time></trkpt><trkpt lat="42.30599094259588" lon="12.75613060034889"><ele>777.0</ele><time>2026-04-18T10:23:10.999Z</time></trkpt><trkpt lat="42.30601792890713" lon="12.756318250127263"><ele>775.75</ele><time>2026-04-18T10:23:11.999Z</time></trkpt><trkpt lat="42.30605074828032" lon="12.756482303466846"><ele>774.5</ele><time>2026-04-18T10:23:12.999Z</time></trkpt><trkpt lat="42.306095051986915" lon="12.75663402781025"><ele>773.25</ele><time>2026-04-18T10:23:13.999Z</time></trkpt><trkpt lat="42.30610748057322" lon="12.75682207273226"><ele>772.0</ele><time>2026-04-18T10:23:14.999Z</time></trkpt><trkpt lat="42.30613883778695" lon="12.757036455881048"><ele>770.25</ele><time>2026-04-18T10:23:15.999Z</time></trkpt><trkpt lat="42.30614943504832" lon="12.75725470377873"><ele>768.5</ele><time>2026-04-18T10:23:16.999Z</time></trkpt><trkpt lat="42.30612861263591" lon="12.75744901946098"><ele>766.75</ele><time>2026-04-18T10:23:17.999Z</time></trkpt><trkpt lat="42.30611155447999" lon="12.757631392417778"><ele>765.0</ele><time>2026-04-18T10:23:18.999Z</time></trkpt><trkpt lat="42.30611144581343" lon="12.757819504563553"><ele>763.25</ele><time>2026-04-18T10:23:19.999Z</time></trkpt><trkpt lat="42.306101539153794" lon="12.757993658983088"><ele>761.5</ele><time>2026-04-18T10:23:20.999Z</time></trkpt><trkpt lat="42.30610553280912" lon="12.758164575489744"><ele>759.75</ele><time>2026-04-18T10:23:21.999Z</time></trkpt><trkpt lat="42.306137487139814" lon="12.758337698961267"><ele>758.0</ele><time>2026-04-18T10:23:22.999Z</time></trkpt><trkpt lat="42.30620649419047" lon="12.758517154424904"><ele>753.25</ele><time>2026-04-18T10:23:23.999Z</time></trkpt><trkpt lat="42.30628875889754" lon="12.758695995246708"><ele>748.5</ele><time>2026-04-18T10:23:24.999Z</time></trkpt><trkpt lat="42.3063571924746" lon="12.758863758299645"><ele>743.75</ele><time>2026-04-18T10:23:25.999Z</time></trkpt><trkpt lat="42.30638845398788" lon="12.75903108322673"><ele>739.0</ele><time>2026-04-18T10:23:26.999Z</time></trkpt><trkpt lat="42.30642399020086" lon="12.759209669673536"><ele>750.0</ele><time>2026-04-18T10:23:27.999Z</time></trkpt><trkpt lat="42.30645133544176" lon="12.759375889144954"><ele>761.0</ele><time>2026-04-18T10:23:28.999Z</time></trkpt><trkpt lat="42.30649173200202" lon="12.759583608448427"><ele>772.0</ele><time>2026-04-18T10:23:29.999Z</time></trkpt><trkpt lat="42.30650741153109" lon="12.759766411406906"><ele>783.0</ele><time>2026-04-18T10:23:30.999Z</time></trkpt><trkpt lat="42.30651930330647" lon="12.759934240434472"><ele>783.0</ele><time>2026-04-18T10:23:31.999Z</time></trkpt><trkpt lat="42.30654068154879" lon="12.76011144948675"><ele>783.0</ele><time>2026-04-18T10:23:32.999Z</time></trkpt><trkpt lat="42.30656381728511" lon="12.760281866448537"><ele>783.0</ele><time>2026-04-18T10:23:33.999Z</time></trkpt><trkpt lat="42.30659619566108" lon="12.760448375239882"><ele>783.0</ele><time>2026-04-18T10:23:34.999Z</time></trkpt><trkpt lat="42.306638880997205" lon="12.760602643319428"><ele>779.25</ele><time>2026-04-18T10:23:35.999Z</time></trkpt><trkpt lat="42.306697725146925" lon="12.76075165073722"><ele>775.5</ele><time>2026-04-18T10:23:36.999Z</time></trkpt><trkpt lat="42.306760796725214" lon="12.760894333255862"><ele>771.75</ele><time>2026-04-18T10:23:37.999Z</time></trkpt><trkpt lat="42.30681618953052" lon="12.761033250923498"><ele>768.0</ele><time>2026-04-18T10:23:38.999Z</time></trkpt><trkpt lat="42.30682093470662" lon="12.761201645769843"><ele>765.5</ele><time>2026-04-18T10:23:39.999Z</time></trkpt><trkpt lat="42.30680230954499" lon="12.761382362511089"><ele>763.0</ele><time>2026-04-18T10:23:40.999Z</time></trkpt><trkpt lat="42.30677509827588" lon="12.761578162190993"><ele>760.5</ele><time>2026-04-18T10:23:41.999Z</time></trkpt><trkpt lat="42.306760094656134" lon="12.761761986980495"><ele>758.0</ele><time>2026-04-18T10:23:42.999Z</time></trkpt><trkpt lat="42.30673267621634" lon="12.76192000241115"><ele>757.75</ele><time>2026-04-18T10:23:43.999Z</time></trkpt><trkpt lat="42.30672145072349" lon="12.762075499976714"><ele>757.5</ele><time>2026-04-18T10:23:44.999Z</time></trkpt><trkpt lat="42.30672909460955" lon="12.762253946846785"><ele>757.25</ele><time>2026-04-18T10:23:45.999Z</time></trkpt><trkpt lat="42.30675945767969" lon="12.762453732639226"><ele>757.0</ele><time>2026-04-18T10:23:46.999Z</time></trkpt><trkpt lat="42.30679930391129" lon="12.762642201220501"><ele>754.0</ele><time>2026-04-18T10:23:47.999Z</time></trkpt><trkpt lat="42.30683147469707" lon="12.762817201010867"><ele>751.0</ele><time>2026-04-18T10:23:48.999Z</time></trkpt><trkpt lat="42.30686029672843" lon="12.762997500784989"><ele>748.0</ele><time>2026-04-18T10:23:49.999Z</time></trkpt><trkpt lat="42.30689244517535" lon="12.763178658716082"><ele>745.0</ele><time>2026-04-18T10:23:50.999Z</time></trkpt><trkpt lat="42.3069236649568" lon="12.763350064087488"><ele>745.0</ele><time>2026-04-18T10:23:51.999Z</time></trkpt><trkpt lat="42.30694976609709" lon="12.763504049355706"><ele>745.0</ele><time>2026-04-18T10:23:52.999Z</time></trkpt><trkpt lat="42.30697145194654" lon="12.763659957218266"><ele>745.0</ele><time>2026-04-18T10:23:53.999Z</time></trkpt><trkpt lat="42.306998603269385" lon="12.763826227258459"><ele>745.0</ele><time>2026-04-18T10:23:54.999Z</time></trkpt><trkpt lat="42.307034309876876" lon="12.764000366254335"><ele>742.75</ele><time>2026-04-18T10:23:55.999Z</time></trkpt><trkpt lat="42.30707262945477" lon="12.764187251572357"><ele>740.5</ele><time>2026-04-18T10:23:56.999Z</time></trkpt><trkpt lat="42.307094947594756" lon="12.76438464552998"><ele>738.25</ele><time>2026-04-18T10:23:57.999Z</time></trkpt><trkpt lat="42.307135509699904" lon="12.76456694505366"><ele>736.0</ele><time>2026-04-18T10:23:58.999Z</time></trkpt><trkpt lat="42.30717024848774" lon="12.764727341430026"><ele>733.0</ele><time>2026-04-18T10:23:59.999Z</time></trkpt><trkpt lat="42.30720153253409" lon="12.76488486244125"><ele>730.0</ele><time>2026-04-18T10:24:00.999Z</time></trkpt><trkpt lat="42.30722513257858" lon="12.765041299923434"><ele>727.0</ele><time>2026-04-18T10:24:01.999Z</time></trkpt><trkpt lat="42.30725245759298" lon="12.765193857047072"><ele>724.0</ele><time>2026-04-18T10:24:02.999Z</time></trkpt><trkpt lat="42.307278246327336" lon="12.765335951065559"><ele>729.2</ele><time>2026-04-18T10:24:03.999Z</time></trkpt><trkpt lat="42.30730902013243" lon="12.76546861834222"><ele>734.4000000000001</ele><time>2026-04-18T10:24:04.999Z</time></trkpt><trkpt lat="42.30735089707162" lon="12.765585827970632"><ele>739.6</ele><time>2026-04-18T10:24:05.999Z</time></trkpt><trkpt lat="42.30741304413391" lon="12.765671882814058"><ele>744.8</ele><time>2026-04-18T10:24:06.999Z</time></trkpt><trkpt lat="42.307497684978735" lon="12.765711144709865"><ele>750.0</ele><time>2026-04-18T10:24:07.999Z</time></trkpt><trkpt lat="42.30760018009429" lon="12.765694668913575"><ele>750.0</ele><time>2026-04-18T10:24:08.999Z</time></trkpt><trkpt lat="42.30770986552552" lon="12.765636640236464"><ele>750.0</ele><time>2026-04-18T10:24:09.999Z</time></trkpt><trkpt lat="42.307826795064855" lon="12.76555823884116"><ele>750.0</ele><time>2026-04-18T10:24:10.999Z</time></trkpt><trkpt lat="42.30795247697924" lon="12.765476549566449"><ele>750.0</ele><time>2026-04-18T10:24:11.999Z</time></trkpt><trkpt lat="42.30810494060505" lon="12.765417362393006"><ele>752.6666666666666</ele><time>2026-04-18T10:24:12.999Z</time></trkpt><trkpt lat="42.30825217813228" lon="12.765338169457928"><ele>755.3333333333333</ele><time>2026-04-18T10:24:13.999Z</time></trkpt><trkpt lat="42.30839607069073" lon="12.765261505189246"><ele>758.0</ele><time>2026-04-18T10:24:14.999Z</time></trkpt><trkpt lat="42.3085341106417" lon="12.76516740912817"><ele>758.0</ele><time>2026-04-18T10:24:15.999Z</time></trkpt><trkpt lat="42.308674391813284" lon="12.76510378348892"><ele>758.0</ele><time>2026-04-18T10:24:16.999Z</time></trkpt><trkpt lat="42.30880955414873" lon="12.765037434362306"><ele>758.0</ele><time>2026-04-18T10:24:17.999Z</time></trkpt><trkpt lat="42.30895419609267" lon="12.76496917135918"><ele>758.0</ele><time>2026-04-18T10:24:18.999Z</time></trkpt><trkpt lat="42.309103681889844" lon="12.764895294916064"><ele>754.0</ele><time>2026-04-18T10:24:19.999Z</time></trkpt><trkpt lat="42.30925081825701" lon="12.764821891193323"><ele>750.0</ele><time>2026-04-18T10:24:20.999Z</time></trkpt><trkpt lat="42.30938386096288" lon="12.764753660132394"><ele>746.0</ele><time>2026-04-18T10:24:21.999Z</time></trkpt><trkpt lat="42.30951241903153" lon="12.764683286882397"><ele>742.0</ele><time>2026-04-18T10:24:22.999Z</time></trkpt><trkpt lat="42.30964190812497" lon="12.76460414132477"><ele>743.75</ele><time>2026-04-18T10:24:23.999Z</time></trkpt><trkpt lat="42.30977508388752" lon="12.76453102506247"><ele>745.5</ele><time>2026-04-18T10:24:24.999Z</time></trkpt><trkpt lat="42.30991374409819" lon="12.764458787312545"><ele>747.25</ele><time>2026-04-18T10:24:25.999Z</time></trkpt><trkpt lat="42.31004699908671" lon="12.764396257303442"><ele>749.0</ele><time>2026-04-18T10:24:26.999Z</time></trkpt><trkpt lat="42.31016985843522" lon="12.76433586058565"><ele>749.0</ele><time>2026-04-18T10:24:27.999Z</time></trkpt><trkpt lat="42.31027690357897" lon="12.764289518333541"><ele>749.0</ele><time>2026-04-18T10:24:28.999Z</time></trkpt><trkpt lat="42.310375363851485" lon="12.764290755031604"><ele>749.0</ele><time>2026-04-18T10:24:29.999Z</time></trkpt><trkpt lat="42.31047841092149" lon="12.764309459806114"><ele>749.0</ele><time>2026-04-18T10:24:30.999Z</time></trkpt><trkpt lat="42.310554878576966" lon="12.764412748738952"><ele>749.0</ele><time>2026-04-18T10:24:31.999Z</time></trkpt><trkpt lat="42.310601464003305" lon="12.7645253215335"><ele>745.25</ele><time>2026-04-18T10:24:32.999Z</time></trkpt><trkpt lat="42.310611462593194" lon="12.764677230084958"><ele>741.5</ele><time>2026-04-18T10:24:33.999Z</time></trkpt><trkpt lat="42.31063246862078" lon="12.764864124847788"><ele>737.75</ele><time>2026-04-18T10:24:34.999Z</time></trkpt><trkpt lat="42.3106611586998" lon="12.76505683880668"><ele>734.0</ele><time>2026-04-18T10:24:35.999Z</time></trkpt><trkpt lat="42.31068000466306" lon="12.765242556925031"><ele>730.0</ele><time>2026-04-18T10:24:36.999Z</time></trkpt><trkpt lat="42.310717525811576" lon="12.765412072077643"><ele>726.0</ele><time>2026-04-18T10:24:37.999Z</time></trkpt><trkpt lat="42.310775516777625" lon="12.765583381600225"><ele>722.0</ele><time>2026-04-18T10:24:38.999Z</time></trkpt><trkpt lat="42.31084798824929" lon="12.76575136157618"><ele>718.0</ele><time>2026-04-18T10:24:39.999Z</time></trkpt><trkpt lat="42.310943677244786" lon="12.76591091933809"><ele>710.3333333333334</ele><time>2026-04-18T10:24:40.999Z</time></trkpt><trkpt lat="42.31105522303066" lon="12.766048807431366"><ele>702.6666666666666</ele><time>2026-04-18T10:24:41.999Z</time></trkpt><trkpt lat="42.31118743569078" lon="12.76616165102734"><ele>695.0</ele><time>2026-04-18T10:24:42.999Z</time></trkpt><trkpt lat="42.311330484227575" lon="12.766250403116862"><ele>699.0</ele><time>2026-04-18T10:24:43.999Z</time></trkpt><trkpt lat="42.31147573188723" lon="12.766314129623044"><ele>703.0</ele><time>2026-04-18T10:24:44.999Z</time></trkpt><trkpt lat="42.31161913527735" lon="12.766382767801334"><ele>707.0</ele><time>2026-04-18T10:24:45.999Z</time></trkpt><trkpt lat="42.31175647119969" lon="12.766455174969092"><ele>707.0</ele><time>2026-04-18T10:24:46.999Z</time></trkpt><trkpt lat="42.311875277383415" lon="12.766527937448464"><ele>707.0</ele><time>2026-04-18T10:24:47.999Z</time></trkpt><trkpt lat="42.31198943224009" lon="12.76661325325012"><ele>707.0</ele><time>2026-04-18T10:24:48.999Z</time></trkpt><trkpt lat="42.312106729100336" lon="12.766680760493031"><ele>707.0</ele><time>2026-04-18T10:24:49.999Z</time></trkpt><trkpt lat="42.31224339732357" lon="12.766711458062076"><ele>706.0</ele><time>2026-04-18T10:24:50.999Z</time></trkpt><trkpt lat="42.31238081966299" lon="12.766676122609235"><ele>705.0</ele><time>2026-04-18T10:24:51.999Z</time></trkpt><trkpt lat="42.31250054436702" lon="12.766574755953126"><ele>704.0</ele><time>2026-04-18T10:24:52.999Z</time></trkpt><trkpt lat="42.312594638774534" lon="12.766419809037288"><ele>703.0</ele><time>2026-04-18T10:24:53.999Z</time></trkpt><trkpt lat="42.31267653087949" lon="12.766241071421328"><ele>703.0</ele><time>2026-04-18T10:24:54.999Z</time></trkpt><trkpt lat="42.31275342880262" lon="12.766068196703637"><ele>703.0</ele><time>2026-04-18T10:24:55.999Z</time></trkpt><trkpt lat="42.312826278173404" lon="12.765918811343361"><ele>703.0</ele><time>2026-04-18T10:24:56.999Z</time></trkpt><trkpt lat="42.312902313404514" lon="12.7657626350399"><ele>703.0</ele><time>2026-04-18T10:24:57.999Z</time></trkpt><trkpt lat="42.31301399064458" lon="12.765657867787317"><ele>700.25</ele><time>2026-04-18T10:24:58.999Z</time></trkpt><trkpt lat="42.31312980078329" lon="12.765564003962256"><ele>697.5</ele><time>2026-04-18T10:24:59.999Z</time></trkpt><trkpt lat="42.313245631728925" lon="12.765461730015794"><ele>694.75</ele><time>2026-04-18T10:25:00.999Z</time></trkpt><trkpt lat="42.31336788772736" lon="12.765385719204351"><ele>692.0</ele><time>2026-04-18T10:25:01.999Z</time></trkpt><trkpt lat="42.31348794799018" lon="12.765316564286064"><ele>692.0</ele><time>2026-04-18T10:25:02.999Z</time></trkpt><trkpt lat="42.3136166971599" lon="12.765309593997122"><ele>692.0</ele><time>2026-04-18T10:25:03.999Z</time></trkpt><trkpt lat="42.313753233518725" lon="12.76532471115496"><ele>692.0</ele><time>2026-04-18T10:25:04.999Z</time></trkpt><trkpt lat="42.31389505042252" lon="12.765372749370105"><ele>692.0</ele><time>2026-04-18T10:25:05.999Z</time></trkpt><trkpt lat="42.31403664858425" lon="12.765395990567287"><ele>691.4000000000001</ele><time>2026-04-18T10:25:06.999Z</time></trkpt><trkpt lat="42.31416206837387" lon="12.76543453711501"><ele>690.8000000000001</ele><time>2026-04-18T10:25:07.999Z</time></trkpt><trkpt lat="42.314270555086985" lon="12.765468397197646"><ele>690.2</ele><time>2026-04-18T10:25:08.999Z</time></trkpt><trkpt lat="42.31435775130668" lon="12.765493991604977"><ele>689.6</ele><time>2026-04-18T10:25:09.999Z</time></trkpt><trkpt lat="42.314427155098926" lon="12.765520123439948"><ele>689.0</ele><time>2026-04-18T10:25:10.999Z</time></trkpt><trkpt lat="42.3144864748485" lon="12.765566419494952"><ele>689.0</ele><time>2026-04-18T10:25:11.999Z</time></trkpt><trkpt lat="42.31453156872178" lon="12.765634745171377"><ele>689.0</ele><time>2026-04-18T10:25:12.999Z</time></trkpt><trkpt lat="42.314531569284284" lon="12.765731255548495"><ele>689.0</ele><time>2026-04-18T10:25:13.999Z</time></trkpt><trkpt lat="42.314474909708395" lon="12.765814867745062"><ele>689.0</ele><time>2026-04-18T10:25:14.999Z</time></trkpt><trkpt lat="42.31438258175595" lon="12.76587065931251"><ele>689.0</ele><time>2026-04-18T10:25:15.999Z</time></trkpt><trkpt lat="42.314270744054625" lon="12.765830062146868"><ele>689.0</ele><time>2026-04-18T10:25:16.999Z</time></trkpt><trkpt lat="42.31415201363304" lon="12.765800187119975"><ele>689.0</ele><time>2026-04-18T10:25:17.999Z</time></trkpt><trkpt lat="42.31401676945747" lon="12.765775744761154"><ele>689.0</ele><time>2026-04-18T10:25:18.999Z</time></trkpt><trkpt lat="42.31388056366043" lon="12.765782451438708"><ele>689.0</ele><time>2026-04-18T10:25:19.999Z</time></trkpt><trkpt lat="42.31376524835015" lon="12.765815914253052"><ele>689.0</ele><time>2026-04-18T10:25:20.999Z</time></trkpt><trkpt lat="42.313666864172546" lon="12.765898382538802"><ele>687.25</ele><time>2026-04-18T10:25:21.999Z</time></trkpt><trkpt lat="42.31358524204239" lon="12.76603000495177"><ele>685.5</ele><time>2026-04-18T10:25:22.999Z</time></trkpt><trkpt lat="42.31351125922858" lon="12.766197779082496"><ele>683.75</ele><time>2026-04-18T10:25:23.999Z</time></trkpt><trkpt lat="42.31343542152359" lon="12.766372735366005"><ele>682.0</ele><time>2026-04-18T10:25:24.999Z</time></trkpt><trkpt lat="42.31335894634187" lon="12.766549269742042"><ele>682.0</ele><time>2026-04-18T10:25:25.999Z</time></trkpt><trkpt lat="42.313281502808344" lon="12.76673058034684"><ele>682.0</ele><time>2026-04-18T10:25:26.999Z</time></trkpt><trkpt lat="42.313201629709624" lon="12.766901954748928"><ele>682.0</ele><time>2026-04-18T10:25:27.999Z</time></trkpt><trkpt lat="42.31312375479294" lon="12.767063039651847"><ele>682.0</ele><time>2026-04-18T10:25:28.999Z</time></trkpt><trkpt lat="42.31305076596985" lon="12.767218666742016"><ele>683.5</ele><time>2026-04-18T10:25:29.999Z</time></trkpt><trkpt lat="42.31298609070317" lon="12.767381909300045"><ele>685.0</ele><time>2026-04-18T10:25:30.999Z</time></trkpt><trkpt lat="42.312918604506066" lon="12.767546370968187"><ele>686.5</ele><time>2026-04-18T10:25:31.999Z</time></trkpt><trkpt lat="42.31287525372041" lon="12.767726418725717"><ele>688.0</ele><time>2026-04-18T10:25:32.999Z</time></trkpt><trkpt lat="42.312870660449875" lon="12.767932501390776"><ele>684.5</ele><time>2026-04-18T10:25:33.999Z</time></trkpt><trkpt lat="42.31290106080862" lon="12.768137603370551"><ele>681.0</ele><time>2026-04-18T10:25:34.999Z</time></trkpt><trkpt lat="42.31294275549468" lon="12.768319067147383"><ele>677.5</ele><time>2026-04-18T10:25:35.999Z</time></trkpt><trkpt lat="42.312981507860485" lon="12.76848138229431"><ele>674.0</ele><time>2026-04-18T10:25:36.999Z</time></trkpt><trkpt lat="42.31300389692863" lon="12.768620108294549"><ele>671.0</ele><time>2026-04-18T10:25:37.999Z</time></trkpt><trkpt lat="42.31298629115736" lon="12.76874799439166"><ele>668.0</ele><time>2026-04-18T10:25:38.999Z</time></trkpt><trkpt lat="42.3129661183688" lon="12.768871520855289"><ele>665.0</ele><time>2026-04-18T10:25:39.999Z</time></trkpt><trkpt lat="42.31288694575836" lon="12.768978322395016"><ele>662.0</ele><time>2026-04-18T10:25:40.999Z</time></trkpt><trkpt lat="42.31276786753354" lon="12.769020764919496"><ele>659.0</ele><time>2026-04-18T10:25:41.999Z</time></trkpt><trkpt lat="42.31266108032733" lon="12.76911364251478"><ele>659.0</ele><time>2026-04-18T10:25:42.999Z</time></trkpt><trkpt lat="42.31254640202859" lon="12.769171650076245"><ele>659.0</ele><time>2026-04-18T10:25:43.999Z</time></trkpt><trkpt lat="42.312446354470644" lon="12.769242707309749"><ele>659.0</ele><time>2026-04-18T10:25:44.999Z</time></trkpt><trkpt lat="42.312363331212495" lon="12.769351212384477"><ele>659.0</ele><time>2026-04-18T10:25:45.999Z</time></trkpt><trkpt lat="42.31232129032954" lon="12.769480531686565"><ele>657.25</ele><time>2026-04-18T10:25:46.999Z</time></trkpt><trkpt lat="42.312326912993974" lon="12.769630031239371"><ele>655.5</ele><time>2026-04-18T10:25:47.999Z</time></trkpt><trkpt lat="42.3123852714009" lon="12.769766910734948"><ele>653.75</ele><time>2026-04-18T10:25:48.999Z</time></trkpt><trkpt lat="42.31247237056186" lon="12.769903453500653"><ele>652.0</ele><time>2026-04-18T10:25:49.999Z</time></trkpt><trkpt lat="42.312570158795765" lon="12.77006158284176"><ele>650.0</ele><time>2026-04-18T10:25:50.999Z</time></trkpt><trkpt lat="42.31266542584448" lon="12.770231180149588"><ele>648.0</ele><time>2026-04-18T10:25:51.999Z</time></trkpt><trkpt lat="42.312753339629545" lon="12.770387468509126"><ele>646.0</ele><time>2026-04-18T10:25:52.999Z</time></trkpt><trkpt lat="42.31283636441842" lon="12.770532004673607"><ele>644.0</ele><time>2026-04-18T10:25:53.999Z</time></trkpt><trkpt lat="42.31291520435712" lon="12.770678606151748"><ele>644.0</ele><time>2026-04-18T10:25:54.999Z</time></trkpt><trkpt lat="42.312990397912735" lon="12.77082227388791"><ele>644.0</ele><time>2026-04-18T10:25:55.999Z</time></trkpt><trkpt lat="42.31306403297197" lon="12.770966259917016"><ele>644.0</ele><time>2026-04-18T10:25:56.999Z</time></trkpt><trkpt lat="42.31313840394019" lon="12.771116488569044"><ele>644.0</ele><time>2026-04-18T10:25:57.999Z</time></trkpt><trkpt lat="42.31321397571412" lon="12.771260179899503"><ele>643.75</ele><time>2026-04-18T10:25:58.999Z</time></trkpt><trkpt lat="42.31328644102045" lon="12.771390325907797"><ele>643.5</ele><time>2026-04-18T10:25:59.999Z</time></trkpt><trkpt lat="42.31336040481333" lon="12.771506961468086"><ele>643.25</ele><time>2026-04-18T10:26:00.999Z</time></trkpt><trkpt lat="42.313435133587234" lon="12.771630613990787"><ele>643.0</ele><time>2026-04-18T10:26:01.999Z</time></trkpt><trkpt lat="42.31353360800119" lon="12.77175076734734"><ele>642.0</ele><time>2026-04-18T10:26:02.999Z</time></trkpt><trkpt lat="42.3136432126863" lon="12.771883085560823"><ele>641.0</ele><time>2026-04-18T10:26:03.999Z</time></trkpt><trkpt lat="42.313750419646" lon="12.772017885146266"><ele>640.0</ele><time>2026-04-18T10:26:04.999Z</time></trkpt><trkpt lat="42.31384746206166" lon="12.772146327131699"><ele>639.0</ele><time>2026-04-18T10:26:05.999Z</time></trkpt><trkpt lat="42.313945937799225" lon="12.77227037275605"><ele>639.0</ele><time>2026-04-18T10:26:06.999Z</time></trkpt><trkpt lat="42.31405428533958" lon="12.772387074266646"><ele>639.0</ele><time>2026-04-18T10:26:07.999Z</time></trkpt><trkpt lat="42.31416540076528" lon="12.772521147875667"><ele>639.0</ele><time>2026-04-18T10:26:08.999Z</time></trkpt><trkpt lat="42.314275842462735" lon="12.772663557496807"><ele>639.0</ele><time>2026-04-18T10:26:09.999Z</time></trkpt><trkpt lat="42.3143867434181" lon="12.772798380945297"><ele>639.75</ele><time>2026-04-18T10:26:10.999Z</time></trkpt><trkpt lat="42.314492531222314" lon="12.772916598745965"><ele>640.5</ele><time>2026-04-18T10:26:11.999Z</time></trkpt><trkpt lat="42.31459293158006" lon="12.773027929235383"><ele>641.25</ele><time>2026-04-18T10:26:12.999Z</time></trkpt><trkpt lat="42.31468607615213" lon="12.773136536340278"><ele>642.0</ele><time>2026-04-18T10:26:13.999Z</time></trkpt><trkpt lat="42.31477153534415" lon="12.77324130380175"><ele>642.0</ele><time>2026-04-18T10:26:14.999Z</time></trkpt><trkpt lat="42.314851886793484" lon="12.773350146390772"><ele>642.0</ele><time>2026-04-18T10:26:15.999Z</time></trkpt><trkpt lat="42.31490045254286" lon="12.77349803539499"><ele>642.0</ele><time>2026-04-18T10:26:16.999Z</time></trkpt><trkpt lat="42.31493480016172" lon="12.773665956733554"><ele>642.0</ele><time>2026-04-18T10:26:17.999Z</time></trkpt><trkpt lat="42.31493308477746" lon="12.773849971472513"><ele>641.6666666666666</ele><time>2026-04-18T10:26:18.999Z</time></trkpt><trkpt lat="42.314910078965745" lon="12.774046053444518"><ele>641.3333333333333</ele><time>2026-04-18T10:26:19.999Z</time></trkpt><trkpt lat="42.31487438466419" lon="12.774260631590215"><ele>641.0</ele><time>2026-04-18T10:26:20.999Z</time></trkpt><trkpt lat="42.31480855433647" lon="12.774467377505488"><ele>643.25</ele><time>2026-04-18T10:26:21.999Z</time></trkpt><trkpt lat="42.31475546949927" lon="12.774652396492794"><ele>645.5</ele><time>2026-04-18T10:26:22.999Z</time></trkpt><trkpt lat="42.314706010406724" lon="12.774838328355862"><ele>647.75</ele><time>2026-04-18T10:26:23.999Z</time></trkpt><trkpt lat="42.31465496882761" lon="12.775026017443983"><ele>650.0</ele><time>2026-04-18T10:26:25Z</time></trkpt><trkpt lat="42.31460752334665" lon="12.775214199688604"><ele>643.5</ele><time>2026-04-18T10:26:26Z</time></trkpt><trkpt lat="42.31456297173052" lon="12.77538572667151"><ele>637.0</ele><time>2026-04-18T10:26:27Z</time></trkpt><trkpt lat="42.31451958194933" lon="12.775553069032854"><ele>630.5</ele><time>2026-04-18T10:26:28Z</time></trkpt><trkpt lat="42.314474029275935" lon="12.775700975830041"><ele>624.0</ele><time>2026-04-18T10:26:29Z</time></trkpt><trkpt lat="42.31444436399514" lon="12.775860840650793"><ele>624.75</ele><time>2026-04-18T10:26:30Z</time></trkpt><trkpt lat="42.31443881342494" lon="12.776031633357661"><ele>625.5</ele><time>2026-04-18T10:26:31Z</time></trkpt><trkpt lat="42.31447653698797" lon="12.776206037188059"><ele>626.25</ele><time>2026-04-18T10:26:32Z</time></trkpt><trkpt lat="42.314512646983964" lon="12.77635444681512"><ele>627.0</ele><time>2026-04-18T10:26:33Z</time></trkpt><trkpt lat="42.31455702252022" lon="12.776491158544255"><ele>627.0</ele><time>2026-04-18T10:26:34Z</time></trkpt><trkpt lat="42.31462640076779" lon="12.776609471191602"><ele>627.0</ele><time>2026-04-18T10:26:35Z</time></trkpt><trkpt lat="42.314719432139164" lon="12.776705924747477"><ele>627.0</ele><time>2026-04-18T10:26:36Z</time></trkpt><trkpt lat="42.31480962777582" lon="12.776782367147884"><ele>627.0</ele><time>2026-04-18T10:26:37Z</time></trkpt><trkpt lat="42.314890972935935" lon="12.776846965647389"><ele>627.0</ele><time>2026-04-18T10:26:38Z</time></trkpt><trkpt lat="42.31495703268735" lon="12.776920946181923"><ele>628.3333333333334</ele><time>2026-04-18T10:26:39Z</time></trkpt><trkpt lat="42.31500980001162" lon="12.776999849940585"><ele>629.6666666666666</ele><time>2026-04-18T10:26:40Z</time></trkpt><trkpt lat="42.315046022090094" lon="12.777070437606053"><ele>631.0</ele><time>2026-04-18T10:26:41Z</time></trkpt><trkpt lat="42.315126891910026" lon="12.777174329453182"><ele>632.3333333333333</ele><time>2026-04-18T10:26:43Z</time></trkpt><trkpt lat="42.315207381865775" lon="12.77721891556849"><ele>633.6666666666666</ele><time>2026-04-18T10:26:44Z</time></trkpt><trkpt lat="42.31530551459124" lon="12.777247089336864"><ele>635.0</ele><time>2026-04-18T10:26:45Z</time></trkpt><trkpt lat="42.31539509171206" lon="12.777279360801646"><ele>635.0</ele><time>2026-04-18T10:26:46Z</time></trkpt><trkpt lat="42.315493683833694" lon="12.777350870961019"><ele>635.0</ele><time>2026-04-18T10:26:47Z</time></trkpt><trkpt lat="42.31560968201334" lon="12.777458869315504"><ele>635.0</ele><time>2026-04-18T10:26:48Z</time></trkpt><trkpt lat="42.315719671659714" lon="12.77757116376177"><ele>635.0</ele><time>2026-04-18T10:26:49Z</time></trkpt><trkpt lat="42.31580609435712" lon="12.777672007358696"><ele>636.0</ele><time>2026-04-18T10:26:50Z</time></trkpt><trkpt lat="42.31586546702304" lon="12.777777028143285"><ele>637.0</ele><time>2026-04-18T10:26:51Z</time></trkpt><trkpt lat="42.315909377692584" lon="12.777902737747755"><ele>638.0</ele><time>2026-04-18T10:26:52Z</time></trkpt><trkpt lat="42.31594972941861" lon="12.778071640301086"><ele>639.0</ele><time>2026-04-18T10:26:53Z</time></trkpt><trkpt lat="42.31596481349613" lon="12.778256675176348"><ele>639.0</ele><time>2026-04-18T10:26:54Z</time></trkpt><trkpt lat="42.315985741833245" lon="12.778440507823564"><ele>639.0</ele><time>2026-04-18T10:26:55Z</time></trkpt><trkpt lat="42.316016548139665" lon="12.778613761570336"><ele>639.0</ele><time>2026-04-18T10:26:56Z</time></trkpt><trkpt lat="42.31603122508722" lon="12.778764209739528"><ele>639.0</ele><time>2026-04-18T10:26:57Z</time></trkpt><trkpt lat="42.3160713211858" lon="12.778903683746455"><ele>639.5</ele><time>2026-04-18T10:26:58Z</time></trkpt><trkpt lat="42.31615981234891" lon="12.778996638046047"><ele>640.0</ele><time>2026-04-18T10:26:59Z</time></trkpt><trkpt lat="42.31627998654518" lon="12.779046404931865"><ele>640.5</ele><time>2026-04-18T10:27:00Z</time></trkpt><trkpt lat="42.31640474453604" lon="12.77901567198427"><ele>641.0</ele><time>2026-04-18T10:27:01Z</time></trkpt><trkpt lat="42.31653317750013" lon="12.77908277948682"><ele>639.5</ele><time>2026-04-18T10:27:02Z</time></trkpt><trkpt lat="42.31657881952635" lon="12.778835518833157"><ele>638.0</ele><time>2026-04-18T10:27:03Z</time></trkpt><trkpt lat="42.31662202452648" lon="12.778683813676535"><ele>636.5</ele><time>2026-04-18T10:27:04Z</time></trkpt><trkpt lat="42.31664093314758" lon="12.77851657600758"><ele>635.0</ele><time>2026-04-18T10:27:05Z</time></trkpt><trkpt lat="42.31665755802214" lon="12.778326612783633"><ele>633.0</ele><time>2026-04-18T10:27:06Z</time></trkpt><trkpt lat="42.316682668448586" lon="12.778141332062612"><ele>631.0</ele><time>2026-04-18T10:27:07Z</time></trkpt><trkpt lat="42.316712686428836" lon="12.777982029911758"><ele>629.0</ele><time>2026-04-18T10:27:08Z</time></trkpt><trkpt lat="42.31674857951597" lon="12.777825256911996"><ele>627.0</ele><time>2026-04-18T10:27:09Z</time></trkpt><trkpt lat="42.31680982968055" lon="12.777673860717709"><ele>625.0</ele><time>2026-04-18T10:27:10Z</time></trkpt><trkpt lat="42.31689191562685" lon="12.77752691463827"><ele>623.0</ele><time>2026-04-18T10:27:11Z</time></trkpt><trkpt lat="42.316991826255304" lon="12.77739893222968"><ele>621.0</ele><time>2026-04-18T10:27:12Z</time></trkpt><trkpt lat="42.31710290578489" lon="12.777293347893643"><ele>619.0</ele><time>2026-04-18T10:27:13Z</time></trkpt><trkpt lat="42.31722594301463" lon="12.77720028507545"><ele>619.75</ele><time>2026-04-18T10:27:14Z</time></trkpt><trkpt lat="42.317360304546646" lon="12.77714180921281"><ele>620.5</ele><time>2026-04-18T10:27:15Z</time></trkpt><trkpt lat="42.31750344192397" lon="12.777114095989418"><ele>621.25</ele><time>2026-04-18T10:27:16Z</time></trkpt><trkpt lat="42.31765850040802" lon="12.7771010668151"><ele>622.0</ele><time>2026-04-18T10:27:17Z</time></trkpt><trkpt lat="42.31780317183113" lon="12.77706389359418"><ele>622.0</ele><time>2026-04-18T10:27:18Z</time></trkpt><trkpt lat="42.31794867261725" lon="12.777064559945943"><ele>622.0</ele><time>2026-04-18T10:27:19Z</time></trkpt><trkpt lat="42.31808350757904" lon="12.777033045088316"><ele>622.0</ele><time>2026-04-18T10:27:20Z</time></trkpt><trkpt lat="42.31821597895498" lon="12.777017199829444"><ele>622.0</ele><time>2026-04-18T10:27:21Z</time></trkpt><trkpt lat="42.31833755467587" lon="12.777008326709975"><ele>620.4</ele><time>2026-04-18T10:27:22Z</time></trkpt><trkpt lat="42.318457111097025" lon="12.776989499869275"><ele>618.8000000000001</ele><time>2026-04-18T10:27:23Z</time></trkpt><trkpt lat="42.31856560113985" lon="12.7769737371179"><ele>617.2</ele><time>2026-04-18T10:27:24Z</time></trkpt><trkpt lat="42.31867045444338" lon="12.77696404361331"><ele>615.6</ele><time>2026-04-18T10:27:25Z</time></trkpt><trkpt lat="42.31877800431836" lon="12.776980961860062"><ele>614.0</ele><time>2026-04-18T10:27:26Z</time></trkpt><trkpt lat="42.31889212447885" lon="12.777052962392602"><ele>610.25</ele><time>2026-04-18T10:27:27Z</time></trkpt><trkpt lat="42.31899786564563" lon="12.77716850923205"><ele>606.5</ele><time>2026-04-18T10:27:28Z</time></trkpt><trkpt lat="42.31908409745532" lon="12.777321274892975"><ele>602.75</ele><time>2026-04-18T10:27:29Z</time></trkpt><trkpt lat="42.319141179633604" lon="12.777498344291264"><ele>599.0</ele><time>2026-04-18T10:27:30Z</time></trkpt><trkpt lat="42.319220992648205" lon="12.777668510631836"><ele>600.75</ele><time>2026-04-18T10:27:31Z</time></trkpt><trkpt lat="42.31928655196226" lon="12.777847720180072"><ele>602.5</ele><time>2026-04-18T10:27:32Z</time></trkpt><trkpt lat="42.319352489813035" lon="12.778019617590786"><ele>604.25</ele><time>2026-04-18T10:27:33Z</time></trkpt><trkpt lat="42.31941646510476" lon="12.778180468703226"><ele>606.0</ele><time>2026-04-18T10:27:34Z</time></trkpt><trkpt lat="42.31947212083626" lon="12.778336602715171"><ele>606.0</ele><time>2026-04-18T10:27:35Z</time></trkpt><trkpt lat="42.31952251390548" lon="12.77848978360227"><ele>606.0</ele><time>2026-04-18T10:27:36Z</time></trkpt><trkpt lat="42.31956708660672" lon="12.778648798952295"><ele>606.0</ele><time>2026-04-18T10:27:37Z</time></trkpt><trkpt lat="42.31958125451474" lon="12.778811609059192"><ele>606.0</ele><time>2026-04-18T10:27:38Z</time></trkpt><trkpt lat="42.31958447107015" lon="12.778970923615637"><ele>605.75</ele><time>2026-04-18T10:27:39Z</time></trkpt><trkpt lat="42.31958227815538" lon="12.779120328816731"><ele>605.5</ele><time>2026-04-18T10:27:40Z</time></trkpt><trkpt lat="42.31961142730417" lon="12.779262070427388"><ele>605.25</ele><time>2026-04-18T10:27:41Z</time></trkpt><trkpt lat="42.31966653144713" lon="12.779398584362063"><ele>605.0</ele><time>2026-04-18T10:27:42Z</time></trkpt><trkpt lat="42.31977446343069" lon="12.779498678584476"><ele>605.0</ele><time>2026-04-18T10:27:43Z</time></trkpt><trkpt lat="42.319889854880685" lon="12.779546482950057"><ele>605.0</ele><time>2026-04-18T10:27:44Z</time></trkpt><trkpt lat="42.32000199793631" lon="12.779538626166657"><ele>605.0</ele><time>2026-04-18T10:27:45Z</time></trkpt><trkpt lat="42.32011268482548" lon="12.779479986801206"><ele>605.0</ele><time>2026-04-18T10:27:46Z</time></trkpt><trkpt lat="42.32020864787682" lon="12.779375671228216"><ele>602.0</ele><time>2026-04-18T10:27:47Z</time></trkpt><trkpt lat="42.32027986168264" lon="12.779232351214018"><ele>599.0</ele><time>2026-04-18T10:27:48Z</time></trkpt><trkpt lat="42.3203116709436" lon="12.779072755143686"><ele>596.0</ele><time>2026-04-18T10:27:49Z</time></trkpt><trkpt lat="42.32030565858974" lon="12.778908336978672"><ele>593.0</ele><time>2026-04-18T10:27:50Z</time></trkpt><trkpt lat="42.32025600568435" lon="12.77875663455583"><ele>593.0</ele><time>2026-04-18T10:27:51Z</time></trkpt><trkpt lat="42.32019054381398" lon="12.778611889564974"><ele>593.0</ele><time>2026-04-18T10:27:52Z</time></trkpt><trkpt lat="42.32013716390686" lon="12.77845675227267"><ele>593.0</ele><time>2026-04-18T10:27:53Z</time></trkpt><trkpt lat="42.320112572428066" lon="12.77828688321491"><ele>593.0</ele><time>2026-04-18T10:27:54Z</time></trkpt><trkpt lat="42.32011307173207" lon="12.77810493891875"><ele>592.25</ele><time>2026-04-18T10:27:55Z</time></trkpt><trkpt lat="42.320130678409726" lon="12.77791840031928"><ele>591.5</ele><time>2026-04-18T10:27:56Z</time></trkpt><trkpt lat="42.320155846483665" lon="12.777745579052517"><ele>590.75</ele><time>2026-04-18T10:27:57Z</time></trkpt><trkpt lat="42.32016526787286" lon="12.777570322782255"><ele>590.0</ele><time>2026-04-18T10:27:58Z</time></trkpt><trkpt lat="42.32014244303902" lon="12.777390959639725"><ele>588.5</ele><time>2026-04-18T10:27:59Z</time></trkpt><trkpt lat="42.320132386443575" lon="12.777199883400257"><ele>587.0</ele><time>2026-04-18T10:28:00Z</time></trkpt><trkpt lat="42.320101778384654" lon="12.777005184748768"><ele>585.5</ele><time>2026-04-18T10:28:01Z</time></trkpt><trkpt lat="42.32007043154719" lon="12.776823482384975"><ele>584.0</ele><time>2026-04-18T10:28:02Z</time></trkpt><trkpt lat="42.320041853123925" lon="12.776647694266414"><ele>583.75</ele><time>2026-04-18T10:28:03Z</time></trkpt><trkpt lat="42.320014068701816" lon="12.77647436368756"><ele>583.5</ele><time>2026-04-18T10:28:04Z</time></trkpt><trkpt lat="42.31997723141577" lon="12.776314757525329"><ele>583.25</ele><time>2026-04-18T10:28:05Z</time></trkpt><trkpt lat="42.31997070640191" lon="12.776142825055725"><ele>583.0</ele><time>2026-04-18T10:28:06Z</time></trkpt><trkpt lat="42.32000308820719" lon="12.775971636630667"><ele>581.0</ele><time>2026-04-18T10:28:07Z</time></trkpt><trkpt lat="42.320038786710334" lon="12.775791798227766"><ele>579.0</ele><time>2026-04-18T10:28:08Z</time></trkpt><trkpt lat="42.32007555987369" lon="12.775593152811709"><ele>577.0</ele><time>2026-04-18T10:28:09Z</time></trkpt><trkpt lat="42.320136138239185" lon="12.77539538691114"><ele>575.0</ele><time>2026-04-18T10:28:10Z</time></trkpt><trkpt lat="42.32019905557205" lon="12.77519736116501"><ele>573.6666666666666</ele><time>2026-04-18T10:28:11Z</time></trkpt><trkpt lat="42.32025607700779" lon="12.774994695843475"><ele>572.3333333333334</ele><time>2026-04-18T10:28:12Z</time></trkpt><trkpt lat="42.320308128733366" lon="12.774802990561303"><ele>571.0</ele><time>2026-04-18T10:28:13Z</time></trkpt><trkpt lat="42.32036310377168" lon="12.774617635160984"><ele>571.0</ele><time>2026-04-18T10:28:14Z</time></trkpt><trkpt lat="42.320416398978736" lon="12.774434836118902"><ele>571.0</ele><time>2026-04-18T10:28:15Z</time></trkpt><trkpt lat="42.32046710845616" lon="12.774257618401625"><ele>571.0</ele><time>2026-04-18T10:28:16Z</time></trkpt><trkpt lat="42.32052211652677" lon="12.774074027641653"><ele>571.0</ele><time>2026-04-18T10:28:17Z</time></trkpt><trkpt lat="42.320577339573184" lon="12.773885463834489"><ele>572.6666666666667</ele><time>2026-04-18T10:28:18Z</time></trkpt><trkpt lat="42.32062772572487" lon="12.773691816518038"><ele>574.3333333333334</ele><time>2026-04-18T10:28:19Z</time></trkpt><trkpt lat="42.320683177872" lon="12.77350257235511"><ele>576.0</ele><time>2026-04-18T10:28:20Z</time></trkpt><trkpt lat="42.320744645423616" lon="12.773314981327346"><ele>571.6666666666666</ele><time>2026-04-18T10:28:21Z</time></trkpt><trkpt lat="42.320801073211705" lon="12.773126236349547"><ele>567.3333333333333</ele><time>2026-04-18T10:28:22Z</time></trkpt><trkpt lat="42.32085342771374" lon="12.772935138600667"><ele>563.0</ele><time>2026-04-18T10:28:23Z</time></trkpt><trkpt lat="42.32090700958099" lon="12.772745582809952"><ele>561.0</ele><time>2026-04-18T10:28:24Z</time></trkpt><trkpt lat="42.320955530302214" lon="12.772557881912137"><ele>559.0</ele><time>2026-04-18T10:28:25Z</time></trkpt><trkpt lat="42.321026420481466" lon="12.772381914235368"><ele>557.0</ele><time>2026-04-18T10:28:26Z</time></trkpt><trkpt lat="42.32110356952542" lon="12.77221662044967"><ele>555.0</ele><time>2026-04-18T10:28:27Z</time></trkpt><trkpt lat="42.32122235331298" lon="12.772116591717785"><ele>555.0</ele><time>2026-04-18T10:28:28Z</time></trkpt><trkpt lat="42.321358301592895" lon="12.772036762519205"><ele>555.0</ele><time>2026-04-18T10:28:29Z</time></trkpt><trkpt lat="42.321507481141104" lon="12.771959147401084"><ele>555.0</ele><time>2026-04-18T10:28:30Z</time></trkpt><trkpt lat="42.321676190661684" lon="12.77186146749812"><ele>553.3333333333334</ele><time>2026-04-18T10:28:31Z</time></trkpt><trkpt lat="42.32183682213254" lon="12.77177599468446"><ele>551.6666666666667</ele><time>2026-04-18T10:28:32Z</time></trkpt><trkpt lat="42.32198059933114" lon="12.771702262919238"><ele>550.0</ele><time>2026-04-18T10:28:33Z</time></trkpt><trkpt lat="42.322110296743276" lon="12.771631313461041"><ele>550.0</ele><time>2026-04-18T10:28:34Z</time></trkpt><trkpt lat="42.32222634596071" lon="12.7715364021632"><ele>550.0</ele><time>2026-04-18T10:28:35Z</time></trkpt><trkpt lat="42.32234531888555" lon="12.771457762297777"><ele>550.0</ele><time>2026-04-18T10:28:36Z</time></trkpt><trkpt lat="42.32244359085757" lon="12.77133670077881"><ele>550.0</ele><time>2026-04-18T10:28:37Z</time></trkpt><trkpt lat="42.322537342728744" lon="12.771154137612655"><ele>549.75</ele><time>2026-04-18T10:28:38Z</time></trkpt><trkpt lat="42.32261068237401" lon="12.770972455929702"><ele>549.5</ele><time>2026-04-18T10:28:39Z</time></trkpt><trkpt lat="42.32266956706374" lon="12.770807197131937"><ele>549.25</ele><time>2026-04-18T10:28:40Z</time></trkpt><trkpt lat="42.322749998338914" lon="12.77065792113315"><ele>549.0</ele><time>2026-04-18T10:28:41Z</time></trkpt><trkpt lat="42.32284316923018" lon="12.770490889269665"><ele>549.0</ele><time>2026-04-18T10:28:42Z</time></trkpt><trkpt lat="42.322966272820956" lon="12.77033177611561"><ele>549.0</ele><time>2026-04-18T10:28:43Z</time></trkpt><trkpt lat="42.323119672875656" lon="12.770198791873767"><ele>549.0</ele><time>2026-04-18T10:28:44Z</time></trkpt><trkpt lat="42.32325771720248" lon="12.770062238060227"><ele>548.3333333333334</ele><time>2026-04-18T10:28:45Z</time></trkpt><trkpt lat="42.32337755956587" lon="12.769923925709488"><ele>547.6666666666667</ele><time>2026-04-18T10:28:46Z</time></trkpt><trkpt lat="42.32350599430835" lon="12.769795484308995"><ele>547.0</ele><time>2026-04-18T10:28:47Z</time></trkpt><trkpt lat="42.32363574310595" lon="12.769668256543989"><ele>547.0</ele><time>2026-04-18T10:28:48Z</time></trkpt><trkpt lat="42.323763791233226" lon="12.76954048881419"><ele>547.0</ele><time>2026-04-18T10:28:49Z</time></trkpt><trkpt lat="42.32388567473434" lon="12.769427208242037"><ele>547.0</ele><time>2026-04-18T10:28:50Z</time></trkpt><trkpt lat="42.32400064166696" lon="12.769321190518715"><ele>547.0</ele><time>2026-04-18T10:28:51Z</time></trkpt><trkpt lat="42.324105624269855" lon="12.769201628845932"><ele>546.0</ele><time>2026-04-18T10:28:52Z</time></trkpt><trkpt lat="42.32423147772193" lon="12.769101456613887"><ele>545.0</ele><time>2026-04-18T10:28:53Z</time></trkpt><trkpt lat="42.32433464207572" lon="12.768954226994715"><ele>544.0</ele><time>2026-04-18T10:28:54Z</time></trkpt><trkpt lat="42.32443650585987" lon="12.76880650882057"><ele>543.0</ele><time>2026-04-18T10:28:55Z</time></trkpt><trkpt lat="42.32453759296712" lon="12.7686502304111"><ele>541.6666666666666</ele><time>2026-04-18T10:28:56Z</time></trkpt><trkpt lat="42.32464117313909" lon="12.768508922504651"><ele>540.3333333333333</ele><time>2026-04-18T10:28:57Z</time></trkpt><trkpt lat="42.3247369830338" lon="12.768352999000822"><ele>539.0</ele><time>2026-04-18T10:28:58Z</time></trkpt><trkpt lat="42.324846448852306" lon="12.768197645359681"><ele>539.0</ele><time>2026-04-18T10:28:59Z</time></trkpt><trkpt lat="42.324965572119254" lon="12.768079924877467"><ele>539.0</ele><time>2026-04-18T10:29:00Z</time></trkpt><trkpt lat="42.325093850427294" lon="12.767995003978584"><ele>539.0</ele><time>2026-04-18T10:29:01Z</time></trkpt><trkpt lat="42.32523283545178" lon="12.76793720137257"><ele>539.0</ele><time>2026-04-18T10:29:02Z</time></trkpt><trkpt lat="42.32538599374345" lon="12.767895424364696"><ele>539.0</ele><time>2026-04-18T10:29:03Z</time></trkpt><trkpt lat="42.32554801071141" lon="12.767887876143211"><ele>539.0</ele><time>2026-04-18T10:29:04Z</time></trkpt><trkpt lat="42.32571435674967" lon="12.767909420754998"><ele>539.0</ele><time>2026-04-18T10:29:05Z</time></trkpt><trkpt lat="42.32588564976044" lon="12.767944540814153"><ele>538.0</ele><time>2026-04-18T10:29:06Z</time></trkpt><trkpt lat="42.32604987767148" lon="12.767973755870523"><ele>537.0</ele><time>2026-04-18T10:29:07Z</time></trkpt><trkpt lat="42.326203311788625" lon="12.76800330677433"><ele>536.0</ele><time>2026-04-18T10:29:08Z</time></trkpt><trkpt lat="42.326359221285244" lon="12.768024642348287"><ele>534.0</ele><time>2026-04-18T10:29:09Z</time></trkpt><trkpt lat="42.326516668204405" lon="12.768046996040018"><ele>532.0</ele><time>2026-04-18T10:29:10Z</time></trkpt><trkpt lat="42.326677777093195" lon="12.76807639511641"><ele>530.0</ele><time>2026-04-18T10:29:11Z</time></trkpt><trkpt lat="42.3268401011349" lon="12.768110897735534"><ele>530.0</ele><time>2026-04-18T10:29:12Z</time></trkpt><trkpt lat="42.3270064688301" lon="12.768136372878073"><ele>530.0</ele><time>2026-04-18T10:29:13Z</time></trkpt><trkpt lat="42.32716690027303" lon="12.768165974446731"><ele>530.0</ele><time>2026-04-18T10:29:14Z</time></trkpt><trkpt lat="42.327325835763475" lon="12.76819781417119"><ele>529.3333333333333</ele><time>2026-04-18T10:29:15Z</time></trkpt><trkpt lat="42.32748141878775" lon="12.768226199787302"><ele>528.6666666666666</ele><time>2026-04-18T10:29:16Z</time></trkpt><trkpt lat="42.32763892950751" lon="12.768253002439405"><ele>528.0</ele><time>2026-04-18T10:29:17Z</time></trkpt><trkpt lat="42.32779172850236" lon="12.768277304663865"><ele>528.0</ele><time>2026-04-18T10:29:18Z</time></trkpt><trkpt lat="42.32794467220137" lon="12.768300918671395"><ele>528.0</ele><time>2026-04-18T10:29:19Z</time></trkpt><trkpt lat="42.32809773189487" lon="12.768327097304097"><ele>528.0</ele><time>2026-04-18T10:29:20Z</time></trkpt><trkpt lat="42.32825091774087" lon="12.768338394957189"><ele>526.3333333333334</ele><time>2026-04-18T10:29:21Z</time></trkpt><trkpt lat="42.328405994148305" lon="12.768343640535221"><ele>524.6666666666667</ele><time>2026-04-18T10:29:22Z</time></trkpt><trkpt lat="42.32856512661662" lon="12.768333275881092"><ele>523.0</ele><time>2026-04-18T10:29:23Z</time></trkpt><trkpt lat="42.32872487898247" lon="12.768319723994294"><ele>523.0</ele><time>2026-04-18T10:29:24Z</time></trkpt><trkpt lat="42.328884469659904" lon="12.768300329892426"><ele>523.0</ele><time>2026-04-18T10:29:25Z</time></trkpt><trkpt lat="42.32904423537528" lon="12.768294019064403"><ele>523.0</ele><time>2026-04-18T10:29:26Z</time></trkpt><trkpt lat="42.329204978660506" lon="12.768292878160576"><ele>523.0</ele><time>2026-04-18T10:29:27Z</time></trkpt><trkpt lat="42.32936440434796" lon="12.76829099541986"><ele>523.0</ele><time>2026-04-18T10:29:28Z</time></trkpt><trkpt lat="42.32952399488587" lon="12.768279387130288"><ele>523.0</ele><time>2026-04-18T10:29:29Z</time></trkpt><trkpt lat="42.329678244564384" lon="12.768259823029318"><ele>521.6666666666667</ele><time>2026-04-18T10:29:30Z</time></trkpt><trkpt lat="42.32983135323565" lon="12.768249694726817"><ele>520.3333333333334</ele><time>2026-04-18T10:29:31Z</time></trkpt><trkpt lat="42.329984669275206" lon="12.76824350086861"><ele>519.0</ele><time>2026-04-18T10:29:32Z</time></trkpt><trkpt lat="42.33014108035616" lon="12.76825524810981"><ele>519.0</ele><time>2026-04-18T10:29:33Z</time></trkpt><trkpt lat="42.33029017167287" lon="12.768231279416767"><ele>519.0</ele><time>2026-04-18T10:29:34Z</time></trkpt><trkpt lat="42.33044397288409" lon="12.768225329803037"><ele>519.0</ele><time>2026-04-18T10:29:35Z</time></trkpt><trkpt lat="42.33059213402245" lon="12.768209787689289"><ele>518.75</ele><time>2026-04-18T10:29:36Z</time></trkpt><trkpt lat="42.33074294965644" lon="12.768210016852612"><ele>518.5</ele><time>2026-04-18T10:29:37Z</time></trkpt><trkpt lat="42.330887974556724" lon="12.768220372986448"><ele>518.25</ele><time>2026-04-18T10:29:38Z</time></trkpt><trkpt lat="42.331032606717415" lon="12.76824345466269"><ele>518.0</ele><time>2026-04-18T10:29:39Z</time></trkpt><trkpt lat="42.331174258370964" lon="12.768276635584353"><ele>518.0</ele><time>2026-04-18T10:29:40Z</time></trkpt><trkpt lat="42.33133351054936" lon="12.76831581612214"><ele>518.0</ele><time>2026-04-18T10:29:41Z</time></trkpt><trkpt lat="42.33150456282317" lon="12.768364525477663"><ele>518.0</ele><time>2026-04-18T10:29:42Z</time></trkpt><trkpt lat="42.331677712937434" lon="12.768414502848776"><ele>518.6666666666666</ele><time>2026-04-18T10:29:43Z</time></trkpt><trkpt lat="42.331838062908105" lon="12.768459863661336"><ele>519.3333333333334</ele><time>2026-04-18T10:29:44Z</time></trkpt><trkpt lat="42.33199493463049" lon="12.768505126267206"><ele>520.0</ele><time>2026-04-18T10:29:45Z</time></trkpt><trkpt lat="42.33214976198253" lon="12.76855885581364"><ele>515.6666666666667</ele><time>2026-04-18T10:29:46Z</time></trkpt><trkpt lat="42.332300500432034" lon="12.768602399020706"><ele>511.33333333333337</ele><time>2026-04-18T10:29:47Z</time></trkpt><trkpt lat="42.33245770810554" lon="12.76865823023764"><ele>507.0</ele><time>2026-04-18T10:29:48Z</time></trkpt><trkpt lat="42.33261625310641" lon="12.768711540908239"><ele>507.0</ele><time>2026-04-18T10:29:49Z</time></trkpt><trkpt lat="42.33277766982631" lon="12.768761303505059"><ele>507.0</ele><time>2026-04-18T10:29:50Z</time></trkpt><trkpt lat="42.33294323991517" lon="12.768813474687203"><ele>507.0</ele><time>2026-04-18T10:29:51Z</time></trkpt><trkpt lat="42.33311239013497" lon="12.768865260857028"><ele>506.33333333333337</ele><time>2026-04-18T10:29:52Z</time></trkpt><trkpt lat="42.333284079905546" lon="12.76891938412523"><ele>505.6666666666667</ele><time>2026-04-18T10:29:53Z</time></trkpt><trkpt lat="42.33344690242352" lon="12.76897102396202"><ele>505.0</ele><time>2026-04-18T10:29:54Z</time></trkpt><trkpt lat="42.33360369777729" lon="12.769020830313035"><ele>505.0</ele><time>2026-04-18T10:29:55Z</time></trkpt><trkpt lat="42.33376561602254" lon="12.769071006189565"><ele>505.0</ele><time>2026-04-18T10:29:56Z</time></trkpt><trkpt lat="42.333927629986306" lon="12.769118816673195"><ele>505.0</ele><time>2026-04-18T10:29:57Z</time></trkpt><trkpt lat="42.33409068379915" lon="12.769164168955045"><ele>505.6666666666667</ele><time>2026-04-18T10:29:58Z</time></trkpt><trkpt lat="42.33425321562307" lon="12.769214485978168"><ele>506.33333333333337</ele><time>2026-04-18T10:29:59Z</time></trkpt><trkpt lat="42.334415016423065" lon="12.769262200058"><ele>507.0</ele><time>2026-04-18T10:30:00Z</time></trkpt><trkpt lat="42.33457944257265" lon="12.769309364350708"><ele>503.33333333333337</ele><time>2026-04-18T10:30:01Z</time></trkpt><trkpt lat="42.33474574671208" lon="12.769359124581278"><ele>499.6666666666667</ele><time>2026-04-18T10:30:02Z</time></trkpt><trkpt lat="42.334910566827276" lon="12.76941377149208"><ele>496.0</ele><time>2026-04-18T10:30:03Z</time></trkpt><trkpt lat="42.33507499073411" lon="12.769469375120766"><ele>496.0</ele><time>2026-04-18T10:30:04Z</time></trkpt><trkpt lat="42.33523931778073" lon="12.769523505005244"><ele>496.0</ele><time>2026-04-18T10:30:05Z</time></trkpt><trkpt lat="42.33540443630638" lon="12.769574270762488"><ele>496.0</ele><time>2026-04-18T10:30:06Z</time></trkpt><trkpt lat="42.33557128979491" lon="12.76962357092624"><ele>496.0</ele><time>2026-04-18T10:30:07Z</time></trkpt><trkpt lat="42.33574114136758" lon="12.769671201130295"><ele>496.0</ele><time>2026-04-18T10:30:08Z</time></trkpt><trkpt lat="42.335906559403234" lon="12.769712924873149"><ele>496.0</ele><time>2026-04-18T10:30:09Z</time></trkpt><trkpt lat="42.33606088769123" lon="12.769760759430618"><ele>496.0</ele><time>2026-04-18T10:30:10Z</time></trkpt><trkpt lat="42.336219176273985" lon="12.769805172056858"><ele>496.0</ele><time>2026-04-18T10:30:11Z</time></trkpt><trkpt lat="42.33636896310777" lon="12.769855146677466"><ele>496.0</ele><time>2026-04-18T10:30:12Z</time></trkpt><trkpt lat="42.33651874320658" lon="12.769904001305404"><ele>495.6666666666667</ele><time>2026-04-18T10:30:13Z</time></trkpt><trkpt lat="42.336678415841384" lon="12.769956399865546"><ele>495.33333333333337</ele><time>2026-04-18T10:30:14Z</time></trkpt><trkpt lat="42.33684654873318" lon="12.770007468370956"><ele>495.0</ele><time>2026-04-18T10:30:15Z</time></trkpt><trkpt lat="42.33702065881515" lon="12.770061397014052"><ele>495.0</ele><time>2026-04-18T10:30:16Z</time></trkpt><trkpt lat="42.3371872317119" lon="12.770118315449444"><ele>495.0</ele><time>2026-04-18T10:30:17Z</time></trkpt><trkpt lat="42.33734578029463" lon="12.770172637744631"><ele>495.0</ele><time>2026-04-18T10:30:18Z</time></trkpt><trkpt lat="42.33749885643255" lon="12.7702181254145"><ele>494.0</ele><time>2026-04-18T10:30:19Z</time></trkpt><trkpt lat="42.337658577358006" lon="12.77026432293624"><ele>493.0</ele><time>2026-04-18T10:30:20Z</time></trkpt><trkpt lat="42.337829517113605" lon="12.77031390162741"><ele>492.0</ele><time>2026-04-18T10:30:21Z</time></trkpt><trkpt lat="42.338001477571076" lon="12.770365761702582"><ele>490.66666666666663</ele><time>2026-04-18T10:30:22Z</time></trkpt><trkpt lat="42.33815833075676" lon="12.77041740081157"><ele>489.3333333333333</ele><time>2026-04-18T10:30:23Z</time></trkpt><trkpt lat="42.3383033184771" lon="12.770468216514098"><ele>488.0</ele><time>2026-04-18T10:30:24Z</time></trkpt><trkpt lat="42.338456327297465" lon="12.77051638006472"><ele>488.0</ele><time>2026-04-18T10:30:25Z</time></trkpt><trkpt lat="42.338613470956" lon="12.770562781607682"><ele>488.0</ele><time>2026-04-18T10:30:26Z</time></trkpt><trkpt lat="42.33877494397364" lon="12.770608246550536"><ele>488.0</ele><time>2026-04-18T10:30:27Z</time></trkpt><trkpt lat="42.33893926312277" lon="12.770660211752777"><ele>488.3333333333333</ele><time>2026-04-18T10:30:28Z</time></trkpt><trkpt lat="42.33909991393631" lon="12.77070855913346"><ele>488.66666666666663</ele><time>2026-04-18T10:30:29Z</time></trkpt><trkpt lat="42.339256068345705" lon="12.770764857025291"><ele>489.0</ele><time>2026-04-18T10:30:30Z</time></trkpt><trkpt lat="42.33941153890338" lon="12.77082516638272"><ele>489.0</ele><time>2026-04-18T10:30:31Z</time></trkpt><trkpt lat="42.33956065273684" lon="12.770890182631328"><ele>489.0</ele><time>2026-04-18T10:30:32Z</time></trkpt><trkpt lat="42.33970760898143" lon="12.770963856195289"><ele>489.0</ele><time>2026-04-18T10:30:33Z</time></trkpt><trkpt lat="42.33985758988452" lon="12.77105414932161"><ele>486.66666666666663</ele><time>2026-04-18T10:30:34Z</time></trkpt><trkpt lat="42.3400062603947" lon="12.77115657966226"><ele>484.3333333333333</ele><time>2026-04-18T10:30:35Z</time></trkpt><trkpt lat="42.34014096032503" lon="12.771270542982437"><ele>482.0</ele><time>2026-04-18T10:30:36Z</time></trkpt><trkpt lat="42.340273572960875" lon="12.771398832493267"><ele>482.0</ele><time>2026-04-18T10:30:37Z</time></trkpt><trkpt lat="42.34038982035502" lon="12.77155939610944"><ele>482.0</ele><time>2026-04-18T10:30:38Z</time></trkpt><trkpt lat="42.34051602751246" lon="12.77170829127539"><ele>482.0</ele><time>2026-04-18T10:30:39Z</time></trkpt><trkpt lat="42.340648999346804" lon="12.771842233154603"><ele>482.0</ele><time>2026-04-18T10:30:40Z</time></trkpt><trkpt lat="42.340768489563295" lon="12.771989938924131"><ele>482.0</ele><time>2026-04-18T10:30:41Z</time></trkpt><trkpt lat="42.34088795317429" lon="12.772135186190766"><ele>482.0</ele><time>2026-04-18T10:30:42Z</time></trkpt><trkpt lat="42.34100645466793" lon="12.77227955929605"><ele>482.0</ele><time>2026-04-18T10:30:43Z</time></trkpt><trkpt lat="42.34112665726089" lon="12.772419231656796"><ele>482.0</ele><time>2026-04-18T10:30:44Z</time></trkpt><trkpt lat="42.34124946535204" lon="12.772563973158631"><ele>482.0</ele><time>2026-04-18T10:30:45Z</time></trkpt><trkpt lat="42.34137389211282" lon="12.772711350391402"><ele>481.3333333333333</ele><time>2026-04-18T10:30:46Z</time></trkpt><trkpt lat="42.341493572938376" lon="12.772862816419117"><ele>480.66666666666663</ele><time>2026-04-18T10:30:47Z</time></trkpt><trkpt lat="42.34160938588863" lon="12.773005011955037"><ele>480.0</ele><time>2026-04-18T10:30:48Z</time></trkpt><trkpt lat="42.34171630292392" lon="12.77314001805786"><ele>480.0</ele><time>2026-04-18T10:30:49Z</time></trkpt><trkpt lat="42.341825642632074" lon="12.773275289245793"><ele>480.0</ele><time>2026-04-18T10:30:50Z</time></trkpt><trkpt lat="42.341940754788915" lon="12.773410615422563"><ele>480.0</ele><time>2026-04-18T10:30:51Z</time></trkpt><trkpt lat="42.342058261582835" lon="12.77353588888068"><ele>479.33333333333337</ele><time>2026-04-18T10:30:52Z</time></trkpt><trkpt lat="42.34218085620207" lon="12.773645292178381"><ele>478.6666666666667</ele><time>2026-04-18T10:30:53Z</time></trkpt><trkpt lat="42.34231812426049" lon="12.773733498388575"><ele>478.0</ele><time>2026-04-18T10:30:54Z</time></trkpt><trkpt lat="42.34247294176059" lon="12.773809782441223"><ele>478.0</ele><time>2026-04-18T10:30:55Z</time></trkpt><trkpt lat="42.342628601280296" lon="12.77388670156447"><ele>478.0</ele><time>2026-04-18T10:30:56Z</time></trkpt><trkpt lat="42.342769851633086" lon="12.773961242807365"><ele>478.0</ele><time>2026-04-18T10:30:57Z</time></trkpt><trkpt lat="42.34290236326133" lon="12.774033310489713"><ele>478.0</ele><time>2026-04-18T10:30:58Z</time></trkpt><trkpt lat="42.34302969282306" lon="12.774117086737714"><ele>478.0</ele><time>2026-04-18T10:30:59Z</time></trkpt><trkpt lat="42.343159762455215" lon="12.774222681560701"><ele>478.0</ele><time>2026-04-18T10:31:00Z</time></trkpt><trkpt lat="42.34328162767312" lon="12.774346671928862"><ele>478.0</ele><time>2026-04-18T10:31:01Z</time></trkpt><trkpt lat="42.34339525745461" lon="12.774492063413632"><ele>477.25</ele><time>2026-04-18T10:31:02Z</time></trkpt><trkpt lat="42.34349802178899" lon="12.774649684201695"><ele>476.5</ele><time>2026-04-18T10:31:03Z</time></trkpt><trkpt lat="42.34359083236297" lon="12.774807317265772"><ele>475.75</ele><time>2026-04-18T10:31:04Z</time></trkpt><trkpt lat="42.34368526218925" lon="12.774956033139858"><ele>475.0</ele><time>2026-04-18T10:31:05Z</time></trkpt><trkpt lat="42.34378526085263" lon="12.775102179449206"><ele>473.33333333333337</ele><time>2026-04-18T10:31:06Z</time></trkpt><trkpt lat="42.34390482082822" lon="12.775227775878834"><ele>471.66666666666663</ele><time>2026-04-18T10:31:07Z</time></trkpt><trkpt lat="42.344041172292066" lon="12.77533936044631"><ele>470.0</ele><time>2026-04-18T10:31:08Z</time></trkpt><trkpt lat="42.34419428965322" lon="12.775428260828145"><ele>470.0</ele><time>2026-04-18T10:31:09Z</time></trkpt><trkpt lat="42.34435299714516" lon="12.775494781258896"><ele>470.0</ele><time>2026-04-18T10:31:10Z</time></trkpt><trkpt lat="42.34449914655825" lon="12.775555688642342"><ele>470.0</ele><time>2026-04-18T10:31:11Z</time></trkpt><trkpt lat="42.344632323174906" lon="12.775622446379407"><ele>470.0</ele><time>2026-04-18T10:31:12Z</time></trkpt><trkpt lat="42.34476918069715" lon="12.775682322056927"><ele>470.0</ele><time>2026-04-18T10:31:13Z</time></trkpt><trkpt lat="42.34491156993441" lon="12.775726491517414"><ele>470.0</ele><time>2026-04-18T10:31:14Z</time></trkpt><trkpt lat="42.34506429757866" lon="12.775743761884423"><ele>470.0</ele><time>2026-04-18T10:31:15Z</time></trkpt><trkpt lat="42.34523225736818" lon="12.77574666601889"><ele>470.0</ele><time>2026-04-18T10:31:16Z</time></trkpt><trkpt lat="42.34541645581061" lon="12.775747631779893"><ele>470.0</ele><time>2026-04-18T10:31:17Z</time></trkpt><trkpt lat="42.34558375318203" lon="12.775756113509509"><ele>470.0</ele><time>2026-04-18T10:31:18Z</time></trkpt><trkpt lat="42.34574233306356" lon="12.775744276355855"><ele>469.3333333333333</ele><time>2026-04-18T10:31:19Z</time></trkpt><trkpt lat="42.345900075408245" lon="12.775727282471326"><ele>468.66666666666663</ele><time>2026-04-18T10:31:20Z</time></trkpt><trkpt lat="42.3460672395104" lon="12.775724573188436"><ele>468.0</ele><time>2026-04-18T10:31:21Z</time></trkpt><trkpt lat="42.34623584373373" lon="12.775721112324591"><ele>468.33333333333337</ele><time>2026-04-18T10:31:22Z</time></trkpt><trkpt lat="42.34640446178063" lon="12.775720970268859"><ele>468.6666666666667</ele><time>2026-04-18T10:31:23Z</time></trkpt><trkpt lat="42.34656953119951" lon="12.77572984403328"><ele>469.0</ele><time>2026-04-18T10:31:24Z</time></trkpt><trkpt lat="42.34673842804746" lon="12.77571024541604"><ele>469.0</ele><time>2026-04-18T10:31:25Z</time></trkpt><trkpt lat="42.34690186302214" lon="12.775692833799855"><ele>469.0</ele><time>2026-04-18T10:31:26Z</time></trkpt><trkpt lat="42.34705917384136" lon="12.775691022416158"><ele>469.0</ele><time>2026-04-18T10:31:27Z</time></trkpt><trkpt lat="42.34720928438316" lon="12.775691297035799"><ele>467.6666666666667</ele><time>2026-04-18T10:31:28Z</time></trkpt><trkpt lat="42.34736293636815" lon="12.77568786841537"><ele>466.33333333333337</ele><time>2026-04-18T10:31:29Z</time></trkpt><trkpt lat="42.3475220708323" lon="12.775678950800206"><ele>465.0</ele><time>2026-04-18T10:31:30Z</time></trkpt><trkpt lat="42.34768976131069" lon="12.775675944867205"><ele>465.0</ele><time>2026-04-18T10:31:31Z</time></trkpt><trkpt lat="42.347851474744964" lon="12.775674257573035"><ele>465.0</ele><time>2026-04-18T10:31:32Z</time></trkpt><trkpt lat="42.34800593238953" lon="12.775681856951008"><ele>465.0</ele><time>2026-04-18T10:31:33Z</time></trkpt><trkpt lat="42.34816429296933" lon="12.77569854471629"><ele>464.0</ele><time>2026-04-18T10:31:34Z</time></trkpt><trkpt lat="42.34832109357158" lon="12.775737380661557"><ele>463.0</ele><time>2026-04-18T10:31:35Z</time></trkpt><trkpt lat="42.34847379953244" lon="12.775790909039332"><ele>462.0</ele><time>2026-04-18T10:31:36Z</time></trkpt><trkpt lat="42.348623701783715" lon="12.775855546349966"><ele>462.0</ele><time>2026-04-18T10:31:37Z</time></trkpt><trkpt lat="42.34877095701237" lon="12.77594040551955"><ele>462.0</ele><time>2026-04-18T10:31:38Z</time></trkpt><trkpt lat="42.34891956388054" lon="12.776032043411766"><ele>462.0</ele><time>2026-04-18T10:31:39Z</time></trkpt><trkpt lat="42.349065873951815" lon="12.776123019792585"><ele>460.5</ele><time>2026-04-18T10:31:40Z</time></trkpt><trkpt lat="42.34919774210299" lon="12.776213465917579"><ele>459.0</ele><time>2026-04-18T10:31:41Z</time></trkpt><trkpt lat="42.34932780861966" lon="12.776295189711009"><ele>457.5</ele><time>2026-04-18T10:31:42Z</time></trkpt><trkpt lat="42.34945846786895" lon="12.776371738961128"><ele>456.0</ele><time>2026-04-18T10:31:43Z</time></trkpt><trkpt lat="42.349591036383515" lon="12.77645166217012"><ele>455.75</ele><time>2026-04-18T10:31:44Z</time></trkpt><trkpt lat="42.349723363329694" lon="12.776531727511172"><ele>455.5</ele><time>2026-04-18T10:31:45Z</time></trkpt><trkpt lat="42.34985384062923" lon="12.776602564855194"><ele>455.25</ele><time>2026-04-18T10:31:46Z</time></trkpt><trkpt lat="42.34998951021091" lon="12.776653895612919"><ele>455.0</ele><time>2026-04-18T10:31:47Z</time></trkpt><trkpt lat="42.35013619261113" lon="12.776673043764044"><ele>455.0</ele><time>2026-04-18T10:31:48Z</time></trkpt><trkpt lat="42.35029019257506" lon="12.776681045356334"><ele>455.0</ele><time>2026-04-18T10:31:49Z</time></trkpt><trkpt lat="42.35045176500312" lon="12.776665453366393"><ele>455.0</ele><time>2026-04-18T10:31:50Z</time></trkpt><trkpt lat="42.35060835151536" lon="12.776623467502425"><ele>454.3333333333333</ele><time>2026-04-18T10:31:51Z</time></trkpt><trkpt lat="42.35075722548281" lon="12.776562578516678"><ele>453.66666666666663</ele><time>2026-04-18T10:31:52Z</time></trkpt><trkpt lat="42.350906393285136" lon="12.776497531454186"><ele>453.0</ele><time>2026-04-18T10:31:53Z</time></trkpt><trkpt lat="42.351059218244345" lon="12.776435003390361"><ele>453.0</ele><time>2026-04-18T10:31:54Z</time></trkpt><trkpt lat="42.351214641648085" lon="12.776367977398994"><ele>453.0</ele><time>2026-04-18T10:31:55Z</time></trkpt><trkpt lat="42.351375316795675" lon="12.776306781643324"><ele>453.0</ele><time>2026-04-18T10:31:56Z</time></trkpt><trkpt lat="42.35153518373081" lon="12.776246163889704"><ele>452.33333333333337</ele><time>2026-04-18T10:31:57Z</time></trkpt><trkpt lat="42.35169187431594" lon="12.77618560216595"><ele>451.6666666666667</ele><time>2026-04-18T10:31:58Z</time></trkpt><trkpt lat="42.3518462416564" lon="12.776122863878806"><ele>451.0</ele><time>2026-04-18T10:31:59Z</time></trkpt><trkpt lat="42.35199780499242" lon="12.77606069761961"><ele>451.33333333333337</ele><time>2026-04-18T10:32:00Z</time></trkpt><trkpt lat="42.352146986417296" lon="12.776000408937852"><ele>451.66666666666663</ele><time>2026-04-18T10:32:01Z</time></trkpt><trkpt lat="42.352295509005316" lon="12.775943599786858"><ele>452.0</ele><time>2026-04-18T10:32:02Z</time></trkpt><trkpt lat="42.352446848612246" lon="12.775887579252032"><ele>452.0</ele><time>2026-04-18T10:32:03Z</time></trkpt><trkpt lat="42.352596867084046" lon="12.77582843097397"><ele>452.0</ele><time>2026-04-18T10:32:04Z</time></trkpt><trkpt lat="42.35274919884831" lon="12.775766895649504"><ele>452.0</ele><time>2026-04-18T10:32:05Z</time></trkpt><trkpt lat="42.35289461792595" lon="12.775701343462309"><ele>451.3333333333333</ele><time>2026-04-18T10:32:06Z</time></trkpt><trkpt lat="42.35304293988766" lon="12.775634333467073"><ele>450.66666666666663</ele><time>2026-04-18T10:32:07Z</time></trkpt><trkpt lat="42.35318852751826" lon="12.775576020189572"><ele>450.0</ele><time>2026-04-18T10:32:08Z</time></trkpt><trkpt lat="42.353328023176076" lon="12.775531800470517"><ele>450.0</ele><time>2026-04-18T10:32:09Z</time></trkpt><trkpt lat="42.353451777489674" lon="12.775500572846594"><ele>450.0</ele><time>2026-04-18T10:32:10Z</time></trkpt><trkpt lat="42.35358874023611" lon="12.775473512390695"><ele>450.0</ele><time>2026-04-18T10:32:11Z</time></trkpt><trkpt lat="42.353733075263534" lon="12.775452754044801"><ele>450.0</ele><time>2026-04-18T10:32:12Z</time></trkpt><trkpt lat="42.35387976119646" lon="12.775441385126273"><ele>450.33333333333337</ele><time>2026-04-18T10:32:13Z</time></trkpt><trkpt lat="42.35403243907804" lon="12.775437492460338"><ele>450.6666666666667</ele><time>2026-04-18T10:32:14Z</time></trkpt><trkpt lat="42.35419197279098" lon="12.775427855472971"><ele>451.0</ele><time>2026-04-18T10:32:15Z</time></trkpt><trkpt lat="42.35435576318382" lon="12.775415371990954"><ele>451.0</ele><time>2026-04-18T10:32:16Z</time></trkpt><trkpt lat="42.3545134977189" lon="12.775403269002497"><ele>451.0</ele><time>2026-04-18T10:32:17Z</time></trkpt><trkpt lat="42.35466229254349" lon="12.775397263331687"><ele>451.0</ele><time>2026-04-18T10:32:18Z</time></trkpt><trkpt lat="42.3547979733997" lon="12.775396057883114"><ele>451.0</ele><time>2026-04-18T10:32:19Z</time></trkpt><trkpt lat="42.35492624348035" lon="12.775394937857916"><ele>450.5</ele><time>2026-04-18T10:32:20Z</time></trkpt><trkpt lat="42.35506292497044" lon="12.77538945429574"><ele>450.0</ele><time>2026-04-18T10:32:21Z</time></trkpt><trkpt lat="42.355203783925376" lon="12.775385905830042"><ele>449.5</ele><time>2026-04-18T10:32:22Z</time></trkpt><trkpt lat="42.355342692435855" lon="12.77537823945334"><ele>449.0</ele><time>2026-04-18T10:32:23Z</time></trkpt><trkpt lat="42.35547804483418" lon="12.775352942027672"><ele>448.5</ele><time>2026-04-18T10:32:24Z</time></trkpt><trkpt lat="42.35561248989482" lon="12.775298924770112"><ele>448.0</ele><time>2026-04-18T10:32:25Z</time></trkpt><trkpt lat="42.355749920501374" lon="12.77522902663213"><ele>447.5</ele><time>2026-04-18T10:32:26Z</time></trkpt><trkpt lat="42.355891759151376" lon="12.775161079213902"><ele>447.0</ele><time>2026-04-18T10:32:27Z</time></trkpt><trkpt lat="42.35603208049499" lon="12.775088255262608"><ele>446.75</ele><time>2026-04-18T10:32:28Z</time></trkpt><trkpt lat="42.35616105690301" lon="12.775022413602327"><ele>446.5</ele><time>2026-04-18T10:32:29Z</time></trkpt><trkpt lat="42.35627060660537" lon="12.774941711354154"><ele>446.25</ele><time>2026-04-18T10:32:30Z</time></trkpt><trkpt lat="42.35636912413908" lon="12.774811834722868"><ele>446.0</ele><time>2026-04-18T10:32:31Z</time></trkpt><trkpt lat="42.35644733755545" lon="12.77462314588306"><ele>446.0</ele><time>2026-04-18T10:32:32Z</time></trkpt><trkpt lat="42.3565126051693" lon="12.774404556966422"><ele>446.0</ele><time>2026-04-18T10:32:33Z</time></trkpt><trkpt lat="42.356550017813774" lon="12.774198422478548"><ele>446.0</ele><time>2026-04-18T10:32:34Z</time></trkpt><trkpt lat="42.35659547169941" lon="12.774023577374649"><ele>446.5</ele><time>2026-04-18T10:32:35Z</time></trkpt><trkpt lat="42.35666303188148" lon="12.77387769530227"><ele>447.0</ele><time>2026-04-18T10:32:36Z</time></trkpt><trkpt lat="42.35673385932749" lon="12.773745627050559"><ele>447.5</ele><time>2026-04-18T10:32:37Z</time></trkpt><trkpt lat="42.35683253687695" lon="12.773625707726728"><ele>448.0</ele><time>2026-04-18T10:32:38Z</time></trkpt><trkpt lat="42.35694779505021" lon="12.773505743656035"><ele>447.5</ele><time>2026-04-18T10:32:39Z</time></trkpt><trkpt lat="42.357090536514" lon="12.77346245420119"><ele>447.0</ele><time>2026-04-18T10:32:40Z</time></trkpt><trkpt lat="42.35722808004729" lon="12.77340190734023"><ele>446.5</ele><time>2026-04-18T10:32:41Z</time></trkpt><trkpt lat="42.35737613221845" lon="12.773370552614029"><ele>446.0</ele><time>2026-04-18T10:32:42Z</time></trkpt><trkpt lat="42.35752706383308" lon="12.773311651551525"><ele>446.0</ele><time>2026-04-18T10:32:43Z</time></trkpt><trkpt lat="42.35768310498988" lon="12.773306771826057"><ele>446.0</ele><time>2026-04-18T10:32:44Z</time></trkpt><trkpt lat="42.35781969845568" lon="12.773271856297727"><ele>446.0</ele><time>2026-04-18T10:32:45Z</time></trkpt><trkpt lat="42.35795161603163" lon="12.773239062961137"><ele>446.0</ele><time>2026-04-18T10:32:46Z</time></trkpt><trkpt lat="42.3580765558009" lon="12.77320915531232"><ele>445.5</ele><time>2026-04-18T10:32:47Z</time></trkpt><trkpt lat="42.358203659782916" lon="12.773178668983965"><ele>445.0</ele><time>2026-04-18T10:32:48Z</time></trkpt><trkpt lat="42.35833270730817" lon="12.773146272818856"><ele>444.5</ele><time>2026-04-18T10:32:49Z</time></trkpt><trkpt lat="42.35846462066488" lon="12.773110137925803"><ele>444.0</ele><time>2026-04-18T10:32:50Z</time></trkpt><trkpt lat="42.35859752787645" lon="12.773075632460168"><ele>444.0</ele><time>2026-04-18T10:32:51Z</time></trkpt><trkpt lat="42.35873584560433" lon="12.773040290807096"><ele>444.0</ele><time>2026-04-18T10:32:52Z</time></trkpt><trkpt lat="42.358885042849955" lon="12.772998134066048"><ele>444.0</ele><time>2026-04-18T10:32:53Z</time></trkpt><trkpt lat="42.3590383695259" lon="12.772950457756368"><ele>444.33333333333337</ele><time>2026-04-18T10:32:54Z</time></trkpt><trkpt lat="42.3591998141538" lon="12.772915354038604"><ele>444.6666666666667</ele><time>2026-04-18T10:32:55Z</time></trkpt><trkpt lat="42.35935958255402" lon="12.772878739714841"><ele>445.0</ele><time>2026-04-18T10:32:56Z</time></trkpt><trkpt lat="42.359521545915186" lon="12.772842527820861"><ele>445.0</ele><time>2026-04-18T10:32:57Z</time></trkpt><trkpt lat="42.35968817629364" lon="12.772800225910593"><ele>445.0</ele><time>2026-04-18T10:32:58Z</time></trkpt><trkpt lat="42.35986348832143" lon="12.77274574489489"><ele>445.0</ele><time>2026-04-18T10:32:59Z</time></trkpt><trkpt lat="42.36003813719214" lon="12.77270166195956"><ele>444.33333333333337</ele><time>2026-04-18T10:33:00Z</time></trkpt><trkpt lat="42.360212535704484" lon="12.77267613284705"><ele>443.66666666666663</ele><time>2026-04-18T10:33:01Z</time></trkpt><trkpt lat="42.36038705495515" lon="12.772654805707198"><ele>443.0</ele><time>2026-04-18T10:33:02Z</time></trkpt><trkpt lat="42.36055234134858" lon="12.772633959758236"><ele>443.0</ele><time>2026-04-18T10:33:03Z</time></trkpt><trkpt lat="42.36070728887006" lon="12.772619035909475"><ele>443.0</ele><time>2026-04-18T10:33:04Z</time></trkpt><trkpt lat="42.360862901516036" lon="12.772603278157208"><ele>443.0</ele><time>2026-04-18T10:33:05Z</time></trkpt><trkpt lat="42.36102143103527" lon="12.772587208852526"><ele>443.0</ele><time>2026-04-18T10:33:06Z</time></trkpt><trkpt lat="42.36118032398558" lon="12.772570462340447"><ele>443.0</ele><time>2026-04-18T10:33:07Z</time></trkpt><trkpt lat="42.3613361729027" lon="12.772560656828325"><ele>443.0</ele><time>2026-04-18T10:33:08Z</time></trkpt><trkpt lat="42.36149064588632" lon="12.772530096616144"><ele>442.66666666666663</ele><time>2026-04-18T10:33:09Z</time></trkpt><trkpt lat="42.36164248658865" lon="12.772478229945888"><ele>442.33333333333337</ele><time>2026-04-18T10:33:10Z</time></trkpt><trkpt lat="42.36178797677175" lon="12.772418565374808"><ele>442.0</ele><time>2026-04-18T10:33:11Z</time></trkpt><trkpt lat="42.36194120758838" lon="12.772350732457875"><ele>442.0</ele><time>2026-04-18T10:33:12Z</time></trkpt><trkpt lat="42.362101393157026" lon="12.772273758512759"><ele>442.0</ele><time>2026-04-18T10:33:13Z</time></trkpt><trkpt lat="42.36226037802712" lon="12.77218970015668"><ele>442.0</ele><time>2026-04-18T10:33:14Z</time></trkpt><trkpt lat="42.362414671311534" lon="12.772113005272372"><ele>439.33333333333337</ele><time>2026-04-18T10:33:15Z</time></trkpt><trkpt lat="42.36255895071188" lon="12.772052509482974"><ele>436.66666666666663</ele><time>2026-04-18T10:33:16Z</time></trkpt><trkpt lat="42.36270769758533" lon="12.771970185045651"><ele>434.0</ele><time>2026-04-18T10:33:17Z</time></trkpt><trkpt lat="42.36287735254957" lon="12.771889987894173"><ele>434.3333333333333</ele><time>2026-04-18T10:33:18Z</time></trkpt><trkpt lat="42.36305674507124" lon="12.771799901071137"><ele>434.66666666666663</ele><time>2026-04-18T10:33:19Z</time></trkpt><trkpt lat="42.36323207770007" lon="12.771712455565053"><ele>435.0</ele><time>2026-04-18T10:33:20Z</time></trkpt><trkpt lat="42.36338837132685" lon="12.771644402130935"><ele>435.0</ele><time>2026-04-18T10:33:21Z</time></trkpt><trkpt lat="42.36353351317511" lon="12.771578239050239"><ele>435.0</ele><time>2026-04-18T10:33:22Z</time></trkpt><trkpt lat="42.363679157451344" lon="12.771510953143165"><ele>435.0</ele><time>2026-04-18T10:33:23Z</time></trkpt><trkpt lat="42.36382654961539" lon="12.77144609224655"><ele>433.66666666666663</ele><time>2026-04-18T10:33:24Z</time></trkpt><trkpt lat="42.36397522865745" lon="12.771380056817295"><ele>432.3333333333333</ele><time>2026-04-18T10:33:25Z</time></trkpt><trkpt lat="42.36412664657994" lon="12.771306576328106"><ele>431.0</ele><time>2026-04-18T10:33:26Z</time></trkpt><trkpt lat="42.3642742434896" lon="12.771231996795125"><ele>431.0</ele><time>2026-04-18T10:33:27Z</time></trkpt><trkpt lat="42.36442034545539" lon="12.771159156595013"><ele>431.0</ele><time>2026-04-18T10:33:28Z</time></trkpt><trkpt lat="42.36456574315411" lon="12.771085998461047"><ele>431.0</ele><time>2026-04-18T10:33:29Z</time></trkpt><trkpt lat="42.364720074652155" lon="12.771016419564917"><ele>430.3333333333333</ele><time>2026-04-18T10:33:30Z</time></trkpt><trkpt lat="42.36487764759826" lon="12.770944413812492"><ele>429.66666666666663</ele><time>2026-04-18T10:33:31Z</time></trkpt><trkpt lat="42.36503138204268" lon="12.770872673163765"><ele>429.0</ele><time>2026-04-18T10:33:32Z</time></trkpt><trkpt lat="42.36518398911914" lon="12.77079903625039"><ele>429.0</ele><time>2026-04-18T10:33:33Z</time></trkpt><trkpt lat="42.36533876641963" lon="12.770725325972611"><ele>429.0</ele><time>2026-04-18T10:33:34Z</time></trkpt><trkpt lat="42.365497010809634" lon="12.770649252864214"><ele>429.0</ele><time>2026-04-18T10:33:35Z</time></trkpt><trkpt lat="42.36565307819314" lon="12.770573031645508"><ele>428.33333333333337</ele><time>2026-04-18T10:33:36Z</time></trkpt><trkpt lat="42.365813069154626" lon="12.770499147396535"><ele>427.6666666666667</ele><time>2026-04-18T10:33:37Z</time></trkpt><trkpt lat="42.36596867432525" lon="12.770433908895644"><ele>427.0</ele><time>2026-04-18T10:33:38Z</time></trkpt><trkpt lat="42.3661233939728" lon="12.7703641185798"><ele>427.0</ele><time>2026-04-18T10:33:39Z</time></trkpt><trkpt lat="42.36628382698038" lon="12.770286933069604"><ele>427.0</ele><time>2026-04-18T10:33:40Z</time></trkpt><trkpt lat="42.366441439106104" lon="12.770211103973029"><ele>427.0</ele><time>2026-04-18T10:33:41Z</time></trkpt><trkpt lat="42.36659421916627" lon="12.77014172598671"><ele>427.6666666666667</ele><time>2026-04-18T10:33:42Z</time></trkpt><trkpt lat="42.3667467530344" lon="12.770073297958414"><ele>428.33333333333337</ele><time>2026-04-18T10:33:43Z</time></trkpt><trkpt lat="42.3668992990993" lon="12.770005666452155"><ele>429.0</ele><time>2026-04-18T10:33:44Z</time></trkpt><trkpt lat="42.36706025760619" lon="12.76994098447536"><ele>429.0</ele><time>2026-04-18T10:33:45Z</time></trkpt><trkpt lat="42.36722739328223" lon="12.76988194904398"><ele>429.0</ele><time>2026-04-18T10:33:46Z</time></trkpt><trkpt lat="42.36739140115646" lon="12.769832500569695"><ele>429.0</ele><time>2026-04-18T10:33:47Z</time></trkpt><trkpt lat="42.367551907715054" lon="12.76978639098614"><ele>429.0</ele><time>2026-04-18T10:33:48Z</time></trkpt><trkpt lat="42.367712668451205" lon="12.769749427227502"><ele>429.0</ele><time>2026-04-18T10:33:49Z</time></trkpt><trkpt lat="42.3678719464165" lon="12.769716730941337"><ele>429.0</ele><time>2026-04-18T10:33:50Z</time></trkpt><trkpt lat="42.368031584540454" lon="12.769683236758771"><ele>428.0</ele><time>2026-04-18T10:33:51Z</time></trkpt><trkpt lat="42.36818636494824" lon="12.769652283030018"><ele>427.0</ele><time>2026-04-18T10:33:52Z</time></trkpt><trkpt lat="42.36833927540571" lon="12.769621246299051"><ele>426.0</ele><time>2026-04-18T10:33:53Z</time></trkpt><trkpt lat="42.36849142246725" lon="12.76959324282191"><ele>426.0</ele><time>2026-04-18T10:33:54Z</time></trkpt><trkpt lat="42.368645066455514" lon="12.769570139511236"><ele>426.0</ele><time>2026-04-18T10:33:55Z</time></trkpt><trkpt lat="42.36880009223591" lon="12.769554494335972"><ele>426.0</ele><time>2026-04-18T10:33:56Z</time></trkpt><trkpt lat="42.36895654777869" lon="12.76954265685727"><ele>425.33333333333337</ele><time>2026-04-18T10:33:57Z</time></trkpt><trkpt lat="42.36911533303724" lon="12.769534117766895"><ele>424.6666666666667</ele><time>2026-04-18T10:33:58Z</time></trkpt><trkpt lat="42.369273517863896" lon="12.769529679946778"><ele>424.0</ele><time>2026-04-18T10:33:59Z</time></trkpt><trkpt lat="42.3694318192172" lon="12.76952445585551"><ele>424.0</ele><time>2026-04-18T10:34:00Z</time></trkpt><trkpt lat="42.36959570642578" lon="12.769527536194726"><ele>424.0</ele><time>2026-04-18T10:34:01Z</time></trkpt><trkpt lat="42.369756604695965" lon="12.769531163400414"><ele>424.0</ele><time>2026-04-18T10:34:02Z</time></trkpt><trkpt lat="42.369915797852116" lon="12.7695369731651"><ele>423.0</ele><time>2026-04-18T10:34:03Z</time></trkpt><trkpt lat="42.370071332650916" lon="12.769543671793015"><ele>422.0</ele><time>2026-04-18T10:34:04Z</time></trkpt><trkpt lat="42.37022847297754" lon="12.769548753040446"><ele>421.0</ele><time>2026-04-18T10:34:05Z</time></trkpt><trkpt lat="42.37038368469972" lon="12.769558710183016"><ele>421.33333333333337</ele><time>2026-04-18T10:34:06Z</time></trkpt><trkpt lat="42.37053735297559" lon="12.76956737980376"><ele>421.66666666666663</ele><time>2026-04-18T10:34:07Z</time></trkpt><trkpt lat="42.37068843694048" lon="12.76957544329673"><ele>422.0</ele><time>2026-04-18T10:34:08Z</time></trkpt><trkpt lat="42.37083750420244" lon="12.769585148750844"><ele>422.0</ele><time>2026-04-18T10:34:09Z</time></trkpt><trkpt lat="42.370980864451646" lon="12.769589914603463"><ele>422.0</ele><time>2026-04-18T10:34:10Z</time></trkpt><trkpt lat="42.37110733821207" lon="12.76959333954177"><ele>422.0</ele><time>2026-04-18T10:34:11Z</time></trkpt><trkpt lat="42.37122303133748" lon="12.769598347875965"><ele>422.0</ele><time>2026-04-18T10:34:12Z</time></trkpt><trkpt lat="42.37133287369698" lon="12.769605799244577"><ele>421.8</ele><time>2026-04-18T10:34:13Z</time></trkpt><trkpt lat="42.3714453211296" lon="12.769613031175078"><ele>421.6</ele><time>2026-04-18T10:34:14Z</time></trkpt><trkpt lat="42.37155209366519" lon="12.769604114226345"><ele>421.40000000000003</ele><time>2026-04-18T10:34:15Z</time></trkpt><trkpt lat="42.37164277549799" lon="12.769610124696214"><ele>421.20000000000005</ele><time>2026-04-18T10:34:16Z</time></trkpt><trkpt lat="42.371734023656266" lon="12.769615609656533"><ele>421.0</ele><time>2026-04-18T10:34:17Z</time></trkpt><trkpt lat="42.371828499320756" lon="12.769618113371017"><ele>421.00000000000006</ele><time>2026-04-18T10:34:18Z</time></trkpt><trkpt lat="42.3719168590072" lon="12.76962218635744"><ele>421.0</ele><time>2026-04-18T10:34:19Z</time></trkpt><trkpt lat="42.372017562368576" lon="12.769632180568076"><ele>421.0</ele><time>2026-04-18T10:34:20.999Z</time></trkpt><trkpt lat="42.3720843922952" lon="12.769639995251755"><ele>421.0</ele><time>2026-04-18T10:34:23.999Z</time></trkpt><trkpt lat="42.37213585046698" lon="12.769587220353262"><ele>421.00000000000006</ele><time>2026-04-18T10:34:25.999Z</time></trkpt><trkpt lat="42.372109977713606" lon="12.769472713114535"><ele>421.0</ele><time>2026-04-18T10:34:27.999Z</time></trkpt><trkpt lat="42.372057682339246" lon="12.769383061972114"><ele>421.4</ele><time>2026-04-18T10:34:28.999Z</time></trkpt><trkpt lat="42.37202125818507" lon="12.769259694362512"><ele>421.8</ele><time>2026-04-18T10:34:29.999Z</time></trkpt><trkpt lat="42.37200174566069" lon="12.769121596985485"><ele>422.2</ele><time>2026-04-18T10:34:31Z</time></trkpt><trkpt lat="42.37199467529986" lon="12.768965550095325"><ele>422.59999999999997</ele><time>2026-04-18T10:34:32Z</time></trkpt><trkpt lat="42.37199960288838" lon="12.76879982657326"><ele>423.0</ele><time>2026-04-18T10:34:33Z</time></trkpt><trkpt lat="42.37200980913745" lon="12.768661460534387"><ele>423.0</ele><time>2026-04-18T10:34:34Z</time></trkpt><trkpt lat="42.3720247409613" lon="12.768526653825266"><ele>423.0</ele><time>2026-04-18T10:34:35Z</time></trkpt><trkpt lat="42.37203764967953" lon="12.768392628489407"><ele>423.0</ele><time>2026-04-18T10:34:36Z</time></trkpt><trkpt lat="42.37204692818394" lon="12.768254500435491"><ele>423.0</ele><time>2026-04-18T10:34:37Z</time></trkpt><trkpt lat="42.372048258815845" lon="12.768111714675312"><ele>423.0</ele><time>2026-04-18T10:34:38Z</time></trkpt><trkpt lat="42.37204341072647" lon="12.767957425650405"><ele>423.75</ele><time>2026-04-18T10:34:39Z</time></trkpt><trkpt lat="42.3720258669663" lon="12.767807052869939"><ele>424.5</ele><time>2026-04-18T10:34:40Z</time></trkpt><trkpt lat="42.37200360278946" lon="12.767658062759205"><ele>425.25</ele><time>2026-04-18T10:34:41Z</time></trkpt><trkpt lat="42.371985211616476" lon="12.767491836824645"><ele>426.0</ele><time>2026-04-18T10:34:42Z</time></trkpt><trkpt lat="42.37196383896517" lon="12.767333093105185"><ele>426.6</ele><time>2026-04-18T10:34:43Z</time></trkpt><trkpt lat="42.37195796354632" lon="12.767187807173741"><ele>427.20000000000005</ele><time>2026-04-18T10:34:44Z</time></trkpt><trkpt lat="42.37197313396737" lon="12.76703958228757"><ele>427.79999999999995</ele><time>2026-04-18T10:34:45Z</time></trkpt><trkpt lat="42.37200957016554" lon="12.766910065302788"><ele>428.4</ele><time>2026-04-18T10:34:46Z</time></trkpt><trkpt lat="42.37206055547268" lon="12.76678213203893"><ele>429.0</ele><time>2026-04-18T10:34:47Z</time></trkpt><trkpt lat="42.372093236898905" lon="12.766653619185284"><ele>429.2</ele><time>2026-04-18T10:34:48Z</time></trkpt><trkpt lat="42.372091790028016" lon="12.76651414286538"><ele>429.4</ele><time>2026-04-18T10:34:49Z</time></trkpt><trkpt lat="42.3720421858416" lon="12.766398020521544"><ele>429.6</ele><time>2026-04-18T10:34:50Z</time></trkpt><trkpt lat="42.37195413084129" lon="12.766298384200608"><ele>429.8</ele><time>2026-04-18T10:34:51Z</time></trkpt><trkpt lat="42.37184933452915" lon="12.766213427921937"><ele>430.0</ele><time>2026-04-18T10:34:52Z</time></trkpt><trkpt lat="42.37175145436612" lon="12.76614956588324"><ele>430.0</ele><time>2026-04-18T10:34:53Z</time></trkpt><trkpt lat="42.37167910122035" lon="12.76609056918027"><ele>430.0</ele><time>2026-04-18T10:34:54Z</time></trkpt><trkpt lat="42.37162541122724" lon="12.765997063649108"><ele>430.0</ele><time>2026-04-18T10:34:55Z</time></trkpt><trkpt lat="42.371587952638556" lon="12.765859368647773"><ele>430.0</ele><time>2026-04-18T10:34:56Z</time></trkpt><trkpt lat="42.37157871079285" lon="12.765687091072808"><ele>430.0</ele><time>2026-04-18T10:34:57Z</time></trkpt><trkpt lat="42.371580124180646" lon="12.765522034239407"><ele>430.2</ele><time>2026-04-18T10:34:58Z</time></trkpt><trkpt lat="42.371553329179754" lon="12.765371921440051"><ele>430.4</ele><time>2026-04-18T10:34:59Z</time></trkpt><trkpt lat="42.37150150940122" lon="12.765242584925366"><ele>430.6</ele><time>2026-04-18T10:35:00Z</time></trkpt><trkpt lat="42.371452074940684" lon="12.765127942673725"><ele>430.8</ele><time>2026-04-18T10:35:01Z</time></trkpt><trkpt lat="42.37142701579762" lon="12.764996736527364"><ele>431.0</ele><time>2026-04-18T10:35:02Z</time></trkpt><trkpt lat="42.37143700742086" lon="12.76485741141609"><ele>431.20000000000005</ele><time>2026-04-18T10:35:03Z</time></trkpt><trkpt lat="42.3714612449574" lon="12.764740996074966"><ele>431.40000000000003</ele><time>2026-04-18T10:35:04Z</time></trkpt><trkpt lat="42.37149775517461" lon="12.764639859341793"><ele>431.6</ele><time>2026-04-18T10:35:05Z</time></trkpt><trkpt lat="42.371549099159886" lon="12.764525893940318"><ele>431.8</ele><time>2026-04-18T10:35:06Z</time></trkpt><trkpt lat="42.37159699279729" lon="12.764376661183356"><ele>432.0</ele><time>2026-04-18T10:35:07Z</time></trkpt><trkpt lat="42.37163349292353" lon="12.764202048408121"><ele>432.0</ele><time>2026-04-18T10:35:08Z</time></trkpt><trkpt lat="42.37165537301623" lon="12.764026248287504"><ele>432.0</ele><time>2026-04-18T10:35:09Z</time></trkpt><trkpt lat="42.371654186581516" lon="12.76385770992598"><ele>432.0</ele><time>2026-04-18T10:35:10Z</time></trkpt><trkpt lat="42.371633149730634" lon="12.763701412289322"><ele>432.0</ele><time>2026-04-18T10:35:11Z</time></trkpt><trkpt lat="42.37160807889186" lon="12.763556245099528"><ele>432.8</ele><time>2026-04-18T10:35:12Z</time></trkpt><trkpt lat="42.3715932005292" lon="12.763417461574132"><ele>433.6</ele><time>2026-04-18T10:35:13Z</time></trkpt><trkpt lat="42.371588576428394" lon="12.763304099587748"><ele>434.40000000000003</ele><time>2026-04-18T10:35:14Z</time></trkpt><trkpt lat="42.37159921932189" lon="12.763191264821169"><ele>435.20000000000005</ele><time>2026-04-18T10:35:15Z</time></trkpt><trkpt lat="42.37163208299765" lon="12.763075003957795"><ele>436.0</ele><time>2026-04-18T10:35:16Z</time></trkpt><trkpt lat="42.37167950445656" lon="12.762965257135686"><ele>436.0</ele><time>2026-04-18T10:35:17Z</time></trkpt><trkpt lat="42.371748492688866" lon="12.762880266667532"><ele>436.0</ele><time>2026-04-18T10:35:18Z</time></trkpt><trkpt lat="42.37184471399157" lon="12.762817773084436"><ele>436.0</ele><time>2026-04-18T10:35:19Z</time></trkpt><trkpt lat="42.371948852216654" lon="12.76277551101012"><ele>436.0</ele><time>2026-04-18T10:35:20Z</time></trkpt><trkpt lat="42.372064014835544" lon="12.762763030665575"><ele>436.0</ele><time>2026-04-18T10:35:21Z</time></trkpt><trkpt lat="42.37219535407748" lon="12.762755540425314"><ele>435.75</ele><time>2026-04-18T10:35:22Z</time></trkpt><trkpt lat="42.372322664395156" lon="12.762720832563986"><ele>435.5</ele><time>2026-04-18T10:35:23Z</time></trkpt><trkpt lat="42.37244258535254" lon="12.762696895205963"><ele>435.25</ele><time>2026-04-18T10:35:24Z</time></trkpt><trkpt lat="42.37255988519021" lon="12.762665525065904"><ele>435.0</ele><time>2026-04-18T10:35:25Z</time></trkpt><trkpt lat="42.372681946099554" lon="12.762644783674187"><ele>435.75</ele><time>2026-04-18T10:35:26Z</time></trkpt><trkpt lat="42.372804690353824" lon="12.762620975208321"><ele>436.5</ele><time>2026-04-18T10:35:27Z</time></trkpt><trkpt lat="42.37293001373389" lon="12.762573128565244"><ele>437.25</ele><time>2026-04-18T10:35:28Z</time></trkpt><trkpt lat="42.3730396756159" lon="12.762484903701104"><ele>438.0</ele><time>2026-04-18T10:35:29Z</time></trkpt><trkpt lat="42.373132396045065" lon="12.762349950795143"><ele>440.25</ele><time>2026-04-18T10:35:30Z</time></trkpt><trkpt lat="42.373192660925284" lon="12.76217813958599"><ele>442.5</ele><time>2026-04-18T10:35:31Z</time></trkpt><trkpt lat="42.37321769803882" lon="12.762006262174248"><ele>444.75</ele><time>2026-04-18T10:35:32Z</time></trkpt><trkpt lat="42.37321197907961" lon="12.761834916218806"><ele>447.0</ele><time>2026-04-18T10:35:33Z</time></trkpt><trkpt lat="42.373185169940434" lon="12.761646391955892"><ele>447.25</ele><time>2026-04-18T10:35:34Z</time></trkpt><trkpt lat="42.3731476790116" lon="12.76145512431062"><ele>447.5</ele><time>2026-04-18T10:35:35Z</time></trkpt><trkpt lat="42.37311480562651" lon="12.761298362449534"><ele>447.75</ele><time>2026-04-18T10:35:36Z</time></trkpt><trkpt lat="42.37308584204426" lon="12.761146826987705"><ele>448.0</ele><time>2026-04-18T10:35:37Z</time></trkpt><trkpt lat="42.37307848181862" lon="12.760982766824739"><ele>448.0</ele><time>2026-04-18T10:35:38Z</time></trkpt><trkpt lat="42.373089579898554" lon="12.760811938075765"><ele>448.0</ele><time>2026-04-18T10:35:39Z</time></trkpt><trkpt lat="42.37309919192134" lon="12.760635957215792"><ele>448.0</ele><time>2026-04-18T10:35:40Z</time></trkpt><trkpt lat="42.37309194137974" lon="12.760467603009094"><ele>448.0</ele><time>2026-04-18T10:35:41Z</time></trkpt><trkpt lat="42.37306033297878" lon="12.760308669553728"><ele>447.25</ele><time>2026-04-18T10:35:42Z</time></trkpt><trkpt lat="42.3730026160695" lon="12.760135620245132"><ele>446.5</ele><time>2026-04-18T10:35:43Z</time></trkpt><trkpt lat="42.37294025044438" lon="12.759976043899153"><ele>445.75</ele><time>2026-04-18T10:35:44Z</time></trkpt><trkpt lat="42.3728873142631" lon="12.759809968732922"><ele>445.0</ele><time>2026-04-18T10:35:45Z</time></trkpt><trkpt lat="42.372828540951375" lon="12.759650922053595"><ele>445.0</ele><time>2026-04-18T10:35:46Z</time></trkpt><trkpt lat="42.37277611176286" lon="12.759496296093138"><ele>445.0</ele><time>2026-04-18T10:35:47Z</time></trkpt><trkpt lat="42.372725666933164" lon="12.759342884300203"><ele>445.0</ele><time>2026-04-18T10:35:48Z</time></trkpt><trkpt lat="42.37267020935462" lon="12.759196156342762"><ele>445.0</ele><time>2026-04-18T10:35:49Z</time></trkpt><trkpt lat="42.37261647019436" lon="12.759058669842725"><ele>446.25</ele><time>2026-04-18T10:35:50Z</time></trkpt><trkpt lat="42.37257730374318" lon="12.758915582679593"><ele>447.5</ele><time>2026-04-18T10:35:51Z</time></trkpt><trkpt lat="42.3725084087922" lon="12.758767428220622"><ele>448.75</ele><time>2026-04-18T10:35:52Z</time></trkpt><trkpt lat="42.37241100373145" lon="12.758605239747713"><ele>450.0</ele><time>2026-04-18T10:35:53Z</time></trkpt><trkpt lat="42.37232705769112" lon="12.758455436847887"><ele>450.0</ele><time>2026-04-18T10:35:54Z</time></trkpt><trkpt lat="42.37227158258389" lon="12.758325637457947"><ele>450.0</ele><time>2026-04-18T10:35:55Z</time></trkpt><trkpt lat="42.37223423902072" lon="12.758190243401907"><ele>450.0</ele><time>2026-04-18T10:35:56Z</time></trkpt><trkpt lat="42.37222004982273" lon="12.758044520117663"><ele>450.0</ele><time>2026-04-18T10:35:57Z</time></trkpt><trkpt lat="42.372233598963724" lon="12.75788835637897"><ele>450.0</ele><time>2026-04-18T10:35:58Z</time></trkpt><trkpt lat="42.372292977905744" lon="12.757721941797916"><ele>451.0</ele><time>2026-04-18T10:35:59Z</time></trkpt><trkpt lat="42.37236389205037" lon="12.757550990328303"><ele>452.0</ele><time>2026-04-18T10:36:00Z</time></trkpt><trkpt lat="42.372443647353734" lon="12.757393427383825"><ele>453.0</ele><time>2026-04-18T10:36:01Z</time></trkpt><trkpt lat="42.37250660824651" lon="12.757243344655766"><ele>454.0</ele><time>2026-04-18T10:36:02Z</time></trkpt><trkpt lat="42.37254694575228" lon="12.757087160969899"><ele>454.0</ele><time>2026-04-18T10:36:03Z</time></trkpt><trkpt lat="42.37256378918022" lon="12.756926474768612"><ele>454.0</ele><time>2026-04-18T10:36:04Z</time></trkpt><trkpt lat="42.3725929998305" lon="12.75677880452345"><ele>454.0</ele><time>2026-04-18T10:36:05Z</time></trkpt><trkpt lat="42.372681222038445" lon="12.756670612867152"><ele>454.0</ele><time>2026-04-18T10:36:06Z</time></trkpt><trkpt lat="42.3727632062769" lon="12.75655016445855"><ele>455.2</ele><time>2026-04-18T10:36:07Z</time></trkpt><trkpt lat="42.37281497924421" lon="12.756431391607967"><ele>456.4</ele><time>2026-04-18T10:36:08Z</time></trkpt><trkpt lat="42.37285366651721" lon="12.756311086844567"><ele>457.6</ele><time>2026-04-18T10:36:09Z</time></trkpt><trkpt lat="42.3729013154111" lon="12.75620156952709"><ele>458.8</ele><time>2026-04-18T10:36:10Z</time></trkpt><trkpt lat="42.37298611746379" lon="12.756089537695502"><ele>460.0</ele><time>2026-04-18T10:36:11Z</time></trkpt><trkpt lat="42.373110217793425" lon="12.75597207360428"><ele>461.25</ele><time>2026-04-18T10:36:12Z</time></trkpt><trkpt lat="42.37322351284062" lon="12.755883838504511"><ele>462.5</ele><time>2026-04-18T10:36:13Z</time></trkpt><trkpt lat="42.373318001802105" lon="12.755783517610821"><ele>463.75</ele><time>2026-04-18T10:36:14Z</time></trkpt><trkpt lat="42.37339031414773" lon="12.75565905286457"><ele>465.0</ele><time>2026-04-18T10:36:15Z</time></trkpt><trkpt lat="42.373424711620665" lon="12.755512954299403"><ele>465.0</ele><time>2026-04-18T10:36:16Z</time></trkpt><trkpt lat="42.37346521516621" lon="12.755347563913794"><ele>465.0</ele><time>2026-04-18T10:36:17Z</time></trkpt><trkpt lat="42.37354576076019" lon="12.755180865113447"><ele>465.0</ele><time>2026-04-18T10:36:18Z</time></trkpt><trkpt lat="42.373636189538" lon="12.755058141270734"><ele>465.0</ele><time>2026-04-18T10:36:19Z</time></trkpt><trkpt lat="42.37371461391749" lon="12.754951053724723"><ele>465.75</ele><time>2026-04-18T10:36:20Z</time></trkpt><trkpt lat="42.37379559512115" lon="12.754828239122633"><ele>466.5</ele><time>2026-04-18T10:36:21Z</time></trkpt><trkpt lat="42.373887141954754" lon="12.754700404196347"><ele>467.25</ele><time>2026-04-18T10:36:22Z</time></trkpt><trkpt lat="42.37397520043485" lon="12.75456327974505"><ele>468.0</ele><time>2026-04-18T10:36:23Z</time></trkpt><trkpt lat="42.37405531176732" lon="12.754419214946624"><ele>469.5</ele><time>2026-04-18T10:36:24Z</time></trkpt><trkpt lat="42.374128807372855" lon="12.75428239079546"><ele>471.0</ele><time>2026-04-18T10:36:25Z</time></trkpt><trkpt lat="42.37420966703219" lon="12.75416260345416"><ele>472.5</ele><time>2026-04-18T10:36:26Z</time></trkpt><trkpt lat="42.3742768553023" lon="12.754053844578689"><ele>474.0</ele><time>2026-04-18T10:36:27Z</time></trkpt><trkpt lat="42.37434309247779" lon="12.75394836943199"><ele>474.0</ele><time>2026-04-18T10:36:28Z</time></trkpt><trkpt lat="42.37442709941262" lon="12.753860159466099"><ele>474.0</ele><time>2026-04-18T10:36:29Z</time></trkpt><trkpt lat="42.37453386096336" lon="12.75379479425318"><ele>474.0</ele><time>2026-04-18T10:36:30Z</time></trkpt><trkpt lat="42.37464601271041" lon="12.753720826677277"><ele>474.0</ele><time>2026-04-18T10:36:31Z</time></trkpt><trkpt lat="42.374748134003305" lon="12.753637055303875"><ele>474.5</ele><time>2026-04-18T10:36:32Z</time></trkpt><trkpt lat="42.37485102042084" lon="12.753508306743374"><ele>475.0</ele><time>2026-04-18T10:36:33Z</time></trkpt><trkpt lat="42.3749562262959" lon="12.753349867213412"><ele>475.5</ele><time>2026-04-18T10:36:34Z</time></trkpt><trkpt lat="42.375057467030544" lon="12.753219776237476"><ele>476.0</ele><time>2026-04-18T10:36:35Z</time></trkpt><trkpt lat="42.375152469793456" lon="12.753117176336453"><ele>476.0</ele><time>2026-04-18T10:36:36Z</time></trkpt><trkpt lat="42.37525567616706" lon="12.753018823908034"><ele>476.0</ele><time>2026-04-18T10:36:37Z</time></trkpt><trkpt lat="42.37537629466236" lon="12.752917048247744"><ele>476.0</ele><time>2026-04-18T10:36:38Z</time></trkpt><trkpt lat="42.37549949352013" lon="12.752809945920335"><ele>476.0</ele><time>2026-04-18T10:36:39Z</time></trkpt><trkpt lat="42.37560299716524" lon="12.752719752123319"><ele>478.20000000000005</ele><time>2026-04-18T10:36:40Z</time></trkpt><trkpt lat="42.37569699474474" lon="12.752642244799189"><ele>480.40000000000003</ele><time>2026-04-18T10:36:41Z</time></trkpt><trkpt lat="42.37578685484471" lon="12.752562728603177"><ele>482.6</ele><time>2026-04-18T10:36:42Z</time></trkpt><trkpt lat="42.375870767347436" lon="12.752475633816395"><ele>484.8</ele><time>2026-04-18T10:36:43Z</time></trkpt><trkpt lat="42.37592185094202" lon="12.752366162899646"><ele>487.0</ele><time>2026-04-18T10:36:44Z</time></trkpt><trkpt lat="42.37596025872339" lon="12.752255795196538"><ele>487.0</ele><time>2026-04-18T10:36:45Z</time></trkpt><trkpt lat="42.375992961535076" lon="12.75211164023228"><ele>487.0</ele><time>2026-04-18T10:36:46Z</time></trkpt><trkpt lat="42.37603351501104" lon="12.751945135985252"><ele>487.0</ele><time>2026-04-18T10:36:47Z</time></trkpt><trkpt lat="42.37608406661018" lon="12.75179815633509"><ele>487.0</ele><time>2026-04-18T10:36:48Z</time></trkpt><trkpt lat="42.37614272895081" lon="12.751681088488718"><ele>488.0</ele><time>2026-04-18T10:36:49Z</time></trkpt><trkpt lat="42.376194961260296" lon="12.751563168311137"><ele>489.00000000000006</ele><time>2026-04-18T10:36:50Z</time></trkpt><trkpt lat="42.37625441581756" lon="12.751484316737072"><ele>490.00000000000006</ele><time>2026-04-18T10:36:51Z</time></trkpt><trkpt lat="42.3763211695761" lon="12.751415084741518"><ele>491.0</ele><time>2026-04-18T10:36:52Z</time></trkpt><trkpt lat="42.376384398157064" lon="12.75136323603815"><ele>492.0</ele><time>2026-04-18T10:36:53Z</time></trkpt><trkpt lat="42.37651501379162" lon="12.751363903536443"><ele>492.25</ele><time>2026-04-18T10:36:55Z</time></trkpt><trkpt lat="42.37660683401283" lon="12.751411680726783"><ele>492.5</ele><time>2026-04-18T10:36:56Z</time></trkpt><trkpt lat="42.37670364112429" lon="12.7515000526529"><ele>492.75</ele><time>2026-04-18T10:36:57Z</time></trkpt><trkpt lat="42.37679718451098" lon="12.75162056563382"><ele>493.0</ele><time>2026-04-18T10:36:58Z</time></trkpt><trkpt lat="42.376890762984324" lon="12.75174484496185"><ele>493.0</ele><time>2026-04-18T10:36:59Z</time></trkpt><trkpt lat="42.37698754002781" lon="12.751852653213518"><ele>493.0</ele><time>2026-04-18T10:37:00Z</time></trkpt><trkpt lat="42.377086354423554" lon="12.751950007128713"><ele>493.0</ele><time>2026-04-18T10:37:01Z</time></trkpt><trkpt lat="42.37718203833586" lon="12.75204355370329"><ele>493.0</ele><time>2026-04-18T10:37:02Z</time></trkpt><trkpt lat="42.377273153796224" lon="12.752143168219977"><ele>494.59999999999997</ele><time>2026-04-18T10:37:03Z</time></trkpt><trkpt lat="42.37736123991971" lon="12.75224966256205"><ele>496.19999999999993</ele><time>2026-04-18T10:37:04Z</time></trkpt><trkpt lat="42.377433619464526" lon="12.752366102251111"><ele>497.8</ele><time>2026-04-18T10:37:05Z</time></trkpt><trkpt lat="42.37749525602161" lon="12.752488050342151"><ele>499.4</ele><time>2026-04-18T10:37:06Z</time></trkpt><trkpt lat="42.37754739830067" lon="12.752614165137702"><ele>501.0</ele><time>2026-04-18T10:37:07Z</time></trkpt><trkpt lat="42.37758198661" lon="12.752736509414909"><ele>502.5</ele><time>2026-04-18T10:37:08Z</time></trkpt><trkpt lat="42.37759329982179" lon="12.752876652774571"><ele>504.0</ele><time>2026-04-18T10:37:09Z</time></trkpt><trkpt lat="42.37757972345897" lon="12.75303235452066"><ele>505.5</ele><time>2026-04-18T10:37:10Z</time></trkpt><trkpt lat="42.377546711001294" lon="12.753195486523156"><ele>507.0</ele><time>2026-04-18T10:37:11Z</time></trkpt><trkpt lat="42.37751924981652" lon="12.75333843528982"><ele>507.0</ele><time>2026-04-18T10:37:12Z</time></trkpt><trkpt lat="42.37750327051926" lon="12.753470440541511"><ele>507.00000000000006</ele><time>2026-04-18T10:37:13Z</time></trkpt><trkpt lat="42.377483408076245" lon="12.75359902046733"><ele>507.00000000000006</ele><time>2026-04-18T10:37:14Z</time></trkpt><trkpt lat="42.377451013723885" lon="12.753715684886314"><ele>507.0</ele><time>2026-04-18T10:37:15Z</time></trkpt><trkpt lat="42.37741734302912" lon="12.753829068127665"><ele>507.0</ele><time>2026-04-18T10:37:16Z</time></trkpt><trkpt lat="42.37739810799663" lon="12.753923764091926"><ele>508.8</ele><time>2026-04-18T10:37:17Z</time></trkpt><trkpt lat="42.37738998940611" lon="12.75403656764816"><ele>510.6</ele><time>2026-04-18T10:37:18Z</time></trkpt><trkpt lat="42.37739955578192" lon="12.754179312653939"><ele>512.4000000000001</ele><time>2026-04-18T10:37:19Z</time></trkpt><trkpt lat="42.377414315115146" lon="12.754350773858251"><ele>514.2</ele><time>2026-04-18T10:37:20Z</time></trkpt><trkpt lat="42.37741463760669" lon="12.754495974552775"><ele>516.0</ele><time>2026-04-18T10:37:21Z</time></trkpt><trkpt lat="42.37741409220661" lon="12.75462650639016"><ele>518.0</ele><time>2026-04-18T10:37:22Z</time></trkpt><trkpt lat="42.37738430845481" lon="12.754767236783183"><ele>520.0</ele><time>2026-04-18T10:37:23Z</time></trkpt><trkpt lat="42.377333340092875" lon="12.754909871650655"><ele>522.0</ele><time>2026-04-18T10:37:24Z</time></trkpt><trkpt lat="42.37726978473166" lon="12.755037902494397"><ele>524.0</ele><time>2026-04-18T10:37:25Z</time></trkpt><trkpt lat="42.377206519712274" lon="12.755164883918699"><ele>521.6</ele><time>2026-04-18T10:37:26Z</time></trkpt><trkpt lat="42.377173654687795" lon="12.755294095482919"><ele>519.2</ele><time>2026-04-18T10:37:27Z</time></trkpt><trkpt lat="42.37712719332138" lon="12.75542205876716"><ele>516.8000000000001</ele><time>2026-04-18T10:37:28Z</time></trkpt><trkpt lat="42.377110520526216" lon="12.755526080377475"><ele>514.4</ele><time>2026-04-18T10:37:29Z</time></trkpt><trkpt lat="42.3771248915855" lon="12.755643443074641"><ele>512.0</ele><time>2026-04-18T10:37:30Z</time></trkpt><trkpt lat="42.37715336520134" lon="12.755773620095905"><ele>512.0</ele><time>2026-04-18T10:37:31Z</time></trkpt><trkpt lat="42.377159385247275" lon="12.755914846586856"><ele>512.0</ele><time>2026-04-18T10:37:32Z</time></trkpt><trkpt lat="42.377131623801674" lon="12.756068436171955"><ele>512.0</ele><time>2026-04-18T10:37:33Z</time></trkpt><trkpt lat="42.37708920130339" lon="12.756212715449308"><ele>512.0</ele><time>2026-04-18T10:37:34Z</time></trkpt><trkpt lat="42.37706770222022" lon="12.756365221598761"><ele>513.75</ele><time>2026-04-18T10:37:35Z</time></trkpt><trkpt lat="42.37705680571192" lon="12.75651119884685"><ele>515.5</ele><time>2026-04-18T10:37:36Z</time></trkpt><trkpt lat="42.377058273812445" lon="12.75665621225035"><ele>517.25</ele><time>2026-04-18T10:37:37Z</time></trkpt><trkpt lat="42.37707822752369" lon="12.75681885205899"><ele>519.0</ele><time>2026-04-18T10:37:38Z</time></trkpt><trkpt lat="42.37710675524581" lon="12.756980955220659"><ele>521.0</ele><time>2026-04-18T10:37:39Z</time></trkpt><trkpt lat="42.37712125596878" lon="12.757119640640385"><ele>523.0</ele><time>2026-04-18T10:37:40Z</time></trkpt><trkpt lat="42.37711925471897" lon="12.757257351663625"><ele>525.0</ele><time>2026-04-18T10:37:41Z</time></trkpt><trkpt lat="42.37710304779468" lon="12.757400233313222"><ele>527.0</ele><time>2026-04-18T10:37:42Z</time></trkpt><trkpt lat="42.3770738476478" lon="12.757541797035305"><ele>529.0</ele><time>2026-04-18T10:37:43Z</time></trkpt><trkpt lat="42.3770285309198" lon="12.757686550987428"><ele>531.75</ele><time>2026-04-18T10:37:44Z</time></trkpt><trkpt lat="42.3769763196012" lon="12.757847613900832"><ele>534.5</ele><time>2026-04-18T10:37:45Z</time></trkpt><trkpt lat="42.376913173321206" lon="12.758006514466304"><ele>537.25</ele><time>2026-04-18T10:37:46Z</time></trkpt><trkpt lat="42.376855695373926" lon="12.758164647866481"><ele>540.0</ele><time>2026-04-18T10:37:47Z</time></trkpt><trkpt lat="42.37679195695091" lon="12.758311200439712"><ele>540.0</ele><time>2026-04-18T10:37:48Z</time></trkpt><trkpt lat="42.37674461871789" lon="12.75844620211875"><ele>540.0</ele><time>2026-04-18T10:37:49Z</time></trkpt><trkpt lat="42.37671794644858" lon="12.758591184951781"><ele>540.0</ele><time>2026-04-18T10:37:50Z</time></trkpt><trkpt lat="42.37670895901728" lon="12.758755794121168"><ele>540.0</ele><time>2026-04-18T10:37:51Z</time></trkpt><trkpt lat="42.37670389636948" lon="12.758932283855906"><ele>541.6</ele><time>2026-04-18T10:37:52Z</time></trkpt><trkpt lat="42.376674732830175" lon="12.759114950027115"><ele>543.2</ele><time>2026-04-18T10:37:53Z</time></trkpt><trkpt lat="42.37663437822772" lon="12.759260480292475"><ele>544.8</ele><time>2026-04-18T10:37:54Z</time></trkpt><trkpt lat="42.37660058279047" lon="12.759379512098171"><ele>546.4</ele><time>2026-04-18T10:37:55Z</time></trkpt><trkpt lat="42.376594158775525" lon="12.759486436066114"><ele>548.0</ele><time>2026-04-18T10:37:56Z</time></trkpt><trkpt lat="42.37661551321402" lon="12.759593448320695"><ele>548.75</ele><time>2026-04-18T10:37:57Z</time></trkpt><trkpt lat="42.376656323168596" lon="12.759722201648433"><ele>549.5</ele><time>2026-04-18T10:37:58Z</time></trkpt><trkpt lat="42.37669946300533" lon="12.759861993013564"><ele>550.25</ele><time>2026-04-18T10:37:59Z</time></trkpt><trkpt lat="42.376736583199374" lon="12.760017745563719"><ele>551.0</ele><time>2026-04-18T10:38:00Z</time></trkpt><trkpt lat="42.376753986480644" lon="12.760192522071577"><ele>550.0</ele><time>2026-04-18T10:38:01Z</time></trkpt><trkpt lat="42.37675837815393" lon="12.7603601964922"><ele>549.0</ele><time>2026-04-18T10:38:02Z</time></trkpt><trkpt lat="42.37677168341693" lon="12.76050551938258"><ele>548.0</ele><time>2026-04-18T10:38:03Z</time></trkpt><trkpt lat="42.37680038946074" lon="12.760641575225442"><ele>547.0</ele><time>2026-04-18T10:38:04Z</time></trkpt><trkpt lat="42.37684398023169" lon="12.760759866762168"><ele>546.0</ele><time>2026-04-18T10:38:05Z</time></trkpt><trkpt lat="42.37690248707375" lon="12.760872396929827"><ele>546.0</ele><time>2026-04-18T10:38:06Z</time></trkpt><trkpt lat="42.37697463941296" lon="12.760984971718745"><ele>546.0</ele><time>2026-04-18T10:38:07Z</time></trkpt><trkpt lat="42.37702586389261" lon="12.76110760763316"><ele>546.0</ele><time>2026-04-18T10:38:08Z</time></trkpt><trkpt lat="42.377050664987806" lon="12.761221951577909"><ele>546.0</ele><time>2026-04-18T10:38:09Z</time></trkpt><trkpt lat="42.377065812894806" lon="12.76130824212681"><ele>546.0</ele><time>2026-04-18T10:38:10Z</time></trkpt><trkpt lat="42.37714903336721" lon="12.76137118064138"><ele>546.0</ele><time>2026-04-18T10:38:12Z</time></trkpt><trkpt lat="42.377199938596895" lon="12.761242502533198"><ele>546.0</ele><time>2026-04-18T10:38:14Z</time></trkpt><trkpt lat="42.37717486241585" lon="12.76113445780148"><ele>546.0</ele><time>2026-04-18T10:38:15Z</time></trkpt><trkpt lat="42.377132076812345" lon="12.761018251660477"><ele>546.0</ele><time>2026-04-18T10:38:16Z</time></trkpt><trkpt lat="42.37708245483716" lon="12.760878025608218"><ele>546.0</ele><time>2026-04-18T10:38:17Z</time></trkpt><trkpt lat="42.37704030514212" lon="12.760740656202715"><ele>546.0</ele><time>2026-04-18T10:38:18Z</time></trkpt><trkpt lat="42.376989325951364" lon="12.760608317587597"><ele>546.0</ele><time>2026-04-18T10:38:19Z</time></trkpt><trkpt lat="42.37695968965644" lon="12.76044441517256"><ele>546.0</ele><time>2026-04-18T10:38:20Z</time></trkpt><trkpt lat="42.376946399787826" lon="12.760250625118298"><ele>546.0</ele><time>2026-04-18T10:38:21Z</time></trkpt><trkpt lat="42.37693470580743" lon="12.760090139904998"><ele>547.0</ele><time>2026-04-18T10:38:22Z</time></trkpt><trkpt lat="42.37691702627951" lon="12.759935337675559"><ele>548.0</ele><time>2026-04-18T10:38:23Z</time></trkpt><trkpt lat="42.37689234901973" lon="12.759793007990647"><ele>549.0</ele><time>2026-04-18T10:38:24Z</time></trkpt><trkpt lat="42.37688564944542" lon="12.759678999358183"><ele>550.0</ele><time>2026-04-18T10:38:25Z</time></trkpt><trkpt lat="42.376901741325604" lon="12.759565727843615"><ele>551.0</ele><time>2026-04-18T10:38:26Z</time></trkpt><trkpt lat="42.37694119205214" lon="12.759425473148674"><ele>550.25</ele><time>2026-04-18T10:38:27Z</time></trkpt><trkpt lat="42.37699666477984" lon="12.759272870243807"><ele>549.5</ele><time>2026-04-18T10:38:28Z</time></trkpt><trkpt lat="42.37706403129732" lon="12.759120942846176"><ele>548.75</ele><time>2026-04-18T10:38:29Z</time></trkpt><trkpt lat="42.37713249119006" lon="12.758986792802455"><ele>548.0</ele><time>2026-04-18T10:38:30Z</time></trkpt><trkpt lat="42.37719439161899" lon="12.758873626193296"><ele>552.1666666666666</ele><time>2026-04-18T10:38:31Z</time></trkpt><trkpt lat="42.37724569309898" lon="12.75877447686919"><ele>556.3333333333333</ele><time>2026-04-18T10:38:32Z</time></trkpt><trkpt lat="42.37729096940242" lon="12.75867353847059"><ele>560.5</ele><time>2026-04-18T10:38:33Z</time></trkpt><trkpt lat="42.37733032257927" lon="12.758557943688"><ele>564.6666666666666</ele><time>2026-04-18T10:38:34Z</time></trkpt><trkpt lat="42.37736400534314" lon="12.758444150204475"><ele>568.8333333333334</ele><time>2026-04-18T10:38:35Z</time></trkpt><trkpt lat="42.37739082331854" lon="12.758350631625687"><ele>573.0</ele><time>2026-04-18T10:38:36Z</time></trkpt><trkpt lat="42.377441639589144" lon="12.758204938290907"><ele>573.0</ele><time>2026-04-18T10:38:38Z</time></trkpt><trkpt lat="42.377494456139225" lon="12.758129782031297"><ele>573.0</ele><time>2026-04-18T10:38:39Z</time></trkpt><trkpt lat="42.37755965104797" lon="12.758057989581124"><ele>573.0</ele><time>2026-04-18T10:38:40Z</time></trkpt><trkpt lat="42.37762962039656" lon="12.757997583080376"><ele>573.0</ele><time>2026-04-18T10:38:41Z</time></trkpt><trkpt lat="42.37769715142185" lon="12.757939487937648"><ele>573.0</ele><time>2026-04-18T10:38:42Z</time></trkpt><trkpt lat="42.3777702869452" lon="12.757891979167187"><ele>573.0</ele><time>2026-04-18T10:38:43Z</time></trkpt><trkpt lat="42.3778590080409" lon="12.757936270516925"><ele>573.0</ele><time>2026-04-18T10:38:45Z</time></trkpt><trkpt lat="42.3778791225008" lon="12.758019287206606"><ele>573.0</ele><time>2026-04-18T10:38:46Z</time></trkpt><trkpt lat="42.377857945936896" lon="12.758106696782649"><ele>573.0</ele><time>2026-04-18T10:38:47Z</time></trkpt><trkpt lat="42.377806974816146" lon="12.75821558060462"><ele>573.0</ele><time>2026-04-18T10:38:48Z</time></trkpt><trkpt lat="42.37774319185838" lon="12.7583437684275"><ele>573.0</ele><time>2026-04-18T10:38:49Z</time></trkpt><trkpt lat="42.377683508238526" lon="12.758485122120256"><ele>576.25</ele><time>2026-04-18T10:38:50Z</time></trkpt><trkpt lat="42.37762667906288" lon="12.758637453617599"><ele>579.5</ele><time>2026-04-18T10:38:51Z</time></trkpt><trkpt lat="42.37757169427164" lon="12.758780460381356"><ele>582.75</ele><time>2026-04-18T10:38:52Z</time></trkpt><trkpt lat="42.377499839694124" lon="12.758937380862273"><ele>586.0</ele><time>2026-04-18T10:38:53Z</time></trkpt><trkpt lat="42.377435957097795" lon="12.759082958128083"><ele>586.0</ele><time>2026-04-18T10:38:54Z</time></trkpt><trkpt lat="42.37739212642047" lon="12.759197681514774"><ele>586.0</ele><time>2026-04-18T10:38:55Z</time></trkpt><trkpt lat="42.37736438050781" lon="12.759303023175555"><ele>586.0</ele><time>2026-04-18T10:38:56Z</time></trkpt><trkpt lat="42.3773523105856" lon="12.75942852051622"><ele>586.0</ele><time>2026-04-18T10:38:57Z</time></trkpt><trkpt lat="42.37734978271478" lon="12.759555871457541"><ele>586.0</ele><time>2026-04-18T10:38:58Z</time></trkpt><trkpt lat="42.37735010927879" lon="12.75967359687103"><ele>587.0</ele><time>2026-04-18T10:38:59Z</time></trkpt><trkpt lat="42.37736908551019" lon="12.75976562247088"><ele>588.0</ele><time>2026-04-18T10:39:00Z</time></trkpt><trkpt lat="42.377415717653925" lon="12.759843907717542"><ele>589.0</ele><time>2026-04-18T10:39:01Z</time></trkpt><trkpt lat="42.37748585117043" lon="12.75988426168386"><ele>590.0</ele><time>2026-04-18T10:39:02Z</time></trkpt><trkpt lat="42.37757433614743" lon="12.759886398736603"><ele>591.0</ele><time>2026-04-18T10:39:03Z</time></trkpt><trkpt lat="42.37766089804043" lon="12.759874987457772"><ele>592.0</ele><time>2026-04-18T10:39:04Z</time></trkpt><trkpt lat="42.37773251971022" lon="12.759890963492301"><ele>592.0</ele><time>2026-04-18T10:39:05Z</time></trkpt><trkpt lat="42.377796452538256" lon="12.759945848372826"><ele>592.0</ele><time>2026-04-18T10:39:06Z</time></trkpt><trkpt lat="42.377857705906905" lon="12.760023147649976"><ele>592.0</ele><time>2026-04-18T10:39:07Z</time></trkpt><trkpt lat="42.37792562431297" lon="12.760102573324902"><ele>592.0</ele><time>2026-04-18T10:39:08Z</time></trkpt><trkpt lat="42.37798775921091" lon="12.760175462141094"><ele>592.0</ele><time>2026-04-18T10:39:09Z</time></trkpt><trkpt lat="42.37804320849167" lon="12.76024144680604"><ele>592.0</ele><time>2026-04-18T10:39:10Z</time></trkpt><trkpt lat="42.37809528701322" lon="12.760302603507675"><ele>593.1666666666667</ele><time>2026-04-18T10:39:11Z</time></trkpt><trkpt lat="42.37815302001819" lon="12.760371447141509"><ele>594.3333333333334</ele><time>2026-04-18T10:39:12Z</time></trkpt><trkpt lat="42.378213992586424" lon="12.760431817378612"><ele>595.5</ele><time>2026-04-18T10:39:13Z</time></trkpt><trkpt lat="42.378290318568304" lon="12.760467557038872"><ele>596.6666666666666</ele><time>2026-04-18T10:39:14Z</time></trkpt><trkpt lat="42.378365209453726" lon="12.760490545700446"><ele>597.8333333333333</ele><time>2026-04-18T10:39:15Z</time></trkpt><trkpt lat="42.37845047641138" lon="12.760508641198415"><ele>599.0</ele><time>2026-04-18T10:39:16Z</time></trkpt><trkpt lat="42.37852722733627" lon="12.760531622356693"><ele>599.0</ele><time>2026-04-18T10:39:17Z</time></trkpt><trkpt lat="42.37859092616796" lon="12.760550236617068"><ele>599.0</ele><time>2026-04-18T10:39:18Z</time></trkpt><trkpt lat="42.37865520769497" lon="12.760552028617699"><ele>599.0</ele><time>2026-04-18T10:39:19Z</time></trkpt><trkpt lat="42.37874341391749" lon="12.760587068432363"><ele>599.0</ele><time>2026-04-18T10:39:21Z</time></trkpt><trkpt lat="42.37882020879721" lon="12.760573193011659"><ele>599.0</ele><time>2026-04-18T10:39:23Z</time></trkpt><trkpt lat="42.37888674361282" lon="12.760567132866562"><ele>599.0</ele><time>2026-04-18T10:39:24Z</time></trkpt><trkpt lat="42.37897008059267" lon="12.760624280245334"><ele>600.0</ele><time>2026-04-18T10:39:25Z</time></trkpt><trkpt lat="42.37906814651005" lon="12.760678817526884"><ele>601.0</ele><time>2026-04-18T10:39:26Z</time></trkpt><trkpt lat="42.379178155969385" lon="12.760710726329622"><ele>602.0</ele><time>2026-04-18T10:39:27Z</time></trkpt><trkpt lat="42.3792750905603" lon="12.760737698956412"><ele>603.0</ele><time>2026-04-18T10:39:28Z</time></trkpt><trkpt lat="42.37936589399115" lon="12.760772653491381"><ele>604.0</ele><time>2026-04-18T10:39:29Z</time></trkpt><trkpt lat="42.379458625756946" lon="12.760814002712435"><ele>604.0</ele><time>2026-04-18T10:39:30Z</time></trkpt><trkpt lat="42.379525272938764" lon="12.760863839293213"><ele>604.0</ele><time>2026-04-18T10:39:31Z</time></trkpt><trkpt lat="42.37958594400636" lon="12.760946407103653"><ele>604.0</ele><time>2026-04-18T10:39:32Z</time></trkpt><trkpt lat="42.379624463242926" lon="12.761058549975147"><ele>604.0</ele><time>2026-04-18T10:39:33Z</time></trkpt><trkpt lat="42.379648250219034" lon="12.761182179859546"><ele>604.0</ele><time>2026-04-18T10:39:34Z</time></trkpt><trkpt lat="42.3796865932739" lon="12.761326880199125"><ele>606.4</ele><time>2026-04-18T10:39:35Z</time></trkpt><trkpt lat="42.379745046586415" lon="12.761491715242702"><ele>608.8</ele><time>2026-04-18T10:39:36Z</time></trkpt><trkpt lat="42.37980795754865" lon="12.76158325584923"><ele>611.2</ele><time>2026-04-18T10:39:37Z</time></trkpt><trkpt lat="42.379851037960584" lon="12.761679735000078"><ele>613.6</ele><time>2026-04-18T10:39:38Z</time></trkpt><trkpt lat="42.379872395612665" lon="12.761789019484658"><ele>616.0</ele><time>2026-04-18T10:39:39Z</time></trkpt><trkpt lat="42.379853964701965" lon="12.761893180741373"><ele>616.0</ele><time>2026-04-18T10:39:40Z</time></trkpt><trkpt lat="42.37987420010236" lon="12.762024655314793"><ele>616.0</ele><time>2026-04-18T10:39:41Z</time></trkpt><trkpt lat="42.379919009496795" lon="12.762119809959364"><ele>616.0</ele><time>2026-04-18T10:39:42Z</time></trkpt><trkpt lat="42.3799533513446" lon="12.762192872813195"><ele>616.0</ele><time>2026-04-18T10:39:43Z</time></trkpt><trkpt lat="42.3800428367399" lon="12.762318711840834"><ele>616.0</ele><time>2026-04-18T10:39:45Z</time></trkpt><trkpt lat="42.3801105751263" lon="12.762385405564398"><ele>616.0</ele><time>2026-04-18T10:39:46Z</time></trkpt><trkpt lat="42.38019166549711" lon="12.762447718088197"><ele>616.0</ele><time>2026-04-18T10:39:47Z</time></trkpt><trkpt lat="42.3802709526668" lon="12.762515560799677"><ele>616.0</ele><time>2026-04-18T10:39:48Z</time></trkpt><trkpt lat="42.38034686211644" lon="12.762596303377807"><ele>616.0</ele><time>2026-04-18T10:39:49Z</time></trkpt><trkpt lat="42.380411929095686" lon="12.762672327523221"><ele>616.0</ele><time>2026-04-18T10:39:50Z</time></trkpt><trkpt lat="42.380461471567855" lon="12.762732712504187"><ele>616.0</ele><time>2026-04-18T10:39:51Z</time></trkpt><trkpt lat="42.38051949103807" lon="12.762831078704954"><ele>619.1666666666667</ele><time>2026-04-18T10:39:52Z</time></trkpt><trkpt lat="42.38056109068341" lon="12.762927048126908"><ele>622.3333333333334</ele><time>2026-04-18T10:39:53Z</time></trkpt><trkpt lat="42.38060558664185" lon="12.763020511933869"><ele>625.5</ele><time>2026-04-18T10:39:54Z</time></trkpt><trkpt lat="42.38065729069098" lon="12.76312103189949"><ele>628.6666666666666</ele><time>2026-04-18T10:39:55Z</time></trkpt><trkpt lat="42.380709860294374" lon="12.763199555447523"><ele>631.8333333333333</ele><time>2026-04-18T10:39:56Z</time></trkpt><trkpt lat="42.380757718546505" lon="12.763258403761375"><ele>635.0</ele><time>2026-04-18T10:39:57Z</time></trkpt><trkpt lat="42.38083294864719" lon="12.763273904856815"><ele>635.0</ele><time>2026-04-18T10:39:59Z</time></trkpt><trkpt lat="42.38088888241778" lon="12.763166921997675"><ele>635.0</ele><time>2026-04-18T10:40:00Z</time></trkpt><trkpt lat="42.38091233382811" lon="12.763057970319396"><ele>635.0</ele><time>2026-04-18T10:40:01Z</time></trkpt><trkpt lat="42.38095103247524" lon="12.762952282231419"><ele>635.0</ele><time>2026-04-18T10:40:02Z</time></trkpt><trkpt lat="42.38099216665057" lon="12.762847927420225"><ele>635.0</ele><time>2026-04-18T10:40:03Z</time></trkpt><trkpt lat="42.381040414652546" lon="12.762725525264301"><ele>636.0</ele><time>2026-04-18T10:40:04Z</time></trkpt><trkpt lat="42.381074712026724" lon="12.76263292179796"><ele>637.0</ele><time>2026-04-18T10:40:05Z</time></trkpt><trkpt lat="42.3811105999127" lon="12.762536468338476"><ele>638.0</ele><time>2026-04-18T10:40:06Z</time></trkpt><trkpt lat="42.381152117522916" lon="12.762452166887705"><ele>639.0</ele><time>2026-04-18T10:40:07Z</time></trkpt><trkpt lat="42.38118632548946" lon="12.762376742205337"><ele>640.0</ele><time>2026-04-18T10:40:08Z</time></trkpt><trkpt lat="42.3812006854342" lon="12.76228292110058"><ele>641.0</ele><time>2026-04-18T10:40:09Z</time></trkpt><trkpt lat="42.381188958248764" lon="12.762172135999355"><ele>641.0</ele><time>2026-04-18T10:40:10Z</time></trkpt><trkpt lat="42.38116131099032" lon="12.762036081362055"><ele>641.0</ele><time>2026-04-18T10:40:11Z</time></trkpt><trkpt lat="42.38112658776076" lon="12.761889296674216"><ele>641.0</ele><time>2026-04-18T10:40:12Z</time></trkpt><trkpt lat="42.38110714274773" lon="12.761722454520534"><ele>641.0</ele><time>2026-04-18T10:40:13.001Z</time></trkpt><trkpt lat="42.3810745385789" lon="12.761567036495775"><ele>643.25</ele><time>2026-04-18T10:40:14.001Z</time></trkpt><trkpt lat="42.38104331853698" lon="12.761417791851235"><ele>645.5</ele><time>2026-04-18T10:40:15.001Z</time></trkpt><trkpt lat="42.38100005852809" lon="12.761282658111881"><ele>647.75</ele><time>2026-04-18T10:40:16.001Z</time></trkpt><trkpt lat="42.380967657697155" lon="12.761139429171982"><ele>650.0</ele><time>2026-04-18T10:40:17.001Z</time></trkpt><trkpt lat="42.380911715146894" lon="12.761002093498922"><ele>655.2</ele><time>2026-04-18T10:40:18.001Z</time></trkpt><trkpt lat="42.380859931421796" lon="12.76087685799169"><ele>660.4</ele><time>2026-04-18T10:40:19.001Z</time></trkpt><trkpt lat="42.380778539419005" lon="12.7607492841089"><ele>665.5999999999999</ele><time>2026-04-18T10:40:20.001Z</time></trkpt><trkpt lat="42.380712406993325" lon="12.760632717734167"><ele>670.8</ele><time>2026-04-18T10:40:21.001Z</time></trkpt><trkpt lat="42.380649518763974" lon="12.760518149542968"><ele>676.0</ele><time>2026-04-18T10:40:22.001Z</time></trkpt><trkpt lat="42.380601069445405" lon="12.76041588350857"><ele>676.0</ele><time>2026-04-18T10:40:23.001Z</time></trkpt><trkpt lat="42.38056993495035" lon="12.760333747958324"><ele>676.0</ele><time>2026-04-18T10:40:24.001Z</time></trkpt><trkpt lat="42.38053821444847" lon="12.76022012482864"><ele>676.0</ele><time>2026-04-18T10:40:25.001Z</time></trkpt><trkpt lat="42.380507789707536" lon="12.760070302245717"><ele>676.0</ele><time>2026-04-18T10:40:26.001Z</time></trkpt><trkpt lat="42.3804821840255" lon="12.759904778133727"><ele>676.0</ele><time>2026-04-18T10:40:27.001Z</time></trkpt><trkpt lat="42.38047153214437" lon="12.759746573894587"><ele>672.5999999999999</ele><time>2026-04-18T10:40:28.001Z</time></trkpt><trkpt lat="42.380457142232984" lon="12.759599904098962"><ele>669.2</ele><time>2026-04-18T10:40:29.001Z</time></trkpt><trkpt lat="42.38046607719869" lon="12.75945817126145"><ele>665.8</ele><time>2026-04-18T10:40:30.001Z</time></trkpt><trkpt lat="42.38047151232826" lon="12.759318061838304"><ele>662.4000000000001</ele><time>2026-04-18T10:40:31.001Z</time></trkpt><trkpt lat="42.38047877739726" lon="12.759165785817503"><ele>659.0</ele><time>2026-04-18T10:40:32.001Z</time></trkpt><trkpt lat="42.38049009755461" lon="12.759001185458796"><ele>659.0</ele><time>2026-04-18T10:40:33.001Z</time></trkpt><trkpt lat="42.38049920920456" lon="12.75882535165454"><ele>659.0</ele><time>2026-04-18T10:40:34.001Z</time></trkpt><trkpt lat="42.38051234222376" lon="12.758639529833047"><ele>659.0</ele><time>2026-04-18T10:40:35.001Z</time></trkpt><trkpt lat="42.380532039270534" lon="12.758454350030881"><ele>659.0</ele><time>2026-04-18T10:40:36.001Z</time></trkpt><trkpt lat="42.380554768744254" lon="12.758289657180393"><ele>673.5</ele><time>2026-04-18T10:40:37.001Z</time></trkpt><trkpt lat="42.380583000156335" lon="12.75814692544721"><ele>688.0</ele><time>2026-04-18T10:40:38.001Z</time></trkpt><trkpt lat="42.38060477704245" lon="12.75799114551512"><ele>702.5</ele><time>2026-04-18T10:40:39.001Z</time></trkpt><trkpt lat="42.38061674128211" lon="12.757815749401754"><ele>717.0</ele><time>2026-04-18T10:40:40.001Z</time></trkpt><trkpt lat="42.38063422901343" lon="12.75762929485005"><ele>718.75</ele><time>2026-04-18T10:40:41.001Z</time></trkpt><trkpt lat="42.380656691413975" lon="12.757454206845052"><ele>720.5</ele><time>2026-04-18T10:40:42.001Z</time></trkpt><trkpt lat="42.380676399957615" lon="12.757284789207699"><ele>722.25</ele><time>2026-04-18T10:40:43.001Z</time></trkpt><trkpt lat="42.38068279829398" lon="12.757118697210934"><ele>724.0</ele><time>2026-04-18T10:40:44.001Z</time></trkpt><trkpt lat="42.38068449469015" lon="12.756989960452803"><ele>724.0</ele><time>2026-04-18T10:40:45.001Z</time></trkpt><trkpt lat="42.38068798264504" lon="12.756895426288418"><ele>724.0</ele><time>2026-04-18T10:40:46.001Z</time></trkpt><trkpt lat="42.38068881511698" lon="12.756735880658775"><ele>724.0</ele><time>2026-04-18T10:40:48.001Z</time></trkpt><trkpt lat="42.380704804353265" lon="12.75659799130209"><ele>724.0</ele><time>2026-04-18T10:40:50.001Z</time></trkpt><trkpt lat="42.3807120749381" lon="12.756454810587792"><ele>724.0</ele><time>2026-04-18T10:40:52.001Z</time></trkpt><trkpt lat="42.38075893884555" lon="12.756383445333418"><ele>723.0</ele><time>2026-04-18T10:40:53Z</time></trkpt><trkpt lat="42.380863195401915" lon="12.756397231843245"><ele>722.0</ele><time>2026-04-18T10:40:54Z</time></trkpt><trkpt lat="42.38093238635191" lon="12.756383105165556"><ele>721.0</ele><time>2026-04-18T10:40:55Z</time></trkpt><trkpt lat="42.381005816713945" lon="12.75638051672106"><ele>720.0</ele><time>2026-04-18T10:40:56Z</time></trkpt><trkpt lat="42.38107336263435" lon="12.756391420297533"><ele>719.0</ele><time>2026-04-18T10:40:57Z</time></trkpt><trkpt lat="42.381181832529634" lon="12.756480050773702"><ele>718.0</ele><time>2026-04-18T10:40:59Z</time></trkpt><trkpt lat="42.38124384485789" lon="12.756514719456264"><ele>721.0</ele><time>2026-04-18T10:41:00Z</time></trkpt><trkpt lat="42.38135167201859" lon="12.75657670710059"><ele>724.0</ele><time>2026-04-18T10:41:02Z</time></trkpt><trkpt lat="42.381413733956435" lon="12.75661143182616"><ele>727.0</ele><time>2026-04-18T10:41:03Z</time></trkpt><trkpt lat="42.38148076707497" lon="12.756648937998687"><ele>730.0</ele><time>2026-04-18T10:41:04Z</time></trkpt><trkpt lat="42.381548793626386" lon="12.756683825754179"><ele>733.0</ele><time>2026-04-18T10:41:05Z</time></trkpt><trkpt lat="42.38162353762404" lon="12.756687607118526"><ele>736.0</ele><time>2026-04-18T10:41:06Z</time></trkpt><trkpt lat="42.381689714239016" lon="12.75671073941604"><ele>736.0</ele><time>2026-04-18T10:41:07Z</time></trkpt><trkpt lat="42.381755577051415" lon="12.756731390117857"><ele>736.0</ele><time>2026-04-18T10:41:08Z</time></trkpt><trkpt lat="42.38185679508174" lon="12.756750532000522"><ele>736.0</ele><time>2026-04-18T10:41:09Z</time></trkpt><trkpt lat="42.38197310853475" lon="12.75673827913357"><ele>736.0</ele><time>2026-04-18T10:41:10Z</time></trkpt><trkpt lat="42.38207931652016" lon="12.756754553941224"><ele>736.0</ele><time>2026-04-18T10:41:11Z</time></trkpt><trkpt lat="42.38217113394184" lon="12.756743764617426"><ele>736.4</ele><time>2026-04-18T10:41:12Z</time></trkpt><trkpt lat="42.382270375079266" lon="12.756754094342378"><ele>736.8</ele><time>2026-04-18T10:41:13Z</time></trkpt><trkpt lat="42.38238255120005" lon="12.756763659420253"><ele>737.1999999999999</ele><time>2026-04-18T10:41:14Z</time></trkpt><trkpt lat="42.382497408651105" lon="12.756773452278352"><ele>737.5999999999999</ele><time>2026-04-18T10:41:15Z</time></trkpt><trkpt lat="42.38260652613326" lon="12.756787107288632"><ele>738.0</ele><time>2026-04-18T10:41:16Z</time></trkpt><trkpt lat="42.382705125416145" lon="12.756800084939275"><ele>738.0</ele><time>2026-04-18T10:41:17Z</time></trkpt><trkpt lat="42.3828044987986" lon="12.756793513728763"><ele>738.0</ele><time>2026-04-18T10:41:18Z</time></trkpt><trkpt lat="42.38289753139263" lon="12.75683199556769"><ele>738.0</ele><time>2026-04-18T10:41:19Z</time></trkpt><trkpt lat="42.38298161808275" lon="12.756824193678018"><ele>738.0</ele><time>2026-04-18T10:41:20Z</time></trkpt><trkpt lat="42.38307887809584" lon="12.756822247598139"><ele>738.0</ele><time>2026-04-18T10:41:21Z</time></trkpt><trkpt lat="42.38317832173309" lon="12.756815864311722"><ele>739.5</ele><time>2026-04-18T10:41:22Z</time></trkpt><trkpt lat="42.3832712497824" lon="12.756800008272725"><ele>741.0</ele><time>2026-04-18T10:41:23Z</time></trkpt><trkpt lat="42.38334381674829" lon="12.756783871359218"><ele>742.5</ele><time>2026-04-18T10:41:24Z</time></trkpt><trkpt lat="42.38341437865435" lon="12.756799363505827"><ele>744.0</ele><time>2026-04-18T10:41:25Z</time></trkpt><trkpt lat="42.383482787722066" lon="12.75678387726482"><ele>745.5</ele><time>2026-04-18T10:41:26Z</time></trkpt><trkpt lat="42.38356912418737" lon="12.756773689938262"><ele>747.0</ele><time>2026-04-18T10:41:27Z</time></trkpt><trkpt lat="42.38365256564773" lon="12.756761853776888"><ele>747.0</ele><time>2026-04-18T10:41:28Z</time></trkpt><trkpt lat="42.38375176834574" lon="12.756753753898492"><ele>747.0</ele><time>2026-04-18T10:41:29Z</time></trkpt><trkpt lat="42.38384698233552" lon="12.756732301554917"><ele>747.0</ele><time>2026-04-18T10:41:30Z</time></trkpt><trkpt lat="42.38392710259355" lon="12.756702899020912"><ele>747.0</ele><time>2026-04-18T10:41:31Z</time></trkpt><trkpt lat="42.384039215845256" lon="12.75665436757687"><ele>747.0</ele><time>2026-04-18T10:41:33Z</time></trkpt><trkpt lat="42.384054478374395" lon="12.756547589320364"><ele>749.4000000000001</ele><time>2026-04-18T10:41:34Z</time></trkpt><trkpt lat="42.38409133923095" lon="12.756454062917005"><ele>751.8000000000001</ele><time>2026-04-18T10:41:35Z</time></trkpt><trkpt lat="42.38414634624337" lon="12.756253686290698"><ele>754.2</ele><time>2026-04-18T10:41:37Z</time></trkpt><trkpt lat="42.384180733029055" lon="12.756123351900538"><ele>756.6</ele><time>2026-04-18T10:41:38Z</time></trkpt><trkpt lat="42.38422475792234" lon="12.756016176016248"><ele>759.0</ele><time>2026-04-18T10:41:39Z</time></trkpt><trkpt lat="42.384256377542414" lon="12.755922253013633"><ele>759.0</ele><time>2026-04-18T10:41:40Z</time></trkpt><trkpt lat="42.384299829956284" lon="12.755812058810516"><ele>759.0</ele><time>2026-04-18T10:41:41Z</time></trkpt><trkpt lat="42.3843493681331" lon="12.755696000464695"><ele>759.0</ele><time>2026-04-18T10:41:42Z</time></trkpt><trkpt lat="42.384410492966055" lon="12.755589768401123"><ele>759.0</ele><time>2026-04-18T10:41:43Z</time></trkpt><trkpt lat="42.38445964753526" lon="12.75551492594185"><ele>759.0</ele><time>2026-04-18T10:41:44Z</time></trkpt><trkpt lat="42.384512936264514" lon="12.755440835862446"><ele>759.0</ele><time>2026-04-18T10:41:45Z</time></trkpt><trkpt lat="42.38460361220367" lon="12.755342061135215"><ele>759.0</ele><time>2026-04-18T10:41:47Z</time></trkpt><trkpt lat="42.38464306210734" lon="12.755259919052575"><ele>759.0</ele><time>2026-04-18T10:41:48Z</time></trkpt><trkpt lat="42.384655345038986" lon="12.755113012652755"><ele>759.0</ele><time>2026-04-18T10:41:50Z</time></trkpt><trkpt lat="42.38458889450654" lon="12.75501241595795"><ele>759.0</ele><time>2026-04-18T10:41:53Z</time></trkpt><trkpt lat="42.38455387341973" lon="12.754929930780014"><ele>759.0</ele><time>2026-04-18T10:41:54Z</time></trkpt><trkpt lat="42.38453676689317" lon="12.754796097773996"><ele>758.8333333333334</ele><time>2026-04-18T10:41:56Z</time></trkpt><trkpt lat="42.38452779669434" lon="12.754697976089318"><ele>758.6666666666666</ele><time>2026-04-18T10:41:57Z</time></trkpt><trkpt lat="42.384520381453186" lon="12.754591363416312"><ele>758.5</ele><time>2026-04-18T10:41:58Z</time></trkpt><trkpt lat="42.38451366661283" lon="12.754472057609625"><ele>758.3333333333333</ele><time>2026-04-18T10:41:59Z</time></trkpt><trkpt lat="42.384509342708704" lon="12.754373472531094"><ele>758.1666666666666</ele><time>2026-04-18T10:42:00Z</time></trkpt><trkpt lat="42.38451242462514" lon="12.754267132460258"><ele>758.0</ele><time>2026-04-18T10:42:01Z</time></trkpt><trkpt lat="42.38452245797238" lon="12.754148403045955"><ele>759.8</ele><time>2026-04-18T10:42:02Z</time></trkpt><trkpt lat="42.38452747345509" lon="12.754027112579768"><ele>761.5999999999999</ele><time>2026-04-18T10:42:03Z</time></trkpt><trkpt lat="42.384526185137986" lon="12.753900500821283"><ele>763.4000000000001</ele><time>2026-04-18T10:42:04Z</time></trkpt><trkpt lat="42.384514695272884" lon="12.753748197698476"><ele>765.2</ele><time>2026-04-18T10:42:05Z</time></trkpt><trkpt lat="42.384497526104596" lon="12.75361900023682"><ele>767.0</ele><time>2026-04-18T10:42:06Z</time></trkpt><trkpt lat="42.38449489645275" lon="12.753524922031351"><ele>770.0</ele><time>2026-04-18T10:42:07Z</time></trkpt><trkpt lat="42.38452861035099" lon="12.753364552461777"><ele>773.0</ele><time>2026-04-18T10:42:09Z</time></trkpt><trkpt lat="42.38456615927052" lon="12.753240315516639"><ele>776.0</ele><time>2026-04-18T10:42:10Z</time></trkpt><trkpt lat="42.384609464450705" lon="12.7531077200187"><ele>779.0</ele><time>2026-04-18T10:42:11Z</time></trkpt><trkpt lat="42.38463039985683" lon="12.75299508962732"><ele>782.0</ele><time>2026-04-18T10:42:12Z</time></trkpt><trkpt lat="42.38464784013132" lon="12.752869420024043"><ele>782.0000000000001</ele><time>2026-04-18T10:42:13Z</time></trkpt><trkpt lat="42.384674581832186" lon="12.752733828673414"><ele>782.0</ele><time>2026-04-18T10:42:14Z</time></trkpt><trkpt lat="42.38470426824272" lon="12.752581091654262"><ele>782.0</ele><time>2026-04-18T10:42:15Z</time></trkpt><trkpt lat="42.38472713810238" lon="12.75245591766299"><ele>782.0</ele><time>2026-04-18T10:42:16Z</time></trkpt><trkpt lat="42.38475839419996" lon="12.752376844581885"><ele>782.0000000000001</ele><time>2026-04-18T10:42:17Z</time></trkpt><trkpt lat="42.38474267172779" lon="12.752293584535614"><ele>782.0</ele><time>2026-04-18T10:42:18Z</time></trkpt><trkpt lat="42.384692413699945" lon="12.752181143467274"><ele>785.2</ele><time>2026-04-18T10:42:19Z</time></trkpt><trkpt lat="42.38463714563991" lon="12.752086263216436"><ele>788.4000000000001</ele><time>2026-04-18T10:42:20Z</time></trkpt><trkpt lat="42.384596282680015" lon="12.75195017910262"><ele>791.5999999999999</ele><time>2026-04-18T10:42:22Z</time></trkpt><trkpt lat="42.384562107319745" lon="12.751852398807916"><ele>794.8</ele><time>2026-04-18T10:42:23Z</time></trkpt><trkpt lat="42.38452304980302" lon="12.751729841786451"><ele>798.0</ele><time>2026-04-18T10:42:24Z</time></trkpt><trkpt lat="42.38446667760005" lon="12.751646874704427"><ele>800.4</ele><time>2026-04-18T10:42:25Z</time></trkpt><trkpt lat="42.38442820193413" lon="12.751572649136456"><ele>802.8</ele><time>2026-04-18T10:42:26Z</time></trkpt><trkpt lat="42.384383922536344" lon="12.751473844241564"><ele>805.2</ele><time>2026-04-18T10:42:27Z</time></trkpt><trkpt lat="42.384309228277004" lon="12.751388192122715"><ele>807.6</ele><time>2026-04-18T10:42:28Z</time></trkpt><trkpt lat="42.384246372755406" lon="12.75129038524122"><ele>810.0</ele><time>2026-04-18T10:42:30.001Z</time></trkpt><trkpt lat="42.38416913300229" lon="12.751139016340698"><ele>810.0</ele><time>2026-04-18T10:42:32.001Z</time></trkpt><trkpt lat="42.38412256632145" lon="12.751042586486292"><ele>810.0</ele><time>2026-04-18T10:42:33.001Z</time></trkpt><trkpt lat="42.3840820026968" lon="12.750917585542865"><ele>810.0</ele><time>2026-04-18T10:42:34.001Z</time></trkpt><trkpt lat="42.38403681841269" lon="12.750755865649335"><ele>810.0</ele><time>2026-04-18T10:42:35.001Z</time></trkpt><trkpt lat="42.38400267062609" lon="12.750618992239902"><ele>810.0</ele><time>2026-04-18T10:42:36.001Z</time></trkpt><trkpt lat="42.38396645002098" lon="12.75049695846131"><ele>810.6666666666666</ele><time>2026-04-18T10:42:37.001Z</time></trkpt><trkpt lat="42.38392781863997" lon="12.750407649287672"><ele>811.3333333333333</ele><time>2026-04-18T10:42:38.001Z</time></trkpt><trkpt lat="42.38390179450048" lon="12.750302497809532"><ele>812.0</ele><time>2026-04-18T10:42:39.001Z</time></trkpt><trkpt lat="42.383832316008565" lon="12.750242283490005"><ele>812.6666666666666</ele><time>2026-04-18T10:42:40.001Z</time></trkpt><trkpt lat="42.383790901280435" lon="12.75015142311788"><ele>813.3333333333333</ele><time>2026-04-18T10:42:41.001Z</time></trkpt><trkpt lat="42.38374989690298" lon="12.750069278678064"><ele>814.0</ele><time>2026-04-18T10:42:42.001Z</time></trkpt><trkpt lat="42.383699894638895" lon="12.749957331628153"><ele>814.0000000000001</ele><time>2026-04-18T10:42:43.001Z</time></trkpt><trkpt lat="42.383655986379665" lon="12.74984935325614"><ele>814.0</ele><time>2026-04-18T10:42:44.001Z</time></trkpt><trkpt lat="42.38362673970218" lon="12.749758644563663"><ele>814.0</ele><time>2026-04-18T10:42:45.001Z</time></trkpt><trkpt lat="42.38362099429321" lon="12.749670949776329"><ele>814.0</ele><time>2026-04-18T10:42:46.001Z</time></trkpt><trkpt lat="42.383637852380936" lon="12.749576051361501"><ele>814.0</ele><time>2026-04-18T10:42:47.001Z</time></trkpt><trkpt lat="42.383626618341495" lon="12.749471146890567"><ele>814.0000000000001</ele><time>2026-04-18T10:42:48.001Z</time></trkpt><trkpt lat="42.383623022854614" lon="12.74938403327697"><ele>814.0</ele><time>2026-04-18T10:42:49.001Z</time></trkpt><trkpt lat="42.3835864566012" lon="12.749280991790465"><ele>816.8333333333333</ele><time>2026-04-18T10:42:50.001Z</time></trkpt><trkpt lat="42.38352211278351" lon="12.749191906690859"><ele>819.6666666666666</ele><time>2026-04-18T10:42:51.001Z</time></trkpt><trkpt lat="42.38345111343716" lon="12.749142240598815"><ele>822.5</ele><time>2026-04-18T10:42:52.001Z</time></trkpt><trkpt lat="42.38341884060623" lon="12.749068065051416"><ele>825.3333333333333</ele><time>2026-04-18T10:42:53Z</time></trkpt><trkpt lat="42.38336172296667" lon="12.748917295964114"><ele>828.1666666666666</ele><time>2026-04-18T10:42:55Z</time></trkpt><trkpt lat="42.38332314749045" lon="12.748813050743939"><ele>831.0</ele><time>2026-04-18T10:42:56Z</time></trkpt><trkpt lat="42.383315544247544" lon="12.748696930518902"><ele>831.0</ele><time>2026-04-18T10:42:57Z</time></trkpt><trkpt lat="42.38330204791031" lon="12.748575672409471"><ele>831.0</ele><time>2026-04-18T10:42:58Z</time></trkpt><trkpt lat="42.383258364470734" lon="12.748459422697865"><ele>831.0</ele><time>2026-04-18T10:42:59Z</time></trkpt><trkpt lat="42.383213320897504" lon="12.748365478701883"><ele>831.0</ele><time>2026-04-18T10:43:00Z</time></trkpt><trkpt lat="42.383164474890705" lon="12.748270319892951"><ele>831.0</ele><time>2026-04-18T10:43:01Z</time></trkpt><trkpt lat="42.38312281279913" lon="12.748191585111996"><ele>831.0</ele><time>2026-04-18T10:43:02Z</time></trkpt><trkpt lat="42.38308557602395" lon="12.748121565924572"><ele>833.3333333333334</ele><time>2026-04-18T10:43:03Z</time></trkpt><trkpt lat="42.38305172907769" lon="12.748042950821965"><ele>835.6666666666667</ele><time>2026-04-18T10:43:05Z</time></trkpt><trkpt lat="42.383070286374895" lon="12.747924152959666"><ele>838.0</ele><time>2026-04-18T10:43:12Z</time></trkpt><trkpt lat="42.38309171142022" lon="12.747839636269378"><ele>840.3333333333334</ele><time>2026-04-18T10:43:13Z</time></trkpt><trkpt lat="42.383130910573875" lon="12.747758353105326"><ele>842.6666666666667</ele><time>2026-04-18T10:43:14Z</time></trkpt><trkpt lat="42.38317254233682" lon="12.747654702617515"><ele>845.0</ele><time>2026-04-18T10:43:15Z</time></trkpt><trkpt lat="42.38320654936828" lon="12.747565979781479"><ele>846.1428571428571</ele><time>2026-04-18T10:43:16Z</time></trkpt><trkpt lat="42.38325412458989" lon="12.7474931952263"><ele>847.2857142857142</ele><time>2026-04-18T10:43:17Z</time></trkpt><trkpt lat="42.38330535246731" lon="12.747424465858998"><ele>848.4285714285713</ele><time>2026-04-18T10:43:18Z</time></trkpt><trkpt lat="42.38335680591461" lon="12.747364219122558"><ele>849.5714285714286</ele><time>2026-04-18T10:43:19Z</time></trkpt><trkpt lat="42.383408041090775" lon="12.74730704111911"><ele>850.7142857142858</ele><time>2026-04-18T10:43:20Z</time></trkpt><trkpt lat="42.38346407316823" lon="12.747234015175637"><ele>851.8571428571428</ele><time>2026-04-18T10:43:21Z</time></trkpt><trkpt lat="42.38351464871524" lon="12.747152197429173"><ele>853.0</ele><time>2026-04-18T10:43:22Z</time></trkpt><trkpt lat="42.383556602644994" lon="12.747049922209058"><ele>853.0</ele><time>2026-04-18T10:43:23Z</time></trkpt><trkpt lat="42.38363410685256" lon="12.74688578694982"><ele>853.0</ele><time>2026-04-18T10:43:25Z</time></trkpt><trkpt lat="42.383684349720724" lon="12.74681277803308"><ele>853.0</ele><time>2026-04-18T10:43:26Z</time></trkpt><trkpt lat="42.38371269680651" lon="12.746731556275341"><ele>853.0</ele><time>2026-04-18T10:43:27Z</time></trkpt><trkpt lat="42.38372088745003" lon="12.746635305797401"><ele>853.0</ele><time>2026-04-18T10:43:28Z</time></trkpt><trkpt lat="42.38369846555671" lon="12.746507130675065"><ele>854.7142857142857</ele><time>2026-04-18T10:43:30Z</time></trkpt><trkpt lat="42.383636603352564" lon="12.746478343280302"><ele>856.4285714285714</ele><time>2026-04-18T10:43:31Z</time></trkpt><trkpt lat="42.383544151018754" lon="12.746503417890853"><ele>858.1428571428571</ele><time>2026-04-18T10:43:32Z</time></trkpt><trkpt lat="42.38347525755629" lon="12.746497111110303"><ele>859.8571428571429</ele><time>2026-04-18T10:43:33Z</time></trkpt><trkpt lat="42.383480104536694" lon="12.74640858249169"><ele>861.5714285714287</ele><time>2026-04-18T10:43:36Z</time></trkpt><trkpt lat="42.38355086720694" lon="12.74634188968868"><ele>863.2857142857143</ele><time>2026-04-18T10:43:38Z</time></trkpt><trkpt lat="42.383595272874494" lon="12.746279601140415"><ele>865.0</ele><time>2026-04-18T10:43:39Z</time></trkpt><trkpt lat="42.383652194608516" lon="12.746217880567007"><ele>865.0</ele><time>2026-04-18T10:43:40Z</time></trkpt><trkpt lat="42.38375606814337" lon="12.746118600724287"><ele>865.0</ele><time>2026-04-18T10:43:42Z</time></trkpt><trkpt lat="42.3838234434166" lon="12.74608220611909"><ele>865.0</ele><time>2026-04-18T10:43:43Z</time></trkpt><trkpt lat="42.383929639975086" lon="12.746018376400732"><ele>865.0</ele><time>2026-04-18T10:43:45Z</time></trkpt><trkpt lat="42.38398322834753" lon="12.74606556462955"><ele>865.0</ele><time>2026-04-18T10:43:47Z</time></trkpt><trkpt lat="42.38400982312322" lon="12.746250083111207"><ele>867.3333333333333</ele><time>2026-04-18T10:43:49Z</time></trkpt><trkpt lat="42.38402607413638" lon="12.74639387782676"><ele>869.6666666666666</ele><time>2026-04-18T10:43:50Z</time></trkpt><trkpt lat="42.38406437041867" lon="12.746523632212345"><ele>872.0</ele><time>2026-04-18T10:43:51Z</time></trkpt><trkpt lat="42.38409722765054" lon="12.7466330801999"><ele>874.3333333333333</ele><time>2026-04-18T10:43:52Z</time></trkpt><trkpt lat="42.38413822809954" lon="12.746713943389262"><ele>876.6666666666666</ele><time>2026-04-18T10:43:53Z</time></trkpt><trkpt lat="42.38420024189513" lon="12.746780311587727"><ele>879.0</ele><time>2026-04-18T10:43:54Z</time></trkpt><trkpt lat="42.3842686062289" lon="12.746812670791629"><ele>879.0</ele><time>2026-04-18T10:43:55Z</time></trkpt><trkpt lat="42.384346655354314" lon="12.74680185304223"><ele>879.0</ele><time>2026-04-18T10:43:56Z</time></trkpt><trkpt lat="42.38441128297232" lon="12.746747767238602"><ele>879.0</ele><time>2026-04-18T10:43:57Z</time></trkpt><trkpt lat="42.384488715265" lon="12.746646625869838"><ele>879.0</ele><time>2026-04-18T10:43:58Z</time></trkpt><trkpt lat="42.384576713877806" lon="12.74662712960175"><ele>879.0</ele><time>2026-04-18T10:43:59Z</time></trkpt><trkpt lat="42.38463932112262" lon="12.74661519203018"><ele>879.0</ele><time>2026-04-18T10:44:00Z</time></trkpt><trkpt lat="42.38473146410288" lon="12.746629531001604"><ele>882.2</ele><time>2026-04-18T10:44:01Z</time></trkpt><trkpt lat="42.38482879293092" lon="12.746614949760655"><ele>885.4000000000001</ele><time>2026-04-18T10:44:03Z</time></trkpt><trkpt lat="42.38483276746132" lon="12.746477861776528"><ele>888.6</ele><time>2026-04-18T10:44:05Z</time></trkpt><trkpt lat="42.38484627856802" lon="12.746337968617537"><ele>891.8</ele><time>2026-04-18T10:44:07Z</time></trkpt><trkpt lat="42.38484174586154" lon="12.746241451151223"><ele>895.0</ele><time>2026-04-18T10:44:08Z</time></trkpt><trkpt lat="42.38484007103053" lon="12.74610060764769"><ele>897.2</ele><time>2026-04-18T10:44:10Z</time></trkpt><trkpt lat="42.38484490560528" lon="12.746010516617403"><ele>899.4</ele><time>2026-04-18T10:44:11Z</time></trkpt><trkpt lat="42.384818152164236" lon="12.745921315105429"><ele>901.5999999999999</ele><time>2026-04-18T10:44:12Z</time></trkpt><trkpt lat="42.38481639648813" lon="12.745757813603845"><ele>903.8</ele><time>2026-04-18T10:44:14Z</time></trkpt><trkpt lat="42.38481830186858" lon="12.745659170865162"><ele>906.0</ele><time>2026-04-18T10:44:15Z</time></trkpt><trkpt lat="42.384840347533355" lon="12.745487914841611"><ele>906.0</ele><time>2026-04-18T10:44:17Z</time></trkpt><trkpt lat="42.38483404005384" lon="12.745369299533166"><ele>906.0</ele><time>2026-04-18T10:44:18Z</time></trkpt><trkpt lat="42.38482908324094" lon="12.745282238749182"><ele>906.0</ele><time>2026-04-18T10:44:19Z</time></trkpt><trkpt lat="42.38481663671012" lon="12.745189828394627"><ele>906.0</ele><time>2026-04-18T10:44:21Z</time></trkpt><trkpt lat="42.38482260387414" lon="12.745048098851022"><ele>906.0</ele><time>2026-04-18T10:44:23Z</time></trkpt><trkpt lat="42.384833361745976" lon="12.74490479774668"><ele>906.0</ele><time>2026-04-18T10:44:25Z</time></trkpt><trkpt lat="42.38481715953898" lon="12.744752182758683"><ele>908.1999999999999</ele><time>2026-04-18T10:44:27Z</time></trkpt><trkpt lat="42.38478151507756" lon="12.74462658883772"><ele>910.3999999999999</ele><time>2026-04-18T10:44:29Z</time></trkpt><trkpt lat="42.38476476686809" lon="12.744498221728543"><ele>912.6</ele><time>2026-04-18T10:44:31Z</time></trkpt><trkpt lat="42.38476162653668" lon="12.744351877421641"><ele>914.8</ele><time>2026-04-18T10:44:33Z</time></trkpt><trkpt lat="42.384762904065404" lon="12.744199933088352"><ele>917.0</ele><time>2026-04-18T10:44:35Z</time></trkpt><trkpt lat="42.38485119877173" lon="12.744114358770142"><ele>916.2</ele><time>2026-04-18T10:44:37Z</time></trkpt><trkpt lat="42.38491240902733" lon="12.744001537396313"><ele>915.4000000000001</ele><time>2026-04-18T10:44:39Z</time></trkpt><trkpt lat="42.38496532281628" lon="12.743894115376648"><ele>914.5999999999999</ele><time>2026-04-18T10:44:40Z</time></trkpt><trkpt lat="42.385012165228254" lon="12.743776759683564"><ele>913.8</ele><time>2026-04-18T10:44:41Z</time></trkpt><trkpt lat="42.38506683125691" lon="12.743662454004411"><ele>913.0</ele><time>2026-04-18T10:44:42Z</time></trkpt><trkpt lat="42.3851037838368" lon="12.74352962544535"><ele>912.9999999999999</ele><time>2026-04-18T10:44:43Z</time></trkpt><trkpt lat="42.38517632000316" lon="12.743410937473438"><ele>913.0</ele><time>2026-04-18T10:44:44Z</time></trkpt><trkpt lat="42.38523745741656" lon="12.743283984172667"><ele>913.0</ele><time>2026-04-18T10:44:45Z</time></trkpt><trkpt lat="42.38528404829038" lon="12.743189942953695"><ele>913.0</ele><time>2026-04-18T10:44:46Z</time></trkpt><trkpt lat="42.38531947126531" lon="12.743118443578746"><ele>912.9999999999999</ele><time>2026-04-18T10:44:47Z</time></trkpt><trkpt lat="42.38535684037867" lon="12.743048115249328"><ele>913.0</ele><time>2026-04-18T10:44:48Z</time></trkpt><trkpt lat="42.38539548533271" lon="12.742960680760511"><ele>913.0</ele><time>2026-04-18T10:44:49Z</time></trkpt><trkpt lat="42.3854527727333" lon="12.742893741156335"><ele>913.0</ele><time>2026-04-18T10:44:50Z</time></trkpt><trkpt lat="42.38553763368394" lon="12.742845901373622"><ele>913.0</ele><time>2026-04-18T10:44:51Z</time></trkpt><trkpt lat="42.385622830928874" lon="12.742775076052892"><ele>913.0</ele><time>2026-04-18T10:44:52Z</time></trkpt><trkpt lat="42.38570428842062" lon="12.742698048705448"><ele>913.0</ele><time>2026-04-18T10:44:53Z</time></trkpt><trkpt lat="42.38577965676862" lon="12.742632790161817"><ele>914.3333333333333</ele><time>2026-04-18T10:44:54Z</time></trkpt><trkpt lat="42.38584158113318" lon="12.742580116207076"><ele>915.6666666666666</ele><time>2026-04-18T10:44:55Z</time></trkpt><trkpt lat="42.38593868063556" lon="12.742484887761394"><ele>917.0</ele><time>2026-04-18T10:44:57Z</time></trkpt><trkpt lat="42.3859961733111" lon="12.74242538481407"><ele>918.3333333333333</ele><time>2026-04-18T10:44:58Z</time></trkpt><trkpt lat="42.386049629246756" lon="12.742372217978577"><ele>919.6666666666666</ele><time>2026-04-18T10:44:59Z</time></trkpt><trkpt lat="42.38614840764631" lon="12.742288752347203"><ele>921.0</ele><time>2026-04-18T10:45:01Z</time></trkpt><trkpt lat="42.386201441001084" lon="12.742242313767656"><ele>921.0</ele><time>2026-04-18T10:45:02Z</time></trkpt><trkpt lat="42.38627669869123" lon="12.742174349961566"><ele>921.0</ele><time>2026-04-18T10:45:04Z</time></trkpt><trkpt lat="42.386338161028874" lon="12.74212528961122"><ele>921.0</ele><time>2026-04-18T10:45:15Z</time></trkpt><trkpt lat="42.38642502034489" lon="12.742058559189346"><ele>921.0</ele><time>2026-04-18T10:45:17Z</time></trkpt><trkpt lat="42.386488407376014" lon="12.742010111150169"><ele>921.0</ele><time>2026-04-18T10:45:18Z</time></trkpt><trkpt lat="42.386558210396466" lon="12.74195673620506"><ele>921.0</ele><time>2026-04-18T10:45:19Z</time></trkpt><trkpt lat="42.38663172128006" lon="12.741897404686764"><ele>920.3333333333334</ele><time>2026-04-18T10:45:20Z</time></trkpt><trkpt lat="42.386701463559895" lon="12.741843818983853"><ele>919.6666666666667</ele><time>2026-04-18T10:45:21Z</time></trkpt><trkpt lat="42.38677050441784" lon="12.741800506128866"><ele>919.0</ele><time>2026-04-18T10:45:22Z</time></trkpt><trkpt lat="42.38684568333437" lon="12.741776647556408"><ele>918.3333333333334</ele><time>2026-04-18T10:45:23Z</time></trkpt><trkpt lat="42.38692534523708" lon="12.741785988935307"><ele>917.6666666666667</ele><time>2026-04-18T10:45:24Z</time></trkpt><trkpt lat="42.38699352093701" lon="12.741769749835667"><ele>917.0</ele><time>2026-04-18T10:45:25Z</time></trkpt><trkpt lat="42.38707301462092" lon="12.741794362115321"><ele>917.0000000000001</ele><time>2026-04-18T10:45:26Z</time></trkpt><trkpt lat="42.387156726819185" lon="12.74178962398064"><ele>917.0</ele><time>2026-04-18T10:45:27Z</time></trkpt><trkpt lat="42.38723800434374" lon="12.741750818312362"><ele>917.0</ele><time>2026-04-18T10:45:28Z</time></trkpt><trkpt lat="42.387332555720334" lon="12.74171921020233"><ele>917.0</ele><time>2026-04-18T10:45:29Z</time></trkpt><trkpt lat="42.38740893311537" lon="12.741675725415158"><ele>917.0000000000001</ele><time>2026-04-18T10:45:30Z</time></trkpt><trkpt lat="42.38749051049689" lon="12.741620218975635"><ele>917.0</ele><time>2026-04-18T10:45:31Z</time></trkpt><trkpt lat="42.38758143232447" lon="12.741572813662305"><ele>918.8333333333334</ele><time>2026-04-18T10:45:32Z</time></trkpt><trkpt lat="42.38767013479195" lon="12.741521001801337"><ele>920.6666666666667</ele><time>2026-04-18T10:45:33Z</time></trkpt><trkpt lat="42.38773747308879" lon="12.741453152583123"><ele>922.5</ele><time>2026-04-18T10:45:34Z</time></trkpt><trkpt lat="42.38778978772951" lon="12.741373013439858"><ele>924.3333333333333</ele><time>2026-04-18T10:45:35Z</time></trkpt><trkpt lat="42.3878226115912" lon="12.741280192889711"><ele>926.1666666666666</ele><time>2026-04-18T10:45:36Z</time></trkpt><trkpt lat="42.38784410400003" lon="12.741186641874398"><ele>928.0</ele><time>2026-04-18T10:45:37Z</time></trkpt><trkpt lat="42.3878780332517" lon="12.741091827955614"><ele>929.3333333333333</ele><time>2026-04-18T10:45:38Z</time></trkpt><trkpt lat="42.38791156138218" lon="12.74100764640882"><ele>930.6666666666666</ele><time>2026-04-18T10:45:39Z</time></trkpt><trkpt lat="42.3879475364587" lon="12.740926729278458"><ele>932.0</ele><time>2026-04-18T10:45:40Z</time></trkpt><trkpt lat="42.38800965702177" lon="12.740866065996132"><ele>933.3333333333333</ele><time>2026-04-18T10:45:41Z</time></trkpt><trkpt lat="42.38805681200287" lon="12.740803295629163"><ele>934.6666666666666</ele><time>2026-04-18T10:45:42Z</time></trkpt><trkpt lat="42.388141242758884" lon="12.740794200430114"><ele>936.0</ele><time>2026-04-18T10:45:43Z</time></trkpt><trkpt lat="42.38822973621357" lon="12.740764608931443"><ele>936.0</ele><time>2026-04-18T10:45:44Z</time></trkpt><trkpt lat="42.388319522203844" lon="12.740732798865897"><ele>935.9999999999999</ele><time>2026-04-18T10:45:45Z</time></trkpt><trkpt lat="42.3884068088738" lon="12.740684088020034"><ele>935.9999999999999</ele><time>2026-04-18T10:45:46Z</time></trkpt><trkpt lat="42.388497546411486" lon="12.740667028023902"><ele>936.0</ele><time>2026-04-18T10:45:47Z</time></trkpt><trkpt lat="42.388587284207716" lon="12.74064451603863"><ele>936.0</ele><time>2026-04-18T10:45:48Z</time></trkpt><trkpt lat="42.38866190100773" lon="12.74060539782228"><ele>936.0</ele><time>2026-04-18T10:45:49Z</time></trkpt><trkpt lat="42.38871923638174" lon="12.740541293094827"><ele>936.0000000000001</ele><time>2026-04-18T10:45:50Z</time></trkpt><trkpt lat="42.38875348852339" lon="12.740456389300189"><ele>936.0</ele><time>2026-04-18T10:45:51Z</time></trkpt><trkpt lat="42.388769154123175" lon="12.740355826296545"><ele>936.0</ele><time>2026-04-18T10:45:52Z</time></trkpt><trkpt lat="42.38877406123416" lon="12.740263887267892"><ele>936.0000000000001</ele><time>2026-04-18T10:45:53Z</time></trkpt><trkpt lat="42.3887751576642" lon="12.740168377453054"><ele>936.0</ele><time>2026-04-18T10:45:54Z</time></trkpt><trkpt lat="42.38877349656197" lon="12.740075937140523"><ele>936.0</ele><time>2026-04-18T10:45:55Z</time></trkpt><trkpt lat="42.388760276024115" lon="12.739976699244572"><ele>935.5</ele><time>2026-04-18T10:45:56Z</time></trkpt><trkpt lat="42.388755449103215" lon="12.739842078353927"><ele>935.0</ele><time>2026-04-18T10:45:58Z</time></trkpt><trkpt lat="42.38874246155565" lon="12.739750365424502"><ele>934.5</ele><time>2026-04-18T10:46:01Z</time></trkpt><trkpt lat="42.38876373334695" lon="12.73997186906775"><ele>934.0</ele><time>2026-04-18T10:46:59Z</time></trkpt><trkpt lat="42.38877303242505" lon="12.740130785731038"><ele>934.3333333333333</ele><time>2026-04-18T10:47:01Z</time></trkpt><trkpt lat="42.388766722636404" lon="12.740242455178155"><ele>934.6666666666666</ele><time>2026-04-18T10:47:02Z</time></trkpt><trkpt lat="42.388769237050326" lon="12.740347142881939"><ele>935.0</ele><time>2026-04-18T10:47:03Z</time></trkpt><trkpt lat="42.38874290701497" lon="12.740504801281558"><ele>935.3333333333333</ele><time>2026-04-18T10:47:05Z</time></trkpt><trkpt lat="42.38869727831691" lon="12.74056555278723"><ele>935.6666666666666</ele><time>2026-04-18T10:47:06Z</time></trkpt><trkpt lat="42.38862053407752" lon="12.740629975571364"><ele>936.0</ele><time>2026-04-18T10:47:07Z</time></trkpt><trkpt lat="42.388515709575344" lon="12.74066980015873"><ele>936.0</ele><time>2026-04-18T10:47:08Z</time></trkpt><trkpt lat="42.388427732107445" lon="12.740690937227257"><ele>936.0</ele><time>2026-04-18T10:47:09Z</time></trkpt><trkpt lat="42.38834404253702" lon="12.74067796039282"><ele>936.0</ele><time>2026-04-18T10:47:11Z</time></trkpt><trkpt lat="42.388365236928166" lon="12.740765920653983"><ele>936.0</ele><time>2026-04-18T10:47:15Z</time></trkpt><trkpt lat="42.388474315988944" lon="12.740674322881118"><ele>936.0</ele><time>2026-04-18T10:47:18Z</time></trkpt><trkpt lat="42.38854673702263" lon="12.740634327798455"><ele>936.0</ele><time>2026-04-18T10:47:19Z</time></trkpt><trkpt lat="42.38864351670307" lon="12.740611339500152"><ele>936.0</ele><time>2026-04-18T10:47:20Z</time></trkpt><trkpt lat="42.38872733872425" lon="12.740566762015138"><ele>936.0</ele><time>2026-04-18T10:47:21Z</time></trkpt><trkpt lat="42.38876436073266" lon="12.740497099478628"><ele>936.0</ele><time>2026-04-18T10:47:22Z</time></trkpt><trkpt lat="42.388777851514156" lon="12.740400466268461"><ele>936.0</ele><time>2026-04-18T10:47:23Z</time></trkpt><trkpt lat="42.38876991190163" lon="12.740268227017399"><ele>936.0</ele><time>2026-04-18T10:47:24Z</time></trkpt><trkpt lat="42.38875074147373" lon="12.740113617177027"><ele>936.0</ele><time>2026-04-18T10:47:25Z</time></trkpt><trkpt lat="42.38875770835646" lon="12.739953728534518"><ele>935.6666666666666</ele><time>2026-04-18T10:47:26Z</time></trkpt><trkpt lat="42.38875368096146" lon="12.739849292386737"><ele>935.3333333333333</ele><time>2026-04-18T10:47:27Z</time></trkpt><trkpt lat="42.38875999809742" lon="12.739731431867918"><ele>935.0</ele><time>2026-04-18T10:47:29Z</time></trkpt><trkpt lat="42.38872763910535" lon="12.739821684542932"><ele>934.6666666666666</ele><time>2026-04-18T10:47:46Z</time></trkpt><trkpt lat="42.388757996739145" lon="12.739929916018566"><ele>934.3333333333333</ele><time>2026-04-18T10:47:48Z</time></trkpt><trkpt lat="42.3887649783702" lon="12.740023162769498"><ele>934.0</ele><time>2026-04-18T10:47:49Z</time></trkpt><trkpt lat="42.38876882141376" lon="12.74015814464211"><ele>934.4000000000001</ele><time>2026-04-18T10:47:50Z</time></trkpt><trkpt lat="42.38874054695767" lon="12.740273551655164"><ele>934.8000000000001</ele><time>2026-04-18T10:47:51Z</time></trkpt><trkpt lat="42.38873250916" lon="12.740382956737458"><ele>935.1999999999999</ele><time>2026-04-18T10:47:52Z</time></trkpt><trkpt lat="42.388706121529104" lon="12.740493497651842"><ele>935.5999999999999</ele><time>2026-04-18T10:47:56Z</time></trkpt><trkpt lat="42.38861064239382" lon="12.740606296483707"><ele>936.0</ele><time>2026-04-18T10:47:58Z</time></trkpt><trkpt lat="42.388485725589426" lon="12.740638452147747"><ele>936.0</ele><time>2026-04-18T10:48:00Z</time></trkpt><trkpt lat="42.388369452376004" lon="12.74067005081603"><ele>935.9999999999999</ele><time>2026-04-18T10:48:02Z</time></trkpt><trkpt lat="42.388463393945734" lon="12.740644262627107"><ele>935.9999999999999</ele><time>2026-04-18T10:48:10Z</time></trkpt><trkpt lat="42.38853171906234" lon="12.740646025945615"><ele>936.0</ele><time>2026-04-18T10:48:11Z</time></trkpt><trkpt lat="42.388620211462694" lon="12.74061931281515"><ele>936.0</ele><time>2026-04-18T10:48:12Z</time></trkpt><trkpt lat="42.38870319080183" lon="12.740564667362232"><ele>936.0</ele><time>2026-04-18T10:48:13Z</time></trkpt><trkpt lat="42.388751180267164" lon="12.740483855355208"><ele>936.0</ele><time>2026-04-18T10:48:14Z</time></trkpt><trkpt lat="42.38876964335083" lon="12.740387717870359"><ele>936.0</ele><time>2026-04-18T10:48:15Z</time></trkpt><trkpt lat="42.38876741348371" lon="12.740280723101487"><ele>936.0</ele><time>2026-04-18T10:48:16Z</time></trkpt><trkpt lat="42.38875697676598" lon="12.740158768208634"><ele>936.0</ele><time>2026-04-18T10:48:17Z</time></trkpt><trkpt lat="42.388754203080886" lon="12.740044951240128"><ele>936.0</ele><time>2026-04-18T10:48:18Z</time></trkpt><trkpt lat="42.388760904804876" lon="12.739955596376042"><ele>935.6666666666666</ele><time>2026-04-18T10:48:19Z</time></trkpt><trkpt lat="42.38873711947067" lon="12.739862921447116"><ele>935.3333333333333</ele><time>2026-04-18T10:48:20Z</time></trkpt><trkpt lat="42.38876296863035" lon="12.73978370447788"><ele>935.0</ele><time>2026-04-18T10:48:21Z</time></trkpt><trkpt lat="42.38872041525114" lon="12.739717561612299"><ele>934.6666666666666</ele><time>2026-04-18T10:51:07Z</time></trkpt><trkpt lat="42.38860280402223" lon="12.73967413202226"><ele>934.3333333333333</ele><time>2026-04-18T10:51:09.001Z</time></trkpt><trkpt lat="42.38850391397277" lon="12.739617742732172"><ele>934.0</ele><time>2026-04-18T10:51:11.001Z</time></trkpt><trkpt lat="42.3884080639918" lon="12.73952123890433"><ele>933.9999999999999</ele><time>2026-04-18T10:51:13.001Z</time></trkpt><trkpt lat="42.38837069272177" lon="12.739431214435566"><ele>934.0</ele><time>2026-04-18T10:51:14.001Z</time></trkpt><trkpt lat="42.388329090217965" lon="12.739320241984982"><ele>934.0</ele><time>2026-04-18T10:51:15.001Z</time></trkpt><trkpt lat="42.38828387834185" lon="12.739216900569193"><ele>934.0</ele><time>2026-04-18T10:51:16.001Z</time></trkpt><trkpt lat="42.3882328780964" lon="12.739127482830156"><ele>933.9999999999999</ele><time>2026-04-18T10:51:17.001Z</time></trkpt><trkpt lat="42.38817560397862" lon="12.73905499076186"><ele>934.0</ele><time>2026-04-18T10:51:18.001Z</time></trkpt><trkpt lat="42.38813151151384" lon="12.73898249084683"><ele>935.4999999999999</ele><time>2026-04-18T10:51:19.001Z</time></trkpt><trkpt lat="42.388091333684216" lon="12.738894616997403"><ele>937.0</ele><time>2026-04-18T10:51:20.001Z</time></trkpt><trkpt lat="42.38807121267521" lon="12.738788385485037"><ele>938.5</ele><time>2026-04-18T10:51:21.001Z</time></trkpt><trkpt lat="42.3880391832774" lon="12.738682803494441"><ele>940.0</ele><time>2026-04-18T10:51:22.001Z</time></trkpt><trkpt lat="42.38800122959223" lon="12.738583488950844"><ele>941.4999999999999</ele><time>2026-04-18T10:51:23.001Z</time></trkpt><trkpt lat="42.387950455517704" lon="12.738487023012592"><ele>943.0</ele><time>2026-04-18T10:51:24Z</time></trkpt><trkpt lat="42.38789211376879" lon="12.738414920986513"><ele>948.0</ele><time>2026-04-18T10:51:25Z</time></trkpt><trkpt lat="42.38782725932565" lon="12.738335561862375"><ele>953.0</ele><time>2026-04-18T10:51:26Z</time></trkpt><trkpt lat="42.38775906013375" lon="12.738230096008397"><ele>958.0</ele><time>2026-04-18T10:51:27Z</time></trkpt><trkpt lat="42.38771189298588" lon="12.738142894971329"><ele>963.0</ele><time>2026-04-18T10:51:28Z</time></trkpt><trkpt lat="42.38767822506133" lon="12.737998146043097"><ele>968.0</ele><time>2026-04-18T10:51:29Z</time></trkpt><trkpt lat="42.38764669452979" lon="12.737836491642199"><ele>969.25</ele><time>2026-04-18T10:51:30Z</time></trkpt><trkpt lat="42.38761535791756" lon="12.737714661683276"><ele>970.5</ele><time>2026-04-18T10:51:31Z</time></trkpt><trkpt lat="42.38757773497497" lon="12.737570594470736"><ele>971.75</ele><time>2026-04-18T10:51:32Z</time></trkpt><trkpt lat="42.3875515230759" lon="12.737397509638729"><ele>973.0</ele><time>2026-04-18T10:51:33Z</time></trkpt><trkpt lat="42.3875130913943" lon="12.73722191731166"><ele>973.0</ele><time>2026-04-18T10:51:34Z</time></trkpt><trkpt lat="42.38748835154831" lon="12.737112345952896"><ele>973.0</ele><time>2026-04-18T10:51:35Z</time></trkpt><trkpt lat="42.38744676607884" lon="12.736972633252883"><ele>973.0</ele><time>2026-04-18T10:51:36Z</time></trkpt><trkpt lat="42.38745361369267" lon="12.736769904107948"><ele>973.0</ele><time>2026-04-18T10:51:37Z</time></trkpt><trkpt lat="42.387426657165136" lon="12.736607514155647"><ele>972.5999999999999</ele><time>2026-04-18T10:51:38Z</time></trkpt><trkpt lat="42.38740249787148" lon="12.736449753478222"><ele>972.1999999999999</ele><time>2026-04-18T10:51:39Z</time></trkpt><trkpt lat="42.38740921549866" lon="12.736322322976493"><ele>971.8</ele><time>2026-04-18T10:51:40Z</time></trkpt><trkpt lat="42.387382940886404" lon="12.736186406894326"><ele>971.4</ele><time>2026-04-18T10:51:41Z</time></trkpt><trkpt lat="42.387373324436936" lon="12.736049268164304"><ele>971.0</ele><time>2026-04-18T10:51:42Z</time></trkpt><trkpt lat="42.38734002145242" lon="12.73591802335211"><ele>971.0</ele><time>2026-04-18T10:51:43Z</time></trkpt><trkpt lat="42.387290002392774" lon="12.73572358989123"><ele>971.0</ele><time>2026-04-18T10:51:44Z</time></trkpt><trkpt lat="42.38725134365063" lon="12.73556066651391"><ele>971.0</ele><time>2026-04-18T10:51:45Z</time></trkpt><trkpt lat="42.38720611743629" lon="12.735395588091809"><ele>971.0</ele><time>2026-04-18T10:51:46Z</time></trkpt><trkpt lat="42.38718934137825" lon="12.735277657525069"><ele>971.75</ele><time>2026-04-18T10:51:47Z</time></trkpt><trkpt lat="42.387177252317734" lon="12.735166856512816"><ele>972.5</ele><time>2026-04-18T10:51:48Z</time></trkpt><trkpt lat="42.387158267219746" lon="12.735004610443589"><ele>973.25</ele><time>2026-04-18T10:51:49Z</time></trkpt><trkpt lat="42.38717777616629" lon="12.734827979255815"><ele>974.0</ele><time>2026-04-18T10:51:50Z</time></trkpt><trkpt lat="42.38719707658772" lon="12.734641287634448"><ele>974.0</ele><time>2026-04-18T10:51:51Z</time></trkpt><trkpt lat="42.38722492502057" lon="12.734484598734287"><ele>974.0</ele><time>2026-04-18T10:51:52Z</time></trkpt><trkpt lat="42.387237518931464" lon="12.734337361479616"><ele>974.0</ele><time>2026-04-18T10:51:53Z</time></trkpt><trkpt lat="42.3872530961324" lon="12.734201526594536"><ele>974.0</ele><time>2026-04-18T10:51:54Z</time></trkpt><trkpt lat="42.38726040236586" lon="12.734029453461126"><ele>976.0</ele><time>2026-04-18T10:51:55Z</time></trkpt><trkpt lat="42.38728987209025" lon="12.733852187672186"><ele>978.0000000000001</ele><time>2026-04-18T10:51:56Z</time></trkpt><trkpt lat="42.38730220708877" lon="12.733733769283448"><ele>980.0000000000001</ele><time>2026-04-18T10:51:57Z</time></trkpt><trkpt lat="42.38729420212691" lon="12.73361514445123"><ele>982.0</ele><time>2026-04-18T10:51:58Z</time></trkpt><trkpt lat="42.3872989324758" lon="12.733495978729644"><ele>984.0</ele><time>2026-04-18T10:51:59Z</time></trkpt><trkpt lat="42.38733034129126" lon="12.733355501958515"><ele>986.25</ele><time>2026-04-18T10:52:00Z</time></trkpt><trkpt lat="42.38739155156399" lon="12.733228406665795"><ele>988.5</ele><time>2026-04-18T10:52:01Z</time></trkpt><trkpt lat="42.387449085310095" lon="12.733087052859025"><ele>990.75</ele><time>2026-04-18T10:52:02Z</time></trkpt><trkpt lat="42.38751372395444" lon="12.732940589327995"><ele>993.0</ele><time>2026-04-18T10:52:03Z</time></trkpt><trkpt lat="42.38755539039175" lon="12.732803969970329"><ele>993.75</ele><time>2026-04-18T10:52:04Z</time></trkpt><trkpt lat="42.38755659716602" lon="12.73265073397005"><ele>994.5</ele><time>2026-04-18T10:52:05Z</time></trkpt><trkpt lat="42.38754492687347" lon="12.732493889496787"><ele>995.25</ele><time>2026-04-18T10:52:06Z</time></trkpt><trkpt lat="42.38752982427687" lon="12.73232250171436"><ele>996.0</ele><time>2026-04-18T10:52:07Z</time></trkpt><trkpt lat="42.38753344692943" lon="12.732106253109356"><ele>996.0</ele><time>2026-04-18T10:52:08Z</time></trkpt><trkpt lat="42.387520148349736" lon="12.731933897098672"><ele>996.0</ele><time>2026-04-18T10:52:09Z</time></trkpt><trkpt lat="42.38748962980605" lon="12.731791777589423"><ele>996.0</ele><time>2026-04-18T10:52:10Z</time></trkpt><trkpt lat="42.38745384636915" lon="12.731651717676934"><ele>996.0</ele><time>2026-04-18T10:52:11Z</time></trkpt><trkpt lat="42.387402325815664" lon="12.731483878877714"><ele>996.5</ele><time>2026-04-18T10:52:12Z</time></trkpt><trkpt lat="42.38731722703301" lon="12.731342592936363"><ele>997.0</ele><time>2026-04-18T10:52:13Z</time></trkpt><trkpt lat="42.387220244240375" lon="12.731239016725068"><ele>997.5</ele><time>2026-04-18T10:52:14Z</time></trkpt><trkpt lat="42.38714380184895" lon="12.731095961355024"><ele>998.0</ele><time>2026-04-18T10:52:15Z</time></trkpt><trkpt lat="42.3870201223829" lon="12.730982265946599"><ele>1000.75</ele><time>2026-04-18T10:52:16Z</time></trkpt><trkpt lat="42.38691501441523" lon="12.730887883041135"><ele>1003.5</ele><time>2026-04-18T10:52:17Z</time></trkpt><trkpt lat="42.38682354595749" lon="12.730777591193826"><ele>1006.25</ele><time>2026-04-18T10:52:18Z</time></trkpt><trkpt lat="42.38673009437514" lon="12.730658010548906"><ele>1009.0</ele><time>2026-04-18T10:52:19Z</time></trkpt><trkpt lat="42.3866213480813" lon="12.73052927722841"><ele>1009.0</ele><time>2026-04-18T10:52:20Z</time></trkpt><trkpt lat="42.38655322596552" lon="12.73038361022595"><ele>1009.0000000000001</ele><time>2026-04-18T10:52:21Z</time></trkpt><trkpt lat="42.38649466045124" lon="12.73027283364199"><ele>1009.0000000000001</ele><time>2026-04-18T10:52:22Z</time></trkpt><trkpt lat="42.386439983900125" lon="12.730166836555082"><ele>1009.0</ele><time>2026-04-18T10:52:23Z</time></trkpt><trkpt lat="42.38639630544972" lon="12.730054193978258"><ele>1009.0</ele><time>2026-04-18T10:52:24Z</time></trkpt><trkpt lat="42.386352568114475" lon="12.729913742726378"><ele>1008.6666666666666</ele><time>2026-04-18T10:52:25Z</time></trkpt><trkpt lat="42.38633209697713" lon="12.729802083935054"><ele>1008.3333333333333</ele><time>2026-04-18T10:52:26Z</time></trkpt><trkpt lat="42.386326675725364" lon="12.729698426367827"><ele>1008.0</ele><time>2026-04-18T10:52:27Z</time></trkpt><trkpt lat="42.386330321062786" lon="12.729600399344775"><ele>1007.6666666666667</ele><time>2026-04-18T10:52:28Z</time></trkpt><trkpt lat="42.3863424513168" lon="12.72950813845586"><ele>1007.3333333333334</ele><time>2026-04-18T10:52:29Z</time></trkpt><trkpt lat="42.38638892958104" lon="12.729367178900883"><ele>1007.0</ele><time>2026-04-18T10:52:30Z</time></trkpt><trkpt lat="42.386447574461954" lon="12.729227628188248"><ele>1007.0</ele><time>2026-04-18T10:52:31Z</time></trkpt><trkpt lat="42.38651659748986" lon="12.729115124694879"><ele>1007.0</ele><time>2026-04-18T10:52:32Z</time></trkpt><trkpt lat="42.38656194021363" lon="12.728994089666333"><ele>1007.0</ele><time>2026-04-18T10:52:33Z</time></trkpt><trkpt lat="42.38656437313633" lon="12.728869589184225"><ele>1007.0</ele><time>2026-04-18T10:52:34Z</time></trkpt><trkpt lat="42.38654246707935" lon="12.728753448844644"><ele>1007.0</ele><time>2026-04-18T10:52:35Z</time></trkpt><trkpt lat="42.38653929808406" lon="12.728618980892707"><ele>1005.6</ele><time>2026-04-18T10:52:36Z</time></trkpt><trkpt lat="42.386567100877706" lon="12.728496033604811"><ele>1004.2</ele><time>2026-04-18T10:52:37Z</time></trkpt><trkpt lat="42.3866215716886" lon="12.728366779658458"><ele>1002.8</ele><time>2026-04-18T10:52:38Z</time></trkpt><trkpt lat="42.38668003335887" lon="12.728241672434246"><ele>1001.4</ele><time>2026-04-18T10:52:39Z</time></trkpt><trkpt lat="42.386715587567515" lon="12.72812723467121"><ele>1000.0</ele><time>2026-04-18T10:52:40Z</time></trkpt><trkpt lat="42.38669673344631" lon="12.728016508619092"><ele>1000.0</ele><time>2026-04-18T10:52:41Z</time></trkpt><trkpt lat="42.386647669666985" lon="12.727916473318432"><ele>1000.0</ele><time>2026-04-18T10:52:42Z</time></trkpt><trkpt lat="42.386615801598026" lon="12.727811365903941"><ele>1000.0</ele><time>2026-04-18T10:52:43Z</time></trkpt><trkpt lat="42.38661578469376" lon="12.727697832794128"><ele>1000.0</ele><time>2026-04-18T10:52:44Z</time></trkpt><trkpt lat="42.38660563724801" lon="12.72754447449056"><ele>1000.0</ele><time>2026-04-18T10:52:45Z</time></trkpt><trkpt lat="42.386586739494895" lon="12.727396042757391"><ele>1000.0</ele><time>2026-04-18T10:52:46Z</time></trkpt><trkpt lat="42.38660151232214" lon="12.727247129001181"><ele>1000.0</ele><time>2026-04-18T10:52:47Z</time></trkpt><trkpt lat="42.38660161452251" lon="12.727103655154078"><ele>1000.0</ele><time>2026-04-18T10:52:48Z</time></trkpt><trkpt lat="42.38658128215771" lon="12.726972511249906"><ele>1000.0</ele><time>2026-04-18T10:52:49Z</time></trkpt><trkpt lat="42.38658126813931" lon="12.726847287372088"><ele>1000.0</ele><time>2026-04-18T10:52:50Z</time></trkpt><trkpt lat="42.3865674667175" lon="12.726730954005015"><ele>999.6</ele><time>2026-04-18T10:52:51Z</time></trkpt><trkpt lat="42.386574187985005" lon="12.726635302520526"><ele>999.2</ele><time>2026-04-18T10:52:52Z</time></trkpt><trkpt lat="42.38661362824062" lon="12.726544240391817"><ele>998.8</ele><time>2026-04-18T10:52:53Z</time></trkpt><trkpt lat="42.38665924737705" lon="12.72642720499788"><ele>998.4</ele><time>2026-04-18T10:52:54Z</time></trkpt><trkpt lat="42.38670060969808" lon="12.726288463393134"><ele>998.0</ele><time>2026-04-18T10:52:55Z</time></trkpt><trkpt lat="42.38672444877546" lon="12.72615240214029"><ele>998.3333333333334</ele><time>2026-04-18T10:52:56Z</time></trkpt><trkpt lat="42.38675546371418" lon="12.726020840052938"><ele>998.6666666666667</ele><time>2026-04-18T10:52:57Z</time></trkpt><trkpt lat="42.38680948076131" lon="12.725907162344312"><ele>999.0</ele><time>2026-04-18T10:52:58Z</time></trkpt><trkpt lat="42.38685263620514" lon="12.725801307782552"><ele>999.3333333333333</ele><time>2026-04-18T10:52:59Z</time></trkpt><trkpt lat="42.386892108686354" lon="12.72570927827091"><ele>999.6666666666666</ele><time>2026-04-18T10:53:00Z</time></trkpt><trkpt lat="42.38693116347827" lon="12.725622892311803"><ele>1000.0</ele><time>2026-04-18T10:53:01Z</time></trkpt><trkpt lat="42.386965434214574" lon="12.725548633979306"><ele>1000.0</ele><time>2026-04-18T10:53:02Z</time></trkpt><trkpt lat="42.387010942740645" lon="12.725450025541498"><ele>1000.0</ele><time>2026-04-18T10:53:03Z</time></trkpt><trkpt lat="42.38705809862942" lon="12.725352543223716"><ele>1000.0</ele><time>2026-04-18T10:53:04Z</time></trkpt><trkpt lat="42.38710012690134" lon="12.7252668555888"><ele>1000.0</ele><time>2026-04-18T10:53:05Z</time></trkpt><trkpt lat="42.38716825295625" lon="12.725127959475627"><ele>1000.0</ele><time>2026-04-18T10:53:06Z</time></trkpt><trkpt lat="42.38723664362558" lon="12.724991174231366"><ele>998.1666666666666</ele><time>2026-04-18T10:53:07Z</time></trkpt><trkpt lat="42.38729352588162" lon="12.72487768160675"><ele>996.3333333333333</ele><time>2026-04-18T10:53:08Z</time></trkpt><trkpt lat="42.387338105855214" lon="12.724788734677103"><ele>994.5</ele><time>2026-04-18T10:53:09Z</time></trkpt><trkpt lat="42.38738028235847" lon="12.724708513398914"><ele>992.6666666666667</ele><time>2026-04-18T10:53:10Z</time></trkpt><trkpt lat="42.38743067751615" lon="12.724613287147246"><ele>990.8333333333334</ele><time>2026-04-18T10:53:11Z</time></trkpt><trkpt lat="42.38748734070955" lon="12.72451284779599"><ele>989.0</ele><time>2026-04-18T10:53:12Z</time></trkpt><trkpt lat="42.38751845895408" lon="12.724425826177876"><ele>989.2</ele><time>2026-04-18T10:53:13Z</time></trkpt><trkpt lat="42.387586810395376" lon="12.724359599027972"><ele>989.4000000000001</ele><time>2026-04-18T10:53:14Z</time></trkpt><trkpt lat="42.38765183679323" lon="12.724267991993306"><ele>989.6</ele><time>2026-04-18T10:53:15Z</time></trkpt><trkpt lat="42.38771989806627" lon="12.72418471920871"><ele>989.8</ele><time>2026-04-18T10:53:16Z</time></trkpt><trkpt lat="42.38779066525714" lon="12.724099991235995"><ele>990.0</ele><time>2026-04-18T10:53:17Z</time></trkpt><trkpt lat="42.387882132738994" lon="12.72401325920282"><ele>990.0</ele><time>2026-04-18T10:53:18Z</time></trkpt><trkpt lat="42.3879612697791" lon="12.723953018343794"><ele>990.0</ele><time>2026-04-18T10:53:19Z</time></trkpt><trkpt lat="42.38803127264914" lon="12.72388659437576"><ele>990.0</ele><time>2026-04-18T10:53:20Z</time></trkpt><trkpt lat="42.38807918839739" lon="12.723831123824366"><ele>990.0</ele><time>2026-04-18T10:53:21Z</time></trkpt><trkpt lat="42.38813461900163" lon="12.7237231937394"><ele>990.0</ele><time>2026-04-18T10:53:23Z</time></trkpt><trkpt lat="42.388108243561135" lon="12.72362124595364"><ele>990.0</ele><time>2026-04-18T10:53:25Z</time></trkpt><trkpt lat="42.38805212265259" lon="12.723515167469047"><ele>989.8333333333334</ele><time>2026-04-18T10:53:27Z</time></trkpt><trkpt lat="42.38798531472748" lon="12.723385248473711"><ele>989.6666666666667</ele><time>2026-04-18T10:53:29Z</time></trkpt><trkpt lat="42.38795278415306" lon="12.723267655607513"><ele>989.5</ele><time>2026-04-18T10:53:31Z</time></trkpt><trkpt lat="42.38793182970133" lon="12.723143789012086"><ele>989.3333333333334</ele><time>2026-04-18T10:53:33Z</time></trkpt><trkpt lat="42.38791906271172" lon="12.723052092455383"><ele>989.1666666666667</ele><time>2026-04-18T10:53:34Z</time></trkpt><trkpt lat="42.387912058983936" lon="12.722965935590684"><ele>989.0</ele><time>2026-04-18T10:53:35Z</time></trkpt><trkpt lat="42.38791419083386" lon="12.722820753753057"><ele>988.4000000000001</ele><time>2026-04-18T10:53:36Z</time></trkpt><trkpt lat="42.387912199494274" lon="12.722718181029386"><ele>987.8000000000001</ele><time>2026-04-18T10:53:37Z</time></trkpt><trkpt lat="42.38798070831237" lon="12.722538174052458"><ele>987.1999999999999</ele><time>2026-04-18T10:53:39Z</time></trkpt><trkpt lat="42.38802600111444" lon="12.722423939400588"><ele>986.5999999999999</ele><time>2026-04-18T10:53:40Z</time></trkpt><trkpt lat="42.3880842274495" lon="12.722298153896707"><ele>986.0</ele><time>2026-04-18T10:53:41Z</time></trkpt><trkpt lat="42.38813383945007" lon="12.722201141515814"><ele>983.1666666666667</ele><time>2026-04-18T10:53:42Z</time></trkpt><trkpt lat="42.38819028938315" lon="12.722097228849991"><ele>980.3333333333334</ele><time>2026-04-18T10:53:43Z</time></trkpt><trkpt lat="42.38824072929915" lon="12.722013929819969"><ele>977.5</ele><time>2026-04-18T10:53:44Z</time></trkpt><trkpt lat="42.38830150516683" lon="12.72192522711523"><ele>974.6666666666667</ele><time>2026-04-18T10:53:45Z</time></trkpt><trkpt lat="42.3883637400289" lon="12.721842177478784"><ele>971.8333333333334</ele><time>2026-04-18T10:53:46Z</time></trkpt><trkpt lat="42.38841587060664" lon="12.721763377835144"><ele>969.0</ele><time>2026-04-18T10:53:47Z</time></trkpt><trkpt lat="42.38847793500546" lon="12.721687586658911"><ele>967.6666666666666</ele><time>2026-04-18T10:53:48Z</time></trkpt><trkpt lat="42.388534866555325" lon="12.721626846570445"><ele>966.3333333333333</ele><time>2026-04-18T10:53:49Z</time></trkpt><trkpt lat="42.388602230560934" lon="12.721563026701652"><ele>965.0</ele><time>2026-04-18T10:53:50Z</time></trkpt><trkpt lat="42.388665040771784" lon="12.721489790505046"><ele>963.6666666666666</ele><time>2026-04-18T10:53:51Z</time></trkpt><trkpt lat="42.38874540266997" lon="12.721406273075047"><ele>962.3333333333333</ele><time>2026-04-18T10:53:52Z</time></trkpt><trkpt lat="42.388801294785104" lon="12.72131079336751"><ele>961.0</ele><time>2026-04-18T10:53:53Z</time></trkpt><trkpt lat="42.38884963244205" lon="12.721255230740576"><ele>959.8333333333333</ele><time>2026-04-18T10:53:54Z</time></trkpt><trkpt lat="42.38889951437603" lon="12.721200586857762"><ele>958.6666666666666</ele><time>2026-04-18T10:53:55Z</time></trkpt><trkpt lat="42.388957978464816" lon="12.721138164915844"><ele>957.5</ele><time>2026-04-18T10:53:57Z</time></trkpt><trkpt lat="42.389037101088" lon="12.721060006138691"><ele>956.3333333333333</ele><time>2026-04-18T10:53:59Z</time></trkpt><trkpt lat="42.3890937037224" lon="12.721018263559392"><ele>955.1666666666666</ele><time>2026-04-18T10:54:00Z</time></trkpt><trkpt lat="42.3891513268055" lon="12.72098009886377"><ele>954.0</ele><time>2026-04-18T10:54:01Z</time></trkpt><trkpt lat="42.389236379814136" lon="12.72093347935407"><ele>951.5</ele><time>2026-04-18T10:54:02Z</time></trkpt><trkpt lat="42.38936241115389" lon="12.720848379835768"><ele>949.0</ele><time>2026-04-18T10:54:03Z</time></trkpt><trkpt lat="42.389457460257944" lon="12.72082613445808"><ele>946.5</ele><time>2026-04-18T10:54:04Z</time></trkpt><trkpt lat="42.389547980818975" lon="12.72077186557159"><ele>944.0</ele><time>2026-04-18T10:54:05Z</time></trkpt><trkpt lat="42.38964577322135" lon="12.720692696139034"><ele>941.2</ele><time>2026-04-18T10:54:06Z</time></trkpt><trkpt lat="42.38973446219372" lon="12.7206580283054"><ele>938.4000000000001</ele><time>2026-04-18T10:54:07Z</time></trkpt><trkpt lat="42.389812568551754" lon="12.720628781131582"><ele>935.6</ele><time>2026-04-18T10:54:08Z</time></trkpt><trkpt lat="42.389878078928504" lon="12.720611108229791"><ele>932.8</ele><time>2026-04-18T10:54:09Z</time></trkpt><trkpt lat="42.389978740791676" lon="12.720584561180871"><ele>930.0</ele><time>2026-04-18T10:54:10Z</time></trkpt><trkpt lat="42.39011151795177" lon="12.720565195718846"><ele>930.0</ele><time>2026-04-18T10:54:11Z</time></trkpt><trkpt lat="42.390219482685055" lon="12.720564438118863"><ele>930.0</ele><time>2026-04-18T10:54:12Z</time></trkpt><trkpt lat="42.39032652825952" lon="12.720591743363208"><ele>930.0</ele><time>2026-04-18T10:54:13Z</time></trkpt><trkpt lat="42.390428086277716" lon="12.720657318771163"><ele>930.0</ele><time>2026-04-18T10:54:14Z</time></trkpt><trkpt lat="42.39052487751917" lon="12.720683011275986"><ele>930.0</ele><time>2026-04-18T10:54:15Z</time></trkpt><trkpt lat="42.3906246603339" lon="12.720727355617639"><ele>927.8333333333334</ele><time>2026-04-18T10:54:16Z</time></trkpt><trkpt lat="42.39072525366157" lon="12.720768646509367"><ele>925.6666666666667</ele><time>2026-04-18T10:54:17Z</time></trkpt><trkpt lat="42.39080966101671" lon="12.720816514275215"><ele>923.5</ele><time>2026-04-18T10:54:18Z</time></trkpt><trkpt lat="42.390878916627955" lon="12.720856645740229"><ele>921.3333333333334</ele><time>2026-04-18T10:54:19Z</time></trkpt><trkpt lat="42.39094289178525" lon="12.720884600699051"><ele>919.1666666666667</ele><time>2026-04-18T10:54:20Z</time></trkpt><trkpt lat="42.39100870775079" lon="12.720913360022376"><ele>917.0</ele><time>2026-04-18T10:54:21Z</time></trkpt><trkpt lat="42.39106992379708" lon="12.720941435424912"><ele>917.0</ele><time>2026-04-18T10:54:22Z</time></trkpt><trkpt lat="42.39116364285615" lon="12.720984254601769"><ele>917.0</ele><time>2026-04-18T10:54:23Z</time></trkpt><trkpt lat="42.391254521090715" lon="12.72101083959705"><ele>917.0</ele><time>2026-04-18T10:54:24Z</time></trkpt><trkpt lat="42.391342303318716" lon="12.721057734611236"><ele>917.0</ele><time>2026-04-18T10:54:25Z</time></trkpt><trkpt lat="42.391447264944226" lon="12.721114890960148"><ele>917.0</ele><time>2026-04-18T10:54:26Z</time></trkpt><trkpt lat="42.39151733662597" lon="12.721158300229114"><ele>917.6</ele><time>2026-04-18T10:54:27Z</time></trkpt><trkpt lat="42.39160143112963" lon="12.721207144633093"><ele>918.2</ele><time>2026-04-18T10:54:28Z</time></trkpt><trkpt lat="42.39168967688545" lon="12.72131109363379"><ele>918.8</ele><time>2026-04-18T10:54:29Z</time></trkpt><trkpt lat="42.39175306641861" lon="12.721393364164012"><ele>919.4</ele><time>2026-04-18T10:54:30Z</time></trkpt><trkpt lat="42.39182321828132" lon="12.721461593564149"><ele>920.0</ele><time>2026-04-18T10:54:31Z</time></trkpt><trkpt lat="42.391893051217174" lon="12.72152807888648"><ele>920.0</ele><time>2026-04-18T10:54:32Z</time></trkpt><trkpt lat="42.391976021360165" lon="12.72157442009983"><ele>920.0</ele><time>2026-04-18T10:54:33Z</time></trkpt><trkpt lat="42.392095867631284" lon="12.72162015973137"><ele>920.0</ele><time>2026-04-18T10:54:34Z</time></trkpt><trkpt lat="42.39220190383225" lon="12.721658636692862"><ele>920.0</ele><time>2026-04-18T10:54:35Z</time></trkpt><trkpt lat="42.39228762474448" lon="12.72168373629493"><ele>920.0</ele><time>2026-04-18T10:54:36Z</time></trkpt><trkpt lat="42.392367960977474" lon="12.72170228280613"><ele>920.3333333333334</ele><time>2026-04-18T10:54:37Z</time></trkpt><trkpt lat="42.39244338484042" lon="12.721746210164413"><ele>920.6666666666667</ele><time>2026-04-18T10:54:38Z</time></trkpt><trkpt lat="42.39254305502813" lon="12.721737636185551"><ele>921.0</ele><time>2026-04-18T10:54:39Z</time></trkpt><trkpt lat="42.392620422656265" lon="12.721695697453411"><ele>921.3333333333333</ele><time>2026-04-18T10:54:40Z</time></trkpt><trkpt lat="42.39269517126593" lon="12.721679887866202"><ele>921.6666666666666</ele><time>2026-04-18T10:54:41Z</time></trkpt><trkpt lat="42.392786719215216" lon="12.721670211704009"><ele>922.0</ele><time>2026-04-18T10:54:42Z</time></trkpt><trkpt lat="42.392851856678796" lon="12.721667945328619"><ele>922.0</ele><time>2026-04-18T10:54:43Z</time></trkpt><trkpt lat="42.39296482443563" lon="12.721672153614621"><ele>922.0</ele><time>2026-04-18T10:54:45Z</time></trkpt><trkpt lat="42.39304405882874" lon="12.721707402487038"><ele>922.0</ele><time>2026-04-18T10:54:46Z</time></trkpt><trkpt lat="42.39315110605377" lon="12.721706517773288"><ele>922.0</ele><time>2026-04-18T10:54:47Z</time></trkpt><trkpt lat="42.39323456710766" lon="12.72172355948823"><ele>922.0</ele><time>2026-04-18T10:54:48Z</time></trkpt><trkpt lat="42.39333289504908" lon="12.72170312738251"><ele>922.6666666666666</ele><time>2026-04-18T10:54:50Z</time></trkpt><trkpt lat="42.393396592812934" lon="12.72173571546712"><ele>923.3333333333333</ele><time>2026-04-18T10:54:51Z</time></trkpt><trkpt lat="42.393439271974685" lon="12.721804651248025"><ele>924.0</ele><time>2026-04-18T10:54:52Z</time></trkpt><trkpt lat="42.393486988011595" lon="12.721871405704267"><ele>924.6666666666667</ele><time>2026-04-18T10:54:53Z</time></trkpt><trkpt lat="42.393551238547424" lon="12.72194654011121"><ele>925.3333333333334</ele><time>2026-04-18T10:54:54Z</time></trkpt><trkpt lat="42.39358861875485" lon="12.72208570203454"><ele>926.0</ele><time>2026-04-18T10:54:55Z</time></trkpt><trkpt lat="42.393638881725444" lon="12.722209651442002"><ele>925.1666666666667</ele><time>2026-04-18T10:54:56Z</time></trkpt><trkpt lat="42.39368063126674" lon="12.722313149023732"><ele>924.3333333333334</ele><time>2026-04-18T10:54:57Z</time></trkpt><trkpt lat="42.393715786077664" lon="12.722388986505017"><ele>923.5</ele><time>2026-04-18T10:54:58Z</time></trkpt><trkpt lat="42.39376029016331" lon="12.722476550161181"><ele>922.6666666666667</ele><time>2026-04-18T10:54:59Z</time></trkpt><trkpt lat="42.39381683241661" lon="12.72255780916132"><ele>921.8333333333334</ele><time>2026-04-18T10:55:00Z</time></trkpt><trkpt lat="42.39385743373157" lon="12.722643626355213"><ele>921.0</ele><time>2026-04-18T10:55:01Z</time></trkpt><trkpt lat="42.3939231572627" lon="12.722717815958637"><ele>921.0</ele><time>2026-04-18T10:55:02Z</time></trkpt><trkpt lat="42.39400237871076" lon="12.72276943934012"><ele>921.0</ele><time>2026-04-18T10:55:03Z</time></trkpt><trkpt lat="42.3940853178132" lon="12.722778632575952"><ele>921.0</ele><time>2026-04-18T10:55:04Z</time></trkpt><trkpt lat="42.39417005339636" lon="12.722764866111326"><ele>921.0</ele><time>2026-04-18T10:55:05Z</time></trkpt><trkpt lat="42.394266604276325" lon="12.722751501185044"><ele>921.0</ele><time>2026-04-18T10:55:06Z</time></trkpt><trkpt lat="42.39434323211156" lon="12.72273869160588"><ele>921.0</ele><time>2026-04-18T10:55:07Z</time></trkpt><trkpt lat="42.39443008351399" lon="12.722721033285147"><ele>921.0</ele><time>2026-04-18T10:55:08Z</time></trkpt><trkpt lat="42.39451259591801" lon="12.722707811080452"><ele>920.9999999999999</ele><time>2026-04-18T10:55:09Z</time></trkpt><trkpt lat="42.394592931246784" lon="12.722708277855526"><ele>920.9999999999999</ele><time>2026-04-18T10:55:10Z</time></trkpt><trkpt lat="42.394684131772614" lon="12.722723428330152"><ele>921.0</ele><time>2026-04-18T10:55:11Z</time></trkpt><trkpt lat="42.39475390214591" lon="12.722808862219424"><ele>921.0</ele><time>2026-04-18T10:55:12Z</time></trkpt><trkpt lat="42.39482238108785" lon="12.72290849337269"><ele>917.5</ele><time>2026-04-18T10:55:13Z</time></trkpt><trkpt lat="42.39488745485363" lon="12.722973906361577"><ele>914.0</ele><time>2026-04-18T10:55:14Z</time></trkpt><trkpt lat="42.394958112600136" lon="12.72301519521806"><ele>910.5</ele><time>2026-04-18T10:55:15Z</time></trkpt><trkpt lat="42.39503864654681" lon="12.723037826593828"><ele>907.0</ele><time>2026-04-18T10:55:16Z</time></trkpt><trkpt lat="42.39511845152414" lon="12.72302106297815"><ele>903.5</ele><time>2026-04-18T10:55:17Z</time></trkpt><trkpt lat="42.3951844926179" lon="12.723012322156277"><ele>900.0</ele><time>2026-04-18T10:55:18Z</time></trkpt><trkpt lat="42.39526011167785" lon="12.722957461925034"><ele>900.0</ele><time>2026-04-18T10:55:19Z</time></trkpt><trkpt lat="42.39534238844278" lon="12.722905414360548"><ele>900.0</ele><time>2026-04-18T10:55:20Z</time></trkpt><trkpt lat="42.39543039166615" lon="12.722903341477215"><ele>900.0</ele><time>2026-04-18T10:55:21Z</time></trkpt><trkpt lat="42.39551614199897" lon="12.722895301893775"><ele>900.0</ele><time>2026-04-18T10:55:22Z</time></trkpt><trkpt lat="42.395595269757195" lon="12.722904689541082"><ele>900.0</ele><time>2026-04-18T10:55:23Z</time></trkpt><trkpt lat="42.39568479788414" lon="12.722918694447568"><ele>900.0</ele><time>2026-04-18T10:55:24Z</time></trkpt><trkpt lat="42.39575121800296" lon="12.722934071837612"><ele>900.0</ele><time>2026-04-18T10:55:25Z</time></trkpt><trkpt lat="42.39585445996047" lon="12.722995615869495"><ele>900.0</ele><time>2026-04-18T10:55:27Z</time></trkpt><trkpt lat="42.39590185852662" lon="12.723082551319461"><ele>900.0</ele><time>2026-04-18T10:55:28Z</time></trkpt><trkpt lat="42.395960739494335" lon="12.723152590829994"><ele>900.0</ele><time>2026-04-18T10:55:29Z</time></trkpt><trkpt lat="42.396050678047494" lon="12.723221708568031"><ele>900.0</ele><time>2026-04-18T10:55:30Z</time></trkpt><trkpt lat="42.39616318212112" lon="12.723248424200566"><ele>900.0</ele><time>2026-04-18T10:55:31Z</time></trkpt><trkpt lat="42.39625171988139" lon="12.723257082258112"><ele>900.0</ele><time>2026-04-18T10:55:32Z</time></trkpt><trkpt lat="42.396334262915126" lon="12.723284865573037"><ele>900.0</ele><time>2026-04-18T10:55:33Z</time></trkpt><trkpt lat="42.39641591676387" lon="12.723279596794688"><ele>900.0</ele><time>2026-04-18T10:55:34Z</time></trkpt><trkpt lat="42.39651538780052" lon="12.72323551462996"><ele>900.0</ele><time>2026-04-18T10:55:35Z</time></trkpt><trkpt lat="42.39661769761855" lon="12.72315870295022"><ele>900.0</ele><time>2026-04-18T10:55:36Z</time></trkpt><trkpt lat="42.396703153884154" lon="12.723127039302582"><ele>900.0</ele><time>2026-04-18T10:55:37Z</time></trkpt><trkpt lat="42.39679177145664" lon="12.72309971038275"><ele>900.0</ele><time>2026-04-18T10:55:38Z</time></trkpt><trkpt lat="42.39688008624399" lon="12.723061316776011"><ele>900.0</ele><time>2026-04-18T10:55:39Z</time></trkpt><trkpt lat="42.39698590092621" lon="12.723017629057308"><ele>900.0</ele><time>2026-04-18T10:55:40Z</time></trkpt><trkpt lat="42.397099160869686" lon="12.72298699096723"><ele>898.25</ele><time>2026-04-18T10:55:41Z</time></trkpt><trkpt lat="42.397223069947785" lon="12.722972196370428"><ele>896.5</ele><time>2026-04-18T10:55:42Z</time></trkpt><trkpt lat="42.397333013657835" lon="12.722956144624995"><ele>894.75</ele><time>2026-04-18T10:55:43Z</time></trkpt><trkpt lat="42.39744937599903" lon="12.722936660507845"><ele>893.0</ele><time>2026-04-18T10:55:44Z</time></trkpt><trkpt lat="42.3975534879789" lon="12.722930579084604"><ele>893.0</ele><time>2026-04-18T10:55:45Z</time></trkpt><trkpt lat="42.39763318984028" lon="12.722945607744546"><ele>893.0</ele><time>2026-04-18T10:55:46Z</time></trkpt><trkpt lat="42.397716531607166" lon="12.722963290238491"><ele>893.0</ele><time>2026-04-18T10:55:47Z</time></trkpt><trkpt lat="42.397808038902085" lon="12.723002425708065"><ele>893.0</ele><time>2026-04-18T10:55:48Z</time></trkpt><trkpt lat="42.39789720433621" lon="12.723053484831567"><ele>893.0</ele><time>2026-04-18T10:55:49Z</time></trkpt><trkpt lat="42.397995891556114" lon="12.723083190723202"><ele>894.0</ele><time>2026-04-18T10:55:50Z</time></trkpt><trkpt lat="42.398093017053824" lon="12.723103613268687"><ele>895.0</ele><time>2026-04-18T10:55:51Z</time></trkpt><trkpt lat="42.39819100635978" lon="12.723147298159255"><ele>896.0</ele><time>2026-04-18T10:55:52Z</time></trkpt><trkpt lat="42.39827372143923" lon="12.723183974683458"><ele>897.0</ele><time>2026-04-18T10:55:53Z</time></trkpt><trkpt lat="42.39833737920289" lon="12.723265407564705"><ele>898.0</ele><time>2026-04-18T10:55:54Z</time></trkpt><trkpt lat="42.398448286913414" lon="12.723359635189352"><ele>898.0</ele><time>2026-04-18T10:55:55Z</time></trkpt><trkpt lat="42.39855956606549" lon="12.723450520677048"><ele>898.0</ele><time>2026-04-18T10:55:56Z</time></trkpt><trkpt lat="42.398662343960595" lon="12.723528769604695"><ele>898.0</ele><time>2026-04-18T10:55:57Z</time></trkpt><trkpt lat="42.39877149472905" lon="12.723596145564194"><ele>898.0</ele><time>2026-04-18T10:55:58Z</time></trkpt><trkpt lat="42.39887438038795" lon="12.72364460913706"><ele>896.8</ele><time>2026-04-18T10:55:59Z</time></trkpt><trkpt lat="42.398964963752036" lon="12.723685449741328"><ele>895.5999999999999</ele><time>2026-04-18T10:56:00Z</time></trkpt><trkpt lat="42.399062183683135" lon="12.723722403932115"><ele>894.4000000000001</ele><time>2026-04-18T10:56:01Z</time></trkpt><trkpt lat="42.39915056283941" lon="12.72376041403156"><ele>893.2</ele><time>2026-04-18T10:56:02Z</time></trkpt><trkpt lat="42.399214780932894" lon="12.723836789154568"><ele>892.0</ele><time>2026-04-18T10:56:03Z</time></trkpt><trkpt lat="42.39924182518986" lon="12.723942684606538"><ele>892.0</ele><time>2026-04-18T10:56:04Z</time></trkpt><trkpt lat="42.399295245892425" lon="12.72406431061879"><ele>892.0</ele><time>2026-04-18T10:56:05Z</time></trkpt><trkpt lat="42.39936562952422" lon="12.724200226297373"><ele>892.0</ele><time>2026-04-18T10:56:06Z</time></trkpt><trkpt lat="42.399404302073044" lon="12.72432407441607"><ele>892.0</ele><time>2026-04-18T10:56:07Z</time></trkpt><trkpt lat="42.39943249201302" lon="12.72442731032005"><ele>892.0</ele><time>2026-04-18T10:56:08Z</time></trkpt><trkpt lat="42.399477971102066" lon="12.724493481425412"><ele>891.1666666666666</ele><time>2026-04-18T10:56:09Z</time></trkpt><trkpt lat="42.3995929344817" lon="12.7245710025538"><ele>890.3333333333333</ele><time>2026-04-18T10:56:11Z</time></trkpt><trkpt lat="42.39966968692748" lon="12.724589431184393"><ele>889.5</ele><time>2026-04-18T10:56:12Z</time></trkpt><trkpt lat="42.39974803193256" lon="12.72459979340084"><ele>888.6666666666667</ele><time>2026-04-18T10:56:13Z</time></trkpt><trkpt lat="42.399821225234426" lon="12.724608464656626"><ele>887.8333333333334</ele><time>2026-04-18T10:56:14Z</time></trkpt><trkpt lat="42.39990220095603" lon="12.724578011761123"><ele>887.0</ele><time>2026-04-18T10:56:15Z</time></trkpt><trkpt lat="42.39997274864362" lon="12.724526251707712"><ele>887.0</ele><time>2026-04-18T10:56:16Z</time></trkpt><trkpt lat="42.4000427553578" lon="12.7244714923256"><ele>887.0</ele><time>2026-04-18T10:56:17Z</time></trkpt><trkpt lat="42.40012618725847" lon="12.724399753044931"><ele>887.0</ele><time>2026-04-18T10:56:18Z</time></trkpt><trkpt lat="42.40021949899719" lon="12.724342504410876"><ele>887.0</ele><time>2026-04-18T10:56:19Z</time></trkpt><trkpt lat="42.40032845963185" lon="12.724314145506657"><ele>887.0</ele><time>2026-04-18T10:56:20Z</time></trkpt><trkpt lat="42.40040757242471" lon="12.72426955436826"><ele>889.1666666666667</ele><time>2026-04-18T10:56:21Z</time></trkpt><trkpt lat="42.400484315314586" lon="12.72423197372231"><ele>891.3333333333334</ele><time>2026-04-18T10:56:22Z</time></trkpt><trkpt lat="42.40057843353904" lon="12.724200073105637"><ele>893.5</ele><time>2026-04-18T10:56:23Z</time></trkpt><trkpt lat="42.400654529552135" lon="12.724169962860415"><ele>895.6666666666667</ele><time>2026-04-18T10:56:24Z</time></trkpt><trkpt lat="42.400729109897696" lon="12.724174252252915"><ele>897.8333333333334</ele><time>2026-04-18T10:56:25Z</time></trkpt><trkpt lat="42.400804705061724" lon="12.724227421604494"><ele>900.0</ele><time>2026-04-18T10:56:26Z</time></trkpt><trkpt lat="42.40090944380822" lon="12.72428507736704"><ele>900.0</ele><time>2026-04-18T10:56:27Z</time></trkpt><trkpt lat="42.40100338627323" lon="12.724352282018398"><ele>900.0</ele><time>2026-04-18T10:56:28Z</time></trkpt><trkpt lat="42.40109261297672" lon="12.72441343739881"><ele>900.0</ele><time>2026-04-18T10:56:29Z</time></trkpt><trkpt lat="42.401184259466575" lon="12.72448107140114"><ele>900.0</ele><time>2026-04-18T10:56:30Z</time></trkpt><trkpt lat="42.4012780666705" lon="12.72452596389834"><ele>900.0</ele><time>2026-04-18T10:56:31Z</time></trkpt><trkpt lat="42.40138479400997" lon="12.72453913762941"><ele>897.0</ele><time>2026-04-18T10:56:32Z</time></trkpt><trkpt lat="42.401497638593995" lon="12.72451552179156"><ele>894.0</ele><time>2026-04-18T10:56:33Z</time></trkpt><trkpt lat="42.401592678462904" lon="12.724465868216917"><ele>891.0</ele><time>2026-04-18T10:56:34Z</time></trkpt><trkpt lat="42.401673666196025" lon="12.724441217664195"><ele>888.0</ele><time>2026-04-18T10:56:35Z</time></trkpt><trkpt lat="42.40176238698791" lon="12.724418101586354"><ele>885.0</ele><time>2026-04-18T10:56:36Z</time></trkpt><trkpt lat="42.40186978323089" lon="12.724403067808057"><ele>885.0</ele><time>2026-04-18T10:56:37Z</time></trkpt><trkpt lat="42.402003566085746" lon="12.724404445376818"><ele>885.0</ele><time>2026-04-18T10:56:38Z</time></trkpt><trkpt lat="42.402112153143115" lon="12.724412344762511"><ele>885.0</ele><time>2026-04-18T10:56:39Z</time></trkpt><trkpt lat="42.40218089847563" lon="12.724416326715165"><ele>885.0</ele><time>2026-04-18T10:56:40Z</time></trkpt><trkpt lat="42.402243648798965" lon="12.724430147779456"><ele>885.0</ele><time>2026-04-18T10:56:41Z</time></trkpt><trkpt lat="42.40230690612156" lon="12.72443220573138"><ele>885.0</ele><time>2026-04-18T10:56:42Z</time></trkpt><trkpt lat="42.40237123360228" lon="12.724439112573902"><ele>888.0</ele><time>2026-04-18T10:56:43Z</time></trkpt><trkpt lat="42.40247867411738" lon="12.72435992090658"><ele>891.0</ele><time>2026-04-18T10:56:44Z</time></trkpt><trkpt lat="42.40258155494985" lon="12.724240911519326"><ele>894.0</ele><time>2026-04-18T10:56:45Z</time></trkpt><trkpt lat="42.402663418559385" lon="12.724214148973086"><ele>897.0</ele><time>2026-04-18T10:56:46Z</time></trkpt><trkpt lat="42.402773125350535" lon="12.72418280071297"><ele>897.0</ele><time>2026-04-18T10:56:48Z</time></trkpt><trkpt lat="42.40295697530667" lon="12.724162120552752"><ele>897.0</ele><time>2026-04-18T10:56:50Z</time></trkpt><trkpt lat="42.40311018479937" lon="12.724148932379281"><ele>897.0</ele><time>2026-04-18T10:56:51Z</time></trkpt><trkpt lat="42.40322182065596" lon="12.724134700253133"><ele>895.8333333333334</ele><time>2026-04-18T10:56:52Z</time></trkpt><trkpt lat="42.40329219911187" lon="12.72411425831307"><ele>894.6666666666667</ele><time>2026-04-18T10:56:53Z</time></trkpt><trkpt lat="42.40338174498424" lon="12.724119218142818"><ele>893.5</ele><time>2026-04-18T10:56:54Z</time></trkpt><trkpt lat="42.40346488960947" lon="12.724095235885866"><ele>892.3333333333334</ele><time>2026-04-18T10:56:55Z</time></trkpt><trkpt lat="42.40355461409267" lon="12.724068000893617"><ele>891.1666666666667</ele><time>2026-04-18T10:56:56Z</time></trkpt><trkpt lat="42.40365179280793" lon="12.724029111784805"><ele>890.0</ele><time>2026-04-18T10:56:57Z</time></trkpt><trkpt lat="42.403756078219686" lon="12.723983093854278"><ele>887.8</ele><time>2026-04-18T10:56:58Z</time></trkpt><trkpt lat="42.4038394462202" lon="12.723962701368315"><ele>885.6</ele><time>2026-04-18T10:56:59Z</time></trkpt><trkpt lat="42.40392292785059" lon="12.723947327630754"><ele>883.4000000000001</ele><time>2026-04-18T10:57:00Z</time></trkpt><trkpt lat="42.404013980709294" lon="12.723938294882958"><ele>881.2</ele><time>2026-04-18T10:57:01Z</time></trkpt><trkpt lat="42.40409950025748" lon="12.723929593552922"><ele>879.0</ele><time>2026-04-18T10:57:02Z</time></trkpt><trkpt lat="42.40420167438262" lon="12.723891425960682"><ele>879.0</ele><time>2026-04-18T10:57:03Z</time></trkpt><trkpt lat="42.40430492894851" lon="12.723878680216094"><ele>879.0000000000001</ele><time>2026-04-18T10:57:04Z</time></trkpt><trkpt lat="42.40440498200216" lon="12.723850849415582"><ele>879.0000000000001</ele><time>2026-04-18T10:57:05Z</time></trkpt><trkpt lat="42.40451460393696" lon="12.723822319348125"><ele>879.0</ele><time>2026-04-18T10:57:06Z</time></trkpt><trkpt lat="42.40457933754133" lon="12.723803081223668"><ele>879.0</ele><time>2026-04-18T10:57:07Z</time></trkpt><trkpt lat="42.404660292112574" lon="12.723780259561458"><ele>875.8333333333334</ele><time>2026-04-18T10:57:08Z</time></trkpt><trkpt lat="42.40474026985433" lon="12.723760848921206"><ele>872.6666666666667</ele><time>2026-04-18T10:57:09Z</time></trkpt><trkpt lat="42.40480825190769" lon="12.723745467600663"><ele>869.5</ele><time>2026-04-18T10:57:10Z</time></trkpt><trkpt lat="42.404897071275855" lon="12.723728059718232"><ele>866.3333333333334</ele><time>2026-04-18T10:57:11Z</time></trkpt><trkpt lat="42.405012150391414" lon="12.723726581007137"><ele>863.1666666666667</ele><time>2026-04-18T10:57:12Z</time></trkpt><trkpt lat="42.40508580749117" lon="12.72372581154398"><ele>860.0</ele><time>2026-04-18T10:57:13Z</time></trkpt><trkpt lat="42.40519245039113" lon="12.723726223136602"><ele>860.0</ele><time>2026-04-18T10:57:14Z</time></trkpt><trkpt lat="42.405284138327836" lon="12.723745783911687"><ele>860.0</ele><time>2026-04-18T10:57:15Z</time></trkpt><trkpt lat="42.40539866411554" lon="12.723766204184013"><ele>860.0</ele><time>2026-04-18T10:57:16Z</time></trkpt><trkpt lat="42.405498931889895" lon="12.723737971257767"><ele>860.0</ele><time>2026-04-18T10:57:17Z</time></trkpt><trkpt lat="42.405616403561055" lon="12.723728108065446"><ele>860.0</ele><time>2026-04-18T10:57:18Z</time></trkpt><trkpt lat="42.40571717728771" lon="12.723741394588973"><ele>856.0</ele><time>2026-04-18T10:57:19Z</time></trkpt><trkpt lat="42.40580121402433" lon="12.723716185684731"><ele>852.0</ele><time>2026-04-18T10:57:20Z</time></trkpt><trkpt lat="42.40589658434711" lon="12.723712711637189"><ele>848.0</ele><time>2026-04-18T10:57:21Z</time></trkpt><trkpt lat="42.40599753189902" lon="12.72372017777189"><ele>844.0</ele><time>2026-04-18T10:57:22Z</time></trkpt><trkpt lat="42.406083858330604" lon="12.723709384084101"><ele>840.0</ele><time>2026-04-18T10:57:23Z</time></trkpt><trkpt lat="42.40620136276859" lon="12.72368886081436"><ele>840.0</ele><time>2026-04-18T10:57:24Z</time></trkpt><trkpt lat="42.406324722411085" lon="12.723697280449423"><ele>840.0</ele><time>2026-04-18T10:57:25Z</time></trkpt><trkpt lat="42.406408539933544" lon="12.723702763011035"><ele>840.0</ele><time>2026-04-18T10:57:26Z</time></trkpt><trkpt lat="42.406497747876934" lon="12.72368146683553"><ele>840.0</ele><time>2026-04-18T10:57:27Z</time></trkpt><trkpt lat="42.40658145762441" lon="12.723691366327442"><ele>840.0</ele><time>2026-04-18T10:57:28Z</time></trkpt><trkpt lat="42.40664874263532" lon="12.7236938319521"><ele>840.0</ele><time>2026-04-18T10:57:29Z</time></trkpt><trkpt lat="42.406712442577" lon="12.723623963608574"><ele>842.0</ele><time>2026-04-18T10:57:30Z</time></trkpt><trkpt lat="42.406770926239524" lon="12.723515847539833"><ele>844.0</ele><time>2026-04-18T10:57:31Z</time></trkpt><trkpt lat="42.40684619328312" lon="12.723391648080717"><ele>846.0</ele><time>2026-04-18T10:57:32Z</time></trkpt><trkpt lat="42.40693714948513" lon="12.723298580475966"><ele>848.0</ele><time>2026-04-18T10:57:33Z</time></trkpt><trkpt lat="42.40702141168761" lon="12.723214638891143"><ele>850.0</ele><time>2026-04-18T10:57:34Z</time></trkpt><trkpt lat="42.40709415408265" lon="12.723144253271501"><ele>849.9999999999999</ele><time>2026-04-18T10:57:35Z</time></trkpt><trkpt lat="42.40714754871077" lon="12.723070638386835"><ele>850.0</ele><time>2026-04-18T10:57:36Z</time></trkpt><trkpt lat="42.40720571849812" lon="12.722961089392149"><ele>850.0</ele><time>2026-04-18T10:57:37Z</time></trkpt><trkpt lat="42.40724950980782" lon="12.722851338610262"><ele>850.0</ele><time>2026-04-18T10:57:38Z</time></trkpt><trkpt lat="42.407284842043765" lon="12.72275770657293"><ele>849.9999999999999</ele><time>2026-04-18T10:57:39Z</time></trkpt><trkpt lat="42.407260892763034" lon="12.722655898896933"><ele>850.0</ele><time>2026-04-18T10:57:40Z</time></trkpt><trkpt lat="42.40722041379983" lon="12.72253437882164"><ele>848.75</ele><time>2026-04-18T10:57:41Z</time></trkpt><trkpt lat="42.407188077690606" lon="12.722404311432955"><ele>847.5</ele><time>2026-04-18T10:57:42Z</time></trkpt><trkpt lat="42.40719897358482" lon="12.722291056610306"><ele>846.25</ele><time>2026-04-18T10:57:44Z</time></trkpt><trkpt lat="42.407333153397644" lon="12.722213594802305"><ele>845.0</ele><time>2026-04-18T10:57:46Z</time></trkpt><trkpt lat="42.40744457094729" lon="12.722150452297042"><ele>845.0</ele><time>2026-04-18T10:57:47Z</time></trkpt><trkpt lat="42.40753359745122" lon="12.722121569067992"><ele>845.0</ele><time>2026-04-18T10:57:48Z</time></trkpt><trkpt lat="42.4076550668178" lon="12.722047972131614"><ele>845.0</ele><time>2026-04-18T10:57:49Z</time></trkpt><trkpt lat="42.40773400743244" lon="12.721971503140685"><ele>845.0</ele><time>2026-04-18T10:57:50Z</time></trkpt><trkpt lat="42.40779434371581" lon="12.721916572115829"><ele>845.0</ele><time>2026-04-18T10:57:51Z</time></trkpt><trkpt lat="42.40784985518695" lon="12.72183065804109"><ele>846.6</ele><time>2026-04-18T10:57:52Z</time></trkpt><trkpt lat="42.40790962441338" lon="12.721767691093117"><ele>848.2</ele><time>2026-04-18T10:57:53Z</time></trkpt><trkpt lat="42.40802303750275" lon="12.721705651682074"><ele>849.8</ele><time>2026-04-18T10:57:54Z</time></trkpt><trkpt lat="42.40811743864416" lon="12.721673911145263"><ele>851.4</ele><time>2026-04-18T10:57:55Z</time></trkpt><trkpt lat="42.40820419282106" lon="12.721687409044351"><ele>853.0</ele><time>2026-04-18T10:57:56Z</time></trkpt><trkpt lat="42.40831916392604" lon="12.721697626590126"><ele>853.0</ele><time>2026-04-18T10:57:57Z</time></trkpt><trkpt lat="42.408415966405535" lon="12.721700662742833"><ele>853.0</ele><time>2026-04-18T10:57:58Z</time></trkpt><trkpt lat="42.40851864286244" lon="12.721685877701066"><ele>853.0</ele><time>2026-04-18T10:57:59Z</time></trkpt><trkpt lat="42.408639236970586" lon="12.72167034052476"><ele>853.0</ele><time>2026-04-18T10:58:00Z</time></trkpt><trkpt lat="42.40874020798831" lon="12.721636806873958"><ele>853.0</ele><time>2026-04-18T10:58:01Z</time></trkpt><trkpt lat="42.40880965778968" lon="12.72160365384257"><ele>851.5999999999999</ele><time>2026-04-18T10:58:02Z</time></trkpt><trkpt lat="42.40890647811148" lon="12.721560729688578"><ele>850.1999999999999</ele><time>2026-04-18T10:58:03Z</time></trkpt><trkpt lat="42.4090026062526" lon="12.721470940068924"><ele>848.8</ele><time>2026-04-18T10:58:04Z</time></trkpt><trkpt lat="42.40908760962106" lon="12.721388554457814"><ele>847.4</ele><time>2026-04-18T10:58:05Z</time></trkpt><trkpt lat="42.40915777728318" lon="12.721317275316261"><ele>846.0</ele><time>2026-04-18T10:58:06Z</time></trkpt><trkpt lat="42.40922622049896" lon="12.721275130531057"><ele>846.0</ele><time>2026-04-18T10:58:07Z</time></trkpt><trkpt lat="42.409297538401006" lon="12.721217868807965"><ele>846.0</ele><time>2026-04-18T10:58:08Z</time></trkpt><trkpt lat="42.40936221073126" lon="12.72118862165575"><ele>846.0</ele><time>2026-04-18T10:58:09Z</time></trkpt><trkpt lat="42.40942869552327" lon="12.721202535126517"><ele>846.0</ele><time>2026-04-18T10:58:10Z</time></trkpt><trkpt lat="42.409507858579865" lon="12.721242496695883"><ele>846.0</ele><time>2026-04-18T10:58:11Z</time></trkpt><trkpt lat="42.4096109223901" lon="12.721293528672621"><ele>846.0</ele><time>2026-04-18T10:58:13Z</time></trkpt><trkpt lat="42.40965946213096" lon="12.72135160241917"><ele>846.0</ele><time>2026-04-18T10:58:14Z</time></trkpt><trkpt lat="42.40969825970502" lon="12.721429735888245"><ele>846.0</ele><time>2026-04-18T10:58:15Z</time></trkpt><trkpt lat="42.40970170148778" lon="12.721599127737974"><ele>846.0</ele><time>2026-04-18T10:58:17Z</time></trkpt><trkpt lat="42.40968870669301" lon="12.721691931815403"><ele>846.0</ele><time>2026-04-18T10:58:18Z</time></trkpt><trkpt lat="42.409655779647686" lon="12.72177635612424"><ele>846.0</ele><time>2026-04-18T10:58:19Z</time></trkpt><trkpt lat="42.409640997347935" lon="12.721862799312207"><ele>846.0</ele><time>2026-04-18T10:58:20Z</time></trkpt><trkpt lat="42.40965047827901" lon="12.722037529718156"><ele>847.0</ele><time>2026-04-18T10:58:22Z</time></trkpt><trkpt lat="42.40968092832839" lon="12.722112446686337"><ele>848.0</ele><time>2026-04-18T10:58:23Z</time></trkpt><trkpt lat="42.409738871832324" lon="12.722155030275816"><ele>849.0</ele><time>2026-04-18T10:58:24Z</time></trkpt><trkpt lat="42.40981233340074" lon="12.722228018356473"><ele>850.0</ele><time>2026-04-18T10:58:26Z</time></trkpt><trkpt lat="42.409999830934574" lon="12.722091602535246"><ele>851.0</ele><time>2026-04-18T10:58:28Z</time></trkpt><trkpt lat="42.41010753210812" lon="12.721968380925965"><ele>851.0</ele><time>2026-04-18T10:58:29Z</time></trkpt><trkpt lat="42.41022725077933" lon="12.721808313305464"><ele>851.0</ele><time>2026-04-18T10:58:30Z</time></trkpt><trkpt lat="42.41034923126175" lon="12.72163916157977"><ele>851.0</ele><time>2026-04-18T10:58:31Z</time></trkpt><trkpt lat="42.41043782949801" lon="12.721460214590497"><ele>851.0</ele><time>2026-04-18T10:58:32Z</time></trkpt><trkpt lat="42.41048229570017" lon="12.721305028203183"><ele>851.0</ele><time>2026-04-18T10:58:33Z</time></trkpt><trkpt lat="42.41050551980053" lon="12.721223491072742"><ele>851.0</ele><time>2026-04-18T10:58:35Z</time></trkpt><trkpt lat="42.4106290424018" lon="12.721275305092576"><ele>851.0</ele><time>2026-04-18T10:58:41Z</time></trkpt><trkpt lat="42.410582088910914" lon="12.721423394239471"><ele>851.0</ele><time>2026-04-18T10:58:43Z</time></trkpt><trkpt lat="42.41053739996006" lon="12.721519677999948"><ele>851.0000000000001</ele><time>2026-04-18T10:58:44Z</time></trkpt><trkpt lat="42.41051014928796" lon="12.721620101626355"><ele>851.0</ele><time>2026-04-18T10:58:45Z</time></trkpt><trkpt lat="42.41050365029716" lon="12.721705152525125"><ele>851.0</ele><time>2026-04-18T10:58:46Z</time></trkpt><trkpt lat="42.410513722388266" lon="12.721813555459871"><ele>851.0</ele><time>2026-04-18T10:58:47Z</time></trkpt><trkpt lat="42.41052765676413" lon="12.721930285905074"><ele>851.0000000000001</ele><time>2026-04-18T10:58:48Z</time></trkpt><trkpt lat="42.41045983920348" lon="12.722027673850892"><ele>851.0</ele><time>2026-04-18T10:58:50Z</time></trkpt><trkpt lat="42.41036118887615" lon="12.722083991088226"><ele>851.0</ele><time>2026-04-18T10:58:51Z</time></trkpt><trkpt lat="42.41031363792175" lon="12.722146023457352"><ele>851.0</ele><time>2026-04-18T10:58:52Z</time></trkpt><trkpt lat="42.41027498440432" lon="12.72234838101691"><ele>851.0</ele><time>2026-04-18T10:58:54Z</time></trkpt><trkpt lat="42.41027957100064" lon="12.722490593067096"><ele>851.0</ele><time>2026-04-18T10:58:55Z</time></trkpt><trkpt lat="42.410307288841715" lon="12.72257444507631"><ele>851.0</ele><time>2026-04-18T10:58:56Z</time></trkpt><trkpt lat="42.41039291120786" lon="12.722584810794492"><ele>854.1999999999999</ele><time>2026-04-18T10:58:58Z</time></trkpt><trkpt lat="42.41051916023795" lon="12.722482161521748"><ele>857.4</ele><time>2026-04-18T10:59:00Z</time></trkpt><trkpt lat="42.41058995236821" lon="12.722523597647122"><ele>860.6</ele><time>2026-04-18T10:59:02Z</time></trkpt><trkpt lat="42.41067768028567" lon="12.722648787421965"><ele>863.8</ele><time>2026-04-18T10:59:04Z</time></trkpt><trkpt lat="42.410748842782006" lon="12.722684535605262"><ele>867.0</ele><time>2026-04-18T10:59:05Z</time></trkpt><trkpt lat="42.410826619931115" lon="12.72269198605996"><ele>868.8</ele><time>2026-04-18T10:59:06Z</time></trkpt><trkpt lat="42.41088783681385" lon="12.722750523663638"><ele>870.6</ele><time>2026-04-18T10:59:08Z</time></trkpt><trkpt lat="42.410998806332316" lon="12.722897582709193"><ele>872.3999999999999</ele><time>2026-04-18T10:59:10Z</time></trkpt><trkpt lat="42.41107548578584" lon="12.723016612469738"><ele>874.1999999999999</ele><time>2026-04-18T10:59:11Z</time></trkpt><trkpt lat="42.41114531506865" lon="12.72310594170816"><ele>876.0</ele><time>2026-04-18T10:59:12Z</time></trkpt><trkpt lat="42.41121676639251" lon="12.723164547416104"><ele>876.0</ele><time>2026-04-18T10:59:13Z</time></trkpt><trkpt lat="42.41128474035428" lon="12.723208761009147"><ele>876.0</ele><time>2026-04-18T10:59:14Z</time></trkpt><trkpt lat="42.41134963407588" lon="12.723248201446149"><ele>876.0</ele><time>2026-04-18T10:59:15Z</time></trkpt><trkpt lat="42.411466351281085" lon="12.723215927789969"><ele>876.0</ele><time>2026-04-18T10:59:17Z</time></trkpt><trkpt lat="42.41151842895319" lon="12.723129996016292"><ele>876.0</ele><time>2026-04-18T10:59:18Z</time></trkpt><trkpt lat="42.411588812677344" lon="12.723033918769055"><ele>876.0</ele><time>2026-04-18T10:59:19Z</time></trkpt><trkpt lat="42.41165019036013" lon="12.722976304109713"><ele>880.5</ele><time>2026-04-18T10:59:20Z</time></trkpt><trkpt lat="42.41180081416435" lon="12.722928765657937"><ele>885.0</ele><time>2026-04-18T10:59:22Z</time></trkpt><trkpt lat="42.41191621437421" lon="12.722894820717533"><ele>889.5</ele><time>2026-04-18T10:59:23Z</time></trkpt><trkpt lat="42.41202273453725" lon="12.722866737744464"><ele>894.0</ele><time>2026-04-18T10:59:24Z</time></trkpt><trkpt lat="42.4121046702986" lon="12.722839446144649"><ele>898.0</ele><time>2026-04-18T10:59:25Z</time></trkpt><trkpt lat="42.41220852768317" lon="12.722847959466419"><ele>902.0000000000001</ele><time>2026-04-18T10:59:26Z</time></trkpt><trkpt lat="42.41230640542354" lon="12.722842850604863"><ele>906.0000000000001</ele><time>2026-04-18T10:59:27Z</time></trkpt><trkpt lat="42.41241189288597" lon="12.722843645224707"><ele>910.0</ele><time>2026-04-18T10:59:28Z</time></trkpt><trkpt lat="42.412519411017534" lon="12.722895029193499"><ele>914.0</ele><time>2026-04-18T10:59:30Z</time></trkpt><trkpt lat="42.41261374783656" lon="12.72287653131232"><ele>914.0</ele><time>2026-04-18T10:59:31Z</time></trkpt><trkpt lat="42.41269848397233" lon="12.722803545604508"><ele>914.0000000000001</ele><time>2026-04-18T10:59:32Z</time></trkpt><trkpt lat="42.41280078336211" lon="12.722768051140104"><ele>914.0000000000001</ele><time>2026-04-18T10:59:33Z</time></trkpt><trkpt lat="42.41290642444059" lon="12.72275085303594"><ele>914.0</ele><time>2026-04-18T10:59:34Z</time></trkpt><trkpt lat="42.41297401530233" lon="12.722712273002882"><ele>914.0</ele><time>2026-04-18T10:59:35Z</time></trkpt><trkpt lat="42.41308567765833" lon="12.722698255032716"><ele>913.0000000000001</ele><time>2026-04-18T10:59:37Z</time></trkpt><trkpt lat="42.413167941099715" lon="12.722593099524678"><ele>912.0</ele><time>2026-04-18T10:59:39Z</time></trkpt><trkpt lat="42.41318717076881" lon="12.722504825204984"><ele>911.0</ele><time>2026-04-18T10:59:40Z</time></trkpt><trkpt lat="42.41323631147238" lon="12.722424623555709"><ele>910.0</ele><time>2026-04-18T10:59:41Z</time></trkpt><trkpt lat="42.413291882919516" lon="12.722363586788394"><ele>909.0000000000001</ele><time>2026-04-18T10:59:42Z</time></trkpt><trkpt lat="42.41335616321561" lon="12.722261606466862"><ele>908.0</ele><time>2026-04-18T10:59:43Z</time></trkpt><trkpt lat="42.413405812028394" lon="12.72214065373679"><ele>908.0</ele><time>2026-04-18T10:59:44Z</time></trkpt><trkpt lat="42.41345226823314" lon="12.721983777737385"><ele>908.0</ele><time>2026-04-18T10:59:45Z</time></trkpt><trkpt lat="42.41348702787934" lon="12.721825931180943"><ele>908.0</ele><time>2026-04-18T10:59:46Z</time></trkpt><trkpt lat="42.41355736491883" lon="12.721728058707154"><ele>908.0</ele><time>2026-04-18T10:59:47Z</time></trkpt><trkpt lat="42.413617524312414" lon="12.721612264617933"><ele>905.6666666666667</ele><time>2026-04-18T10:59:48Z</time></trkpt><trkpt lat="42.413655192611834" lon="12.72152584958971"><ele>903.3333333333334</ele><time>2026-04-18T10:59:49Z</time></trkpt><trkpt lat="42.41369328543906" lon="12.721415338967663"><ele>901.0</ele><time>2026-04-18T10:59:50Z</time></trkpt><trkpt lat="42.413717789935426" lon="12.721287254943626"><ele>898.6666666666667</ele><time>2026-04-18T10:59:51Z</time></trkpt><trkpt lat="42.413722314176205" lon="12.721166224232494"><ele>896.3333333333334</ele><time>2026-04-18T10:59:52Z</time></trkpt><trkpt lat="42.41373435960741" lon="12.721067991264375"><ele>894.0</ele><time>2026-04-18T10:59:53Z</time></trkpt><trkpt lat="42.41377089757799" lon="12.72096321791545"><ele>899.0</ele><time>2026-04-18T10:59:54Z</time></trkpt><trkpt lat="42.41382332528135" lon="12.720842858536574"><ele>904.0000000000001</ele><time>2026-04-18T10:59:55Z</time></trkpt><trkpt lat="42.41387162078079" lon="12.72073036186145"><ele>909.0000000000001</ele><time>2026-04-18T10:59:56Z</time></trkpt><trkpt lat="42.413925083961765" lon="12.720610303785529"><ele>914.0</ele><time>2026-04-18T10:59:57Z</time></trkpt><trkpt lat="42.4139863409614" lon="12.720511859664402"><ele>919.0</ele><time>2026-04-18T10:59:58Z</time></trkpt><trkpt lat="42.41404480142937" lon="12.720451987673485"><ele>919.0</ele><time>2026-04-18T10:59:59Z</time></trkpt><trkpt lat="42.414193114641854" lon="12.72035285597993"><ele>919.0</ele><time>2026-04-18T11:00:01Z</time></trkpt><trkpt lat="42.41429759718327" lon="12.720281218208546"><ele>919.0</ele><time>2026-04-18T11:00:02Z</time></trkpt><trkpt lat="42.414414729218926" lon="12.720222432809882"><ele>919.0</ele><time>2026-04-18T11:00:03Z</time></trkpt><trkpt lat="42.414537480258836" lon="12.720170791614285"><ele>921.2</ele><time>2026-04-18T11:00:04Z</time></trkpt><trkpt lat="42.41467935722347" lon="12.720141328178926"><ele>923.4000000000001</ele><time>2026-04-18T11:00:05Z</time></trkpt><trkpt lat="42.414794044392195" lon="12.72011609068531"><ele>925.6</ele><time>2026-04-18T11:00:06Z</time></trkpt><trkpt lat="42.41487588181603" lon="12.720070850911151"><ele>927.8</ele><time>2026-04-18T11:00:07Z</time></trkpt><trkpt lat="42.41496488767241" lon="12.720005382870191"><ele>930.0</ele><time>2026-04-18T11:00:08Z</time></trkpt><trkpt lat="42.415059650431154" lon="12.719960148048383"><ele>930.0</ele><time>2026-04-18T11:00:09Z</time></trkpt><trkpt lat="42.41515362884194" lon="12.719901779274844"><ele>930.0</ele><time>2026-04-18T11:00:10Z</time></trkpt><trkpt lat="42.41524937244173" lon="12.71983514729843"><ele>930.0</ele><time>2026-04-18T11:00:11Z</time></trkpt><trkpt lat="42.41535495698993" lon="12.719751069346733"><ele>930.0</ele><time>2026-04-18T11:00:12Z</time></trkpt><trkpt lat="42.41546998379987" lon="12.719663972417596"><ele>931.5</ele><time>2026-04-18T11:00:13Z</time></trkpt><trkpt lat="42.41557331089417" lon="12.719580164684867"><ele>933.0</ele><time>2026-04-18T11:00:14Z</time></trkpt><trkpt lat="42.41570290361267" lon="12.71950035079778"><ele>934.5</ele><time>2026-04-18T11:00:15Z</time></trkpt><trkpt lat="42.41580160617348" lon="12.71943692442918"><ele>936.0</ele><time>2026-04-18T11:00:16Z</time></trkpt><trkpt lat="42.41587645829996" lon="12.719392922854675"><ele>936.0</ele><time>2026-04-18T11:00:17Z</time></trkpt><trkpt lat="42.41595424599467" lon="12.719323172191503"><ele>935.9999999999999</ele><time>2026-04-18T11:00:18Z</time></trkpt><trkpt lat="42.41606316310512" lon="12.719269267432624"><ele>935.9999999999999</ele><time>2026-04-18T11:00:19Z</time></trkpt><trkpt lat="42.41616623243405" lon="12.719185290804656"><ele>936.0</ele><time>2026-04-18T11:00:20Z</time></trkpt><trkpt lat="42.41627425610046" lon="12.719148146867322"><ele>936.0</ele><time>2026-04-18T11:00:21Z</time></trkpt><trkpt lat="42.41638063096524" lon="12.719112714832386"><ele>941.0</ele><time>2026-04-18T11:00:22Z</time></trkpt><trkpt lat="42.416474409711974" lon="12.719085506915999"><ele>945.9999999999999</ele><time>2026-04-18T11:00:23Z</time></trkpt><trkpt lat="42.41656745309788" lon="12.719034713762303"><ele>950.9999999999999</ele><time>2026-04-18T11:00:24Z</time></trkpt><trkpt lat="42.41667219311307" lon="12.71897439882878"><ele>956.0</ele><time>2026-04-18T11:00:25Z</time></trkpt><trkpt lat="42.416786394522596" lon="12.718882430063239"><ele>961.0</ele><time>2026-04-18T11:00:26Z</time></trkpt><trkpt lat="42.41689732185224" lon="12.718767297724968"><ele>961.0</ele><time>2026-04-18T11:00:27Z</time></trkpt><trkpt lat="42.41699594772746" lon="12.718692252720325"><ele>960.9999999999999</ele><time>2026-04-18T11:00:28Z</time></trkpt><trkpt lat="42.41706593017494" lon="12.718626711665472"><ele>960.9999999999999</ele><time>2026-04-18T11:00:29Z</time></trkpt><trkpt lat="42.4171307877901" lon="12.718589563263224"><ele>961.0</ele><time>2026-04-18T11:00:30Z</time></trkpt><trkpt lat="42.41721452714746" lon="12.71852835671856"><ele>961.0</ele><time>2026-04-18T11:00:31Z</time></trkpt><trkpt lat="42.41732195460578" lon="12.718449822998291"><ele>961.25</ele><time>2026-04-18T11:00:32Z</time></trkpt><trkpt lat="42.417439142992436" lon="12.718359773100236"><ele>961.5</ele><time>2026-04-18T11:00:33Z</time></trkpt><trkpt lat="42.417571825639364" lon="12.718241816355825"><ele>961.75</ele><time>2026-04-18T11:00:34Z</time></trkpt><trkpt lat="42.417692295888926" lon="12.718143071752488"><ele>962.0</ele><time>2026-04-18T11:00:35Z</time></trkpt><trkpt lat="42.41780371804059" lon="12.718073044629488"><ele>962.0</ele><time>2026-04-18T11:00:36Z</time></trkpt><trkpt lat="42.41789290293762" lon="12.718001692370974"><ele>962.0</ele><time>2026-04-18T11:00:37Z</time></trkpt><trkpt lat="42.41797364482482" lon="12.717943979095041"><ele>962.0</ele><time>2026-04-18T11:00:38Z</time></trkpt><trkpt lat="42.418061973103775" lon="12.717886152149784"><ele>962.0</ele><time>2026-04-18T11:00:39Z</time></trkpt><trkpt lat="42.41815663326505" lon="12.71784329847032"><ele>962.0</ele><time>2026-04-18T11:00:40Z</time></trkpt><trkpt lat="42.41825297935061" lon="12.71781078860732"><ele>963.2</ele><time>2026-04-18T11:00:41Z</time></trkpt><trkpt lat="42.418345922687564" lon="12.717783172148497"><ele>964.4000000000001</ele><time>2026-04-18T11:00:42Z</time></trkpt><trkpt lat="42.418442040745084" lon="12.717750832352749"><ele>965.5999999999999</ele><time>2026-04-18T11:00:43Z</time></trkpt><trkpt lat="42.41854372702095" lon="12.71770638159213"><ele>966.8</ele><time>2026-04-18T11:00:44Z</time></trkpt><trkpt lat="42.41865128188768" lon="12.717645275773087"><ele>968.0</ele><time>2026-04-18T11:00:45Z</time></trkpt><trkpt lat="42.41876508496117" lon="12.717597045840927"><ele>972.75</ele><time>2026-04-18T11:00:46Z</time></trkpt><trkpt lat="42.41887535438758" lon="12.717567521868874"><ele>977.5</ele><time>2026-04-18T11:00:47Z</time></trkpt><trkpt lat="42.41899698178522" lon="12.71751810374449"><ele>982.25</ele><time>2026-04-18T11:00:48Z</time></trkpt><trkpt lat="42.419116880199056" lon="12.717488826077728"><ele>987.0</ele><time>2026-04-18T11:00:49Z</time></trkpt><trkpt lat="42.41923520465998" lon="12.717456820383925"><ele>987.0</ele><time>2026-04-18T11:00:50Z</time></trkpt><trkpt lat="42.41934243632025" lon="12.717425018601991"><ele>987.0</ele><time>2026-04-18T11:00:51Z</time></trkpt><trkpt lat="42.419424811443804" lon="12.717390933743665"><ele>987.0</ele><time>2026-04-18T11:00:52Z</time></trkpt><trkpt lat="42.41949955801847" lon="12.717372484381396"><ele>987.0</ele><time>2026-04-18T11:00:53Z</time></trkpt><trkpt lat="42.41960105529663" lon="12.71733395423458"><ele>987.0</ele><time>2026-04-18T11:00:54Z</time></trkpt><trkpt lat="42.41972571786915" lon="12.71728089743514"><ele>987.8</ele><time>2026-04-18T11:00:55Z</time></trkpt><trkpt lat="42.41978943013239" lon="12.717208087615955"><ele>988.6</ele><time>2026-04-18T11:00:56Z</time></trkpt><trkpt lat="42.41986168357889" lon="12.717143067811477"><ele>989.3999999999999</ele><time>2026-04-18T11:00:57Z</time></trkpt><trkpt lat="42.419940265714594" lon="12.717064476028414"><ele>990.1999999999999</ele><time>2026-04-18T11:00:58Z</time></trkpt><trkpt lat="42.42003615447822" lon="12.716974974228902"><ele>991.0</ele><time>2026-04-18T11:00:59Z</time></trkpt><trkpt lat="42.42011843577844" lon="12.716848362379924"><ele>991.1999999999999</ele><time>2026-04-18T11:01:00Z</time></trkpt><trkpt lat="42.42018040456032" lon="12.716759327238861"><ele>991.3999999999999</ele><time>2026-04-18T11:01:01Z</time></trkpt><trkpt lat="42.42025891189693" lon="12.716694684672914"><ele>991.6</ele><time>2026-04-18T11:01:02Z</time></trkpt><trkpt lat="42.4203442968014" lon="12.716599655353926"><ele>991.8</ele><time>2026-04-18T11:01:03Z</time></trkpt><trkpt lat="42.420421852898336" lon="12.716524061108407"><ele>992.0</ele><time>2026-04-18T11:01:04Z</time></trkpt><trkpt lat="42.42051383028413" lon="12.716482295714759"><ele>992.6</ele><time>2026-04-18T11:01:05Z</time></trkpt><trkpt lat="42.420641500055055" lon="12.716471405651118"><ele>993.2</ele><time>2026-04-18T11:01:06Z</time></trkpt><trkpt lat="42.4207658036578" lon="12.716478632733885"><ele>993.8</ele><time>2026-04-18T11:01:07Z</time></trkpt><trkpt lat="42.420874829342765" lon="12.71651326376503"><ele>994.4</ele><time>2026-04-18T11:01:08Z</time></trkpt><trkpt lat="42.42094868520905" lon="12.716562026335053"><ele>995.0</ele><time>2026-04-18T11:01:09Z</time></trkpt><trkpt lat="42.42101251286005" lon="12.716647115018418"><ele>995.0000000000001</ele><time>2026-04-18T11:01:10Z</time></trkpt><trkpt lat="42.42105909626352" lon="12.7167380206109"><ele>995.0</ele><time>2026-04-18T11:01:11Z</time></trkpt><trkpt lat="42.421119378889365" lon="12.716830714354671"><ele>995.0</ele><time>2026-04-18T11:01:12Z</time></trkpt><trkpt lat="42.42117855366703" lon="12.716949372968626"><ele>995.0</ele><time>2026-04-18T11:01:13Z</time></trkpt><trkpt lat="42.42125218150646" lon="12.716987547024832"><ele>995.0000000000001</ele><time>2026-04-18T11:01:14Z</time></trkpt><trkpt lat="42.42132110512711" lon="12.717035670202065"><ele>995.0</ele><time>2026-04-18T11:01:15Z</time></trkpt><trkpt lat="42.421420784054796" lon="12.717089950973941"><ele>998.0</ele><time>2026-04-18T11:01:16Z</time></trkpt><trkpt lat="42.42151525494267" lon="12.717117134578134"><ele>1001.0</ele><time>2026-04-18T11:01:17Z</time></trkpt><trkpt lat="42.42161311137088" lon="12.717112571239685"><ele>1004.0</ele><time>2026-04-18T11:01:18Z</time></trkpt><trkpt lat="42.42170373153184" lon="12.717075937702816"><ele>1007.0</ele><time>2026-04-18T11:01:19Z</time></trkpt><trkpt lat="42.421788583447764" lon="12.717090800013477"><ele>1010.0</ele><time>2026-04-18T11:01:20Z</time></trkpt><trkpt lat="42.421865153047435" lon="12.717059079029605"><ele>1010.0</ele><time>2026-04-18T11:01:21Z</time></trkpt><trkpt lat="42.421954886487924" lon="12.71701337914553"><ele>1010.0</ele><time>2026-04-18T11:01:22Z</time></trkpt><trkpt lat="42.42205219228198" lon="12.71696846622602"><ele>1010.0</ele><time>2026-04-18T11:01:23Z</time></trkpt><trkpt lat="42.42214808162841" lon="12.716995951544854"><ele>1010.0</ele><time>2026-04-18T11:01:24Z</time></trkpt><trkpt lat="42.42224577136542" lon="12.716991938217234"><ele>1010.0</ele><time>2026-04-18T11:01:25Z</time></trkpt><trkpt lat="42.4223575184004" lon="12.716968139813172"><ele>1008.6</ele><time>2026-04-18T11:01:26Z</time></trkpt><trkpt lat="42.42244213322528" lon="12.716981650276256"><ele>1007.2</ele><time>2026-04-18T11:01:27Z</time></trkpt><trkpt lat="42.422532683409024" lon="12.71701387530658"><ele>1005.8</ele><time>2026-04-18T11:01:28Z</time></trkpt><trkpt lat="42.42263888370694" lon="12.717088903743441"><ele>1004.4</ele><time>2026-04-18T11:01:29Z</time></trkpt><trkpt lat="42.422724707155396" lon="12.717142022417061"><ele>1003.0</ele><time>2026-04-18T11:01:30Z</time></trkpt><trkpt lat="42.422826796353434" lon="12.717199069380852"><ele>1003.0</ele><time>2026-04-18T11:01:31Z</time></trkpt><trkpt lat="42.422926924935354" lon="12.717235647995176"><ele>1003.0</ele><time>2026-04-18T11:01:32Z</time></trkpt><trkpt lat="42.423016406382565" lon="12.717247591520863"><ele>1003.0</ele><time>2026-04-18T11:01:33Z</time></trkpt><trkpt lat="42.423113901502575" lon="12.717278081148233"><ele>1003.0</ele><time>2026-04-18T11:01:34Z</time></trkpt><trkpt lat="42.42322158645209" lon="12.71731479356514"><ele>1003.0</ele><time>2026-04-18T11:01:35Z</time></trkpt><trkpt lat="42.423324686378095" lon="12.717350528868861"><ele>999.2</ele><time>2026-04-18T11:01:36Z</time></trkpt><trkpt lat="42.423414886896616" lon="12.717391886700499"><ele>995.4</ele><time>2026-04-18T11:01:37Z</time></trkpt><trkpt lat="42.423495428912425" lon="12.717465214537672"><ele>991.6000000000001</ele><time>2026-04-18T11:01:38Z</time></trkpt><trkpt lat="42.42358063208471" lon="12.717549380338427"><ele>987.8000000000001</ele><time>2026-04-18T11:01:39Z</time></trkpt><trkpt lat="42.42363240112411" lon="12.717619054242814"><ele>984.0</ele><time>2026-04-18T11:01:40Z</time></trkpt><trkpt lat="42.42373104231744" lon="12.717680248402859"><ele>984.0</ele><time>2026-04-18T11:01:42Z</time></trkpt><trkpt lat="42.42379061238812" lon="12.717638451903666"><ele>984.0</ele><time>2026-04-18T11:01:43Z</time></trkpt><trkpt lat="42.42385162563012" lon="12.717574916929435"><ele>984.0</ele><time>2026-04-18T11:01:44Z</time></trkpt><trkpt lat="42.42390526111435" lon="12.717521100523701"><ele>984.0</ele><time>2026-04-18T11:01:45Z</time></trkpt><trkpt lat="42.42403609952251" lon="12.717515043659727"><ele>984.0</ele><time>2026-04-18T11:01:47Z</time></trkpt><trkpt lat="42.42410062125957" lon="12.717546050407654"><ele>984.0</ele><time>2026-04-18T11:01:48Z</time></trkpt><trkpt lat="42.42415975919335" lon="12.717581032972978"><ele>982.1666666666666</ele><time>2026-04-18T11:01:49Z</time></trkpt><trkpt lat="42.424214655001805" lon="12.717627023352506"><ele>980.3333333333333</ele><time>2026-04-18T11:01:50Z</time></trkpt><trkpt lat="42.42425371763532" lon="12.717705593413365"><ele>978.5</ele><time>2026-04-18T11:01:51Z</time></trkpt><trkpt lat="42.42430401554352" lon="12.717802796546916"><ele>976.6666666666666</ele><time>2026-04-18T11:01:52Z</time></trkpt><trkpt lat="42.42438678894625" lon="12.71786038541974"><ele>974.8333333333333</ele><time>2026-04-18T11:01:53Z</time></trkpt><trkpt lat="42.42446839012576" lon="12.71791567172161"><ele>973.0</ele><time>2026-04-18T11:01:54Z</time></trkpt><trkpt lat="42.42456521820977" lon="12.718020872948058"><ele>974.25</ele><time>2026-04-18T11:01:55Z</time></trkpt><trkpt lat="42.42469864603593" lon="12.718134515155622"><ele>975.5</ele><time>2026-04-18T11:01:56Z</time></trkpt><trkpt lat="42.42477377202979" lon="12.718197387977295"><ele>976.75</ele><time>2026-04-18T11:01:57Z</time></trkpt><trkpt lat="42.42484844106427" lon="12.718280451399758"><ele>978.0</ele><time>2026-04-18T11:01:58Z</time></trkpt><trkpt lat="42.42495043663916" lon="12.718367246290235"><ele>978.0</ele><time>2026-04-18T11:01:59Z</time></trkpt><trkpt lat="42.425059488029675" lon="12.718447851010529"><ele>978.0</ele><time>2026-04-18T11:02:00Z</time></trkpt><trkpt lat="42.42518841008067" lon="12.718511811546074"><ele>978.0</ele><time>2026-04-18T11:02:01Z</time></trkpt><trkpt lat="42.42530924083251" lon="12.718574976494507"><ele>978.0</ele><time>2026-04-18T11:02:02Z</time></trkpt><trkpt lat="42.42543842459232" lon="12.71864812951114"><ele>978.25</ele><time>2026-04-18T11:02:03Z</time></trkpt><trkpt lat="42.42554381120649" lon="12.718731521295409"><ele>978.5</ele><time>2026-04-18T11:02:04Z</time></trkpt><trkpt lat="42.42564906481755" lon="12.718810758332072"><ele>978.75</ele><time>2026-04-18T11:02:05Z</time></trkpt><trkpt lat="42.425734783369265" lon="12.718877938582562"><ele>979.0</ele><time>2026-04-18T11:02:06Z</time></trkpt><trkpt lat="42.42580904088874" lon="12.719033384441525"><ele>978.9999999999999</ele><time>2026-04-18T11:02:08Z</time></trkpt><trkpt lat="42.4258389345794" lon="12.71913992110799"><ele>979.0</ele><time>2026-04-18T11:02:09Z</time></trkpt><trkpt lat="42.42587816451589" lon="12.719226537046975"><ele>979.0</ele><time>2026-04-18T11:02:10Z</time></trkpt><trkpt lat="42.42591149001572" lon="12.719334695263724"><ele>979.0</ele><time>2026-04-18T11:02:11Z</time></trkpt><trkpt lat="42.42594846550341" lon="12.719456181968798"><ele>978.9999999999999</ele><time>2026-04-18T11:02:12Z</time></trkpt><trkpt lat="42.42596129318982" lon="12.719597528232356"><ele>979.0</ele><time>2026-04-18T11:02:13Z</time></trkpt><trkpt lat="42.42599652282085" lon="12.719731955817764"><ele>978.4000000000001</ele><time>2026-04-18T11:02:14Z</time></trkpt><trkpt lat="42.426039547165544" lon="12.71985058897366"><ele>977.8000000000001</ele><time>2026-04-18T11:02:15Z</time></trkpt><trkpt lat="42.426082095707" lon="12.719924484021618"><ele>977.1999999999999</ele><time>2026-04-18T11:02:16Z</time></trkpt><trkpt lat="42.42614826791703" lon="12.719960549334205"><ele>976.5999999999999</ele><time>2026-04-18T11:02:17Z</time></trkpt><trkpt lat="42.426242703729606" lon="12.719972200912162"><ele>976.0</ele><time>2026-04-18T11:02:18Z</time></trkpt><trkpt lat="42.42636204295233" lon="12.719970352495405"><ele>975.9999999999999</ele><time>2026-04-18T11:02:19Z</time></trkpt><trkpt lat="42.42644007650017" lon="12.719960965635824"><ele>976.0</ele><time>2026-04-18T11:02:20Z</time></trkpt><trkpt lat="42.42652140297063" lon="12.720015997339258"><ele>976.0</ele><time>2026-04-18T11:02:21Z</time></trkpt><trkpt lat="42.426569235113654" lon="12.720122003655135"><ele>976.0</ele><time>2026-04-18T11:02:22Z</time></trkpt><trkpt lat="42.42660175006033" lon="12.72022631142175"><ele>975.9999999999999</ele><time>2026-04-18T11:02:23Z</time></trkpt><trkpt lat="42.42661514602715" lon="12.72031018508934"><ele>976.0</ele><time>2026-04-18T11:02:24Z</time></trkpt><trkpt lat="42.4266357884513" lon="12.720446520300802"><ele>977.5999999999999</ele><time>2026-04-18T11:02:26Z</time></trkpt><trkpt lat="42.42663290356922" lon="12.720532488390532"><ele>979.1999999999999</ele><time>2026-04-18T11:02:27Z</time></trkpt><trkpt lat="42.42660322872412" lon="12.720698965403415"><ele>980.8000000000001</ele><time>2026-04-18T11:02:29Z</time></trkpt><trkpt lat="42.426641484351094" lon="12.72084028194064"><ele>982.4000000000001</ele><time>2026-04-18T11:02:31Z</time></trkpt><trkpt lat="42.426690676005606" lon="12.720895297622974"><ele>984.0</ele><time>2026-04-18T11:02:32Z</time></trkpt><trkpt lat="42.426782616884495" lon="12.72100082290466"><ele>984.75</ele><time>2026-04-18T11:02:34Z</time></trkpt><trkpt lat="42.42686841441778" lon="12.721126168525759"><ele>985.5</ele><time>2026-04-18T11:02:36Z</time></trkpt><trkpt lat="42.426954733214274" lon="12.721185732550301"><ele>986.25</ele><time>2026-04-18T11:02:38Z</time></trkpt><trkpt lat="42.42707514830744" lon="12.721119417744516"><ele>987.0</ele><time>2026-04-18T11:02:40Z</time></trkpt><trkpt lat="42.42718017759919" lon="12.721037754434866"><ele>985.5</ele><time>2026-04-18T11:02:41Z</time></trkpt><trkpt lat="42.42727377938864" lon="12.720941767526435"><ele>984.0</ele><time>2026-04-18T11:02:42Z</time></trkpt><trkpt lat="42.42738006865531" lon="12.720849370259243"><ele>982.5</ele><time>2026-04-18T11:02:43Z</time></trkpt><trkpt lat="42.42750724225258" lon="12.720753463997342"><ele>981.0</ele><time>2026-04-18T11:02:44Z</time></trkpt><trkpt lat="42.42762619532366" lon="12.720645643885161"><ele>981.0</ele><time>2026-04-18T11:02:45Z</time></trkpt><trkpt lat="42.42774970140283" lon="12.720544539294115"><ele>981.0</ele><time>2026-04-18T11:02:46Z</time></trkpt><trkpt lat="42.427869138008205" lon="12.720429599385417"><ele>981.0</ele><time>2026-04-18T11:02:47Z</time></trkpt><trkpt lat="42.42798839539311" lon="12.720336181852057"><ele>981.0</ele><time>2026-04-18T11:02:48Z</time></trkpt><trkpt lat="42.428092747440246" lon="12.7202325071936"><ele>981.0</ele><time>2026-04-18T11:02:49Z</time></trkpt><trkpt lat="42.42818554402129" lon="12.720113136425637"><ele>981.0</ele><time>2026-04-18T11:02:50Z</time></trkpt><trkpt lat="42.42825443309779" lon="12.719968120100908"><ele>981.0</ele><time>2026-04-18T11:02:51Z</time></trkpt><trkpt lat="42.42831360451909" lon="12.719819438946779"><ele>981.0</ele><time>2026-04-18T11:02:52Z</time></trkpt><trkpt lat="42.42836388836607" lon="12.719695479505043"><ele>981.0</ele><time>2026-04-18T11:02:53Z</time></trkpt><trkpt lat="42.42841498744901" lon="12.719595197889927"><ele>980.9999999999999</ele><time>2026-04-18T11:02:54Z</time></trkpt><trkpt lat="42.4284772200146" lon="12.719485394405279"><ele>980.9999999999999</ele><time>2026-04-18T11:02:55Z</time></trkpt><trkpt lat="42.428543833184634" lon="12.719375803787955"><ele>981.0</ele><time>2026-04-18T11:02:56Z</time></trkpt><trkpt lat="42.42862575001745" lon="12.719285568412031"><ele>981.0</ele><time>2026-04-18T11:02:57Z</time></trkpt><trkpt lat="42.42870613470251" lon="12.71922136830506"><ele>983.25</ele><time>2026-04-18T11:02:58Z</time></trkpt><trkpt lat="42.42878900816729" lon="12.719148466587253"><ele>985.5</ele><time>2026-04-18T11:02:59Z</time></trkpt><trkpt lat="42.42886643400514" lon="12.719050937451641"><ele>987.75</ele><time>2026-04-18T11:03:00Z</time></trkpt><trkpt lat="42.4289474838958" lon="12.718930204237267"><ele>990.0</ele><time>2026-04-18T11:03:01Z</time></trkpt><trkpt lat="42.42903168735313" lon="12.718803564554923"><ele>994.0</ele><time>2026-04-18T11:03:02Z</time></trkpt><trkpt lat="42.42912259324101" lon="12.718671283006712"><ele>998.0</ele><time>2026-04-18T11:03:03Z</time></trkpt><trkpt lat="42.429205798192676" lon="12.718554792903753"><ele>1002.0</ele><time>2026-04-18T11:03:04Z</time></trkpt><trkpt lat="42.42927314766329" lon="12.71844198858737"><ele>1006.0</ele><time>2026-04-18T11:03:05Z</time></trkpt><trkpt lat="42.42933218748832" lon="12.718343595373709"><ele>1006.8</ele><time>2026-04-18T11:03:06Z</time></trkpt><trkpt lat="42.429369362104" lon="12.71824542290481"><ele>1007.5999999999999</ele><time>2026-04-18T11:03:07Z</time></trkpt><trkpt lat="42.42941880407021" lon="12.718144943225301"><ele>1008.4</ele><time>2026-04-18T11:03:08Z</time></trkpt><trkpt lat="42.42949737123951" lon="12.718045215961544"><ele>1009.2</ele><time>2026-04-18T11:03:09Z</time></trkpt><trkpt lat="42.42958322746032" lon="12.717942084648605"><ele>1010.0</ele><time>2026-04-18T11:03:10Z</time></trkpt><trkpt lat="42.4296366999631" lon="12.717866512652048"><ele>1012.6666666666667</ele><time>2026-04-18T11:03:11Z</time></trkpt><trkpt lat="42.429701387161764" lon="12.717659407939962"><ele>1015.3333333333333</ele><time>2026-04-18T11:03:13Z</time></trkpt><trkpt lat="42.42975131470518" lon="12.717470637204242"><ele>1018.0</ele><time>2026-04-18T11:03:14Z</time></trkpt><trkpt lat="42.42983444738518" lon="12.71730975026782"><ele>1018.0</ele><time>2026-04-18T11:03:15Z</time></trkpt><trkpt lat="42.429916470750726" lon="12.717170721136606"><ele>1018.0</ele><time>2026-04-18T11:03:16Z</time></trkpt><trkpt lat="42.430004237053474" lon="12.71707344437318"><ele>1018.0</ele><time>2026-04-18T11:03:17Z</time></trkpt><trkpt lat="42.430110500018074" lon="12.716995781720376"><ele>1018.0</ele><time>2026-04-18T11:03:18Z</time></trkpt><trkpt lat="42.4301841783223" lon="12.71690570027993"><ele>1018.0</ele><time>2026-04-18T11:03:19Z</time></trkpt><trkpt lat="42.4302487234747" lon="12.716827879961828"><ele>1018.0</ele><time>2026-04-18T11:03:21Z</time></trkpt><trkpt lat="42.430365238129625" lon="12.716914634803802"><ele>1018.0</ele><time>2026-04-18T11:03:23Z</time></trkpt><trkpt lat="42.43048319203622" lon="12.716944476752838"><ele>1018.0</ele><time>2026-04-18T11:03:24Z</time></trkpt><trkpt lat="42.43062283266485" lon="12.716915161109068"><ele>1017.25</ele><time>2026-04-18T11:03:25Z</time></trkpt><trkpt lat="42.430727781831635" lon="12.716855718530267"><ele>1016.5</ele><time>2026-04-18T11:03:26Z</time></trkpt><trkpt lat="42.43084619548085" lon="12.716765278967934"><ele>1015.75</ele><time>2026-04-18T11:03:27Z</time></trkpt><trkpt lat="42.43095122777589" lon="12.716685185137628"><ele>1015.0</ele><time>2026-04-18T11:03:28Z</time></trkpt><trkpt lat="42.43104150855063" lon="12.71659735021394"><ele>1015.0</ele><time>2026-04-18T11:03:29Z</time></trkpt><trkpt lat="42.431129481516784" lon="12.716536698381523"><ele>1015.0</ele><time>2026-04-18T11:03:30Z</time></trkpt><trkpt lat="42.43122304227207" lon="12.716496533852993"><ele>1015.0</ele><time>2026-04-18T11:03:31Z</time></trkpt><trkpt lat="42.4313469379515" lon="12.716462240387266"><ele>1015.0</ele><time>2026-04-18T11:03:32Z</time></trkpt><trkpt lat="42.43146916545483" lon="12.716481317743488"><ele>1015.0</ele><time>2026-04-18T11:03:33Z</time></trkpt><trkpt lat="42.43157988737628" lon="12.716515528181265"><ele>1015.1666666666666</ele><time>2026-04-18T11:03:34Z</time></trkpt><trkpt lat="42.43168566384263" lon="12.716515046024226"><ele>1015.3333333333333</ele><time>2026-04-18T11:03:35Z</time></trkpt><trkpt lat="42.43176651698671" lon="12.716539546461854"><ele>1015.5</ele><time>2026-04-18T11:03:36Z</time></trkpt><trkpt lat="42.43186033103573" lon="12.71650879239086"><ele>1015.6666666666667</ele><time>2026-04-18T11:03:37Z</time></trkpt><trkpt lat="42.431939147063034" lon="12.716545358552851"><ele>1015.8333333333334</ele><time>2026-04-18T11:03:38Z</time></trkpt><trkpt lat="42.431997294944935" lon="12.716597004726717"><ele>1016.0</ele><time>2026-04-18T11:03:39Z</time></trkpt><trkpt lat="42.432090006969574" lon="12.71673585570441"><ele>1016.8</ele><time>2026-04-18T11:03:40Z</time></trkpt><trkpt lat="42.432162857775324" lon="12.716819357751717"><ele>1017.5999999999999</ele><time>2026-04-18T11:03:41Z</time></trkpt><trkpt lat="42.43224525666349" lon="12.716907589882762"><ele>1018.4</ele><time>2026-04-18T11:03:42Z</time></trkpt><trkpt lat="42.4323050818492" lon="12.717005331456205"><ele>1019.2</ele><time>2026-04-18T11:03:43Z</time></trkpt><trkpt lat="42.432388327701865" lon="12.717094068664686"><ele>1020.0</ele><time>2026-04-18T11:03:44Z</time></trkpt><trkpt lat="42.43248935638877" lon="12.717149436620646"><ele>1018.2</ele><time>2026-04-18T11:03:45Z</time></trkpt><trkpt lat="42.432580082874416" lon="12.717219118391226"><ele>1016.4</ele><time>2026-04-18T11:03:46Z</time></trkpt><trkpt lat="42.43270794577484" lon="12.717371632915059"><ele>1014.5999999999999</ele><time>2026-04-18T11:03:48Z</time></trkpt><trkpt lat="42.43272127301595" lon="12.717464204606127"><ele>1012.8</ele><time>2026-04-18T11:03:49Z</time></trkpt><trkpt lat="42.43273563517895" lon="12.717576553438949"><ele>1011.0</ele><time>2026-04-18T11:03:50Z</time></trkpt><trkpt lat="42.43279870543752" lon="12.717648339515138"><ele>1011.8333333333334</ele><time>2026-04-18T11:03:51Z</time></trkpt><trkpt lat="42.43286308341184" lon="12.717739655265673"><ele>1012.6666666666667</ele><time>2026-04-18T11:03:52Z</time></trkpt><trkpt lat="42.432906115640264" lon="12.717844604468635"><ele>1013.5</ele><time>2026-04-18T11:03:53Z</time></trkpt><trkpt lat="42.432965963294414" lon="12.717927897376569"><ele>1014.3333333333334</ele><time>2026-04-18T11:03:54Z</time></trkpt><trkpt lat="42.43301243900574" lon="12.718004589617323"><ele>1015.1666666666667</ele><time>2026-04-18T11:03:55Z</time></trkpt><trkpt lat="42.43307557667717" lon="12.718090456691316"><ele>1016.0</ele><time>2026-04-18T11:03:56Z</time></trkpt><trkpt lat="42.433132341251174" lon="12.718175413636633"><ele>1012.8</ele><time>2026-04-18T11:03:57Z</time></trkpt><trkpt lat="42.4331988554802" lon="12.718270160150643"><ele>1009.5999999999999</ele><time>2026-04-18T11:03:58Z</time></trkpt><trkpt lat="42.43326250891946" lon="12.71837472254897"><ele>1006.4</ele><time>2026-04-18T11:03:59Z</time></trkpt><trkpt lat="42.433334757868074" lon="12.718471704475409"><ele>1003.2</ele><time>2026-04-18T11:04:00Z</time></trkpt><trkpt lat="42.43341832830018" lon="12.718566882403298"><ele>1000.0</ele><time>2026-04-18T11:04:01Z</time></trkpt><trkpt lat="42.433473137753964" lon="12.718656539030894"><ele>998.4</ele><time>2026-04-18T11:04:02Z</time></trkpt><trkpt lat="42.433519284931684" lon="12.718731912917496"><ele>996.8</ele><time>2026-04-18T11:04:03Z</time></trkpt><trkpt lat="42.43357155419581" lon="12.718837280600164"><ele>995.2</ele><time>2026-04-18T11:04:04Z</time></trkpt><trkpt lat="42.433632285711845" lon="12.718983921180225"><ele>993.6</ele><time>2026-04-18T11:04:05Z</time></trkpt><trkpt lat="42.433700709614676" lon="12.719098649488748"><ele>992.0</ele><time>2026-04-18T11:04:06Z</time></trkpt><trkpt lat="42.433756451500315" lon="12.719208648271639"><ele>991.2</ele><time>2026-04-18T11:04:07Z</time></trkpt><trkpt lat="42.433820258678196" lon="12.71931521219382"><ele>990.4000000000001</ele><time>2026-04-18T11:04:08Z</time></trkpt><trkpt lat="42.43388316798561" lon="12.719420718862592"><ele>989.5999999999999</ele><time>2026-04-18T11:04:09Z</time></trkpt><trkpt lat="42.43395720566562" lon="12.719537203039346"><ele>988.8</ele><time>2026-04-18T11:04:10Z</time></trkpt><trkpt lat="42.434024297543495" lon="12.71963320459832"><ele>988.0</ele><time>2026-04-18T11:04:11Z</time></trkpt><trkpt lat="42.43409229565475" lon="12.719724880631205"><ele>985.4</ele><time>2026-04-18T11:04:12Z</time></trkpt><trkpt lat="42.434145982110365" lon="12.719805242724727"><ele>982.8</ele><time>2026-04-18T11:04:13Z</time></trkpt><trkpt lat="42.43422313269517" lon="12.720003835789784"><ele>980.2</ele><time>2026-04-18T11:04:15Z</time></trkpt><trkpt lat="42.43428150231081" lon="12.720084691456186"><ele>977.6</ele><time>2026-04-18T11:04:16Z</time></trkpt><trkpt lat="42.43436391709419" lon="12.720174962669395"><ele>975.0</ele><time>2026-04-18T11:04:17Z</time></trkpt><trkpt lat="42.43443251456448" lon="12.72029036039111"><ele>974.2</ele><time>2026-04-18T11:04:18Z</time></trkpt><trkpt lat="42.434476070987394" lon="12.720400122405604"><ele>973.4</ele><time>2026-04-18T11:04:19Z</time></trkpt><trkpt lat="42.434510317302816" lon="12.720512392183005"><ele>972.5999999999999</ele><time>2026-04-18T11:04:20Z</time></trkpt><trkpt lat="42.434599804136276" lon="12.720634392928085"><ele>971.8</ele><time>2026-04-18T11:04:21Z</time></trkpt><trkpt lat="42.43468298367046" lon="12.720741494616222"><ele>971.0</ele><time>2026-04-18T11:04:22Z</time></trkpt><trkpt lat="42.43477466632934" lon="12.720853826069972"><ele>969.4</ele><time>2026-04-18T11:04:23Z</time></trkpt><trkpt lat="42.434849485365305" lon="12.720959214712877"><ele>967.8</ele><time>2026-04-18T11:04:24Z</time></trkpt><trkpt lat="42.43492511498644" lon="12.72104744595339"><ele>966.1999999999999</ele><time>2026-04-18T11:04:25Z</time></trkpt><trkpt lat="42.435007487109964" lon="12.72113420214473"><ele>964.5999999999999</ele><time>2026-04-18T11:04:26Z</time></trkpt><trkpt lat="42.43507793381806" lon="12.721223710224052"><ele>963.0</ele><time>2026-04-18T11:04:27Z</time></trkpt><trkpt lat="42.43516787021659" lon="12.721300531485014"><ele>961.5999999999999</ele><time>2026-04-18T11:04:28Z</time></trkpt><trkpt lat="42.4352751854577" lon="12.721350379998247"><ele>960.1999999999999</ele><time>2026-04-18T11:04:29Z</time></trkpt><trkpt lat="42.43538261808199" lon="12.721395629835206"><ele>958.8</ele><time>2026-04-18T11:04:30Z</time></trkpt><trkpt lat="42.43548033920964" lon="12.7214263685918"><ele>957.4</ele><time>2026-04-18T11:04:31Z</time></trkpt><trkpt lat="42.43557667747186" lon="12.721444881266345"><ele>956.0</ele><time>2026-04-18T11:04:32Z</time></trkpt><trkpt lat="42.43567964048706" lon="12.721427455817818"><ele>955.5999999999999</ele><time>2026-04-18T11:04:33Z</time></trkpt><trkpt lat="42.43576888831897" lon="12.721427947722994"><ele>955.1999999999999</ele><time>2026-04-18T11:04:34Z</time></trkpt><trkpt lat="42.4358567764808" lon="12.721395951854955"><ele>954.8000000000001</ele><time>2026-04-18T11:04:35Z</time></trkpt><trkpt lat="42.435939518360506" lon="12.721341386822255"><ele>954.4000000000001</ele><time>2026-04-18T11:04:36Z</time></trkpt><trkpt lat="42.4360493179195" lon="12.721248852905653"><ele>954.0</ele><time>2026-04-18T11:04:37Z</time></trkpt><trkpt lat="42.436161391670055" lon="12.721186287926292"><ele>954.0</ele><time>2026-04-18T11:04:38Z</time></trkpt><trkpt lat="42.43628545432695" lon="12.721170044845152"><ele>954.0000000000001</ele><time>2026-04-18T11:04:39Z</time></trkpt><trkpt lat="42.43639653250239" lon="12.721150361521682"><ele>954.0000000000001</ele><time>2026-04-18T11:04:40Z</time></trkpt><trkpt lat="42.43649782105248" lon="12.721134096324633"><ele>954.0</ele><time>2026-04-18T11:04:41Z</time></trkpt><trkpt lat="42.4365965751989" lon="12.721102079234806"><ele>954.0</ele><time>2026-04-18T11:04:42Z</time></trkpt><trkpt lat="42.43670593474645" lon="12.721028068204093"><ele>954.25</ele><time>2026-04-18T11:04:43Z</time></trkpt><trkpt lat="42.436825631600506" lon="12.720928786457721"><ele>954.5</ele><time>2026-04-18T11:04:44Z</time></trkpt><trkpt lat="42.43694017772863" lon="12.720869802123849"><ele>954.75</ele><time>2026-04-18T11:04:45Z</time></trkpt><trkpt lat="42.43704075403407" lon="12.720850523897044"><ele>955.0</ele><time>2026-04-18T11:04:46Z</time></trkpt><trkpt lat="42.43718828099219" lon="12.720748730025266"><ele>955.0</ele><time>2026-04-18T11:04:47Z</time></trkpt><trkpt lat="42.43728159619156" lon="12.720640399284793"><ele>955.0</ele><time>2026-04-18T11:04:48Z</time></trkpt><trkpt lat="42.43738334851895" lon="12.720558346004744"><ele>955.0</ele><time>2026-04-18T11:04:49Z</time></trkpt><trkpt lat="42.43750559414676" lon="12.720492644741997"><ele>955.0</ele><time>2026-04-18T11:04:50Z</time></trkpt><trkpt lat="42.437613588734784" lon="12.720445519024123"><ele>955.0</ele><time>2026-04-18T11:04:51Z</time></trkpt><trkpt lat="42.437713726398215" lon="12.720394955191702"><ele>955.0</ele><time>2026-04-18T11:04:52Z</time></trkpt><trkpt lat="42.437808653865766" lon="12.720320948490976"><ele>955.0</ele><time>2026-04-18T11:04:53Z</time></trkpt><trkpt lat="42.437880193174955" lon="12.720216800571025"><ele>955.0</ele><time>2026-04-18T11:04:54Z</time></trkpt><trkpt lat="42.43791841558698" lon="12.720099116657375"><ele>955.0</ele><time>2026-04-18T11:04:55Z</time></trkpt><trkpt lat="42.43796767256747" lon="12.719958896926325"><ele>955.0</ele><time>2026-04-18T11:04:56Z</time></trkpt><trkpt lat="42.43799159192297" lon="12.719827200518667"><ele>955.0</ele><time>2026-04-18T11:04:57Z</time></trkpt><trkpt lat="42.43806178696833" lon="12.719700525919095"><ele>955.0</ele><time>2026-04-18T11:04:58Z</time></trkpt><trkpt lat="42.4381500992978" lon="12.719565973174205"><ele>955.0</ele><time>2026-04-18T11:04:59Z</time></trkpt><trkpt lat="42.438234221667784" lon="12.719439994376286"><ele>952.75</ele><time>2026-04-18T11:05:00Z</time></trkpt><trkpt lat="42.43830922482874" lon="12.719320415599324"><ele>950.5</ele><time>2026-04-18T11:05:01Z</time></trkpt><trkpt lat="42.43838689657276" lon="12.719166088534358"><ele>948.25</ele><time>2026-04-18T11:05:02Z</time></trkpt><trkpt lat="42.438470049733475" lon="12.71902410264938"><ele>946.0</ele><time>2026-04-18T11:05:03Z</time></trkpt><trkpt lat="42.43854067676745" lon="12.71892117522265"><ele>945.9999999999999</ele><time>2026-04-18T11:05:04Z</time></trkpt><trkpt lat="42.43859806609246" lon="12.718838822594135"><ele>946.0</ele><time>2026-04-18T11:05:05Z</time></trkpt><trkpt lat="42.438646309681275" lon="12.718750823254918"><ele>946.0</ele><time>2026-04-18T11:05:06Z</time></trkpt><trkpt lat="42.43868968826513" lon="12.718667164213441"><ele>946.0</ele><time>2026-04-18T11:05:07Z</time></trkpt><trkpt lat="42.43876479130422" lon="12.718600033359419"><ele>945.9999999999999</ele><time>2026-04-18T11:05:08Z</time></trkpt><trkpt lat="42.43884249329153" lon="12.718578654156032"><ele>946.0</ele><time>2026-04-18T11:05:09Z</time></trkpt><trkpt lat="42.43899819888177" lon="12.718482971203908"><ele>943.9999999999999</ele><time>2026-04-18T11:05:11Z</time></trkpt><trkpt lat="42.439078639561146" lon="12.718420520464768"><ele>942.0</ele><time>2026-04-18T11:05:12Z</time></trkpt><trkpt lat="42.43914980398002" lon="12.718365113789392"><ele>940.0</ele><time>2026-04-18T11:05:13Z</time></trkpt><trkpt lat="42.4392297373737" lon="12.718293528007308"><ele>938.0</ele><time>2026-04-18T11:05:14Z</time></trkpt><trkpt lat="42.43930520948725" lon="12.718233701478756"><ele>935.9999999999999</ele><time>2026-04-18T11:05:15Z</time></trkpt><trkpt lat="42.43937001926848" lon="12.718170239289623"><ele>934.0</ele><time>2026-04-18T11:05:16Z</time></trkpt><trkpt lat="42.43942073646878" lon="12.718101547267969"><ele>934.0</ele><time>2026-04-18T11:05:17Z</time></trkpt><trkpt lat="42.43946416475631" lon="12.718039731590894"><ele>934.0000000000001</ele><time>2026-04-18T11:05:18Z</time></trkpt><trkpt lat="42.43951322894925" lon="12.717932900270029"><ele>934.0000000000001</ele><time>2026-04-18T11:05:19Z</time></trkpt><trkpt lat="42.439626313292905" lon="12.717838828841842"><ele>934.0</ele><time>2026-04-18T11:05:20Z</time></trkpt><trkpt lat="42.439703965578005" lon="12.717766300351093"><ele>934.0</ele><time>2026-04-18T11:05:21Z</time></trkpt><trkpt lat="42.43973406861604" lon="12.717678715707914"><ele>930.6</ele><time>2026-04-18T11:05:22Z</time></trkpt><trkpt lat="42.43978082882074" lon="12.71756227668365"><ele>927.2</ele><time>2026-04-18T11:05:24Z</time></trkpt><trkpt lat="42.43985681219148" lon="12.71749076597824"><ele>923.8000000000001</ele><time>2026-04-18T11:05:26Z</time></trkpt><trkpt lat="42.439971673266854" lon="12.717456380976758"><ele>920.4000000000001</ele><time>2026-04-18T11:05:28Z</time></trkpt><trkpt lat="42.44004963620472" lon="12.717456317603341"><ele>917.0</ele><time>2026-04-18T11:05:29Z</time></trkpt><trkpt lat="42.4402150315051" lon="12.717534454045126"><ele>917.0</ele><time>2026-04-18T11:05:31Z</time></trkpt><trkpt lat="42.440292490026" lon="12.717612363334398"><ele>917.0</ele><time>2026-04-18T11:05:32Z</time></trkpt><trkpt lat="42.44037308004432" lon="12.717682970808228"><ele>917.0</ele><time>2026-04-18T11:05:33Z</time></trkpt><trkpt lat="42.44051259946285" lon="12.717752197472205"><ele>917.0</ele><time>2026-04-18T11:05:35Z</time></trkpt><trkpt lat="42.44057121136492" lon="12.717822852032896"><ele>917.0</ele><time>2026-04-18T11:05:36Z</time></trkpt><trkpt lat="42.44065368929736" lon="12.717914938616522"><ele>920.4000000000001</ele><time>2026-04-18T11:05:37Z</time></trkpt><trkpt lat="42.44074930337344" lon="12.718013140312152"><ele>923.8000000000001</ele><time>2026-04-18T11:05:38Z</time></trkpt><trkpt lat="42.44084200411366" lon="12.718082302596436"><ele>927.2</ele><time>2026-04-18T11:05:39Z</time></trkpt><trkpt lat="42.44091381487222" lon="12.718170354615882"><ele>930.6</ele><time>2026-04-18T11:05:40Z</time></trkpt><trkpt lat="42.440998285278006" lon="12.718282107119252"><ele>934.0</ele><time>2026-04-18T11:05:41Z</time></trkpt><trkpt lat="42.44108215244644" lon="12.718407515607085"><ele>934.0</ele><time>2026-04-18T11:05:42Z</time></trkpt><trkpt lat="42.441182363786204" lon="12.718524214537432"><ele>934.0</ele><time>2026-04-18T11:05:43Z</time></trkpt><trkpt lat="42.441290465140796" lon="12.718611216241781"><ele>934.0</ele><time>2026-04-18T11:05:44Z</time></trkpt><trkpt lat="42.44138332926727" lon="12.718669490086405"><ele>934.0</ele><time>2026-04-18T11:05:45Z</time></trkpt><trkpt lat="42.44147491714569" lon="12.718700750510967"><ele>936.4000000000001</ele><time>2026-04-18T11:05:46Z</time></trkpt><trkpt lat="42.441554889980246" lon="12.71871990772293"><ele>938.8000000000001</ele><time>2026-04-18T11:05:47Z</time></trkpt><trkpt lat="42.4416312563264" lon="12.718777201984851"><ele>941.1999999999999</ele><time>2026-04-18T11:05:48Z</time></trkpt><trkpt lat="42.44171277035602" lon="12.71888823181689"><ele>943.5999999999999</ele><time>2026-04-18T11:05:49Z</time></trkpt><trkpt lat="42.441781964572975" lon="12.719001941005754"><ele>946.0</ele><time>2026-04-18T11:05:50Z</time></trkpt><trkpt lat="42.44185912805431" lon="12.719103528675184"><ele>946.0</ele><time>2026-04-18T11:05:51Z</time></trkpt><trkpt lat="42.4419534641555" lon="12.71919979138454"><ele>946.0</ele><time>2026-04-18T11:05:52Z</time></trkpt><trkpt lat="42.44204559157173" lon="12.719264740632457"><ele>946.0</ele><time>2026-04-18T11:05:53Z</time></trkpt><trkpt lat="42.44215687194166" lon="12.71931230403985"><ele>946.0</ele><time>2026-04-18T11:05:54Z</time></trkpt><trkpt lat="42.442292137766046" lon="12.71933138063624"><ele>947.1999999999999</ele><time>2026-04-18T11:05:55Z</time></trkpt><trkpt lat="42.44241270863538" lon="12.719358759308937"><ele>948.3999999999999</ele><time>2026-04-18T11:05:56Z</time></trkpt><trkpt lat="42.442493328515845" lon="12.719366893420608"><ele>949.6</ele><time>2026-04-18T11:05:57Z</time></trkpt><trkpt lat="42.442568018240614" lon="12.719439148645318"><ele>950.8</ele><time>2026-04-18T11:05:58Z</time></trkpt><trkpt lat="42.44266589546148" lon="12.71955869886943"><ele>952.0</ele><time>2026-04-18T11:05:59Z</time></trkpt><trkpt lat="42.442761856705474" lon="12.719677056621567"><ele>952.0</ele><time>2026-04-18T11:06:00Z</time></trkpt><trkpt lat="42.44286131778649" lon="12.719742969716808"><ele>952.0</ele><time>2026-04-18T11:06:01Z</time></trkpt><trkpt lat="42.44296543719219" lon="12.719785641663508"><ele>952.0</ele><time>2026-04-18T11:06:02Z</time></trkpt><trkpt lat="42.44308396656502" lon="12.719847468265026"><ele>952.0</ele><time>2026-04-18T11:06:03Z</time></trkpt><trkpt lat="42.44319411949174" lon="12.719885630463356"><ele>948.75</ele><time>2026-04-18T11:06:04Z</time></trkpt><trkpt lat="42.443314324020506" lon="12.719953038954062"><ele>945.5</ele><time>2026-04-18T11:06:05Z</time></trkpt><trkpt lat="42.443438337375795" lon="12.720002777881383"><ele>942.25</ele><time>2026-04-18T11:06:06Z</time></trkpt><trkpt lat="42.44355485509768" lon="12.72000915186107"><ele>939.0</ele><time>2026-04-18T11:06:07Z</time></trkpt><trkpt lat="42.443672470443644" lon="12.720032787368652"><ele>939.0</ele><time>2026-04-18T11:06:08Z</time></trkpt><trkpt lat="42.44379267022276" lon="12.720061500173504"><ele>939.0</ele><time>2026-04-18T11:06:09Z</time></trkpt><trkpt lat="42.44390254007566" lon="12.72008890242361"><ele>939.0</ele><time>2026-04-18T11:06:10Z</time></trkpt><trkpt lat="42.4440007255758" lon="12.720120428631244"><ele>939.0</ele><time>2026-04-18T11:06:11Z</time></trkpt><trkpt lat="42.444124876761194" lon="12.720173323041475"><ele>938.0</ele><time>2026-04-18T11:06:13Z</time></trkpt><trkpt lat="42.444244296553165" lon="12.720190763627222"><ele>937.0000000000001</ele><time>2026-04-18T11:06:15Z</time></trkpt><trkpt lat="42.44437161782173" lon="12.720262266170206"><ele>936.0000000000001</ele><time>2026-04-18T11:06:17Z</time></trkpt><trkpt lat="42.444441460964285" lon="12.72033087753389"><ele>935.0</ele><time>2026-04-18T11:06:18Z</time></trkpt><trkpt lat="42.444497521701855" lon="12.720395640573738"><ele>934.0</ele><time>2026-04-18T11:06:19Z</time></trkpt><trkpt lat="42.44458355225196" lon="12.72053918229723"><ele>935.3333333333333</ele><time>2026-04-18T11:06:21Z</time></trkpt><trkpt lat="42.44462243758841" lon="12.720616634029904"><ele>936.6666666666666</ele><time>2026-04-18T11:06:22Z</time></trkpt><trkpt lat="42.44466637203136" lon="12.72067782133465"><ele>938.0</ele><time>2026-04-18T11:06:23Z</time></trkpt><trkpt lat="42.44474561979945" lon="12.72077820726791"><ele>939.3333333333333</ele><time>2026-04-18T11:06:25Z</time></trkpt><trkpt lat="42.444789135551446" lon="12.720842875686541"><ele>940.6666666666666</ele><time>2026-04-18T11:06:27Z</time></trkpt><trkpt lat="42.44489610851992" lon="12.720935589270756"><ele>942.0</ele><time>2026-04-18T11:06:55Z</time></trkpt><trkpt lat="42.44498063112371" lon="12.72098200919768"><ele>942.0</ele><time>2026-04-18T11:06:56Z</time></trkpt><trkpt lat="42.44509242735728" lon="12.721010763229842"><ele>942.0</ele><time>2026-04-18T11:06:57Z</time></trkpt><trkpt lat="42.44520236160458" lon="12.720998898334006"><ele>942.0</ele><time>2026-04-18T11:06:58Z</time></trkpt><trkpt lat="42.445309138878116" lon="12.720954201441044"><ele>942.0</ele><time>2026-04-18T11:06:59Z</time></trkpt><trkpt lat="42.445396630858355" lon="12.720924111594764"><ele>942.0</ele><time>2026-04-18T11:07:00Z</time></trkpt><trkpt lat="42.44545969472552" lon="12.720882260863414"><ele>941.0</ele><time>2026-04-18T11:07:01Z</time></trkpt><trkpt lat="42.445501893117886" lon="12.7207751162315"><ele>940.0</ele><time>2026-04-18T11:07:02Z</time></trkpt><trkpt lat="42.445578951815456" lon="12.72067847628861"><ele>939.0</ele><time>2026-04-18T11:07:03Z</time></trkpt><trkpt lat="42.44565437881431" lon="12.720600848101403"><ele>938.0</ele><time>2026-04-18T11:07:04Z</time></trkpt><trkpt lat="42.44572424227614" lon="12.720549649141883"><ele>937.0</ele><time>2026-04-18T11:07:05Z</time></trkpt><trkpt lat="42.445796189204316" lon="12.720548301330561"><ele>936.0</ele><time>2026-04-18T11:07:06Z</time></trkpt><trkpt lat="42.445886331537004" lon="12.72066129054311"><ele>936.0</ele><time>2026-04-18T11:07:08Z</time></trkpt><trkpt lat="42.445952333187975" lon="12.720749148117582"><ele>936.0</ele><time>2026-04-18T11:07:09Z</time></trkpt><trkpt lat="42.445998329233475" lon="12.72082106794871"><ele>936.0</ele><time>2026-04-18T11:07:10Z</time></trkpt><trkpt lat="42.4461077546799" lon="12.720761153683304"><ele>936.0</ele><time>2026-04-18T11:07:12Z</time></trkpt><trkpt lat="42.446119114950676" lon="12.720669423535515"><ele>936.0</ele><time>2026-04-18T11:07:13Z</time></trkpt><trkpt lat="42.44617078160247" lon="12.720560430075585"><ele>936.0</ele><time>2026-04-18T11:07:14Z</time></trkpt><trkpt lat="42.446240533010815" lon="12.720415999906397"><ele>937.0</ele><time>2026-04-18T11:07:15Z</time></trkpt><trkpt lat="42.44630786178746" lon="12.72024099865157"><ele>938.0</ele><time>2026-04-18T11:07:16Z</time></trkpt><trkpt lat="42.44637231900523" lon="12.720098427538511"><ele>939.0</ele><time>2026-04-18T11:07:17Z</time></trkpt><trkpt lat="42.446445269246034" lon="12.720031292230413"><ele>940.0</ele><time>2026-04-18T11:07:18Z</time></trkpt><trkpt lat="42.446550968453955" lon="12.719949997794332"><ele>936.5</ele><time>2026-04-18T11:07:19Z</time></trkpt><trkpt lat="42.44666608360369" lon="12.719871814695146"><ele>933.0</ele><time>2026-04-18T11:07:20Z</time></trkpt><trkpt lat="42.44679906180571" lon="12.719771085333978"><ele>929.5</ele><time>2026-04-18T11:07:21Z</time></trkpt><trkpt lat="42.44691236446866" lon="12.719691205608756"><ele>926.0</ele><time>2026-04-18T11:07:22Z</time></trkpt><trkpt lat="42.44700803538624" lon="12.719593713018966"><ele>926.0</ele><time>2026-04-18T11:07:23Z</time></trkpt><trkpt lat="42.44711828082214" lon="12.719547622673273"><ele>926.0</ele><time>2026-04-18T11:07:24Z</time></trkpt><trkpt lat="42.44722454024259" lon="12.719520242727203"><ele>926.0</ele><time>2026-04-18T11:07:25Z</time></trkpt><trkpt lat="42.44734294405507" lon="12.7194518959573"><ele>926.0</ele><time>2026-04-18T11:07:26Z</time></trkpt><trkpt lat="42.44747794964518" lon="12.71931887805014"><ele>927.0</ele><time>2026-04-18T11:07:27Z</time></trkpt><trkpt lat="42.447616116506524" lon="12.719152533545534"><ele>928.0</ele><time>2026-04-18T11:07:28Z</time></trkpt><trkpt lat="42.44772838846198" lon="12.719002135235668"><ele>929.0</ele><time>2026-04-18T11:07:29Z</time></trkpt><trkpt lat="42.447830339721136" lon="12.718885440978829"><ele>929.0</ele><time>2026-04-18T11:07:30Z</time></trkpt><trkpt lat="42.447913262735995" lon="12.718794154901232"><ele>929.0000000000001</ele><time>2026-04-18T11:07:31Z</time></trkpt><trkpt lat="42.44797966127701" lon="12.71870239124216"><ele>929.0000000000001</ele><time>2026-04-18T11:07:32Z</time></trkpt><trkpt lat="42.44804751694764" lon="12.71865053201721"><ele>929.0</ele><time>2026-04-18T11:07:33Z</time></trkpt><trkpt lat="42.448142495394976" lon="12.718578095943247"><ele>929.0</ele><time>2026-04-18T11:07:34Z</time></trkpt><trkpt lat="42.4482693073089" lon="12.718518210294508"><ele>929.2</ele><time>2026-04-18T11:07:35Z</time></trkpt><trkpt lat="42.44840028307805" lon="12.718458080569803"><ele>929.4000000000001</ele><time>2026-04-18T11:07:36Z</time></trkpt><trkpt lat="42.448503099194674" lon="12.71838713910573"><ele>929.6</ele><time>2026-04-18T11:07:37Z</time></trkpt><trkpt lat="42.448552995452424" lon="12.718278360194804"><ele>929.8</ele><time>2026-04-18T11:07:38Z</time></trkpt><trkpt lat="42.4485896747066" lon="12.71818113771394"><ele>930.0</ele><time>2026-04-18T11:07:39Z</time></trkpt><trkpt lat="42.448634518704" lon="12.71802536489141"><ele>930.0</ele><time>2026-04-18T11:07:40Z</time></trkpt><trkpt lat="42.44867684376495" lon="12.717848291071608"><ele>930.0</ele><time>2026-04-18T11:07:41Z</time></trkpt><trkpt lat="42.448695902069886" lon="12.717690697761078"><ele>930.0</ele><time>2026-04-18T11:07:42Z</time></trkpt><trkpt lat="42.448725348312955" lon="12.717537036333042"><ele>930.0</ele><time>2026-04-18T11:07:43Z</time></trkpt><trkpt lat="42.44876017910196" lon="12.71735494415286"><ele>928.5</ele><time>2026-04-18T11:07:44Z</time></trkpt><trkpt lat="42.44881441547751" lon="12.717167237066874"><ele>927.0</ele><time>2026-04-18T11:07:45Z</time></trkpt><trkpt lat="42.448853447586316" lon="12.716999492072581"><ele>925.5</ele><time>2026-04-18T11:07:46Z</time></trkpt><trkpt lat="42.44888740190702" lon="12.716816253492162"><ele>924.0</ele><time>2026-04-18T11:07:47Z</time></trkpt><trkpt lat="42.448923238541845" lon="12.716653112965632"><ele>924.0</ele><time>2026-04-18T11:07:48Z</time></trkpt><trkpt lat="42.448965306328944" lon="12.716493578586311"><ele>924.0</ele><time>2026-04-18T11:07:49Z</time></trkpt><trkpt lat="42.4490006703787" lon="12.716337040237743"><ele>924.0</ele><time>2026-04-18T11:07:50Z</time></trkpt><trkpt lat="42.44903935419391" lon="12.716203499425477"><ele>924.0</ele><time>2026-04-18T11:07:51Z</time></trkpt><trkpt lat="42.44909231562507" lon="12.716082693494867"><ele>921.0</ele><time>2026-04-18T11:07:52Z</time></trkpt><trkpt lat="42.44915516573611" lon="12.715962947659143"><ele>918.0</ele><time>2026-04-18T11:07:53Z</time></trkpt><trkpt lat="42.44923753914334" lon="12.715800004004507"><ele>915.0</ele><time>2026-04-18T11:07:54Z</time></trkpt><trkpt lat="42.44930749471991" lon="12.715660031789392"><ele>912.0</ele><time>2026-04-18T11:07:55Z</time></trkpt><trkpt lat="42.44939347119674" lon="12.715513733648905"><ele>912.0</ele><time>2026-04-18T11:07:56.001Z</time></trkpt><trkpt lat="42.449474031236946" lon="12.715406464351151"><ele>912.0</ele><time>2026-04-18T11:07:57.001Z</time></trkpt><trkpt lat="42.449549465415934" lon="12.71527948504323"><ele>912.0</ele><time>2026-04-18T11:07:58.001Z</time></trkpt><trkpt lat="42.44961595316542" lon="12.715156504721273"><ele>912.0</ele><time>2026-04-18T11:07:59.001Z</time></trkpt><trkpt lat="42.449662049762274" lon="12.714995549610189"><ele>911.2</ele><time>2026-04-18T11:08:00.001Z</time></trkpt><trkpt lat="42.44967831304808" lon="12.714840770556844"><ele>910.4000000000001</ele><time>2026-04-18T11:08:01.001Z</time></trkpt><trkpt lat="42.449685741903565" lon="12.714716137016664"><ele>909.5999999999999</ele><time>2026-04-18T11:08:02.001Z</time></trkpt><trkpt lat="42.44971907262154" lon="12.714597335623417"><ele>908.8</ele><time>2026-04-18T11:08:03Z</time></trkpt><trkpt lat="42.44976327034399" lon="12.7145050810992"><ele>908.0</ele><time>2026-04-18T11:08:04Z</time></trkpt><trkpt lat="42.4498122726761" lon="12.714428683004089"><ele>905.2</ele><time>2026-04-18T11:08:05Z</time></trkpt><trkpt lat="42.44988471776008" lon="12.714379714925233"><ele>902.4</ele><time>2026-04-18T11:08:06Z</time></trkpt><trkpt lat="42.44998852956029" lon="12.714306583014936"><ele>899.6000000000001</ele><time>2026-04-18T11:08:07Z</time></trkpt><trkpt lat="42.45009650484836" lon="12.714245315842184"><ele>896.8000000000001</ele><time>2026-04-18T11:08:08Z</time></trkpt><trkpt lat="42.450182318486206" lon="12.714207640103156"><ele>894.0</ele><time>2026-04-18T11:08:09Z</time></trkpt><trkpt lat="42.45028497411549" lon="12.714198064646991"><ele>894.0</ele><time>2026-04-18T11:08:10Z</time></trkpt><trkpt lat="42.450417788556976" lon="12.714184273146147"><ele>894.0</ele><time>2026-04-18T11:08:11Z</time></trkpt><trkpt lat="42.450562554474274" lon="12.714159196275315"><ele>894.0</ele><time>2026-04-18T11:08:12Z</time></trkpt><trkpt lat="42.45069769784907" lon="12.714129345278455"><ele>894.0</ele><time>2026-04-18T11:08:13Z</time></trkpt><trkpt lat="42.45083397992241" lon="12.71408983966253"><ele>895.25</ele><time>2026-04-18T11:08:14Z</time></trkpt><trkpt lat="42.45095792541289" lon="12.71404943914922"><ele>896.5</ele><time>2026-04-18T11:08:15Z</time></trkpt><trkpt lat="42.451070884683496" lon="12.714013530878411"><ele>897.75</ele><time>2026-04-18T11:08:16Z</time></trkpt><trkpt lat="42.45117339424368" lon="12.713987398137146"><ele>899.0</ele><time>2026-04-18T11:08:17Z</time></trkpt><trkpt lat="42.45127426334613" lon="12.71395314533884"><ele>900.5</ele><time>2026-04-18T11:08:18Z</time></trkpt><trkpt lat="42.45137588465417" lon="12.713886091486426"><ele>902.0</ele><time>2026-04-18T11:08:19Z</time></trkpt><trkpt lat="42.451545203662846" lon="12.71396201915035"><ele>903.5</ele><time>2026-04-18T11:08:21Z</time></trkpt><trkpt lat="42.45168539990651" lon="12.713950599714094"><ele>905.0</ele><time>2026-04-18T11:08:22Z</time></trkpt><trkpt lat="42.45182904784962" lon="12.713921553434187"><ele>905.0</ele><time>2026-04-18T11:08:23Z</time></trkpt><trkpt lat="42.451969640844084" lon="12.713878051081105"><ele>905.0</ele><time>2026-04-18T11:08:24Z</time></trkpt><trkpt lat="42.45209095095323" lon="12.713816384661675"><ele>905.0</ele><time>2026-04-18T11:08:25Z</time></trkpt><trkpt lat="42.45222997752587" lon="12.713750390286265"><ele>905.0</ele><time>2026-04-18T11:08:26Z</time></trkpt><trkpt lat="42.452358891930515" lon="12.713679945352347"><ele>904.0</ele><time>2026-04-18T11:08:27Z</time></trkpt><trkpt lat="42.45246941630714" lon="12.713613894421238"><ele>903.0</ele><time>2026-04-18T11:08:28Z</time></trkpt><trkpt lat="42.452568086654935" lon="12.713519444229645"><ele>902.0</ele><time>2026-04-18T11:08:29Z</time></trkpt><trkpt lat="42.45263869679136" lon="12.713407506885389"><ele>901.0</ele><time>2026-04-18T11:08:30Z</time></trkpt><trkpt lat="42.452704855905516" lon="12.713304002547737"><ele>901.0</ele><time>2026-04-18T11:08:31Z</time></trkpt><trkpt lat="42.45273812830056" lon="12.71317425715415"><ele>900.9999999999999</ele><time>2026-04-18T11:08:32Z</time></trkpt><trkpt lat="42.45276957085418" lon="12.713033681052684"><ele>900.9999999999999</ele><time>2026-04-18T11:08:33Z</time></trkpt><trkpt lat="42.45281540278336" lon="12.712926186088048"><ele>901.0</ele><time>2026-04-18T11:08:34Z</time></trkpt><trkpt lat="42.4529187185797" lon="12.712830306223868"><ele>901.0</ele><time>2026-04-18T11:08:35Z</time></trkpt><trkpt lat="42.45304588933363" lon="12.71271172371991"><ele>902.3333333333333</ele><time>2026-04-18T11:08:36Z</time></trkpt><trkpt lat="42.453195621199455" lon="12.712589901343694"><ele>903.6666666666667</ele><time>2026-04-18T11:08:37Z</time></trkpt><trkpt lat="42.453329423517346" lon="12.71249006622953"><ele>905.0</ele><time>2026-04-18T11:08:38Z</time></trkpt><trkpt lat="42.45345323609821" lon="12.712357437906855"><ele>905.0</ele><time>2026-04-18T11:08:39Z</time></trkpt><trkpt lat="42.453557442974414" lon="12.712242194215818"><ele>905.0</ele><time>2026-04-18T11:08:40Z</time></trkpt><trkpt lat="42.45366683433068" lon="12.712118216430072"><ele>905.0</ele><time>2026-04-18T11:08:41Z</time></trkpt><trkpt lat="42.453786132156715" lon="12.712009948353078"><ele>905.0</ele><time>2026-04-18T11:08:42Z</time></trkpt><trkpt lat="42.453900870094216" lon="12.711890219297675"><ele>903.5</ele><time>2026-04-18T11:08:43Z</time></trkpt><trkpt lat="42.45403030589758" lon="12.711767451667745"><ele>902.0</ele><time>2026-04-18T11:08:44Z</time></trkpt><trkpt lat="42.454141310808275" lon="12.711642567219007"><ele>900.5</ele><time>2026-04-18T11:08:45Z</time></trkpt><trkpt lat="42.4542192687888" lon="12.711542164496958"><ele>899.0</ele><time>2026-04-18T11:08:46Z</time></trkpt><trkpt lat="42.45427206808741" lon="12.71147949983656"><ele>899.0000000000001</ele><time>2026-04-18T11:08:47Z</time></trkpt><trkpt lat="42.45434442657534" lon="12.711409688808125"><ele>899.0</ele><time>2026-04-18T11:08:49Z</time></trkpt><trkpt lat="42.45443374833761" lon="12.711321005134428"><ele>899.0</ele><time>2026-04-18T11:08:51Z</time></trkpt><trkpt lat="42.454502074462376" lon="12.711266343948534"><ele>899.0</ele><time>2026-04-18T11:08:52Z</time></trkpt><trkpt lat="42.45456450470735" lon="12.71120348347593"><ele>899.0000000000001</ele><time>2026-04-18T11:08:53Z</time></trkpt><trkpt lat="42.45462274393692" lon="12.711141869943395"><ele>899.0</ele><time>2026-04-18T11:08:54Z</time></trkpt><trkpt lat="42.45468361933509" lon="12.711069853134909"><ele>896.75</ele><time>2026-04-18T11:08:55Z</time></trkpt><trkpt lat="42.45471914185913" lon="12.710958931556261"><ele>894.5</ele><time>2026-04-18T11:08:56Z</time></trkpt><trkpt lat="42.45475122255445" lon="12.710784188548395"><ele>892.25</ele><time>2026-04-18T11:08:57Z</time></trkpt><trkpt lat="42.454773698052726" lon="12.710582743405375"><ele>890.0</ele><time>2026-04-18T11:08:58Z</time></trkpt><trkpt lat="42.45477721138857" lon="12.710445728074907"><ele>890.0</ele><time>2026-04-18T11:08:59Z</time></trkpt><trkpt lat="42.454779990993536" lon="12.710344486233991"><ele>890.0</ele><time>2026-04-18T11:09:00Z</time></trkpt><trkpt lat="42.45482825138136" lon="12.710239070160656"><ele>890.0</ele><time>2026-04-18T11:09:01Z</time></trkpt><trkpt lat="42.454893933792754" lon="12.710103413989659"><ele>890.0</ele><time>2026-04-18T11:09:02Z</time></trkpt><trkpt lat="42.45496942617257" lon="12.70997983583047"><ele>890.0</ele><time>2026-04-18T11:09:03Z</time></trkpt><trkpt lat="42.45506047249424" lon="12.709870650633693"><ele>888.75</ele><time>2026-04-18T11:09:04Z</time></trkpt><trkpt lat="42.4551485265372" lon="12.70974627474756"><ele>887.5</ele><time>2026-04-18T11:09:05Z</time></trkpt><trkpt lat="42.455214508460486" lon="12.709548331615874"><ele>886.25</ele><time>2026-04-18T11:09:06Z</time></trkpt><trkpt lat="42.455251421422" lon="12.709338817346728"><ele>885.0</ele><time>2026-04-18T11:09:07Z</time></trkpt><trkpt lat="42.455300539763265" lon="12.709125074959768"><ele>884.75</ele><time>2026-04-18T11:09:08Z</time></trkpt><trkpt lat="42.45534284928022" lon="12.70897408203298"><ele>884.5</ele><time>2026-04-18T11:09:09Z</time></trkpt><trkpt lat="42.45542134350738" lon="12.708873401336513"><ele>884.25</ele><time>2026-04-18T11:09:10Z</time></trkpt><trkpt lat="42.45555325764991" lon="12.708677601696447"><ele>884.0</ele><time>2026-04-18T11:09:11Z</time></trkpt><trkpt lat="42.45567935881677" lon="12.708522734619654"><ele>882.0</ele><time>2026-04-18T11:09:12Z</time></trkpt><trkpt lat="42.45580163121716" lon="12.708340206776384"><ele>880.0</ele><time>2026-04-18T11:09:13Z</time></trkpt><trkpt lat="42.455915714378605" lon="12.70818166069677"><ele>878.0</ele><time>2026-04-18T11:09:14Z</time></trkpt><trkpt lat="42.45600536682688" lon="12.708028115773516"><ele>878.0</ele><time>2026-04-18T11:09:15Z</time></trkpt><trkpt lat="42.45611675898266" lon="12.707858926438524"><ele>878.0</ele><time>2026-04-18T11:09:16Z</time></trkpt><trkpt lat="42.456248214826246" lon="12.707702703271206"><ele>878.0</ele><time>2026-04-18T11:09:17Z</time></trkpt><trkpt lat="42.45636868257041" lon="12.707528607242066"><ele>877.0</ele><time>2026-04-18T11:09:18Z</time></trkpt><trkpt lat="42.45648741113252" lon="12.707340938693774"><ele>876.0</ele><time>2026-04-18T11:09:19Z</time></trkpt><trkpt lat="42.456587872626216" lon="12.70718348516291"><ele>875.0</ele><time>2026-04-18T11:09:20Z</time></trkpt><trkpt lat="42.45667625903705" lon="12.707035730445362"><ele>874.75</ele><time>2026-04-18T11:09:21Z</time></trkpt><trkpt lat="42.4567647390089" lon="12.706869121950483"><ele>874.5</ele><time>2026-04-18T11:09:22Z</time></trkpt><trkpt lat="42.4568274387015" lon="12.706730064624457"><ele>874.25</ele><time>2026-04-18T11:09:23Z</time></trkpt><trkpt lat="42.45689474578397" lon="12.706614220900022"><ele>874.0</ele><time>2026-04-18T11:09:24Z</time></trkpt><trkpt lat="42.45694576212666" lon="12.706493750307958"><ele>874.0</ele><time>2026-04-18T11:09:25Z</time></trkpt><trkpt lat="42.4569591810193" lon="12.70637399475931"><ele>874.0</ele><time>2026-04-18T11:09:26Z</time></trkpt><trkpt lat="42.45692908016224" lon="12.706218193787203"><ele>874.0</ele><time>2026-04-18T11:09:27Z</time></trkpt><trkpt lat="42.45691605852597" lon="12.706036397634291"><ele>874.0</ele><time>2026-04-18T11:09:28Z</time></trkpt><trkpt lat="42.45690187726937" lon="12.70586537114167"><ele>873.8000000000001</ele><time>2026-04-18T11:09:29Z</time></trkpt><trkpt lat="42.45690368698569" lon="12.705727628337469"><ele>873.6000000000001</ele><time>2026-04-18T11:09:30Z</time></trkpt><trkpt lat="42.4569152149549" lon="12.70559573964652"><ele>873.4</ele><time>2026-04-18T11:09:31Z</time></trkpt><trkpt lat="42.45688197622366" lon="12.705521401831753"><ele>873.2</ele><time>2026-04-18T11:09:34Z</time></trkpt><trkpt lat="42.456793188053126" lon="12.705460874461497"><ele>873.0</ele><time>2026-04-18T11:09:36Z</time></trkpt><trkpt lat="42.45668185989413" lon="12.705433187765394"><ele>873.0</ele><time>2026-04-18T11:09:37Z</time></trkpt><trkpt lat="42.45655856133847" lon="12.705392302661318"><ele>873.0</ele><time>2026-04-18T11:09:38Z</time></trkpt><trkpt lat="42.456455902826036" lon="12.705330142812308"><ele>873.0</ele><time>2026-04-18T11:09:39Z</time></trkpt><trkpt lat="42.45634936783611" lon="12.70523829408187"><ele>873.0</ele><time>2026-04-18T11:09:40Z</time></trkpt><trkpt lat="42.4562497664666" lon="12.705152034099314"><ele>872.5</ele><time>2026-04-18T11:09:41Z</time></trkpt><trkpt lat="42.456145868798735" lon="12.705071955483886"><ele>872.0</ele><time>2026-04-18T11:09:42Z</time></trkpt><trkpt lat="42.45603734455231" lon="12.704964737081877"><ele>871.5</ele><time>2026-04-18T11:09:43Z</time></trkpt><trkpt lat="42.455908668980506" lon="12.704839343842789"><ele>871.0</ele><time>2026-04-18T11:09:44Z</time></trkpt><trkpt lat="42.45579274403962" lon="12.704731446215419"><ele>871.0</ele><time>2026-04-18T11:09:45Z</time></trkpt><trkpt lat="42.455696884124066" lon="12.704658764279705"><ele>870.9999999999999</ele><time>2026-04-18T11:09:46Z</time></trkpt><trkpt lat="42.4556178022466" lon="12.704615586252855"><ele>870.9999999999999</ele><time>2026-04-18T11:09:47Z</time></trkpt><trkpt lat="42.45552298552002" lon="12.704619169966307"><ele>871.0</ele><time>2026-04-18T11:09:48Z</time></trkpt><trkpt lat="42.455424624186094" lon="12.704699416223995"><ele>871.0</ele><time>2026-04-18T11:09:49Z</time></trkpt><trkpt lat="42.4553228469188" lon="12.704787852819702"><ele>870.3333333333333</ele><time>2026-04-18T11:09:50Z</time></trkpt><trkpt lat="42.45524289280844" lon="12.70486631130663"><ele>869.6666666666666</ele><time>2026-04-18T11:09:51Z</time></trkpt><trkpt lat="42.455157791308345" lon="12.70488865543925"><ele>869.0</ele><time>2026-04-18T11:09:52Z</time></trkpt><trkpt lat="42.45505417461971" lon="12.704891972035188"><ele>868.3333333333333</ele><time>2026-04-18T11:09:53Z</time></trkpt><trkpt lat="42.4549901392085" lon="12.704845244435608"><ele>867.6666666666666</ele><time>2026-04-18T11:09:54Z</time></trkpt><trkpt lat="42.4549276743563" lon="12.70478814388749"><ele>867.0</ele><time>2026-04-18T11:09:55Z</time></trkpt><trkpt lat="42.45484674925695" lon="12.704765935726847"><ele>867.0</ele><time>2026-04-18T11:09:57Z</time></trkpt><trkpt lat="42.45472352816893" lon="12.704711871777443"><ele>867.0</ele><time>2026-04-18T11:09:59Z</time></trkpt><trkpt lat="42.45460965756756" lon="12.704683100761919"><ele>867.0</ele><time>2026-04-18T11:10:01Z</time></trkpt><trkpt lat="42.454487931646185" lon="12.704622807640934"><ele>867.0</ele><time>2026-04-18T11:10:03.001Z</time></trkpt><trkpt lat="42.454427169082095" lon="12.704579821631725"><ele>867.0</ele><time>2026-04-18T11:10:04.001Z</time></trkpt><trkpt lat="42.454372759832154" lon="12.704525883972062"><ele>868.0</ele><time>2026-04-18T11:10:05.001Z</time></trkpt><trkpt lat="42.454307332053354" lon="12.70448925626057"><ele>869.0</ele><time>2026-04-18T11:10:06.001Z</time></trkpt><trkpt lat="42.454228187878705" lon="12.704486100937"><ele>870.0</ele><time>2026-04-18T11:10:07.001Z</time></trkpt><trkpt lat="42.45411175013492" lon="12.704416931950517"><ele>871.0</ele><time>2026-04-18T11:10:09.001Z</time></trkpt><trkpt lat="42.45406858244826" lon="12.704333237151545"><ele>872.0</ele><time>2026-04-18T11:10:10.001Z</time></trkpt><trkpt lat="42.45392084658302" lon="12.704305176640446"><ele>870.0000000000001</ele><time>2026-04-18T11:10:12.001Z</time></trkpt><trkpt lat="42.45383190967382" lon="12.704281648321487"><ele>868.0</ele><time>2026-04-18T11:10:13.001Z</time></trkpt><trkpt lat="42.45370345202417" lon="12.704265757467063"><ele>866.0</ele><time>2026-04-18T11:10:15.001Z</time></trkpt><trkpt lat="42.453636138570346" lon="12.704255872172325"><ele>864.0</ele><time>2026-04-18T11:10:16.001Z</time></trkpt><trkpt lat="42.45356949394285" lon="12.704231969228674"><ele>862.0000000000001</ele><time>2026-04-18T11:10:17Z</time></trkpt><trkpt lat="42.453487172514286" lon="12.704200531933987"><ele>860.0</ele><time>2026-04-18T11:10:18Z</time></trkpt><trkpt lat="42.45339626502028" lon="12.704173542819111"><ele>860.0000000000001</ele><time>2026-04-18T11:10:19Z</time></trkpt><trkpt lat="42.45331584940464" lon="12.704147137626403"><ele>860.0</ele><time>2026-04-18T11:10:20Z</time></trkpt><trkpt lat="42.453228637350854" lon="12.704112112057972"><ele>860.0</ele><time>2026-04-18T11:10:21Z</time></trkpt><trkpt lat="42.45315033458416" lon="12.704088619062444"><ele>860.0</ele><time>2026-04-18T11:10:22Z</time></trkpt><trkpt lat="42.453059214119214" lon="12.704034452988935"><ele>860.0000000000001</ele><time>2026-04-18T11:10:23Z</time></trkpt><trkpt lat="42.45297141541862" lon="12.704017490437167"><ele>860.0</ele><time>2026-04-18T11:10:24Z</time></trkpt><trkpt lat="42.45287542519408" lon="12.703979252874758"><ele>861.5</ele><time>2026-04-18T11:10:25Z</time></trkpt><trkpt lat="42.45275186974991" lon="12.703982067295795"><ele>863.0</ele><time>2026-04-18T11:10:26Z</time></trkpt><trkpt lat="42.45262187512916" lon="12.703918214490775"><ele>864.5</ele><time>2026-04-18T11:10:27Z</time></trkpt><trkpt lat="42.45252902583677" lon="12.703890685812217"><ele>866.0</ele><time>2026-04-18T11:10:28Z</time></trkpt><trkpt lat="42.452391215256334" lon="12.703876006495445"><ele>866.0000000000001</ele><time>2026-04-18T11:10:30Z</time></trkpt><trkpt lat="42.45231082560165" lon="12.703836093977973"><ele>866.0</ele><time>2026-04-18T11:10:31Z</time></trkpt><trkpt lat="42.45223887516717" lon="12.7037768268214"><ele>866.0</ele><time>2026-04-18T11:10:32Z</time></trkpt><trkpt lat="42.45219549216148" lon="12.703707212210398"><ele>866.0</ele><time>2026-04-18T11:10:33Z</time></trkpt><trkpt lat="42.45214743831418" lon="12.703636709546338"><ele>866.0000000000001</ele><time>2026-04-18T11:10:34Z</time></trkpt><trkpt lat="42.45211217510223" lon="12.703547628640337"><ele>866.0</ele><time>2026-04-18T11:10:35Z</time></trkpt><trkpt lat="42.45207901627598" lon="12.703424641406864"><ele>860.0</ele><time>2026-04-18T11:10:37Z</time></trkpt><trkpt lat="42.45201173495957" lon="12.703313591199025"><ele>860.0</ele><time>2026-04-18T11:10:39Z</time></trkpt><trkpt lat="42.451964287705835" lon="12.703221568148761"><ele>860.0</ele><time>2026-04-18T11:10:41Z</time></trkpt><trkpt lat="42.45192539601896" lon="12.703141706922658"><ele>860.0</ele><time>2026-04-18T11:10:43Z</time></trkpt><trkpt lat="42.4518611637667" lon="12.703152228408118"><ele>860.0</ele><time>2026-04-18T11:13:39Z</time></trkpt></trkseg><trkseg><trkpt lat="42.43756352900904" lon="12.70504914013665"><ele>816.0</ele><time>2026-04-18T11:18:45Z</time></trkpt><trkpt lat="42.43752133897709" lon="12.705130413504746"><ele>816.0</ele><time>2026-04-18T11:19:42Z</time></trkpt><trkpt lat="42.43748118644689" lon="12.705211267081358"><ele>816.0</ele><time>2026-04-18T11:19:43Z</time></trkpt><trkpt lat="42.437433394146595" lon="12.705286727536487"><ele>816.0</ele><time>2026-04-18T11:19:44Z</time></trkpt><trkpt lat="42.43737510919923" lon="12.705366660856038"><ele>816.0</ele><time>2026-04-18T11:19:45Z</time></trkpt><trkpt lat="42.43733460305995" lon="12.705434921391909"><ele>816.0</ele><time>2026-04-18T11:19:46Z</time></trkpt><trkpt lat="42.43737924088814" lon="12.70535906348802"><ele>816.0</ele><time>2026-04-18T11:19:54Z</time></trkpt><trkpt lat="42.43741095274416" lon="12.705285107876756"><ele>816.0</ele><time>2026-04-18T11:19:56Z</time></trkpt><trkpt lat="42.43748088727516" lon="12.70519895107335"><ele>816.0</ele><time>2026-04-18T11:19:58Z</time></trkpt><trkpt lat="42.437555426365954" lon="12.705072138001567"><ele>816.0</ele><time>2026-04-18T11:20:00Z</time></trkpt><trkpt lat="42.43758937319012" lon="12.704999932950235"><ele>816.0</ele><time>2026-04-18T11:20:01Z</time></trkpt><trkpt lat="42.43762308550781" lon="12.704909761317035"><ele>816.0</ele><time>2026-04-18T11:20:02Z</time></trkpt><trkpt lat="42.437659614720154" lon="12.704810456069968"><ele>816.0</ele><time>2026-04-18T11:20:03Z</time></trkpt><trkpt lat="42.43769836875379" lon="12.704735405759335"><ele>816.0</ele><time>2026-04-18T11:20:04Z</time></trkpt><trkpt lat="42.43774204126485" lon="12.704669947694185"><ele>816.0</ele><time>2026-04-18T11:20:05Z</time></trkpt><trkpt lat="42.43776088072213" lon="12.704586695774031"><ele>816.0</ele><time>2026-04-18T11:20:06Z</time></trkpt><trkpt lat="42.43779004830277" lon="12.70449288864991"><ele>816.0</ele><time>2026-04-18T11:20:08Z</time></trkpt><trkpt lat="42.43764252065213" lon="12.704279175586532"><ele>816.0</ele><time>2026-04-18T11:20:10Z</time></trkpt><trkpt lat="42.43757268827401" lon="12.704251922397436"><ele>814.8333333333334</ele><time>2026-04-18T11:20:11Z</time></trkpt><trkpt lat="42.437506725607115" lon="12.70423837861824"><ele>813.6666666666667</ele><time>2026-04-18T11:20:12Z</time></trkpt><trkpt lat="42.437390684876085" lon="12.704232736818431"><ele>812.5</ele><time>2026-04-18T11:20:14Z</time></trkpt><trkpt lat="42.43730120338419" lon="12.704216544373015"><ele>811.3333333333334</ele><time>2026-04-18T11:20:16Z</time></trkpt><trkpt lat="42.4372461256989" lon="12.704149966603476"><ele>810.1666666666667</ele><time>2026-04-18T11:20:18Z</time></trkpt><trkpt lat="42.437246421835404" lon="12.704044783020203"><ele>809.0</ele><time>2026-04-18T11:20:20Z</time></trkpt><trkpt lat="42.437273718153314" lon="12.703892530589323"><ele>809.0</ele><time>2026-04-18T11:20:22Z</time></trkpt><trkpt lat="42.437268527122534" lon="12.703735070467657"><ele>809.0</ele><time>2026-04-18T11:20:24Z</time></trkpt><trkpt lat="42.437229603653236" lon="12.703581105003042"><ele>809.0</ele><time>2026-04-18T11:20:26Z</time></trkpt><trkpt lat="42.437198191135195" lon="12.703443360175577"><ele>809.0</ele><time>2026-04-18T11:20:28Z</time></trkpt><trkpt lat="42.437207445779855" lon="12.703329728784784"><ele>809.0</ele><time>2026-04-18T11:20:30Z</time></trkpt><trkpt lat="42.437281327280786" lon="12.703181596512962"><ele>813.0</ele><time>2026-04-18T11:20:32Z</time></trkpt><trkpt lat="42.437323825814076" lon="12.703103035528203"><ele>813.0</ele><time>2026-04-18T11:20:33Z</time></trkpt><trkpt lat="42.437397191308456" lon="12.702982489063713"><ele>813.0</ele><time>2026-04-18T11:20:35Z</time></trkpt><trkpt lat="42.437412565396485" lon="12.702874884494177"><ele>813.0</ele><time>2026-04-18T11:20:38Z</time></trkpt><trkpt lat="42.43734397368816" lon="12.702868715147353"><ele>813.0</ele><time>2026-04-18T11:20:42Z</time></trkpt></trkseg><trkseg><trkpt lat="42.43732092366226" lon="12.702956842156818"><ele>813.0</ele><time>2026-04-18T12:17:06Z</time></trkpt><trkpt lat="42.437306343327336" lon="12.703079269594374"><ele>813.0</ele><time>2026-04-18T12:17:09Z</time></trkpt><trkpt lat="42.43728473289128" lon="12.703160862379754"><ele>813.0</ele><time>2026-04-18T12:17:11Z</time></trkpt><trkpt lat="42.43723869947494" lon="12.703229959205236"><ele>813.0</ele><time>2026-04-18T12:17:13Z</time></trkpt><trkpt lat="42.43719484981658" lon="12.70333074543405"><ele>813.0</ele><time>2026-04-18T12:17:15Z</time></trkpt><trkpt lat="42.43718162785968" lon="12.70341732725643"><ele>813.0</ele><time>2026-04-18T12:17:17Z</time></trkpt><trkpt lat="42.437196249504005" lon="12.703506760859709"><ele>813.0</ele><time>2026-04-18T12:17:19Z</time></trkpt><trkpt lat="42.437187389836886" lon="12.703612830388337"><ele>812.3333333333334</ele><time>2026-04-18T12:17:21Z</time></trkpt><trkpt lat="42.4372305847448" lon="12.703744062242663"><ele>811.6666666666667</ele><time>2026-04-18T12:17:23Z</time></trkpt><trkpt lat="42.43726101094278" lon="12.703825122222282"><ele>811.0</ele><time>2026-04-18T12:17:24Z</time></trkpt><trkpt lat="42.43725649553115" lon="12.703951825135132"><ele>810.3333333333334</ele><time>2026-04-18T12:17:26Z</time></trkpt><trkpt lat="42.43724947744984" lon="12.704053412572161"><ele>809.6666666666667</ele><time>2026-04-18T12:17:28Z</time></trkpt><trkpt lat="42.43726531660595" lon="12.704155323762242"><ele>809.0</ele><time>2026-04-18T12:17:30Z</time></trkpt><trkpt lat="42.43717159263125" lon="12.704190819560537"><ele>808.1666666666667</ele><time>2026-04-18T12:17:33Z</time></trkpt><trkpt lat="42.43710577834176" lon="12.704177000867702"><ele>807.3333333333334</ele><time>2026-04-18T12:17:34Z</time></trkpt><trkpt lat="42.43703613289396" lon="12.704151349165214"><ele>806.5</ele><time>2026-04-18T12:17:35Z</time></trkpt><trkpt lat="42.43696357332275" lon="12.704132560260717"><ele>805.6666666666667</ele><time>2026-04-18T12:17:36Z</time></trkpt><trkpt lat="42.43689336387766" lon="12.704124781250728"><ele>804.8333333333334</ele><time>2026-04-18T12:17:37Z</time></trkpt><trkpt lat="42.43679012316443" lon="12.704126927163488"><ele>804.0</ele><time>2026-04-18T12:17:39Z</time></trkpt><trkpt lat="42.43672629664889" lon="12.704128695758076"><ele>804.0</ele><time>2026-04-18T12:17:40Z</time></trkpt><trkpt lat="42.43666207490693" lon="12.70412822349638"><ele>804.0</ele><time>2026-04-18T12:17:41Z</time></trkpt><trkpt lat="42.436536655474455" lon="12.704130754026984"><ele>804.0</ele><time>2026-04-18T12:17:43Z</time></trkpt><trkpt lat="42.436473080282624" lon="12.704113393000503"><ele>804.0</ele><time>2026-04-18T12:17:44Z</time></trkpt><trkpt lat="42.43640831895376" lon="12.704110501461514"><ele>804.0</ele><time>2026-04-18T12:17:45Z</time></trkpt><trkpt lat="42.43630113991637" lon="12.70408883096701"><ele>804.0</ele><time>2026-04-18T12:17:47Z</time></trkpt><trkpt lat="42.43620241383461" lon="12.704026773187653"><ele>804.0</ele><time>2026-04-18T12:17:49Z</time></trkpt><trkpt lat="42.436111281654355" lon="12.703909082611974"><ele>804.0</ele><time>2026-04-18T12:17:51Z</time></trkpt><trkpt lat="42.43607170091759" lon="12.70383982089923"><ele>804.0</ele><time>2026-04-18T12:17:52Z</time></trkpt><trkpt lat="42.436033670012975" lon="12.703765158883625"><ele>804.0</ele><time>2026-04-18T12:17:53Z</time></trkpt><trkpt lat="42.43595950462693" lon="12.703606993321573"><ele>804.0</ele><time>2026-04-18T12:17:55Z</time></trkpt><trkpt lat="42.435915421508675" lon="12.703510428469915"><ele>803.5</ele><time>2026-04-18T12:17:56Z</time></trkpt><trkpt lat="42.435872462280045" lon="12.703420025930628"><ele>803.0</ele><time>2026-04-18T12:17:57Z</time></trkpt><trkpt lat="42.43583529413405" lon="12.70334343549582"><ele>802.5</ele><time>2026-04-18T12:17:58Z</time></trkpt><trkpt lat="42.43579478330405" lon="12.703266136496696"><ele>802.0</ele><time>2026-04-18T12:17:59Z</time></trkpt><trkpt lat="42.435750353873225" lon="12.703183262293651"><ele>801.5</ele><time>2026-04-18T12:18:00Z</time></trkpt><trkpt lat="42.4357014481124" lon="12.7031009266939"><ele>801.0</ele><time>2026-04-18T12:18:01Z</time></trkpt><trkpt lat="42.435650097096634" lon="12.703013258217442"><ele>801.0</ele><time>2026-04-18T12:18:02Z</time></trkpt><trkpt lat="42.43560390294401" lon="12.702934393732878"><ele>801.0</ele><time>2026-04-18T12:18:03Z</time></trkpt><trkpt lat="42.43555802980817" lon="12.702856077306658"><ele>801.0</ele><time>2026-04-18T12:18:04Z</time></trkpt><trkpt lat="42.435510426603514" lon="12.702774807236917"><ele>801.0</ele><time>2026-04-18T12:18:05Z</time></trkpt><trkpt lat="42.43546638940992" lon="12.70269547315008"><ele>801.0</ele><time>2026-04-18T12:18:06Z</time></trkpt><trkpt lat="42.4353933910418" lon="12.702563235929546"><ele>801.0</ele><time>2026-04-18T12:18:08Z</time></trkpt><trkpt lat="42.43535253566448" lon="12.702489226045886"><ele>801.0</ele><time>2026-04-18T12:18:09Z</time></trkpt><trkpt lat="42.43531272174056" lon="12.702420154486555"><ele>801.0</ele><time>2026-04-18T12:18:09.999Z</time></trkpt><trkpt lat="42.435272716735014" lon="12.702352958999048"><ele>801.0</ele><time>2026-04-18T12:18:10.999Z</time></trkpt><trkpt lat="42.43520188961398" lon="12.7022377550899"><ele>801.0</ele><time>2026-04-18T12:18:12.999Z</time></trkpt><trkpt lat="42.43512362057428" lon="12.702117128295097"><ele>801.0</ele><time>2026-04-18T12:18:14.999Z</time></trkpt><trkpt lat="42.43504425934226" lon="12.702038197710477"><ele>801.0</ele><time>2026-04-18T12:18:16.999Z</time></trkpt><trkpt lat="42.43497851792443" lon="12.701940730742296"><ele>801.0</ele><time>2026-04-18T12:18:18.999Z</time></trkpt><trkpt lat="42.434879300045175" lon="12.701839563488383"><ele>801.0</ele><time>2026-04-18T12:18:20.999Z</time></trkpt><trkpt lat="42.434800880344866" lon="12.701783410444254"><ele>801.0</ele><time>2026-04-18T12:18:21.999Z</time></trkpt><trkpt lat="42.43472418024951" lon="12.70171970667139"><ele>801.0</ele><time>2026-04-18T12:18:22.999Z</time></trkpt><trkpt lat="42.434657046855065" lon="12.701658603294266"><ele>802.1666666666666</ele><time>2026-04-18T12:18:23.999Z</time></trkpt><trkpt lat="42.43459064454208" lon="12.701587467223764"><ele>803.3333333333333</ele><time>2026-04-18T12:18:24.999Z</time></trkpt><trkpt lat="42.4345189814989" lon="12.70150834431141"><ele>804.5</ele><time>2026-04-18T12:18:25.999Z</time></trkpt><trkpt lat="42.434446535708226" lon="12.701440308589007"><ele>805.6666666666666</ele><time>2026-04-18T12:18:26.999Z</time></trkpt><trkpt lat="42.43438564181677" lon="12.701374237704977"><ele>806.8333333333333</ele><time>2026-04-18T12:18:27.999Z</time></trkpt><trkpt lat="42.43431986441405" lon="12.701304038915048"><ele>808.0</ele><time>2026-04-18T12:18:28.999Z</time></trkpt><trkpt lat="42.43424703854754" lon="12.701220600116583"><ele>808.0</ele><time>2026-04-18T12:18:29.999Z</time></trkpt><trkpt lat="42.43417386101242" lon="12.701128236855793"><ele>808.0</ele><time>2026-04-18T12:18:30.999Z</time></trkpt><trkpt lat="42.4340975671935" lon="12.70104027124806"><ele>808.0</ele><time>2026-04-18T12:18:31.999Z</time></trkpt><trkpt lat="42.433993491656736" lon="12.700986752657977"><ele>808.0</ele><time>2026-04-18T12:18:32.999Z</time></trkpt><trkpt lat="42.43386971945942" lon="12.700929675945636"><ele>808.0</ele><time>2026-04-18T12:18:33.999Z</time></trkpt><trkpt lat="42.43375008159468" lon="12.700917510138948"><ele>809.0</ele><time>2026-04-18T12:18:34.999Z</time></trkpt><trkpt lat="42.43361882561574" lon="12.700873781271257"><ele>810.0</ele><time>2026-04-18T12:18:35.999Z</time></trkpt><trkpt lat="42.433481702728194" lon="12.700816406569844"><ele>811.0</ele><time>2026-04-18T12:18:36.999Z</time></trkpt><trkpt lat="42.43332172588436" lon="12.700768019847347"><ele>812.0</ele><time>2026-04-18T12:18:37.999Z</time></trkpt><trkpt lat="42.433153886220154" lon="12.70072213958569"><ele>812.0</ele><time>2026-04-18T12:18:38.999Z</time></trkpt><trkpt lat="42.43300408121472" lon="12.700724217098351"><ele>812.0</ele><time>2026-04-18T12:18:39.999Z</time></trkpt><trkpt lat="42.43287412499605" lon="12.700703944400605"><ele>812.0</ele><time>2026-04-18T12:18:40.999Z</time></trkpt><trkpt lat="42.43273982810431" lon="12.70068038970562"><ele>812.0</ele><time>2026-04-18T12:18:41.999Z</time></trkpt><trkpt lat="42.432573645194346" lon="12.700651566446748"><ele>810.3333333333334</ele><time>2026-04-18T12:18:42.999Z</time></trkpt><trkpt lat="42.43240856567989" lon="12.700566768887782"><ele>808.6666666666667</ele><time>2026-04-18T12:18:43.999Z</time></trkpt><trkpt lat="42.432261147693325" lon="12.70052338211804"><ele>807.0</ele><time>2026-04-18T12:18:44.999Z</time></trkpt><trkpt lat="42.43212473049311" lon="12.700486860129669"><ele>805.8</ele><time>2026-04-18T12:18:45.999Z</time></trkpt><trkpt lat="42.432008439871055" lon="12.700455948773747"><ele>804.6</ele><time>2026-04-18T12:18:46.999Z</time></trkpt><trkpt lat="42.431886591369285" lon="12.700422657374846"><ele>803.4</ele><time>2026-04-18T12:18:47.999Z</time></trkpt><trkpt lat="42.43178833405783" lon="12.700410480714627"><ele>802.1999999999999</ele><time>2026-04-18T12:18:48.999Z</time></trkpt><trkpt lat="42.431698955926315" lon="12.700399538245014"><ele>801.0</ele><time>2026-04-18T12:18:49.999Z</time></trkpt><trkpt lat="42.43162896892035" lon="12.70038133385007"><ele>801.0</ele><time>2026-04-18T12:18:50.999Z</time></trkpt><trkpt lat="42.43157318908913" lon="12.700318463508264"><ele>801.0</ele><time>2026-04-18T12:18:51.999Z</time></trkpt><trkpt lat="42.431496885204425" lon="12.700207038335597"><ele>801.0</ele><time>2026-04-18T12:18:52.999Z</time></trkpt><trkpt lat="42.43140720444349" lon="12.700093312176062"><ele>801.0</ele><time>2026-04-18T12:18:53.999Z</time></trkpt><trkpt lat="42.431334782350774" lon="12.700001472108294"><ele>801.0</ele><time>2026-04-18T12:18:54.999Z</time></trkpt><trkpt lat="42.43124847809878" lon="12.69997669385482"><ele>803.5</ele><time>2026-04-18T12:18:55.999Z</time></trkpt><trkpt lat="42.431191573259014" lon="12.699890645048226"><ele>806.0</ele><time>2026-04-18T12:18:56.999Z</time></trkpt><trkpt lat="42.43112915597581" lon="12.699739703733776"><ele>808.5</ele><time>2026-04-18T12:18:57.999Z</time></trkpt><trkpt lat="42.43107435151452" lon="12.699562040768233"><ele>811.0</ele><time>2026-04-18T12:18:58.999Z</time></trkpt><trkpt lat="42.43100174063726" lon="12.699397282900371"><ele>811.0</ele><time>2026-04-18T12:18:59.999Z</time></trkpt><trkpt lat="42.43089257681174" lon="12.699237888825985"><ele>811.0</ele><time>2026-04-18T12:19:00.999Z</time></trkpt><trkpt lat="42.43083709568481" lon="12.699087734964724"><ele>811.0</ele><time>2026-04-18T12:19:01.999Z</time></trkpt><trkpt lat="42.430783857482375" lon="12.698974153317591"><ele>811.0</ele><time>2026-04-18T12:19:02.999Z</time></trkpt><trkpt lat="42.4307109962426" lon="12.698896808357162"><ele>811.0</ele><time>2026-04-18T12:19:03.999Z</time></trkpt><trkpt lat="42.43062405565125" lon="12.698816971509393"><ele>811.0</ele><time>2026-04-18T12:19:04.999Z</time></trkpt><trkpt lat="42.43052356216297" lon="12.698763772588773"><ele>811.0</ele><time>2026-04-18T12:19:05.999Z</time></trkpt><trkpt lat="42.43042097919672" lon="12.698731222313237"><ele>811.0</ele><time>2026-04-18T12:19:06.999Z</time></trkpt><trkpt lat="42.43032700463625" lon="12.69861934381743"><ele>811.0</ele><time>2026-04-18T12:19:07.999Z</time></trkpt><trkpt lat="42.43024451904392" lon="12.698563659774754"><ele>808.1999999999999</ele><time>2026-04-18T12:19:08.999Z</time></trkpt><trkpt lat="42.43016918329544" lon="12.698494025788417"><ele>805.4</ele><time>2026-04-18T12:19:09.999Z</time></trkpt><trkpt lat="42.43010258803595" lon="12.69839879801175"><ele>802.6</ele><time>2026-04-18T12:19:10.999Z</time></trkpt><trkpt lat="42.43002774544561" lon="12.698269742710732"><ele>799.8</ele><time>2026-04-18T12:19:11.999Z</time></trkpt><trkpt lat="42.42996089901305" lon="12.698154717908256"><ele>797.0</ele><time>2026-04-18T12:19:12.999Z</time></trkpt><trkpt lat="42.42987896750972" lon="12.698035535502218"><ele>797.0</ele><time>2026-04-18T12:19:13.999Z</time></trkpt><trkpt lat="42.42979760409551" lon="12.697932747203895"><ele>797.0</ele><time>2026-04-18T12:19:14.999Z</time></trkpt><trkpt lat="42.42967680620084" lon="12.697822302384596"><ele>797.0</ele><time>2026-04-18T12:19:15.999Z</time></trkpt><trkpt lat="42.42953641176865" lon="12.6977333886146"><ele>797.0</ele><time>2026-04-18T12:19:16.999Z</time></trkpt><trkpt lat="42.42937756958891" lon="12.697665215741532"><ele>797.0</ele><time>2026-04-18T12:19:17.999Z</time></trkpt><trkpt lat="42.42921922407624" lon="12.697613766866942"><ele>797.0</ele><time>2026-04-18T12:19:18.999Z</time></trkpt><trkpt lat="42.429097259309586" lon="12.697563026411313"><ele>797.0</ele><time>2026-04-18T12:19:19.999Z</time></trkpt><trkpt lat="42.42899596829597" lon="12.69751061227773"><ele>797.0</ele><time>2026-04-18T12:19:20.999Z</time></trkpt><trkpt lat="42.4288897772287" lon="12.697455265835957"><ele>793.75</ele><time>2026-04-18T12:19:21.999Z</time></trkpt><trkpt lat="42.42878377562595" lon="12.697408295147056"><ele>790.5</ele><time>2026-04-18T12:19:22.999Z</time></trkpt><trkpt lat="42.428666220792465" lon="12.697380317929307"><ele>787.25</ele><time>2026-04-18T12:19:23.999Z</time></trkpt><trkpt lat="42.428551097041165" lon="12.69738113444705"><ele>784.0</ele><time>2026-04-18T12:19:24.999Z</time></trkpt><trkpt lat="42.42841886009657" lon="12.697413513889854"><ele>784.0</ele><time>2026-04-18T12:19:25.999Z</time></trkpt><trkpt lat="42.42831455495435" lon="12.697442068041518"><ele>784.0</ele><time>2026-04-18T12:19:26.999Z</time></trkpt><trkpt lat="42.42819067176032" lon="12.6974682253089"><ele>784.0</ele><time>2026-04-18T12:19:27.999Z</time></trkpt><trkpt lat="42.42809796009543" lon="12.697468822217646"><ele>784.0</ele><time>2026-04-18T12:19:28.999Z</time></trkpt><trkpt lat="42.42801389759905" lon="12.697462829209465"><ele>784.0</ele><time>2026-04-18T12:19:29.999Z</time></trkpt><trkpt lat="42.42792753486977" lon="12.697455112640124"><ele>780.8000000000001</ele><time>2026-04-18T12:19:30.999Z</time></trkpt><trkpt lat="42.42783929795241" lon="12.697443673860864"><ele>777.6</ele><time>2026-04-18T12:19:31.999Z</time></trkpt><trkpt lat="42.42774997575958" lon="12.69742707502316"><ele>774.4</ele><time>2026-04-18T12:19:32.999Z</time></trkpt><trkpt lat="42.42764496750865" lon="12.697392942837002"><ele>771.2</ele><time>2026-04-18T12:19:33.999Z</time></trkpt><trkpt lat="42.42753654196504" lon="12.697332283756444"><ele>768.0</ele><time>2026-04-18T12:19:34.999Z</time></trkpt><trkpt lat="42.42743106303763" lon="12.69726103447963"><ele>768.0</ele><time>2026-04-18T12:19:35.999Z</time></trkpt><trkpt lat="42.42732163012149" lon="12.697227430513417"><ele>768.0</ele><time>2026-04-18T12:19:36.999Z</time></trkpt><trkpt lat="42.42719697065251" lon="12.697197362843257"><ele>768.0</ele><time>2026-04-18T12:19:37.999Z</time></trkpt><trkpt lat="42.42704349225527" lon="12.697202364383157"><ele>768.0</ele><time>2026-04-18T12:19:38.999Z</time></trkpt><trkpt lat="42.426906823618616" lon="12.697207551540066"><ele>765.8</ele><time>2026-04-18T12:19:39.999Z</time></trkpt><trkpt lat="42.426788083949376" lon="12.697188808435925"><ele>763.5999999999999</ele><time>2026-04-18T12:19:40.999Z</time></trkpt><trkpt lat="42.42669120773688" lon="12.697166832540363"><ele>761.4000000000001</ele><time>2026-04-18T12:19:41.999Z</time></trkpt><trkpt lat="42.42661256447492" lon="12.697120850317985"><ele>759.2</ele><time>2026-04-18T12:19:42.999Z</time></trkpt><trkpt lat="42.426543898989436" lon="12.697064315452565"><ele>757.0</ele><time>2026-04-18T12:19:43.999Z</time></trkpt><trkpt lat="42.426486796958656" lon="12.696996233887312"><ele>760.25</ele><time>2026-04-18T12:19:44.999Z</time></trkpt><trkpt lat="42.42642437015908" lon="12.696900682332707"><ele>763.5</ele><time>2026-04-18T12:19:45.999Z</time></trkpt><trkpt lat="42.426350575966836" lon="12.696771867661779"><ele>766.75</ele><time>2026-04-18T12:19:46.999Z</time></trkpt><trkpt lat="42.42627792005337" lon="12.696617035682113"><ele>770.0</ele><time>2026-04-18T12:19:47.999Z</time></trkpt><trkpt lat="42.426214040356456" lon="12.696466764415279"><ele>770.0</ele><time>2026-04-18T12:19:48.999Z</time></trkpt><trkpt lat="42.4261870340154" lon="12.696318766780982"><ele>770.0</ele><time>2026-04-18T12:19:49.999Z</time></trkpt><trkpt lat="42.426150864463" lon="12.696158781665977"><ele>770.0</ele><time>2026-04-18T12:19:50.999Z</time></trkpt><trkpt lat="42.426137323409016" lon="12.69599207338029"><ele>770.0</ele><time>2026-04-18T12:19:51.999Z</time></trkpt><trkpt lat="42.42612183351227" lon="12.695825258521987"><ele>770.25</ele><time>2026-04-18T12:19:52.999Z</time></trkpt><trkpt lat="42.42608579335031" lon="12.69565967977971"><ele>770.5</ele><time>2026-04-18T12:19:53.999Z</time></trkpt><trkpt lat="42.4260300372527" lon="12.695490029127331"><ele>770.75</ele><time>2026-04-18T12:19:54.999Z</time></trkpt><trkpt lat="42.42600252284367" lon="12.695325422595667"><ele>771.0</ele><time>2026-04-18T12:19:55.999Z</time></trkpt><trkpt lat="42.42596638892114" lon="12.695154857984962"><ele>771.0</ele><time>2026-04-18T12:19:56.999Z</time></trkpt><trkpt lat="42.425943181502056" lon="12.69500800326797"><ele>771.0</ele><time>2026-04-18T12:19:57.999Z</time></trkpt><trkpt lat="42.42592675015554" lon="12.694861848544807"><ele>771.0</ele><time>2026-04-18T12:19:58.999Z</time></trkpt><trkpt lat="42.42587765422783" lon="12.69473182593293"><ele>771.0</ele><time>2026-04-18T12:19:59.999Z</time></trkpt><trkpt lat="42.42580799839803" lon="12.694620450757018"><ele>771.0</ele><time>2026-04-18T12:20:00.999Z</time></trkpt><trkpt lat="42.42574088609639" lon="12.694539558345829"><ele>771.0</ele><time>2026-04-18T12:20:01.999Z</time></trkpt><trkpt lat="42.425614158899236" lon="12.6944401423034"><ele>771.0</ele><time>2026-04-18T12:20:02.999Z</time></trkpt><trkpt lat="42.425490970596606" lon="12.694364293169347"><ele>771.0</ele><time>2026-04-18T12:20:03.999Z</time></trkpt><trkpt lat="42.425421923030164" lon="12.694295132740063"><ele>771.0</ele><time>2026-04-18T12:20:04.999Z</time></trkpt><trkpt lat="42.42534114885627" lon="12.694201311552687"><ele>773.0</ele><time>2026-04-18T12:20:05.999Z</time></trkpt><trkpt lat="42.42526082779257" lon="12.6940743491488"><ele>775.0</ele><time>2026-04-18T12:20:06.999Z</time></trkpt><trkpt lat="42.425176670060566" lon="12.69395394971769"><ele>777.0</ele><time>2026-04-18T12:20:07.999Z</time></trkpt><trkpt lat="42.42508911815382" lon="12.693799066817565"><ele>779.0</ele><time>2026-04-18T12:20:08.999Z</time></trkpt><trkpt lat="42.42497747507142" lon="12.693657426473802"><ele>773.25</ele><time>2026-04-18T12:20:09.999Z</time></trkpt><trkpt lat="42.4248927236776" lon="12.693551299349261"><ele>767.5</ele><time>2026-04-18T12:20:10.999Z</time></trkpt><trkpt lat="42.42481807674579" lon="12.693447226763444"><ele>761.75</ele><time>2026-04-18T12:20:11.999Z</time></trkpt><trkpt lat="42.42475162614388" lon="12.693332059208979"><ele>756.0</ele><time>2026-04-18T12:20:12.999Z</time></trkpt><trkpt lat="42.42468511682559" lon="12.6931905384006"><ele>757.25</ele><time>2026-04-18T12:20:13.999Z</time></trkpt><trkpt lat="42.42463238710055" lon="12.693055595912101"><ele>758.5</ele><time>2026-04-18T12:20:14.999Z</time></trkpt><trkpt lat="42.424633284013204" lon="12.692885707328616"><ele>759.75</ele><time>2026-04-18T12:20:15.999Z</time></trkpt><trkpt lat="42.42456198043952" lon="12.692680697069985"><ele>761.0</ele><time>2026-04-18T12:20:16.999Z</time></trkpt><trkpt lat="42.42450183959614" lon="12.692529481817992"><ele>761.0</ele><time>2026-04-18T12:20:17.999Z</time></trkpt><trkpt lat="42.424439097775235" lon="12.692383440334558"><ele>761.0</ele><time>2026-04-18T12:20:18.999Z</time></trkpt><trkpt lat="42.42438590770641" lon="12.692281591567305"><ele>761.0</ele><time>2026-04-18T12:20:19.999Z</time></trkpt><trkpt lat="42.42427540755181" lon="12.692143447525709"><ele>761.0</ele><time>2026-04-18T12:20:21.999Z</time></trkpt><trkpt lat="42.42414088804872" lon="12.692130392228421"><ele>761.0</ele><time>2026-04-18T12:20:22.999Z</time></trkpt><trkpt lat="42.424040336616855" lon="12.692069185987384"><ele>761.0</ele><time>2026-04-18T12:20:23.999Z</time></trkpt><trkpt lat="42.42391885684737" lon="12.692020659839939"><ele>761.0</ele><time>2026-04-18T12:20:24.999Z</time></trkpt><trkpt lat="42.42380152168351" lon="12.691971041206633"><ele>761.0</ele><time>2026-04-18T12:20:25.999Z</time></trkpt><trkpt lat="42.423697925863245" lon="12.691943094196606"><ele>760.75</ele><time>2026-04-18T12:20:26.999Z</time></trkpt><trkpt lat="42.42358605281113" lon="12.69195083153766"><ele>760.5</ele><time>2026-04-18T12:20:27.999Z</time></trkpt><trkpt lat="42.42345846073458" lon="12.692005125725087"><ele>760.25</ele><time>2026-04-18T12:20:28.999Z</time></trkpt><trkpt lat="42.42331500587747" lon="12.692046967788423"><ele>760.0</ele><time>2026-04-18T12:20:29.999Z</time></trkpt><trkpt lat="42.4231949522361" lon="12.692093691267795"><ele>760.0</ele><time>2026-04-18T12:20:30.999Z</time></trkpt><trkpt lat="42.42306339592253" lon="12.6921375621899"><ele>760.0</ele><time>2026-04-18T12:20:31.999Z</time></trkpt><trkpt lat="42.422955180315284" lon="12.692173656425581"><ele>760.0</ele><time>2026-04-18T12:20:32.999Z</time></trkpt><trkpt lat="42.42286028698842" lon="12.692172123876725"><ele>760.0</ele><time>2026-04-18T12:20:33.999Z</time></trkpt><trkpt lat="42.4227715878131" lon="12.692154939386368"><ele>760.0</ele><time>2026-04-18T12:20:34.999Z</time></trkpt><trkpt lat="42.42268183133841" lon="12.692083790316863"><ele>761.0</ele><time>2026-04-18T12:20:35.999Z</time></trkpt><trkpt lat="42.422573524267484" lon="12.692003080142108"><ele>762.0</ele><time>2026-04-18T12:20:36.999Z</time></trkpt><trkpt lat="42.422457980277144" lon="12.691917506634452"><ele>763.0</ele><time>2026-04-18T12:20:37.999Z</time></trkpt><trkpt lat="42.42231822563311" lon="12.691817609029384"><ele>764.0</ele><time>2026-04-18T12:20:38.999Z</time></trkpt><trkpt lat="42.42219272654978" lon="12.691752436680618"><ele>757.75</ele><time>2026-04-18T12:20:39.999Z</time></trkpt><trkpt lat="42.42207944465804" lon="12.691665299273147"><ele>751.5</ele><time>2026-04-18T12:20:40.999Z</time></trkpt><trkpt lat="42.42193595040918" lon="12.69159571042801"><ele>745.25</ele><time>2026-04-18T12:20:41.999Z</time></trkpt><trkpt lat="42.42180475547071" lon="12.69154512228115"><ele>739.0</ele><time>2026-04-18T12:20:42.999Z</time></trkpt><trkpt lat="42.421682256357045" lon="12.691498390509743"><ele>739.0</ele><time>2026-04-18T12:20:43.999Z</time></trkpt><trkpt lat="42.42157607750793" lon="12.691391689408574"><ele>739.0</ele><time>2026-04-18T12:20:44.999Z</time></trkpt><trkpt lat="42.421470499986526" lon="12.69128092418381"><ele>739.0</ele><time>2026-04-18T12:20:45.999Z</time></trkpt><trkpt lat="42.42135156725981" lon="12.691180231879459"><ele>739.0</ele><time>2026-04-18T12:20:46.999Z</time></trkpt><trkpt lat="42.42122120899596" lon="12.691093847492079"><ele>734.5</ele><time>2026-04-18T12:20:47.999Z</time></trkpt><trkpt lat="42.42108810224631" lon="12.69102719137155"><ele>730.0</ele><time>2026-04-18T12:20:48.999Z</time></trkpt><trkpt lat="42.420973748653054" lon="12.690952872973536"><ele>725.5</ele><time>2026-04-18T12:20:49.999Z</time></trkpt><trkpt lat="42.420866232835024" lon="12.690907698221867"><ele>721.0</ele><time>2026-04-18T12:20:50.999Z</time></trkpt><trkpt lat="42.42075438607731" lon="12.690901857721817"><ele>721.0</ele><time>2026-04-18T12:20:51.999Z</time></trkpt><trkpt lat="42.420632504764505" lon="12.690927078901836"><ele>721.0</ele><time>2026-04-18T12:20:52.999Z</time></trkpt><trkpt lat="42.420511901815836" lon="12.690968004408193"><ele>721.0</ele><time>2026-04-18T12:20:53.999Z</time></trkpt><trkpt lat="42.42038922529013" lon="12.691036936431766"><ele>721.0</ele><time>2026-04-18T12:20:54.999Z</time></trkpt><trkpt lat="42.42025380252454" lon="12.691138822940461"><ele>722.25</ele><time>2026-04-18T12:20:55.998Z</time></trkpt><trkpt lat="42.42011822399995" lon="12.691226873952395"><ele>723.5</ele><time>2026-04-18T12:20:56.998Z</time></trkpt><trkpt lat="42.42000133057044" lon="12.691314829117674"><ele>724.75</ele><time>2026-04-18T12:20:57.998Z</time></trkpt><trkpt lat="42.419888288272325" lon="12.691425528559707"><ele>726.0</ele><time>2026-04-18T12:20:58.998Z</time></trkpt><trkpt lat="42.419775429146426" lon="12.691560240961774"><ele>726.0</ele><time>2026-04-18T12:20:59.999Z</time></trkpt><trkpt lat="42.41966877992472" lon="12.691689501352322"><ele>726.0</ele><time>2026-04-18T12:21:00.999Z</time></trkpt><trkpt lat="42.41955402354554" lon="12.691810323898014"><ele>726.0</ele><time>2026-04-18T12:21:01.999Z</time></trkpt><trkpt lat="42.41946429145362" lon="12.69196998645"><ele>726.0</ele><time>2026-04-18T12:21:02.999Z</time></trkpt><trkpt lat="42.419372911172935" lon="12.692109757325293"><ele>723.5</ele><time>2026-04-18T12:21:03.999Z</time></trkpt><trkpt lat="42.419289774563204" lon="12.692244156200571"><ele>721.0</ele><time>2026-04-18T12:21:04.999Z</time></trkpt><trkpt lat="42.41921781817442" lon="12.69237355943623"><ele>718.5</ele><time>2026-04-18T12:21:05.999Z</time></trkpt><trkpt lat="42.41915113913443" lon="12.69251456838228"><ele>716.0</ele><time>2026-04-18T12:21:06.999Z</time></trkpt><trkpt lat="42.41909670898614" lon="12.692638157721749"><ele>716.8</ele><time>2026-04-18T12:21:07.999Z</time></trkpt><trkpt lat="42.419051434002064" lon="12.692763879321364"><ele>717.5999999999999</ele><time>2026-04-18T12:21:08.999Z</time></trkpt><trkpt lat="42.41902170110429" lon="12.692891576203339"><ele>718.4</ele><time>2026-04-18T12:21:09.999Z</time></trkpt><trkpt lat="42.419002976346455" lon="12.692996319997011"><ele>719.2</ele><time>2026-04-18T12:21:10.999Z</time></trkpt><trkpt lat="42.41896716964766" lon="12.69308004334659"><ele>720.0</ele><time>2026-04-18T12:21:11.999Z</time></trkpt><trkpt lat="42.41892858669832" lon="12.693233966055482"><ele>720.0</ele><time>2026-04-18T12:21:13.999Z</time></trkpt><trkpt lat="42.41885779375664" lon="12.693239802666222"><ele>720.0</ele><time>2026-04-18T12:21:14.999Z</time></trkpt><trkpt lat="42.418751292379945" lon="12.69318057414839"><ele>720.0</ele><time>2026-04-18T12:21:16.999Z</time></trkpt><trkpt lat="42.41871937023903" lon="12.693106523588154"><ele>720.0</ele><time>2026-04-18T12:21:17.999Z</time></trkpt><trkpt lat="42.418721621605116" lon="12.693009233359682"><ele>720.0</ele><time>2026-04-18T12:21:18.999Z</time></trkpt><trkpt lat="42.418739331809505" lon="12.692867852383353"><ele>720.0</ele><time>2026-04-18T12:21:19.999Z</time></trkpt><trkpt lat="42.41875268744623" lon="12.692716847699762"><ele>721.2</ele><time>2026-04-18T12:21:20.999Z</time></trkpt><trkpt lat="42.41876226069118" lon="12.692596552733944"><ele>722.4</ele><time>2026-04-18T12:21:21.999Z</time></trkpt><trkpt lat="42.41876552182164" lon="12.692466701961122"><ele>723.5999999999999</ele><time>2026-04-18T12:21:22.999Z</time></trkpt><trkpt lat="42.418753603195356" lon="12.692298195327202"><ele>724.8</ele><time>2026-04-18T12:21:23.999Z</time></trkpt><trkpt lat="42.41873456533885" lon="12.692168122801647"><ele>726.0</ele><time>2026-04-18T12:21:24.999Z</time></trkpt><trkpt lat="42.418713851182936" lon="12.69203737876277"><ele>723.5999999999999</ele><time>2026-04-18T12:21:25.999Z</time></trkpt><trkpt lat="42.41870268728613" lon="12.691901129594134"><ele>721.2</ele><time>2026-04-18T12:21:26.999Z</time></trkpt><trkpt lat="42.418644466292776" lon="12.691739318990123"><ele>718.8</ele><time>2026-04-18T12:21:27.999Z</time></trkpt><trkpt lat="42.41862745745304" lon="12.69162186940328"><ele>716.4000000000001</ele><time>2026-04-18T12:21:28.999Z</time></trkpt><trkpt lat="42.41860439764936" lon="12.691515968956297"><ele>714.0</ele><time>2026-04-18T12:21:29.999Z</time></trkpt><trkpt lat="42.41855703069716" lon="12.691400694065933"><ele>714.0</ele><time>2026-04-18T12:21:30.999Z</time></trkpt><trkpt lat="42.418510691262135" lon="12.691279627764969"><ele>714.0</ele><time>2026-04-18T12:21:31.999Z</time></trkpt><trkpt lat="42.41843062432799" lon="12.691146675198828"><ele>714.0</ele><time>2026-04-18T12:21:32.999Z</time></trkpt><trkpt lat="42.41836171771816" lon="12.691026764151479"><ele>714.0</ele><time>2026-04-18T12:21:33.999Z</time></trkpt><trkpt lat="42.41829119672014" lon="12.690919255165333"><ele>714.0</ele><time>2026-04-18T12:21:34.999Z</time></trkpt><trkpt lat="42.41821209779709" lon="12.690802666024606"><ele>715.2</ele><time>2026-04-18T12:21:35.999Z</time></trkpt><trkpt lat="42.418149848803345" lon="12.690708007127295"><ele>716.4000000000001</ele><time>2026-04-18T12:21:36.999Z</time></trkpt><trkpt lat="42.41808059516671" lon="12.690608623499559"><ele>717.6</ele><time>2026-04-18T12:21:37.999Z</time></trkpt><trkpt lat="42.41799569903225" lon="12.69049608542333"><ele>718.8</ele><time>2026-04-18T12:21:38.999Z</time></trkpt><trkpt lat="42.41791887850118" lon="12.690385949761012"><ele>720.0</ele><time>2026-04-18T12:21:39.999Z</time></trkpt><trkpt lat="42.41784532856192" lon="12.69026429997325"><ele>715.2</ele><time>2026-04-18T12:21:40.999Z</time></trkpt><trkpt lat="42.41780013687807" lon="12.690176547606393"><ele>710.4</ele><time>2026-04-18T12:21:41.999Z</time></trkpt><trkpt lat="42.417727297177905" lon="12.690061253611903"><ele>705.5999999999999</ele><time>2026-04-18T12:21:42.999Z</time></trkpt><trkpt lat="42.41768787174013" lon="12.689977458499863"><ele>700.8</ele><time>2026-04-18T12:21:43.999Z</time></trkpt><trkpt lat="42.417655430415486" lon="12.689865042346046"><ele>696.0</ele><time>2026-04-18T12:21:44.999Z</time></trkpt><trkpt lat="42.41766383583295" lon="12.689727810522603"><ele>696.0</ele><time>2026-04-18T12:21:45.999Z</time></trkpt><trkpt lat="42.41768156285281" lon="12.689561504420135"><ele>696.0</ele><time>2026-04-18T12:21:46.999Z</time></trkpt><trkpt lat="42.417693548781244" lon="12.689425843206234"><ele>696.0</ele><time>2026-04-18T12:21:47.999Z</time></trkpt><trkpt lat="42.41770510004985" lon="12.689265777714903"><ele>696.0</ele><time>2026-04-18T12:21:48.999Z</time></trkpt><trkpt lat="42.41773086829707" lon="12.689124115512541"><ele>693.4</ele><time>2026-04-18T12:21:49.999Z</time></trkpt><trkpt lat="42.417742204455486" lon="12.688973672863948"><ele>690.8</ele><time>2026-04-18T12:21:50.999Z</time></trkpt><trkpt lat="42.417747305988115" lon="12.688843014178586"><ele>688.1999999999999</ele><time>2026-04-18T12:21:51.999Z</time></trkpt><trkpt lat="42.417746357174266" lon="12.688720059930231"><ele>685.5999999999999</ele><time>2026-04-18T12:21:52.999Z</time></trkpt><trkpt lat="42.41773858613868" lon="12.688606322129239"><ele>683.0</ele><time>2026-04-18T12:21:53.999Z</time></trkpt><trkpt lat="42.417693185412624" lon="12.688465354663592"><ele>680.8333333333333</ele><time>2026-04-18T12:21:54.999Z</time></trkpt><trkpt lat="42.41762905241122" lon="12.688352670983534"><ele>678.6666666666666</ele><time>2026-04-18T12:21:55.999Z</time></trkpt><trkpt lat="42.417562377337305" lon="12.688265937352691"><ele>676.5</ele><time>2026-04-18T12:21:56.999Z</time></trkpt><trkpt lat="42.41751873492359" lon="12.688162049173261"><ele>674.3333333333334</ele><time>2026-04-18T12:21:57.999Z</time></trkpt><trkpt lat="42.417486393546525" lon="12.688068427174644"><ele>672.1666666666667</ele><time>2026-04-18T12:21:58.999Z</time></trkpt><trkpt lat="42.41749238219446" lon="12.687968944152622"><ele>670.0</ele><time>2026-04-18T12:21:59.999Z</time></trkpt><trkpt lat="42.41749591940978" lon="12.687860904833254"><ele>670.0</ele><time>2026-04-18T12:22:00.999Z</time></trkpt><trkpt lat="42.41748945899016" lon="12.687771353145958"><ele>670.0</ele><time>2026-04-18T12:22:01.999Z</time></trkpt><trkpt lat="42.41745160215497" lon="12.687687273554241"><ele>670.0</ele><time>2026-04-18T12:22:02.999Z</time></trkpt><trkpt lat="42.417414798007286" lon="12.687612668271772"><ele>670.0</ele><time>2026-04-18T12:22:03.999Z</time></trkpt><trkpt lat="42.41735661106117" lon="12.687552955206884"><ele>670.0</ele><time>2026-04-18T12:22:04.999Z</time></trkpt><trkpt lat="42.417253340847026" lon="12.687560639678816"><ele>670.0</ele><time>2026-04-18T12:22:05.999Z</time></trkpt><trkpt lat="42.41716406196591" lon="12.687629281417356"><ele>670.2</ele><time>2026-04-18T12:22:06.999Z</time></trkpt><trkpt lat="42.417096405021724" lon="12.68775548366906"><ele>670.4</ele><time>2026-04-18T12:22:07.999Z</time></trkpt><trkpt lat="42.41700350677232" lon="12.687862395927485"><ele>670.5999999999999</ele><time>2026-04-18T12:22:08.999Z</time></trkpt><trkpt lat="42.416932606460186" lon="12.687944821777073"><ele>670.8</ele><time>2026-04-18T12:22:09.999Z</time></trkpt><trkpt lat="42.41685507733136" lon="12.688048889260985"><ele>671.0</ele><time>2026-04-18T12:22:10.999Z</time></trkpt><trkpt lat="42.41676313771251" lon="12.688082002849443"><ele>671.0</ele><time>2026-04-18T12:22:11.999Z</time></trkpt><trkpt lat="42.41668381350966" lon="12.688113006045091"><ele>671.0</ele><time>2026-04-18T12:22:12.999Z</time></trkpt><trkpt lat="42.41659939840939" lon="12.688086419397232"><ele>671.0</ele><time>2026-04-18T12:22:13.999Z</time></trkpt><trkpt lat="42.41653973344263" lon="12.688019161752871"><ele>671.0</ele><time>2026-04-18T12:22:14.999Z</time></trkpt><trkpt lat="42.41651277504799" lon="12.687896275472612"><ele>671.0</ele><time>2026-04-18T12:22:15.999Z</time></trkpt><trkpt lat="42.41650867614778" lon="12.68775912789117"><ele>671.0</ele><time>2026-04-18T12:22:16.999Z</time></trkpt><trkpt lat="42.41649784233836" lon="12.687614782411776"><ele>668.0</ele><time>2026-04-18T12:22:17.999Z</time></trkpt><trkpt lat="42.41648736190184" lon="12.687440216358917"><ele>665.0</ele><time>2026-04-18T12:22:18.999Z</time></trkpt><trkpt lat="42.41647875223004" lon="12.687281449949216"><ele>662.0</ele><time>2026-04-18T12:22:19.999Z</time></trkpt><trkpt lat="42.41646732672423" lon="12.687141299548928"><ele>659.0</ele><time>2026-04-18T12:22:20.999Z</time></trkpt><trkpt lat="42.41646354378125" lon="12.68702638146619"><ele>656.0</ele><time>2026-04-18T12:22:21.999Z</time></trkpt><trkpt lat="42.416456842957004" lon="12.6868948315446"><ele>653.5999999999999</ele><time>2026-04-18T12:22:22.999Z</time></trkpt><trkpt lat="42.416451363170744" lon="12.686767804665406"><ele>651.2</ele><time>2026-04-18T12:22:23.999Z</time></trkpt><trkpt lat="42.41644834976957" lon="12.686657693585602"><ele>648.8</ele><time>2026-04-18T12:22:24.999Z</time></trkpt><trkpt lat="42.41645450516053" lon="12.686544351353804"><ele>646.4000000000001</ele><time>2026-04-18T12:22:25.999Z</time></trkpt><trkpt lat="42.41645776215266" lon="12.686409292746276"><ele>644.0</ele><time>2026-04-18T12:22:26.999Z</time></trkpt><trkpt lat="42.41642984390985" lon="12.686238028653817"><ele>646.3333333333333</ele><time>2026-04-18T12:22:27.999Z</time></trkpt><trkpt lat="42.41636422737737" lon="12.686011870026386"><ele>648.6666666666666</ele><time>2026-04-18T12:22:28.999Z</time></trkpt><trkpt lat="42.416294924542456" lon="12.685806671871765"><ele>651.0</ele><time>2026-04-18T12:22:29.999Z</time></trkpt><trkpt lat="42.41623147770579" lon="12.685664898668344"><ele>651.0</ele><time>2026-04-18T12:22:30.999Z</time></trkpt><trkpt lat="42.41614826124828" lon="12.685538188666714"><ele>651.0</ele><time>2026-04-18T12:22:31.999Z</time></trkpt><trkpt lat="42.41607917365223" lon="12.685404275080176"><ele>651.0</ele><time>2026-04-18T12:22:32.999Z</time></trkpt><trkpt lat="42.4160102994114" lon="12.685277632179556"><ele>651.0</ele><time>2026-04-18T12:22:33.999Z</time></trkpt><trkpt lat="42.41594597758929" lon="12.685136493666235"><ele>646.5999999999999</ele><time>2026-04-18T12:22:34.999Z</time></trkpt><trkpt lat="42.41589453214648" lon="12.684996721790451"><ele>642.1999999999999</ele><time>2026-04-18T12:22:35.999Z</time></trkpt><trkpt lat="42.41583811174613" lon="12.68487724055028"><ele>637.8</ele><time>2026-04-18T12:22:36.999Z</time></trkpt><trkpt lat="42.41576309431134" lon="12.684785439455956"><ele>633.4</ele><time>2026-04-18T12:22:37.999Z</time></trkpt><trkpt lat="42.41567654234365" lon="12.684741323128602"><ele>629.0</ele><time>2026-04-18T12:22:38.999Z</time></trkpt><trkpt lat="42.41557828401815" lon="12.68472021120464"><ele>628.75</ele><time>2026-04-18T12:22:39.999Z</time></trkpt><trkpt lat="42.41544555340197" lon="12.684719280094077"><ele>628.5</ele><time>2026-04-18T12:22:40.999Z</time></trkpt><trkpt lat="42.41529235212473" lon="12.684735437667007"><ele>628.25</ele><time>2026-04-18T12:22:41.999Z</time></trkpt><trkpt lat="42.41516262271542" lon="12.68470752683995"><ele>628.0</ele><time>2026-04-18T12:22:42.999Z</time></trkpt><trkpt lat="42.4150421975458" lon="12.684652271676066"><ele>628.0</ele><time>2026-04-18T12:22:43.999Z</time></trkpt><trkpt lat="42.41493809521355" lon="12.684587283912983"><ele>628.0</ele><time>2026-04-18T12:22:44.999Z</time></trkpt><trkpt lat="42.414844974885554" lon="12.684548164539045"><ele>628.0</ele><time>2026-04-18T12:22:45.999Z</time></trkpt><trkpt lat="42.41476276703096" lon="12.684500583903935"><ele>628.0</ele><time>2026-04-18T12:22:46.999Z</time></trkpt><trkpt lat="42.41467851634317" lon="12.684504125122704"><ele>628.0</ele><time>2026-04-18T12:22:47.999Z</time></trkpt><trkpt lat="42.41459573907619" lon="12.684588487163937"><ele>622.5</ele><time>2026-04-18T12:22:48.999Z</time></trkpt><trkpt lat="42.414534795848425" lon="12.684707756667134"><ele>617.0</ele><time>2026-04-18T12:22:49.999Z</time></trkpt><trkpt lat="42.41447743950101" lon="12.684873897769657"><ele>611.5</ele><time>2026-04-18T12:22:50.999Z</time></trkpt><trkpt lat="42.414445723194895" lon="12.685084983169462"><ele>606.0</ele><time>2026-04-18T12:22:51.999Z</time></trkpt><trkpt lat="42.41439172178138" lon="12.685272762891774"><ele>606.0</ele><time>2026-04-18T12:22:52.999Z</time></trkpt><trkpt lat="42.41437715216493" lon="12.685423669332797"><ele>606.0</ele><time>2026-04-18T12:22:53.999Z</time></trkpt><trkpt lat="42.41430894747605" lon="12.6856081073485"><ele>606.0</ele><time>2026-04-18T12:22:54.999Z</time></trkpt><trkpt lat="42.41425978009722" lon="12.68577715432615"><ele>606.0</ele><time>2026-04-18T12:22:55.999Z</time></trkpt><trkpt lat="42.41421951294382" lon="12.685930908321843"><ele>606.0</ele><time>2026-04-18T12:22:56.999Z</time></trkpt><trkpt lat="42.414184853539695" lon="12.686069080178864"><ele>606.0</ele><time>2026-04-18T12:22:57.999Z</time></trkpt><trkpt lat="42.414148334091884" lon="12.686196696187883"><ele>606.0</ele><time>2026-04-18T12:22:58.999Z</time></trkpt><trkpt lat="42.4141031790538" lon="12.686318633301727"><ele>606.0</ele><time>2026-04-18T12:22:59.999Z</time></trkpt><trkpt lat="42.414052455482135" lon="12.686400978021725"><ele>606.0</ele><time>2026-04-18T12:23:00.999Z</time></trkpt><trkpt lat="42.41397768885156" lon="12.686468462675501"><ele>608.4</ele><time>2026-04-18T12:23:01.999Z</time></trkpt><trkpt lat="42.4138973943463" lon="12.686482527515837"><ele>610.8</ele><time>2026-04-18T12:23:02.999Z</time></trkpt><trkpt lat="42.41381816239122" lon="12.686438490610941"><ele>613.1999999999999</ele><time>2026-04-18T12:23:03.999Z</time></trkpt><trkpt lat="42.41373069940732" lon="12.68630884051179"><ele>615.6</ele><time>2026-04-18T12:23:04.999Z</time></trkpt><trkpt lat="42.41364383010382" lon="12.686167901677535"><ele>618.0</ele><time>2026-04-18T12:23:05.999Z</time></trkpt><trkpt lat="42.413557710816384" lon="12.686042586071716"><ele>611.0</ele><time>2026-04-18T12:23:06.999Z</time></trkpt><trkpt lat="42.41346456841258" lon="12.685942905868597"><ele>604.0</ele><time>2026-04-18T12:23:07.999Z</time></trkpt><trkpt lat="42.41335968430562" lon="12.68585255344268"><ele>597.0</ele><time>2026-04-18T12:23:08.999Z</time></trkpt><trkpt lat="42.41323856455474" lon="12.685785274499848"><ele>590.0</ele><time>2026-04-18T12:23:09.999Z</time></trkpt><trkpt lat="42.41310717403613" lon="12.685727575986988"><ele>588.6</ele><time>2026-04-18T12:23:10.999Z</time></trkpt><trkpt lat="42.41297321053258" lon="12.685688717633088"><ele>587.2</ele><time>2026-04-18T12:23:11.999Z</time></trkpt><trkpt lat="42.412857176428965" lon="12.68566727499098"><ele>585.8</ele><time>2026-04-18T12:23:12.999Z</time></trkpt><trkpt lat="42.41276005227309" lon="12.685667127649335"><ele>584.4</ele><time>2026-04-18T12:23:13.999Z</time></trkpt><trkpt lat="42.412669120881674" lon="12.685692158790966"><ele>583.0</ele><time>2026-04-18T12:23:14.999Z</time></trkpt><trkpt lat="42.412573925413454" lon="12.685743635604753"><ele>583.0</ele><time>2026-04-18T12:23:15.999Z</time></trkpt><trkpt lat="42.41247009871343" lon="12.68583395441462"><ele>583.0</ele><time>2026-04-18T12:23:16.999Z</time></trkpt><trkpt lat="42.412390149995076" lon="12.685948730687397"><ele>583.0</ele><time>2026-04-18T12:23:17.999Z</time></trkpt><trkpt lat="42.412328620924725" lon="12.686066013525414"><ele>583.0</ele><time>2026-04-18T12:23:18.999Z</time></trkpt><trkpt lat="42.41227312736003" lon="12.686167167485499"><ele>583.0</ele><time>2026-04-18T12:23:19.999Z</time></trkpt><trkpt lat="42.412214161784846" lon="12.686233679601521"><ele>581.6</ele><time>2026-04-18T12:23:20.999Z</time></trkpt><trkpt lat="42.41215624319444" lon="12.686270899916252"><ele>580.1999999999999</ele><time>2026-04-18T12:23:21.999Z</time></trkpt><trkpt lat="42.41208461934012" lon="12.68625182710129"><ele>578.8</ele><time>2026-04-18T12:23:22.999Z</time></trkpt><trkpt lat="42.411987565922935" lon="12.6861783567291"><ele>577.4</ele><time>2026-04-18T12:23:23.999Z</time></trkpt><trkpt lat="42.41187380272175" lon="12.686072552711911"><ele>576.0</ele><time>2026-04-18T12:23:24.999Z</time></trkpt><trkpt lat="42.41173154346566" lon="12.685967058361618"><ele>576.0</ele><time>2026-04-18T12:23:25.999Z</time></trkpt><trkpt lat="42.4116009400229" lon="12.68588783443308"><ele>576.0</ele><time>2026-04-18T12:23:26.999Z</time></trkpt><trkpt lat="42.4114675249652" lon="12.685796470293115"><ele>576.0</ele><time>2026-04-18T12:23:27.999Z</time></trkpt><trkpt lat="42.4113531258393" lon="12.68572388172649"><ele>576.0</ele><time>2026-04-18T12:23:28.999Z</time></trkpt><trkpt lat="42.41123943415242" lon="12.68562328069302"><ele>576.25</ele><time>2026-04-18T12:23:29.999Z</time></trkpt><trkpt lat="42.41112388841843" lon="12.685511875998511"><ele>576.5</ele><time>2026-04-18T12:23:30.999Z</time></trkpt><trkpt lat="42.41099185566594" lon="12.685427093607146"><ele>576.75</ele><time>2026-04-18T12:23:31.999Z</time></trkpt><trkpt lat="42.4108614411723" lon="12.68538963249914"><ele>577.0</ele><time>2026-04-18T12:23:32.999Z</time></trkpt><trkpt lat="42.41075287665648" lon="12.685362197231314"><ele>577.0</ele><time>2026-04-18T12:23:33.999Z</time></trkpt><trkpt lat="42.41064050240612" lon="12.68536598088581"><ele>577.0</ele><time>2026-04-18T12:23:34.999Z</time></trkpt><trkpt lat="42.410513099620665" lon="12.685392960409846"><ele>577.0</ele><time>2026-04-18T12:23:35.999Z</time></trkpt><trkpt lat="42.41040553803185" lon="12.685429084431101"><ele>577.0</ele><time>2026-04-18T12:23:36.999Z</time></trkpt><trkpt lat="42.41030737535708" lon="12.68547624877358"><ele>572.25</ele><time>2026-04-18T12:23:37.999Z</time></trkpt><trkpt lat="42.4102075638935" lon="12.685571951433568"><ele>567.5</ele><time>2026-04-18T12:23:38.999Z</time></trkpt><trkpt lat="42.41007852261984" lon="12.685699064431978"><ele>562.75</ele><time>2026-04-18T12:23:39.999Z</time></trkpt><trkpt lat="42.4099552180672" lon="12.68582269248752"><ele>558.0</ele><time>2026-04-18T12:23:40.999Z</time></trkpt><trkpt lat="42.409854497603455" lon="12.685931806236196"><ele>558.0</ele><time>2026-04-18T12:23:41.999Z</time></trkpt><trkpt lat="42.4097769566534" lon="12.686046102623765"><ele>558.0</ele><time>2026-04-18T12:23:42.999Z</time></trkpt><trkpt lat="42.40969955387865" lon="12.68613701219899"><ele>558.0</ele><time>2026-04-18T12:23:44Z</time></trkpt><trkpt lat="42.40962075750495" lon="12.68622335320426"><ele>558.0</ele><time>2026-04-18T12:23:45Z</time></trkpt><trkpt lat="42.409554492030885" lon="12.686315209707114"><ele>558.0</ele><time>2026-04-18T12:23:46Z</time></trkpt><trkpt lat="42.40948303074105" lon="12.68641135623789"><ele>555.4</ele><time>2026-04-18T12:23:47Z</time></trkpt><trkpt lat="42.40942198580575" lon="12.686522619301547"><ele>552.8</ele><time>2026-04-18T12:23:48Z</time></trkpt><trkpt lat="42.40936323231414" lon="12.686632933882267"><ele>550.2</ele><time>2026-04-18T12:23:49Z</time></trkpt><trkpt lat="42.40930339047951" lon="12.68675036151107"><ele>547.6</ele><time>2026-04-18T12:23:50Z</time></trkpt><trkpt lat="42.40924850555274" lon="12.686874017670327"><ele>545.0</ele><time>2026-04-18T12:23:51Z</time></trkpt><trkpt lat="42.40919747532223" lon="12.68700367402938"><ele>545.0</ele><time>2026-04-18T12:23:52Z</time></trkpt><trkpt lat="42.40914472213177" lon="12.687123876652109"><ele>545.0</ele><time>2026-04-18T12:23:53Z</time></trkpt><trkpt lat="42.409098421476585" lon="12.68721025296412"><ele>545.0</ele><time>2026-04-18T12:23:54Z</time></trkpt><trkpt lat="42.40903537109622" lon="12.68732814784067"><ele>545.0</ele><time>2026-04-18T12:23:56Z</time></trkpt><trkpt lat="42.408990626933885" lon="12.687426717939557"><ele>545.0</ele><time>2026-04-18T12:23:58Z</time></trkpt><trkpt lat="42.4089919668265" lon="12.6875330294199"><ele>545.0</ele><time>2026-04-18T12:24:00Z</time></trkpt><trkpt lat="42.40901536518476" lon="12.68761631732552"><ele>545.0</ele><time>2026-04-18T12:24:01Z</time></trkpt><trkpt lat="42.40906565012217" lon="12.687747884708322"><ele>545.0</ele><time>2026-04-18T12:24:02Z</time></trkpt><trkpt lat="42.409136282556716" lon="12.68786294308411"><ele>545.0</ele><time>2026-04-18T12:24:03Z</time></trkpt><trkpt lat="42.40920467602336" lon="12.687922623670225"><ele>545.0</ele><time>2026-04-18T12:24:04Z</time></trkpt><trkpt lat="42.4092387979325" lon="12.688018401000768"><ele>545.0</ele><time>2026-04-18T12:24:06Z</time></trkpt><trkpt lat="42.40925227491039" lon="12.688135515628876"><ele>542.2</ele><time>2026-04-18T12:24:09Z</time></trkpt><trkpt lat="42.40930188920589" lon="12.688207501726884"><ele>539.4</ele><time>2026-04-18T12:24:11Z</time></trkpt><trkpt lat="42.409373434712876" lon="12.688321643450585"><ele>536.6</ele><time>2026-04-18T12:24:12.999Z</time></trkpt><trkpt lat="42.40940800307005" lon="12.688395860414653"><ele>533.8</ele><time>2026-04-18T12:24:13.999Z</time></trkpt><trkpt lat="42.40944638629629" lon="12.688521573445769"><ele>531.0</ele><time>2026-04-18T12:24:16.999Z</time></trkpt><trkpt lat="42.40942720955709" lon="12.688376429810855"><ele>531.0</ele><time>2026-04-18T12:24:20.999Z</time></trkpt><trkpt lat="42.40935111930082" lon="12.688259078381602"><ele>531.0</ele><time>2026-04-18T12:24:21.999Z</time></trkpt><trkpt lat="42.40924911711712" lon="12.688114945763903"><ele>531.0</ele><time>2026-04-18T12:24:22.999Z</time></trkpt><trkpt lat="42.40913543625447" lon="12.687943505629098"><ele>531.0</ele><time>2026-04-18T12:24:23.999Z</time></trkpt><trkpt lat="42.40904426080329" lon="12.68777215370156"><ele>529.8</ele><time>2026-04-18T12:24:24.999Z</time></trkpt><trkpt lat="42.40895247713188" lon="12.687640581938057"><ele>528.6</ele><time>2026-04-18T12:24:25.999Z</time></trkpt><trkpt lat="42.408867618080464" lon="12.687553272355068"><ele>527.4</ele><time>2026-04-18T12:24:26.999Z</time></trkpt><trkpt lat="42.408816055583365" lon="12.687478958000568"><ele>526.2</ele><time>2026-04-18T12:24:27.999Z</time></trkpt><trkpt lat="42.408755941599004" lon="12.687368140334174"><ele>525.0</ele><time>2026-04-18T12:24:29.999Z</time></trkpt><trkpt lat="42.408564254195916" lon="12.687339480087418"><ele>525.0</ele><time>2026-04-18T12:24:31.999Z</time></trkpt><trkpt lat="42.408447213801566" lon="12.687313060072167"><ele>525.0</ele><time>2026-04-18T12:24:32.999Z</time></trkpt><trkpt lat="42.408335274993995" lon="12.687256330445338"><ele>525.0</ele><time>2026-04-18T12:24:33.999Z</time></trkpt><trkpt lat="42.40824094899256" lon="12.687199600469501"><ele>525.0</ele><time>2026-04-18T12:24:34.999Z</time></trkpt><trkpt lat="42.408151988707345" lon="12.687158365810745"><ele>525.0</ele><time>2026-04-18T12:24:35.999Z</time></trkpt><trkpt lat="42.408061053666515" lon="12.68713481704974"><ele>524.8</ele><time>2026-04-18T12:24:36.999Z</time></trkpt><trkpt lat="42.4079670243717" lon="12.687127809572965"><ele>524.6</ele><time>2026-04-18T12:24:37.999Z</time></trkpt><trkpt lat="42.40787089106954" lon="12.687128761499014"><ele>524.4</ele><time>2026-04-18T12:24:38.999Z</time></trkpt><trkpt lat="42.40776794620194" lon="12.687132728229518"><ele>524.2</ele><time>2026-04-18T12:24:39.999Z</time></trkpt><trkpt lat="42.40766607903511" lon="12.687157282799731"><ele>524.0</ele><time>2026-04-18T12:24:40.999Z</time></trkpt><trkpt lat="42.40757886550198" lon="12.687179761762744"><ele>524.0</ele><time>2026-04-18T12:24:41.999Z</time></trkpt><trkpt lat="42.407484328657084" lon="12.687211850468898"><ele>524.0</ele><time>2026-04-18T12:24:42.999Z</time></trkpt><trkpt lat="42.407393031536415" lon="12.687225906718787"><ele>524.0</ele><time>2026-04-18T12:24:43.999Z</time></trkpt><trkpt lat="42.407299862762464" lon="12.68721783945021"><ele>524.0</ele><time>2026-04-18T12:24:44.999Z</time></trkpt><trkpt lat="42.40721521242193" lon="12.687194272896697"><ele>524.0</ele><time>2026-04-18T12:24:45.999Z</time></trkpt><trkpt lat="42.40714448666703" lon="12.68714446964472"><ele>524.0</ele><time>2026-04-18T12:24:46.999Z</time></trkpt><trkpt lat="42.40707143753633" lon="12.687127640173177"><ele>523.6666666666666</ele><time>2026-04-18T12:24:48.999Z</time></trkpt><trkpt lat="42.40719763483647" lon="12.686907447027622"><ele>523.3333333333334</ele><time>2026-04-18T12:24:52.999Z</time></trkpt><trkpt lat="42.4072923199692" lon="12.686807240854007"><ele>523.0</ele><time>2026-04-18T12:24:53.999Z</time></trkpt><trkpt lat="42.40739475120381" lon="12.686701189107294"><ele>523.0</ele><time>2026-04-18T12:24:54.999Z</time></trkpt><trkpt lat="42.407508444296326" lon="12.686589502880471"><ele>523.0</ele><time>2026-04-18T12:24:55.999Z</time></trkpt><trkpt lat="42.40762341740871" lon="12.686513719527332"><ele>523.0</ele><time>2026-04-18T12:24:56.999Z</time></trkpt><trkpt lat="42.407694434997076" lon="12.686432573004753"><ele>523.0</ele><time>2026-04-18T12:24:57.999Z</time></trkpt><trkpt lat="42.40778891904432" lon="12.686362135177609"><ele>523.0</ele><time>2026-04-18T12:24:58.999Z</time></trkpt><trkpt lat="42.407869669188905" lon="12.686320731926953"><ele>523.0</ele><time>2026-04-18T12:24:59.999Z</time></trkpt><trkpt lat="42.40794564115607" lon="12.686299270693956"><ele>523.0</ele><time>2026-04-18T12:25:00.999Z</time></trkpt><trkpt lat="42.40802256707234" lon="12.68630657218969"><ele>523.0</ele><time>2026-04-18T12:25:01.999Z</time></trkpt><trkpt lat="42.40810976604727" lon="12.686357090312207"><ele>523.0</ele><time>2026-04-18T12:25:02.999Z</time></trkpt><trkpt lat="42.40819286821325" lon="12.686452649285913"><ele>523.0</ele><time>2026-04-18T12:25:03.999Z</time></trkpt><trkpt lat="42.408273415517975" lon="12.686542489076162"><ele>522.6</ele><time>2026-04-18T12:25:04.999Z</time></trkpt><trkpt lat="42.40836523029981" lon="12.686573991480122"><ele>522.1999999999999</ele><time>2026-04-18T12:25:05.999Z</time></trkpt><trkpt lat="42.40846276719832" lon="12.686554719906367"><ele>521.8</ele><time>2026-04-18T12:25:06.999Z</time></trkpt><trkpt lat="42.40856765852295" lon="12.686518222983107"><ele>521.4</ele><time>2026-04-18T12:25:07.999Z</time></trkpt><trkpt lat="42.408639876094135" lon="12.686403439226597"><ele>521.0</ele><time>2026-04-18T12:25:08.999Z</time></trkpt><trkpt lat="42.40868995907327" lon="12.686272184190772"><ele>521.0</ele><time>2026-04-18T12:25:09.999Z</time></trkpt><trkpt lat="42.40874786169668" lon="12.686120586402517"><ele>521.0</ele><time>2026-04-18T12:25:10.999Z</time></trkpt><trkpt lat="42.40878358303947" lon="12.685931082002313"><ele>521.0</ele><time>2026-04-18T12:25:11.999Z</time></trkpt><trkpt lat="42.408804702087835" lon="12.68574420787518"><ele>521.0</ele><time>2026-04-18T12:25:12.999Z</time></trkpt><trkpt lat="42.4088289154678" lon="12.68557806143814"><ele>522.25</ele><time>2026-04-18T12:25:13.999Z</time></trkpt><trkpt lat="42.40885779652729" lon="12.685418710476542"><ele>523.5</ele><time>2026-04-18T12:25:14.999Z</time></trkpt><trkpt lat="42.40887596092151" lon="12.685256954136005"><ele>524.75</ele><time>2026-04-18T12:25:16Z</time></trkpt><trkpt lat="42.40892212399185" lon="12.685126358934085"><ele>526.0</ele><time>2026-04-18T12:25:17Z</time></trkpt><trkpt lat="42.40897176728368" lon="12.68496290366959"><ele>522.25</ele><time>2026-04-18T12:25:18Z</time></trkpt><trkpt lat="42.40902212800752" lon="12.684822751545868"><ele>518.5</ele><time>2026-04-18T12:25:19Z</time></trkpt><trkpt lat="42.40907761573262" lon="12.68467919356383"><ele>514.75</ele><time>2026-04-18T12:25:20Z</time></trkpt><trkpt lat="42.40913299662078" lon="12.684539162134515"><ele>511.0</ele><time>2026-04-18T12:25:21Z</time></trkpt><trkpt lat="42.40916163653399" lon="12.68439053799156"><ele>507.0</ele><time>2026-04-18T12:25:22Z</time></trkpt><trkpt lat="42.40921400512907" lon="12.684245941747296"><ele>503.0</ele><time>2026-04-18T12:25:23Z</time></trkpt><trkpt lat="42.40927943697311" lon="12.68409293202685"><ele>499.0</ele><time>2026-04-18T12:25:24Z</time></trkpt><trkpt lat="42.40934818908032" lon="12.683955957318144"><ele>495.0</ele><time>2026-04-18T12:25:25Z</time></trkpt><trkpt lat="42.4094169880055" lon="12.683828415253169"><ele>495.0</ele><time>2026-04-18T12:25:26Z</time></trkpt><trkpt lat="42.40950553998134" lon="12.683710736754355"><ele>495.0</ele><time>2026-04-18T12:25:27Z</time></trkpt><trkpt lat="42.409555473886165" lon="12.683577528968542"><ele>495.0</ele><time>2026-04-18T12:25:28Z</time></trkpt><trkpt lat="42.409610088445355" lon="12.683454808162727"><ele>495.0</ele><time>2026-04-18T12:25:29Z</time></trkpt><trkpt lat="42.40965936132824" lon="12.683327727965676"><ele>495.0</ele><time>2026-04-18T12:25:30Z</time></trkpt><trkpt lat="42.40969669035793" lon="12.683176441505646"><ele>495.2</ele><time>2026-04-18T12:25:31Z</time></trkpt><trkpt lat="42.40973124779978" lon="12.683037093699381"><ele>495.4</ele><time>2026-04-18T12:25:32Z</time></trkpt><trkpt lat="42.409740714324236" lon="12.68293247737148"><ele>495.6</ele><time>2026-04-18T12:25:33Z</time></trkpt><trkpt lat="42.40976197345815" lon="12.68283520578229"><ele>495.8</ele><time>2026-04-18T12:25:34Z</time></trkpt><trkpt lat="42.409898925161436" lon="12.68273743664483"><ele>496.0</ele><time>2026-04-18T12:25:36Z</time></trkpt><trkpt lat="42.41002522229726" lon="12.682826614597271"><ele>496.0</ele><time>2026-04-18T12:25:37Z</time></trkpt><trkpt lat="42.4101432843112" lon="12.682869109936039"><ele>496.0</ele><time>2026-04-18T12:25:38Z</time></trkpt><trkpt lat="42.410244839091355" lon="12.682901545897087"><ele>496.0</ele><time>2026-04-18T12:25:39Z</time></trkpt><trkpt lat="42.41032588284248" lon="12.682925278046623"><ele>496.0</ele><time>2026-04-18T12:25:40Z</time></trkpt><trkpt lat="42.410415781822266" lon="12.682902525140548"><ele>496.0</ele><time>2026-04-18T12:25:41Z</time></trkpt><trkpt lat="42.41046624586131" lon="12.68283152559053"><ele>492.20000000000005</ele><time>2026-04-18T12:25:42Z</time></trkpt><trkpt lat="42.41044707507341" lon="12.682718217502671"><ele>488.40000000000003</ele><time>2026-04-18T12:25:43Z</time></trkpt><trkpt lat="42.410402787785" lon="12.682626398662332"><ele>484.6</ele><time>2026-04-18T12:25:44Z</time></trkpt><trkpt lat="42.41031970230633" lon="12.682561250790103"><ele>480.8</ele><time>2026-04-18T12:25:45Z</time></trkpt><trkpt lat="42.41021633707818" lon="12.682522182752075"><ele>477.0</ele><time>2026-04-18T12:25:46Z</time></trkpt><trkpt lat="42.410091295084236" lon="12.6824811327346"><ele>477.0</ele><time>2026-04-18T12:25:47Z</time></trkpt><trkpt lat="42.409968070583766" lon="12.682404698638747"><ele>477.0</ele><time>2026-04-18T12:25:48Z</time></trkpt><trkpt lat="42.409837629522976" lon="12.682313103616279"><ele>477.0</ele><time>2026-04-18T12:25:49Z</time></trkpt><trkpt lat="42.409712153486055" lon="12.682215599247273"><ele>477.0</ele><time>2026-04-18T12:25:50Z</time></trkpt><trkpt lat="42.409598654814694" lon="12.682117802739631"><ele>475.6</ele><time>2026-04-18T12:25:51Z</time></trkpt><trkpt lat="42.40949318089914" lon="12.682026242882193"><ele>474.20000000000005</ele><time>2026-04-18T12:25:52Z</time></trkpt><trkpt lat="42.40938643321538" lon="12.681949425387405"><ele>472.8</ele><time>2026-04-18T12:25:53Z</time></trkpt><trkpt lat="42.409278363749344" lon="12.681897709110256"><ele>471.4</ele><time>2026-04-18T12:25:54Z</time></trkpt><trkpt lat="42.40920148769496" lon="12.681887862339687"><ele>470.0</ele><time>2026-04-18T12:25:55Z</time></trkpt><trkpt lat="42.409143048822386" lon="12.681919932259255"><ele>470.0</ele><time>2026-04-18T12:25:56Z</time></trkpt><trkpt lat="42.40909246243791" lon="12.68199808937821"><ele>470.0</ele><time>2026-04-18T12:25:57Z</time></trkpt><trkpt lat="42.409086335022586" lon="12.68211652950997"><ele>470.0</ele><time>2026-04-18T12:25:58Z</time></trkpt><trkpt lat="42.4090940733695" lon="12.682231487970698"><ele>470.0</ele><time>2026-04-18T12:25:59Z</time></trkpt><trkpt lat="42.40912531743855" lon="12.682362489053142"><ele>470.0</ele><time>2026-04-18T12:26:00Z</time></trkpt><trkpt lat="42.40915032832694" lon="12.68252171356165"><ele>470.0</ele><time>2026-04-18T12:26:01Z</time></trkpt><trkpt lat="42.40913596276484" lon="12.682662973516756"><ele>470.0</ele><time>2026-04-18T12:26:02Z</time></trkpt><trkpt lat="42.409127171413665" lon="12.682787700568412"><ele>470.0</ele><time>2026-04-18T12:26:03Z</time></trkpt><trkpt lat="42.409084934074016" lon="12.682887234281823"><ele>470.0</ele><time>2026-04-18T12:26:04Z</time></trkpt><trkpt lat="42.409020782332234" lon="12.682997955797344"><ele>470.0</ele><time>2026-04-18T12:26:05Z</time></trkpt><trkpt lat="42.4089592479407" lon="12.683040238581121"><ele>468.4</ele><time>2026-04-18T12:26:06Z</time></trkpt><trkpt lat="42.4088692768463" lon="12.683065146723349"><ele>466.8</ele><time>2026-04-18T12:26:07Z</time></trkpt><trkpt lat="42.408762518818385" lon="12.683007448380312"><ele>465.20000000000005</ele><time>2026-04-18T12:26:08Z</time></trkpt><trkpt lat="42.40865290182744" lon="12.682941053365987"><ele>463.6</ele><time>2026-04-18T12:26:09Z</time></trkpt><trkpt lat="42.408558415707176" lon="12.682892566327265"><ele>462.0</ele><time>2026-04-18T12:26:10Z</time></trkpt><trkpt lat="42.408480829759306" lon="12.682906501478767"><ele>462.0</ele><time>2026-04-18T12:26:11Z</time></trkpt><trkpt lat="42.40842521827355" lon="12.682946934096792"><ele>462.00000000000006</ele><time>2026-04-18T12:26:12Z</time></trkpt><trkpt lat="42.408342094217936" lon="12.68302569217938"><ele>462.00000000000006</ele><time>2026-04-18T12:26:13Z</time></trkpt><trkpt lat="42.408267819267756" lon="12.683165375422071"><ele>462.0</ele><time>2026-04-18T12:26:14Z</time></trkpt><trkpt lat="42.40821716398846" lon="12.683351452562809"><ele>462.0</ele><time>2026-04-18T12:26:15Z</time></trkpt><trkpt lat="42.408154527794906" lon="12.683522483944481"><ele>464.40000000000003</ele><time>2026-04-18T12:26:16Z</time></trkpt><trkpt lat="42.408097520111326" lon="12.683653224711593"><ele>466.80000000000007</ele><time>2026-04-18T12:26:17Z</time></trkpt><trkpt lat="42.40806101573131" lon="12.683765223358776"><ele>469.2</ele><time>2026-04-18T12:26:18Z</time></trkpt><trkpt lat="42.408023158696814" lon="12.683842555743475"><ele>471.6</ele><time>2026-04-18T12:26:19Z</time></trkpt><trkpt lat="42.4079229912191" lon="12.683927346259315"><ele>474.0</ele><time>2026-04-18T12:26:21Z</time></trkpt><trkpt lat="42.407837083093504" lon="12.683916516236263"><ele>474.1666666666667</ele><time>2026-04-18T12:26:22Z</time></trkpt><trkpt lat="42.40773701883443" lon="12.683893389047777"><ele>474.33333333333337</ele><time>2026-04-18T12:26:23Z</time></trkpt><trkpt lat="42.40765485878198" lon="12.68383880611907"><ele>474.5</ele><time>2026-04-18T12:26:24Z</time></trkpt><trkpt lat="42.40759253568965" lon="12.683796302424685"><ele>474.6666666666667</ele><time>2026-04-18T12:26:25Z</time></trkpt><trkpt lat="42.40754231355998" lon="12.683736173037458"><ele>474.83333333333337</ele><time>2026-04-18T12:26:26Z</time></trkpt><trkpt lat="42.40749154513788" lon="12.683660982307334"><ele>475.0</ele><time>2026-04-18T12:26:27Z</time></trkpt><trkpt lat="42.40747950802638" lon="12.683520008784981"><ele>471.5</ele><time>2026-04-18T12:26:28Z</time></trkpt><trkpt lat="42.4074601268348" lon="12.683376917681516"><ele>468.0</ele><time>2026-04-18T12:26:29Z</time></trkpt><trkpt lat="42.40744039835034" lon="12.683194932243373"><ele>464.5</ele><time>2026-04-18T12:26:30Z</time></trkpt><trkpt lat="42.407423042523675" lon="12.68299394431406"><ele>461.0</ele><time>2026-04-18T12:26:31Z</time></trkpt><trkpt lat="42.407401584084404" lon="12.682802797237432"><ele>458.75</ele><time>2026-04-18T12:26:32Z</time></trkpt><trkpt lat="42.407402085845995" lon="12.682632255632138"><ele>456.5</ele><time>2026-04-18T12:26:33Z</time></trkpt><trkpt lat="42.40740859016231" lon="12.682468826654457"><ele>454.25</ele><time>2026-04-18T12:26:34Z</time></trkpt><trkpt lat="42.40741060467027" lon="12.682320030756339"><ele>452.0</ele><time>2026-04-18T12:26:35Z</time></trkpt><trkpt lat="42.40741451465972" lon="12.682192778395615"><ele>452.0</ele><time>2026-04-18T12:26:36Z</time></trkpt><trkpt lat="42.4074028366083" lon="12.682080051323922"><ele>452.00000000000006</ele><time>2026-04-18T12:26:37Z</time></trkpt><trkpt lat="42.407366161967055" lon="12.681982348902396"><ele>452.00000000000006</ele><time>2026-04-18T12:26:38Z</time></trkpt><trkpt lat="42.4072856909883" lon="12.681899734250415"><ele>452.0</ele><time>2026-04-18T12:26:39Z</time></trkpt><trkpt lat="42.407192112482356" lon="12.681771602027746"><ele>452.0</ele><time>2026-04-18T12:26:40Z</time></trkpt><trkpt lat="42.40707217613542" lon="12.681661724166977"><ele>452.0</ele><time>2026-04-18T12:26:41Z</time></trkpt><trkpt lat="42.40696174335486" lon="12.681559278255055"><ele>452.0</ele><time>2026-04-18T12:26:42Z</time></trkpt><trkpt lat="42.40684265139693" lon="12.681463936081537"><ele>452.0</ele><time>2026-04-18T12:26:43Z</time></trkpt><trkpt lat="42.406734461982275" lon="12.681396964817257"><ele>452.0</ele><time>2026-04-18T12:26:44Z</time></trkpt><trkpt lat="42.40663360189218" lon="12.681311976875296"><ele>452.0</ele><time>2026-04-18T12:26:45Z</time></trkpt><trkpt lat="42.406536862295376" lon="12.681246299181531"><ele>452.00000000000006</ele><time>2026-04-18T12:26:46Z</time></trkpt><trkpt lat="42.40645353264836" lon="12.681175210115816"><ele>452.00000000000006</ele><time>2026-04-18T12:26:47Z</time></trkpt><trkpt lat="42.40637769431714" lon="12.681077216177904"><ele>452.0</ele><time>2026-04-18T12:26:48Z</time></trkpt><trkpt lat="42.406289781876076" lon="12.680996743248187"><ele>452.0</ele><time>2026-04-18T12:26:49Z</time></trkpt><trkpt lat="42.40622622988649" lon="12.680903683209365"><ele>451.40000000000003</ele><time>2026-04-18T12:26:50Z</time></trkpt><trkpt lat="42.40616231258118" lon="12.680853732030256"><ele>450.80000000000007</ele><time>2026-04-18T12:26:51Z</time></trkpt><trkpt lat="42.40602408354753" lon="12.680921802519755"><ele>450.2</ele><time>2026-04-18T12:26:53Z</time></trkpt><trkpt lat="42.40595417320365" lon="12.681018689098961"><ele>449.6</ele><time>2026-04-18T12:26:54Z</time></trkpt><trkpt lat="42.40588162985936" lon="12.681147433516445"><ele>449.0</ele><time>2026-04-18T12:26:55Z</time></trkpt><trkpt lat="42.40580688657471" lon="12.681269161733868"><ele>449.0</ele><time>2026-04-18T12:26:56Z</time></trkpt><trkpt lat="42.40571369273125" lon="12.68132733841644"><ele>449.0</ele><time>2026-04-18T12:26:57Z</time></trkpt><trkpt lat="42.405583117434084" lon="12.68131951942174"><ele>449.0</ele><time>2026-04-18T12:26:58Z</time></trkpt><trkpt lat="42.405449569033216" lon="12.681278591426365"><ele>449.0</ele><time>2026-04-18T12:26:59Z</time></trkpt><trkpt lat="42.40529403904296" lon="12.681233917596186"><ele>447.75</ele><time>2026-04-18T12:27:00Z</time></trkpt><trkpt lat="42.405161242290525" lon="12.681196767493924"><ele>446.5</ele><time>2026-04-18T12:27:01Z</time></trkpt><trkpt lat="42.405026643290505" lon="12.681171131180507"><ele>445.25</ele><time>2026-04-18T12:27:02Z</time></trkpt><trkpt lat="42.40487870943801" lon="12.681177487095386"><ele>444.0</ele><time>2026-04-18T12:27:03Z</time></trkpt><trkpt lat="42.40472883397112" lon="12.681170630356972"><ele>441.0</ele><time>2026-04-18T12:27:04Z</time></trkpt><trkpt lat="42.404596808957194" lon="12.681198625832284"><ele>438.0</ele><time>2026-04-18T12:27:05Z</time></trkpt><trkpt lat="42.40448263737486" lon="12.681205509461325"><ele>435.0</ele><time>2026-04-18T12:27:06Z</time></trkpt><trkpt lat="42.40438406991392" lon="12.681162537192721"><ele>432.0</ele><time>2026-04-18T12:27:07Z</time></trkpt><trkpt lat="42.40428185519629" lon="12.68114520996968"><ele>432.0</ele><time>2026-04-18T12:27:08Z</time></trkpt><trkpt lat="42.40418338625893" lon="12.68107447278142"><ele>432.0</ele><time>2026-04-18T12:27:09Z</time></trkpt><trkpt lat="42.404097218835524" lon="12.681017805393017"><ele>432.0</ele><time>2026-04-18T12:27:10Z</time></trkpt><trkpt lat="42.404032471026085" lon="12.68097906539792"><ele>432.0</ele><time>2026-04-18T12:27:11Z</time></trkpt><trkpt lat="42.40396670439456" lon="12.680991278419578"><ele>432.0</ele><time>2026-04-18T12:27:12Z</time></trkpt><trkpt lat="42.40390826650688" lon="12.681062384725438"><ele>432.0</ele><time>2026-04-18T12:27:13Z</time></trkpt><trkpt lat="42.4038806183736" lon="12.681195916274916"><ele>429.20000000000005</ele><time>2026-04-18T12:27:14Z</time></trkpt><trkpt lat="42.40381938920327" lon="12.681310675178942"><ele>426.40000000000003</ele><time>2026-04-18T12:27:15Z</time></trkpt><trkpt lat="42.403751007393225" lon="12.681441338683852"><ele>423.6</ele><time>2026-04-18T12:27:16Z</time></trkpt><trkpt lat="42.40369071685639" lon="12.681516947523308"><ele>420.79999999999995</ele><time>2026-04-18T12:27:17Z</time></trkpt><trkpt lat="42.403608527398426" lon="12.681460950062158"><ele>418.0</ele><time>2026-04-18T12:27:19Z</time></trkpt><trkpt lat="42.40359448493717" lon="12.681340869168107"><ele>418.0</ele><time>2026-04-18T12:27:20Z</time></trkpt><trkpt lat="42.40360547918466" lon="12.681169098752274"><ele>418.0</ele><time>2026-04-18T12:27:21Z</time></trkpt><trkpt lat="42.403633021566044" lon="12.681036204082442"><ele>418.0</ele><time>2026-04-18T12:27:22Z</time></trkpt><trkpt lat="42.4036458400832" lon="12.680944726803949"><ele>418.0</ele><time>2026-04-18T12:27:23Z</time></trkpt><trkpt lat="42.40366421058569" lon="12.680827108031322"><ele>418.0</ele><time>2026-04-18T12:27:25Z</time></trkpt><trkpt lat="42.403677256770706" lon="12.68072405918992"><ele>416.0</ele><time>2026-04-18T12:27:34Z</time></trkpt><trkpt lat="42.40368801179933" lon="12.680613184975897"><ele>414.0</ele><time>2026-04-18T12:27:36Z</time></trkpt><trkpt lat="42.40368703436929" lon="12.680524418173112"><ele>412.0</ele><time>2026-04-18T12:27:37Z</time></trkpt><trkpt lat="42.40367395281143" lon="12.680353064459977"><ele>410.0</ele><time>2026-04-18T12:27:39Z</time></trkpt><trkpt lat="42.40361656816198" lon="12.68021346536883"><ele>408.0</ele><time>2026-04-18T12:27:40Z</time></trkpt><trkpt lat="42.40361474783836" lon="12.680044231346894"><ele>406.0</ele><time>2026-04-18T12:27:41Z</time></trkpt><trkpt lat="42.40363904709523" lon="12.6798725460678"><ele>404.0</ele><time>2026-04-18T12:27:42Z</time></trkpt><trkpt lat="42.403672953195624" lon="12.679708872398283"><ele>402.0</ele><time>2026-04-18T12:27:43Z</time></trkpt><trkpt lat="42.40371955627353" lon="12.679532326726207"><ele>400.0</ele><time>2026-04-18T12:27:44Z</time></trkpt><trkpt lat="42.40376868934595" lon="12.679331339558479"><ele>400.6666666666667</ele><time>2026-04-18T12:27:45Z</time></trkpt><trkpt lat="42.40381911117494" lon="12.679122440830655"><ele>401.33333333333337</ele><time>2026-04-18T12:27:46Z</time></trkpt><trkpt lat="42.40384912075838" lon="12.678926219386337"><ele>402.0</ele><time>2026-04-18T12:27:47Z</time></trkpt><trkpt lat="42.40389762226523" lon="12.678728177645384"><ele>400.0</ele><time>2026-04-18T12:27:48Z</time></trkpt><trkpt lat="42.4039645094985" lon="12.678522401807113"><ele>398.0</ele><time>2026-04-18T12:27:49Z</time></trkpt><trkpt lat="42.40401320702662" lon="12.678322250183177"><ele>396.0</ele><time>2026-04-18T12:27:50Z</time></trkpt><trkpt lat="42.404060095251" lon="12.678136158195501"><ele>396.0</ele><time>2026-04-18T12:27:51Z</time></trkpt><trkpt lat="42.4040993195657" lon="12.67794991504041"><ele>396.0</ele><time>2026-04-18T12:27:52Z</time></trkpt><trkpt lat="42.40410506236466" lon="12.67774904439964"><ele>396.0</ele><time>2026-04-18T12:27:53Z</time></trkpt><trkpt lat="42.40412312983676" lon="12.677532369070915"><ele>394.66666666666663</ele><time>2026-04-18T12:27:54Z</time></trkpt><trkpt lat="42.40411103762858" lon="12.67730863949584"><ele>393.3333333333333</ele><time>2026-04-18T12:27:55Z</time></trkpt><trkpt lat="42.40409819287355" lon="12.677095216914594"><ele>392.0</ele><time>2026-04-18T12:27:56Z</time></trkpt><trkpt lat="42.4040683498596" lon="12.676865754010649"><ele>390.66666666666663</ele><time>2026-04-18T12:27:57Z</time></trkpt><trkpt lat="42.40407160706178" lon="12.676653479625482"><ele>389.33333333333337</ele><time>2026-04-18T12:27:58Z</time></trkpt><trkpt lat="42.40406226471387" lon="12.676437527708478"><ele>388.0</ele><time>2026-04-18T12:27:59Z</time></trkpt><trkpt lat="42.40405835348512" lon="12.676219671956948"><ele>386.33333333333337</ele><time>2026-04-18T12:28:00Z</time></trkpt><trkpt lat="42.40407104143216" lon="12.675985419577367"><ele>384.6666666666667</ele><time>2026-04-18T12:28:01Z</time></trkpt><trkpt lat="42.40409553013164" lon="12.675725258457991"><ele>383.0</ele><time>2026-04-18T12:28:02Z</time></trkpt><trkpt lat="42.404118503166124" lon="12.675489186027516"><ele>383.0</ele><time>2026-04-18T12:28:03Z</time></trkpt><trkpt lat="42.40414263273722" lon="12.675277210264701"><ele>383.0</ele><time>2026-04-18T12:28:04Z</time></trkpt><trkpt lat="42.404164195216744" lon="12.675076599291678"><ele>383.0</ele><time>2026-04-18T12:28:05Z</time></trkpt><trkpt lat="42.40416925348978" lon="12.674888363670663"><ele>383.0</ele><time>2026-04-18T12:28:06Z</time></trkpt><trkpt lat="42.40414403240006" lon="12.674693772514315"><ele>382.33333333333337</ele><time>2026-04-18T12:28:07Z</time></trkpt><trkpt lat="42.40411128486493" lon="12.674481153968609"><ele>381.6666666666667</ele><time>2026-04-18T12:28:08Z</time></trkpt><trkpt lat="42.40405866452838" lon="12.674251618921353"><ele>381.0</ele><time>2026-04-18T12:28:09Z</time></trkpt><trkpt lat="42.40401054932704" lon="12.673986032906543"><ele>379.0</ele><time>2026-04-18T12:28:10Z</time></trkpt><trkpt lat="42.40394497591564" lon="12.673753667063536"><ele>377.0</ele><time>2026-04-18T12:28:11Z</time></trkpt><trkpt lat="42.403881352862264" lon="12.673529191028486"><ele>375.0</ele><time>2026-04-18T12:28:12Z</time></trkpt><trkpt lat="42.40384817480516" lon="12.673302167345133"><ele>376.3333333333333</ele><time>2026-04-18T12:28:13Z</time></trkpt><trkpt lat="42.40381173116324" lon="12.673095738674547"><ele>377.66666666666663</ele><time>2026-04-18T12:28:14Z</time></trkpt><trkpt lat="42.40377963038238" lon="12.672894917883752"><ele>379.0</ele><time>2026-04-18T12:28:15Z</time></trkpt><trkpt lat="42.4037505060457" lon="12.672704733845126"><ele>380.25</ele><time>2026-04-18T12:28:16Z</time></trkpt><trkpt lat="42.403711259488404" lon="12.672524354111996"><ele>381.5</ele><time>2026-04-18T12:28:17Z</time></trkpt><trkpt lat="42.40369931051108" lon="12.67233198405109"><ele>382.75</ele><time>2026-04-18T12:28:18Z</time></trkpt><trkpt lat="42.40367758324779" lon="12.672143342608994"><ele>384.0</ele><time>2026-04-18T12:28:19Z</time></trkpt><trkpt lat="42.40361361003243" lon="12.671944977480454"><ele>384.33333333333337</ele><time>2026-04-18T12:28:20Z</time></trkpt><trkpt lat="42.40352639166859" lon="12.671747775425299"><ele>384.6666666666667</ele><time>2026-04-18T12:28:21Z</time></trkpt><trkpt lat="42.403399023153234" lon="12.671571477133519"><ele>385.0</ele><time>2026-04-18T12:28:22Z</time></trkpt><trkpt lat="42.403278070501614" lon="12.671426620382348"><ele>385.0</ele><time>2026-04-18T12:28:23Z</time></trkpt><trkpt lat="42.403158024538676" lon="12.671260551173802"><ele>385.0</ele><time>2026-04-18T12:28:24Z</time></trkpt><trkpt lat="42.40304777452511" lon="12.671075032927524"><ele>385.0</ele><time>2026-04-18T12:28:25Z</time></trkpt><trkpt lat="42.40292081712316" lon="12.670928939167878"><ele>382.6666666666667</ele><time>2026-04-18T12:28:26Z</time></trkpt><trkpt lat="42.40282051118148" lon="12.670767838822744"><ele>380.33333333333337</ele><time>2026-04-18T12:28:27Z</time></trkpt><trkpt lat="42.402691073472695" lon="12.670660863019565"><ele>378.0</ele><time>2026-04-18T12:28:28Z</time></trkpt><trkpt lat="42.40254610555893" lon="12.670587346361751"><ele>378.0</ele><time>2026-04-18T12:28:29Z</time></trkpt><trkpt lat="42.40238755142656" lon="12.670541898494825"><ele>378.0</ele><time>2026-04-18T12:28:30Z</time></trkpt><trkpt lat="42.40218635619312" lon="12.67051506132097"><ele>378.0</ele><time>2026-04-18T12:28:31Z</time></trkpt><trkpt lat="42.401962999205146" lon="12.670499736350584"><ele>375.3333333333333</ele><time>2026-04-18T12:28:32Z</time></trkpt><trkpt lat="42.40177958632627" lon="12.670479571708782"><ele>372.66666666666663</ele><time>2026-04-18T12:28:33Z</time></trkpt><trkpt lat="42.401625833836434" lon="12.67042535852154"><ele>370.0</ele><time>2026-04-18T12:28:34Z</time></trkpt><trkpt lat="42.401475743285346" lon="12.670374141743943"><ele>370.0</ele><time>2026-04-18T12:28:35Z</time></trkpt><trkpt lat="42.401338764041114" lon="12.67028483416699"><ele>370.0</ele><time>2026-04-18T12:28:36Z</time></trkpt><trkpt lat="42.401219924204895" lon="12.67014536250417"><ele>370.0</ele><time>2026-04-18T12:28:37Z</time></trkpt><trkpt lat="42.40110508608211" lon="12.669977505702407"><ele>368.0</ele><time>2026-04-18T12:28:38Z</time></trkpt><trkpt lat="42.40099833182259" lon="12.669805851300945"><ele>366.0</ele><time>2026-04-18T12:28:39Z</time></trkpt><trkpt lat="42.40088854223578" lon="12.669631744461359"><ele>364.0</ele><time>2026-04-18T12:28:40Z</time></trkpt><trkpt lat="42.40076905918788" lon="12.669488316317487"><ele>362.66666666666663</ele><time>2026-04-18T12:28:41Z</time></trkpt><trkpt lat="42.400652426881116" lon="12.66935490309267"><ele>361.3333333333333</ele><time>2026-04-18T12:28:42Z</time></trkpt><trkpt lat="42.4005050800671" lon="12.669252394559875"><ele>360.0</ele><time>2026-04-18T12:28:43Z</time></trkpt><trkpt lat="42.400338490895464" lon="12.669169366560311"><ele>359.6666666666667</ele><time>2026-04-18T12:28:44Z</time></trkpt><trkpt lat="42.40017516996556" lon="12.669094672831541"><ele>359.33333333333337</ele><time>2026-04-18T12:28:45Z</time></trkpt><trkpt lat="42.3999931983971" lon="12.66903355247475"><ele>359.0</ele><time>2026-04-18T12:28:46Z</time></trkpt><trkpt lat="42.39979727233938" lon="12.668970063336433"><ele>355.6666666666667</ele><time>2026-04-18T12:28:47Z</time></trkpt><trkpt lat="42.39957109268376" lon="12.668933067082483"><ele>352.3333333333333</ele><time>2026-04-18T12:28:48Z</time></trkpt><trkpt lat="42.399351499065176" lon="12.668913873072462"><ele>349.0</ele><time>2026-04-18T12:28:49Z</time></trkpt><trkpt lat="42.39916123667385" lon="12.66890539937732"><ele>349.0</ele><time>2026-04-18T12:28:50Z</time></trkpt><trkpt lat="42.398971090303675" lon="12.668887213031097"><ele>349.0</ele><time>2026-04-18T12:28:51Z</time></trkpt><trkpt lat="42.39877698466536" lon="12.668868403184426"><ele>349.0</ele><time>2026-04-18T12:28:52Z</time></trkpt><trkpt lat="42.398592027465796" lon="12.668849369935446"><ele>347.3333333333333</ele><time>2026-04-18T12:28:53Z</time></trkpt><trkpt lat="42.39841760784362" lon="12.668833410305826"><ele>345.6666666666667</ele><time>2026-04-18T12:28:54Z</time></trkpt><trkpt lat="42.398251226000596" lon="12.668816004257188"><ele>344.0</ele><time>2026-04-18T12:28:55Z</time></trkpt><trkpt lat="42.39808456553815" lon="12.668773719585378"><ele>343.33333333333337</ele><time>2026-04-18T12:28:56Z</time></trkpt><trkpt lat="42.397914712593625" lon="12.668684306274594"><ele>342.6666666666667</ele><time>2026-04-18T12:28:57Z</time></trkpt><trkpt lat="42.397734952311126" lon="12.668615587996461"><ele>342.0</ele><time>2026-04-18T12:28:58Z</time></trkpt><trkpt lat="42.3975556528946" lon="12.668547148153266"><ele>343.6666666666667</ele><time>2026-04-18T12:28:59Z</time></trkpt><trkpt lat="42.39739236536937" lon="12.668486726196779"><ele>345.33333333333337</ele><time>2026-04-18T12:29:00Z</time></trkpt><trkpt lat="42.39724014156049" lon="12.668431218224367"><ele>347.0</ele><time>2026-04-18T12:29:01Z</time></trkpt><trkpt lat="42.397086175556225" lon="12.668378388523111"><ele>347.6666666666667</ele><time>2026-04-18T12:29:02Z</time></trkpt><trkpt lat="42.39691637244253" lon="12.668319669017897"><ele>348.3333333333333</ele><time>2026-04-18T12:29:03Z</time></trkpt><trkpt lat="42.39674043233737" lon="12.668246165540099"><ele>349.0</ele><time>2026-04-18T12:29:04Z</time></trkpt><trkpt lat="42.39656567295758" lon="12.66812906345241"><ele>349.0</ele><time>2026-04-18T12:29:05Z</time></trkpt><trkpt lat="42.39636354659443" lon="12.668022612707048"><ele>349.0</ele><time>2026-04-18T12:29:06Z</time></trkpt><trkpt lat="42.39617087465133" lon="12.667892403373658"><ele>349.0</ele><time>2026-04-18T12:29:07Z</time></trkpt><trkpt lat="42.39598934522843" lon="12.667777451386417"><ele>346.0</ele><time>2026-04-18T12:29:08Z</time></trkpt><trkpt lat="42.39580742528662" lon="12.667669478092678"><ele>343.0</ele><time>2026-04-18T12:29:09Z</time></trkpt><trkpt lat="42.395626833873514" lon="12.667554620296965"><ele>340.0</ele><time>2026-04-18T12:29:10Z</time></trkpt><trkpt lat="42.39546782750907" lon="12.667419056322805"><ele>339.3333333333333</ele><time>2026-04-18T12:29:11Z</time></trkpt><trkpt lat="42.39531095531041" lon="12.667288399168136"><ele>338.6666666666667</ele><time>2026-04-18T12:29:12Z</time></trkpt><trkpt lat="42.39514741803634" lon="12.667153119567054"><ele>338.0</ele><time>2026-04-18T12:29:13Z</time></trkpt><trkpt lat="42.394987802492686" lon="12.666981742542141"><ele>337.33333333333337</ele><time>2026-04-18T12:29:14Z</time></trkpt><trkpt lat="42.394818607295626" lon="12.666795823862193"><ele>336.6666666666667</ele><time>2026-04-18T12:29:15Z</time></trkpt><trkpt lat="42.39466650696217" lon="12.666619780245245"><ele>336.0</ele><time>2026-04-18T12:29:16Z</time></trkpt><trkpt lat="42.39452401766495" lon="12.666462009381833"><ele>334.3333333333333</ele><time>2026-04-18T12:29:17Z</time></trkpt><trkpt lat="42.39439278975777" lon="12.666317639522179"><ele>332.66666666666663</ele><time>2026-04-18T12:29:18Z</time></trkpt><trkpt lat="42.39427692180569" lon="12.666182324564216"><ele>331.0</ele><time>2026-04-18T12:29:19Z</time></trkpt><trkpt lat="42.39417394221041" lon="12.666063281131276"><ele>330.8</ele><time>2026-04-18T12:29:19.999Z</time></trkpt><trkpt lat="42.39409105806339" lon="12.665977195577907"><ele>330.6</ele><time>2026-04-18T12:29:20.999Z</time></trkpt><trkpt lat="42.39400403700204" lon="12.66593601541508"><ele>330.4</ele><time>2026-04-18T12:29:21.999Z</time></trkpt><trkpt lat="42.39390767841731" lon="12.665952633039042"><ele>330.2</ele><time>2026-04-18T12:29:22.999Z</time></trkpt><trkpt lat="42.39381573227404" lon="12.666049936715412"><ele>330.0</ele><time>2026-04-18T12:29:23.999Z</time></trkpt><trkpt lat="42.39378235048368" lon="12.666191221832458"><ele>330.25</ele><time>2026-04-18T12:29:24.999Z</time></trkpt><trkpt lat="42.39379405432053" lon="12.666341048123105"><ele>330.5</ele><time>2026-04-18T12:29:26Z</time></trkpt><trkpt lat="42.39384667517537" lon="12.666496168212678"><ele>330.75</ele><time>2026-04-18T12:29:27Z</time></trkpt><trkpt lat="42.39393311270912" lon="12.666688380335772"><ele>331.0</ele><time>2026-04-18T12:29:28Z</time></trkpt><trkpt lat="42.39400742542684" lon="12.66689547712545"><ele>330.5</ele><time>2026-04-18T12:29:29Z</time></trkpt><trkpt lat="42.39406874241464" lon="12.667089590759103"><ele>330.0</ele><time>2026-04-18T12:29:30Z</time></trkpt><trkpt lat="42.39413374378329" lon="12.667282478586333"><ele>329.5</ele><time>2026-04-18T12:29:31Z</time></trkpt><trkpt lat="42.3941902561718" lon="12.66744435932016"><ele>329.0</ele><time>2026-04-18T12:29:32Z</time></trkpt><trkpt lat="42.39423018076708" lon="12.667571693032446"><ele>329.0</ele><time>2026-04-18T12:29:33Z</time></trkpt><trkpt lat="42.39423534216816" lon="12.66769191971356"><ele>329.0</ele><time>2026-04-18T12:29:34Z</time></trkpt><trkpt lat="42.39422524634313" lon="12.667779039306136"><ele>329.0</ele><time>2026-04-18T12:29:35Z</time></trkpt><trkpt lat="42.394180332745435" lon="12.667859171344586"><ele>329.0</ele><time>2026-04-18T12:29:36Z</time></trkpt><trkpt lat="42.39408375967242" lon="12.667900970987032"><ele>329.0</ele><time>2026-04-18T12:29:37Z</time></trkpt><trkpt lat="42.39397265529078" lon="12.667859368036625"><ele>329.0</ele><time>2026-04-18T12:29:38Z</time></trkpt><trkpt lat="42.39390484940517" lon="12.667774905783137"><ele>329.0</ele><time>2026-04-18T12:29:39Z</time></trkpt><trkpt lat="42.39388301233206" lon="12.667625535113924"><ele>329.0</ele><time>2026-04-18T12:29:40Z</time></trkpt><trkpt lat="42.39383424064003" lon="12.667440849874271"><ele>329.0</ele><time>2026-04-18T12:29:41Z</time></trkpt><trkpt lat="42.39378006731931" lon="12.66723279302815"><ele>329.0</ele><time>2026-04-18T12:29:42Z</time></trkpt><trkpt lat="42.39371390887735" lon="12.667004310616093"><ele>324.6666666666667</ele><time>2026-04-18T12:29:43Z</time></trkpt><trkpt lat="42.3936522235149" lon="12.666753042326114"><ele>320.3333333333333</ele><time>2026-04-18T12:29:44Z</time></trkpt><trkpt lat="42.393563272260515" lon="12.666525902553586"><ele>316.0</ele><time>2026-04-18T12:29:45Z</time></trkpt><trkpt lat="42.39343106835203" lon="12.666269868636173"><ele>316.0</ele><time>2026-04-18T12:29:46Z</time></trkpt><trkpt lat="42.393336848450154" lon="12.666026439057871"><ele>316.0</ele><time>2026-04-18T12:29:47Z</time></trkpt><trkpt lat="42.393244260927816" lon="12.66579928503667"><ele>316.0</ele><time>2026-04-18T12:29:48Z</time></trkpt><trkpt lat="42.39317233724832" lon="12.665605177265777"><ele>316.0</ele><time>2026-04-18T12:29:49Z</time></trkpt><trkpt lat="42.393116540840445" lon="12.665416773921338"><ele>316.0</ele><time>2026-04-18T12:29:50Z</time></trkpt><trkpt lat="42.39308536614305" lon="12.66520922406971"><ele>316.0</ele><time>2026-04-18T12:29:51Z</time></trkpt><trkpt lat="42.39306197359652" lon="12.664963290587009"><ele>315.66666666666663</ele><time>2026-04-18T12:29:52Z</time></trkpt><trkpt lat="42.39303500976505" lon="12.664704506276776"><ele>315.3333333333333</ele><time>2026-04-18T12:29:53Z</time></trkpt><trkpt lat="42.3930141527148" lon="12.664476963320427"><ele>315.0</ele><time>2026-04-18T12:29:54Z</time></trkpt><trkpt lat="42.39301864319731" lon="12.664290200617225"><ele>314.2</ele><time>2026-04-18T12:29:55Z</time></trkpt><trkpt lat="42.39300999568532" lon="12.664141449535743"><ele>313.4</ele><time>2026-04-18T12:29:56Z</time></trkpt><trkpt lat="42.39300391379954" lon="12.66401825935937"><ele>312.6</ele><time>2026-04-18T12:29:57Z</time></trkpt><trkpt lat="42.39302518065566" lon="12.663892394260795"><ele>311.8</ele><time>2026-04-18T12:29:58Z</time></trkpt><trkpt lat="42.3930902459421" lon="12.663806059231181"><ele>311.0</ele><time>2026-04-18T12:29:59Z</time></trkpt><trkpt lat="42.39316499094056" lon="12.663773076355735"><ele>311.0</ele><time>2026-04-18T12:30:00Z</time></trkpt><trkpt lat="42.393282552868186" lon="12.663802804469634"><ele>311.0</ele><time>2026-04-18T12:30:01Z</time></trkpt><trkpt lat="42.393433817113966" lon="12.663895225541406"><ele>311.0</ele><time>2026-04-18T12:30:02Z</time></trkpt><trkpt lat="42.39360946023904" lon="12.66402982030473"><ele>311.0</ele><time>2026-04-18T12:30:03Z</time></trkpt><trkpt lat="42.3937737236639" lon="12.664155016985225"><ele>311.0</ele><time>2026-04-18T12:30:04Z</time></trkpt><trkpt lat="42.39390193382523" lon="12.664241604544015"><ele>311.0</ele><time>2026-04-18T12:30:05Z</time></trkpt><trkpt lat="42.394006355710125" lon="12.664290288455797"><ele>311.0</ele><time>2026-04-18T12:30:06Z</time></trkpt><trkpt lat="42.394094227288676" lon="12.664273533109862"><ele>310.0</ele><time>2026-04-18T12:30:07Z</time></trkpt><trkpt lat="42.39417589933253" lon="12.664187710002798"><ele>309.0</ele><time>2026-04-18T12:30:08Z</time></trkpt><trkpt lat="42.394222888916744" lon="12.664042540778361"><ele>308.0</ele><time>2026-04-18T12:30:09Z</time></trkpt><trkpt lat="42.394221097857645" lon="12.663885697874118"><ele>307.0</ele><time>2026-04-18T12:30:10Z</time></trkpt><trkpt lat="42.394171871748085" lon="12.663759559847042"><ele>306.0</ele><time>2026-04-18T12:30:11Z</time></trkpt><trkpt lat="42.39405037251733" lon="12.663680644165812"><ele>306.0</ele><time>2026-04-18T12:30:12Z</time></trkpt><trkpt lat="42.3939077433099" lon="12.663617911541577"><ele>306.0</ele><time>2026-04-18T12:30:13Z</time></trkpt><trkpt lat="42.39374121382635" lon="12.66352797874084"><ele>306.0</ele><time>2026-04-18T12:30:14Z</time></trkpt><trkpt lat="42.393552678085435" lon="12.663421040142913"><ele>304.0</ele><time>2026-04-18T12:30:15Z</time></trkpt><trkpt lat="42.39335143591507" lon="12.66330287953635"><ele>302.0</ele><time>2026-04-18T12:30:16Z</time></trkpt><trkpt lat="42.39314378665331" lon="12.663186500633051"><ele>300.0</ele><time>2026-04-18T12:30:17Z</time></trkpt><trkpt lat="42.39293093673433" lon="12.663038511967681"><ele>300.0</ele><time>2026-04-18T12:30:18Z</time></trkpt><trkpt lat="42.39271382877205" lon="12.662931454060189"><ele>300.0</ele><time>2026-04-18T12:30:19Z</time></trkpt><trkpt lat="42.392511766181606" lon="12.662812495222985"><ele>298.3333333333333</ele><time>2026-04-18T12:30:20Z</time></trkpt><trkpt lat="42.39231914206393" lon="12.662704457208031"><ele>296.66666666666663</ele><time>2026-04-18T12:30:21Z</time></trkpt><trkpt lat="42.392148163807946" lon="12.662607075710271"><ele>295.0</ele><time>2026-04-18T12:30:22Z</time></trkpt><trkpt lat="42.391996382735414" lon="12.662509776266814"><ele>295.0</ele><time>2026-04-18T12:30:23Z</time></trkpt><trkpt lat="42.39186303894537" lon="12.66243108944146"><ele>295.0</ele><time>2026-04-18T12:30:24Z</time></trkpt><trkpt lat="42.39174632221432" lon="12.662305432535568"><ele>295.0</ele><time>2026-04-18T12:30:25Z</time></trkpt><trkpt lat="42.39164829247682" lon="12.662147120313957"><ele>295.0</ele><time>2026-04-18T12:30:26Z</time></trkpt><trkpt lat="42.39153977005076" lon="12.661935303179101"><ele>294.3333333333333</ele><time>2026-04-18T12:30:27Z</time></trkpt><trkpt lat="42.39143533467477" lon="12.661741528970383"><ele>293.6666666666667</ele><time>2026-04-18T12:30:28Z</time></trkpt><trkpt lat="42.391349336063584" lon="12.661585874597257"><ele>293.0</ele><time>2026-04-18T12:30:29Z</time></trkpt><trkpt lat="42.39130639713153" lon="12.66141311881925"><ele>294.0</ele><time>2026-04-18T12:30:30Z</time></trkpt><trkpt lat="42.39126073970695" lon="12.661242583274719"><ele>295.0</ele><time>2026-04-18T12:30:31Z</time></trkpt><trkpt lat="42.391221158332755" lon="12.661039681779473"><ele>296.0</ele><time>2026-04-18T12:30:32Z</time></trkpt><trkpt lat="42.39118656100601" lon="12.660805911243456"><ele>296.0</ele><time>2026-04-18T12:30:33Z</time></trkpt><trkpt lat="42.39115257403771" lon="12.66054380775181"><ele>296.0</ele><time>2026-04-18T12:30:34Z</time></trkpt><trkpt lat="42.391118584342365" lon="12.660273543766912"><ele>296.0</ele><time>2026-04-18T12:30:35Z</time></trkpt><trkpt lat="42.391092426102055" lon="12.66005884104527"><ele>295.25</ele><time>2026-04-18T12:30:36Z</time></trkpt><trkpt lat="42.391054885815144" lon="12.659872341384576"><ele>294.5</ele><time>2026-04-18T12:30:37Z</time></trkpt><trkpt lat="42.39104671959785" lon="12.659686141774358"><ele>293.75</ele><time>2026-04-18T12:30:38Z</time></trkpt><trkpt lat="42.39100209527898" lon="12.659522864455372"><ele>293.0</ele><time>2026-04-18T12:30:39Z</time></trkpt><trkpt lat="42.39094866358327" lon="12.65936651017485"><ele>294.75</ele><time>2026-04-18T12:30:40Z</time></trkpt><trkpt lat="42.39086698997099" lon="12.659224077206874"><ele>296.5</ele><time>2026-04-18T12:30:41Z</time></trkpt><trkpt lat="42.39074450372929" lon="12.659129629075949"><ele>298.25</ele><time>2026-04-18T12:30:42Z</time></trkpt><trkpt lat="42.390593068407426" lon="12.659088842333825"><ele>300.0</ele><time>2026-04-18T12:30:43Z</time></trkpt><trkpt lat="42.3904256366469" lon="12.659106255455365"><ele>300.0</ele><time>2026-04-18T12:30:44Z</time></trkpt><trkpt lat="42.39023164657174" lon="12.659168745295608"><ele>300.0</ele><time>2026-04-18T12:30:45Z</time></trkpt><trkpt lat="42.390012520085556" lon="12.659235823942552"><ele>300.0</ele><time>2026-04-18T12:30:46Z</time></trkpt><trkpt lat="42.38979322897354" lon="12.659267738864944"><ele>300.3333333333333</ele><time>2026-04-18T12:30:47Z</time></trkpt><trkpt lat="42.38958437663525" lon="12.659307938484558"><ele>300.66666666666663</ele><time>2026-04-18T12:30:48Z</time></trkpt><trkpt lat="42.38938585192713" lon="12.659352002898725"><ele>301.0</ele><time>2026-04-18T12:30:49Z</time></trkpt><trkpt lat="42.38918845471786" lon="12.659403456942524"><ele>301.0</ele><time>2026-04-18T12:30:50Z</time></trkpt><trkpt lat="42.38898152924465" lon="12.65943548938036"><ele>301.0</ele><time>2026-04-18T12:30:51Z</time></trkpt><trkpt lat="42.38876295808773" lon="12.659472559689936"><ele>301.0</ele><time>2026-04-18T12:30:52Z</time></trkpt><trkpt lat="42.38854874204113" lon="12.659502925397936"><ele>297.66666666666663</ele><time>2026-04-18T12:30:53Z</time></trkpt><trkpt lat="42.388356133375105" lon="12.659517139447388"><ele>294.3333333333333</ele><time>2026-04-18T12:30:54Z</time></trkpt><trkpt lat="42.38814370813524" lon="12.659547741714565"><ele>291.0</ele><time>2026-04-18T12:30:55Z</time></trkpt><trkpt lat="42.38791876426982" lon="12.65959093996597"><ele>291.0</ele><time>2026-04-18T12:30:56Z</time></trkpt><trkpt lat="42.38772368328586" lon="12.659641134247922"><ele>291.0</ele><time>2026-04-18T12:30:57Z</time></trkpt><trkpt lat="42.38751248176767" lon="12.65965823621932"><ele>291.0</ele><time>2026-04-18T12:30:58Z</time></trkpt><trkpt lat="42.387312017907604" lon="12.659686362117384"><ele>289.3333333333333</ele><time>2026-04-18T12:30:59Z</time></trkpt><trkpt lat="42.38712173652165" lon="12.659698300896288"><ele>287.66666666666663</ele><time>2026-04-18T12:31:00Z</time></trkpt><trkpt lat="42.386957377344885" lon="12.659709861414093"><ele>286.0</ele><time>2026-04-18T12:31:01Z</time></trkpt><trkpt lat="42.38680812444201" lon="12.659718573244199"><ele>286.0</ele><time>2026-04-18T12:31:02Z</time></trkpt><trkpt lat="42.38666788403547" lon="12.65971939839752"><ele>286.0</ele><time>2026-04-18T12:31:03Z</time></trkpt><trkpt lat="42.386524043792335" lon="12.659721953393941"><ele>286.0</ele><time>2026-04-18T12:31:04Z</time></trkpt><trkpt lat="42.38638950260338" lon="12.659732624490584"><ele>286.0</ele><time>2026-04-18T12:31:05Z</time></trkpt><trkpt lat="42.386275605581865" lon="12.659746834350031"><ele>286.0</ele><time>2026-04-18T12:31:06Z</time></trkpt><trkpt lat="42.386175713854314" lon="12.65978510192426"><ele>286.0</ele><time>2026-04-18T12:31:07Z</time></trkpt><trkpt lat="42.38608369050084" lon="12.659869359092307"><ele>286.0</ele><time>2026-04-18T12:31:08Z</time></trkpt><trkpt lat="42.38600552265071" lon="12.659975054846596"><ele>286.0</ele><time>2026-04-18T12:31:09Z</time></trkpt><trkpt lat="42.38593380808207" lon="12.660059488452067"><ele>286.0</ele><time>2026-04-18T12:31:10Z</time></trkpt><trkpt lat="42.385853463462375" lon="12.660100411565455"><ele>286.0</ele><time>2026-04-18T12:31:11Z</time></trkpt><trkpt lat="42.385762724587" lon="12.660088313129515"><ele>286.0</ele><time>2026-04-18T12:31:12Z</time></trkpt><trkpt lat="42.38570356654789" lon="12.660014307707037"><ele>286.0</ele><time>2026-04-18T12:31:13Z</time></trkpt><trkpt lat="42.38567400244494" lon="12.659905912817987"><ele>286.0</ele><time>2026-04-18T12:31:14Z</time></trkpt><trkpt lat="42.38566157001548" lon="12.659792171756305"><ele>286.0</ele><time>2026-04-18T12:31:15Z</time></trkpt><trkpt lat="42.38564448290172" lon="12.659706127780957"><ele>286.0</ele><time>2026-04-18T12:31:16Z</time></trkpt><trkpt lat="42.38560654696416" lon="12.659624388279148"><ele>285.25</ele><time>2026-04-18T12:31:18Z</time></trkpt><trkpt lat="42.38550181250474" lon="12.659502733271209"><ele>284.5</ele><time>2026-04-18T12:31:20Z</time></trkpt><trkpt lat="42.385379867217246" lon="12.659471149248697"><ele>283.75</ele><time>2026-04-18T12:31:21Z</time></trkpt><trkpt lat="42.385226510727826" lon="12.659426891318931"><ele>283.0</ele><time>2026-04-18T12:31:22Z</time></trkpt><trkpt lat="42.38502434075769" lon="12.659385557246594"><ele>285.0</ele><time>2026-04-18T12:31:23Z</time></trkpt><trkpt lat="42.38480173365996" lon="12.659298579824135"><ele>287.0</ele><time>2026-04-18T12:31:24Z</time></trkpt><trkpt lat="42.38456264538285" lon="12.659195773453899"><ele>287.0</ele><time>2026-04-18T12:31:25Z</time></trkpt><trkpt lat="42.3842916333031" lon="12.659071334596591"><ele>287.0</ele><time>2026-04-18T12:31:26Z</time></trkpt><trkpt lat="42.38399579556161" lon="12.658930147994415"><ele>290.5</ele><time>2026-04-18T12:31:27Z</time></trkpt><trkpt lat="42.38368117646001" lon="12.658777568689706"><ele>294.0</ele><time>2026-04-18T12:31:28Z</time></trkpt><trkpt lat="42.38335002580024" lon="12.658617731492717"><ele>294.0</ele><time>2026-04-18T12:31:29Z</time></trkpt><trkpt lat="42.38303711071254" lon="12.658477974705823"><ele>294.0</ele><time>2026-04-18T12:31:30Z</time></trkpt><trkpt lat="42.38274990619823" lon="12.658372711077757"><ele>291.0</ele><time>2026-04-18T12:31:31Z</time></trkpt><trkpt lat="42.382487167000576" lon="12.658280809561623"><ele>288.0</ele><time>2026-04-18T12:31:32Z</time></trkpt><trkpt lat="42.382253041586765" lon="12.658203015426627"><ele>285.3333333333333</ele><time>2026-04-18T12:31:33Z</time></trkpt><trkpt lat="42.38206502940039" lon="12.658137735078512"><ele>282.66666666666663</ele><time>2026-04-18T12:31:34Z</time></trkpt><trkpt lat="42.381867136065225" lon="12.658047788738326"><ele>280.0</ele><time>2026-04-18T12:31:35Z</time></trkpt><trkpt lat="42.381652122495574" lon="12.657944912469302"><ele>280.0</ele><time>2026-04-18T12:31:36Z</time></trkpt><trkpt lat="42.38145161205425" lon="12.657833961180378"><ele>280.0</ele><time>2026-04-18T12:31:37Z</time></trkpt><trkpt lat="42.38127166171524" lon="12.657740585062792"><ele>280.0</ele><time>2026-04-18T12:31:38Z</time></trkpt><trkpt lat="42.38108736377621" lon="12.657648286866868"><ele>281.0</ele><time>2026-04-18T12:31:39Z</time></trkpt><trkpt lat="42.380903922419186" lon="12.65755946290935"><ele>282.0</ele><time>2026-04-18T12:31:40Z</time></trkpt><trkpt lat="42.38071297228319" lon="12.657474204729589"><ele>283.0</ele><time>2026-04-18T12:31:41Z</time></trkpt><trkpt lat="42.380535098937266" lon="12.6573746214223"><ele>279.66666666666663</ele><time>2026-04-18T12:31:42Z</time></trkpt><trkpt lat="42.38036135375022" lon="12.657281844903785"><ele>276.3333333333333</ele><time>2026-04-18T12:31:43Z</time></trkpt><trkpt lat="42.380172064763016" lon="12.657189989556596"><ele>273.0</ele><time>2026-04-18T12:31:44Z</time></trkpt><trkpt lat="42.3799730893998" lon="12.657074236290253"><ele>273.0</ele><time>2026-04-18T12:31:45Z</time></trkpt><trkpt lat="42.37975695478242" lon="12.656956306803163"><ele>273.0</ele><time>2026-04-18T12:31:46Z</time></trkpt><trkpt lat="42.37950016700346" lon="12.656820042272217"><ele>272.5</ele><time>2026-04-18T12:31:47Z</time></trkpt><trkpt lat="42.37923600961443" lon="12.656689243686348"><ele>272.0</ele><time>2026-04-18T12:31:48Z</time></trkpt><trkpt lat="42.3789586832621" lon="12.656550830238222"><ele>270.5</ele><time>2026-04-18T12:31:49Z</time></trkpt><trkpt lat="42.37867736526229" lon="12.656418242820958"><ele>269.0</ele><time>2026-04-18T12:31:50Z</time></trkpt><trkpt lat="42.37840893372629" lon="12.656296027212898"><ele>269.0</ele><time>2026-04-18T12:31:51Z</time></trkpt><trkpt lat="42.37813999720752" lon="12.656177647682632"><ele>269.0</ele><time>2026-04-18T12:31:52Z</time></trkpt><trkpt lat="42.377875837209174" lon="12.656062573954085"><ele>271.0</ele><time>2026-04-18T12:31:53Z</time></trkpt><trkpt lat="42.37762334197272" lon="12.655957353534756"><ele>273.0</ele><time>2026-04-18T12:31:54Z</time></trkpt><trkpt lat="42.377382880511455" lon="12.655859778820684"><ele>269.5</ele><time>2026-04-18T12:31:55Z</time></trkpt><trkpt lat="42.37713837929606" lon="12.655766123832533"><ele>266.0</ele><time>2026-04-18T12:31:56Z</time></trkpt><trkpt lat="42.376891724893134" lon="12.655670840666145"><ele>266.0</ele><time>2026-04-18T12:31:57Z</time></trkpt><trkpt lat="42.37667323626815" lon="12.65558631257814"><ele>266.0</ele><time>2026-04-18T12:31:58Z</time></trkpt><trkpt lat="42.376475306023686" lon="12.655504897161743"><ele>266.0</ele><time>2026-04-18T12:31:59Z</time></trkpt><trkpt lat="42.37628226479864" lon="12.655430391381639"><ele>266.33333333333337</ele><time>2026-04-18T12:32:00Z</time></trkpt><trkpt lat="42.376090487351725" lon="12.65535413831384"><ele>266.6666666666667</ele><time>2026-04-18T12:32:01Z</time></trkpt><trkpt lat="42.375900439603804" lon="12.655274692763006"><ele>267.0</ele><time>2026-04-18T12:32:02Z</time></trkpt><trkpt lat="42.37570883045117" lon="12.655198014846025"><ele>267.0</ele><time>2026-04-18T12:32:03Z</time></trkpt><trkpt lat="42.37552838653925" lon="12.655134572557614"><ele>267.0</ele><time>2026-04-18T12:32:04Z</time></trkpt><trkpt lat="42.375354923750116" lon="12.655072125065288"><ele>267.0</ele><time>2026-04-18T12:32:05Z</time></trkpt><trkpt lat="42.37519000723766" lon="12.655011505824772"><ele>266.6666666666667</ele><time>2026-04-18T12:32:06Z</time></trkpt><trkpt lat="42.37502879130999" lon="12.6549567325868"><ele>266.33333333333337</ele><time>2026-04-18T12:32:07Z</time></trkpt><trkpt lat="42.37487867350808" lon="12.654899633748258"><ele>266.0</ele><time>2026-04-18T12:32:08Z</time></trkpt><trkpt lat="42.37472421046323" lon="12.654814770126151"><ele>265.0</ele><time>2026-04-18T12:32:09Z</time></trkpt><trkpt lat="42.374565631471114" lon="12.654691844416838"><ele>264.0</ele><time>2026-04-18T12:32:10Z</time></trkpt><trkpt lat="42.37440848226037" lon="12.654542634370646"><ele>263.0</ele><time>2026-04-18T12:32:11Z</time></trkpt><trkpt lat="42.37427303496113" lon="12.65440012016471"><ele>263.0</ele><time>2026-04-18T12:32:12Z</time></trkpt><trkpt lat="42.37414912492258" lon="12.654283428094029"><ele>263.0</ele><time>2026-04-18T12:32:13Z</time></trkpt><trkpt lat="42.3740288482376" lon="12.654146027704236"><ele>263.0</ele><time>2026-04-18T12:32:14Z</time></trkpt><trkpt lat="42.37391441915756" lon="12.653955784523943"><ele>260.6666666666667</ele><time>2026-04-18T12:32:15Z</time></trkpt><trkpt lat="42.373809773139186" lon="12.653719899304166"><ele>258.3333333333333</ele><time>2026-04-18T12:32:16Z</time></trkpt><trkpt lat="42.37371496870667" lon="12.653480629536906"><ele>256.0</ele><time>2026-04-18T12:32:17Z</time></trkpt><trkpt lat="42.37363147685796" lon="12.653231057552453"><ele>256.0</ele><time>2026-04-18T12:32:18Z</time></trkpt><trkpt lat="42.37353282954349" lon="12.652971871425823"><ele>256.0</ele><time>2026-04-18T12:32:19Z</time></trkpt><trkpt lat="42.37343221037904" lon="12.652703754060022"><ele>256.0</ele><time>2026-04-18T12:32:20Z</time></trkpt><trkpt lat="42.37333321258094" lon="12.652438192510068"><ele>256.66666666666663</ele><time>2026-04-18T12:32:21Z</time></trkpt><trkpt lat="42.37323881272808" lon="12.652168771794262"><ele>257.3333333333333</ele><time>2026-04-18T12:32:22Z</time></trkpt><trkpt lat="42.37314829602596" lon="12.65192481241836"><ele>258.0</ele><time>2026-04-18T12:32:23Z</time></trkpt><trkpt lat="42.37306805007505" lon="12.65170777883552"><ele>257.0</ele><time>2026-04-18T12:32:24Z</time></trkpt><trkpt lat="42.37299950584194" lon="12.651520738561157"><ele>256.0</ele><time>2026-04-18T12:32:25Z</time></trkpt><trkpt lat="42.37293096416457" lon="12.651346425876287"><ele>255.0</ele><time>2026-04-18T12:32:26Z</time></trkpt><trkpt lat="42.37284319943386" lon="12.65117828186951"><ele>256.0</ele><time>2026-04-18T12:32:27Z</time></trkpt><trkpt lat="42.37273374623393" lon="12.650995642158023"><ele>257.0</ele><time>2026-04-18T12:32:28Z</time></trkpt><trkpt lat="42.37261684690904" lon="12.650816031966725"><ele>258.0</ele><time>2026-04-18T12:32:29Z</time></trkpt><trkpt lat="42.37250607683061" lon="12.650651471381915"><ele>258.0</ele><time>2026-04-18T12:32:30Z</time></trkpt><trkpt lat="42.372402819440325" lon="12.650500376674717"><ele>258.0</ele><time>2026-04-18T12:32:31Z</time></trkpt><trkpt lat="42.37230166530324" lon="12.650354955825017"><ele>258.0</ele><time>2026-04-18T12:32:32Z</time></trkpt><trkpt lat="42.372222548285855" lon="12.650232386769312"><ele>258.0</ele><time>2026-04-18T12:32:33Z</time></trkpt><trkpt lat="42.37215826418704" lon="12.650144725503145"><ele>257.4</ele><time>2026-04-18T12:32:34Z</time></trkpt><trkpt lat="42.37208113059268" lon="12.650083694028043"><ele>256.8</ele><time>2026-04-18T12:32:35Z</time></trkpt><trkpt lat="42.37197971631132" lon="12.650042063641912"><ele>256.2</ele><time>2026-04-18T12:32:36Z</time></trkpt><trkpt lat="42.37185881621873" lon="12.650081224627783"><ele>255.6</ele><time>2026-04-18T12:32:37Z</time></trkpt><trkpt lat="42.37173651301406" lon="12.650140057569931"><ele>255.0</ele><time>2026-04-18T12:32:38Z</time></trkpt><trkpt lat="42.37159510414751" lon="12.650231432888026"><ele>255.0</ele><time>2026-04-18T12:32:39Z</time></trkpt><trkpt lat="42.3714298890128" lon="12.650306430332959"><ele>255.0</ele><time>2026-04-18T12:32:40Z</time></trkpt><trkpt lat="42.3712027758725" lon="12.650405799357955"><ele>255.0</ele><time>2026-04-18T12:32:41Z</time></trkpt><trkpt lat="42.37097660297413" lon="12.650509254350746"><ele>255.0</ele><time>2026-04-18T12:32:42Z</time></trkpt><trkpt lat="42.370766136340016" lon="12.650597435841116"><ele>255.0</ele><time>2026-04-18T12:32:43Z</time></trkpt><trkpt lat="42.37058338486849" lon="12.650682237225011"><ele>255.0</ele><time>2026-04-18T12:32:44Z</time></trkpt><trkpt lat="42.37040540534233" lon="12.650766200564698"><ele>256.3333333333333</ele><time>2026-04-18T12:32:45Z</time></trkpt><trkpt lat="42.37025041114264" lon="12.65083534985028"><ele>257.66666666666663</ele><time>2026-04-18T12:32:46Z</time></trkpt><trkpt lat="42.370106714144185" lon="12.650897987233378"><ele>259.0</ele><time>2026-04-18T12:32:47Z</time></trkpt><trkpt lat="42.36996994663468" lon="12.650931238201908"><ele>259.0</ele><time>2026-04-18T12:32:48Z</time></trkpt><trkpt lat="42.36981620885077" lon="12.650898186542939"><ele>259.0</ele><time>2026-04-18T12:32:49Z</time></trkpt><trkpt lat="42.36966582617875" lon="12.650771549870843"><ele>259.0</ele><time>2026-04-18T12:32:50Z</time></trkpt><trkpt lat="42.36955392967193" lon="12.650580753055099"><ele>260.0</ele><time>2026-04-18T12:32:51Z</time></trkpt><trkpt lat="42.369446827431666" lon="12.650337655642954"><ele>261.0</ele><time>2026-04-18T12:32:52Z</time></trkpt><trkpt lat="42.36932368350418" lon="12.65004770957902"><ele>261.0</ele><time>2026-04-18T12:32:53Z</time></trkpt><trkpt lat="42.36919731819003" lon="12.649742738655814"><ele>261.0</ele><time>2026-04-18T12:32:54Z</time></trkpt><trkpt lat="42.369047719873386" lon="12.649419439245092"><ele>259.5</ele><time>2026-04-18T12:32:55Z</time></trkpt><trkpt lat="42.368913143596615" lon="12.649146518089635"><ele>258.0</ele><time>2026-04-18T12:32:56Z</time></trkpt><trkpt lat="42.368798069505885" lon="12.648913130084757"><ele>265.0</ele><time>2026-04-18T12:32:57Z</time></trkpt><trkpt lat="42.36870799588506" lon="12.648687493952245"><ele>272.0</ele><time>2026-04-18T12:32:58Z</time></trkpt><trkpt lat="42.36864739999487" lon="12.648446371525104"><ele>279.0</ele><time>2026-04-18T12:32:59Z</time></trkpt><trkpt lat="42.368604401574686" lon="12.648187322072944"><ele>279.0</ele><time>2026-04-18T12:33:00Z</time></trkpt><trkpt lat="42.36853618258021" lon="12.647904778658035"><ele>279.0</ele><time>2026-04-18T12:33:01Z</time></trkpt><trkpt lat="42.36841672659114" lon="12.647616047915808"><ele>277.3333333333333</ele><time>2026-04-18T12:33:02Z</time></trkpt><trkpt lat="42.36830846106579" lon="12.647326792049686"><ele>275.66666666666663</ele><time>2026-04-18T12:33:03Z</time></trkpt><trkpt lat="42.36822470138846" lon="12.647092538014304"><ele>274.0</ele><time>2026-04-18T12:33:04Z</time></trkpt><trkpt lat="42.368162667366455" lon="12.6469375691119"><ele>275.0</ele><time>2026-04-18T12:33:05Z</time></trkpt><trkpt lat="42.36811228895587" lon="12.646809462792218"><ele>276.0</ele><time>2026-04-18T12:33:06Z</time></trkpt><trkpt lat="42.368045913909505" lon="12.646716651553772"><ele>277.0</ele><time>2026-04-18T12:33:07Z</time></trkpt><trkpt lat="42.367954988114626" lon="12.646697456660707"><ele>278.0</ele><time>2026-04-18T12:33:08Z</time></trkpt><trkpt lat="42.36787262642414" lon="12.64676058796431"><ele>279.0</ele><time>2026-04-18T12:33:09Z</time></trkpt><trkpt lat="42.36784091322465" lon="12.64687551643712"><ele>285.3333333333333</ele><time>2026-04-18T12:33:10Z</time></trkpt><trkpt lat="42.36786426467265" lon="12.647029094662521"><ele>291.66666666666663</ele><time>2026-04-18T12:33:11Z</time></trkpt><trkpt lat="42.367919470943285" lon="12.647211414611439"><ele>298.0</ele><time>2026-04-18T12:33:12Z</time></trkpt><trkpt lat="42.3679787964742" lon="12.647454603479838"><ele>299.25</ele><time>2026-04-18T12:33:13Z</time></trkpt><trkpt lat="42.368047601203656" lon="12.647705705776644"><ele>300.5</ele><time>2026-04-18T12:33:14Z</time></trkpt><trkpt lat="42.36803792190046" lon="12.64786888372927"><ele>301.75</ele><time>2026-04-18T12:33:15Z</time></trkpt><trkpt lat="42.3680198267221" lon="12.64800243092362"><ele>303.0</ele><time>2026-04-18T12:33:16Z</time></trkpt><trkpt lat="42.367978820137886" lon="12.648124060482317"><ele>303.0</ele><time>2026-04-18T12:33:17Z</time></trkpt><trkpt lat="42.367878926180325" lon="12.648187546538878"><ele>303.0</ele><time>2026-04-18T12:33:18Z</time></trkpt><trkpt lat="42.367796438239225" lon="12.648175608117935"><ele>303.0</ele><time>2026-04-18T12:33:19Z</time></trkpt><trkpt lat="42.36772017606281" lon="12.648086344862442"><ele>303.0</ele><time>2026-04-18T12:33:20Z</time></trkpt><trkpt lat="42.367683660523255" lon="12.64794786954191"><ele>303.0</ele><time>2026-04-18T12:33:21Z</time></trkpt><trkpt lat="42.367730650073106" lon="12.64778776949215"><ele>301.75</ele><time>2026-04-18T12:33:22Z</time></trkpt><trkpt lat="42.36772343108553" lon="12.647608733858252"><ele>300.5</ele><time>2026-04-18T12:33:23Z</time></trkpt><trkpt lat="42.367704226876924" lon="12.647418063686475"><ele>299.25</ele><time>2026-04-18T12:33:24Z</time></trkpt><trkpt lat="42.367644364694506" lon="12.647278657803774"><ele>298.0</ele><time>2026-04-18T12:33:25Z</time></trkpt><trkpt lat="42.36750846537427" lon="12.647247627644617"><ele>298.0</ele><time>2026-04-18T12:33:26Z</time></trkpt><trkpt lat="42.36740503792592" lon="12.647297184370988"><ele>298.0</ele><time>2026-04-18T12:33:27Z</time></trkpt><trkpt lat="42.36732344708694" lon="12.647420694798006"><ele>298.0</ele><time>2026-04-18T12:33:28Z</time></trkpt><trkpt lat="42.36724454052772" lon="12.647623723671643"><ele>298.0</ele><time>2026-04-18T12:33:29Z</time></trkpt><trkpt lat="42.367140392794546" lon="12.6478259960446"><ele>299.75</ele><time>2026-04-18T12:33:30Z</time></trkpt><trkpt lat="42.36704824495796" lon="12.64794464031759"><ele>301.5</ele><time>2026-04-18T12:33:31Z</time></trkpt><trkpt lat="42.36694225165331" lon="12.647991367321954"><ele>303.25</ele><time>2026-04-18T12:33:31.999Z</time></trkpt><trkpt lat="42.36683552652664" lon="12.647955163405358"><ele>305.0</ele><time>2026-04-18T12:33:32.999Z</time></trkpt><trkpt lat="42.36672071630689" lon="12.647908155368974"><ele>305.0</ele><time>2026-04-18T12:33:33.999Z</time></trkpt><trkpt lat="42.366611938971346" lon="12.647974773809702"><ele>305.0</ele><time>2026-04-18T12:33:34.999Z</time></trkpt><trkpt lat="42.36653784549522" lon="12.648114999000338"><ele>305.0</ele><time>2026-04-18T12:33:35.999Z</time></trkpt><trkpt lat="42.366519729677464" lon="12.648316248460224"><ele>305.0</ele><time>2026-04-18T12:33:36.999Z</time></trkpt><trkpt lat="42.366568101263766" lon="12.648544682096025"><ele>307.6666666666667</ele><time>2026-04-18T12:33:37.999Z</time></trkpt><trkpt lat="42.366651744576856" lon="12.648718029672576"><ele>310.3333333333333</ele><time>2026-04-18T12:33:38.999Z</time></trkpt><trkpt lat="42.366780767585695" lon="12.648860649973628"><ele>313.0</ele><time>2026-04-18T12:33:39.999Z</time></trkpt><trkpt lat="42.366912291705304" lon="12.649035946005027"><ele>313.0</ele><time>2026-04-18T12:33:40.999Z</time></trkpt><trkpt lat="42.36703223134753" lon="12.649241291181813"><ele>313.0</ele><time>2026-04-18T12:33:41.999Z</time></trkpt><trkpt lat="42.36710611385141" lon="12.649463006804991"><ele>313.0</ele><time>2026-04-18T12:33:43Z</time></trkpt><trkpt lat="42.36713342785026" lon="12.64965713470991"><ele>315.0</ele><time>2026-04-18T12:33:44Z</time></trkpt><trkpt lat="42.36713005848443" lon="12.649846238389912"><ele>317.0</ele><time>2026-04-18T12:33:45Z</time></trkpt><trkpt lat="42.367096425333514" lon="12.650039922278932"><ele>319.0</ele><time>2026-04-18T12:33:46Z</time></trkpt><trkpt lat="42.36701878997198" lon="12.650232607985005"><ele>321.0</ele><time>2026-04-18T12:33:47Z</time></trkpt><trkpt lat="42.36695103277482" lon="12.650474257729426"><ele>325.6666666666667</ele><time>2026-04-18T12:33:48Z</time></trkpt><trkpt lat="42.36688859488283" lon="12.650740696008286"><ele>330.33333333333337</ele><time>2026-04-18T12:33:49Z</time></trkpt><trkpt lat="42.366880298396076" lon="12.651049786956609"><ele>335.0</ele><time>2026-04-18T12:33:50Z</time></trkpt><trkpt lat="42.36689818036269" lon="12.651296085787603"><ele>338.0</ele><time>2026-04-18T12:33:51Z</time></trkpt><trkpt lat="42.36692887714872" lon="12.651474678825206"><ele>341.0</ele><time>2026-04-18T12:33:52Z</time></trkpt><trkpt lat="42.36693270441877" lon="12.651628332493106"><ele>344.0</ele><time>2026-04-18T12:33:53Z</time></trkpt><trkpt lat="42.36693144630302" lon="12.651757911398859"><ele>347.0</ele><time>2026-04-18T12:33:54Z</time></trkpt><trkpt lat="42.36687281162134" lon="12.65188419921871"><ele>347.33333333333337</ele><time>2026-04-18T12:33:55Z</time></trkpt><trkpt lat="42.36677506290978" lon="12.651987365492692"><ele>347.6666666666667</ele><time>2026-04-18T12:33:56Z</time></trkpt><trkpt lat="42.36662847866398" lon="12.652084946848221"><ele>348.0</ele><time>2026-04-18T12:33:57Z</time></trkpt><trkpt lat="42.36642190193076" lon="12.652198703834438"><ele>351.0</ele><time>2026-04-18T12:33:58Z</time></trkpt><trkpt lat="42.366238844504245" lon="12.65228549750207"><ele>354.0</ele><time>2026-04-18T12:33:59Z</time></trkpt><trkpt lat="42.366100522517776" lon="12.652350087638624"><ele>357.0</ele><time>2026-04-18T12:34:00Z</time></trkpt><trkpt lat="42.365964688206326" lon="12.652361128646902"><ele>357.0</ele><time>2026-04-18T12:34:01Z</time></trkpt><trkpt lat="42.36579233755566" lon="12.652359420302403"><ele>357.0</ele><time>2026-04-18T12:34:02Z</time></trkpt><trkpt lat="42.36559044754031" lon="12.652364016989791"><ele>357.0</ele><time>2026-04-18T12:34:03Z</time></trkpt><trkpt lat="42.36538292605985" lon="12.652376797641873"><ele>357.5</ele><time>2026-04-18T12:34:04Z</time></trkpt><trkpt lat="42.36522439487686" lon="12.652384136124272"><ele>358.0</ele><time>2026-04-18T12:34:05Z</time></trkpt><trkpt lat="42.365084649275204" lon="12.652378209471655"><ele>358.5</ele><time>2026-04-18T12:34:06Z</time></trkpt><trkpt lat="42.3649354740858" lon="12.65235032922597"><ele>359.0</ele><time>2026-04-18T12:34:07Z</time></trkpt><trkpt lat="42.36479337864756" lon="12.652291682418722"><ele>360.0</ele><time>2026-04-18T12:34:08Z</time></trkpt><trkpt lat="42.36467441309056" lon="12.652188552026717"><ele>361.0</ele><time>2026-04-18T12:34:09Z</time></trkpt><trkpt lat="42.36455647863441" lon="12.652074746174154"><ele>362.0</ele><time>2026-04-18T12:34:10Z</time></trkpt><trkpt lat="42.364460167080416" lon="12.651949536410108"><ele>363.0</ele><time>2026-04-18T12:34:11Z</time></trkpt><trkpt lat="42.364395764333636" lon="12.651787415323678"><ele>363.0</ele><time>2026-04-18T12:34:12Z</time></trkpt><trkpt lat="42.36436031922292" lon="12.651596205650792"><ele>363.0</ele><time>2026-04-18T12:34:13Z</time></trkpt><trkpt lat="42.36432599113589" lon="12.651392604832692"><ele>363.0</ele><time>2026-04-18T12:34:14Z</time></trkpt><trkpt lat="42.36431080346564" lon="12.651207410277205"><ele>363.0</ele><time>2026-04-18T12:34:15Z</time></trkpt><trkpt lat="42.36428450777937" lon="12.651055472776319"><ele>362.75</ele><time>2026-04-18T12:34:16Z</time></trkpt><trkpt lat="42.36422891177483" lon="12.65094616613931"><ele>362.5</ele><time>2026-04-18T12:34:17Z</time></trkpt><trkpt lat="42.36412407888736" lon="12.650892556125571"><ele>362.25</ele><time>2026-04-18T12:34:18Z</time></trkpt><trkpt lat="42.36398193755113" lon="12.65090146985356"><ele>362.0</ele><time>2026-04-18T12:34:19Z</time></trkpt><trkpt lat="42.36380216197092" lon="12.650970628808354"><ele>364.0</ele><time>2026-04-18T12:34:20Z</time></trkpt><trkpt lat="42.36359953213344" lon="12.651069284184233"><ele>366.0</ele><time>2026-04-18T12:34:21Z</time></trkpt><trkpt lat="42.36332144922799" lon="12.651152915009442"><ele>366.0</ele><time>2026-04-18T12:34:22Z</time></trkpt><trkpt lat="42.363082708446825" lon="12.651187274209743"><ele>366.0</ele><time>2026-04-18T12:34:23Z</time></trkpt><trkpt lat="42.362869437865754" lon="12.651220300302649"><ele>361.5</ele><time>2026-04-18T12:34:24Z</time></trkpt><trkpt lat="42.362656677545225" lon="12.651291139744178"><ele>357.0</ele><time>2026-04-18T12:34:25Z</time></trkpt><trkpt lat="42.36244208154736" lon="12.651407263196392"><ele>357.0</ele><time>2026-04-18T12:34:26Z</time></trkpt><trkpt lat="42.36224829035475" lon="12.65152871740994"><ele>357.0</ele><time>2026-04-18T12:34:27Z</time></trkpt><trkpt lat="42.362064078444156" lon="12.651630032028638"><ele>357.0</ele><time>2026-04-18T12:34:28Z</time></trkpt><trkpt lat="42.361884137032455" lon="12.651720799566782"><ele>354.3333333333333</ele><time>2026-04-18T12:34:29Z</time></trkpt><trkpt lat="42.361707489803884" lon="12.651815934338202"><ele>351.66666666666663</ele><time>2026-04-18T12:34:30Z</time></trkpt><trkpt lat="42.36154230691961" lon="12.651902004162498"><ele>349.0</ele><time>2026-04-18T12:34:31Z</time></trkpt><trkpt lat="42.36137778153659" lon="12.651978040657738"><ele>345.66666666666663</ele><time>2026-04-18T12:34:32Z</time></trkpt><trkpt lat="42.3612099143579" lon="12.652043114563043"><ele>342.3333333333333</ele><time>2026-04-18T12:34:33Z</time></trkpt><trkpt lat="42.36104026573875" lon="12.652081387535631"><ele>339.0</ele><time>2026-04-18T12:34:34Z</time></trkpt><trkpt lat="42.36085738689172" lon="12.65208501095314"><ele>339.0</ele><time>2026-04-18T12:34:35Z</time></trkpt><trkpt lat="42.36069983976822" lon="12.652055658442844"><ele>339.0</ele><time>2026-04-18T12:34:36Z</time></trkpt><trkpt lat="42.36051934602074" lon="12.652026716076623"><ele>339.0</ele><time>2026-04-18T12:34:37Z</time></trkpt><trkpt lat="42.360327730877586" lon="12.651990574893095"><ele>337.3333333333333</ele><time>2026-04-18T12:34:38Z</time></trkpt><trkpt lat="42.360124910612996" lon="12.651945434802425"><ele>335.66666666666663</ele><time>2026-04-18T12:34:39Z</time></trkpt><trkpt lat="42.35992883323098" lon="12.651898582217795"><ele>334.0</ele><time>2026-04-18T12:34:40Z</time></trkpt><trkpt lat="42.35974568143085" lon="12.651849612844378"><ele>332.3333333333333</ele><time>2026-04-18T12:34:41Z</time></trkpt><trkpt lat="42.35957094122991" lon="12.651810988727568"><ele>330.6666666666667</ele><time>2026-04-18T12:34:42Z</time></trkpt><trkpt lat="42.35938102148213" lon="12.6517442311038"><ele>329.0</ele><time>2026-04-18T12:34:43Z</time></trkpt><trkpt lat="42.3591807819589" lon="12.651690337618435"><ele>329.0</ele><time>2026-04-18T12:34:44Z</time></trkpt><trkpt lat="42.35898376273474" lon="12.651620169340084"><ele>329.0</ele><time>2026-04-18T12:34:45Z</time></trkpt><trkpt lat="42.358789556377296" lon="12.651567792548063"><ele>329.0</ele><time>2026-04-18T12:34:46Z</time></trkpt><trkpt lat="42.35861590234343" lon="12.651466460651498"><ele>328.33333333333337</ele><time>2026-04-18T12:34:47Z</time></trkpt><trkpt lat="42.35844499520797" lon="12.651374804007272"><ele>327.6666666666667</ele><time>2026-04-18T12:34:48Z</time></trkpt><trkpt lat="42.35827682351932" lon="12.651303143482723"><ele>327.0</ele><time>2026-04-18T12:34:49Z</time></trkpt><trkpt lat="42.358126724308676" lon="12.651214427210306"><ele>326.3333333333333</ele><time>2026-04-18T12:34:50Z</time></trkpt><trkpt lat="42.35796658683426" lon="12.651132788246615"><ele>325.66666666666663</ele><time>2026-04-18T12:34:51Z</time></trkpt><trkpt lat="42.357797233371336" lon="12.65105751045429"><ele>325.0</ele><time>2026-04-18T12:34:52Z</time></trkpt><trkpt lat="42.357625205082336" lon="12.650977124423074"><ele>327.0</ele><time>2026-04-18T12:34:53Z</time></trkpt><trkpt lat="42.35743876688433" lon="12.650940806771603"><ele>329.0</ele><time>2026-04-18T12:34:54Z</time></trkpt><trkpt lat="42.35724325967366" lon="12.650876513579316"><ele>331.0</ele><time>2026-04-18T12:34:55Z</time></trkpt><trkpt lat="42.35704048066133" lon="12.650822471778735"><ele>332.0</ele><time>2026-04-18T12:34:56Z</time></trkpt><trkpt lat="42.35683529425999" lon="12.650773168158976"><ele>333.0</ele><time>2026-04-18T12:34:57Z</time></trkpt><trkpt lat="42.35662852592349" lon="12.650732720864246"><ele>334.0</ele><time>2026-04-18T12:34:58Z</time></trkpt><trkpt lat="42.35642577070869" lon="12.65067594497413"><ele>334.3333333333333</ele><time>2026-04-18T12:34:59Z</time></trkpt><trkpt lat="42.3562229808106" lon="12.650652141581688"><ele>334.6666666666667</ele><time>2026-04-18T12:35:00Z</time></trkpt><trkpt lat="42.35603567083419" lon="12.650614641843037"><ele>335.0</ele><time>2026-04-18T12:35:01Z</time></trkpt><trkpt lat="42.35586085283829" lon="12.650589814175687"><ele>335.0</ele><time>2026-04-18T12:35:02Z</time></trkpt><trkpt lat="42.355690897607595" lon="12.650557479152287"><ele>335.0</ele><time>2026-04-18T12:35:03Z</time></trkpt><trkpt lat="42.35552507162225" lon="12.650541467873461"><ele>335.0</ele><time>2026-04-18T12:35:04Z</time></trkpt><trkpt lat="42.35536955380844" lon="12.650547537073463"><ele>336.33333333333337</ele><time>2026-04-18T12:35:05Z</time></trkpt><trkpt lat="42.355203910186894" lon="12.650587856245886"><ele>337.6666666666667</ele><time>2026-04-18T12:35:06Z</time></trkpt><trkpt lat="42.35504095163093" lon="12.650686739154747"><ele>339.0</ele><time>2026-04-18T12:35:07Z</time></trkpt><trkpt lat="42.35488525902356" lon="12.650807101555696"><ele>339.0</ele><time>2026-04-18T12:35:08Z</time></trkpt><trkpt lat="42.354747065622604" lon="12.650909155218057"><ele>339.0</ele><time>2026-04-18T12:35:09Z</time></trkpt><trkpt lat="42.354605967449444" lon="12.650999275047058"><ele>339.0</ele><time>2026-04-18T12:35:10Z</time></trkpt><trkpt lat="42.35446050874928" lon="12.651076014905678"><ele>339.25</ele><time>2026-04-18T12:35:11Z</time></trkpt><trkpt lat="42.354321334177726" lon="12.651154883901317"><ele>339.5</ele><time>2026-04-18T12:35:12Z</time></trkpt><trkpt lat="42.35418651375182" lon="12.651210393690453"><ele>339.75</ele><time>2026-04-18T12:35:13Z</time></trkpt><trkpt lat="42.3540545561603" lon="12.651225935722556"><ele>340.0</ele><time>2026-04-18T12:35:14Z</time></trkpt><trkpt lat="42.353919240682735" lon="12.651167163338641"><ele>341.3333333333333</ele><time>2026-04-18T12:35:15Z</time></trkpt><trkpt lat="42.35377297578706" lon="12.651088048559332"><ele>342.6666666666667</ele><time>2026-04-18T12:35:16Z</time></trkpt><trkpt lat="42.353606654798" lon="12.650937152730112"><ele>344.0</ele><time>2026-04-18T12:35:17Z</time></trkpt><trkpt lat="42.353458762614444" lon="12.650763916209948"><ele>344.0</ele><time>2026-04-18T12:35:18Z</time></trkpt><trkpt lat="42.35333952270523" lon="12.650602447720232"><ele>344.0</ele><time>2026-04-18T12:35:19Z</time></trkpt><trkpt lat="42.353216122522454" lon="12.650431137454525"><ele>344.0</ele><time>2026-04-18T12:35:20Z</time></trkpt><trkpt lat="42.3530893578643" lon="12.650257763301045"><ele>343.6666666666667</ele><time>2026-04-18T12:35:21Z</time></trkpt><trkpt lat="42.35295780383552" lon="12.650080668857663"><ele>343.3333333333333</ele><time>2026-04-18T12:35:22Z</time></trkpt><trkpt lat="42.35283149724017" lon="12.64991669538524"><ele>343.0</ele><time>2026-04-18T12:35:23Z</time></trkpt><trkpt lat="42.35269687172449" lon="12.649781464481837"><ele>343.0</ele><time>2026-04-18T12:35:24Z</time></trkpt><trkpt lat="42.352562908810015" lon="12.649647414814083"><ele>343.0</ele><time>2026-04-18T12:35:25Z</time></trkpt><trkpt lat="42.352414543358876" lon="12.64954807623708"><ele>343.0</ele><time>2026-04-18T12:35:26Z</time></trkpt><trkpt lat="42.352266046053316" lon="12.649494710855384"><ele>344.0</ele><time>2026-04-18T12:35:27Z</time></trkpt><trkpt lat="42.35211150984455" lon="12.649501876964077"><ele>345.0</ele><time>2026-04-18T12:35:28Z</time></trkpt><trkpt lat="42.35194140788799" lon="12.649545292629291"><ele>346.0</ele><time>2026-04-18T12:35:29Z</time></trkpt><trkpt lat="42.35175495184629" lon="12.649633350614948"><ele>346.0</ele><time>2026-04-18T12:35:30Z</time></trkpt><trkpt lat="42.35154817157062" lon="12.649721543862878"><ele>346.0</ele><time>2026-04-18T12:35:31Z</time></trkpt><trkpt lat="42.35136183797058" lon="12.649810047200303"><ele>346.0</ele><time>2026-04-18T12:35:32Z</time></trkpt><trkpt lat="42.35119600382864" lon="12.649909235713896"><ele>348.3333333333333</ele><time>2026-04-18T12:35:33Z</time></trkpt><trkpt lat="42.35104246451251" lon="12.649997058652925"><ele>350.6666666666667</ele><time>2026-04-18T12:35:34Z</time></trkpt><trkpt lat="42.35091165009025" lon="12.650078635613363"><ele>353.0</ele><time>2026-04-18T12:35:35Z</time></trkpt><trkpt lat="42.35077946351614" lon="12.650145030191926"><ele>353.0</ele><time>2026-04-18T12:35:36Z</time></trkpt><trkpt lat="42.35064036267853" lon="12.650164896872216"><ele>353.0</ele><time>2026-04-18T12:35:37Z</time></trkpt><trkpt lat="42.35049963058518" lon="12.650124112889095"><ele>353.0</ele><time>2026-04-18T12:35:37.999Z</time></trkpt><trkpt lat="42.35035130445285" lon="12.650053906508228"><ele>353.0</ele><time>2026-04-18T12:35:38.999Z</time></trkpt><trkpt lat="42.350176216233564" lon="12.649975249584095"><ele>350.33333333333337</ele><time>2026-04-18T12:35:39.999Z</time></trkpt><trkpt lat="42.34999437320823" lon="12.649910546590394"><ele>347.6666666666667</ele><time>2026-04-18T12:35:40.999Z</time></trkpt><trkpt lat="42.34983723846422" lon="12.649856367782172"><ele>345.0</ele><time>2026-04-18T12:35:41.999Z</time></trkpt><trkpt lat="42.34968611494268" lon="12.649801488444075"><ele>342.0</ele><time>2026-04-18T12:35:42.999Z</time></trkpt><trkpt lat="42.349522454122564" lon="12.649737362531834"><ele>339.0</ele><time>2026-04-18T12:35:43.999Z</time></trkpt><trkpt lat="42.34935066376741" lon="12.649668574634195"><ele>336.0</ele><time>2026-04-18T12:35:44.999Z</time></trkpt><trkpt lat="42.34920034999949" lon="12.64960767408909"><ele>336.0</ele><time>2026-04-18T12:35:46Z</time></trkpt><trkpt lat="42.349054350616164" lon="12.649546261748917"><ele>336.0</ele><time>2026-04-18T12:35:47Z</time></trkpt><trkpt lat="42.34890816167789" lon="12.649486532765023"><ele>336.0</ele><time>2026-04-18T12:35:48Z</time></trkpt><trkpt lat="42.348758050475126" lon="12.649444789236185"><ele>333.6666666666667</ele><time>2026-04-18T12:35:49Z</time></trkpt><trkpt lat="42.348593087943144" lon="12.649452875639751"><ele>331.33333333333337</ele><time>2026-04-18T12:35:50Z</time></trkpt><trkpt lat="42.34844037287749" lon="12.649494568535195"><ele>329.0</ele><time>2026-04-18T12:35:51Z</time></trkpt><trkpt lat="42.34830288888685" lon="12.64956580427575"><ele>329.0</ele><time>2026-04-18T12:35:52Z</time></trkpt><trkpt lat="42.34815213915208" lon="12.649653111802648"><ele>329.0</ele><time>2026-04-18T12:35:53Z</time></trkpt><trkpt lat="42.34800476785063" lon="12.649745057938487"><ele>329.0</ele><time>2026-04-18T12:35:54Z</time></trkpt><trkpt lat="42.34785085183553" lon="12.64981055255028"><ele>330.33333333333337</ele><time>2026-04-18T12:35:55Z</time></trkpt><trkpt lat="42.34769439537089" lon="12.649870056884676"><ele>331.6666666666667</ele><time>2026-04-18T12:35:56Z</time></trkpt><trkpt lat="42.347544202992076" lon="12.649925569001532"><ele>333.0</ele><time>2026-04-18T12:35:57Z</time></trkpt><trkpt lat="42.347397260226025" lon="12.649975538413132"><ele>333.0</ele><time>2026-04-18T12:35:58Z</time></trkpt><trkpt lat="42.34723446191338" lon="12.650002185867967"><ele>333.0</ele><time>2026-04-18T12:35:59Z</time></trkpt><trkpt lat="42.347081032495275" lon="12.650024004774163"><ele>333.0</ele><time>2026-04-18T12:36:00Z</time></trkpt><trkpt lat="42.34692899132423" lon="12.650041470322227"><ele>334.3333333333333</ele><time>2026-04-18T12:36:01Z</time></trkpt><trkpt lat="42.346768161770314" lon="12.650063578457129"><ele>335.66666666666663</ele><time>2026-04-18T12:36:02Z</time></trkpt><trkpt lat="42.34660389308277" lon="12.650088642374115"><ele>337.0</ele><time>2026-04-18T12:36:03Z</time></trkpt><trkpt lat="42.34645981654828" lon="12.650131189016747"><ele>337.3333333333333</ele><time>2026-04-18T12:36:04Z</time></trkpt><trkpt lat="42.346310341037885" lon="12.650193148546657"><ele>337.6666666666667</ele><time>2026-04-18T12:36:05Z</time></trkpt><trkpt lat="42.3461761661363" lon="12.650282775960033"><ele>338.0</ele><time>2026-04-18T12:36:06Z</time></trkpt><trkpt lat="42.34602149640435" lon="12.650383653764287"><ele>338.0</ele><time>2026-04-18T12:36:07Z</time></trkpt><trkpt lat="42.34591521038145" lon="12.650504947170312"><ele>338.0</ele><time>2026-04-18T12:36:08Z</time></trkpt><trkpt lat="42.34578003072398" lon="12.650624806748427"><ele>338.0</ele><time>2026-04-18T12:36:09Z</time></trkpt><trkpt lat="42.3456224439694" lon="12.65070429679447"><ele>341.0</ele><time>2026-04-18T12:36:10Z</time></trkpt><trkpt lat="42.345431676512646" lon="12.650768377386933"><ele>344.0</ele><time>2026-04-18T12:36:11Z</time></trkpt><trkpt lat="42.34526955762721" lon="12.650825085915367"><ele>347.0</ele><time>2026-04-18T12:36:12Z</time></trkpt><trkpt lat="42.34511642180574" lon="12.650877976187962"><ele>347.0</ele><time>2026-04-18T12:36:13Z</time></trkpt><trkpt lat="42.34496255131111" lon="12.650934798327762"><ele>347.0</ele><time>2026-04-18T12:36:14Z</time></trkpt><trkpt lat="42.34481162264981" lon="12.65098618099744"><ele>347.0</ele><time>2026-04-18T12:36:15Z</time></trkpt><trkpt lat="42.344665715250066" lon="12.651027469215355"><ele>345.33333333333337</ele><time>2026-04-18T12:36:16Z</time></trkpt><trkpt lat="42.34451474604797" lon="12.651068860308113"><ele>343.6666666666667</ele><time>2026-04-18T12:36:17Z</time></trkpt><trkpt lat="42.34435885615368" lon="12.651117841965105"><ele>342.0</ele><time>2026-04-18T12:36:18Z</time></trkpt><trkpt lat="42.34418864530094" lon="12.651162182408758"><ele>342.0</ele><time>2026-04-18T12:36:19Z</time></trkpt><trkpt lat="42.344012209855016" lon="12.651220652717186"><ele>342.0</ele><time>2026-04-18T12:36:20Z</time></trkpt><trkpt lat="42.34385103626445" lon="12.651269491734478"><ele>342.0</ele><time>2026-04-18T12:36:21Z</time></trkpt><trkpt lat="42.343705404315884" lon="12.651332616440204"><ele>342.6666666666667</ele><time>2026-04-18T12:36:22Z</time></trkpt><trkpt lat="42.34356226345653" lon="12.651383021840694"><ele>343.33333333333337</ele><time>2026-04-18T12:36:23Z</time></trkpt><trkpt lat="42.34342258071794" lon="12.65146220293792"><ele>344.0</ele><time>2026-04-18T12:36:24Z</time></trkpt><trkpt lat="42.343278890706976" lon="12.651567610204786"><ele>344.0</ele><time>2026-04-18T12:36:25Z</time></trkpt><trkpt lat="42.343136470268966" lon="12.651691458545859"><ele>344.0</ele><time>2026-04-18T12:36:26Z</time></trkpt><trkpt lat="42.3429921277328" lon="12.651816375221893"><ele>344.0</ele><time>2026-04-18T12:36:27Z</time></trkpt><trkpt lat="42.34285975422492" lon="12.651919018258294"><ele>343.75</ele><time>2026-04-18T12:36:28Z</time></trkpt><trkpt lat="42.34273684530909" lon="12.652020218827355"><ele>343.5</ele><time>2026-04-18T12:36:29Z</time></trkpt><trkpt lat="42.34263332492409" lon="12.652089294122396"><ele>343.25</ele><time>2026-04-18T12:36:30Z</time></trkpt><trkpt lat="42.3425218457255" lon="12.652123116569921"><ele>343.0</ele><time>2026-04-18T12:36:31Z</time></trkpt><trkpt lat="42.34239729955147" lon="12.652088196087488"><ele>343.0</ele><time>2026-04-18T12:36:32Z</time></trkpt><trkpt lat="42.34229627264049" lon="12.65202542055877"><ele>343.0</ele><time>2026-04-18T12:36:33Z</time></trkpt><trkpt lat="42.34216695074268" lon="12.65196731476853"><ele>343.0</ele><time>2026-04-18T12:36:34Z</time></trkpt><trkpt lat="42.34202755156355" lon="12.65187210314961"><ele>343.0</ele><time>2026-04-18T12:36:35Z</time></trkpt><trkpt lat="42.34187549011805" lon="12.651788848718631"><ele>344.0</ele><time>2026-04-18T12:36:36Z</time></trkpt><trkpt lat="42.34173015139888" lon="12.65171541890956"><ele>345.0</ele><time>2026-04-18T12:36:37Z</time></trkpt><trkpt lat="42.341593021622366" lon="12.651629016607366"><ele>346.0</ele><time>2026-04-18T12:36:38Z</time></trkpt><trkpt lat="42.341440693548726" lon="12.65156336614745"><ele>345.66666666666663</ele><time>2026-04-18T12:36:39Z</time></trkpt><trkpt lat="42.34128694525537" lon="12.651494656674933"><ele>345.3333333333333</ele><time>2026-04-18T12:36:40Z</time></trkpt><trkpt lat="42.34115045709609" lon="12.651419524304536"><ele>345.0</ele><time>2026-04-18T12:36:41Z</time></trkpt><trkpt lat="42.341015067440544" lon="12.651329923317473"><ele>345.0</ele><time>2026-04-18T12:36:42Z</time></trkpt><trkpt lat="42.34087353341982" lon="12.651213283463292"><ele>345.0</ele><time>2026-04-18T12:36:43Z</time></trkpt><trkpt lat="42.3407327086658" lon="12.651088272112812"><ele>345.0</ele><time>2026-04-18T12:36:44Z</time></trkpt><trkpt lat="42.34060169766468" lon="12.650968615369857"><ele>344.0</ele><time>2026-04-18T12:36:45Z</time></trkpt><trkpt lat="42.340475062615305" lon="12.650850599532973"><ele>343.0</ele><time>2026-04-18T12:36:46Z</time></trkpt><trkpt lat="42.34034221168242" lon="12.650729006174027"><ele>342.0</ele><time>2026-04-18T12:36:47Z</time></trkpt><trkpt lat="42.34021680303533" lon="12.65062822232247"><ele>342.0</ele><time>2026-04-18T12:36:48Z</time></trkpt><trkpt lat="42.340080810959655" lon="12.650545323652901"><ele>342.0</ele><time>2026-04-18T12:36:49Z</time></trkpt><trkpt lat="42.33992778389768" lon="12.65048653558834"><ele>342.0</ele><time>2026-04-18T12:36:50Z</time></trkpt><trkpt lat="42.33974814782354" lon="12.650461055879793"><ele>341.3333333333333</ele><time>2026-04-18T12:36:51Z</time></trkpt><trkpt lat="42.33956564703361" lon="12.650443499370514"><ele>340.66666666666663</ele><time>2026-04-18T12:36:52Z</time></trkpt><trkpt lat="42.33939207439697" lon="12.650410025590121"><ele>340.0</ele><time>2026-04-18T12:36:53Z</time></trkpt><trkpt lat="42.339236051856155" lon="12.650383013091934"><ele>340.0</ele><time>2026-04-18T12:36:54Z</time></trkpt><trkpt lat="42.33908525816715" lon="12.650361188225938"><ele>340.0</ele><time>2026-04-18T12:36:55Z</time></trkpt><trkpt lat="42.33892386961822" lon="12.65032346651428"><ele>340.0</ele><time>2026-04-18T12:36:56Z</time></trkpt><trkpt lat="42.33876559837571" lon="12.650310400754371"><ele>339.75</ele><time>2026-04-18T12:36:57Z</time></trkpt><trkpt lat="42.3386176498902" lon="12.650317755261543"><ele>339.5</ele><time>2026-04-18T12:36:58Z</time></trkpt><trkpt lat="42.33848930982871" lon="12.650346089723548"><ele>339.25</ele><time>2026-04-18T12:36:59Z</time></trkpt><trkpt lat="42.338376168605556" lon="12.65032910786992"><ele>339.0</ele><time>2026-04-18T12:37:00Z</time></trkpt><trkpt lat="42.3382719565993" lon="12.650285330096706"><ele>339.0</ele><time>2026-04-18T12:37:01Z</time></trkpt><trkpt lat="42.33815355299162" lon="12.650213181030102"><ele>339.0</ele><time>2026-04-18T12:37:02Z</time></trkpt><trkpt lat="42.338037496579275" lon="12.650136125112107"><ele>339.0</ele><time>2026-04-18T12:37:03Z</time></trkpt><trkpt lat="42.33789056742385" lon="12.650037890657595"><ele>339.0</ele><time>2026-04-18T12:37:04Z</time></trkpt><trkpt lat="42.33772778797983" lon="12.649943139562744"><ele>337.6666666666667</ele><time>2026-04-18T12:37:05Z</time></trkpt><trkpt lat="42.33757383073469" lon="12.649839011381106"><ele>336.33333333333337</ele><time>2026-04-18T12:37:06Z</time></trkpt><trkpt lat="42.33742760447071" lon="12.64973895896996"><ele>335.0</ele><time>2026-04-18T12:37:07Z</time></trkpt><trkpt lat="42.337283259757626" lon="12.649659133372658"><ele>331.0</ele><time>2026-04-18T12:37:08Z</time></trkpt><trkpt lat="42.33714448318709" lon="12.649574288623333"><ele>327.0</ele><time>2026-04-18T12:37:09Z</time></trkpt><trkpt lat="42.3370071935065" lon="12.649488461393132"><ele>323.0</ele><time>2026-04-18T12:37:10Z</time></trkpt><trkpt lat="42.33687060310515" lon="12.649409694036418"><ele>323.0</ele><time>2026-04-18T12:37:11Z</time></trkpt><trkpt lat="42.33673959216922" lon="12.649331018154886"><ele>323.0</ele><time>2026-04-18T12:37:12Z</time></trkpt><trkpt lat="42.33662655199733" lon="12.649209004062872"><ele>323.0</ele><time>2026-04-18T12:37:13Z</time></trkpt><trkpt lat="42.33655261355522" lon="12.649052343046431"><ele>323.0</ele><time>2026-04-18T12:37:14Z</time></trkpt><trkpt lat="42.33652204546322" lon="12.648851966051904"><ele>320.6666666666667</ele><time>2026-04-18T12:37:15Z</time></trkpt><trkpt lat="42.33648616527612" lon="12.648621116850576"><ele>318.3333333333333</ele><time>2026-04-18T12:37:16Z</time></trkpt><trkpt lat="42.33643629818327" lon="12.648377955925962"><ele>316.0</ele><time>2026-04-18T12:37:17Z</time></trkpt><trkpt lat="42.33640991468495" lon="12.648125554082167"><ele>316.66666666666663</ele><time>2026-04-18T12:37:18Z</time></trkpt><trkpt lat="42.336371465080866" lon="12.647914816254561"><ele>317.3333333333333</ele><time>2026-04-18T12:37:19Z</time></trkpt><trkpt lat="42.33633708100414" lon="12.647668770167284"><ele>318.0</ele><time>2026-04-18T12:37:20Z</time></trkpt><trkpt lat="42.336306516817736" lon="12.647453784499346"><ele>318.0</ele><time>2026-04-18T12:37:21Z</time></trkpt><trkpt lat="42.33627111455807" lon="12.647246336933641"><ele>318.0</ele><time>2026-04-18T12:37:22Z</time></trkpt><trkpt lat="42.33623349071835" lon="12.647037994729198"><ele>318.0</ele><time>2026-04-18T12:37:23Z</time></trkpt><trkpt lat="42.336179020753086" lon="12.646835050317703"><ele>317.6666666666667</ele><time>2026-04-18T12:37:24Z</time></trkpt><trkpt lat="42.336092915370756" lon="12.646662564589118"><ele>317.33333333333337</ele><time>2026-04-18T12:37:25Z</time></trkpt><trkpt lat="42.33598991162228" lon="12.646507990405357"><ele>317.0</ele><time>2026-04-18T12:37:26Z</time></trkpt><trkpt lat="42.3358731113805" lon="12.646376397247641"><ele>317.0</ele><time>2026-04-18T12:37:27Z</time></trkpt><trkpt lat="42.335723561235774" lon="12.646260788434825"><ele>317.0</ele><time>2026-04-18T12:37:28Z</time></trkpt><trkpt lat="42.335555737300524" lon="12.646154909865832"><ele>317.0</ele><time>2026-04-18T12:37:29Z</time></trkpt><trkpt lat="42.33540593975289" lon="12.64603213875122"><ele>315.0</ele><time>2026-04-18T12:37:30Z</time></trkpt><trkpt lat="42.33526362222947" lon="12.645963608147966"><ele>313.0</ele><time>2026-04-18T12:37:31Z</time></trkpt><trkpt lat="42.335130544161046" lon="12.645874109273086"><ele>311.0</ele><time>2026-04-18T12:37:32Z</time></trkpt><trkpt lat="42.33495199924729" lon="12.64580296233667"><ele>311.0</ele><time>2026-04-18T12:37:33Z</time></trkpt><trkpt lat="42.33475545432191" lon="12.645742556686303"><ele>311.0</ele><time>2026-04-18T12:37:34Z</time></trkpt><trkpt lat="42.33454642028643" lon="12.64568229405912"><ele>311.0</ele><time>2026-04-18T12:37:35Z</time></trkpt><trkpt lat="42.33435754904219" lon="12.645625734336345"><ele>310.6666666666667</ele><time>2026-04-18T12:37:36Z</time></trkpt><trkpt lat="42.334209336356594" lon="12.645523881281159"><ele>310.3333333333333</ele><time>2026-04-18T12:37:37Z</time></trkpt><trkpt lat="42.33407171658846" lon="12.645423548789395"><ele>310.0</ele><time>2026-04-18T12:37:38Z</time></trkpt><trkpt lat="42.333941738218094" lon="12.645333082542471"><ele>306.0</ele><time>2026-04-18T12:37:39Z</time></trkpt><trkpt lat="42.33381668327669" lon="12.6452323460396"><ele>302.0</ele><time>2026-04-18T12:37:40Z</time></trkpt><trkpt lat="42.3336756583516" lon="12.645164782565583"><ele>298.0</ele><time>2026-04-18T12:37:41.001Z</time></trkpt><trkpt lat="42.333522275511896" lon="12.645122489437135"><ele>298.0</ele><time>2026-04-18T12:37:42.001Z</time></trkpt><trkpt lat="42.33336273752307" lon="12.645107658363921"><ele>298.0</ele><time>2026-04-18T12:37:43.001Z</time></trkpt><trkpt lat="42.3332017507324" lon="12.645125506510894"><ele>298.0</ele><time>2026-04-18T12:37:44Z</time></trkpt><trkpt lat="42.33304541469492" lon="12.645160748405704"><ele>294.5</ele><time>2026-04-18T12:37:45Z</time></trkpt><trkpt lat="42.33291723772231" lon="12.645184849921039"><ele>291.0</ele><time>2026-04-18T12:37:46Z</time></trkpt><trkpt lat="42.33280796441535" lon="12.64523942161767"><ele>287.5</ele><time>2026-04-18T12:37:47Z</time></trkpt><trkpt lat="42.332713781976985" lon="12.645339999674801"><ele>284.0</ele><time>2026-04-18T12:37:48Z</time></trkpt><trkpt lat="42.332629887658904" lon="12.645520919097859"><ele>284.0</ele><time>2026-04-18T12:37:49Z</time></trkpt><trkpt lat="42.33258816964293" lon="12.645724623200675"><ele>284.0</ele><time>2026-04-18T12:37:50Z</time></trkpt><trkpt lat="42.332581091816365" lon="12.645883399403775"><ele>284.0</ele><time>2026-04-18T12:37:51Z</time></trkpt><trkpt lat="42.33252559975987" lon="12.6459940317551"><ele>284.0</ele><time>2026-04-18T12:37:52Z</time></trkpt><trkpt lat="42.33241852306506" lon="12.645959438301984"><ele>284.0</ele><time>2026-04-18T12:37:55Z</time></trkpt><trkpt lat="42.33241086190994" lon="12.645792504529913"><ele>284.0</ele><time>2026-04-18T12:37:56Z</time></trkpt><trkpt lat="42.33236486553399" lon="12.645593767157408"><ele>284.0</ele><time>2026-04-18T12:37:57Z</time></trkpt><trkpt lat="42.3323242611191" lon="12.645410222456166"><ele>284.0</ele><time>2026-04-18T12:37:58Z</time></trkpt><trkpt lat="42.332286827615" lon="12.64530265484506"><ele>280.4</ele><time>2026-04-18T12:37:59Z</time></trkpt><trkpt lat="42.33221759916472" lon="12.64518691741618"><ele>276.79999999999995</ele><time>2026-04-18T12:38:01Z</time></trkpt><trkpt lat="42.33213784426303" lon="12.645220218132678"><ele>273.20000000000005</ele><time>2026-04-18T12:38:02Z</time></trkpt><trkpt lat="42.33206064101632" lon="12.645313802227458"><ele>269.6</ele><time>2026-04-18T12:38:03Z</time></trkpt><trkpt lat="42.33200726200261" lon="12.64546760609863"><ele>266.0</ele><time>2026-04-18T12:38:04Z</time></trkpt><trkpt lat="42.331936055351434" lon="12.645593891009959"><ele>266.0</ele><time>2026-04-18T12:38:05Z</time></trkpt><trkpt lat="42.33178198367724" lon="12.645630473111625"><ele>266.0</ele><time>2026-04-18T12:38:06Z</time></trkpt><trkpt lat="42.33159403421234" lon="12.645672079602223"><ele>266.0</ele><time>2026-04-18T12:38:07Z</time></trkpt><trkpt lat="42.33143304991046" lon="12.64570277409855"><ele>264.5</ele><time>2026-04-18T12:38:08Z</time></trkpt><trkpt lat="42.33128945928525" lon="12.645763000944056"><ele>263.0</ele><time>2026-04-18T12:38:09Z</time></trkpt><trkpt lat="42.33115354566297" lon="12.645822125472964"><ele>261.5</ele><time>2026-04-18T12:38:10Z</time></trkpt><trkpt lat="42.331028179558615" lon="12.645870252431365"><ele>260.0</ele><time>2026-04-18T12:38:11Z</time></trkpt><trkpt lat="42.330922556901804" lon="12.645890407181039"><ele>260.0</ele><time>2026-04-18T12:38:12Z</time></trkpt><trkpt lat="42.3308188456877" lon="12.64585379734243"><ele>260.0</ele><time>2026-04-18T12:38:13Z</time></trkpt><trkpt lat="42.33073388441221" lon="12.645717075207648"><ele>260.0</ele><time>2026-04-18T12:38:14Z</time></trkpt><trkpt lat="42.33065221120079" lon="12.64557784645161"><ele>260.0</ele><time>2026-04-18T12:38:15Z</time></trkpt><trkpt lat="42.33057511669797" lon="12.64541949512336"><ele>255.0</ele><time>2026-04-18T12:38:16Z</time></trkpt><trkpt lat="42.330489970940896" lon="12.645224392894777"><ele>250.0</ele><time>2026-04-18T12:38:17Z</time></trkpt><trkpt lat="42.33038978005554" lon="12.645036997411978"><ele>245.0</ele><time>2026-04-18T12:38:18Z</time></trkpt><trkpt lat="42.330301702064496" lon="12.644823219301605"><ele>245.0</ele><time>2026-04-18T12:38:19Z</time></trkpt><trkpt lat="42.330212345585025" lon="12.644625837094814"><ele>245.0</ele><time>2026-04-18T12:38:20Z</time></trkpt><trkpt lat="42.33012479266445" lon="12.644451024949833"><ele>245.0</ele><time>2026-04-18T12:38:21Z</time></trkpt><trkpt lat="42.330030514636746" lon="12.644299108270568"><ele>243.4</ele><time>2026-04-18T12:38:22Z</time></trkpt><trkpt lat="42.329938552861485" lon="12.644172921035732"><ele>241.8</ele><time>2026-04-18T12:38:23Z</time></trkpt><trkpt lat="42.329860833067926" lon="12.64409580413947"><ele>240.2</ele><time>2026-04-18T12:38:24Z</time></trkpt><trkpt lat="42.32977614637665" lon="12.644074280732251"><ele>238.6</ele><time>2026-04-18T12:38:25Z</time></trkpt><trkpt lat="42.329672370116334" lon="12.644134658164239"><ele>237.0</ele><time>2026-04-18T12:38:26Z</time></trkpt><trkpt lat="42.32956655804393" lon="12.64427248926007"><ele>235.0</ele><time>2026-04-18T12:38:27Z</time></trkpt><trkpt lat="42.32946240177201" lon="12.644459689995989"><ele>233.0</ele><time>2026-04-18T12:38:28Z</time></trkpt><trkpt lat="42.32938074202352" lon="12.644639502928033"><ele>231.0</ele><time>2026-04-18T12:38:29Z</time></trkpt><trkpt lat="42.329316571330814" lon="12.644862615629567"><ele>231.0</ele><time>2026-04-18T12:38:30Z</time></trkpt><trkpt lat="42.32929200808332" lon="12.645109301964437"><ele>231.0</ele><time>2026-04-18T12:38:31Z</time></trkpt><trkpt lat="42.32924689674255" lon="12.645360284904557"><ele>231.0</ele><time>2026-04-18T12:38:32Z</time></trkpt><trkpt lat="42.32920244127655" lon="12.645594800652589"><ele>229.66666666666669</ele><time>2026-04-18T12:38:33Z</time></trkpt><trkpt lat="42.32916830754177" lon="12.645844122673543"><ele>228.33333333333334</ele><time>2026-04-18T12:38:34Z</time></trkpt><trkpt lat="42.329140726954066" lon="12.646076038655487"><ele>227.0</ele><time>2026-04-18T12:38:35Z</time></trkpt><trkpt lat="42.329122415407056" lon="12.646268444598325"><ele>226.2</ele><time>2026-04-18T12:38:36Z</time></trkpt><trkpt lat="42.3291075931886" lon="12.646438303789342"><ele>225.39999999999998</ele><time>2026-04-18T12:38:37Z</time></trkpt><trkpt lat="42.329085940039626" lon="12.646579485893675"><ele>224.60000000000002</ele><time>2026-04-18T12:38:38Z</time></trkpt><trkpt lat="42.329044056521234" lon="12.646663854506814"><ele>223.8</ele><time>2026-04-18T12:38:39Z</time></trkpt><trkpt lat="42.32898181302082" lon="12.646709874132211"><ele>223.0</ele><time>2026-04-18T12:38:40Z</time></trkpt><trkpt lat="42.328902523535" lon="12.646679329412184"><ele>218.66666666666666</ele><time>2026-04-18T12:38:41Z</time></trkpt><trkpt lat="42.32882630569143" lon="12.646523597227278"><ele>214.33333333333331</ele><time>2026-04-18T12:38:42Z</time></trkpt><trkpt lat="42.32874582674357" lon="12.646341214592669"><ele>210.0</ele><time>2026-04-18T12:38:43Z</time></trkpt><trkpt lat="42.32864918001859" lon="12.646139021835056"><ele>211.0</ele><time>2026-04-18T12:38:44Z</time></trkpt><trkpt lat="42.32853581621999" lon="12.645903717377845"><ele>212.0</ele><time>2026-04-18T12:38:45Z</time></trkpt><trkpt lat="42.32843254956499" lon="12.645704854161378"><ele>213.0</ele><time>2026-04-18T12:38:46Z</time></trkpt><trkpt lat="42.32832366968353" lon="12.64550874928453"><ele>213.0</ele><time>2026-04-18T12:38:47Z</time></trkpt><trkpt lat="42.32821552914155" lon="12.645327192605965"><ele>213.0</ele><time>2026-04-18T12:38:48Z</time></trkpt><trkpt lat="42.32809280346556" lon="12.645163145172857"><ele>213.0</ele><time>2026-04-18T12:38:49Z</time></trkpt><trkpt lat="42.327985148597485" lon="12.644997527514233"><ele>210.0</ele><time>2026-04-18T12:38:50Z</time></trkpt><trkpt lat="42.32791325047464" lon="12.644844258546426"><ele>207.0</ele><time>2026-04-18T12:38:51Z</time></trkpt><trkpt lat="42.327890206970764" lon="12.644672714600366"><ele>204.0</ele><time>2026-04-18T12:38:52Z</time></trkpt><trkpt lat="42.32786783030126" lon="12.644445949452711"><ele>201.0</ele><time>2026-04-18T12:38:53Z</time></trkpt><trkpt lat="42.32782206153638" lon="12.644226808060186"><ele>201.0</ele><time>2026-04-18T12:38:54Z</time></trkpt><trkpt lat="42.3277717994361" lon="12.644007884997167"><ele>201.0</ele><time>2026-04-18T12:38:55Z</time></trkpt><trkpt lat="42.32764857618297" lon="12.64386809537776"><ele>201.0</ele><time>2026-04-18T12:38:56Z</time></trkpt><trkpt lat="42.32752897227561" lon="12.643658507594864"><ele>200.66666666666669</ele><time>2026-04-18T12:38:57Z</time></trkpt><trkpt lat="42.327445513935245" lon="12.64348085473834"><ele>200.33333333333334</ele><time>2026-04-18T12:38:58Z</time></trkpt><trkpt lat="42.32736297545632" lon="12.643268404517016"><ele>200.0</ele><time>2026-04-18T12:38:59Z</time></trkpt><trkpt lat="42.32728397768632" lon="12.643031861590483"><ele>195.66666666666669</ele><time>2026-04-18T12:39:00Z</time></trkpt><trkpt lat="42.327219931086034" lon="12.642803425002421"><ele>191.33333333333334</ele><time>2026-04-18T12:39:01Z</time></trkpt><trkpt lat="42.327185000836835" lon="12.642609991772487"><ele>187.0</ele><time>2026-04-18T12:39:02Z</time></trkpt><trkpt lat="42.32715933159334" lon="12.642426110424307"><ele>186.0</ele><time>2026-04-18T12:39:03Z</time></trkpt><trkpt lat="42.327138580494285" lon="12.642273264475357"><ele>185.0</ele><time>2026-04-18T12:39:04Z</time></trkpt><trkpt lat="42.327105964711485" lon="12.642153935702973"><ele>184.0</ele><time>2026-04-18T12:39:05Z</time></trkpt><trkpt lat="42.32703764784821" lon="12.642053440185977"><ele>183.0</ele><time>2026-04-18T12:39:06Z</time></trkpt><trkpt lat="42.32693057713682" lon="12.64199759334651"><ele>182.0</ele><time>2026-04-18T12:39:07Z</time></trkpt><trkpt lat="42.32675705185371" lon="12.642110407141447"><ele>182.0</ele><time>2026-04-18T12:39:08Z</time></trkpt><trkpt lat="42.32657863378757" lon="12.642203524381141"><ele>182.0</ele><time>2026-04-18T12:39:09Z</time></trkpt><trkpt lat="42.3264039840981" lon="12.64227862658262"><ele>182.0</ele><time>2026-04-18T12:39:10Z</time></trkpt><trkpt lat="42.326219843135114" lon="12.642281700585766"><ele>179.5</ele><time>2026-04-18T12:39:11Z</time></trkpt><trkpt lat="42.32599582950147" lon="12.642274742228157"><ele>177.0</ele><time>2026-04-18T12:39:12Z</time></trkpt><trkpt lat="42.32575956088917" lon="12.642268700476967"><ele>177.5</ele><time>2026-04-18T12:39:13Z</time></trkpt><trkpt lat="42.325503068747494" lon="12.642231545765279"><ele>178.0</ele><time>2026-04-18T12:39:14Z</time></trkpt><trkpt lat="42.32525891320378" lon="12.642207253955974"><ele>178.0</ele><time>2026-04-18T12:39:15Z</time></trkpt><trkpt lat="42.32504380829676" lon="12.642180684977037"><ele>178.0</ele><time>2026-04-18T12:39:16Z</time></trkpt><trkpt lat="42.32483734089022" lon="12.642171397727543"><ele>178.0</ele><time>2026-04-18T12:39:17Z</time></trkpt><trkpt lat="42.32464291015702" lon="12.642213811284355"><ele>183.0</ele><time>2026-04-18T12:39:18Z</time></trkpt><trkpt lat="42.324405306299596" lon="12.642278964566211"><ele>188.0</ele><time>2026-04-18T12:39:19Z</time></trkpt><trkpt lat="42.32417957811809" lon="12.642341850134601"><ele>188.0</ele><time>2026-04-18T12:39:20Z</time></trkpt><trkpt lat="42.32398205963127" lon="12.642388969885806"><ele>188.0</ele><time>2026-04-18T12:39:21Z</time></trkpt><trkpt lat="42.32377668536766" lon="12.642450780966756"><ele>188.0</ele><time>2026-04-18T12:39:22Z</time></trkpt><trkpt lat="42.323577652643316" lon="12.642513495632143"><ele>189.0</ele><time>2026-04-18T12:39:23Z</time></trkpt><trkpt lat="42.32339040502614" lon="12.642615612890234"><ele>190.0</ele><time>2026-04-18T12:39:24Z</time></trkpt><trkpt lat="42.323200010741374" lon="12.64274282239144"><ele>191.0</ele><time>2026-04-18T12:39:25Z</time></trkpt><trkpt lat="42.32299883563643" lon="12.64287605401719"><ele>192.0</ele><time>2026-04-18T12:39:26Z</time></trkpt><trkpt lat="42.32279399325687" lon="12.643006658894052"><ele>193.0</ele><time>2026-04-18T12:39:27Z</time></trkpt><trkpt lat="42.32258874124853" lon="12.643125191911812"><ele>193.0</ele><time>2026-04-18T12:39:28Z</time></trkpt><trkpt lat="42.32237653384657" lon="12.64324019702653"><ele>193.0</ele><time>2026-04-18T12:39:29Z</time></trkpt><trkpt lat="42.32213969398013" lon="12.64337418537527"><ele>192.0</ele><time>2026-04-18T12:39:30Z</time></trkpt><trkpt lat="42.32189089697647" lon="12.643522262718246"><ele>191.0</ele><time>2026-04-18T12:39:31Z</time></trkpt><trkpt lat="42.3216501137686" lon="12.643667268110946"><ele>191.0</ele><time>2026-04-18T12:39:32Z</time></trkpt><trkpt lat="42.321430017686595" lon="12.643802099889605"><ele>191.0</ele><time>2026-04-18T12:39:33Z</time></trkpt><trkpt lat="42.321218797395254" lon="12.643923199917893"><ele>189.66666666666666</ele><time>2026-04-18T12:39:34Z</time></trkpt><trkpt lat="42.321019222688015" lon="12.644040242338175"><ele>188.33333333333334</ele><time>2026-04-18T12:39:35Z</time></trkpt><trkpt lat="42.320832007083496" lon="12.644153188425694"><ele>187.0</ele><time>2026-04-18T12:39:36Z</time></trkpt><trkpt lat="42.32064453061154" lon="12.644259972272069"><ele>187.33333333333334</ele><time>2026-04-18T12:39:37Z</time></trkpt><trkpt lat="42.32045382938712" lon="12.644372941668378"><ele>187.66666666666666</ele><time>2026-04-18T12:39:38Z</time></trkpt><trkpt lat="42.320258524663956" lon="12.64448851902703"><ele>188.0</ele><time>2026-04-18T12:39:39Z</time></trkpt><trkpt lat="42.32006776119457" lon="12.644608011439502"><ele>188.0</ele><time>2026-04-18T12:39:40.001Z</time></trkpt><trkpt lat="42.31989027252577" lon="12.644714439517161"><ele>188.0</ele><time>2026-04-18T12:39:41.001Z</time></trkpt><trkpt lat="42.319729381609456" lon="12.644807735502031"><ele>188.0</ele><time>2026-04-18T12:39:42.001Z</time></trkpt><trkpt lat="42.319575139898966" lon="12.644887300809833"><ele>189.33333333333331</ele><time>2026-04-18T12:39:43.001Z</time></trkpt><trkpt lat="42.31941525799826" lon="12.644957066557662"><ele>190.66666666666666</ele><time>2026-04-18T12:39:44.001Z</time></trkpt><trkpt lat="42.31923633031146" lon="12.645010829089799"><ele>192.0</ele><time>2026-04-18T12:39:45.001Z</time></trkpt><trkpt lat="42.319060221649124" lon="12.645033175552538"><ele>192.0</ele><time>2026-04-18T12:39:46.001Z</time></trkpt><trkpt lat="42.318895206334425" lon="12.645044287092505"><ele>192.0</ele><time>2026-04-18T12:39:47.001Z</time></trkpt><trkpt lat="42.318733981673006" lon="12.645041189941091"><ele>192.0</ele><time>2026-04-18T12:39:48.001Z</time></trkpt><trkpt lat="42.31857068223713" lon="12.645017524434177"><ele>192.0</ele><time>2026-04-18T12:39:49.001Z</time></trkpt><trkpt lat="42.31839609675306" lon="12.64496656781274"><ele>192.0</ele><time>2026-04-18T12:39:49.999Z</time></trkpt><trkpt lat="42.31821006152073" lon="12.644912776232303"><ele>192.0</ele><time>2026-04-18T12:39:50.999Z</time></trkpt><trkpt lat="42.31800379756095" lon="12.644870799828267"><ele>193.5</ele><time>2026-04-18T12:39:51.999Z</time></trkpt><trkpt lat="42.31777561123222" lon="12.644830074746936"><ele>195.0</ele><time>2026-04-18T12:39:52.999Z</time></trkpt><trkpt lat="42.317540673647585" lon="12.644783327991426"><ele>195.0</ele><time>2026-04-18T12:39:53.999Z</time></trkpt><trkpt lat="42.31729600400471" lon="12.644731382876351"><ele>195.0</ele><time>2026-04-18T12:39:55Z</time></trkpt><trkpt lat="42.31704682984235" lon="12.64468386827939"><ele>197.5</ele><time>2026-04-18T12:39:56Z</time></trkpt><trkpt lat="42.3167861219004" lon="12.644628187780611"><ele>200.0</ele><time>2026-04-18T12:39:57Z</time></trkpt><trkpt lat="42.31652089303816" lon="12.644563389088473"><ele>202.0</ele><time>2026-04-18T12:39:58Z</time></trkpt><trkpt lat="42.3162487682196" lon="12.644500243434512"><ele>204.0</ele><time>2026-04-18T12:39:59Z</time></trkpt><trkpt lat="42.315994557980865" lon="12.644434308041406"><ele>204.5</ele><time>2026-04-18T12:40:00Z</time></trkpt><trkpt lat="42.315750421362104" lon="12.644381673922268"><ele>205.0</ele><time>2026-04-18T12:40:01Z</time></trkpt><trkpt lat="42.31550597892537" lon="12.644342592958727"><ele>210.0</ele><time>2026-04-18T12:40:02Z</time></trkpt><trkpt lat="42.31526473624975" lon="12.644285152752543"><ele>215.0</ele><time>2026-04-18T12:40:03Z</time></trkpt><trkpt lat="42.31503229618514" lon="12.644240256298843"><ele>215.0</ele><time>2026-04-18T12:40:04Z</time></trkpt><trkpt lat="42.31480442906538" lon="12.644189179611617"><ele>215.0</ele><time>2026-04-18T12:40:05Z</time></trkpt><trkpt lat="42.31458438010732" lon="12.64413016647289"><ele>216.5</ele><time>2026-04-18T12:40:06Z</time></trkpt><trkpt lat="42.31435354894228" lon="12.644049998960018"><ele>218.0</ele><time>2026-04-18T12:40:07Z</time></trkpt><trkpt lat="42.31412639052834" lon="12.643962044988752"><ele>218.0</ele><time>2026-04-18T12:40:08Z</time></trkpt><trkpt lat="42.31391289755914" lon="12.643866493725357"><ele>218.0</ele><time>2026-04-18T12:40:09Z</time></trkpt><trkpt lat="42.31369193148658" lon="12.643806388632424"><ele>218.0</ele><time>2026-04-18T12:40:10Z</time></trkpt><trkpt lat="42.31347552572167" lon="12.643737627991777"><ele>218.0</ele><time>2026-04-18T12:40:11Z</time></trkpt><trkpt lat="42.313252024917944" lon="12.643666395041219"><ele>225.0</ele><time>2026-04-18T12:40:12Z</time></trkpt><trkpt lat="42.31302594551595" lon="12.643595924138147"><ele>232.0</ele><time>2026-04-18T12:40:13Z</time></trkpt><trkpt lat="42.31279446337284" lon="12.643530900979314"><ele>232.0</ele><time>2026-04-18T12:40:14Z</time></trkpt><trkpt lat="42.31256649921822" lon="12.643469034457762"><ele>232.0</ele><time>2026-04-18T12:40:15Z</time></trkpt><trkpt lat="42.31232082108187" lon="12.643409742504273"><ele>235.0</ele><time>2026-04-18T12:40:16Z</time></trkpt><trkpt lat="42.312063850880506" lon="12.643351700126797"><ele>238.0</ele><time>2026-04-18T12:40:17Z</time></trkpt><trkpt lat="42.3118280174925" lon="12.643294824740773"><ele>238.0</ele><time>2026-04-18T12:40:18Z</time></trkpt><trkpt lat="42.311614796234636" lon="12.643238830054644"><ele>238.0</ele><time>2026-04-18T12:40:19Z</time></trkpt><trkpt lat="42.31141660723228" lon="12.643171116363513"><ele>238.0</ele><time>2026-04-18T12:40:20Z</time></trkpt><trkpt lat="42.31122073917871" lon="12.643100035122744"><ele>239.0</ele><time>2026-04-18T12:40:21Z</time></trkpt><trkpt lat="42.31102001818264" lon="12.643008042054"><ele>240.0</ele><time>2026-04-18T12:40:22Z</time></trkpt><trkpt lat="42.310826399310656" lon="12.642926438770631"><ele>241.0</ele><time>2026-04-18T12:40:23Z</time></trkpt><trkpt lat="42.310660730001146" lon="12.642867400748875"><ele>242.33333333333331</ele><time>2026-04-18T12:40:24Z</time></trkpt><trkpt lat="42.31049662307956" lon="12.642814819823217"><ele>243.66666666666669</ele><time>2026-04-18T12:40:25Z</time></trkpt><trkpt lat="42.31032766893306" lon="12.642784855049108"><ele>245.0</ele><time>2026-04-18T12:40:26Z</time></trkpt><trkpt lat="42.31015760633935" lon="12.642782141641963"><ele>245.0</ele><time>2026-04-18T12:40:27Z</time></trkpt><trkpt lat="42.309980281559795" lon="12.642804947049976"><ele>245.0</ele><time>2026-04-18T12:40:28Z</time></trkpt><trkpt lat="42.30981419132202" lon="12.642847163206353"><ele>245.0</ele><time>2026-04-18T12:40:29Z</time></trkpt><trkpt lat="42.3096598438868" lon="12.642903412817327"><ele>248.0</ele><time>2026-04-18T12:40:30Z</time></trkpt><trkpt lat="42.30949696050086" lon="12.643004484432602"><ele>251.0</ele><time>2026-04-18T12:40:31Z</time></trkpt><trkpt lat="42.309331622624235" lon="12.643114233929602"><ele>254.0</ele><time>2026-04-18T12:40:32Z</time></trkpt><trkpt lat="42.30919208832453" lon="12.64322567269347"><ele>254.0</ele><time>2026-04-18T12:40:33Z</time></trkpt><trkpt lat="42.309075831141605" lon="12.643341514679511"><ele>254.0</ele><time>2026-04-18T12:40:34Z</time></trkpt><trkpt lat="42.308961210907974" lon="12.643445685775472"><ele>254.0</ele><time>2026-04-18T12:40:35Z</time></trkpt><trkpt lat="42.30883053918906" lon="12.643539695468819"><ele>254.0</ele><time>2026-04-18T12:40:36Z</time></trkpt><trkpt lat="42.30870777981768" lon="12.643631732704497"><ele>256.33333333333337</ele><time>2026-04-18T12:40:37Z</time></trkpt><trkpt lat="42.30857774472549" lon="12.643736448694709"><ele>258.6666666666667</ele><time>2026-04-18T12:40:38Z</time></trkpt><trkpt lat="42.30843276590876" lon="12.643860334495526"><ele>261.0</ele><time>2026-04-18T12:40:39Z</time></trkpt><trkpt lat="42.30828504464805" lon="12.643985516595217"><ele>261.0</ele><time>2026-04-18T12:40:40Z</time></trkpt><trkpt lat="42.308137144828144" lon="12.64409901235353"><ele>261.0</ele><time>2026-04-18T12:40:41Z</time></trkpt><trkpt lat="42.30802054699709" lon="12.644187023325584"><ele>261.0</ele><time>2026-04-18T12:40:42Z</time></trkpt><trkpt lat="42.30792976421653" lon="12.644253346311537"><ele>261.0</ele><time>2026-04-18T12:40:43Z</time></trkpt><trkpt lat="42.30779975885482" lon="12.644334284060367"><ele>261.0</ele><time>2026-04-18T12:40:44Z</time></trkpt><trkpt lat="42.30765608598061" lon="12.644420213343876"><ele>261.0</ele><time>2026-04-18T12:40:45Z</time></trkpt><trkpt lat="42.30749953616342" lon="12.64449139721815"><ele>261.0</ele><time>2026-04-18T12:40:46Z</time></trkpt><trkpt lat="42.307348216505545" lon="12.644537253857907"><ele>259.25</ele><time>2026-04-18T12:40:47Z</time></trkpt><trkpt lat="42.3072012670056" lon="12.644581429527728"><ele>257.5</ele><time>2026-04-18T12:40:48Z</time></trkpt><trkpt lat="42.30704977062158" lon="12.644629930201997"><ele>255.75</ele><time>2026-04-18T12:40:49Z</time></trkpt><trkpt lat="42.30692368832786" lon="12.644665807787575"><ele>254.0</ele><time>2026-04-18T12:40:50Z</time></trkpt><trkpt lat="42.306827480743614" lon="12.64468769375365"><ele>254.0</ele><time>2026-04-18T12:40:51Z</time></trkpt><trkpt lat="42.306742089406725" lon="12.644711489807753"><ele>253.99999999999997</ele><time>2026-04-18T12:40:52Z</time></trkpt><trkpt lat="42.30666693490586" lon="12.644735095502604"><ele>253.99999999999997</ele><time>2026-04-18T12:40:53Z</time></trkpt><trkpt lat="42.30659469202004" lon="12.644732512816393"><ele>254.0</ele><time>2026-04-18T12:40:54Z</time></trkpt><trkpt lat="42.30648185935083" lon="12.644667751967912"><ele>254.0</ele><time>2026-04-18T12:40:56Z</time></trkpt><trkpt lat="42.306383004667694" lon="12.64466663210641"><ele>252.83333333333334</ele><time>2026-04-18T12:40:58Z</time></trkpt><trkpt lat="42.30631579483606" lon="12.644688907823804"><ele>251.66666666666669</ele><time>2026-04-18T12:41:00Z</time></trkpt><trkpt lat="42.30623469090534" lon="12.644670529994936"><ele>250.5</ele><time>2026-04-18T12:41:03Z</time></trkpt><trkpt lat="42.30625537650285" lon="12.644583903980259"><ele>249.33333333333331</ele><time>2026-04-18T12:41:08Z</time></trkpt><trkpt lat="42.30630766978087" lon="12.644712790699419"><ele>248.16666666666666</ele><time>2026-04-18T12:50:41Z</time></trkpt><trkpt lat="42.30625845222228" lon="12.644643456837114"><ele>247.0</ele><time>2026-04-18T12:50:45Z</time></trkpt><trkpt lat="42.30628130141196" lon="12.644362318027717"><ele>246.99999999999997</ele><time>2026-04-18T12:51:26Z</time></trkpt><trkpt lat="42.30620017542636" lon="12.644410040947678"><ele>247.0</ele><time>2026-04-18T12:52:36Z</time></trkpt><trkpt lat="42.30614480999773" lon="12.644523434851376"><ele>247.0</ele><time>2026-04-18T12:52:38Z</time></trkpt><trkpt lat="42.306112039875636" lon="12.644633206639574"><ele>247.0</ele><time>2026-04-18T12:52:40Z</time></trkpt><trkpt lat="42.30612443186282" lon="12.644725505312907"><ele>246.99999999999997</ele><time>2026-04-18T12:52:42Z</time></trkpt><trkpt lat="42.306177254422444" lon="12.644819854607832"><ele>247.0</ele><time>2026-04-18T12:52:58Z</time></trkpt><trkpt lat="42.30612519013168" lon="12.644928950508215"><ele>247.0</ele><time>2026-04-18T12:53:02Z</time></trkpt><trkpt lat="42.30603423859418" lon="12.644957646300739"><ele>247.0</ele><time>2026-04-18T12:53:04Z</time></trkpt><trkpt lat="42.305916959503314" lon="12.644999324465651"><ele>247.0</ele><time>2026-04-18T12:53:06Z</time></trkpt><trkpt lat="42.30584954586101" lon="12.645027504338627"><ele>247.0</ele><time>2026-04-18T12:53:07Z</time></trkpt><trkpt lat="42.30577312079107" lon="12.645053148522697"><ele>247.0</ele><time>2026-04-18T12:53:08Z</time></trkpt><trkpt lat="42.305683188575195" lon="12.645083217848777"><ele>247.0</ele><time>2026-04-18T12:53:09Z</time></trkpt><trkpt lat="42.30557939528951" lon="12.645117440305537"><ele>247.0</ele><time>2026-04-18T12:53:09.999Z</time></trkpt><trkpt lat="42.30545637625456" lon="12.645154747610459"><ele>247.0</ele><time>2026-04-18T12:53:10.999Z</time></trkpt><trkpt lat="42.30532537767109" lon="12.645194051324085"><ele>247.0</ele><time>2026-04-18T12:53:11.999Z</time></trkpt><trkpt lat="42.30518826614728" lon="12.645237046017412"><ele>246.66666666666666</ele><time>2026-04-18T12:53:12.999Z</time></trkpt><trkpt lat="42.305036155277165" lon="12.64528190847736"><ele>246.33333333333331</ele><time>2026-04-18T12:53:13.999Z</time></trkpt><trkpt lat="42.30487876805241" lon="12.645327655862785"><ele>246.0</ele><time>2026-04-18T12:53:14.999Z</time></trkpt><trkpt lat="42.30471526210362" lon="12.645378814809407"><ele>246.0</ele><time>2026-04-18T12:53:15.999Z</time></trkpt><trkpt lat="42.304543954957275" lon="12.645439423613789"><ele>246.0</ele><time>2026-04-18T12:53:16.999Z</time></trkpt><trkpt lat="42.30436997537412" lon="12.645505859625937"><ele>246.0</ele><time>2026-04-18T12:53:17.999Z</time></trkpt><trkpt lat="42.304189657981524" lon="12.645568967792098"><ele>246.0</ele><time>2026-04-18T12:53:18.999Z</time></trkpt><trkpt lat="42.30400641247657" lon="12.645640498928284"><ele>246.0</ele><time>2026-04-18T12:53:19.999Z</time></trkpt><trkpt lat="42.303815595261156" lon="12.645721510905888"><ele>246.0</ele><time>2026-04-18T12:53:20.999Z</time></trkpt><trkpt lat="42.3036225570238" lon="12.645814274803776"><ele>243.33333333333331</ele><time>2026-04-18T12:53:21.999Z</time></trkpt><trkpt lat="42.303425346210965" lon="12.645923129121034"><ele>240.66666666666666</ele><time>2026-04-18T12:53:22.999Z</time></trkpt><trkpt lat="42.30322316055208" lon="12.646044836779298"><ele>238.0</ele><time>2026-04-18T12:53:23.999Z</time></trkpt><trkpt lat="42.3030281456298" lon="12.646176992253151"><ele>238.0</ele><time>2026-04-18T12:53:24.999Z</time></trkpt><trkpt lat="42.30282699466576" lon="12.646292654347855"><ele>238.0</ele><time>2026-04-18T12:53:25.999Z</time></trkpt><trkpt lat="42.294341651445684" lon="12.651133476603563"><ele>218.75</ele><time>2026-04-18T12:54:27Z</time></trkpt><trkpt lat="42.294223000245616" lon="12.651150192685414"><ele>199.5</ele><time>2026-04-18T12:54:28Z</time></trkpt><trkpt lat="42.29408411297039" lon="12.651172831991765"><ele>180.25</ele><time>2026-04-18T12:54:29Z</time></trkpt><trkpt lat="42.29393621151206" lon="12.651207569741024"><ele>161.0</ele><time>2026-04-18T12:54:30Z</time></trkpt><trkpt lat="42.29377793016262" lon="12.651254680516004"><ele>160.66666666666666</ele><time>2026-04-18T12:54:31Z</time></trkpt><trkpt lat="42.29361064517198" lon="12.65130905855919"><ele>160.33333333333334</ele><time>2026-04-18T12:54:32Z</time></trkpt><trkpt lat="42.29343591274431" lon="12.651368790646428"><ele>160.0</ele><time>2026-04-18T12:54:33Z</time></trkpt><trkpt lat="42.29325639689375" lon="12.651442668855795"><ele>158.0</ele><time>2026-04-18T12:54:34Z</time></trkpt><trkpt lat="42.29307714271499" lon="12.651487123208465"><ele>156.0</ele><time>2026-04-18T12:54:35Z</time></trkpt><trkpt lat="42.2928965940911" lon="12.651517294164588"><ele>154.0</ele><time>2026-04-18T12:54:36Z</time></trkpt><trkpt lat="42.29272810615143" lon="12.651519834685738"><ele>154.0</ele><time>2026-04-18T12:54:37Z</time></trkpt><trkpt lat="42.292562083814275" lon="12.651534767631315"><ele>154.0</ele><time>2026-04-18T12:54:38Z</time></trkpt><trkpt lat="42.29239906766252" lon="12.651575582325032"><ele>154.0</ele><time>2026-04-18T12:54:39Z</time></trkpt><trkpt lat="42.292243122279835" lon="12.6516648560193"><ele>150.66666666666669</ele><time>2026-04-18T12:54:40Z</time></trkpt><trkpt lat="42.29207918326611" lon="12.651787121234536"><ele>147.33333333333334</ele><time>2026-04-18T12:54:41Z</time></trkpt><trkpt lat="42.291923680182485" lon="12.65192748750389"><ele>144.0</ele><time>2026-04-18T12:54:42Z</time></trkpt><trkpt lat="42.29178098201285" lon="12.652078974945091"><ele>144.0</ele><time>2026-04-18T12:54:43Z</time></trkpt><trkpt lat="42.291654123172286" lon="12.652246000875842"><ele>144.0</ele><time>2026-04-18T12:54:44Z</time></trkpt><trkpt lat="42.291527462596164" lon="12.652436869855435"><ele>144.0</ele><time>2026-04-18T12:54:45Z</time></trkpt><trkpt lat="42.29140262760236" lon="12.652638823729074"><ele>142.0</ele><time>2026-04-18T12:54:46Z</time></trkpt><trkpt lat="42.29127471301238" lon="12.652840150881984"><ele>140.0</ele><time>2026-04-18T12:54:47Z</time></trkpt><trkpt lat="42.29115505133519" lon="12.653028967315302"><ele>138.0</ele><time>2026-04-18T12:54:48Z</time></trkpt><trkpt lat="42.29103736243326" lon="12.653209632883133"><ele>138.0</ele><time>2026-04-18T12:54:49Z</time></trkpt><trkpt lat="42.29092538306786" lon="12.65338527679751"><ele>138.0</ele><time>2026-04-18T12:54:50Z</time></trkpt><trkpt lat="42.29080759126109" lon="12.653543029859065"><ele>138.0</ele><time>2026-04-18T12:54:51Z</time></trkpt><trkpt lat="42.29067059846322" lon="12.653683884352136"><ele>134.0</ele><time>2026-04-18T12:54:52Z</time></trkpt><trkpt lat="42.29051618015558" lon="12.653805773078576"><ele>130.0</ele><time>2026-04-18T12:54:53Z</time></trkpt><trkpt lat="42.290336265774634" lon="12.653905568378494"><ele>126.0</ele><time>2026-04-18T12:54:54Z</time></trkpt><trkpt lat="42.29014081209002" lon="12.653941380523845"><ele>126.0</ele><time>2026-04-18T12:54:55Z</time></trkpt><trkpt lat="42.28993553111482" lon="12.653990324971796"><ele>126.0</ele><time>2026-04-18T12:54:56Z</time></trkpt><trkpt lat="42.289730434983696" lon="12.654037354183231"><ele>126.0</ele><time>2026-04-18T12:54:57Z</time></trkpt><trkpt lat="42.289510531538845" lon="12.654087677413825"><ele>125.0</ele><time>2026-04-18T12:54:58Z</time></trkpt><trkpt lat="42.28928560722238" lon="12.654143692954772"><ele>124.0</ele><time>2026-04-18T12:54:59Z</time></trkpt><trkpt lat="42.289065610342064" lon="12.654198171253618"><ele>122.0</ele><time>2026-04-18T12:55:00Z</time></trkpt><trkpt lat="42.28885801474361" lon="12.654246887825925"><ele>120.0</ele><time>2026-04-18T12:55:01Z</time></trkpt><trkpt lat="42.288658956373446" lon="12.654290176884507"><ele>118.0</ele><time>2026-04-18T12:55:02Z</time></trkpt><trkpt lat="42.28846447679799" lon="12.6543309345085"><ele>118.0</ele><time>2026-04-18T12:55:03Z</time></trkpt><trkpt lat="42.288271650322194" lon="12.654365614842796"><ele>118.0</ele><time>2026-04-18T12:55:04Z</time></trkpt><trkpt lat="42.28807151258573" lon="12.654380050840594"><ele>118.0</ele><time>2026-04-18T12:55:05Z</time></trkpt><trkpt lat="42.28787331674085" lon="12.654375389917385"><ele>114.33333333333334</ele><time>2026-04-18T12:55:06Z</time></trkpt><trkpt lat="42.287686052030004" lon="12.654344374593757"><ele>110.66666666666666</ele><time>2026-04-18T12:55:07Z</time></trkpt><trkpt lat="42.28750258590369" lon="12.65429303480703"><ele>107.0</ele><time>2026-04-18T12:55:08Z</time></trkpt><trkpt lat="42.287311705974155" lon="12.654234685614353"><ele>104.0</ele><time>2026-04-18T12:55:09Z</time></trkpt><trkpt lat="42.28711230216174" lon="12.654178566122038"><ele>101.0</ele><time>2026-04-18T12:55:10Z</time></trkpt><trkpt lat="42.28691350946205" lon="12.654117242315806"><ele>98.0</ele><time>2026-04-18T12:55:11Z</time></trkpt><trkpt lat="42.28671237785597" lon="12.65404635888953"><ele>98.0</ele><time>2026-04-18T12:55:12Z</time></trkpt><trkpt lat="42.286522414673875" lon="12.653968068269387"><ele>98.0</ele><time>2026-04-18T12:55:13Z</time></trkpt><trkpt lat="42.286341882242276" lon="12.653832165746563"><ele>98.0</ele><time>2026-04-18T12:55:14Z</time></trkpt><trkpt lat="42.28616909643549" lon="12.65369879292476"><ele>96.66666666666666</ele><time>2026-04-18T12:55:15Z</time></trkpt><trkpt lat="42.286001142273605" lon="12.653539301426406"><ele>95.33333333333333</ele><time>2026-04-18T12:55:15.999Z</time></trkpt><trkpt lat="42.28585563488715" lon="12.65336254189129"><ele>94.0</ele><time>2026-04-18T12:55:16.999Z</time></trkpt><trkpt lat="42.28572083979265" lon="12.653165983033219"><ele>90.66666666666666</ele><time>2026-04-18T12:55:17.999Z</time></trkpt><trkpt lat="42.28558771485008" lon="12.65296456929268"><ele>87.33333333333333</ele><time>2026-04-18T12:55:18.999Z</time></trkpt><trkpt lat="42.28545929960707" lon="12.652775478785617"><ele>84.0</ele><time>2026-04-18T12:55:19.999Z</time></trkpt><trkpt lat="42.28533865314833" lon="12.652596885738372"><ele>84.0</ele><time>2026-04-18T12:55:20.999Z</time></trkpt><trkpt lat="42.28522402745444" lon="12.652413632442537"><ele>84.0</ele><time>2026-04-18T12:55:21.999Z</time></trkpt><trkpt lat="42.285112055337436" lon="12.652245986909797"><ele>84.0</ele><time>2026-04-18T12:55:22.999Z</time></trkpt><trkpt lat="42.28500391844155" lon="12.65208727127129"><ele>83.66666666666667</ele><time>2026-04-18T12:55:23.999Z</time></trkpt><trkpt lat="42.28489556740169" lon="12.651945681961502"><ele>83.33333333333334</ele><time>2026-04-18T12:55:24.999Z</time></trkpt><trkpt lat="42.284767866171784" lon="12.651826798615813"><ele>83.0</ele><time>2026-04-18T12:55:25.999Z</time></trkpt><trkpt lat="42.27474659870805" lon="12.64029753858017"><ele>78.0</ele><time>2026-04-18T12:56:27Z</time></trkpt><trkpt lat="42.274625830814045" lon="12.640136002388745"><ele>73.0</ele><time>2026-04-18T12:56:28Z</time></trkpt><trkpt lat="42.27450813967326" lon="12.64001026794216"><ele>68.0</ele><time>2026-04-18T12:56:29Z</time></trkpt><trkpt lat="42.274374179300004" lon="12.63992808519824"><ele>68.0</ele><time>2026-04-18T12:56:30Z</time></trkpt><trkpt lat="42.27424252575993" lon="12.639883327625892"><ele>68.0</ele><time>2026-04-18T12:56:31Z</time></trkpt><trkpt lat="42.27413092736892" lon="12.63988158906219"><ele>68.0</ele><time>2026-04-18T12:56:32Z</time></trkpt><trkpt lat="42.27403922371609" lon="12.639890354537327"><ele>68.0</ele><time>2026-04-18T12:56:33Z</time></trkpt><trkpt lat="42.27396550678401" lon="12.639896022034513"><ele>68.0</ele><time>2026-04-18T12:56:34Z</time></trkpt><trkpt lat="42.27384075710022" lon="12.639839453790046"><ele>67.8</ele><time>2026-04-18T12:56:36Z</time></trkpt><trkpt lat="42.27377193768917" lon="12.63975925923379"><ele>67.6</ele><time>2026-04-18T12:56:37Z</time></trkpt><trkpt lat="42.27368426854772" lon="12.639654809341227"><ele>67.4</ele><time>2026-04-18T12:56:38Z</time></trkpt><trkpt lat="42.27358927587041" lon="12.63955247163447"><ele>67.2</ele><time>2026-04-18T12:56:39Z</time></trkpt><trkpt lat="42.27350571083145" lon="12.639463353513783"><ele>67.0</ele><time>2026-04-18T12:56:40Z</time></trkpt><trkpt lat="42.27342552108845" lon="12.639374003644994"><ele>67.0</ele><time>2026-04-18T12:56:41Z</time></trkpt><trkpt lat="42.27330822518815" lon="12.639251295317655"><ele>67.0</ele><time>2026-04-18T12:56:42Z</time></trkpt><trkpt lat="42.27317195060494" lon="12.639090423363289"><ele>67.0</ele><time>2026-04-18T12:56:43Z</time></trkpt><trkpt lat="42.27303591740431" lon="12.63891101611169"><ele>64.66666666666666</ele><time>2026-04-18T12:56:44Z</time></trkpt><trkpt lat="42.2729083903082" lon="12.638747960169328"><ele>62.33333333333333</ele><time>2026-04-18T12:56:45Z</time></trkpt><trkpt lat="42.272786848483044" lon="12.638601607502126"><ele>60.0</ele><time>2026-04-18T12:56:46Z</time></trkpt><trkpt lat="42.27265533480324" lon="12.638469008971617"><ele>60.0</ele><time>2026-04-18T12:56:47Z</time></trkpt><trkpt lat="42.27251810174284" lon="12.638335693495938"><ele>60.0</ele><time>2026-04-18T12:56:48Z</time></trkpt><trkpt lat="42.272380686586374" lon="12.638201931386279"><ele>60.0</ele><time>2026-04-18T12:56:49Z</time></trkpt><trkpt lat="42.2722401973846" lon="12.638075783804014"><ele>59.0</ele><time>2026-04-18T12:56:50Z</time></trkpt><trkpt lat="42.27209920764682" lon="12.637947925376803"><ele>58.0</ele><time>2026-04-18T12:56:51Z</time></trkpt><trkpt lat="42.271957982855454" lon="12.637795014332179"><ele>57.0</ele><time>2026-04-18T12:56:52Z</time></trkpt><trkpt lat="42.271826717690516" lon="12.63760779314555"><ele>57.0</ele><time>2026-04-18T12:56:53Z</time></trkpt><trkpt lat="42.27170335804004" lon="12.637387646460265"><ele>57.0</ele><time>2026-04-18T12:56:54Z</time></trkpt><trkpt lat="42.2715992130956" lon="12.637178262003475"><ele>57.0</ele><time>2026-04-18T12:56:55Z</time></trkpt><trkpt lat="42.27150757954947" lon="12.636978184007347"><ele>56.33333333333333</ele><time>2026-04-18T12:56:56Z</time></trkpt><trkpt lat="42.27144066584722" lon="12.636756636131526"><ele>55.666666666666664</ele><time>2026-04-18T12:56:57Z</time></trkpt><trkpt lat="42.27141646490213" lon="12.636487257270767"><ele>55.0</ele><time>2026-04-18T12:56:58Z</time></trkpt><trkpt lat="42.27141862624315" lon="12.636212452662614"><ele>55.33333333333333</ele><time>2026-04-18T12:56:59Z</time></trkpt><trkpt lat="42.27141820139807" lon="12.635948895469298"><ele>55.66666666666667</ele><time>2026-04-18T12:57:00Z</time></trkpt><trkpt lat="42.27141464047374" lon="12.635675006046979"><ele>56.0</ele><time>2026-04-18T12:57:01Z</time></trkpt><trkpt lat="42.27141457137174" lon="12.635404184519528"><ele>55.0</ele><time>2026-04-18T12:57:02Z</time></trkpt><trkpt lat="42.27142031131313" lon="12.63513974158287"><ele>54.0</ele><time>2026-04-18T12:57:03Z</time></trkpt><trkpt lat="42.271429854902465" lon="12.63487963337278"><ele>53.0</ele><time>2026-04-18T12:57:04Z</time></trkpt><trkpt lat="42.27143549143766" lon="12.634623559704927"><ele>52.66666666666667</ele><time>2026-04-18T12:57:05Z</time></trkpt><trkpt lat="42.271431167134125" lon="12.634371231713592"><ele>52.33333333333333</ele><time>2026-04-18T12:57:06Z</time></trkpt><trkpt lat="42.27141330704821" lon="12.634126650448824"><ele>52.0</ele><time>2026-04-18T12:57:07Z</time></trkpt><trkpt lat="42.2713815993344" lon="12.633877445176372"><ele>52.0</ele><time>2026-04-18T12:57:08Z</time></trkpt><trkpt lat="42.27134657863418" lon="12.633617828310525"><ele>52.0</ele><time>2026-04-18T12:57:09Z</time></trkpt><trkpt lat="42.27131268288169" lon="12.63336144202676"><ele>52.0</ele><time>2026-04-18T12:57:10Z</time></trkpt><trkpt lat="42.271272948023444" lon="12.633107109013412"><ele>52.0</ele><time>2026-04-18T12:57:11Z</time></trkpt><trkpt lat="42.27123952656342" lon="12.632841997577188"><ele>52.0</ele><time>2026-04-18T12:57:12Z</time></trkpt><trkpt lat="42.271196410494724" lon="12.63256757290044"><ele>52.0</ele><time>2026-04-18T12:57:13Z</time></trkpt><trkpt lat="42.27115288097333" lon="12.632292951020549"><ele>52.666666666666664</ele><time>2026-04-18T12:57:14Z</time></trkpt><trkpt lat="42.27111234053711" lon="12.632024532764728"><ele>53.33333333333333</ele><time>2026-04-18T12:57:15Z</time></trkpt><trkpt lat="42.27107837659162" lon="12.631759871577628"><ele>54.0</ele><time>2026-04-18T12:57:16Z</time></trkpt><trkpt lat="42.27104109982877" lon="12.631500422276881"><ele>55.33333333333333</ele><time>2026-04-18T12:57:17Z</time></trkpt><trkpt lat="42.27100568205494" lon="12.631251913306084"><ele>56.666666666666664</ele><time>2026-04-18T12:57:18Z</time></trkpt><trkpt lat="42.27098573782433" lon="12.631007094762397"><ele>58.0</ele><time>2026-04-18T12:57:19Z</time></trkpt><trkpt lat="42.27093690528951" lon="12.630765986983937"><ele>59.0</ele><time>2026-04-18T12:57:20Z</time></trkpt><trkpt lat="42.27090397195096" lon="12.630514629692398"><ele>60.0</ele><time>2026-04-18T12:57:21Z</time></trkpt><trkpt lat="42.270868589050934" lon="12.630261758765448"><ele>61.0</ele><time>2026-04-18T12:57:22Z</time></trkpt><trkpt lat="42.270835514283206" lon="12.630017851957074"><ele>61.0</ele><time>2026-04-18T12:57:23Z</time></trkpt><trkpt lat="42.27081598390895" lon="12.629777822249311"><ele>61.0</ele><time>2026-04-18T12:57:24Z</time></trkpt><trkpt lat="42.27080186837869" lon="12.629541379335231"><ele>61.0</ele><time>2026-04-18T12:57:25Z</time></trkpt><trkpt lat="42.27080763566747" lon="12.629305628042252"><ele>82.0</ele><time>2026-04-18T12:57:26Z</time></trkpt><trkpt lat="42.271807241559266" lon="12.616126234139676"><ele>82.0</ele><time>2026-04-18T12:58:27Z</time></trkpt><trkpt lat="42.271850838372345" lon="12.615922412988489"><ele>82.0</ele><time>2026-04-18T12:58:28Z</time></trkpt><trkpt lat="42.2718560494055" lon="12.61570550560451"><ele>82.0</ele><time>2026-04-18T12:58:29Z</time></trkpt><trkpt lat="42.27180538990644" lon="12.615497776617225"><ele>82.0</ele><time>2026-04-18T12:58:30Z</time></trkpt><trkpt lat="42.27171969739479" lon="12.615326481324571"><ele>82.0</ele><time>2026-04-18T12:58:31Z</time></trkpt><trkpt lat="42.27160620412204" lon="12.61517752547674"><ele>82.0</ele><time>2026-04-18T12:58:32Z</time></trkpt><trkpt lat="42.27149137080837" lon="12.615045374659386"><ele>79.25</ele><time>2026-04-18T12:58:33Z</time></trkpt><trkpt lat="42.27137991179261" lon="12.61493610782907"><ele>76.5</ele><time>2026-04-18T12:58:34Z</time></trkpt><trkpt lat="42.271274323715886" lon="12.614832305417584"><ele>73.75</ele><time>2026-04-18T12:58:35Z</time></trkpt><trkpt lat="42.27118731142243" lon="12.614712405006971"><ele>71.0</ele><time>2026-04-18T12:58:36Z</time></trkpt><trkpt lat="42.2711372143028" lon="12.614538682628876"><ele>70.25</ele><time>2026-04-18T12:58:37Z</time></trkpt><trkpt lat="42.2711133730138" lon="12.614361397018124"><ele>69.5</ele><time>2026-04-18T12:58:38Z</time></trkpt><trkpt lat="42.27111847584269" lon="12.614167759046817"><ele>68.75</ele><time>2026-04-18T12:58:39Z</time></trkpt><trkpt lat="42.27112558415544" lon="12.61396008956615"><ele>68.0</ele><time>2026-04-18T12:58:40Z</time></trkpt><trkpt lat="42.27112354354528" lon="12.61376084487161"><ele>68.0</ele><time>2026-04-18T12:58:41Z</time></trkpt><trkpt lat="42.27113264629155" lon="12.613571588171"><ele>68.0</ele><time>2026-04-18T12:58:42Z</time></trkpt><trkpt lat="42.27113700949236" lon="12.613388018142393"><ele>68.0</ele><time>2026-04-18T12:58:43Z</time></trkpt><trkpt lat="42.27117232285295" lon="12.613218578555637"><ele>68.0</ele><time>2026-04-18T12:58:44Z</time></trkpt><trkpt lat="42.27121045795149" lon="12.613040446196075"><ele>68.0</ele><time>2026-04-18T12:58:45Z</time></trkpt><trkpt lat="42.271327177137465" lon="12.612882075176197"><ele>68.0</ele><time>2026-04-18T12:58:46Z</time></trkpt><trkpt lat="42.271472343494345" lon="12.612741337177223"><ele>68.0</ele><time>2026-04-18T12:58:47Z</time></trkpt><trkpt lat="42.271614248137624" lon="12.612607068226607"><ele>67.33333333333334</ele><time>2026-04-18T12:58:48Z</time></trkpt><trkpt lat="42.27173475447864" lon="12.612471892242112"><ele>66.66666666666667</ele><time>2026-04-18T12:58:49Z</time></trkpt><trkpt lat="42.27185577362937" lon="12.612332474128056"><ele>66.0</ele><time>2026-04-18T12:58:50Z</time></trkpt><trkpt lat="42.27198322109185" lon="12.612192262322047"><ele>66.0</ele><time>2026-04-18T12:58:51Z</time></trkpt><trkpt lat="42.27213413432534" lon="12.612060601486638"><ele>66.0</ele><time>2026-04-18T12:58:52Z</time></trkpt><trkpt lat="42.27227677642534" lon="12.61190576827034"><ele>66.0</ele><time>2026-04-18T12:58:53Z</time></trkpt><trkpt lat="42.27241869200902" lon="12.611752660124832"><ele>63.0</ele><time>2026-04-18T12:58:54Z</time></trkpt><trkpt lat="42.272546264680706" lon="12.61161709391337"><ele>60.0</ele><time>2026-04-18T12:58:55Z</time></trkpt><trkpt lat="42.27267611506652" lon="12.611497911911647"><ele>57.0</ele><time>2026-04-18T12:58:56Z</time></trkpt><trkpt lat="42.2728210975646" lon="12.61142107166861"><ele>57.0</ele><time>2026-04-18T12:58:57Z</time></trkpt><trkpt lat="42.27298157595836" lon="12.611363989043438"><ele>57.0</ele><time>2026-04-18T12:58:58Z</time></trkpt><trkpt lat="42.273161330402246" lon="12.611343435023302"><ele>57.0</ele><time>2026-04-18T12:58:59Z</time></trkpt><trkpt lat="42.273349253560326" lon="12.611317361450944"><ele>55.0</ele><time>2026-04-18T12:59:00Z</time></trkpt><trkpt lat="42.273543513110305" lon="12.611284738445159"><ele>53.0</ele><time>2026-04-18T12:59:01Z</time></trkpt><trkpt lat="42.27372555456915" lon="12.611246770471851"><ele>51.0</ele><time>2026-04-18T12:59:02Z</time></trkpt><trkpt lat="42.273900663768686" lon="12.61116208073162"><ele>49.666666666666664</ele><time>2026-04-18T12:59:03Z</time></trkpt><trkpt lat="42.27406950973098" lon="12.610984711131971"><ele>48.33333333333333</ele><time>2026-04-18T12:59:04Z</time></trkpt><trkpt lat="42.27421494893099" lon="12.610775084255842"><ele>47.0</ele><time>2026-04-18T12:59:05Z</time></trkpt><trkpt lat="42.27435607727407" lon="12.610613008355875"><ele>47.0</ele><time>2026-04-18T12:59:06Z</time></trkpt><trkpt lat="42.274491986772716" lon="12.610449422004427"><ele>47.0</ele><time>2026-04-18T12:59:07Z</time></trkpt><trkpt lat="42.27462520771403" lon="12.610288784822782"><ele>47.0</ele><time>2026-04-18T12:59:08Z</time></trkpt><trkpt lat="42.274772327518846" lon="12.610128902855926"><ele>47.0</ele><time>2026-04-18T12:59:09Z</time></trkpt><trkpt lat="42.27492926152859" lon="12.609990808931796"><ele>47.0</ele><time>2026-04-18T12:59:10Z</time></trkpt><trkpt lat="42.27510300278557" lon="12.609872260364137"><ele>47.0</ele><time>2026-04-18T12:59:11Z</time></trkpt><trkpt lat="42.27528581684836" lon="12.609762025767244"><ele>47.0</ele><time>2026-04-18T12:59:12Z</time></trkpt><trkpt lat="42.27546897625364" lon="12.609656904010906"><ele>47.0</ele><time>2026-04-18T12:59:13Z</time></trkpt><trkpt lat="42.27563643677647" lon="12.609539451228278"><ele>47.0</ele><time>2026-04-18T12:59:14Z</time></trkpt><trkpt lat="42.275802999365844" lon="12.609434369757096"><ele>46.33333333333333</ele><time>2026-04-18T12:59:15Z</time></trkpt><trkpt lat="42.27595663402006" lon="12.609282682446308"><ele>45.666666666666664</ele><time>2026-04-18T12:59:16Z</time></trkpt><trkpt lat="42.27609629560546" lon="12.609095515906938"><ele>45.0</ele><time>2026-04-18T12:59:17Z</time></trkpt><trkpt lat="42.27622641401267" lon="12.608887540079202"><ele>45.0</ele><time>2026-04-18T12:59:18Z</time></trkpt><trkpt lat="42.276350214716224" lon="12.608683712181142"><ele>45.0</ele><time>2026-04-18T12:59:19Z</time></trkpt><trkpt lat="42.27646920901951" lon="12.608468501201875"><ele>45.0</ele><time>2026-04-18T12:59:20Z</time></trkpt><trkpt lat="42.2765783945129" lon="12.608242079173474"><ele>44.333333333333336</ele><time>2026-04-18T12:59:21Z</time></trkpt><trkpt lat="42.27666810956933" lon="12.608008291507664"><ele>43.66666666666667</ele><time>2026-04-18T12:59:22Z</time></trkpt><trkpt lat="42.276741313515046" lon="12.607771272999692"><ele>43.0</ele><time>2026-04-18T12:59:23Z</time></trkpt><trkpt lat="42.276809899088946" lon="12.607535216693408"><ele>42.0</ele><time>2026-04-18T12:59:24Z</time></trkpt><trkpt lat="42.27687879316772" lon="12.607303507934299"><ele>41.0</ele><time>2026-04-18T12:59:25Z</time></trkpt><trkpt lat="42.27695131811968" lon="12.607070155608827"><ele>40.0</ele><time>2026-04-18T12:59:26Z</time></trkpt><trkpt lat="42.28225731749424" lon="12.595637277070756"><ele>41.0</ele><time>2026-04-18T13:00:27Z</time></trkpt><trkpt lat="42.282288076791836" lon="12.59537301032743"><ele>42.0</ele><time>2026-04-18T13:00:28Z</time></trkpt><trkpt lat="42.28232039004477" lon="12.595106896080427"><ele>43.0</ele><time>2026-04-18T13:00:29Z</time></trkpt><trkpt lat="42.28236367693324" lon="12.594829458274951"><ele>43.333333333333336</ele><time>2026-04-18T13:00:30Z</time></trkpt><trkpt lat="42.282418150604286" lon="12.594554777015054"><ele>43.666666666666664</ele><time>2026-04-18T13:00:31Z</time></trkpt><trkpt lat="42.282473510990755" lon="12.594285051483828"><ele>44.0</ele><time>2026-04-18T13:00:32Z</time></trkpt><trkpt lat="42.282532626075096" lon="12.594018720048997"><ele>43.33333333333333</ele><time>2026-04-18T13:00:33Z</time></trkpt><trkpt lat="42.28260222601368" lon="12.593758626594731"><ele>42.666666666666664</ele><time>2026-04-18T13:00:34Z</time></trkpt><trkpt lat="42.28268360039442" lon="12.59351370671215"><ele>42.0</ele><time>2026-04-18T13:00:35Z</time></trkpt><trkpt lat="42.282770991494765" lon="12.593274330853054"><ele>41.333333333333336</ele><time>2026-04-18T13:00:36Z</time></trkpt><trkpt lat="42.28285120199725" lon="12.59303503882838"><ele>40.66666666666667</ele><time>2026-04-18T13:00:37Z</time></trkpt><trkpt lat="42.28293093517915" lon="12.592798056126288"><ele>40.0</ele><time>2026-04-18T13:00:38Z</time></trkpt><trkpt lat="42.28301323879401" lon="12.59256333860233"><ele>39.333333333333336</ele><time>2026-04-18T13:00:39Z</time></trkpt><trkpt lat="42.28309438215814" lon="12.59233626843678"><ele>38.666666666666664</ele><time>2026-04-18T13:00:40Z</time></trkpt><trkpt lat="42.28317068814877" lon="12.592125051173396"><ele>38.0</ele><time>2026-04-18T13:00:41Z</time></trkpt><trkpt lat="42.2832499846592" lon="12.59193080675706"><ele>39.33333333333333</ele><time>2026-04-18T13:00:42Z</time></trkpt><trkpt lat="42.283340299038564" lon="12.591749128149711"><ele>40.666666666666664</ele><time>2026-04-18T13:00:43Z</time></trkpt><trkpt lat="42.283440940972625" lon="12.591587691768842"><ele>42.0</ele><time>2026-04-18T13:00:44Z</time></trkpt><trkpt lat="42.28354986311446" lon="12.59146820811981"><ele>42.0</ele><time>2026-04-18T13:00:45Z</time></trkpt><trkpt lat="42.28365280350864" lon="12.591389180714552"><ele>42.0</ele><time>2026-04-18T13:00:46Z</time></trkpt><trkpt lat="42.28374593439015" lon="12.5913330253177"><ele>42.0</ele><time>2026-04-18T13:00:47Z</time></trkpt><trkpt lat="42.28382658257808" lon="12.591255662171962"><ele>42.0</ele><time>2026-04-18T13:00:48Z</time></trkpt><trkpt lat="42.28386883255839" lon="12.591128888541293"><ele>42.0</ele><time>2026-04-18T13:00:49Z</time></trkpt><trkpt lat="42.28384838411374" lon="12.590974635831634"><ele>42.25</ele><time>2026-04-18T13:00:50Z</time></trkpt><trkpt lat="42.28380570601711" lon="12.590819290638029"><ele>42.5</ele><time>2026-04-18T13:00:51Z</time></trkpt><trkpt lat="42.28383897902473" lon="12.590650446344913"><ele>42.75</ele><time>2026-04-18T13:00:52Z</time></trkpt><trkpt lat="42.28392360328306" lon="12.590463878068364"><ele>43.0</ele><time>2026-04-18T13:00:53Z</time></trkpt><trkpt lat="42.28400262503544" lon="12.590283828709412"><ele>43.0</ele><time>2026-04-18T13:00:54Z</time></trkpt><trkpt lat="42.28406903498979" lon="12.590109805969796"><ele>43.0</ele><time>2026-04-18T13:00:55Z</time></trkpt><trkpt lat="42.28413273577765" lon="12.589938948968209"><ele>43.0</ele><time>2026-04-18T13:00:56Z</time></trkpt><trkpt lat="42.2841953897238" lon="12.589772818335092"><ele>43.0</ele><time>2026-04-18T13:00:57Z</time></trkpt><trkpt lat="42.284261208488495" lon="12.58959952926417"><ele>42.25</ele><time>2026-04-18T13:00:58Z</time></trkpt><trkpt lat="42.2843281497986" lon="12.589423866076277"><ele>41.5</ele><time>2026-04-18T13:00:59Z</time></trkpt><trkpt lat="42.28439459850445" lon="12.589243211624428"><ele>40.75</ele><time>2026-04-18T13:01:00Z</time></trkpt><trkpt lat="42.284460222868454" lon="12.589059386244418"><ele>40.0</ele><time>2026-04-18T13:01:01Z</time></trkpt><trkpt lat="42.28452702060466" lon="12.588874737869384"><ele>40.0</ele><time>2026-04-18T13:01:02Z</time></trkpt><trkpt lat="42.2846003443629" lon="12.588685711085143"><ele>40.0</ele><time>2026-04-18T13:01:03Z</time></trkpt><trkpt lat="42.28467078965039" lon="12.588493045460806"><ele>40.0</ele><time>2026-04-18T13:01:04Z</time></trkpt><trkpt lat="42.2847401374809" lon="12.588298463987273"><ele>41.0</ele><time>2026-04-18T13:01:05Z</time></trkpt><trkpt lat="42.284816145009316" lon="12.588106867959244"><ele>42.0</ele><time>2026-04-18T13:01:06Z</time></trkpt><trkpt lat="42.28488866461725" lon="12.587910743144938"><ele>43.0</ele><time>2026-04-18T13:01:07Z</time></trkpt><trkpt lat="42.28496183677295" lon="12.587719230339024"><ele>43.0</ele><time>2026-04-18T13:01:08Z</time></trkpt><trkpt lat="42.28503275530593" lon="12.587522540212783"><ele>43.0</ele><time>2026-04-18T13:01:09Z</time></trkpt><trkpt lat="42.28510421603743" lon="12.587325473930546"><ele>43.0</ele><time>2026-04-18T13:01:10Z</time></trkpt><trkpt lat="42.28517798601743" lon="12.58712686943235"><ele>42.66666666666667</ele><time>2026-04-18T13:01:11Z</time></trkpt><trkpt lat="42.285250089774195" lon="12.586925833180137"><ele>42.333333333333336</ele><time>2026-04-18T13:01:12Z</time></trkpt><trkpt lat="42.28532770862012" lon="12.586719546133223"><ele>42.0</ele><time>2026-04-18T13:01:13Z</time></trkpt><trkpt lat="42.285406789960405" lon="12.586518384212392"><ele>42.0</ele><time>2026-04-18T13:01:14Z</time></trkpt><trkpt lat="42.285487359571746" lon="12.586311196258148"><ele>42.0</ele><time>2026-04-18T13:01:15Z</time></trkpt><trkpt lat="42.285569183249756" lon="12.586092196668224"><ele>42.0</ele><time>2026-04-18T13:01:16Z</time></trkpt><trkpt lat="42.28564938412749" lon="12.585871108605884"><ele>43.333333333333336</ele><time>2026-04-18T13:01:17Z</time></trkpt><trkpt lat="42.28573421978061" lon="12.585642613934738"><ele>44.66666666666667</ele><time>2026-04-18T13:01:18Z</time></trkpt><trkpt lat="42.2858165716689" lon="12.58540965625276"><ele>46.0</ele><time>2026-04-18T13:01:19Z</time></trkpt><trkpt lat="42.28588423136353" lon="12.585172217866903"><ele>46.0</ele><time>2026-04-18T13:01:20Z</time></trkpt><trkpt lat="42.28593088486579" lon="12.584939238283022"><ele>46.0</ele><time>2026-04-18T13:01:21Z</time></trkpt><trkpt lat="42.28595186238246" lon="12.58470926343481"><ele>46.0</ele><time>2026-04-18T13:01:22Z</time></trkpt><trkpt lat="42.285962714213134" lon="12.584479183533364"><ele>46.333333333333336</ele><time>2026-04-18T13:01:23Z</time></trkpt><trkpt lat="42.28598859108707" lon="12.584239404533127"><ele>46.666666666666664</ele><time>2026-04-18T13:01:24Z</time></trkpt><trkpt lat="42.28603979466452" lon="12.583993483642658"><ele>47.0</ele><time>2026-04-18T13:01:25Z</time></trkpt><trkpt lat="42.28613023873453" lon="12.583756574102635"><ele>36.0</ele><time>2026-04-18T13:01:26Z</time></trkpt><trkpt lat="42.28759681347454" lon="12.571429998503097"><ele>36.0</ele><time>2026-04-18T13:02:27Z</time></trkpt><trkpt lat="42.28759322363673" lon="12.571183327574"><ele>36.0</ele><time>2026-04-18T13:02:28Z</time></trkpt><trkpt lat="42.2875857995104" lon="12.57093756683041"><ele>36.0</ele><time>2026-04-18T13:02:29Z</time></trkpt><trkpt lat="42.28757070735312" lon="12.570699489678116"><ele>36.0</ele><time>2026-04-18T13:02:30Z</time></trkpt><trkpt lat="42.287534325092544" lon="12.57046800499404"><ele>36.0</ele><time>2026-04-18T13:02:31Z</time></trkpt><trkpt lat="42.28747118409459" lon="12.570251042018562"><ele>36.0</ele><time>2026-04-18T13:02:32Z</time></trkpt><trkpt lat="42.28738096257992" lon="12.570030596923287"><ele>36.0</ele><time>2026-04-18T13:02:33Z</time></trkpt><trkpt lat="42.28727028832614" lon="12.5698068160353"><ele>36.0</ele><time>2026-04-18T13:02:34Z</time></trkpt><trkpt lat="42.28715628946484" lon="12.569578964463178"><ele>36.0</ele><time>2026-04-18T13:02:35Z</time></trkpt><trkpt lat="42.28704531052998" lon="12.569349738318731"><ele>36.0</ele><time>2026-04-18T13:02:36Z</time></trkpt><trkpt lat="42.28693830926109" lon="12.569117401255816"><ele>36.0</ele><time>2026-04-18T13:02:37Z</time></trkpt><trkpt lat="42.28682822993565" lon="12.568879662334787"><ele>36.0</ele><time>2026-04-18T13:02:38Z</time></trkpt><trkpt lat="42.286716376999905" lon="12.568639882770801"><ele>36.0</ele><time>2026-04-18T13:02:39Z</time></trkpt><trkpt lat="42.28659521138309" lon="12.568392712633043"><ele>36.0</ele><time>2026-04-18T13:02:40Z</time></trkpt><trkpt lat="42.286484340613754" lon="12.568153539725582"><ele>36.0</ele><time>2026-04-18T13:02:41Z</time></trkpt><trkpt lat="42.28637269861422" lon="12.567921813925787"><ele>35.666666666666664</ele><time>2026-04-18T13:02:42Z</time></trkpt><trkpt lat="42.28626584833691" lon="12.56768849760259"><ele>35.33333333333333</ele><time>2026-04-18T13:02:43Z</time></trkpt><trkpt lat="42.28614877156274" lon="12.567441428158784"><ele>35.0</ele><time>2026-04-18T13:02:44Z</time></trkpt><trkpt lat="42.286045653655265" lon="12.567215624972492"><ele>35.0</ele><time>2026-04-18T13:02:45Z</time></trkpt><trkpt lat="42.2859416146627" lon="12.566986696062015"><ele>35.0</ele><time>2026-04-18T13:02:46Z</time></trkpt><trkpt lat="42.28583608583925" lon="12.566758834278783"><ele>35.0</ele><time>2026-04-18T13:02:47Z</time></trkpt><trkpt lat="42.28572934002719" lon="12.566532950594537"><ele>35.0</ele><time>2026-04-18T13:02:48Z</time></trkpt><trkpt lat="42.28562482770638" lon="12.566319755586289"><ele>35.0</ele><time>2026-04-18T13:02:49Z</time></trkpt><trkpt lat="42.28552084875848" lon="12.566095203620469"><ele>35.0</ele><time>2026-04-18T13:02:50Z</time></trkpt><trkpt lat="42.28541150806756" lon="12.565861054515965"><ele>34.666666666666664</ele><time>2026-04-18T13:02:51Z</time></trkpt><trkpt lat="42.28529861341954" lon="12.565620739440737"><ele>34.333333333333336</ele><time>2026-04-18T13:02:52Z</time></trkpt><trkpt lat="42.28518394124739" lon="12.5653748961841"><ele>34.0</ele><time>2026-04-18T13:02:53Z</time></trkpt><trkpt lat="42.285068783667235" lon="12.565131730493034"><ele>34.0</ele><time>2026-04-18T13:02:54Z</time></trkpt><trkpt lat="42.28495333912402" lon="12.564881800747129"><ele>34.0</ele><time>2026-04-18T13:02:55Z</time></trkpt><trkpt lat="42.284836263682166" lon="12.564631266625724"><ele>34.0</ele><time>2026-04-18T13:02:56Z</time></trkpt><trkpt lat="42.28471774497728" lon="12.56438203882092"><ele>34.0</ele><time>2026-04-18T13:02:57Z</time></trkpt><trkpt lat="42.284598989484586" lon="12.56413134898685"><ele>34.0</ele><time>2026-04-18T13:02:58Z</time></trkpt><trkpt lat="42.28447703802516" lon="12.563878282405216"><ele>34.0</ele><time>2026-04-18T13:02:59Z</time></trkpt><trkpt lat="42.28435923930763" lon="12.563630810540568"><ele>34.0</ele><time>2026-04-18T13:03:00Z</time></trkpt><trkpt lat="42.284241263941816" lon="12.563373808589136"><ele>34.0</ele><time>2026-04-18T13:03:01Z</time></trkpt><trkpt lat="42.284118640447964" lon="12.563107640392877"><ele>33.5</ele><time>2026-04-18T13:03:02Z</time></trkpt><trkpt lat="42.283995119667125" lon="12.56283994550372"><ele>33.0</ele><time>2026-04-18T13:03:03Z</time></trkpt><trkpt lat="42.283871068441805" lon="12.562577661225815"><ele>33.0</ele><time>2026-04-18T13:03:04Z</time></trkpt><trkpt lat="42.2837471599599" lon="12.562317993479997"><ele>33.0</ele><time>2026-04-18T13:03:05Z</time></trkpt><trkpt lat="42.28362438122483" lon="12.562056818770582"><ele>33.666666666666664</ele><time>2026-04-18T13:03:06Z</time></trkpt><trkpt lat="42.283503038655624" lon="12.561795655531053"><ele>34.33333333333333</ele><time>2026-04-18T13:03:07Z</time></trkpt><trkpt lat="42.283382509792716" lon="12.561548049691018"><ele>35.0</ele><time>2026-04-18T13:03:08Z</time></trkpt><trkpt lat="42.2832673733894" lon="12.561298837237844"><ele>34.666666666666664</ele><time>2026-04-18T13:03:09Z</time></trkpt><trkpt lat="42.28315371198879" lon="12.561054177808328"><ele>34.333333333333336</ele><time>2026-04-18T13:03:10Z</time></trkpt><trkpt lat="42.28304083457218" lon="12.56081227802995"><ele>34.0</ele><time>2026-04-18T13:03:11Z</time></trkpt><trkpt lat="42.282932070897644" lon="12.560575537755463"><ele>34.0</ele><time>2026-04-18T13:03:12Z</time></trkpt><trkpt lat="42.28281877379794" lon="12.560336980347131"><ele>34.0</ele><time>2026-04-18T13:03:13Z</time></trkpt><trkpt lat="42.282705356340784" lon="12.560098503127168"><ele>34.0</ele><time>2026-04-18T13:03:14Z</time></trkpt><trkpt lat="42.28259324288105" lon="12.559853406005068"><ele>34.0</ele><time>2026-04-18T13:03:15Z</time></trkpt><trkpt lat="42.28247664035496" lon="12.55960158682511"><ele>34.0</ele><time>2026-04-18T13:03:16Z</time></trkpt><trkpt lat="42.28235516345497" lon="12.559353730339389"><ele>34.0</ele><time>2026-04-18T13:03:17Z</time></trkpt><trkpt lat="42.28223293219216" lon="12.55909825807999"><ele>34.0</ele><time>2026-04-18T13:03:18Z</time></trkpt><trkpt lat="42.28211520126655" lon="12.558847705566068"><ele>34.0</ele><time>2026-04-18T13:03:19Z</time></trkpt><trkpt lat="42.28199920407879" lon="12.55859658066436"><ele>34.0</ele><time>2026-04-18T13:03:20Z</time></trkpt><trkpt lat="42.28188231905977" lon="12.558355792337359"><ele>33.66666666666667</ele><time>2026-04-18T13:03:21Z</time></trkpt><trkpt lat="42.28176964836528" lon="12.558116759777104"><ele>33.333333333333336</ele><time>2026-04-18T13:03:22Z</time></trkpt><trkpt lat="42.281657376137304" lon="12.557879276274464"><ele>33.0</ele><time>2026-04-18T13:03:23Z</time></trkpt><trkpt lat="42.28154140866189" lon="12.557632768529595"><ele>33.333333333333336</ele><time>2026-04-18T13:03:24Z</time></trkpt><trkpt lat="42.28142497201161" lon="12.557388290601011"><ele>33.66666666666667</ele><time>2026-04-18T13:03:25Z</time></trkpt><trkpt lat="42.28130995248041" lon="12.557145533127223"><ele>34.0</ele><time>2026-04-18T13:03:26Z</time></trkpt><trkpt lat="42.275819260798606" lon="12.543556398470518"><ele>35.333333333333336</ele><time>2026-04-18T13:04:27Z</time></trkpt><trkpt lat="42.27569781619878" lon="12.543410087980853"><ele>36.666666666666664</ele><time>2026-04-18T13:04:28Z</time></trkpt><trkpt lat="42.2755714955738" lon="12.5432760002295"><ele>38.0</ele><time>2026-04-18T13:04:29Z</time></trkpt><trkpt lat="42.27543341950233" lon="12.54314903227334"><ele>38.666666666666664</ele><time>2026-04-18T13:04:30Z</time></trkpt><trkpt lat="42.2752964659814" lon="12.54302808379125"><ele>39.333333333333336</ele><time>2026-04-18T13:04:31Z</time></trkpt><trkpt lat="42.27516976351388" lon="12.542913721452589"><ele>40.0</ele><time>2026-04-18T13:04:32Z</time></trkpt><trkpt lat="42.27509046376263" lon="12.542752331860784"><ele>40.0</ele><time>2026-04-18T13:04:33Z</time></trkpt><trkpt lat="42.27505055102089" lon="12.542571021285088"><ele>40.0</ele><time>2026-04-18T13:04:34Z</time></trkpt><trkpt lat="42.274991918329924" lon="12.54237883380814"><ele>40.0</ele><time>2026-04-18T13:04:35Z</time></trkpt><trkpt lat="42.274972843163475" lon="12.542223901961558"><ele>40.0</ele><time>2026-04-18T13:04:36Z</time></trkpt><trkpt lat="42.27493741377189" lon="12.54214541762079"><ele>39.75</ele><time>2026-04-18T13:04:37Z</time></trkpt><trkpt lat="42.2750051779345" lon="12.541996259415201"><ele>39.5</ele><time>2026-04-18T13:04:39Z</time></trkpt><trkpt lat="42.275063017975356" lon="12.541906766028694"><ele>39.25</ele><time>2026-04-18T13:04:40Z</time></trkpt><trkpt lat="42.27513920399609" lon="12.541796007963978"><ele>39.0</ele><time>2026-04-18T13:04:41Z</time></trkpt><trkpt lat="42.27521069951089" lon="12.541662620488482"><ele>39.0</ele><time>2026-04-18T13:04:42Z</time></trkpt><trkpt lat="42.27528320690025" lon="12.541521804449124"><ele>39.0</ele><time>2026-04-18T13:04:43Z</time></trkpt><trkpt lat="42.27535515810618" lon="12.541376501725537"><ele>39.0</ele><time>2026-04-18T13:04:44Z</time></trkpt><trkpt lat="42.27542823001326" lon="12.541239267789594"><ele>39.0</ele><time>2026-04-18T13:04:45Z</time></trkpt><trkpt lat="42.27550343609647" lon="12.541108419340619"><ele>39.0</ele><time>2026-04-18T13:04:46Z</time></trkpt><trkpt lat="42.275576165924015" lon="12.540972886793428"><ele>39.0</ele><time>2026-04-18T13:04:47Z</time></trkpt><trkpt lat="42.27565501895754" lon="12.540802453958307"><ele>39.0</ele><time>2026-04-18T13:04:48Z</time></trkpt><trkpt lat="42.2757330420154" lon="12.540663155370037"><ele>39.0</ele><time>2026-04-18T13:04:49Z</time></trkpt><trkpt lat="42.27580763665918" lon="12.540499047926444"><ele>39.75</ele><time>2026-04-18T13:04:50Z</time></trkpt><trkpt lat="42.27588392720361" lon="12.540328784191056"><ele>40.5</ele><time>2026-04-18T13:04:51Z</time></trkpt><trkpt lat="42.27596839309203" lon="12.540166417427903"><ele>41.25</ele><time>2026-04-18T13:04:52Z</time></trkpt><trkpt lat="42.276061674385275" lon="12.539998867190342"><ele>42.0</ele><time>2026-04-18T13:04:53Z</time></trkpt><trkpt lat="42.27613383427387" lon="12.539831541002492"><ele>42.0</ele><time>2026-04-18T13:04:54Z</time></trkpt><trkpt lat="42.276229167287255" lon="12.539625484136355"><ele>42.0</ele><time>2026-04-18T13:04:55Z</time></trkpt><trkpt lat="42.276320062705864" lon="12.539432253041829"><ele>42.0</ele><time>2026-04-18T13:04:56Z</time></trkpt><trkpt lat="42.2764116760795" lon="12.539246607839326"><ele>40.666666666666664</ele><time>2026-04-18T13:04:57Z</time></trkpt><trkpt lat="42.276499691159245" lon="12.539081685572892"><ele>39.33333333333333</ele><time>2026-04-18T13:04:58Z</time></trkpt><trkpt lat="42.276585218978624" lon="12.538912051414039"><ele>38.0</ele><time>2026-04-18T13:04:59Z</time></trkpt><trkpt lat="42.27666883154526" lon="12.538727428517328"><ele>39.0</ele><time>2026-04-18T13:05:00Z</time></trkpt><trkpt lat="42.27675030518639" lon="12.538533133859676"><ele>40.0</ele><time>2026-04-18T13:05:01Z</time></trkpt><trkpt lat="42.27682967586151" lon="12.538336938475707"><ele>41.0</ele><time>2026-04-18T13:05:02Z</time></trkpt><trkpt lat="42.27690151759108" lon="12.538136499757476"><ele>41.0</ele><time>2026-04-18T13:05:03Z</time></trkpt><trkpt lat="42.27696365154858" lon="12.537931562916159"><ele>41.0</ele><time>2026-04-18T13:05:04Z</time></trkpt><trkpt lat="42.27704492605342" lon="12.537751288428716"><ele>41.0</ele><time>2026-04-18T13:05:05Z</time></trkpt><trkpt lat="42.27710491890985" lon="12.537580737729444"><ele>40.5</ele><time>2026-04-18T13:05:06Z</time></trkpt><trkpt lat="42.277181001661305" lon="12.537446646749508"><ele>40.0</ele><time>2026-04-18T13:05:07Z</time></trkpt><trkpt lat="42.27726505399595" lon="12.53734336904736"><ele>39.5</ele><time>2026-04-18T13:05:08Z</time></trkpt><trkpt lat="42.277342633437605" lon="12.537231135621626"><ele>39.0</ele><time>2026-04-18T13:05:09Z</time></trkpt><trkpt lat="42.277426385901514" lon="12.537111043211562"><ele>39.25</ele><time>2026-04-18T13:05:10Z</time></trkpt><trkpt lat="42.2775056523714" lon="12.536970691331193"><ele>39.5</ele><time>2026-04-18T13:05:11Z</time></trkpt><trkpt lat="42.27761244096079" lon="12.536866830474873"><ele>39.75</ele><time>2026-04-18T13:05:12Z</time></trkpt><trkpt lat="42.27772255498918" lon="12.536764870979148"><ele>40.0</ele><time>2026-04-18T13:05:13Z</time></trkpt><trkpt lat="42.277845553699514" lon="12.53664793515388"><ele>40.0</ele><time>2026-04-18T13:05:14Z</time></trkpt><trkpt lat="42.27798301701246" lon="12.536527960168794"><ele>40.0</ele><time>2026-04-18T13:05:15Z</time></trkpt><trkpt lat="42.27811924828367" lon="12.536406290348298"><ele>40.0</ele><time>2026-04-18T13:05:16Z</time></trkpt><trkpt lat="42.27825365079924" lon="12.536291572385927"><ele>39.0</ele><time>2026-04-18T13:05:17Z</time></trkpt><trkpt lat="42.278388438527" lon="12.536180182135285"><ele>38.0</ele><time>2026-04-18T13:05:18Z</time></trkpt><trkpt lat="42.27852138380475" lon="12.536062920023317"><ele>37.0</ele><time>2026-04-18T13:05:19Z</time></trkpt><trkpt lat="42.278655534965914" lon="12.535938764026358"><ele>37.0</ele><time>2026-04-18T13:05:20Z</time></trkpt><trkpt lat="42.27880121553569" lon="12.535823064571034"><ele>37.0</ele><time>2026-04-18T13:05:21Z</time></trkpt><trkpt lat="42.2789626588418" lon="12.53575084955521"><ele>37.0</ele><time>2026-04-18T13:05:22Z</time></trkpt><trkpt lat="42.27912065987703" lon="12.535653039499236"><ele>36.66666666666667</ele><time>2026-04-18T13:05:23Z</time></trkpt><trkpt lat="42.27928565565" lon="12.535591569727634"><ele>36.333333333333336</ele><time>2026-04-18T13:05:24Z</time></trkpt><trkpt lat="42.27944203605713" lon="12.535527119497745"><ele>36.0</ele><time>2026-04-18T13:05:25Z</time></trkpt><trkpt lat="42.279588751641455" lon="12.535457561769885"><ele>62.0</ele><time>2026-04-18T13:05:26Z</time></trkpt><trkpt lat="42.276001309449036" lon="12.529358850578197"><ele>62.0</ele><time>2026-04-18T13:06:27Z</time></trkpt><trkpt lat="42.275859444054625" lon="12.529290907967646"><ele>62.0</ele><time>2026-04-18T13:06:28Z</time></trkpt><trkpt lat="42.27571740787682" lon="12.529198857337782"><ele>62.0</ele><time>2026-04-18T13:06:29Z</time></trkpt><trkpt lat="42.27557175556586" lon="12.529114393235774"><ele>63.333333333333336</ele><time>2026-04-18T13:06:30Z</time></trkpt><trkpt lat="42.27542255075179" lon="12.529024297515997"><ele>64.66666666666667</ele><time>2026-04-18T13:06:31Z</time></trkpt><trkpt lat="42.275261656281515" lon="12.5289261361651"><ele>66.0</ele><time>2026-04-18T13:06:32Z</time></trkpt><trkpt lat="42.27509539641146" lon="12.528831708927024"><ele>66.0</ele><time>2026-04-18T13:06:33Z</time></trkpt><trkpt lat="42.27492397621729" lon="12.52873721390774"><ele>66.0</ele><time>2026-04-18T13:06:34Z</time></trkpt><trkpt lat="42.27475127211383" lon="12.528638961253911"><ele>66.0</ele><time>2026-04-18T13:06:35Z</time></trkpt><trkpt lat="42.27459060591306" lon="12.52854726601395"><ele>67.33333333333333</ele><time>2026-04-18T13:06:36Z</time></trkpt><trkpt lat="42.274427181095696" lon="12.528470756473968"><ele>68.66666666666666</ele><time>2026-04-18T13:06:37Z</time></trkpt><trkpt lat="42.274258322808244" lon="12.528415668012753"><ele>70.0</ele><time>2026-04-18T13:06:38Z</time></trkpt><trkpt lat="42.2740764324428" lon="12.528381436526287"><ele>72.66666666666666</ele><time>2026-04-18T13:06:39Z</time></trkpt><trkpt lat="42.273891522231644" lon="12.528368590908018"><ele>75.33333333333333</ele><time>2026-04-18T13:06:40Z</time></trkpt><trkpt lat="42.273718836761795" lon="12.528363734091432"><ele>78.0</ele><time>2026-04-18T13:06:41Z</time></trkpt><trkpt lat="42.27356458906129" lon="12.528347116709195"><ele>78.0</ele><time>2026-04-18T13:06:42Z</time></trkpt><trkpt lat="42.273417697282234" lon="12.528314514815012"><ele>78.0</ele><time>2026-04-18T13:06:43Z</time></trkpt><trkpt lat="42.273271697596925" lon="12.528249515623356"><ele>78.0</ele><time>2026-04-18T13:06:44Z</time></trkpt><trkpt lat="42.2731338621167" lon="12.528133322123319"><ele>80.66666666666667</ele><time>2026-04-18T13:06:45Z</time></trkpt><trkpt lat="42.273020959999926" lon="12.52798396336373"><ele>83.33333333333334</ele><time>2026-04-18T13:06:46Z</time></trkpt><trkpt lat="42.27292264570939" lon="12.527819543609038"><ele>86.0</ele><time>2026-04-18T13:06:47Z</time></trkpt><trkpt lat="42.272833547130936" lon="12.527634792318258"><ele>87.33333333333334</ele><time>2026-04-18T13:06:48Z</time></trkpt><trkpt lat="42.27274368913485" lon="12.52743264591898"><ele>88.66666666666667</ele><time>2026-04-18T13:06:49Z</time></trkpt><trkpt lat="42.272641550548926" lon="12.52723387609656"><ele>90.0</ele><time>2026-04-18T13:06:50Z</time></trkpt><trkpt lat="42.27252934665902" lon="12.527039928406504"><ele>91.0</ele><time>2026-04-18T13:06:51Z</time></trkpt><trkpt lat="42.27243101833757" lon="12.526857640348677"><ele>92.0</ele><time>2026-04-18T13:06:52Z</time></trkpt><trkpt lat="42.2723475451478" lon="12.52667411141375"><ele>93.0</ele><time>2026-04-18T13:06:53Z</time></trkpt><trkpt lat="42.27227763395051" lon="12.526491156941155"><ele>93.0</ele><time>2026-04-18T13:06:54Z</time></trkpt><trkpt lat="42.272222104162736" lon="12.52631458030275"><ele>93.0</ele><time>2026-04-18T13:06:55Z</time></trkpt><trkpt lat="42.272189929583895" lon="12.526131525298059"><ele>93.0</ele><time>2026-04-18T13:06:56Z</time></trkpt><trkpt lat="42.27217079937253" lon="12.525940449776892"><ele>93.0</ele><time>2026-04-18T13:06:57Z</time></trkpt><trkpt lat="42.27217104347057" lon="12.52575454063457"><ele>93.5</ele><time>2026-04-18T13:06:58Z</time></trkpt><trkpt lat="42.272184157407764" lon="12.525564933162713"><ele>94.0</ele><time>2026-04-18T13:06:59Z</time></trkpt><trkpt lat="42.27220548576822" lon="12.525371209356662"><ele>94.5</ele><time>2026-04-18T13:07:00Z</time></trkpt><trkpt lat="42.272225478760696" lon="12.52516798956011"><ele>95.0</ele><time>2026-04-18T13:07:01Z</time></trkpt><trkpt lat="42.272251254326235" lon="12.524958625393062"><ele>101.0</ele><time>2026-04-18T13:07:02Z</time></trkpt><trkpt lat="42.2722900587774" lon="12.524746646258112"><ele>107.0</ele><time>2026-04-18T13:07:03Z</time></trkpt><trkpt lat="42.27234125576528" lon="12.524538751009112"><ele>113.0</ele><time>2026-04-18T13:07:04Z</time></trkpt><trkpt lat="42.27240245399112" lon="12.524336804434466"><ele>115.33333333333333</ele><time>2026-04-18T13:07:05Z</time></trkpt><trkpt lat="42.27246722573266" lon="12.524140994686036"><ele>117.66666666666666</ele><time>2026-04-18T13:07:06Z</time></trkpt><trkpt lat="42.27253123440563" lon="12.523950728637642"><ele>120.0</ele><time>2026-04-18T13:07:07Z</time></trkpt><trkpt lat="42.272585516313704" lon="12.523762764552322"><ele>120.75</ele><time>2026-04-18T13:07:08Z</time></trkpt><trkpt lat="42.27263483040495" lon="12.523583965031277"><ele>121.5</ele><time>2026-04-18T13:07:09Z</time></trkpt><trkpt lat="42.272676762896594" lon="12.523426885288439"><ele>122.25</ele><time>2026-04-18T13:07:10Z</time></trkpt><trkpt lat="42.272712967394234" lon="12.523280718461521"><ele>123.0</ele><time>2026-04-18T13:07:11Z</time></trkpt><trkpt lat="42.272740506718115" lon="12.52312325427335"><ele>123.0</ele><time>2026-04-18T13:07:12Z</time></trkpt><trkpt lat="42.272750744385164" lon="12.522958412245035"><ele>123.0</ele><time>2026-04-18T13:07:13Z</time></trkpt><trkpt lat="42.272792035363295" lon="12.52281065202952"><ele>123.0</ele><time>2026-04-18T13:07:14Z</time></trkpt><trkpt lat="42.2728337643035" lon="12.52267430129413"><ele>123.0</ele><time>2026-04-18T13:07:15Z</time></trkpt><trkpt lat="42.27289183903544" lon="12.522554602390084"><ele>123.5</ele><time>2026-04-18T13:07:16Z</time></trkpt><trkpt lat="42.27299073479053" lon="12.522508187903199"><ele>124.0</ele><time>2026-04-18T13:07:17Z</time></trkpt><trkpt lat="42.273111759269824" lon="12.522437319803222"><ele>124.5</ele><time>2026-04-18T13:07:18Z</time></trkpt><trkpt lat="42.27323035679692" lon="12.522365273133987"><ele>125.0</ele><time>2026-04-18T13:07:19Z</time></trkpt><trkpt lat="42.273348810686315" lon="12.522263371515217"><ele>130.0</ele><time>2026-04-18T13:07:20Z</time></trkpt><trkpt lat="42.27345062897216" lon="12.5221273178932"><ele>135.0</ele><time>2026-04-18T13:07:21Z</time></trkpt><trkpt lat="42.2735456994616" lon="12.52196855244945"><ele>140.0</ele><time>2026-04-18T13:07:22Z</time></trkpt><trkpt lat="42.27362479708417" lon="12.521814733450844"><ele>145.0</ele><time>2026-04-18T13:07:23Z</time></trkpt><trkpt lat="42.2736888673893" lon="12.521656212876271"><ele>145.0</ele><time>2026-04-18T13:07:24Z</time></trkpt><trkpt lat="42.27372248257992" lon="12.521481178626454"><ele>145.0</ele><time>2026-04-18T13:07:25Z</time></trkpt><trkpt lat="42.273742103826024" lon="12.521291937666417"><ele>145.0</ele><time>2026-04-18T13:07:26Z</time></trkpt><trkpt lat="42.26798134044991" lon="12.514655991739502"><ele>157.66666666666669</ele><time>2026-04-18T13:08:27Z</time></trkpt><trkpt lat="42.26781598322181" lon="12.514604713832263"><ele>170.33333333333334</ele><time>2026-04-18T13:08:28Z</time></trkpt><trkpt lat="42.26764671057527" lon="12.514556334726588"><ele>183.0</ele><time>2026-04-18T13:08:29Z</time></trkpt><trkpt lat="42.267486132234716" lon="12.51450826946503"><ele>183.33333333333334</ele><time>2026-04-18T13:08:30Z</time></trkpt><trkpt lat="42.26732664444664" lon="12.514459246818719"><ele>183.66666666666669</ele><time>2026-04-18T13:08:31Z</time></trkpt><trkpt lat="42.267168751007134" lon="12.514409241287336"><ele>184.0</ele><time>2026-04-18T13:08:32Z</time></trkpt><trkpt lat="42.26701339761355" lon="12.514357653327078"><ele>184.33333333333334</ele><time>2026-04-18T13:08:33Z</time></trkpt><trkpt lat="42.26685938632642" lon="12.514298009336242"><ele>184.66666666666666</ele><time>2026-04-18T13:08:34Z</time></trkpt><trkpt lat="42.26670693009597" lon="12.514233967726675"><ele>185.0</ele><time>2026-04-18T13:08:35Z</time></trkpt><trkpt lat="42.26654799301305" lon="12.514170614943392"><ele>185.66666666666666</ele><time>2026-04-18T13:08:36Z</time></trkpt><trkpt lat="42.266391028731285" lon="12.514094957953386"><ele>186.33333333333334</ele><time>2026-04-18T13:08:37Z</time></trkpt><trkpt lat="42.26624053543128" lon="12.514008824481317"><ele>187.0</ele><time>2026-04-18T13:08:38Z</time></trkpt><trkpt lat="42.266096877155235" lon="12.513920802553692"><ele>187.0</ele><time>2026-04-18T13:08:39Z</time></trkpt><trkpt lat="42.265946481042135" lon="12.513850443857903"><ele>187.0</ele><time>2026-04-18T13:08:40Z</time></trkpt><trkpt lat="42.265790993689855" lon="12.513788460185761"><ele>187.0</ele><time>2026-04-18T13:08:41Z</time></trkpt><trkpt lat="42.26562893975225" lon="12.513728036234088"><ele>184.66666666666669</ele><time>2026-04-18T13:08:42Z</time></trkpt><trkpt lat="42.2654637285276" lon="12.513675604226673"><ele>182.33333333333334</ele><time>2026-04-18T13:08:43Z</time></trkpt><trkpt lat="42.26529702737308" lon="12.513619756853362"><ele>180.0</ele><time>2026-04-18T13:08:44Z</time></trkpt><trkpt lat="42.26513468033713" lon="12.51356132764502"><ele>180.0</ele><time>2026-04-18T13:08:45Z</time></trkpt><trkpt lat="42.26496703117401" lon="12.513502211069488"><ele>180.0</ele><time>2026-04-18T13:08:46Z</time></trkpt><trkpt lat="42.26480138211678" lon="12.51344489816632"><ele>180.0</ele><time>2026-04-18T13:08:47Z</time></trkpt><trkpt lat="42.26463857170329" lon="12.51338833310684"><ele>180.33333333333334</ele><time>2026-04-18T13:08:48Z</time></trkpt><trkpt lat="42.26447784258162" lon="12.513331000672576"><ele>180.66666666666669</ele><time>2026-04-18T13:08:49Z</time></trkpt><trkpt lat="42.264319202268496" lon="12.513270273614271"><ele>181.0</ele><time>2026-04-18T13:08:50Z</time></trkpt><trkpt lat="42.264159050619966" lon="12.513211702889128"><ele>181.0</ele><time>2026-04-18T13:08:51Z</time></trkpt><trkpt lat="42.26400251413521" lon="12.513158820591968"><ele>181.0</ele><time>2026-04-18T13:08:52Z</time></trkpt><trkpt lat="42.26385088633189" lon="12.513105047088798"><ele>181.0</ele><time>2026-04-18T13:08:53Z</time></trkpt><trkpt lat="42.263699560054285" lon="12.513047085505715"><ele>181.33333333333334</ele><time>2026-04-18T13:08:54Z</time></trkpt><trkpt lat="42.2635386424164" lon="12.512996045240746"><ele>181.66666666666666</ele><time>2026-04-18T13:08:55Z</time></trkpt><trkpt lat="42.26337648953722" lon="12.512971111013654"><ele>182.0</ele><time>2026-04-18T13:08:56Z</time></trkpt><trkpt lat="42.26321641145352" lon="12.512984836322065"><ele>183.66666666666666</ele><time>2026-04-18T13:08:57Z</time></trkpt><trkpt lat="42.26305327295962" lon="12.513035481337546"><ele>185.33333333333334</ele><time>2026-04-18T13:08:58Z</time></trkpt><trkpt lat="42.262893507219516" lon="12.513111793565093"><ele>187.0</ele><time>2026-04-18T13:08:59Z</time></trkpt><trkpt lat="42.26272990299531" lon="12.513188688092617"><ele>187.0</ele><time>2026-04-18T13:09:00Z</time></trkpt><trkpt lat="42.26256464757473" lon="12.513249562794437"><ele>187.0</ele><time>2026-04-18T13:09:01Z</time></trkpt><trkpt lat="42.262397044639876" lon="12.513310843279553"><ele>187.0</ele><time>2026-04-18T13:09:02Z</time></trkpt><trkpt lat="42.26222682447704" lon="12.513369277199502"><ele>187.0</ele><time>2026-04-18T13:09:03Z</time></trkpt><trkpt lat="42.26205221363523" lon="12.513428631894586"><ele>187.0</ele><time>2026-04-18T13:09:04Z</time></trkpt><trkpt lat="42.26187503529958" lon="12.513493804541472"><ele>187.0</ele><time>2026-04-18T13:09:05Z</time></trkpt><trkpt lat="42.26169786645339" lon="12.513562066710785"><ele>187.0</ele><time>2026-04-18T13:09:06Z</time></trkpt><trkpt lat="42.26152768606721" lon="12.513620512856793"><ele>187.0</ele><time>2026-04-18T13:09:07Z</time></trkpt><trkpt lat="42.26136649195696" lon="12.513671352381458"><ele>187.0</ele><time>2026-04-18T13:09:08Z</time></trkpt><trkpt lat="42.26122390657415" lon="12.513724737937082"><ele>187.0</ele><time>2026-04-18T13:09:09Z</time></trkpt><trkpt lat="42.26108683859615" lon="12.513766108710046"><ele>187.0</ele><time>2026-04-18T13:09:10Z</time></trkpt><trkpt lat="42.26095715095323" lon="12.513786070888779"><ele>187.0</ele><time>2026-04-18T13:09:11Z</time></trkpt><trkpt lat="42.26082818574393" lon="12.513724300572196"><ele>187.0</ele><time>2026-04-18T13:09:12Z</time></trkpt><trkpt lat="42.26069526375963" lon="12.513635451583506"><ele>187.0</ele><time>2026-04-18T13:09:13Z</time></trkpt><trkpt lat="42.26061797624097" lon="12.513428270317851"><ele>187.0</ele><time>2026-04-18T13:09:14Z</time></trkpt><trkpt lat="42.26053549427059" lon="12.51324388839342"><ele>187.0</ele><time>2026-04-18T13:09:15Z</time></trkpt><trkpt lat="42.260447537446524" lon="12.513070237760962"><ele>187.66666666666669</ele><time>2026-04-18T13:09:16Z</time></trkpt><trkpt lat="42.26037450382896" lon="12.512887484380919"><ele>188.33333333333334</ele><time>2026-04-18T13:09:17Z</time></trkpt><trkpt lat="42.26029314693111" lon="12.512702725615686"><ele>189.0</ele><time>2026-04-18T13:09:18Z</time></trkpt><trkpt lat="42.26021021248923" lon="12.512515377475294"><ele>189.0</ele><time>2026-04-18T13:09:19Z</time></trkpt><trkpt lat="42.260126097107715" lon="12.512329211050785"><ele>189.0</ele><time>2026-04-18T13:09:20Z</time></trkpt><trkpt lat="42.26005481041483" lon="12.512132878160816"><ele>189.0</ele><time>2026-04-18T13:09:21Z</time></trkpt><trkpt lat="42.259970895519814" lon="12.511939790129274"><ele>189.33333333333334</ele><time>2026-04-18T13:09:22Z</time></trkpt><trkpt lat="42.25987453095945" lon="12.51176166784262"><ele>189.66666666666669</ele><time>2026-04-18T13:09:23Z</time></trkpt><trkpt lat="42.25979385591785" lon="12.511574765872595"><ele>190.0</ele><time>2026-04-18T13:09:24Z</time></trkpt><trkpt lat="42.25971471244513" lon="12.511390701223483"><ele>191.5</ele><time>2026-04-18T13:09:25Z</time></trkpt><trkpt lat="42.25963218155032" lon="12.511204845054744"><ele>193.0</ele><time>2026-04-18T13:09:26Z</time></trkpt><trkpt lat="42.25164190120388" lon="12.506718800672674"><ele>217.75</ele><time>2026-04-18T13:10:27Z</time></trkpt><trkpt lat="42.25152515639278" lon="12.506828906234789"><ele>242.5</ele><time>2026-04-18T13:10:28Z</time></trkpt><trkpt lat="42.25142330649369" lon="12.506961985387385"><ele>267.25</ele><time>2026-04-18T13:10:29Z</time></trkpt><trkpt lat="42.25134338281373" lon="12.507124713298209"><ele>292.0</ele><time>2026-04-18T13:10:30Z</time></trkpt><trkpt lat="42.251290920068385" lon="12.507303497398958"><ele>294.75</ele><time>2026-04-18T13:10:31Z</time></trkpt><trkpt lat="42.25121697129648" lon="12.50745933881792"><ele>297.5</ele><time>2026-04-18T13:10:32Z</time></trkpt><trkpt lat="42.25115694155763" lon="12.507594105324749"><ele>300.25</ele><time>2026-04-18T13:10:33Z</time></trkpt><trkpt lat="42.251075078167226" lon="12.50771828424429"><ele>303.0</ele><time>2026-04-18T13:10:34Z</time></trkpt><trkpt lat="42.25096770413722" lon="12.507822031643688"><ele>303.0</ele><time>2026-04-18T13:10:35Z</time></trkpt><trkpt lat="42.25083823443407" lon="12.507900410527268"><ele>303.0</ele><time>2026-04-18T13:10:36Z</time></trkpt><trkpt lat="42.250703900019666" lon="12.507981453716752"><ele>303.0</ele><time>2026-04-18T13:10:37Z</time></trkpt><trkpt lat="42.25055742885809" lon="12.508017223982444"><ele>303.0</ele><time>2026-04-18T13:10:38Z</time></trkpt><trkpt lat="42.25041961326895" lon="12.508073869923859"><ele>302.75</ele><time>2026-04-18T13:10:39Z</time></trkpt><trkpt lat="42.250279916682835" lon="12.508112805913699"><ele>302.5</ele><time>2026-04-18T13:10:40Z</time></trkpt><trkpt lat="42.25013774970926" lon="12.508104540866674"><ele>302.25</ele><time>2026-04-18T13:10:41Z</time></trkpt><trkpt lat="42.24999896914444" lon="12.508135493943001"><ele>302.0</ele><time>2026-04-18T13:10:42Z</time></trkpt><trkpt lat="42.24986814172773" lon="12.508164559107671"><ele>306.75</ele><time>2026-04-18T13:10:43Z</time></trkpt><trkpt lat="42.24975128602842" lon="12.508227784051583"><ele>311.5</ele><time>2026-04-18T13:10:44Z</time></trkpt><trkpt lat="42.24963453353267" lon="12.50833820044338"><ele>316.25</ele><time>2026-04-18T13:10:45Z</time></trkpt><trkpt lat="42.24952419902993" lon="12.50845442511693"><ele>321.0</ele><time>2026-04-18T13:10:46Z</time></trkpt><trkpt lat="42.24941236760615" lon="12.508569910107994"><ele>321.0</ele><time>2026-04-18T13:10:47Z</time></trkpt><trkpt lat="42.24928724020925" lon="12.508672841544863"><ele>321.0</ele><time>2026-04-18T13:10:48Z</time></trkpt><trkpt lat="42.249168098335424" lon="12.508809187273998"><ele>321.0</ele><time>2026-04-18T13:10:49Z</time></trkpt><trkpt lat="42.249048013245684" lon="12.508941997210115"><ele>320.25</ele><time>2026-04-18T13:10:50Z</time></trkpt><trkpt lat="42.24893195809986" lon="12.509061141411653"><ele>319.5</ele><time>2026-04-18T13:10:51Z</time></trkpt><trkpt lat="42.248821113260114" lon="12.50914138991729"><ele>318.75</ele><time>2026-04-18T13:10:52Z</time></trkpt><trkpt lat="42.248705425904674" lon="12.509193485549638"><ele>318.0</ele><time>2026-04-18T13:10:53Z</time></trkpt><trkpt lat="42.24858528688002" lon="12.509239930770352"><ele>318.0</ele><time>2026-04-18T13:10:54Z</time></trkpt><trkpt lat="42.248468532913456" lon="12.509300754653488"><ele>318.0</ele><time>2026-04-18T13:10:55Z</time></trkpt><trkpt lat="42.248353947341464" lon="12.509357180315883"><ele>318.0</ele><time>2026-04-18T13:10:56Z</time></trkpt><trkpt lat="42.24824490127056" lon="12.509413198458375"><ele>318.0</ele><time>2026-04-18T13:10:57Z</time></trkpt><trkpt lat="42.24814019689468" lon="12.509467864070352"><ele>316.75</ele><time>2026-04-18T13:10:58Z</time></trkpt><trkpt lat="42.24803212611583" lon="12.509540631324418"><ele>315.5</ele><time>2026-04-18T13:10:59Z</time></trkpt><trkpt lat="42.24793317692697" lon="12.509625449816243"><ele>314.25</ele><time>2026-04-18T13:11:00Z</time></trkpt><trkpt lat="42.24782309428773" lon="12.509747740261313"><ele>313.0</ele><time>2026-04-18T13:11:01Z</time></trkpt><trkpt lat="42.24769914578463" lon="12.509882455275758"><ele>313.0</ele><time>2026-04-18T13:11:02Z</time></trkpt><trkpt lat="42.24757220148225" lon="12.510006150346154"><ele>313.0</ele><time>2026-04-18T13:11:03Z</time></trkpt><trkpt lat="42.24743578006866" lon="12.510092984814577"><ele>313.0</ele><time>2026-04-18T13:11:04Z</time></trkpt><trkpt lat="42.247285395854746" lon="12.510159368451177"><ele>312.66666666666663</ele><time>2026-04-18T13:11:05Z</time></trkpt><trkpt lat="42.24712999200989" lon="12.510227530099776"><ele>312.3333333333333</ele><time>2026-04-18T13:11:06Z</time></trkpt><trkpt lat="42.246971930416514" lon="12.510310241232498"><ele>312.0</ele><time>2026-04-18T13:11:07Z</time></trkpt><trkpt lat="42.24683149329133" lon="12.510439460175311"><ele>312.0</ele><time>2026-04-18T13:11:08Z</time></trkpt><trkpt lat="42.24669092170902" lon="12.510556241088658"><ele>312.0</ele><time>2026-04-18T13:11:09Z</time></trkpt><trkpt lat="42.24654405151593" lon="12.510656788875947"><ele>312.0</ele><time>2026-04-18T13:11:10Z</time></trkpt><trkpt lat="42.24640101668307" lon="12.510753598790247"><ele>316.3333333333333</ele><time>2026-04-18T13:11:11Z</time></trkpt><trkpt lat="42.2462455336871" lon="12.510827490756691"><ele>320.66666666666663</ele><time>2026-04-18T13:11:12Z</time></trkpt><trkpt lat="42.24608607583961" lon="12.51088425216125"><ele>325.0</ele><time>2026-04-18T13:11:13Z</time></trkpt><trkpt lat="42.245922199167836" lon="12.510925711567332"><ele>325.0</ele><time>2026-04-18T13:11:14Z</time></trkpt><trkpt lat="42.24575549176067" lon="12.510956749116403"><ele>325.0</ele><time>2026-04-18T13:11:15Z</time></trkpt><trkpt lat="42.24558526902529" lon="12.510981545057906"><ele>325.0</ele><time>2026-04-18T13:11:16Z</time></trkpt><trkpt lat="42.245438949284065" lon="12.511033669040206"><ele>326.66666666666663</ele><time>2026-04-18T13:11:17Z</time></trkpt><trkpt lat="42.24530742078072" lon="12.511105032556182"><ele>328.3333333333333</ele><time>2026-04-18T13:11:18Z</time></trkpt><trkpt lat="42.245198808806876" lon="12.511240452861239"><ele>330.0</ele><time>2026-04-18T13:11:19Z</time></trkpt><trkpt lat="42.24511963824426" lon="12.511449939126019"><ele>330.0</ele><time>2026-04-18T13:11:20Z</time></trkpt><trkpt lat="42.24503186850339" lon="12.511641792585042"><ele>330.0</ele><time>2026-04-18T13:11:21Z</time></trkpt><trkpt lat="42.244937103157355" lon="12.511815284325758"><ele>330.0</ele><time>2026-04-18T13:11:22Z</time></trkpt><trkpt lat="42.24483358135993" lon="12.511975342672432"><ele>338.0</ele><time>2026-04-18T13:11:23Z</time></trkpt><trkpt lat="42.244726175086086" lon="12.512131491478009"><ele>346.0</ele><time>2026-04-18T13:11:24Z</time></trkpt><trkpt lat="42.24461713731032" lon="12.512290107772024"><ele>354.0</ele><time>2026-04-18T13:11:25Z</time></trkpt><trkpt lat="42.2445074015606" lon="12.51245082005392"><ele>412.0</ele><time>2026-04-18T13:11:26Z</time></trkpt><trkpt lat="42.23787087784343" lon="12.517690887526447"><ele>412.0</ele><time>2026-04-18T13:12:27Z</time></trkpt><trkpt lat="42.23776330569009" lon="12.517699600686319"><ele>412.0</ele><time>2026-04-18T13:12:28Z</time></trkpt><trkpt lat="42.23763979947703" lon="12.517710663212892"><ele>412.0</ele><time>2026-04-18T13:12:29Z</time></trkpt><trkpt lat="42.237498888929856" lon="12.51771834986426"><ele>412.0</ele><time>2026-04-18T13:12:30Z</time></trkpt><trkpt lat="42.2373728065699" lon="12.517713857311332"><ele>412.5</ele><time>2026-04-18T13:12:31Z</time></trkpt><trkpt lat="42.23724489854624" lon="12.51771746536944"><ele>413.0</ele><time>2026-04-18T13:12:32Z</time></trkpt><trkpt lat="42.237117800773085" lon="12.517725865254139"><ele>413.5</ele><time>2026-04-18T13:12:33Z</time></trkpt><trkpt lat="42.23698908680797" lon="12.517738627121105"><ele>414.0</ele><time>2026-04-18T13:12:34Z</time></trkpt><trkpt lat="42.236856350687454" lon="12.517750584142703"><ele>414.0</ele><time>2026-04-18T13:12:35Z</time></trkpt><trkpt lat="42.23673511757379" lon="12.51777057830235"><ele>414.0</ele><time>2026-04-18T13:12:36Z</time></trkpt><trkpt lat="42.23662054108907" lon="12.517789418440207"><ele>414.0</ele><time>2026-04-18T13:12:37Z</time></trkpt><trkpt lat="42.23651431410771" lon="12.517803283161662"><ele>414.0</ele><time>2026-04-18T13:12:38Z</time></trkpt><trkpt lat="42.23643464687204" lon="12.51781377915366"><ele>414.0</ele><time>2026-04-18T13:12:39Z</time></trkpt><trkpt lat="42.236361916151886" lon="12.517853613097321"><ele>412.75</ele><time>2026-04-18T13:12:40Z</time></trkpt><trkpt lat="42.23627735098811" lon="12.517897159706614"><ele>411.5</ele><time>2026-04-18T13:12:41Z</time></trkpt><trkpt lat="42.23617860403543" lon="12.517975120951895"><ele>410.25</ele><time>2026-04-18T13:12:42Z</time></trkpt><trkpt lat="42.23606117819279" lon="12.518031326863694"><ele>409.0</ele><time>2026-04-18T13:12:43Z</time></trkpt><trkpt lat="42.23595153504943" lon="12.518145821290931"><ele>409.0</ele><time>2026-04-18T13:12:44Z</time></trkpt><trkpt lat="42.23584150110367" lon="12.518329695716295"><ele>409.0</ele><time>2026-04-18T13:12:45Z</time></trkpt><trkpt lat="42.235742833567855" lon="12.51846810387323"><ele>409.0</ele><time>2026-04-18T13:12:46Z</time></trkpt><trkpt lat="42.23565102858218" lon="12.51858311051533"><ele>409.0</ele><time>2026-04-18T13:12:47Z</time></trkpt><trkpt lat="42.23557761461348" lon="12.518677932858854"><ele>407.6</ele><time>2026-04-18T13:12:48Z</time></trkpt><trkpt lat="42.23552008711527" lon="12.51874922411058"><ele>406.2</ele><time>2026-04-18T13:12:49Z</time></trkpt><trkpt lat="42.235439125440195" lon="12.518844026682807"><ele>404.8</ele><time>2026-04-18T13:12:51Z</time></trkpt><trkpt lat="42.235383392077196" lon="12.518785809393245"><ele>403.40000000000003</ele><time>2026-04-18T13:12:54Z</time></trkpt><trkpt lat="42.23546219711708" lon="12.518673627616982"><ele>402.0</ele><time>2026-04-18T13:12:57Z</time></trkpt><trkpt lat="42.23551677734789" lon="12.518581435734475"><ele>402.0</ele><time>2026-04-18T13:12:58Z</time></trkpt><trkpt lat="42.2355863359212" lon="12.51852076650643"><ele>402.0</ele><time>2026-04-18T13:12:59Z</time></trkpt><trkpt lat="42.23564185034687" lon="12.518450329957412"><ele>402.0</ele><time>2026-04-18T13:13:00Z</time></trkpt><trkpt lat="42.23568816746413" lon="12.518381547596158"><ele>402.0</ele><time>2026-04-18T13:13:01Z</time></trkpt><trkpt lat="42.23571619955178" lon="12.51829136172003"><ele>402.0</ele><time>2026-04-18T13:13:02Z</time></trkpt><trkpt lat="42.235746562405375" lon="12.518215620109325"><ele>402.0</ele><time>2026-04-18T13:13:03Z</time></trkpt><trkpt lat="42.235767677989884" lon="12.51812405700266"><ele>402.0</ele><time>2026-04-18T13:13:04Z</time></trkpt><trkpt lat="42.23578517881079" lon="12.518017584374517"><ele>402.20000000000005</ele><time>2026-04-18T13:13:05Z</time></trkpt><trkpt lat="42.23580614579849" lon="12.517904369288756"><ele>402.4</ele><time>2026-04-18T13:13:06Z</time></trkpt><trkpt lat="42.23585150793963" lon="12.517795040988284"><ele>402.6</ele><time>2026-04-18T13:13:07Z</time></trkpt><trkpt lat="42.23589330397181" lon="12.517680467152136"><ele>402.79999999999995</ele><time>2026-04-18T13:13:08Z</time></trkpt><trkpt lat="42.23595129460859" lon="12.517561745816813"><ele>403.0</ele><time>2026-04-18T13:13:09Z</time></trkpt><trkpt lat="42.23601420063965" lon="12.517433575186576"><ele>403.0</ele><time>2026-04-18T13:13:10Z</time></trkpt><trkpt lat="42.2360647762735" lon="12.51731133183767"><ele>403.0</ele><time>2026-04-18T13:13:11Z</time></trkpt><trkpt lat="42.236114512278526" lon="12.51720386995993"><ele>403.0</ele><time>2026-04-18T13:13:12Z</time></trkpt><trkpt lat="42.23616289754146" lon="12.517081891632515"><ele>403.0</ele><time>2026-04-18T13:13:13Z</time></trkpt><trkpt lat="42.236198188593384" lon="12.516951829838996"><ele>403.0</ele><time>2026-04-18T13:13:14Z</time></trkpt><trkpt lat="42.2362185108678" lon="12.516834207404953"><ele>400.0</ele><time>2026-04-18T13:13:15Z</time></trkpt><trkpt lat="42.23624064663864" lon="12.516689404574079"><ele>397.0</ele><time>2026-04-18T13:13:16Z</time></trkpt><trkpt lat="42.23625145954408" lon="12.516544788508153"><ele>394.0</ele><time>2026-04-18T13:13:17Z</time></trkpt><trkpt lat="42.236251829430486" lon="12.516392453238817"><ele>391.0</ele><time>2026-04-18T13:13:18Z</time></trkpt><trkpt lat="42.2362442996764" lon="12.516243025561277"><ele>388.0</ele><time>2026-04-18T13:13:19Z</time></trkpt><trkpt lat="42.23624124708414" lon="12.516095726487942"><ele>386.0</ele><time>2026-04-18T13:13:20Z</time></trkpt><trkpt lat="42.23623965525814" lon="12.515948318190597"><ele>384.0</ele><time>2026-04-18T13:13:21Z</time></trkpt><trkpt lat="42.23623654906123" lon="12.515803285903988"><ele>382.0</ele><time>2026-04-18T13:13:22Z</time></trkpt><trkpt lat="42.23623290926218" lon="12.515660433651183"><ele>380.0</ele><time>2026-04-18T13:13:23Z</time></trkpt><trkpt lat="42.23622648147366" lon="12.51551654796971"><ele>378.0</ele><time>2026-04-18T13:13:24Z</time></trkpt><trkpt lat="42.2362159086427" lon="12.515358787693856"><ele>375.5</ele><time>2026-04-18T13:13:25Z</time></trkpt><trkpt lat="42.236207679915154" lon="12.515185671909089"><ele>373.0</ele><time>2026-04-18T13:13:26Z</time></trkpt><trkpt lat="42.2330918952135" lon="12.512126747367507"><ele>357.59999999999997</ele><time>2026-04-18T13:14:27Z</time></trkpt><trkpt lat="42.2330665881704" lon="12.51223224507265"><ele>342.2</ele><time>2026-04-18T13:14:29Z</time></trkpt><trkpt lat="42.233005509977765" lon="12.512357769519777"><ele>326.8</ele><time>2026-04-18T13:14:31Z</time></trkpt><trkpt lat="42.232959781877575" lon="12.512469953351083"><ele>311.4</ele><time>2026-04-18T13:14:32Z</time></trkpt><trkpt lat="42.232916065950356" lon="12.51260661100378"><ele>296.0</ele><time>2026-04-18T13:14:33Z</time></trkpt><trkpt lat="42.232843881703204" lon="12.512741390740999"><ele>296.0</ele><time>2026-04-18T13:14:34Z</time></trkpt><trkpt lat="42.23279013446944" lon="12.512900518682143"><ele>296.0</ele><time>2026-04-18T13:14:35Z</time></trkpt><trkpt lat="42.23272210928068" lon="12.51304977167736"><ele>296.0</ele><time>2026-04-18T13:14:36Z</time></trkpt><trkpt lat="42.23265149359102" lon="12.513171962564819"><ele>296.0</ele><time>2026-04-18T13:14:37Z</time></trkpt><trkpt lat="42.23256741027395" lon="12.513253830079837"><ele>296.40000000000003</ele><time>2026-04-18T13:14:38Z</time></trkpt><trkpt lat="42.2324684590183" lon="12.513303647795581"><ele>296.8</ele><time>2026-04-18T13:14:39Z</time></trkpt><trkpt lat="42.23236476786315" lon="12.513353354074432"><ele>297.20000000000005</ele><time>2026-04-18T13:14:40Z</time></trkpt><trkpt lat="42.23225134531159" lon="12.513316594107385"><ele>297.6</ele><time>2026-04-18T13:14:41Z</time></trkpt><trkpt lat="42.232140530492536" lon="12.513271772776385"><ele>298.0</ele><time>2026-04-18T13:14:42Z</time></trkpt><trkpt lat="42.23202580429353" lon="12.51321321387762"><ele>296.25</ele><time>2026-04-18T13:14:43Z</time></trkpt><trkpt lat="42.23189700349125" lon="12.513171393654076"><ele>294.5</ele><time>2026-04-18T13:14:44Z</time></trkpt><trkpt lat="42.2317547625912" lon="12.513147511018293"><ele>292.75</ele><time>2026-04-18T13:14:45Z</time></trkpt><trkpt lat="42.23160539628529" lon="12.51317640980992"><ele>291.0</ele><time>2026-04-18T13:14:46Z</time></trkpt><trkpt lat="42.23145644248343" lon="12.513234012613747"><ele>288.3333333333333</ele><time>2026-04-18T13:14:47Z</time></trkpt><trkpt lat="42.23131184641357" lon="12.513287374202902"><ele>285.66666666666663</ele><time>2026-04-18T13:14:48Z</time></trkpt><trkpt lat="42.23115818700654" lon="12.513334429106463"><ele>283.0</ele><time>2026-04-18T13:14:49Z</time></trkpt><trkpt lat="42.23100429589993" lon="12.513388525057382"><ele>283.0</ele><time>2026-04-18T13:14:50Z</time></trkpt><trkpt lat="42.23086488006484" lon="12.5134164237962"><ele>283.0</ele><time>2026-04-18T13:14:51Z</time></trkpt><trkpt lat="42.23073313408512" lon="12.51344261960177"><ele>283.0</ele><time>2026-04-18T13:14:52Z</time></trkpt><trkpt lat="42.23059436934683" lon="12.513464726581715"><ele>283.0</ele><time>2026-04-18T13:14:53Z</time></trkpt><trkpt lat="42.230452717518254" lon="12.51344805325622"><ele>281.0</ele><time>2026-04-18T13:14:54Z</time></trkpt><trkpt lat="42.23031121468494" lon="12.513404080440717"><ele>279.0</ele><time>2026-04-18T13:14:55Z</time></trkpt><trkpt lat="42.2301657758301" lon="12.513351615701245"><ele>277.0</ele><time>2026-04-18T13:14:56Z</time></trkpt><trkpt lat="42.23001279831133" lon="12.513327444148997"><ele>277.0</ele><time>2026-04-18T13:14:57Z</time></trkpt><trkpt lat="42.22986381026863" lon="12.513325917716996"><ele>277.0</ele><time>2026-04-18T13:14:58Z</time></trkpt><trkpt lat="42.22970858956337" lon="12.513333978864"><ele>277.0</ele><time>2026-04-18T13:14:59Z</time></trkpt><trkpt lat="42.22954182293814" lon="12.51334394166429"><ele>274.0</ele><time>2026-04-18T13:15:00Z</time></trkpt><trkpt lat="42.22937594033423" lon="12.513379485232946"><ele>271.0</ele><time>2026-04-18T13:15:01Z</time></trkpt><trkpt lat="42.22920199209885" lon="12.513415811338065"><ele>268.0</ele><time>2026-04-18T13:15:02Z</time></trkpt><trkpt lat="42.229022737902355" lon="12.513472263603935"><ele>265.0</ele><time>2026-04-18T13:15:03Z</time></trkpt><trkpt lat="42.228840267149984" lon="12.513518382650735"><ele>262.0</ele><time>2026-04-18T13:15:04Z</time></trkpt><trkpt lat="42.22864632205968" lon="12.513572495039103"><ele>259.0</ele><time>2026-04-18T13:15:05Z</time></trkpt><trkpt lat="42.22845015623679" lon="12.513621241830728"><ele>259.0</ele><time>2026-04-18T13:15:06Z</time></trkpt><trkpt lat="42.22826176167259" lon="12.513679112731689"><ele>259.0</ele><time>2026-04-18T13:15:07Z</time></trkpt><trkpt lat="42.228077274072184" lon="12.513729099119628"><ele>259.0</ele><time>2026-04-18T13:15:08Z</time></trkpt><trkpt lat="42.227890333810784" lon="12.51377813572446"><ele>257.3333333333333</ele><time>2026-04-18T13:15:09Z</time></trkpt><trkpt lat="42.227704766923615" lon="12.513833505772151"><ele>255.66666666666669</ele><time>2026-04-18T13:15:10Z</time></trkpt><trkpt lat="42.22752450924127" lon="12.513881573155109"><ele>254.0</ele><time>2026-04-18T13:15:11Z</time></trkpt><trkpt lat="42.22735040463816" lon="12.513937709087255"><ele>253.66666666666669</ele><time>2026-04-18T13:15:12Z</time></trkpt><trkpt lat="42.22716702712334" lon="12.513986712988324"><ele>253.33333333333331</ele><time>2026-04-18T13:15:13Z</time></trkpt><trkpt lat="42.22699152778168" lon="12.514028808857875"><ele>253.0</ele><time>2026-04-18T13:15:14Z</time></trkpt><trkpt lat="42.22683060391724" lon="12.514056685789898"><ele>253.0</ele><time>2026-04-18T13:15:15Z</time></trkpt><trkpt lat="42.226674171398926" lon="12.514053691592588"><ele>253.0</ele><time>2026-04-18T13:15:16Z</time></trkpt><trkpt lat="42.226530304095846" lon="12.513990057600333"><ele>253.0</ele><time>2026-04-18T13:15:17Z</time></trkpt><trkpt lat="42.22639914280178" lon="12.513874570166085"><ele>253.33333333333331</ele><time>2026-04-18T13:15:18Z</time></trkpt><trkpt lat="42.226272297004314" lon="12.513740945155938"><ele>253.66666666666669</ele><time>2026-04-18T13:15:19Z</time></trkpt><trkpt lat="42.22613448683012" lon="12.513583820290748"><ele>254.0</ele><time>2026-04-18T13:15:20Z</time></trkpt><trkpt lat="42.22600561540834" lon="12.513419995483195"><ele>252.66666666666669</ele><time>2026-04-18T13:15:21Z</time></trkpt><trkpt lat="42.22587407626067" lon="12.513251307951666"><ele>251.33333333333331</ele><time>2026-04-18T13:15:22Z</time></trkpt><trkpt lat="42.22574513400018" lon="12.513092790624453"><ele>250.0</ele><time>2026-04-18T13:15:23Z</time></trkpt><trkpt lat="42.22561140285674" lon="12.512945884900867"><ele>249.33333333333331</ele><time>2026-04-18T13:15:24Z</time></trkpt><trkpt lat="42.22547737508257" lon="12.512822626023146"><ele>248.66666666666669</ele><time>2026-04-18T13:15:25Z</time></trkpt><trkpt lat="42.2253489711198" lon="12.51271644874202"><ele>248.0</ele><time>2026-04-18T13:15:26Z</time></trkpt><trkpt lat="42.222404618564525" lon="12.501258242340528"><ele>239.0</ele><time>2026-04-18T13:16:27Z</time></trkpt><trkpt lat="42.2225093396638" lon="12.50103558107178"><ele>230.0</ele><time>2026-04-18T13:16:28Z</time></trkpt><trkpt lat="42.22260674662431" lon="12.500815119388681"><ele>221.0</ele><time>2026-04-18T13:16:29Z</time></trkpt><trkpt lat="42.222710508470485" lon="12.500611274443067"><ele>221.33333333333334</ele><time>2026-04-18T13:16:30Z</time></trkpt><trkpt lat="42.222805430996196" lon="12.500394156042885"><ele>221.66666666666669</ele><time>2026-04-18T13:16:31Z</time></trkpt><trkpt lat="42.22290103601324" lon="12.500175476505731"><ele>222.0</ele><time>2026-04-18T13:16:32Z</time></trkpt><trkpt lat="42.222995074695014" lon="12.499960380792405"><ele>222.0</ele><time>2026-04-18T13:16:33Z</time></trkpt><trkpt lat="42.223084659605234" lon="12.499745947336802"><ele>222.0</ele><time>2026-04-18T13:16:34Z</time></trkpt><trkpt lat="42.22317294737806" lon="12.499532223856654"><ele>222.0</ele><time>2026-04-18T13:16:35Z</time></trkpt><trkpt lat="42.223258201053284" lon="12.499324001652667"><ele>222.0</ele><time>2026-04-18T13:16:36Z</time></trkpt><trkpt lat="42.22334238436425" lon="12.499116951506489"><ele>222.0</ele><time>2026-04-18T13:16:37Z</time></trkpt><trkpt lat="42.22342633674206" lon="12.498909957932995"><ele>222.0</ele><time>2026-04-18T13:16:38Z</time></trkpt><trkpt lat="42.22350674171037" lon="12.4987036250739"><ele>222.66666666666669</ele><time>2026-04-18T13:16:39Z</time></trkpt><trkpt lat="42.223585700706856" lon="12.498479454345187"><ele>223.33333333333334</ele><time>2026-04-18T13:16:40Z</time></trkpt><trkpt lat="42.22365620949634" lon="12.49827652895742"><ele>224.0</ele><time>2026-04-18T13:16:41Z</time></trkpt><trkpt lat="42.22372034652152" lon="12.49806727794848"><ele>225.33333333333334</ele><time>2026-04-18T13:16:42Z</time></trkpt><trkpt lat="42.22377967111915" lon="12.497853505051216"><ele>226.66666666666669</ele><time>2026-04-18T13:16:43Z</time></trkpt><trkpt lat="42.22382927032377" lon="12.497639920787174"><ele>228.0</ele><time>2026-04-18T13:16:44Z</time></trkpt><trkpt lat="42.22386594420829" lon="12.49741893585084"><ele>228.0</ele><time>2026-04-18T13:16:45Z</time></trkpt><trkpt lat="42.22387989593492" lon="12.49720361172305"><ele>228.0</ele><time>2026-04-18T13:16:46Z</time></trkpt><trkpt lat="42.223877355907945" lon="12.496981278784396"><ele>228.0</ele><time>2026-04-18T13:16:47Z</time></trkpt><trkpt lat="42.22386460898539" lon="12.496765721271322"><ele>228.66666666666669</ele><time>2026-04-18T13:16:48Z</time></trkpt><trkpt lat="42.22384916150304" lon="12.496543674476635"><ele>229.33333333333334</ele><time>2026-04-18T13:16:49Z</time></trkpt><trkpt lat="42.22383555405531" lon="12.496321907622816"><ele>230.0</ele><time>2026-04-18T13:16:50Z</time></trkpt><trkpt lat="42.223836444605084" lon="12.496098866067106"><ele>230.33333333333334</ele><time>2026-04-18T13:16:51Z</time></trkpt><trkpt lat="42.22389855616163" lon="12.495895105595325"><ele>230.66666666666669</ele><time>2026-04-18T13:16:52Z</time></trkpt><trkpt lat="42.22396756491353" lon="12.495680581157405"><ele>231.0</ele><time>2026-04-18T13:16:53Z</time></trkpt><trkpt lat="42.224035801792155" lon="12.495455888804383"><ele>233.0</ele><time>2026-04-18T13:16:54Z</time></trkpt><trkpt lat="42.2241210893413" lon="12.49523238451977"><ele>235.0</ele><time>2026-04-18T13:16:55Z</time></trkpt><trkpt lat="42.22420656196247" lon="12.494996604681933"><ele>237.0</ele><time>2026-04-18T13:16:56Z</time></trkpt><trkpt lat="42.22428788176497" lon="12.494772644897747"><ele>239.25</ele><time>2026-04-18T13:16:57Z</time></trkpt><trkpt lat="42.22436165546463" lon="12.494567545596764"><ele>241.5</ele><time>2026-04-18T13:16:58Z</time></trkpt><trkpt lat="42.22442924341197" lon="12.494384660785512"><ele>243.75</ele><time>2026-04-18T13:16:59Z</time></trkpt><trkpt lat="42.22448990940284" lon="12.49423429512751"><ele>246.0</ele><time>2026-04-18T13:17:00Z</time></trkpt><trkpt lat="42.224534092861944" lon="12.494081125663596"><ele>246.0</ele><time>2026-04-18T13:17:01Z</time></trkpt><trkpt lat="42.22456105933033" lon="12.493922182380494"><ele>246.0</ele><time>2026-04-18T13:17:02Z</time></trkpt><trkpt lat="42.22456751424669" lon="12.49374652731691"><ele>246.0</ele><time>2026-04-18T13:17:03Z</time></trkpt><trkpt lat="42.22456311735754" lon="12.493570963391699"><ele>246.0</ele><time>2026-04-18T13:17:04Z</time></trkpt><trkpt lat="42.22455515972265" lon="12.49340025810511"><ele>246.8</ele><time>2026-04-18T13:17:05Z</time></trkpt><trkpt lat="42.22452970446084" lon="12.493234108470286"><ele>247.60000000000002</ele><time>2026-04-18T13:17:06Z</time></trkpt><trkpt lat="42.22451555654745" lon="12.493068348740335"><ele>248.4</ele><time>2026-04-18T13:17:07Z</time></trkpt><trkpt lat="42.224509114658204" lon="12.492931981488947"><ele>249.2</ele><time>2026-04-18T13:17:08Z</time></trkpt><trkpt lat="42.22452900738749" lon="12.492803051768334"><ele>250.0</ele><time>2026-04-18T13:17:09Z</time></trkpt><trkpt lat="42.224593624457256" lon="12.492682640472193"><ele>250.0</ele><time>2026-04-18T13:17:10Z</time></trkpt><trkpt lat="42.224712359756495" lon="12.492654404922318"><ele>250.0</ele><time>2026-04-18T13:17:11Z</time></trkpt><trkpt lat="42.22480618442708" lon="12.49258879139766"><ele>250.0</ele><time>2026-04-18T13:17:12Z</time></trkpt><trkpt lat="42.22489607200834" lon="12.49251332381559"><ele>250.0</ele><time>2026-04-18T13:17:13Z</time></trkpt><trkpt lat="42.224986824022345" lon="12.492462547921678"><ele>250.0</ele><time>2026-04-18T13:17:14Z</time></trkpt><trkpt lat="42.225077482245176" lon="12.492395575366825"><ele>249.99999999999997</ele><time>2026-04-18T13:17:15Z</time></trkpt><trkpt lat="42.22515549208698" lon="12.492332656053666"><ele>250.0</ele><time>2026-04-18T13:17:16Z</time></trkpt><trkpt lat="42.2252301980562" lon="12.492269955630823"><ele>250.0</ele><time>2026-04-18T13:17:17Z</time></trkpt><trkpt lat="42.22529743462642" lon="12.492205440834265"><ele>250.0</ele><time>2026-04-18T13:17:18Z</time></trkpt><trkpt lat="42.2253574005768" lon="12.492130771707757"><ele>249.99999999999997</ele><time>2026-04-18T13:17:19Z</time></trkpt><trkpt lat="42.225415419843216" lon="12.492051777018803"><ele>250.0</ele><time>2026-04-18T13:17:20Z</time></trkpt><trkpt lat="42.22547079195788" lon="12.491960583005676"><ele>251.5</ele><time>2026-04-18T13:17:21Z</time></trkpt><trkpt lat="42.225519324636785" lon="12.491862989253114"><ele>253.0</ele><time>2026-04-18T13:17:22Z</time></trkpt><trkpt lat="42.2255486302024" lon="12.491785299031916"><ele>254.5</ele><time>2026-04-18T13:17:23Z</time></trkpt><trkpt lat="42.22555111731161" lon="12.49167809360948"><ele>256.0</ele><time>2026-04-18T13:17:25Z</time></trkpt><trkpt lat="42.218424330741556" lon="12.481927650594736"><ele>263.0</ele><time>2026-04-18T13:18:26.999Z</time></trkpt><trkpt lat="42.218212472103055" lon="12.481952451398811"><ele>270.0</ele><time>2026-04-18T13:18:27.999Z</time></trkpt><trkpt lat="42.21800088489839" lon="12.481966967325668"><ele>277.0</ele><time>2026-04-18T13:18:28.999Z</time></trkpt><trkpt lat="42.21779157372136" lon="12.481954017117559"><ele>277.0</ele><time>2026-04-18T13:18:29.999Z</time></trkpt><trkpt lat="42.217572971523616" lon="12.481913695163762"><ele>277.0</ele><time>2026-04-18T13:18:30.999Z</time></trkpt><trkpt lat="42.217341008190076" lon="12.481850096091108"><ele>273.5</ele><time>2026-04-18T13:18:31.999Z</time></trkpt><trkpt lat="42.217109870302586" lon="12.481785223160589"><ele>270.0</ele><time>2026-04-18T13:18:32.999Z</time></trkpt><trkpt lat="42.21686670910113" lon="12.481723115910416"><ele>270.0</ele><time>2026-04-18T13:18:33.999Z</time></trkpt><trkpt lat="42.21663326485031" lon="12.481671823330194"><ele>270.0</ele><time>2026-04-18T13:18:34.999Z</time></trkpt><trkpt lat="42.21642382837744" lon="12.481616262100555"><ele>269.6666666666667</ele><time>2026-04-18T13:18:35.999Z</time></trkpt><trkpt lat="42.21623000855053" lon="12.48156422079917"><ele>269.33333333333337</ele><time>2026-04-18T13:18:36.999Z</time></trkpt><trkpt lat="42.21604627413069" lon="12.48151692365398"><ele>269.0</ele><time>2026-04-18T13:18:37.999Z</time></trkpt><trkpt lat="42.21587174892565" lon="12.481468234163946"><ele>269.0</ele><time>2026-04-18T13:18:38.999Z</time></trkpt><trkpt lat="42.21570976786288" lon="12.48140109208667"><ele>269.0</ele><time>2026-04-18T13:18:39.999Z</time></trkpt><trkpt lat="42.215561381978965" lon="12.481275251176914"><ele>269.0</ele><time>2026-04-18T13:18:40.999Z</time></trkpt><trkpt lat="42.21540143409932" lon="12.481158121764967"><ele>268.6666666666667</ele><time>2026-04-18T13:18:42Z</time></trkpt><trkpt lat="42.21526636883605" lon="12.48096827431528"><ele>268.3333333333333</ele><time>2026-04-18T13:18:43Z</time></trkpt><trkpt lat="42.21513886738524" lon="12.480745454735223"><ele>268.0</ele><time>2026-04-18T13:18:44Z</time></trkpt><trkpt lat="42.21502962793693" lon="12.48049208499697"><ele>268.66666666666663</ele><time>2026-04-18T13:18:45Z</time></trkpt><trkpt lat="42.21491911915238" lon="12.48027577360579"><ele>269.3333333333333</ele><time>2026-04-18T13:18:46Z</time></trkpt><trkpt lat="42.21478688215415" lon="12.480110297134495"><ele>270.0</ele><time>2026-04-18T13:18:47Z</time></trkpt><trkpt lat="42.21463289688114" lon="12.479982061147156"><ele>270.0</ele><time>2026-04-18T13:18:48Z</time></trkpt><trkpt lat="42.21446501608049" lon="12.479893345155805"><ele>270.0</ele><time>2026-04-18T13:18:49Z</time></trkpt><trkpt lat="42.2142730454679" lon="12.47985841458999"><ele>270.0</ele><time>2026-04-18T13:18:50Z</time></trkpt><trkpt lat="42.21405858973186" lon="12.479865033828222"><ele>269.0</ele><time>2026-04-18T13:18:51Z</time></trkpt><trkpt lat="42.21385402189981" lon="12.479885220285865"><ele>268.0</ele><time>2026-04-18T13:18:52Z</time></trkpt><trkpt lat="42.213674166562356" lon="12.479899027672383"><ele>267.0</ele><time>2026-04-18T13:18:53Z</time></trkpt><trkpt lat="42.21349806017351" lon="12.479910883914322"><ele>267.0</ele><time>2026-04-18T13:18:54Z</time></trkpt><trkpt lat="42.213329445947174" lon="12.47993458858094"><ele>267.0</ele><time>2026-04-18T13:18:55Z</time></trkpt><trkpt lat="42.21316714495478" lon="12.479982955143806"><ele>267.0</ele><time>2026-04-18T13:18:56Z</time></trkpt><trkpt lat="42.21300841769572" lon="12.48007748000446"><ele>267.6666666666667</ele><time>2026-04-18T13:18:57Z</time></trkpt><trkpt lat="42.212862887325045" lon="12.480209208760293"><ele>268.33333333333337</ele><time>2026-04-18T13:18:58Z</time></trkpt><trkpt lat="42.212740385591474" lon="12.48034013391265"><ele>269.0</ele><time>2026-04-18T13:18:59Z</time></trkpt><trkpt lat="42.21259990463087" lon="12.480455237734349"><ele>267.0</ele><time>2026-04-18T13:19:00Z</time></trkpt><trkpt lat="42.21246262005898" lon="12.480511397761623"><ele>265.0</ele><time>2026-04-18T13:19:01Z</time></trkpt><trkpt lat="42.212325304235925" lon="12.48055899584151"><ele>263.0</ele><time>2026-04-18T13:19:02Z</time></trkpt><trkpt lat="42.212174887729134" lon="12.480598928892109"><ele>261.0</ele><time>2026-04-18T13:19:03Z</time></trkpt><trkpt lat="42.212032496483864" lon="12.480653021789498"><ele>261.0</ele><time>2026-04-18T13:19:04Z</time></trkpt><trkpt lat="42.21190163333173" lon="12.480672805579422"><ele>261.0</ele><time>2026-04-18T13:19:05Z</time></trkpt><trkpt lat="42.21178153230879" lon="12.480692247428925"><ele>261.0</ele><time>2026-04-18T13:19:06Z</time></trkpt><trkpt lat="42.21166901768571" lon="12.48071030048936"><ele>261.0</ele><time>2026-04-18T13:19:07Z</time></trkpt><trkpt lat="42.21156897300203" lon="12.48072461479025"><ele>261.0</ele><time>2026-04-18T13:19:08Z</time></trkpt><trkpt lat="42.211478291085186" lon="12.48073127057359"><ele>261.0</ele><time>2026-04-18T13:19:09Z</time></trkpt><trkpt lat="42.21139569217695" lon="12.480730209421218"><ele>261.0</ele><time>2026-04-18T13:19:10Z</time></trkpt><trkpt lat="42.21132077130075" lon="12.480734066628916"><ele>261.0</ele><time>2026-04-18T13:19:11Z</time></trkpt><trkpt lat="42.21125402147997" lon="12.480734666273316"><ele>261.0</ele><time>2026-04-18T13:19:12Z</time></trkpt><trkpt lat="42.21115861057293" lon="12.480747054511712"><ele>261.0</ele><time>2026-04-18T13:19:14Z</time></trkpt><trkpt lat="42.21107172394029" lon="12.480775665594395"><ele>261.0</ele><time>2026-04-18T13:19:16Z</time></trkpt><trkpt lat="42.21099639906022" lon="12.480802015719352"><ele>261.0</ele><time>2026-04-18T13:19:18Z</time></trkpt><trkpt lat="42.21089084955982" lon="12.480861337307397"><ele>261.0</ele><time>2026-04-18T13:19:20Z</time></trkpt><trkpt lat="42.2107755888773" lon="12.480912258369578"><ele>261.0</ele><time>2026-04-18T13:19:22Z</time></trkpt><trkpt lat="42.2106469649134" lon="12.48095130966948"><ele>261.0</ele><time>2026-04-18T13:19:24Z</time></trkpt><trkpt lat="42.210562926398275" lon="12.480948710688825"><ele>264.0</ele><time>2026-04-18T13:19:25Z</time></trkpt><trkpt lat="42.210454007531496" lon="12.48093464253382"><ele>267.0</ele><time>2026-04-18T13:19:26Z</time></trkpt><trkpt lat="42.2069819364033" lon="12.478305251025699"><ele>267.0</ele><time>2026-04-18T13:20:27Z</time></trkpt><trkpt lat="42.20684479168126" lon="12.47834223988026"><ele>267.0</ele><time>2026-04-18T13:20:27.999Z</time></trkpt><trkpt lat="42.20671886800627" lon="12.478379905470037"><ele>267.0</ele><time>2026-04-18T13:20:28.999Z</time></trkpt><trkpt lat="42.206601700827655" lon="12.47841140737709"><ele>267.0</ele><time>2026-04-18T13:20:29.999Z</time></trkpt><trkpt lat="42.206495370701454" lon="12.478448726777858"><ele>266.8</ele><time>2026-04-18T13:20:30.999Z</time></trkpt><trkpt lat="42.20641687100858" lon="12.47847511157335"><ele>266.6</ele><time>2026-04-18T13:20:31.999Z</time></trkpt><trkpt lat="42.20631596494528" lon="12.478507584952219"><ele>266.40000000000003</ele><time>2026-04-18T13:20:33.999Z</time></trkpt><trkpt lat="42.20623709820646" lon="12.478540109772078"><ele>266.2</ele><time>2026-04-18T13:20:36.999Z</time></trkpt><trkpt lat="42.20612991295601" lon="12.478578183016852"><ele>266.0</ele><time>2026-04-18T13:20:38.999Z</time></trkpt><trkpt lat="42.206004018084194" lon="12.47863242094133"><ele>266.0</ele><time>2026-04-18T13:20:40.999Z</time></trkpt><trkpt lat="42.20593056228045" lon="12.478680229662647"><ele>266.0</ele><time>2026-04-18T13:20:41.999Z</time></trkpt><trkpt lat="42.205832112005666" lon="12.478750627759203"><ele>266.0</ele><time>2026-04-18T13:20:42.999Z</time></trkpt><trkpt lat="42.20573447965904" lon="12.478816274577726"><ele>266.0</ele><time>2026-04-18T13:20:43.999Z</time></trkpt><trkpt lat="42.20562081980685" lon="12.478869399023164"><ele>266.0</ele><time>2026-04-18T13:20:44.999Z</time></trkpt><trkpt lat="42.205486490915106" lon="12.478951055193807"><ele>265.0</ele><time>2026-04-18T13:20:45.999Z</time></trkpt><trkpt lat="42.205327564776944" lon="12.479044885573513"><ele>264.0</ele><time>2026-04-18T13:20:46.999Z</time></trkpt><trkpt lat="42.20516291858213" lon="12.47914559627233"><ele>263.0</ele><time>2026-04-18T13:20:47.999Z</time></trkpt><trkpt lat="42.20499733474412" lon="12.479212406562056"><ele>263.0</ele><time>2026-04-18T13:20:48.999Z</time></trkpt><trkpt lat="42.20483857017089" lon="12.479277487953704"><ele>263.0</ele><time>2026-04-18T13:20:49.999Z</time></trkpt><trkpt lat="42.20467650188648" lon="12.479344802990088"><ele>263.0</ele><time>2026-04-18T13:20:50.999Z</time></trkpt><trkpt lat="42.20451476516921" lon="12.479400288268302"><ele>263.0</ele><time>2026-04-18T13:20:52Z</time></trkpt><trkpt lat="42.204352219408484" lon="12.479442379864578"><ele>263.0</ele><time>2026-04-18T13:20:53Z</time></trkpt><trkpt lat="42.20419446492263" lon="12.479480567911594"><ele>263.0</ele><time>2026-04-18T13:20:54Z</time></trkpt><trkpt lat="42.20405072011559" lon="12.479521834917142"><ele>263.25</ele><time>2026-04-18T13:20:55Z</time></trkpt><trkpt lat="42.2039116565867" lon="12.479559258552806"><ele>263.5</ele><time>2026-04-18T13:20:56Z</time></trkpt><trkpt lat="42.203782125992724" lon="12.479595910571057"><ele>263.75</ele><time>2026-04-18T13:20:57Z</time></trkpt><trkpt lat="42.20365910070275" lon="12.47962984848421"><ele>264.0</ele><time>2026-04-18T13:20:58Z</time></trkpt><trkpt lat="42.203544334747974" lon="12.47966545402286"><ele>264.0</ele><time>2026-04-18T13:20:59Z</time></trkpt><trkpt lat="42.20341449030629" lon="12.479722047876308"><ele>264.0</ele><time>2026-04-18T13:21:00Z</time></trkpt><trkpt lat="42.20327521709485" lon="12.479758739069487"><ele>264.0</ele><time>2026-04-18T13:21:01Z</time></trkpt><trkpt lat="42.20312822575453" lon="12.47978825438774"><ele>264.0</ele><time>2026-04-18T13:21:02Z</time></trkpt><trkpt lat="42.20297704259123" lon="12.479826818396011"><ele>263.3333333333333</ele><time>2026-04-18T13:21:03Z</time></trkpt><trkpt lat="42.202823236638864" lon="12.479866835846627"><ele>262.66666666666663</ele><time>2026-04-18T13:21:04Z</time></trkpt><trkpt lat="42.20266987579079" lon="12.47990416036587"><ele>262.0</ele><time>2026-04-18T13:21:05Z</time></trkpt><trkpt lat="42.202516378360485" lon="12.479943082033351"><ele>262.0</ele><time>2026-04-18T13:21:06Z</time></trkpt><trkpt lat="42.202359142015226" lon="12.479983428964891"><ele>262.0</ele><time>2026-04-18T13:21:07Z</time></trkpt><trkpt lat="42.20220165783875" lon="12.480030621107728"><ele>262.0</ele><time>2026-04-18T13:21:08Z</time></trkpt><trkpt lat="42.202038754640135" lon="12.48007778002605"><ele>262.0</ele><time>2026-04-18T13:21:09Z</time></trkpt><trkpt lat="42.20187339288664" lon="12.480133901682164"><ele>262.0</ele><time>2026-04-18T13:21:10Z</time></trkpt><trkpt lat="42.20170522251393" lon="12.480198253530961"><ele>262.0</ele><time>2026-04-18T13:21:11Z</time></trkpt><trkpt lat="42.20153002861337" lon="12.480261048783357"><ele>261.66666666666663</ele><time>2026-04-18T13:21:12Z</time></trkpt><trkpt lat="42.201348332369506" lon="12.480322048161097"><ele>261.3333333333333</ele><time>2026-04-18T13:21:13Z</time></trkpt><trkpt lat="42.20116588790409" lon="12.480374633046443"><ele>261.0</ele><time>2026-04-18T13:21:14Z</time></trkpt><trkpt lat="42.20098153499498" lon="12.480420757638539"><ele>259.6666666666667</ele><time>2026-04-18T13:21:15Z</time></trkpt><trkpt lat="42.2007903641418" lon="12.480451070896953"><ele>258.33333333333337</ele><time>2026-04-18T13:21:16Z</time></trkpt><trkpt lat="42.200599902738986" lon="12.480473752393785"><ele>257.0</ele><time>2026-04-18T13:21:17Z</time></trkpt><trkpt lat="42.20040764953641" lon="12.480484787664642"><ele>257.0</ele><time>2026-04-18T13:21:18Z</time></trkpt><trkpt lat="42.20021927409258" lon="12.480485215460455"><ele>257.0</ele><time>2026-04-18T13:21:19Z</time></trkpt><trkpt lat="42.20003155655436" lon="12.480478639605362"><ele>257.0</ele><time>2026-04-18T13:21:20Z</time></trkpt><trkpt lat="42.199843491816345" lon="12.480473518140592"><ele>256.0</ele><time>2026-04-18T13:21:21Z</time></trkpt><trkpt lat="42.19965233426578" lon="12.48047855808918"><ele>255.0</ele><time>2026-04-18T13:21:22Z</time></trkpt><trkpt lat="42.19945656645766" lon="12.480483111603872"><ele>254.0</ele><time>2026-04-18T13:21:23Z</time></trkpt><trkpt lat="42.19925964704167" lon="12.48047495216806"><ele>254.0</ele><time>2026-04-18T13:21:24Z</time></trkpt><trkpt lat="42.19906219285175" lon="12.48045366149907"><ele>254.0</ele><time>2026-04-18T13:21:25Z</time></trkpt><trkpt lat="42.1988677521043" lon="12.480413910417566"><ele>254.0</ele><time>2026-04-18T13:21:26Z</time></trkpt><trkpt lat="42.189738156549076" lon="12.47598449919567"><ele>255.6</ele><time>2026-04-18T13:22:27Z</time></trkpt><trkpt lat="42.18963896770524" lon="12.4759516601669"><ele>257.2</ele><time>2026-04-18T13:22:28Z</time></trkpt><trkpt lat="42.189570262359574" lon="12.475825916699923"><ele>258.79999999999995</ele><time>2026-04-18T13:22:29Z</time></trkpt><trkpt lat="42.1895212481297" lon="12.475709816525239"><ele>260.4</ele><time>2026-04-18T13:22:30Z</time></trkpt><trkpt lat="42.18950717398014" lon="12.475587412614766"><ele>262.0</ele><time>2026-04-18T13:22:31Z</time></trkpt><trkpt lat="42.18950337552423" lon="12.475476619577831"><ele>263.25</ele><time>2026-04-18T13:22:32Z</time></trkpt><trkpt lat="42.18949615716866" lon="12.475351256400765"><ele>264.5</ele><time>2026-04-18T13:22:33Z</time></trkpt><trkpt lat="42.18948486869879" lon="12.475190722700722"><ele>265.75</ele><time>2026-04-18T13:22:33.999Z</time></trkpt><trkpt lat="42.18947464012109" lon="12.475009411314934"><ele>267.0</ele><time>2026-04-18T13:22:34.999Z</time></trkpt><trkpt lat="42.18944986611585" lon="12.474826646295918"><ele>267.0</ele><time>2026-04-18T13:22:35.999Z</time></trkpt><trkpt lat="42.18942056472355" lon="12.474658931488257"><ele>267.0</ele><time>2026-04-18T13:22:36.999Z</time></trkpt><trkpt lat="42.18938559940494" lon="12.474501749558437"><ele>267.0</ele><time>2026-04-18T13:22:37.999Z</time></trkpt><trkpt lat="42.189344405876625" lon="12.474339511628937"><ele>267.0</ele><time>2026-04-18T13:22:38.999Z</time></trkpt><trkpt lat="42.18928312362435" lon="12.474168615588995"><ele>267.25</ele><time>2026-04-18T13:22:39.999Z</time></trkpt><trkpt lat="42.189212830083804" lon="12.47400155270175"><ele>267.5</ele><time>2026-04-18T13:22:40.999Z</time></trkpt><trkpt lat="42.18912845886007" lon="12.473847538660051"><ele>267.75</ele><time>2026-04-18T13:22:42Z</time></trkpt><trkpt lat="42.18903355563326" lon="12.473705366143756"><ele>268.0</ele><time>2026-04-18T13:22:43Z</time></trkpt><trkpt lat="42.18893311839355" lon="12.47357411781381"><ele>266.66666666666663</ele><time>2026-04-18T13:22:44Z</time></trkpt><trkpt lat="42.188806907774655" lon="12.473466701523272"><ele>265.3333333333333</ele><time>2026-04-18T13:22:45Z</time></trkpt><trkpt lat="42.18865634170805" lon="12.473397987270687"><ele>264.0</ele><time>2026-04-18T13:22:46Z</time></trkpt><trkpt lat="42.18849226961493" lon="12.473321273716584"><ele>264.0</ele><time>2026-04-18T13:22:47Z</time></trkpt><trkpt lat="42.188318248422455" lon="12.47324453945918"><ele>264.0</ele><time>2026-04-18T13:22:48Z</time></trkpt><trkpt lat="42.18814633335963" lon="12.473171603991464"><ele>264.0</ele><time>2026-04-18T13:22:49Z</time></trkpt><trkpt lat="42.18794495017401" lon="12.473105025646717"><ele>262.6666666666667</ele><time>2026-04-18T13:22:50Z</time></trkpt><trkpt lat="42.18772866784224" lon="12.473002000442797"><ele>261.33333333333337</ele><time>2026-04-18T13:22:51Z</time></trkpt><trkpt lat="42.18753187869191" lon="12.472914643429235"><ele>260.0</ele><time>2026-04-18T13:22:52Z</time></trkpt><trkpt lat="42.18734730288648" lon="12.472828774309619"><ele>261.6666666666667</ele><time>2026-04-18T13:22:53Z</time></trkpt><trkpt lat="42.187183654034285" lon="12.47270169507404"><ele>263.3333333333333</ele><time>2026-04-18T13:22:54Z</time></trkpt><trkpt lat="42.18705103797918" lon="12.472535729262685"><ele>265.0</ele><time>2026-04-18T13:22:55Z</time></trkpt><trkpt lat="42.186930183717806" lon="12.472362366821073"><ele>265.0</ele><time>2026-04-18T13:22:56Z</time></trkpt><trkpt lat="42.18680244234496" lon="12.472186949200566"><ele>265.0</ele><time>2026-04-18T13:22:57Z</time></trkpt><trkpt lat="42.186698434037716" lon="12.472000540923826"><ele>265.0</ele><time>2026-04-18T13:22:58Z</time></trkpt><trkpt lat="42.18657965896129" lon="12.471841590570646"><ele>265.0</ele><time>2026-04-18T13:22:59Z</time></trkpt><trkpt lat="42.186449444785254" lon="12.471690752446907"><ele>265.0</ele><time>2026-04-18T13:23:00Z</time></trkpt><trkpt lat="42.18630217972045" lon="12.471527100150462"><ele>265.0</ele><time>2026-04-18T13:23:01Z</time></trkpt><trkpt lat="42.186162639927105" lon="12.471381073542732"><ele>263.0</ele><time>2026-04-18T13:23:02Z</time></trkpt><trkpt lat="42.18603359396658" lon="12.471220997947475"><ele>261.0</ele><time>2026-04-18T13:23:03Z</time></trkpt><trkpt lat="42.18588825138307" lon="12.471045106768697"><ele>259.0</ele><time>2026-04-18T13:23:04Z</time></trkpt><trkpt lat="42.18573335719589" lon="12.470889709395989"><ele>258.0</ele><time>2026-04-18T13:23:05Z</time></trkpt><trkpt lat="42.18556455815359" lon="12.470748294594074"><ele>257.0</ele><time>2026-04-18T13:23:06Z</time></trkpt><trkpt lat="42.18538024258896" lon="12.470635580666144"><ele>256.0</ele><time>2026-04-18T13:23:07Z</time></trkpt><trkpt lat="42.18518001108045" lon="12.47055375392524"><ele>256.0</ele><time>2026-04-18T13:23:08Z</time></trkpt><trkpt lat="42.18497587158297" lon="12.470484535562191"><ele>256.0</ele><time>2026-04-18T13:23:09Z</time></trkpt><trkpt lat="42.1847647753397" lon="12.47043209911017"><ele>256.0</ele><time>2026-04-18T13:23:10Z</time></trkpt><trkpt lat="42.18456051944549" lon="12.470385207242535"><ele>257.3333333333333</ele><time>2026-04-18T13:23:11Z</time></trkpt><trkpt lat="42.18436576871569" lon="12.47035620343368"><ele>258.6666666666667</ele><time>2026-04-18T13:23:12Z</time></trkpt><trkpt lat="42.18417700963988" lon="12.470337600762779"><ele>260.0</ele><time>2026-04-18T13:23:13Z</time></trkpt><trkpt lat="42.18399422941952" lon="12.470339413540936"><ele>260.0</ele><time>2026-04-18T13:23:14Z</time></trkpt><trkpt lat="42.183811035554086" lon="12.470353195765465"><ele>260.0</ele><time>2026-04-18T13:23:15Z</time></trkpt><trkpt lat="42.18362386400006" lon="12.470379558993152"><ele>260.0</ele><time>2026-04-18T13:23:16Z</time></trkpt><trkpt lat="42.18342871166029" lon="12.470417968199452"><ele>257.6666666666667</ele><time>2026-04-18T13:23:17Z</time></trkpt><trkpt lat="42.18322970111595" lon="12.470460579392544"><ele>255.33333333333331</ele><time>2026-04-18T13:23:18Z</time></trkpt><trkpt lat="42.18304114343111" lon="12.470513868300928"><ele>253.0</ele><time>2026-04-18T13:23:19Z</time></trkpt><trkpt lat="42.182854188766726" lon="12.470589922363724"><ele>253.0</ele><time>2026-04-18T13:23:20Z</time></trkpt><trkpt lat="42.18266617533035" lon="12.47069315875265"><ele>253.0</ele><time>2026-04-18T13:23:21Z</time></trkpt><trkpt lat="42.18247884044943" lon="12.4708244773756"><ele>253.0</ele><time>2026-04-18T13:23:22Z</time></trkpt><trkpt lat="42.18229331495727" lon="12.470967835708826"><ele>253.0</ele><time>2026-04-18T13:23:23Z</time></trkpt><trkpt lat="42.18211707246106" lon="12.471105155941562"><ele>253.0</ele><time>2026-04-18T13:23:24Z</time></trkpt><trkpt lat="42.1819426674641" lon="12.471223617877907"><ele>253.0</ele><time>2026-04-18T13:23:25Z</time></trkpt><trkpt lat="42.181764749326845" lon="12.471327277598183"><ele>250.0</ele><time>2026-04-18T13:23:26Z</time></trkpt><trkpt lat="42.1705450268646" lon="12.473920285952838"><ele>250.0</ele><time>2026-04-18T13:24:27Z</time></trkpt><trkpt lat="42.170368685786336" lon="12.473955248331597"><ele>250.0</ele><time>2026-04-18T13:24:28Z</time></trkpt><trkpt lat="42.17019205593084" lon="12.474004500069322"><ele>250.0</ele><time>2026-04-18T13:24:29Z</time></trkpt><trkpt lat="42.170018666006904" lon="12.474064103801043"><ele>251.0</ele><time>2026-04-18T13:24:30Z</time></trkpt><trkpt lat="42.1698448434434" lon="12.474124058298205"><ele>252.0</ele><time>2026-04-18T13:24:31Z</time></trkpt><trkpt lat="42.169668548552714" lon="12.474173828571145"><ele>253.0</ele><time>2026-04-18T13:24:32Z</time></trkpt><trkpt lat="42.16948584478888" lon="12.474205411384329"><ele>253.0</ele><time>2026-04-18T13:24:33Z</time></trkpt><trkpt lat="42.1692946124045" lon="12.474215113928166"><ele>253.0</ele><time>2026-04-18T13:24:34Z</time></trkpt><trkpt lat="42.169103691030536" lon="12.474204895736335"><ele>253.0</ele><time>2026-04-18T13:24:35Z</time></trkpt><trkpt lat="42.16891705573075" lon="12.474185195528406"><ele>254.0</ele><time>2026-04-18T13:24:36Z</time></trkpt><trkpt lat="42.16873134512537" lon="12.474142078093308"><ele>255.0</ele><time>2026-04-18T13:24:37Z</time></trkpt><trkpt lat="42.1685537735871" lon="12.47408108905981"><ele>256.0</ele><time>2026-04-18T13:24:38Z</time></trkpt><trkpt lat="42.16837335024062" lon="12.474021855161295"><ele>256.0</ele><time>2026-04-18T13:24:39Z</time></trkpt><trkpt lat="42.16819736669477" lon="12.473962420452262"><ele>256.0</ele><time>2026-04-18T13:24:40Z</time></trkpt><trkpt lat="42.16802069379734" lon="12.47390971106259"><ele>256.0</ele><time>2026-04-18T13:24:41Z</time></trkpt><trkpt lat="42.167847965507754" lon="12.473851475448752"><ele>255.33333333333331</ele><time>2026-04-18T13:24:42Z</time></trkpt><trkpt lat="42.16767569673859" lon="12.473795689421756"><ele>254.66666666666669</ele><time>2026-04-18T13:24:43Z</time></trkpt><trkpt lat="42.16750757104526" lon="12.47373842376206"><ele>254.0</ele><time>2026-04-18T13:24:44Z</time></trkpt><trkpt lat="42.167334474702244" lon="12.47367539335605"><ele>256.33333333333337</ele><time>2026-04-18T13:24:45Z</time></trkpt><trkpt lat="42.16715613479857" lon="12.473626918132387"><ele>258.6666666666667</ele><time>2026-04-18T13:24:46Z</time></trkpt><trkpt lat="42.16696794314605" lon="12.473579863524131"><ele>261.0</ele><time>2026-04-18T13:24:47Z</time></trkpt><trkpt lat="42.166777826310856" lon="12.473542453153778"><ele>261.0</ele><time>2026-04-18T13:24:48Z</time></trkpt><trkpt lat="42.16658867132524" lon="12.473518148996865"><ele>261.0</ele><time>2026-04-18T13:24:49Z</time></trkpt><trkpt lat="42.166400273307424" lon="12.473509449799442"><ele>261.0</ele><time>2026-04-18T13:24:50Z</time></trkpt><trkpt lat="42.166194096214404" lon="12.47350530876305"><ele>261.6666666666667</ele><time>2026-04-18T13:24:51Z</time></trkpt><trkpt lat="42.16599865613743" lon="12.473489645690611"><ele>262.33333333333337</ele><time>2026-04-18T13:24:52Z</time></trkpt><trkpt lat="42.165799136509065" lon="12.473478885108682"><ele>263.0</ele><time>2026-04-18T13:24:53Z</time></trkpt><trkpt lat="42.16560251716625" lon="12.473461911530123"><ele>264.33333333333337</ele><time>2026-04-18T13:24:54Z</time></trkpt><trkpt lat="42.16541134988639" lon="12.473444097837952"><ele>265.6666666666667</ele><time>2026-04-18T13:24:55Z</time></trkpt><trkpt lat="42.165222025634584" lon="12.473439271895469"><ele>267.0</ele><time>2026-04-18T13:24:56Z</time></trkpt><trkpt lat="42.16503084533966" lon="12.473434065572748"><ele>266.3333333333333</ele><time>2026-04-18T13:24:57Z</time></trkpt><trkpt lat="42.16483205093814" lon="12.473438327142269"><ele>265.66666666666663</ele><time>2026-04-18T13:24:58Z</time></trkpt><trkpt lat="42.16462678368252" lon="12.473453226964546"><ele>265.0</ele><time>2026-04-18T13:24:59Z</time></trkpt><trkpt lat="42.16441386485385" lon="12.473452609999223"><ele>265.0</ele><time>2026-04-18T13:25:00Z</time></trkpt><trkpt lat="42.164199723236294" lon="12.473464483832833"><ele>265.0</ele><time>2026-04-18T13:25:01Z</time></trkpt><trkpt lat="42.16398413019943" lon="12.473472500369907"><ele>265.0</ele><time>2026-04-18T13:25:02Z</time></trkpt><trkpt lat="42.16376571007717" lon="12.47347811646039"><ele>265.0</ele><time>2026-04-18T13:25:03Z</time></trkpt><trkpt lat="42.163548422747816" lon="12.473483461104857"><ele>265.0</ele><time>2026-04-18T13:25:04Z</time></trkpt><trkpt lat="42.1633292124572" lon="12.473488818548207"><ele>265.0</ele><time>2026-04-18T13:25:05Z</time></trkpt><trkpt lat="42.16311184705116" lon="12.473493065896141"><ele>265.0</ele><time>2026-04-18T13:25:06Z</time></trkpt><trkpt lat="42.16289690201356" lon="12.473495026837483"><ele>265.0</ele><time>2026-04-18T13:25:07Z</time></trkpt><trkpt lat="42.162692154837465" lon="12.473503124265552"><ele>265.0</ele><time>2026-04-18T13:25:08Z</time></trkpt><trkpt lat="42.162489202713665" lon="12.473520709726323"><ele>265.66666666666663</ele><time>2026-04-18T13:25:09Z</time></trkpt><trkpt lat="42.162288074363175" lon="12.473561853059655"><ele>266.3333333333333</ele><time>2026-04-18T13:25:10Z</time></trkpt><trkpt lat="42.16208378179841" lon="12.473620085639327"><ele>267.0</ele><time>2026-04-18T13:25:11Z</time></trkpt><trkpt lat="42.1618791603189" lon="12.473689399741614"><ele>267.0</ele><time>2026-04-18T13:25:12Z</time></trkpt><trkpt lat="42.1616751061043" lon="12.473761772805357"><ele>267.0</ele><time>2026-04-18T13:25:13Z</time></trkpt><trkpt lat="42.16147102180978" lon="12.473828814778967"><ele>267.0</ele><time>2026-04-18T13:25:14Z</time></trkpt><trkpt lat="42.1612641397958" lon="12.473888034684558"><ele>268.3333333333333</ele><time>2026-04-18T13:25:15Z</time></trkpt><trkpt lat="42.16106379074955" lon="12.473945253425915"><ele>269.66666666666663</ele><time>2026-04-18T13:25:16Z</time></trkpt><trkpt lat="42.160864129077446" lon="12.474006780668578"><ele>271.0</ele><time>2026-04-18T13:25:17Z</time></trkpt><trkpt lat="42.1606672226212" lon="12.474066270313031"><ele>271.3333333333333</ele><time>2026-04-18T13:25:18Z</time></trkpt><trkpt lat="42.16047146935631" lon="12.474119846920239"><ele>271.6666666666667</ele><time>2026-04-18T13:25:19Z</time></trkpt><trkpt lat="42.16026981322656" lon="12.47416007827628"><ele>272.0</ele><time>2026-04-18T13:25:20Z</time></trkpt><trkpt lat="42.16006606089734" lon="12.47418999781878"><ele>273.0</ele><time>2026-04-18T13:25:21Z</time></trkpt><trkpt lat="42.15985367474589" lon="12.474213658248802"><ele>274.0</ele><time>2026-04-18T13:25:22Z</time></trkpt><trkpt lat="42.15963842036144" lon="12.474199821961891"><ele>275.0</ele><time>2026-04-18T13:25:23Z</time></trkpt><trkpt lat="42.15942731963514" lon="12.474207728608745"><ele>275.0</ele><time>2026-04-18T13:25:24Z</time></trkpt><trkpt lat="42.15921452828777" lon="12.474197085022123"><ele>275.0</ele><time>2026-04-18T13:25:25Z</time></trkpt><trkpt lat="42.15900012045449" lon="12.474205974995412"><ele>275.0</ele><time>2026-04-18T13:25:26Z</time></trkpt><trkpt lat="42.148888586092035" lon="12.478087637208594"><ele>280.0</ele><time>2026-04-18T13:26:27Z</time></trkpt><trkpt lat="42.14873353306161" lon="12.478115507194133"><ele>285.0</ele><time>2026-04-18T13:26:28Z</time></trkpt><trkpt lat="42.14858791529211" lon="12.478160654491829"><ele>290.0</ele><time>2026-04-18T13:26:29Z</time></trkpt><trkpt lat="42.14844613176592" lon="12.478240620246126"><ele>290.0</ele><time>2026-04-18T13:26:30Z</time></trkpt><trkpt lat="42.14831159680465" lon="12.478363613598997"><ele>290.0</ele><time>2026-04-18T13:26:31Z</time></trkpt><trkpt lat="42.14819852847317" lon="12.478539385783426"><ele>290.0</ele><time>2026-04-18T13:26:32Z</time></trkpt><trkpt lat="42.14810814953263" lon="12.47876116276122"><ele>290.0</ele><time>2026-04-18T13:26:33Z</time></trkpt><trkpt lat="42.14803998388746" lon="12.478978900062485"><ele>290.0</ele><time>2026-04-18T13:26:34Z</time></trkpt><trkpt lat="42.14797715440459" lon="12.4791646685859"><ele>290.0</ele><time>2026-04-18T13:26:35Z</time></trkpt><trkpt lat="42.14791736534864" lon="12.479320718717668"><ele>290.0</ele><time>2026-04-18T13:26:36Z</time></trkpt><trkpt lat="42.14787140926874" lon="12.479438383387336"><ele>290.0</ele><time>2026-04-18T13:26:37Z</time></trkpt><trkpt lat="42.147838630759026" lon="12.479526631501555"><ele>290.0</ele><time>2026-04-18T13:26:38Z</time></trkpt><trkpt lat="42.14777186036971" lon="12.479541253299036"><ele>290.0</ele><time>2026-04-18T13:26:40Z</time></trkpt><trkpt lat="42.14773546770012" lon="12.479421983078453"><ele>290.0</ele><time>2026-04-18T13:26:42Z</time></trkpt><trkpt lat="42.14774604965484" lon="12.479321055628468"><ele>290.0</ele><time>2026-04-18T13:26:43Z</time></trkpt><trkpt lat="42.147753843139974" lon="12.479202724260736"><ele>290.0</ele><time>2026-04-18T13:26:44Z</time></trkpt><trkpt lat="42.147744137897305" lon="12.479065981564705"><ele>290.0</ele><time>2026-04-18T13:26:45Z</time></trkpt><trkpt lat="42.147731010009124" lon="12.478912734020673"><ele>290.0</ele><time>2026-04-18T13:26:46.001Z</time></trkpt><trkpt lat="42.14772755084899" lon="12.478741991754738"><ele>290.0</ele><time>2026-04-18T13:26:47.001Z</time></trkpt><trkpt lat="42.14775174511273" lon="12.478560297886057"><ele>289.0</ele><time>2026-04-18T13:26:48.001Z</time></trkpt><trkpt lat="42.147803293545465" lon="12.478384059187324"><ele>288.0</ele><time>2026-04-18T13:26:49.001Z</time></trkpt><trkpt lat="42.14786390040511" lon="12.478222714859216"><ele>287.0</ele><time>2026-04-18T13:26:50.001Z</time></trkpt><trkpt lat="42.14793127887918" lon="12.47808270875263"><ele>286.0</ele><time>2026-04-18T13:26:51.001Z</time></trkpt><trkpt lat="42.147987835179144" lon="12.477954913431736"><ele>285.25</ele><time>2026-04-18T13:26:52.001Z</time></trkpt><trkpt lat="42.148034587502025" lon="12.477822260289988"><ele>284.5</ele><time>2026-04-18T13:26:53.001Z</time></trkpt><trkpt lat="42.14806170972949" lon="12.477678064208291"><ele>283.75</ele><time>2026-04-18T13:26:54Z</time></trkpt><trkpt lat="42.148072084596876" lon="12.477527373650837"><ele>283.0</ele><time>2026-04-18T13:26:55Z</time></trkpt><trkpt lat="42.14803865253096" lon="12.477338247168557"><ele>283.0</ele><time>2026-04-18T13:26:56Z</time></trkpt><trkpt lat="42.147999831834966" lon="12.47709470271851"><ele>283.0</ele><time>2026-04-18T13:26:57Z</time></trkpt><trkpt lat="42.1479445549059" lon="12.476801630094123"><ele>283.0</ele><time>2026-04-18T13:26:58Z</time></trkpt><trkpt lat="42.14790238325769" lon="12.476469901375616"><ele>283.0</ele><time>2026-04-18T13:26:59Z</time></trkpt><trkpt lat="42.1478624672456" lon="12.476174335854022"><ele>283.0</ele><time>2026-04-18T13:27:00Z</time></trkpt><trkpt lat="42.14784298141829" lon="12.475885220165035"><ele>283.0</ele><time>2026-04-18T13:27:01Z</time></trkpt><trkpt lat="42.14781199341342" lon="12.475598077251954"><ele>283.66666666666663</ele><time>2026-04-18T13:27:02Z</time></trkpt><trkpt lat="42.14777313658863" lon="12.47532500797511"><ele>284.3333333333333</ele><time>2026-04-18T13:27:03Z</time></trkpt><trkpt lat="42.14769117238386" lon="12.475079849493573"><ele>285.0</ele><time>2026-04-18T13:27:04Z</time></trkpt><trkpt lat="42.1475727305963" lon="12.47484262957545"><ele>286.3333333333333</ele><time>2026-04-18T13:27:05Z</time></trkpt><trkpt lat="42.14746163928699" lon="12.474593951842436"><ele>287.66666666666663</ele><time>2026-04-18T13:27:06Z</time></trkpt><trkpt lat="42.14735877886777" lon="12.474343684223166"><ele>289.0</ele><time>2026-04-18T13:27:07Z</time></trkpt><trkpt lat="42.147251925946854" lon="12.474106535323296"><ele>289.0</ele><time>2026-04-18T13:27:08Z</time></trkpt><trkpt lat="42.14713955859483" lon="12.473868098894934"><ele>289.0</ele><time>2026-04-18T13:27:09Z</time></trkpt><trkpt lat="42.14702669998111" lon="12.473633893622946"><ele>289.0</ele><time>2026-04-18T13:27:10Z</time></trkpt><trkpt lat="42.146911182282636" lon="12.473398449396583"><ele>288.3333333333333</ele><time>2026-04-18T13:27:11Z</time></trkpt><trkpt lat="42.146791320596535" lon="12.473172478727788"><ele>287.6666666666667</ele><time>2026-04-18T13:27:12Z</time></trkpt><trkpt lat="42.14666380763365" lon="12.472946767751923"><ele>287.0</ele><time>2026-04-18T13:27:13Z</time></trkpt><trkpt lat="42.14653656358649" lon="12.472731175913818"><ele>287.0</ele><time>2026-04-18T13:27:14Z</time></trkpt><trkpt lat="42.14641923569194" lon="12.472512468000579"><ele>287.0</ele><time>2026-04-18T13:27:15Z</time></trkpt><trkpt lat="42.146347409901715" lon="12.472260223914622"><ele>287.0</ele><time>2026-04-18T13:27:16Z</time></trkpt><trkpt lat="42.14627802296655" lon="12.47200614781487"><ele>289.0</ele><time>2026-04-18T13:27:17Z</time></trkpt><trkpt lat="42.14624165241608" lon="12.47174636574599"><ele>291.0</ele><time>2026-04-18T13:27:18Z</time></trkpt><trkpt lat="42.14623430033437" lon="12.471477668709653"><ele>293.0</ele><time>2026-04-18T13:27:19Z</time></trkpt><trkpt lat="42.14623593636558" lon="12.471199284663422"><ele>296.0</ele><time>2026-04-18T13:27:20Z</time></trkpt><trkpt lat="42.146229901593244" lon="12.470922521067735"><ele>299.0</ele><time>2026-04-18T13:27:21Z</time></trkpt><trkpt lat="42.14623222789451" lon="12.47064955266518"><ele>302.0</ele><time>2026-04-18T13:27:22Z</time></trkpt><trkpt lat="42.14623350972208" lon="12.470372337185447"><ele>302.0</ele><time>2026-04-18T13:27:23Z</time></trkpt><trkpt lat="42.14623654247058" lon="12.470089068947939"><ele>302.0</ele><time>2026-04-18T13:27:24Z</time></trkpt><trkpt lat="42.1462362181197" lon="12.469805526120606"><ele>302.0</ele><time>2026-04-18T13:27:25Z</time></trkpt><trkpt lat="42.1462294528624" lon="12.46952906524373"><ele>298.0</ele><time>2026-04-18T13:27:26Z</time></trkpt><trkpt lat="42.14057872301883" lon="12.458137494904394"><ele>299.3333333333333</ele><time>2026-04-18T13:28:27Z</time></trkpt><trkpt lat="42.14056088806797" lon="12.457919163458948"><ele>300.6666666666667</ele><time>2026-04-18T13:28:28Z</time></trkpt><trkpt lat="42.14056328447837" lon="12.45770971558624"><ele>302.0</ele><time>2026-04-18T13:28:29Z</time></trkpt><trkpt lat="42.140575484132924" lon="12.457503463565137"><ele>302.0</ele><time>2026-04-18T13:28:30Z</time></trkpt><trkpt lat="42.140590432407166" lon="12.457300556928802"><ele>302.0</ele><time>2026-04-18T13:28:31Z</time></trkpt><trkpt lat="42.1405773607102" lon="12.457100856815586"><ele>302.0</ele><time>2026-04-18T13:28:32Z</time></trkpt><trkpt lat="42.14049764371292" lon="12.456908577031841"><ele>303.6666666666667</ele><time>2026-04-18T13:28:33Z</time></trkpt><trkpt lat="42.14037790309247" lon="12.45674815877318"><ele>305.3333333333333</ele><time>2026-04-18T13:28:34Z</time></trkpt><trkpt lat="42.140237625379896" lon="12.456634680052732"><ele>307.0</ele><time>2026-04-18T13:28:35Z</time></trkpt><trkpt lat="42.14009616668122" lon="12.456532909987727"><ele>307.0</ele><time>2026-04-18T13:28:36Z</time></trkpt><trkpt lat="42.13998088808605" lon="12.456383055349034"><ele>307.0</ele><time>2026-04-18T13:28:37Z</time></trkpt><trkpt lat="42.13990001281" lon="12.456187330204882"><ele>307.0</ele><time>2026-04-18T13:28:38Z</time></trkpt><trkpt lat="42.13983110547467" lon="12.45597414682965"><ele>307.66666666666663</ele><time>2026-04-18T13:28:39Z</time></trkpt><trkpt lat="42.13974794724948" lon="12.45577060360846"><ele>308.3333333333333</ele><time>2026-04-18T13:28:40Z</time></trkpt><trkpt lat="42.139616746445164" lon="12.455608603466267"><ele>309.0</ele><time>2026-04-18T13:28:41Z</time></trkpt><trkpt lat="42.13945078809982" lon="12.455502118809822"><ele>310.0</ele><time>2026-04-18T13:28:42Z</time></trkpt><trkpt lat="42.13929372863548" lon="12.455389196107749"><ele>311.0</ele><time>2026-04-18T13:28:43Z</time></trkpt><trkpt lat="42.13915695119005" lon="12.455237849323888"><ele>312.0</ele><time>2026-04-18T13:28:44Z</time></trkpt><trkpt lat="42.13904506231675" lon="12.45505386823239"><ele>313.6666666666667</ele><time>2026-04-18T13:28:45Z</time></trkpt><trkpt lat="42.138932394754036" lon="12.454865966343265"><ele>315.33333333333337</ele><time>2026-04-18T13:28:46Z</time></trkpt><trkpt lat="42.138808462370996" lon="12.454694973414147"><ele>317.0</ele><time>2026-04-18T13:28:47Z</time></trkpt><trkpt lat="42.138671585564616" lon="12.454563329211949"><ele>317.0</ele><time>2026-04-18T13:28:48Z</time></trkpt><trkpt lat="42.1385376168798" lon="12.454447045287404"><ele>317.0</ele><time>2026-04-18T13:28:49Z</time></trkpt><trkpt lat="42.13845313794504" lon="12.454287227929708"><ele>317.0</ele><time>2026-04-18T13:28:50Z</time></trkpt><trkpt lat="42.1383860746382" lon="12.454101199671817"><ele>317.0</ele><time>2026-04-18T13:28:51Z</time></trkpt><trkpt lat="42.138321019485446" lon="12.453918882433438"><ele>317.0</ele><time>2026-04-18T13:28:52Z</time></trkpt><trkpt lat="42.13824608966146" lon="12.453748185321768"><ele>317.0</ele><time>2026-04-18T13:28:53Z</time></trkpt><trkpt lat="42.13817195638511" lon="12.453575824411642"><ele>317.0</ele><time>2026-04-18T13:28:54Z</time></trkpt><trkpt lat="42.13810542901836" lon="12.453412983769734"><ele>316.25</ele><time>2026-04-18T13:28:55Z</time></trkpt><trkpt lat="42.13804378849202" lon="12.453263489881023"><ele>315.5</ele><time>2026-04-18T13:28:56Z</time></trkpt><trkpt lat="42.13798063610889" lon="12.453120503789618"><ele>314.75</ele><time>2026-04-18T13:28:57Z</time></trkpt><trkpt lat="42.13792865289438" lon="12.452971223400063"><ele>314.0</ele><time>2026-04-18T13:28:58Z</time></trkpt><trkpt lat="42.13786638926077" lon="12.452826544394528"><ele>315.5</ele><time>2026-04-18T13:28:59Z</time></trkpt><trkpt lat="42.137798095869236" lon="12.452675331208695"><ele>317.0</ele><time>2026-04-18T13:29:00Z</time></trkpt><trkpt lat="42.13773467152623" lon="12.452510614966972"><ele>318.5</ele><time>2026-04-18T13:29:01Z</time></trkpt><trkpt lat="42.1376739320881" lon="12.452339153367753"><ele>320.0</ele><time>2026-04-18T13:29:02Z</time></trkpt><trkpt lat="42.137615269057264" lon="12.452158503407263"><ele>319.75</ele><time>2026-04-18T13:29:03Z</time></trkpt><trkpt lat="42.13755968948421" lon="12.4519850008019"><ele>319.5</ele><time>2026-04-18T13:29:04Z</time></trkpt><trkpt lat="42.13749873725592" lon="12.451821074109601"><ele>319.25</ele><time>2026-04-18T13:29:05Z</time></trkpt><trkpt lat="42.137449923621176" lon="12.45164446841787"><ele>319.0</ele><time>2026-04-18T13:29:06Z</time></trkpt><trkpt lat="42.1374128372436" lon="12.451464964877674"><ele>320.5</ele><time>2026-04-18T13:29:07Z</time></trkpt><trkpt lat="42.137380046672945" lon="12.451284840208379"><ele>322.0</ele><time>2026-04-18T13:29:08Z</time></trkpt><trkpt lat="42.137347275327706" lon="12.451114472839762"><ele>323.5</ele><time>2026-04-18T13:29:09Z</time></trkpt><trkpt lat="42.137320146984116" lon="12.45095410530933"><ele>325.0</ele><time>2026-04-18T13:29:10Z</time></trkpt><trkpt lat="42.13729196947975" lon="12.450788591419316"><ele>325.0</ele><time>2026-04-18T13:29:11Z</time></trkpt><trkpt lat="42.13726764018757" lon="12.450613308447407"><ele>325.0</ele><time>2026-04-18T13:29:12Z</time></trkpt><trkpt lat="42.137230241708664" lon="12.450440736811586"><ele>325.0</ele><time>2026-04-18T13:29:13Z</time></trkpt><trkpt lat="42.137194583718724" lon="12.450273729247499"><ele>325.0</ele><time>2026-04-18T13:29:14Z</time></trkpt><trkpt lat="42.13715028644613" lon="12.450110389631156"><ele>324.75</ele><time>2026-04-18T13:29:15Z</time></trkpt><trkpt lat="42.137077654638944" lon="12.44996393658332"><ele>324.5</ele><time>2026-04-18T13:29:16Z</time></trkpt><trkpt lat="42.13696746782385" lon="12.449839849582752"><ele>324.25</ele><time>2026-04-18T13:29:17Z</time></trkpt><trkpt lat="42.136839658819426" lon="12.449732949921295"><ele>324.0</ele><time>2026-04-18T13:29:18Z</time></trkpt><trkpt lat="42.13669595567662" lon="12.449616871841721"><ele>322.0</ele><time>2026-04-18T13:29:19Z</time></trkpt><trkpt lat="42.13654486432616" lon="12.449510917853575"><ele>320.0</ele><time>2026-04-18T13:29:20Z</time></trkpt><trkpt lat="42.136396339780546" lon="12.449425713125528"><ele>318.0</ele><time>2026-04-18T13:29:21Z</time></trkpt><trkpt lat="42.136253177858705" lon="12.44934856421992"><ele>318.0</ele><time>2026-04-18T13:29:22Z</time></trkpt><trkpt lat="42.13611190482479" lon="12.449271121397425"><ele>318.0</ele><time>2026-04-18T13:29:23Z</time></trkpt><trkpt lat="42.135953574527825" lon="12.449185133472836"><ele>318.0</ele><time>2026-04-18T13:29:24Z</time></trkpt><trkpt lat="42.135792198057466" lon="12.449098075199528"><ele>319.5</ele><time>2026-04-18T13:29:25Z</time></trkpt><trkpt lat="42.13563208536532" lon="12.448999645515078"><ele>321.0</ele><time>2026-04-18T13:29:26Z</time></trkpt><trkpt lat="42.132607661574035" lon="12.439740794070756"><ele>323.25</ele><time>2026-04-18T13:30:27Z</time></trkpt><trkpt lat="42.13271673302331" lon="12.439624949863795"><ele>325.5</ele><time>2026-04-18T13:30:28Z</time></trkpt><trkpt lat="42.13282663034841" lon="12.439539535828615"><ele>327.75</ele><time>2026-04-18T13:30:29Z</time></trkpt><trkpt lat="42.13297334115881" lon="12.439538856769675"><ele>330.0</ele><time>2026-04-18T13:30:30Z</time></trkpt><trkpt lat="42.13313426942513" lon="12.439537699572016"><ele>331.3333333333333</ele><time>2026-04-18T13:30:31Z</time></trkpt><trkpt lat="42.133309121614346" lon="12.439546835336047"><ele>332.66666666666663</ele><time>2026-04-18T13:30:32Z</time></trkpt><trkpt lat="42.13349011673242" lon="12.439538897885843"><ele>334.0</ele><time>2026-04-18T13:30:33Z</time></trkpt><trkpt lat="42.133663924219846" lon="12.439539643515431"><ele>334.0</ele><time>2026-04-18T13:30:34Z</time></trkpt><trkpt lat="42.13383455548263" lon="12.439524268010514"><ele>334.0</ele><time>2026-04-18T13:30:35Z</time></trkpt><trkpt lat="42.13400224298425" lon="12.439470100468926"><ele>334.0</ele><time>2026-04-18T13:30:36Z</time></trkpt><trkpt lat="42.13416233596908" lon="12.43937676078694"><ele>336.0</ele><time>2026-04-18T13:30:37Z</time></trkpt><trkpt lat="42.134307750090926" lon="12.439243376081063"><ele>338.0</ele><time>2026-04-18T13:30:38Z</time></trkpt><trkpt lat="42.13443813794055" lon="12.439099614466894"><ele>340.0</ele><time>2026-04-18T13:30:39Z</time></trkpt><trkpt lat="42.1345406112521" lon="12.438940918961782"><ele>340.66666666666663</ele><time>2026-04-18T13:30:40Z</time></trkpt><trkpt lat="42.134599940195265" lon="12.43874875327062"><ele>341.3333333333333</ele><time>2026-04-18T13:30:41Z</time></trkpt><trkpt lat="42.134614248780096" lon="12.438524957673305"><ele>342.0</ele><time>2026-04-18T13:30:42Z</time></trkpt><trkpt lat="42.134624752155275" lon="12.438289370931031"><ele>342.0</ele><time>2026-04-18T13:30:43Z</time></trkpt><trkpt lat="42.13466470107715" lon="12.438061742273312"><ele>342.0</ele><time>2026-04-18T13:30:44Z</time></trkpt><trkpt lat="42.13472762742666" lon="12.437845601834132"><ele>342.0</ele><time>2026-04-18T13:30:45Z</time></trkpt><trkpt lat="42.134816728304585" lon="12.437666007205204"><ele>343.6666666666667</ele><time>2026-04-18T13:30:46Z</time></trkpt><trkpt lat="42.13492615500455" lon="12.437509070578228"><ele>345.33333333333337</ele><time>2026-04-18T13:30:47Z</time></trkpt><trkpt lat="42.135035542824355" lon="12.437358517182963"><ele>347.0</ele><time>2026-04-18T13:30:48Z</time></trkpt><trkpt lat="42.13515290495683" lon="12.43722883393307"><ele>347.33333333333337</ele><time>2026-04-18T13:30:49Z</time></trkpt><trkpt lat="42.135233732638305" lon="12.437059705741536"><ele>347.6666666666667</ele><time>2026-04-18T13:30:50Z</time></trkpt><trkpt lat="42.13525920912048" lon="12.43684487336936"><ele>348.0</ele><time>2026-04-18T13:30:51Z</time></trkpt><trkpt lat="42.13522902686957" lon="12.436606170411697"><ele>348.0</ele><time>2026-04-18T13:30:52Z</time></trkpt><trkpt lat="42.135185405837426" lon="12.436367368653285"><ele>348.0</ele><time>2026-04-18T13:30:53Z</time></trkpt><trkpt lat="42.13512808022868" lon="12.436138946207365"><ele>348.0</ele><time>2026-04-18T13:30:54Z</time></trkpt><trkpt lat="42.13506887373368" lon="12.435924182227687"><ele>347.6666666666667</ele><time>2026-04-18T13:30:55Z</time></trkpt><trkpt lat="42.13499877543808" lon="12.435724387810803"><ele>347.33333333333337</ele><time>2026-04-18T13:30:56Z</time></trkpt><trkpt lat="42.134920932564924" lon="12.435533542484377"><ele>347.0</ele><time>2026-04-18T13:30:57Z</time></trkpt><trkpt lat="42.134857206718586" lon="12.435346545531464"><ele>348.25</ele><time>2026-04-18T13:30:58Z</time></trkpt><trkpt lat="42.13482037398135" lon="12.435159978186922"><ele>349.5</ele><time>2026-04-18T13:30:59Z</time></trkpt><trkpt lat="42.134812537388854" lon="12.434958000811847"><ele>350.75</ele><time>2026-04-18T13:31:00Z</time></trkpt><trkpt lat="42.13483186371144" lon="12.434769371636975"><ele>352.0</ele><time>2026-04-18T13:31:01Z</time></trkpt><trkpt lat="42.1348671568339" lon="12.434568558253869"><ele>351.66666666666663</ele><time>2026-04-18T13:31:02Z</time></trkpt><trkpt lat="42.134924624435115" lon="12.434367673233403"><ele>351.3333333333333</ele><time>2026-04-18T13:31:03Z</time></trkpt><trkpt lat="42.135003949796605" lon="12.434180755325986"><ele>351.0</ele><time>2026-04-18T13:31:04Z</time></trkpt><trkpt lat="42.13510370730142" lon="12.434011857187354"><ele>351.0</ele><time>2026-04-18T13:31:05Z</time></trkpt><trkpt lat="42.135201325831716" lon="12.43385159824543"><ele>351.0</ele><time>2026-04-18T13:31:06Z</time></trkpt><trkpt lat="42.13529865001385" lon="12.433723025877148"><ele>351.0</ele><time>2026-04-18T13:31:07Z</time></trkpt><trkpt lat="42.13537346453663" lon="12.433616446314455"><ele>351.0</ele><time>2026-04-18T13:31:08Z</time></trkpt><trkpt lat="42.13545516627587" lon="12.433518037006651"><ele>351.3333333333333</ele><time>2026-04-18T13:31:09Z</time></trkpt><trkpt lat="42.13551289186955" lon="12.43344250537037"><ele>351.66666666666663</ele><time>2026-04-18T13:31:10Z</time></trkpt><trkpt lat="42.135305458474974" lon="12.433218453207017"><ele>352.0</ele><time>2026-04-18T13:31:13Z</time></trkpt><trkpt lat="42.135172424833655" lon="12.433195397363091"><ele>352.0</ele><time>2026-04-18T13:31:14Z</time></trkpt><trkpt lat="42.13502539863364" lon="12.433173564216816"><ele>352.0</ele><time>2026-04-18T13:31:15Z</time></trkpt><trkpt lat="42.13486863978022" lon="12.433152733726704"><ele>352.0</ele><time>2026-04-18T13:31:16Z</time></trkpt><trkpt lat="42.134696451908745" lon="12.433131008136998"><ele>352.3333333333333</ele><time>2026-04-18T13:31:17Z</time></trkpt><trkpt lat="42.1345241787063" lon="12.433127062990744"><ele>352.6666666666667</ele><time>2026-04-18T13:31:18Z</time></trkpt><trkpt lat="42.134363308721106" lon="12.433143431840225"><ele>353.0</ele><time>2026-04-18T13:31:19Z</time></trkpt><trkpt lat="42.13422098897063" lon="12.433185480734092"><ele>353.0</ele><time>2026-04-18T13:31:20Z</time></trkpt><trkpt lat="42.1340837737383" lon="12.433253723935648"><ele>353.0</ele><time>2026-04-18T13:31:21Z</time></trkpt><trkpt lat="42.133952683609124" lon="12.433364436115003"><ele>353.0</ele><time>2026-04-18T13:31:22Z</time></trkpt><trkpt lat="42.13382706652236" lon="12.433488562066266"><ele>351.25</ele><time>2026-04-18T13:31:23Z</time></trkpt><trkpt lat="42.133709538189926" lon="12.433596698947614"><ele>349.5</ele><time>2026-04-18T13:31:24Z</time></trkpt><trkpt lat="42.13359774375421" lon="12.433695360937977"><ele>347.75</ele><time>2026-04-18T13:31:25Z</time></trkpt><trkpt lat="42.13348732743685" lon="12.433788865661553"><ele>346.0</ele><time>2026-04-18T13:31:26Z</time></trkpt><trkpt lat="42.12331316616508" lon="12.431333073326543"><ele>317.66666666666663</ele><time>2026-04-18T13:32:27Z</time></trkpt><trkpt lat="42.12315119945415" lon="12.431154573266168"><ele>289.3333333333333</ele><time>2026-04-18T13:32:28Z</time></trkpt><trkpt lat="42.1229887206456" lon="12.430969798516237"><ele>261.0</ele><time>2026-04-18T13:32:29Z</time></trkpt><trkpt lat="42.122828822772945" lon="12.430783018849112"><ele>261.0</ele><time>2026-04-18T13:32:30Z</time></trkpt><trkpt lat="42.12266450672845" lon="12.430591389827525"><ele>261.0</ele><time>2026-04-18T13:32:31Z</time></trkpt><trkpt lat="42.12250591250721" lon="12.430403683948455"><ele>261.0</ele><time>2026-04-18T13:32:32Z</time></trkpt><trkpt lat="42.12234732272692" lon="12.43020722416011"><ele>261.0</ele><time>2026-04-18T13:32:33Z</time></trkpt><trkpt lat="42.122198162860194" lon="12.430010674608322"><ele>261.0</ele><time>2026-04-18T13:32:34Z</time></trkpt><trkpt lat="42.122050444779255" lon="12.42981529334073"><ele>261.0</ele><time>2026-04-18T13:32:35Z</time></trkpt><trkpt lat="42.121902524201666" lon="12.429621933583563"><ele>258.6666666666667</ele><time>2026-04-18T13:32:36Z</time></trkpt><trkpt lat="42.12175464777722" lon="12.429434692295981"><ele>256.33333333333337</ele><time>2026-04-18T13:32:37Z</time></trkpt><trkpt lat="42.12160441309865" lon="12.429258087913075"><ele>254.0</ele><time>2026-04-18T13:32:38Z</time></trkpt><trkpt lat="42.12143930370192" lon="12.42910906139428"><ele>253.66666666666669</ele><time>2026-04-18T13:32:39Z</time></trkpt><trkpt lat="42.121261764995126" lon="12.428988566966865"><ele>253.33333333333331</ele><time>2026-04-18T13:32:40Z</time></trkpt><trkpt lat="42.121080210572806" lon="12.428883117400725"><ele>253.0</ele><time>2026-04-18T13:32:41Z</time></trkpt><trkpt lat="42.120898219982166" lon="12.428784141269716"><ele>251.33333333333331</ele><time>2026-04-18T13:32:42Z</time></trkpt><trkpt lat="42.120713333573875" lon="12.42868759496796"><ele>249.66666666666669</ele><time>2026-04-18T13:32:43Z</time></trkpt><trkpt lat="42.120530187336286" lon="12.428604543871016"><ele>248.0</ele><time>2026-04-18T13:32:44Z</time></trkpt><trkpt lat="42.120357933251626" lon="12.42853993165523"><ele>248.0</ele><time>2026-04-18T13:32:45Z</time></trkpt><trkpt lat="42.120179528306345" lon="12.428473177938764"><ele>248.0</ele><time>2026-04-18T13:32:46Z</time></trkpt><trkpt lat="42.12001420032778" lon="12.428374340763662"><ele>248.0</ele><time>2026-04-18T13:32:47Z</time></trkpt><trkpt lat="42.11986681654912" lon="12.42820688144278"><ele>247.0</ele><time>2026-04-18T13:32:48Z</time></trkpt><trkpt lat="42.11969795844612" lon="12.428048328898813"><ele>246.0</ele><time>2026-04-18T13:32:49Z</time></trkpt><trkpt lat="42.119526907207366" lon="12.427875968516728"><ele>245.0</ele><time>2026-04-18T13:32:50Z</time></trkpt><trkpt lat="42.119344421094056" lon="12.427697825063579"><ele>245.0</ele><time>2026-04-18T13:32:51Z</time></trkpt><trkpt lat="42.11915960525173" lon="12.427529592119875"><ele>245.0</ele><time>2026-04-18T13:32:52Z</time></trkpt><trkpt lat="42.11897814493464" lon="12.427358549935809"><ele>245.0</ele><time>2026-04-18T13:32:53Z</time></trkpt><trkpt lat="42.118789766071046" lon="12.42718077040157"><ele>241.5</ele><time>2026-04-18T13:32:54Z</time></trkpt><trkpt lat="42.118606142709496" lon="12.427004907802397"><ele>238.0</ele><time>2026-04-18T13:32:55Z</time></trkpt><trkpt lat="42.11842371233541" lon="12.4268284940695"><ele>238.0</ele><time>2026-04-18T13:32:56Z</time></trkpt><trkpt lat="42.11824394989239" lon="12.426657462997818"><ele>238.0</ele><time>2026-04-18T13:32:57Z</time></trkpt><trkpt lat="42.11806464698029" lon="12.426487492856268"><ele>238.0</ele><time>2026-04-18T13:32:58Z</time></trkpt><trkpt lat="42.11788578954805" lon="12.426314514107652"><ele>238.0</ele><time>2026-04-18T13:32:59Z</time></trkpt><trkpt lat="42.117710849182075" lon="12.426138339715784"><ele>238.0</ele><time>2026-04-18T13:33:00Z</time></trkpt><trkpt lat="42.11753581817661" lon="12.425957408864022"><ele>238.0</ele><time>2026-04-18T13:33:01Z</time></trkpt><trkpt lat="42.117363126462266" lon="12.425781398166116"><ele>238.0</ele><time>2026-04-18T13:33:02Z</time></trkpt><trkpt lat="42.117190378733866" lon="12.425608395126694"><ele>238.0</ele><time>2026-04-18T13:33:03Z</time></trkpt><trkpt lat="42.11702103654398" lon="12.425443717750682"><ele>238.0</ele><time>2026-04-18T13:33:04Z</time></trkpt><trkpt lat="42.11685152765851" lon="12.425288138625572"><ele>238.0</ele><time>2026-04-18T13:33:05Z</time></trkpt><trkpt lat="42.11668126543832" lon="12.425133132968725"><ele>238.0</ele><time>2026-04-18T13:33:06Z</time></trkpt><trkpt lat="42.11651765734346" lon="12.424981956530674"><ele>238.0</ele><time>2026-04-18T13:33:07Z</time></trkpt><trkpt lat="42.11637000093215" lon="12.424824171944085"><ele>237.33333333333331</ele><time>2026-04-18T13:33:08Z</time></trkpt><trkpt lat="42.116239703926" lon="12.42465032515891"><ele>236.66666666666669</ele><time>2026-04-18T13:33:09Z</time></trkpt><trkpt lat="42.11611082421281" lon="12.424467808015839"><ele>236.0</ele><time>2026-04-18T13:33:10Z</time></trkpt><trkpt lat="42.115990982603364" lon="12.424283949536175"><ele>236.0</ele><time>2026-04-18T13:33:11Z</time></trkpt><trkpt lat="42.11585645031919" lon="12.424112972588757"><ele>236.0</ele><time>2026-04-18T13:33:12Z</time></trkpt><trkpt lat="42.1157470042704" lon="12.423880260910087"><ele>236.0</ele><time>2026-04-18T13:33:13Z</time></trkpt><trkpt lat="42.115640485417515" lon="12.42366909056403"><ele>235.33333333333334</ele><time>2026-04-18T13:33:14Z</time></trkpt><trkpt lat="42.115543336901105" lon="12.423461670675165"><ele>234.66666666666669</ele><time>2026-04-18T13:33:15Z</time></trkpt><trkpt lat="42.115445515524144" lon="12.423277280528172"><ele>234.0</ele><time>2026-04-18T13:33:16Z</time></trkpt><trkpt lat="42.11533828061376" lon="12.42311864978277"><ele>234.0</ele><time>2026-04-18T13:33:17Z</time></trkpt><trkpt lat="42.11520778486441" lon="12.423007861677261"><ele>234.0</ele><time>2026-04-18T13:33:18Z</time></trkpt><trkpt lat="42.115064272477966" lon="12.42294192869054"><ele>234.0</ele><time>2026-04-18T13:33:19Z</time></trkpt><trkpt lat="42.11492971221852" lon="12.422915653744798"><ele>234.0</ele><time>2026-04-18T13:33:20Z</time></trkpt><trkpt lat="42.11481689362139" lon="12.422905776875805"><ele>234.5</ele><time>2026-04-18T13:33:21Z</time></trkpt><trkpt lat="42.11470912535447" lon="12.422904016339611"><ele>235.0</ele><time>2026-04-18T13:33:22Z</time></trkpt><trkpt lat="42.114629679689095" lon="12.422877599321502"><ele>235.5</ele><time>2026-04-18T13:33:23Z</time></trkpt><trkpt lat="42.11457280802461" lon="12.422823012431595"><ele>236.0</ele><time>2026-04-18T13:33:24Z</time></trkpt><trkpt lat="42.10896485003036" lon="12.417410250708253"><ele>240.0</ele><time>2026-04-18T13:34:27Z</time></trkpt><trkpt lat="42.10880918206853" lon="12.417408708095095"><ele>244.0</ele><time>2026-04-18T13:34:28Z</time></trkpt><trkpt lat="42.108656356485135" lon="12.417357350048796"><ele>248.0</ele><time>2026-04-18T13:34:29Z</time></trkpt><trkpt lat="42.108509623933635" lon="12.41724761688194"><ele>246.66666666666669</ele><time>2026-04-18T13:34:30Z</time></trkpt><trkpt lat="42.10836740350857" lon="12.417108831339208"><ele>245.33333333333331</ele><time>2026-04-18T13:34:31Z</time></trkpt><trkpt lat="42.108234026943556" lon="12.416975339886845"><ele>244.0</ele><time>2026-04-18T13:34:32Z</time></trkpt><trkpt lat="42.108079797450756" lon="12.416851645720833"><ele>244.0</ele><time>2026-04-18T13:34:33Z</time></trkpt><trkpt lat="42.10792340041965" lon="12.416732379070874"><ele>244.0</ele><time>2026-04-18T13:34:34Z</time></trkpt><trkpt lat="42.10775468369928" lon="12.416625541783882"><ele>244.0</ele><time>2026-04-18T13:34:35Z</time></trkpt><trkpt lat="42.10760081186803" lon="12.416529096131466"><ele>244.0</ele><time>2026-04-18T13:34:36Z</time></trkpt><trkpt lat="42.10745448807202" lon="12.416438383796303"><ele>244.0</ele><time>2026-04-18T13:34:37Z</time></trkpt><trkpt lat="42.10730690574528" lon="12.416346809834266"><ele>244.0</ele><time>2026-04-18T13:34:38Z</time></trkpt><trkpt lat="42.10716361432228" lon="12.41626407369354"><ele>243.33333333333331</ele><time>2026-04-18T13:34:39Z</time></trkpt><trkpt lat="42.10701695248887" lon="12.4161878878101"><ele>242.66666666666669</ele><time>2026-04-18T13:34:40Z</time></trkpt><trkpt lat="42.10686208375412" lon="12.416124976915842"><ele>242.0</ele><time>2026-04-18T13:34:41Z</time></trkpt><trkpt lat="42.106687125012684" lon="12.41608665625348"><ele>243.0</ele><time>2026-04-18T13:34:42Z</time></trkpt><trkpt lat="42.106532123228696" lon="12.41607366476646"><ele>244.0</ele><time>2026-04-18T13:34:43Z</time></trkpt><trkpt lat="42.10637682719122" lon="12.41604543258355"><ele>245.0</ele><time>2026-04-18T13:34:44Z</time></trkpt><trkpt lat="42.10622885613234" lon="12.416020735656764"><ele>245.0</ele><time>2026-04-18T13:34:45Z</time></trkpt><trkpt lat="42.106093951818735" lon="12.41599677214128"><ele>245.0</ele><time>2026-04-18T13:34:46Z</time></trkpt><trkpt lat="42.10597407554293" lon="12.415979933158166"><ele>245.0</ele><time>2026-04-18T13:34:47Z</time></trkpt><trkpt lat="42.10586558492291" lon="12.415963073990183"><ele>245.0</ele><time>2026-04-18T13:34:48Z</time></trkpt><trkpt lat="42.10577820155463" lon="12.415951241715323"><ele>245.2</ele><time>2026-04-18T13:34:49Z</time></trkpt><trkpt lat="42.10567605486803" lon="12.415932493440247"><ele>245.4</ele><time>2026-04-18T13:34:51Z</time></trkpt><trkpt lat="42.10555357444127" lon="12.41591901710999"><ele>245.60000000000002</ele><time>2026-04-18T13:34:53Z</time></trkpt><trkpt lat="42.10545413878384" lon="12.415912156287614"><ele>245.8</ele><time>2026-04-18T13:34:54Z</time></trkpt><trkpt lat="42.1053492389089" lon="12.415909620649833"><ele>246.0</ele><time>2026-04-18T13:34:55Z</time></trkpt><trkpt lat="42.105237588355216" lon="12.415923899980044"><ele>246.0</ele><time>2026-04-18T13:34:56Z</time></trkpt><trkpt lat="42.10511163535428" lon="12.41594707659244"><ele>246.0</ele><time>2026-04-18T13:34:57Z</time></trkpt><trkpt lat="42.104970428814916" lon="12.415980588937183"><ele>246.0</ele><time>2026-04-18T13:34:58Z</time></trkpt><trkpt lat="42.10482373578503" lon="12.416028943840283"><ele>246.0</ele><time>2026-04-18T13:34:59Z</time></trkpt><trkpt lat="42.10467616178187" lon="12.416097203542094"><ele>246.5</ele><time>2026-04-18T13:35:00Z</time></trkpt><trkpt lat="42.104534217658" lon="12.416165453113186"><ele>247.0</ele><time>2026-04-18T13:35:01Z</time></trkpt><trkpt lat="42.10440320070166" lon="12.416219004407138"><ele>247.5</ele><time>2026-04-18T13:35:02Z</time></trkpt><trkpt lat="42.1042707450238" lon="12.416275375001758"><ele>248.0</ele><time>2026-04-18T13:35:03Z</time></trkpt><trkpt lat="42.104137101729144" lon="12.41633730088824"><ele>249.5</ele><time>2026-04-18T13:35:04Z</time></trkpt><trkpt lat="42.103999951347824" lon="12.416391803082652"><ele>251.0</ele><time>2026-04-18T13:35:05Z</time></trkpt><trkpt lat="42.10386101819287" lon="12.416442446913848"><ele>252.5</ele><time>2026-04-18T13:35:06Z</time></trkpt><trkpt lat="42.103726325813355" lon="12.416503922850685"><ele>254.0</ele><time>2026-04-18T13:35:07Z</time></trkpt><trkpt lat="42.10358891245171" lon="12.416559059554125"><ele>254.0</ele><time>2026-04-18T13:35:08Z</time></trkpt><trkpt lat="42.10345582888661" lon="12.416622646759327"><ele>254.0</ele><time>2026-04-18T13:35:09Z</time></trkpt><trkpt lat="42.10331192358874" lon="12.416676425598398"><ele>254.0</ele><time>2026-04-18T13:35:10Z</time></trkpt><trkpt lat="42.10316594013655" lon="12.416742609931386"><ele>254.0</ele><time>2026-04-18T13:35:11Z</time></trkpt><trkpt lat="42.10299664313466" lon="12.416773211585411"><ele>253.66666666666669</ele><time>2026-04-18T13:35:12Z</time></trkpt><trkpt lat="42.102844910415754" lon="12.416830666529444"><ele>253.33333333333331</ele><time>2026-04-18T13:35:13Z</time></trkpt><trkpt lat="42.10270602903639" lon="12.416912106408141"><ele>253.0</ele><time>2026-04-18T13:35:14Z</time></trkpt><trkpt lat="42.1025545971775" lon="12.416988770462437"><ele>253.66666666666666</ele><time>2026-04-18T13:35:15Z</time></trkpt><trkpt lat="42.10239126264228" lon="12.417030969302674"><ele>254.33333333333331</ele><time>2026-04-18T13:35:16Z</time></trkpt><trkpt lat="42.10223650447761" lon="12.417091889099682"><ele>255.0</ele><time>2026-04-18T13:35:17Z</time></trkpt><trkpt lat="42.102091995601384" lon="12.417159344978238"><ele>256.0</ele><time>2026-04-18T13:35:18Z</time></trkpt><trkpt lat="42.101954500669855" lon="12.417228607102327"><ele>257.0</ele><time>2026-04-18T13:35:19Z</time></trkpt><trkpt lat="42.10180765848433" lon="12.417287512471306"><ele>258.0</ele><time>2026-04-18T13:35:20Z</time></trkpt><trkpt lat="42.10166397802948" lon="12.417344560395046"><ele>257.25</ele><time>2026-04-18T13:35:21Z</time></trkpt><trkpt lat="42.101533245947905" lon="12.41742437522304"><ele>256.5</ele><time>2026-04-18T13:35:22Z</time></trkpt><trkpt lat="42.1014100256455" lon="12.417517779136425"><ele>255.75</ele><time>2026-04-18T13:35:23Z</time></trkpt><trkpt lat="42.10130195035514" lon="12.417631006020397"><ele>255.0</ele><time>2026-04-18T13:35:24Z</time></trkpt><trkpt lat="42.1012155612074" lon="12.417777156858323"><ele>255.0</ele><time>2026-04-18T13:35:25Z</time></trkpt><trkpt lat="42.10113867608516" lon="12.41793281728579"><ele>255.0</ele><time>2026-04-18T13:35:26Z</time></trkpt><trkpt lat="42.09360311163187" lon="12.41823743374147"><ele>267.0</ele><time>2026-04-18T13:36:27Z</time></trkpt><trkpt lat="42.093477806263444" lon="12.418113614262433"><ele>279.0</ele><time>2026-04-18T13:36:28Z</time></trkpt><trkpt lat="42.093356214798284" lon="12.417996510543347"><ele>291.0</ele><time>2026-04-18T13:36:29Z</time></trkpt><trkpt lat="42.09322972253923" lon="12.417872962581649"><ele>291.0</ele><time>2026-04-18T13:36:30Z</time></trkpt><trkpt lat="42.09311175696259" lon="12.417757460695514"><ele>291.0</ele><time>2026-04-18T13:36:31Z</time></trkpt><trkpt lat="42.09299876068887" lon="12.417657947344239"><ele>291.0</ele><time>2026-04-18T13:36:32Z</time></trkpt><trkpt lat="42.09288737069902" lon="12.41756035556635"><ele>291.0</ele><time>2026-04-18T13:36:33Z</time></trkpt><trkpt lat="42.092777804864795" lon="12.41744990684341"><ele>291.0</ele><time>2026-04-18T13:36:34Z</time></trkpt><trkpt lat="42.09267166481762" lon="12.41734133807438"><ele>291.0</ele><time>2026-04-18T13:36:35Z</time></trkpt><trkpt lat="42.09257121409802" lon="12.4172500005616"><ele>291.0</ele><time>2026-04-18T13:36:36Z</time></trkpt><trkpt lat="42.092479685965024" lon="12.417169803179329"><ele>291.0</ele><time>2026-04-18T13:36:37Z</time></trkpt><trkpt lat="42.09238706199163" lon="12.417076272222403"><ele>290.0</ele><time>2026-04-18T13:36:38Z</time></trkpt><trkpt lat="42.0922934742708" lon="12.416980600900613"><ele>289.0</ele><time>2026-04-18T13:36:39Z</time></trkpt><trkpt lat="42.09219512016199" lon="12.416880824637028"><ele>288.0</ele><time>2026-04-18T13:36:40Z</time></trkpt><trkpt lat="42.092098416211876" lon="12.416779205624055"><ele>287.0</ele><time>2026-04-18T13:36:41Z</time></trkpt><trkpt lat="42.092000637401206" lon="12.416679503452425"><ele>287.0</ele><time>2026-04-18T13:36:42Z</time></trkpt><trkpt lat="42.09190108229003" lon="12.41657911997041"><ele>287.0</ele><time>2026-04-18T13:36:43Z</time></trkpt><trkpt lat="42.09178518242024" lon="12.416458722104396"><ele>287.0</ele><time>2026-04-18T13:36:44Z</time></trkpt><trkpt lat="42.091667252410765" lon="12.416317898284397"><ele>287.0</ele><time>2026-04-18T13:36:45Z</time></trkpt><trkpt lat="42.09156232627259" lon="12.41615188910528"><ele>286.0</ele><time>2026-04-18T13:36:46Z</time></trkpt><trkpt lat="42.091470189093194" lon="12.41595632778288"><ele>285.0</ele><time>2026-04-18T13:36:47Z</time></trkpt><trkpt lat="42.09138438528882" lon="12.415751477287488"><ele>284.0</ele><time>2026-04-18T13:36:48Z</time></trkpt><trkpt lat="42.091307946435826" lon="12.415545361429764"><ele>285.0</ele><time>2026-04-18T13:36:49Z</time></trkpt><trkpt lat="42.09124089641472" lon="12.415346425629469"><ele>286.0</ele><time>2026-04-18T13:36:50Z</time></trkpt><trkpt lat="42.09119185018907" lon="12.415144143412759"><ele>287.0</ele><time>2026-04-18T13:36:51Z</time></trkpt><trkpt lat="42.09117666893229" lon="12.414928887936266"><ele>287.0</ele><time>2026-04-18T13:36:52Z</time></trkpt><trkpt lat="42.09117311868021" lon="12.414715827599899"><ele>287.0</ele><time>2026-04-18T13:36:53Z</time></trkpt><trkpt lat="42.09118648813418" lon="12.414491909493512"><ele>287.0</ele><time>2026-04-18T13:36:54Z</time></trkpt><trkpt lat="42.09120075130978" lon="12.414246378546398"><ele>286.0</ele><time>2026-04-18T13:36:55Z</time></trkpt><trkpt lat="42.09119654936582" lon="12.414032653285522"><ele>285.0</ele><time>2026-04-18T13:36:56Z</time></trkpt><trkpt lat="42.09120594111476" lon="12.41382907963385"><ele>284.0</ele><time>2026-04-18T13:36:57Z</time></trkpt><trkpt lat="42.091195574824056" lon="12.413604578872238"><ele>283.33333333333337</ele><time>2026-04-18T13:36:58Z</time></trkpt><trkpt lat="42.09116309767469" lon="12.413375166727306"><ele>282.6666666666667</ele><time>2026-04-18T13:36:59Z</time></trkpt><trkpt lat="42.091120094762424" lon="12.413147158193581"><ele>282.0</ele><time>2026-04-18T13:37:00Z</time></trkpt><trkpt lat="42.09107040656624" lon="12.412913249982449"><ele>281.6666666666667</ele><time>2026-04-18T13:37:01Z</time></trkpt><trkpt lat="42.09099015575567" lon="12.412696053062154"><ele>281.33333333333337</ele><time>2026-04-18T13:37:02Z</time></trkpt><trkpt lat="42.09090195161906" lon="12.412480964034364"><ele>281.0</ele><time>2026-04-18T13:37:03Z</time></trkpt><trkpt lat="42.09079627305437" lon="12.412276143640565"><ele>279.0</ele><time>2026-04-18T13:37:04Z</time></trkpt><trkpt lat="42.09069007801017" lon="12.412070263677068"><ele>277.0</ele><time>2026-04-18T13:37:05Z</time></trkpt><trkpt lat="42.09058167137865" lon="12.41186354539244"><ele>275.0</ele><time>2026-04-18T13:37:06Z</time></trkpt><trkpt lat="42.09047229829712" lon="12.411663346766057"><ele>275.0</ele><time>2026-04-18T13:37:07Z</time></trkpt><trkpt lat="42.09034906722809" lon="12.41146844403557"><ele>275.0</ele><time>2026-04-18T13:37:08Z</time></trkpt><trkpt lat="42.09022089065186" lon="12.411286999708798"><ele>275.0</ele><time>2026-04-18T13:37:09Z</time></trkpt><trkpt lat="42.09008367106055" lon="12.411111322330248"><ele>275.33333333333337</ele><time>2026-04-18T13:37:10Z</time></trkpt><trkpt lat="42.089946606811644" lon="12.410940116136176"><ele>275.6666666666667</ele><time>2026-04-18T13:37:11Z</time></trkpt><trkpt lat="42.089814319924706" lon="12.410770262331061"><ele>276.0</ele><time>2026-04-18T13:37:12Z</time></trkpt><trkpt lat="42.08968209841599" lon="12.410598278886932"><ele>276.0</ele><time>2026-04-18T13:37:13Z</time></trkpt><trkpt lat="42.08955644347351" lon="12.41043905336522"><ele>276.0</ele><time>2026-04-18T13:37:14Z</time></trkpt><trkpt lat="42.08943386158563" lon="12.410300591350534"><ele>276.0</ele><time>2026-04-18T13:37:15Z</time></trkpt><trkpt lat="42.089310535973624" lon="12.4101830615786"><ele>276.0</ele><time>2026-04-18T13:37:16Z</time></trkpt><trkpt lat="42.089138726354584" lon="12.410126845026127"><ele>276.0</ele><time>2026-04-18T13:37:17Z</time></trkpt><trkpt lat="42.088931982925466" lon="12.410146822341645"><ele>276.0</ele><time>2026-04-18T13:37:18Z</time></trkpt><trkpt lat="42.08870615942067" lon="12.410207535279268"><ele>276.3333333333333</ele><time>2026-04-18T13:37:19Z</time></trkpt><trkpt lat="42.088519044517675" lon="12.410278159572226"><ele>276.66666666666663</ele><time>2026-04-18T13:37:20Z</time></trkpt><trkpt lat="42.08839119349638" lon="12.410311892519877"><ele>277.0</ele><time>2026-04-18T13:37:21Z</time></trkpt><trkpt lat="42.0882642867483" lon="12.410276647560169"><ele>274.3333333333333</ele><time>2026-04-18T13:37:22Z</time></trkpt><trkpt lat="42.08817992357227" lon="12.410168767994156"><ele>271.6666666666667</ele><time>2026-04-18T13:37:23Z</time></trkpt><trkpt lat="42.08807582915388" lon="12.40999859037859"><ele>269.0</ele><time>2026-04-18T13:37:24Z</time></trkpt><trkpt lat="42.08794254515023" lon="12.40978530954882"><ele>273.5</ele><time>2026-04-18T13:37:25Z</time></trkpt><trkpt lat="42.08780494324895" lon="12.409590643952328"><ele>278.0</ele><time>2026-04-18T13:37:26Z</time></trkpt><trkpt lat="42.081747723434674" lon="12.406254059334222"><ele>267.75</ele><time>2026-04-18T13:38:27Z</time></trkpt><trkpt lat="42.08176759195268" lon="12.406072957974601"><ele>257.5</ele><time>2026-04-18T13:38:28Z</time></trkpt><trkpt lat="42.08177497435281" lon="12.405886738665107"><ele>247.25</ele><time>2026-04-18T13:38:29Z</time></trkpt><trkpt lat="42.08178778825164" lon="12.40570396310368"><ele>237.0</ele><time>2026-04-18T13:38:30Z</time></trkpt><trkpt lat="42.08179868639748" lon="12.405529387298516"><ele>238.0</ele><time>2026-04-18T13:38:31Z</time></trkpt><trkpt lat="42.081816031879676" lon="12.405350563994876"><ele>239.0</ele><time>2026-04-18T13:38:32Z</time></trkpt><trkpt lat="42.08184005723087" lon="12.405175661509265"><ele>240.0</ele><time>2026-04-18T13:38:33Z</time></trkpt><trkpt lat="42.08186676360309" lon="12.405013843147959"><ele>241.0</ele><time>2026-04-18T13:38:34Z</time></trkpt><trkpt lat="42.08190461196458" lon="12.404862380263763"><ele>241.0</ele><time>2026-04-18T13:38:35Z</time></trkpt><trkpt lat="42.081946458984" lon="12.404709678891003"><ele>241.0</ele><time>2026-04-18T13:38:36Z</time></trkpt><trkpt lat="42.08198632452111" lon="12.404553132808601"><ele>241.0</ele><time>2026-04-18T13:38:37Z</time></trkpt><trkpt lat="42.08202106139982" lon="12.404398495907998"><ele>241.0</ele><time>2026-04-18T13:38:38Z</time></trkpt><trkpt lat="42.0820577259571" lon="12.404260112950048"><ele>240.60000000000002</ele><time>2026-04-18T13:38:39Z</time></trkpt><trkpt lat="42.082081917149026" lon="12.404128313796509"><ele>240.20000000000002</ele><time>2026-04-18T13:38:40Z</time></trkpt><trkpt lat="42.08209038295616" lon="12.404000079005854"><ele>239.79999999999998</ele><time>2026-04-18T13:38:41Z</time></trkpt><trkpt lat="42.082088932206574" lon="12.403874827820928"><ele>239.39999999999998</ele><time>2026-04-18T13:38:42Z</time></trkpt><trkpt lat="42.08207484502191" lon="12.403761495214047"><ele>239.0</ele><time>2026-04-18T13:38:43Z</time></trkpt><trkpt lat="42.082066314351984" lon="12.403639173543844"><ele>239.00000000000003</ele><time>2026-04-18T13:38:44Z</time></trkpt><trkpt lat="42.08205733352969" lon="12.403517740317378"><ele>239.0</ele><time>2026-04-18T13:38:45Z</time></trkpt><trkpt lat="42.08207663449858" lon="12.403395943821618"><ele>239.0</ele><time>2026-04-18T13:38:46Z</time></trkpt><trkpt lat="42.08209127790144" lon="12.403273220389872"><ele>239.0</ele><time>2026-04-18T13:38:47Z</time></trkpt><trkpt lat="42.08209810191383" lon="12.403173608157045"><ele>239.00000000000003</ele><time>2026-04-18T13:38:48Z</time></trkpt><trkpt lat="42.082134137069026" lon="12.403060014437836"><ele>239.0</ele><time>2026-04-18T13:38:49Z</time></trkpt><trkpt lat="42.08216407522075" lon="12.40296299540662"><ele>238.16666666666669</ele><time>2026-04-18T13:38:50Z</time></trkpt><trkpt lat="42.08218118709227" lon="12.40286506530881"><ele>237.33333333333334</ele><time>2026-04-18T13:38:51Z</time></trkpt><trkpt lat="42.08218322265238" lon="12.402765520798368"><ele>236.5</ele><time>2026-04-18T13:38:52Z</time></trkpt><trkpt lat="42.082158414256625" lon="12.402664838013061"><ele>235.66666666666669</ele><time>2026-04-18T13:38:53Z</time></trkpt><trkpt lat="42.08210480634946" lon="12.402571394466388"><ele>234.83333333333334</ele><time>2026-04-18T13:38:54Z</time></trkpt><trkpt lat="42.082041232700384" lon="12.40249134153287"><ele>234.0</ele><time>2026-04-18T13:38:55Z</time></trkpt><trkpt lat="42.081979064362066" lon="12.402421322082901"><ele>234.0</ele><time>2026-04-18T13:38:56Z</time></trkpt><trkpt lat="42.081900558500195" lon="12.402364625244235"><ele>233.99999999999997</ele><time>2026-04-18T13:38:57Z</time></trkpt><trkpt lat="42.08182435075252" lon="12.40230667613533"><ele>233.99999999999997</ele><time>2026-04-18T13:38:58Z</time></trkpt><trkpt lat="42.081746342607104" lon="12.40224515168554"><ele>234.0</ele><time>2026-04-18T13:38:59Z</time></trkpt><trkpt lat="42.081662985382025" lon="12.402181318353238"><ele>234.0</ele><time>2026-04-18T13:39:00Z</time></trkpt><trkpt lat="42.08157581181764" lon="12.402122179615443"><ele>232.79999999999998</ele><time>2026-04-18T13:39:01Z</time></trkpt><trkpt lat="42.08149055247761" lon="12.402057676813696"><ele>231.59999999999997</ele><time>2026-04-18T13:39:02Z</time></trkpt><trkpt lat="42.0814041498896" lon="12.401993847023437"><ele>230.4</ele><time>2026-04-18T13:39:03Z</time></trkpt><trkpt lat="42.081319356236854" lon="12.401928617304536"><ele>229.2</ele><time>2026-04-18T13:39:04Z</time></trkpt><trkpt lat="42.0812308596159" lon="12.40186229870093"><ele>228.0</ele><time>2026-04-18T13:39:05Z</time></trkpt><trkpt lat="42.0811379260462" lon="12.401793057351167"><ele>228.0</ele><time>2026-04-18T13:39:06Z</time></trkpt><trkpt lat="42.081036784393376" lon="12.401722802170351"><ele>228.0</ele><time>2026-04-18T13:39:07Z</time></trkpt><trkpt lat="42.080935169603656" lon="12.401642349022994"><ele>228.0</ele><time>2026-04-18T13:39:08Z</time></trkpt><trkpt lat="42.08084474000675" lon="12.40156316620506"><ele>228.0</ele><time>2026-04-18T13:39:09Z</time></trkpt><trkpt lat="42.08076013307384" lon="12.40149888879402"><ele>228.0</ele><time>2026-04-18T13:39:10Z</time></trkpt><trkpt lat="42.08067009896609" lon="12.4014395431306"><ele>227.2</ele><time>2026-04-18T13:39:11Z</time></trkpt><trkpt lat="42.080583028682426" lon="12.401380580144082"><ele>226.4</ele><time>2026-04-18T13:39:12Z</time></trkpt><trkpt lat="42.080502420638425" lon="12.401331621733858"><ele>225.59999999999997</ele><time>2026-04-18T13:39:13Z</time></trkpt><trkpt lat="42.08042801058213" lon="12.40130005515183"><ele>224.79999999999998</ele><time>2026-04-18T13:39:14Z</time></trkpt><trkpt lat="42.080365517348234" lon="12.401249780229046"><ele>224.0</ele><time>2026-04-18T13:39:15Z</time></trkpt><trkpt lat="42.08031206566557" lon="12.401105025899078"><ele>224.0</ele><time>2026-04-18T13:39:17Z</time></trkpt><trkpt lat="42.080326933868236" lon="12.40101635459847"><ele>224.0</ele><time>2026-04-18T13:39:18Z</time></trkpt><trkpt lat="42.08034785128008" lon="12.400928962911697"><ele>224.0</ele><time>2026-04-18T13:39:19Z</time></trkpt><trkpt lat="42.0803597458467" lon="12.400832237434015"><ele>224.0</ele><time>2026-04-18T13:39:20Z</time></trkpt><trkpt lat="42.08036456550157" lon="12.400726317474847"><ele>224.0</ele><time>2026-04-18T13:39:21Z</time></trkpt><trkpt lat="42.08037056685028" lon="12.4006214480181"><ele>224.0</ele><time>2026-04-18T13:39:21.999Z</time></trkpt><trkpt lat="42.080387254340756" lon="12.400530152409248"><ele>224.0</ele><time>2026-04-18T13:39:22.999Z</time></trkpt><trkpt lat="42.08042267261431" lon="12.400438232627906"><ele>220.66666666666669</ele><time>2026-04-18T13:39:23.999Z</time></trkpt><trkpt lat="42.08047968004331" lon="12.400366399169723"><ele>217.33333333333331</ele><time>2026-04-18T13:39:24.999Z</time></trkpt><trkpt lat="42.080538423130456" lon="12.400308321258612"><ele>214.0</ele><time>2026-04-18T13:39:25.999Z</time></trkpt><trkpt lat="42.077989678536014" lon="12.399250778389527"><ele>213.75</ele><time>2026-04-18T13:40:27Z</time></trkpt><trkpt lat="42.0778667119067" lon="12.399269375574246"><ele>213.5</ele><time>2026-04-18T13:40:28Z</time></trkpt><trkpt lat="42.07775333578506" lon="12.399280386990327"><ele>213.25</ele><time>2026-04-18T13:40:29Z</time></trkpt><trkpt lat="42.077646905923366" lon="12.399290809285564"><ele>213.0</ele><time>2026-04-18T13:40:30Z</time></trkpt><trkpt lat="42.07753644915416" lon="12.399270929157922"><ele>212.2</ele><time>2026-04-18T13:40:31Z</time></trkpt><trkpt lat="42.07742167306289" lon="12.399274252692685"><ele>211.4</ele><time>2026-04-18T13:40:32Z</time></trkpt><trkpt lat="42.07732044813123" lon="12.399240130031119"><ele>210.6</ele><time>2026-04-18T13:40:33Z</time></trkpt><trkpt lat="42.077229195911464" lon="12.399207501298463"><ele>209.79999999999998</ele><time>2026-04-18T13:40:34Z</time></trkpt><trkpt lat="42.07713080468232" lon="12.399187603872667"><ele>209.0</ele><time>2026-04-18T13:40:35Z</time></trkpt><trkpt lat="42.07702737965429" lon="12.399157603622392"><ele>209.0</ele><time>2026-04-18T13:40:36Z</time></trkpt><trkpt lat="42.07692414721418" lon="12.39912367986059"><ele>209.0</ele><time>2026-04-18T13:40:37Z</time></trkpt><trkpt lat="42.076815973637565" lon="12.39908673546247"><ele>209.0</ele><time>2026-04-18T13:40:38Z</time></trkpt><trkpt lat="42.076709084794835" lon="12.399053402215896"><ele>209.0</ele><time>2026-04-18T13:40:39Z</time></trkpt><trkpt lat="42.07661061328968" lon="12.399017315938549"><ele>209.0</ele><time>2026-04-18T13:40:40Z</time></trkpt><trkpt lat="42.07651145189416" lon="12.398964978823143"><ele>208.75</ele><time>2026-04-18T13:40:41Z</time></trkpt><trkpt lat="42.07641850802818" lon="12.398880915821694"><ele>208.5</ele><time>2026-04-18T13:40:42Z</time></trkpt><trkpt lat="42.07634179394302" lon="12.398764994141306"><ele>208.25</ele><time>2026-04-18T13:40:43Z</time></trkpt><trkpt lat="42.07625788412176" lon="12.398658084997722"><ele>208.0</ele><time>2026-04-18T13:40:44Z</time></trkpt><trkpt lat="42.076154705672714" lon="12.398568976451013"><ele>208.0</ele><time>2026-04-18T13:40:45Z</time></trkpt><trkpt lat="42.07605263563189" lon="12.398500195149683"><ele>208.0</ele><time>2026-04-18T13:40:46Z</time></trkpt><trkpt lat="42.07594221858604" lon="12.398438607689135"><ele>208.0</ele><time>2026-04-18T13:40:47Z</time></trkpt><trkpt lat="42.07582992852485" lon="12.398407597338505"><ele>208.0</ele><time>2026-04-18T13:40:48Z</time></trkpt><trkpt lat="42.07572703793913" lon="12.398375652197808"><ele>207.60000000000002</ele><time>2026-04-18T13:40:49Z</time></trkpt><trkpt lat="42.07563681656421" lon="12.398322216128753"><ele>207.20000000000002</ele><time>2026-04-18T13:40:50Z</time></trkpt><trkpt lat="42.07555018233276" lon="12.398233627804684"><ele>206.8</ele><time>2026-04-18T13:40:51Z</time></trkpt><trkpt lat="42.07548301118019" lon="12.39811366119126"><ele>206.4</ele><time>2026-04-18T13:40:52Z</time></trkpt><trkpt lat="42.07543618123175" lon="12.397961702917765"><ele>206.0</ele><time>2026-04-18T13:40:53Z</time></trkpt><trkpt lat="42.07542249436078" lon="12.39779518974277"><ele>207.25</ele><time>2026-04-18T13:40:54Z</time></trkpt><trkpt lat="42.075423722078305" lon="12.397640048030736"><ele>208.5</ele><time>2026-04-18T13:40:55Z</time></trkpt><trkpt lat="42.07542794623148" lon="12.397438508277904"><ele>209.75</ele><time>2026-04-18T13:40:56Z</time></trkpt><trkpt lat="42.075417424116644" lon="12.39726854131162"><ele>211.0</ele><time>2026-04-18T13:40:57Z</time></trkpt><trkpt lat="42.07541572221467" lon="12.39712443827332"><ele>211.0</ele><time>2026-04-18T13:40:58Z</time></trkpt><trkpt lat="42.07542784747051" lon="12.397013263559515"><ele>211.0</ele><time>2026-04-18T13:40:59Z</time></trkpt><trkpt lat="42.075443166994276" lon="12.396923386518525"><ele>211.0</ele><time>2026-04-18T13:41:00Z</time></trkpt><trkpt lat="42.0754581619986" lon="12.396806269352021"><ele>211.0</ele><time>2026-04-18T13:41:01Z</time></trkpt><trkpt lat="42.07548647227204" lon="12.396633296885293"><ele>211.0</ele><time>2026-04-18T13:41:02Z</time></trkpt><trkpt lat="42.07553697854599" lon="12.396449821965467"><ele>211.66666666666666</ele><time>2026-04-18T13:41:03Z</time></trkpt><trkpt lat="42.075629595250135" lon="12.396271672691887"><ele>212.33333333333331</ele><time>2026-04-18T13:41:04Z</time></trkpt><trkpt lat="42.0757491677736" lon="12.396113477492849"><ele>213.0</ele><time>2026-04-18T13:41:05Z</time></trkpt><trkpt lat="42.075870689837835" lon="12.396004401632291"><ele>214.0</ele><time>2026-04-18T13:41:06Z</time></trkpt><trkpt lat="42.075975535164716" lon="12.395909044029993"><ele>215.0</ele><time>2026-04-18T13:41:07Z</time></trkpt><trkpt lat="42.07606090538684" lon="12.395800299923762"><ele>216.0</ele><time>2026-04-18T13:41:08Z</time></trkpt><trkpt lat="42.07614798180885" lon="12.395667609060894"><ele>217.0</ele><time>2026-04-18T13:41:09Z</time></trkpt><trkpt lat="42.07621671453686" lon="12.3955495089091"><ele>216.0</ele><time>2026-04-18T13:41:10Z</time></trkpt><trkpt lat="42.07626762702435" lon="12.395446817930917"><ele>215.0</ele><time>2026-04-18T13:41:11Z</time></trkpt><trkpt lat="42.07631685365829" lon="12.395377683675834"><ele>214.0</ele><time>2026-04-18T13:41:12Z</time></trkpt><trkpt lat="42.07646174653337" lon="12.395362606791194"><ele>213.0</ele><time>2026-04-18T13:41:14Z</time></trkpt><trkpt lat="42.076524478919175" lon="12.395319839688534"><ele>212.0</ele><time>2026-04-18T13:41:15Z</time></trkpt><trkpt lat="42.07656726990671" lon="12.395208057803773"><ele>212.00000000000003</ele><time>2026-04-18T13:41:16Z</time></trkpt><trkpt lat="42.0765969068066" lon="12.395061410790763"><ele>212.0</ele><time>2026-04-18T13:41:17Z</time></trkpt><trkpt lat="42.07661816435163" lon="12.394934630200243"><ele>212.0</ele><time>2026-04-18T13:41:18Z</time></trkpt><trkpt lat="42.07664281783918" lon="12.394816476196713"><ele>212.0</ele><time>2026-04-18T13:41:19Z</time></trkpt><trkpt lat="42.07665763567526" lon="12.394730520876784"><ele>212.00000000000003</ele><time>2026-04-18T13:41:20Z</time></trkpt><trkpt lat="42.07667657829984" lon="12.394640684607024"><ele>212.0</ele><time>2026-04-18T13:41:23Z</time></trkpt><trkpt lat="42.07661509887707" lon="12.393407444779571"><ele>211.25</ele><time>2026-04-18T13:49:27Z</time></trkpt><trkpt lat="42.07669588819215" lon="12.393300764070519"><ele>210.5</ele><time>2026-04-18T13:49:28Z</time></trkpt><trkpt lat="42.07682508715997" lon="12.393219593523085"><ele>209.75</ele><time>2026-04-18T13:49:29Z</time></trkpt><trkpt lat="42.07694541267428" lon="12.39319084357896"><ele>209.0</ele><time>2026-04-18T13:49:30Z</time></trkpt><trkpt lat="42.07704264123854" lon="12.393199244029459"><ele>209.0</ele><time>2026-04-18T13:49:31Z</time></trkpt><trkpt lat="42.07711230470933" lon="12.393173102190309"><ele>209.0</ele><time>2026-04-18T13:49:32Z</time></trkpt><trkpt lat="42.077091309157225" lon="12.392979258094375"><ele>209.0</ele><time>2026-04-18T13:49:34Z</time></trkpt><trkpt lat="42.07701004425499" lon="12.392930046132676"><ele>209.0</ele><time>2026-04-18T13:49:35Z</time></trkpt><trkpt lat="42.076903113458144" lon="12.392942755100252"><ele>209.0</ele><time>2026-04-18T13:49:36Z</time></trkpt><trkpt lat="42.07679254080478" lon="12.392981519950153"><ele>209.0</ele><time>2026-04-18T13:49:37Z</time></trkpt><trkpt lat="42.076693071807775" lon="12.393022363694909"><ele>209.0</ele><time>2026-04-18T13:49:38Z</time></trkpt><trkpt lat="42.07660803929053" lon="12.393088435877297"><ele>209.0</ele><time>2026-04-18T13:49:39Z</time></trkpt><trkpt lat="42.076526643181765" lon="12.393204349361225"><ele>209.0</ele><time>2026-04-18T13:49:40Z</time></trkpt><trkpt lat="42.07640413989768" lon="12.393348428766307"><ele>208.66666666666669</ele><time>2026-04-18T13:49:41Z</time></trkpt><trkpt lat="42.07624199283209" lon="12.393370364310409"><ele>208.33333333333331</ele><time>2026-04-18T13:49:42Z</time></trkpt><trkpt lat="42.07605687318451" lon="12.393436209599182"><ele>208.0</ele><time>2026-04-18T13:49:43Z</time></trkpt><trkpt lat="42.0758427332981" lon="12.393543015701768"><ele>208.0</ele><time>2026-04-18T13:49:44Z</time></trkpt><trkpt lat="42.07568362630127" lon="12.393666051021764"><ele>208.0</ele><time>2026-04-18T13:49:45Z</time></trkpt><trkpt lat="42.07556929644366" lon="12.393778906207386"><ele>208.0</ele><time>2026-04-18T13:49:46Z</time></trkpt><trkpt lat="42.075461919804404" lon="12.393905506914962"><ele>206.0</ele><time>2026-04-18T13:49:47Z</time></trkpt><trkpt lat="42.07535037488111" lon="12.394077775871883"><ele>204.0</ele><time>2026-04-18T13:49:48Z</time></trkpt><trkpt lat="42.07525905259214" lon="12.394244282379494"><ele>202.0</ele><time>2026-04-18T13:49:49Z</time></trkpt><trkpt lat="42.07515087244623" lon="12.39439889769218"><ele>202.0</ele><time>2026-04-18T13:49:50Z</time></trkpt><trkpt lat="42.07505661353163" lon="12.394541990547328"><ele>202.0</ele><time>2026-04-18T13:49:51Z</time></trkpt><trkpt lat="42.074943740441064" lon="12.394687639548575"><ele>202.0</ele><time>2026-04-18T13:49:52Z</time></trkpt><trkpt lat="42.074775070034455" lon="12.39479071918808"><ele>201.33333333333331</ele><time>2026-04-18T13:49:53Z</time></trkpt><trkpt lat="42.07460475030829" lon="12.394902479032266"><ele>200.66666666666669</ele><time>2026-04-18T13:49:54Z</time></trkpt><trkpt lat="42.07440699376526" lon="12.395018192650664"><ele>200.0</ele><time>2026-04-18T13:49:55Z</time></trkpt><trkpt lat="42.074175245493194" lon="12.395132576247367"><ele>197.33333333333334</ele><time>2026-04-18T13:49:56Z</time></trkpt><trkpt lat="42.07396593311722" lon="12.395230823107473"><ele>194.66666666666669</ele><time>2026-04-18T13:49:57Z</time></trkpt><trkpt lat="42.0737670602989" lon="12.39527650525406"><ele>192.0</ele><time>2026-04-18T13:49:58Z</time></trkpt><trkpt lat="42.07355995840716" lon="12.395317852322309"><ele>192.0</ele><time>2026-04-18T13:49:59Z</time></trkpt><trkpt lat="42.07334993994919" lon="12.395363858406402"><ele>192.0</ele><time>2026-04-18T13:50:00Z</time></trkpt><trkpt lat="42.073144128727044" lon="12.395388220954986"><ele>192.0</ele><time>2026-04-18T13:50:01Z</time></trkpt><trkpt lat="42.07294535901671" lon="12.395467162084037"><ele>191.66666666666666</ele><time>2026-04-18T13:50:02Z</time></trkpt><trkpt lat="42.072750383649215" lon="12.39553040705491"><ele>191.33333333333331</ele><time>2026-04-18T13:50:03Z</time></trkpt><trkpt lat="42.07257378667013" lon="12.395604110035864"><ele>191.0</ele><time>2026-04-18T13:50:04Z</time></trkpt><trkpt lat="42.07241295473732" lon="12.395670871422789"><ele>190.25</ele><time>2026-04-18T13:50:05Z</time></trkpt><trkpt lat="42.072262613517886" lon="12.395727152487726"><ele>189.5</ele><time>2026-04-18T13:50:06Z</time></trkpt><trkpt lat="42.072121925778745" lon="12.395772272859668"><ele>188.75</ele><time>2026-04-18T13:50:07Z</time></trkpt><trkpt lat="42.07198534028241" lon="12.395780853145432"><ele>188.0</ele><time>2026-04-18T13:50:08Z</time></trkpt><trkpt lat="42.07185648176253" lon="12.395759634042584"><ele>188.0</ele><time>2026-04-18T13:50:09Z</time></trkpt><trkpt lat="42.07174032974817" lon="12.39570733080798"><ele>188.0</ele><time>2026-04-18T13:50:10Z</time></trkpt><trkpt lat="42.07163367613148" lon="12.39564508768948"><ele>188.0</ele><time>2026-04-18T13:50:11Z</time></trkpt><trkpt lat="42.0715354450534" lon="12.395596442770948"><ele>188.0</ele><time>2026-04-18T13:50:12Z</time></trkpt><trkpt lat="42.071466238465355" lon="12.395483206456372"><ele>188.0</ele><time>2026-04-18T13:50:13Z</time></trkpt><trkpt lat="42.07141372387736" lon="12.395393928902376"><ele>188.0</ele><time>2026-04-18T13:50:14Z</time></trkpt><trkpt lat="42.07137466779459" lon="12.395313782472483"><ele>188.0</ele><time>2026-04-18T13:50:15Z</time></trkpt><trkpt lat="42.071340589209605" lon="12.395221948033377"><ele>188.0</ele><time>2026-04-18T13:50:17Z</time></trkpt><trkpt lat="42.07156363709074" lon="12.395628030738026"><ele>188.0</ele><time>2026-04-18T13:50:22Z</time></trkpt><trkpt lat="42.07160987948937" lon="12.39568803218475"><ele>188.0</ele><time>2026-04-18T13:50:23Z</time></trkpt><trkpt lat="42.07175241721092" lon="12.395744767174598"><ele>188.0</ele><time>2026-04-18T13:50:25Z</time></trkpt><trkpt lat="42.071908071382275" lon="12.39579499330452"><ele>188.0</ele><time>2026-04-18T13:50:26Z</time></trkpt><trkpt lat="42.07234724542532" lon="12.394938527129286"><ele>188.0</ele><time>2026-04-18T13:50:37Z</time></trkpt><trkpt lat="42.07226737943388" lon="12.394937645348476"><ele>188.0</ele><time>2026-04-18T13:50:39Z</time></trkpt><trkpt lat="42.07217587587743" lon="12.394964049838972"><ele>188.0</ele><time>2026-04-18T13:50:40Z</time></trkpt><trkpt lat="42.072063805565655" lon="12.39497607772352"><ele>188.0</ele><time>2026-04-18T13:50:41Z</time></trkpt><trkpt lat="42.07197447983748" lon="12.394969613519283"><ele>188.0</ele><time>2026-04-18T13:50:42Z</time></trkpt><trkpt lat="42.071902484755896" lon="12.394966598538758"><ele>188.0</ele><time>2026-04-18T13:50:43Z</time></trkpt><trkpt lat="42.071813852753785" lon="12.394885729970584"><ele>188.0</ele><time>2026-04-18T13:50:45Z</time></trkpt><trkpt lat="42.0717688159968" lon="12.394810162658823"><ele>188.0</ele><time>2026-04-18T13:50:46Z</time></trkpt><trkpt lat="42.071713358346884" lon="12.394749047018284"><ele>188.0</ele><time>2026-04-18T13:50:47Z</time></trkpt><trkpt lat="42.071616656756625" lon="12.394717177176357"><ele>188.0</ele><time>2026-04-18T13:50:49Z</time></trkpt><trkpt lat="42.0715906081687" lon="12.3946369979764"><ele>188.0</ele><time>2026-04-18T13:50:52Z</time></trkpt><trkpt lat="42.07160168177854" lon="12.394532217832605"><ele>188.0</ele><time>2026-04-18T13:51:02Z</time></trkpt><trkpt lat="42.07167866849833" lon="12.394220862245358"><ele>189.5</ele><time>2026-04-18T13:51:03Z</time></trkpt><trkpt lat="42.071573323572956" lon="12.394203650912553"><ele>191.0</ele><time>2026-04-18T13:51:05Z</time></trkpt><trkpt lat="42.07152018672196" lon="12.394158032097948"><ele>192.5</ele><time>2026-04-18T13:51:07Z</time></trkpt><trkpt lat="42.07154286563611" lon="12.39425534383617"><ele>194.0</ele><time>2026-04-18T13:51:10Z</time></trkpt><trkpt lat="42.071682005228745" lon="12.394620962452509"><ele>200.0</ele><time>2026-04-18T13:51:17Z</time></trkpt></trkseg></trk></gpx>